<?xml version="1.0" encoding="UTF-8" standalone="no" ?>
<gpx xmlns="http://www.topografix.com/GPX/1/1" xmlns:xsi="http://www.w3.org/2001/XMLSchema-instance" xsi:schemaLocation="http://www.topografix.com/GPX/1/1 http://www.topografix.com/GPX/1/1/gpx.xsd" version="1.1" creator="VisuGPX - https://www.visugpx.com">
  <metadata>
    <name>Luchon-Bayonne</name>
  </metadata>
  <trk>
    <name><![CDATA[8592918-Luchon-Bayonne]]></name>
    <trkseg>
      <trkpt lat="42.7888" lon="0.59512">
        <ele>631</ele>
        <time>2022-01-14T11:23:02Z</time>
      </trkpt>
      <trkpt lat="42.78906" lon="0.59484">
        <ele>630</ele>
        <time>2022-01-14T11:23:10Z</time>
      </trkpt>
      <trkpt lat="42.78908" lon="0.59408">
        <ele>630</ele>
        <time>2022-01-14T11:23:23Z</time>
      </trkpt>
      <trkpt lat="42.78892" lon="0.59335">
        <ele>630</ele>
        <time>2022-01-14T11:23:36Z</time>
      </trkpt>
      <trkpt lat="42.7888" lon="0.59229">
        <ele>634</ele>
        <time>2022-01-14T11:23:54Z</time>
      </trkpt>
      <trkpt lat="42.78974" lon="0.5918">
        <ele>635</ele>
        <time>2022-01-14T11:24:18Z</time>
      </trkpt>
      <trkpt lat="42.79012" lon="0.59164">
        <ele>636</ele>
        <time>2022-01-14T11:24:27Z</time>
      </trkpt>
      <trkpt lat="42.79032" lon="0.5915">
        <ele>636</ele>
        <time>2022-01-14T11:24:32Z</time>
      </trkpt>
      <trkpt lat="42.7906" lon="0.59137">
        <ele>637</ele>
        <time>2022-01-14T11:24:39Z</time>
      </trkpt>
      <trkpt lat="42.79101" lon="0.59107">
        <ele>637</ele>
        <time>2022-01-14T11:24:50Z</time>
      </trkpt>
      <trkpt lat="42.79124" lon="0.59103">
        <ele>638</ele>
        <time>2022-01-14T11:24:55Z</time>
      </trkpt>
      <trkpt lat="42.79137" lon="0.59089">
        <ele>638</ele>
        <time>2022-01-14T11:24:59Z</time>
      </trkpt>
      <trkpt lat="42.7915" lon="0.59084">
        <ele>638</ele>
        <time>2022-01-14T11:25:02Z</time>
      </trkpt>
      <trkpt lat="42.79161" lon="0.59076">
        <ele>638</ele>
        <time>2022-01-14T11:25:05Z</time>
      </trkpt>
      <trkpt lat="42.79164" lon="0.59059">
        <ele>638</ele>
        <time>2022-01-14T11:25:08Z</time>
      </trkpt>
      <trkpt lat="42.79163" lon="0.59046">
        <ele>638</ele>
        <time>2022-01-14T11:25:11Z</time>
      </trkpt>
      <trkpt lat="42.79171" lon="0.59015">
        <ele>637</ele>
        <time>2022-01-14T11:25:16Z</time>
      </trkpt>
      <trkpt lat="42.79176" lon="0.58966">
        <ele>637</ele>
        <time>2022-01-14T11:25:25Z</time>
      </trkpt>
      <trkpt lat="42.79174" lon="0.58925">
        <ele>636</ele>
        <time>2022-01-14T11:25:32Z</time>
      </trkpt>
      <trkpt lat="42.79175" lon="0.58876">
        <ele>637</ele>
        <time>2022-01-14T11:25:40Z</time>
      </trkpt>
      <trkpt lat="42.7919" lon="0.58783">
        <ele>639</ele>
        <time>2022-01-14T11:25:56Z</time>
      </trkpt>
      <trkpt lat="42.79196" lon="0.58769">
        <ele>640</ele>
        <time>2022-01-14T11:25:59Z</time>
      </trkpt>
      <trkpt lat="42.79202" lon="0.58737">
        <ele>641</ele>
        <time>2022-01-14T11:26:05Z</time>
      </trkpt>
      <trkpt lat="42.79209" lon="0.5867">
        <ele>643</ele>
        <time>2022-01-14T11:26:17Z</time>
      </trkpt>
      <trkpt lat="42.79241" lon="0.58485">
        <ele>648</ele>
        <time>2022-01-14T11:26:49Z</time>
      </trkpt>
      <trkpt lat="42.79241" lon="0.58464">
        <ele>649</ele>
        <time>2022-01-14T11:26:53Z</time>
      </trkpt>
      <trkpt lat="42.79251" lon="0.58386">
        <ele>649</ele>
        <time>2022-01-14T11:27:06Z</time>
      </trkpt>
      <trkpt lat="42.79277" lon="0.58216">
        <ele>661</ele>
        <time>2022-01-14T11:27:36Z</time>
      </trkpt>
      <trkpt lat="42.79301" lon="0.58078">
        <ele>672</ele>
        <time>2022-01-14T11:28:00Z</time>
      </trkpt>
      <trkpt lat="42.79306" lon="0.58061">
        <ele>674</ele>
        <time>2022-01-14T11:28:03Z</time>
      </trkpt>
      <trkpt lat="42.79367" lon="0.57942">
        <ele>680</ele>
        <time>2022-01-14T11:28:28Z</time>
      </trkpt>
      <trkpt lat="42.79392" lon="0.57886">
        <ele>678</ele>
        <time>2022-01-14T11:28:40Z</time>
      </trkpt>
      <trkpt lat="42.7942" lon="0.57861">
        <ele>671</ele>
        <time>2022-01-14T11:28:47Z</time>
      </trkpt>
      <trkpt lat="42.79429" lon="0.57841">
        <ele>673</ele>
        <time>2022-01-14T11:28:51Z</time>
      </trkpt>
      <trkpt lat="42.79441" lon="0.57823">
        <ele>675</ele>
        <time>2022-01-14T11:28:56Z</time>
      </trkpt>
      <trkpt lat="42.79454" lon="0.57814">
        <ele>677</ele>
        <time>2022-01-14T11:28:59Z</time>
      </trkpt>
      <trkpt lat="42.79463" lon="0.5782">
        <ele>679</ele>
        <time>2022-01-14T11:29:01Z</time>
      </trkpt>
      <trkpt lat="42.79465" lon="0.57827">
        <ele>680</ele>
        <time>2022-01-14T11:29:03Z</time>
      </trkpt>
      <trkpt lat="42.79464" lon="0.57835">
        <ele>680</ele>
        <time>2022-01-14T11:29:04Z</time>
      </trkpt>
      <trkpt lat="42.79457" lon="0.5786">
        <ele>681</ele>
        <time>2022-01-14T11:29:09Z</time>
      </trkpt>
      <trkpt lat="42.79439" lon="0.57888">
        <ele>678</ele>
        <time>2022-01-14T11:29:15Z</time>
      </trkpt>
      <trkpt lat="42.79421" lon="0.57975">
        <ele>676</ele>
        <time>2022-01-14T11:29:30Z</time>
      </trkpt>
      <trkpt lat="42.79423" lon="0.57991">
        <ele>677</ele>
        <time>2022-01-14T11:29:33Z</time>
      </trkpt>
      <trkpt lat="42.79427" lon="0.57997">
        <ele>679</ele>
        <time>2022-01-14T11:29:35Z</time>
      </trkpt>
      <trkpt lat="42.79433" lon="0.58">
        <ele>682</ele>
        <time>2022-01-14T11:29:36Z</time>
      </trkpt>
      <trkpt lat="42.79439" lon="0.57998">
        <ele>685</ele>
        <time>2022-01-14T11:29:38Z</time>
      </trkpt>
      <trkpt lat="42.79444" lon="0.57993">
        <ele>686</ele>
        <time>2022-01-14T11:29:39Z</time>
      </trkpt>
      <trkpt lat="42.79448" lon="0.57986">
        <ele>688</ele>
        <time>2022-01-14T11:29:41Z</time>
      </trkpt>
      <trkpt lat="42.79454" lon="0.57955">
        <ele>688</ele>
        <time>2022-01-14T11:29:46Z</time>
      </trkpt>
      <trkpt lat="42.79466" lon="0.5792">
        <ele>689</ele>
        <time>2022-01-14T11:29:53Z</time>
      </trkpt>
      <trkpt lat="42.79496" lon="0.57883">
        <ele>694</ele>
        <time>2022-01-14T11:30:02Z</time>
      </trkpt>
      <trkpt lat="42.79528" lon="0.57828">
        <ele>701</ele>
        <time>2022-01-14T11:30:14Z</time>
      </trkpt>
      <trkpt lat="42.79576" lon="0.57734">
        <ele>717</ele>
        <time>2022-01-14T11:30:34Z</time>
      </trkpt>
      <trkpt lat="42.79582" lon="0.57712">
        <ele>716</ele>
        <time>2022-01-14T11:30:38Z</time>
      </trkpt>
      <trkpt lat="42.79586" lon="0.57684">
        <ele>715</ele>
        <time>2022-01-14T11:30:43Z</time>
      </trkpt>
      <trkpt lat="42.79587" lon="0.5756">
        <ele>719</ele>
        <time>2022-01-14T11:31:04Z</time>
      </trkpt>
      <trkpt lat="42.79603" lon="0.57501">
        <ele>730</ele>
        <time>2022-01-14T11:31:15Z</time>
      </trkpt>
      <trkpt lat="42.79613" lon="0.57453">
        <ele>734</ele>
        <time>2022-01-14T11:31:23Z</time>
      </trkpt>
      <trkpt lat="42.79635" lon="0.57381">
        <ele>744</ele>
        <time>2022-01-14T11:31:37Z</time>
      </trkpt>
      <trkpt lat="42.79661" lon="0.57231">
        <ele>757</ele>
        <time>2022-01-14T11:32:03Z</time>
      </trkpt>
      <trkpt lat="42.79661" lon="0.57185">
        <ele>758</ele>
        <time>2022-01-14T11:32:11Z</time>
      </trkpt>
      <trkpt lat="42.79658" lon="0.57163">
        <ele>757</ele>
        <time>2022-01-14T11:32:15Z</time>
      </trkpt>
      <trkpt lat="42.79636" lon="0.57084">
        <ele>756</ele>
        <time>2022-01-14T11:32:29Z</time>
      </trkpt>
      <trkpt lat="42.79626" lon="0.57058">
        <ele>753</ele>
        <time>2022-01-14T11:32:34Z</time>
      </trkpt>
      <trkpt lat="42.79622" lon="0.57033">
        <ele>753</ele>
        <time>2022-01-14T11:32:39Z</time>
      </trkpt>
      <trkpt lat="42.79633" lon="0.57012">
        <ele>758</ele>
        <time>2022-01-14T11:32:43Z</time>
      </trkpt>
      <trkpt lat="42.79674" lon="0.5687">
        <ele>754</ele>
        <time>2022-01-14T11:33:09Z</time>
      </trkpt>
      <trkpt lat="42.79694" lon="0.5683">
        <ele>757</ele>
        <time>2022-01-14T11:33:17Z</time>
      </trkpt>
      <trkpt lat="42.79715" lon="0.56799">
        <ele>763</ele>
        <time>2022-01-14T11:33:25Z</time>
      </trkpt>
      <trkpt lat="42.79731" lon="0.56767">
        <ele>763</ele>
        <time>2022-01-14T11:33:31Z</time>
      </trkpt>
      <trkpt lat="42.79753" lon="0.56696">
        <ele>759</ele>
        <time>2022-01-14T11:33:45Z</time>
      </trkpt>
      <trkpt lat="42.79767" lon="0.56677">
        <ele>760</ele>
        <time>2022-01-14T11:33:49Z</time>
      </trkpt>
      <trkpt lat="42.79777" lon="0.56669">
        <ele>760</ele>
        <time>2022-01-14T11:33:52Z</time>
      </trkpt>
      <trkpt lat="42.79792" lon="0.56662">
        <ele>762</ele>
        <time>2022-01-14T11:33:56Z</time>
      </trkpt>
      <trkpt lat="42.79815" lon="0.5666">
        <ele>766</ele>
        <time>2022-01-14T11:34:01Z</time>
      </trkpt>
      <trkpt lat="42.79831" lon="0.56662">
        <ele>768</ele>
        <time>2022-01-14T11:34:05Z</time>
      </trkpt>
      <trkpt lat="42.7985" lon="0.56661">
        <ele>770</ele>
        <time>2022-01-14T11:34:09Z</time>
      </trkpt>
      <trkpt lat="42.79893" lon="0.56654">
        <ele>775</ele>
        <time>2022-01-14T11:34:19Z</time>
      </trkpt>
      <trkpt lat="42.79905" lon="0.5665">
        <ele>776</ele>
        <time>2022-01-14T11:34:22Z</time>
      </trkpt>
      <trkpt lat="42.79995" lon="0.56584">
        <ele>766</ele>
        <time>2022-01-14T11:34:46Z</time>
      </trkpt>
      <trkpt lat="42.80011" lon="0.56565">
        <ele>772</ele>
        <time>2022-01-14T11:34:51Z</time>
      </trkpt>
      <trkpt lat="42.80023" lon="0.56555">
        <ele>776</ele>
        <time>2022-01-14T11:34:54Z</time>
      </trkpt>
      <trkpt lat="42.80096" lon="0.56511">
        <ele>774</ele>
        <time>2022-01-14T11:35:13Z</time>
      </trkpt>
      <trkpt lat="42.80128" lon="0.56489">
        <ele>770</ele>
        <time>2022-01-14T11:35:21Z</time>
      </trkpt>
      <trkpt lat="42.80175" lon="0.56442">
        <ele>772</ele>
        <time>2022-01-14T11:35:35Z</time>
      </trkpt>
      <trkpt lat="42.80269" lon="0.56317">
        <ele>778</ele>
        <time>2022-01-14T11:36:06Z</time>
      </trkpt>
      <trkpt lat="42.80297" lon="0.56278">
        <ele>784</ele>
        <time>2022-01-14T11:36:15Z</time>
      </trkpt>
      <trkpt lat="42.80318" lon="0.56224">
        <ele>782</ele>
        <time>2022-01-14T11:36:25Z</time>
      </trkpt>
      <trkpt lat="42.80335" lon="0.56203">
        <ele>778</ele>
        <time>2022-01-14T11:36:31Z</time>
      </trkpt>
      <trkpt lat="42.80354" lon="0.56198">
        <ele>781</ele>
        <time>2022-01-14T11:36:35Z</time>
      </trkpt>
      <trkpt lat="42.80399" lon="0.562">
        <ele>790</ele>
        <time>2022-01-14T11:36:46Z</time>
      </trkpt>
      <trkpt lat="42.80419" lon="0.56194">
        <ele>792</ele>
        <time>2022-01-14T11:36:51Z</time>
      </trkpt>
      <trkpt lat="42.80481" lon="0.5616">
        <ele>800</ele>
        <time>2022-01-14T11:37:06Z</time>
      </trkpt>
      <trkpt lat="42.80529" lon="0.56119">
        <ele>807</ele>
        <time>2022-01-14T11:37:19Z</time>
      </trkpt>
      <trkpt lat="42.80546" lon="0.56109">
        <ele>807</ele>
        <time>2022-01-14T11:37:24Z</time>
      </trkpt>
      <trkpt lat="42.8057" lon="0.56104">
        <ele>809</ele>
        <time>2022-01-14T11:37:29Z</time>
      </trkpt>
      <trkpt lat="42.80595" lon="0.56105">
        <ele>813</ele>
        <time>2022-01-14T11:37:35Z</time>
      </trkpt>
      <trkpt lat="42.80626" lon="0.56098">
        <ele>817</ele>
        <time>2022-01-14T11:37:43Z</time>
      </trkpt>
      <trkpt lat="42.80635" lon="0.56088">
        <ele>816</ele>
        <time>2022-01-14T11:37:45Z</time>
      </trkpt>
      <trkpt lat="42.80639" lon="0.5607">
        <ele>818</ele>
        <time>2022-01-14T11:37:48Z</time>
      </trkpt>
      <trkpt lat="42.80634" lon="0.56045">
        <ele>823</ele>
        <time>2022-01-14T11:37:53Z</time>
      </trkpt>
      <trkpt lat="42.80621" lon="0.56028">
        <ele>824</ele>
        <time>2022-01-14T11:37:57Z</time>
      </trkpt>
      <trkpt lat="42.80612" lon="0.56022">
        <ele>824</ele>
        <time>2022-01-14T11:37:59Z</time>
      </trkpt>
      <trkpt lat="42.80593" lon="0.56012">
        <ele>823</ele>
        <time>2022-01-14T11:38:04Z</time>
      </trkpt>
      <trkpt lat="42.80574" lon="0.56006">
        <ele>821</ele>
        <time>2022-01-14T11:38:09Z</time>
      </trkpt>
      <trkpt lat="42.80553" lon="0.56006">
        <ele>819</ele>
        <time>2022-01-14T11:38:14Z</time>
      </trkpt>
      <trkpt lat="42.80544" lon="0.56011">
        <ele>817</ele>
        <time>2022-01-14T11:38:16Z</time>
      </trkpt>
      <trkpt lat="42.80521" lon="0.56006">
        <ele>815</ele>
        <time>2022-01-14T11:38:21Z</time>
      </trkpt>
      <trkpt lat="42.80502" lon="0.56011">
        <ele>812</ele>
        <time>2022-01-14T11:38:26Z</time>
      </trkpt>
      <trkpt lat="42.80482" lon="0.56026">
        <ele>805</ele>
        <time>2022-01-14T11:38:31Z</time>
      </trkpt>
      <trkpt lat="42.80474" lon="0.56029">
        <ele>802</ele>
        <time>2022-01-14T11:38:33Z</time>
      </trkpt>
      <trkpt lat="42.80469" lon="0.56028">
        <ele>801</ele>
        <time>2022-01-14T11:38:34Z</time>
      </trkpt>
      <trkpt lat="42.80464" lon="0.56024">
        <ele>801</ele>
        <time>2022-01-14T11:38:36Z</time>
      </trkpt>
      <trkpt lat="42.80464" lon="0.56005">
        <ele>803</ele>
        <time>2022-01-14T11:38:39Z</time>
      </trkpt>
      <trkpt lat="42.80468" lon="0.55996">
        <ele>805</ele>
        <time>2022-01-14T11:38:41Z</time>
      </trkpt>
      <trkpt lat="42.80475" lon="0.5599">
        <ele>807</ele>
        <time>2022-01-14T11:38:43Z</time>
      </trkpt>
      <trkpt lat="42.80505" lon="0.55986">
        <ele>815</ele>
        <time>2022-01-14T11:38:50Z</time>
      </trkpt>
      <trkpt lat="42.80527" lon="0.5597">
        <ele>821</ele>
        <time>2022-01-14T11:38:56Z</time>
      </trkpt>
      <trkpt lat="42.80548" lon="0.55963">
        <ele>826</ele>
        <time>2022-01-14T11:39:01Z</time>
      </trkpt>
      <trkpt lat="42.80581" lon="0.55963">
        <ele>833</ele>
        <time>2022-01-14T11:39:08Z</time>
      </trkpt>
      <trkpt lat="42.8061" lon="0.55967">
        <ele>838</ele>
        <time>2022-01-14T11:39:15Z</time>
      </trkpt>
      <trkpt lat="42.80645" lon="0.55984">
        <ele>840</ele>
        <time>2022-01-14T11:39:24Z</time>
      </trkpt>
      <trkpt lat="42.80657" lon="0.5598">
        <ele>844</ele>
        <time>2022-01-14T11:39:27Z</time>
      </trkpt>
      <trkpt lat="42.80666" lon="0.55963">
        <ele>851</ele>
        <time>2022-01-14T11:39:30Z</time>
      </trkpt>
      <trkpt lat="42.80661" lon="0.55947">
        <ele>855</ele>
        <time>2022-01-14T11:39:33Z</time>
      </trkpt>
      <trkpt lat="42.80655" lon="0.55942">
        <ele>856</ele>
        <time>2022-01-14T11:39:35Z</time>
      </trkpt>
      <trkpt lat="42.80641" lon="0.55938">
        <ele>854</ele>
        <time>2022-01-14T11:39:38Z</time>
      </trkpt>
      <trkpt lat="42.80616" lon="0.55942">
        <ele>846</ele>
        <time>2022-01-14T11:39:44Z</time>
      </trkpt>
      <trkpt lat="42.8059" lon="0.55933">
        <ele>843</ele>
        <time>2022-01-14T11:39:50Z</time>
      </trkpt>
      <trkpt lat="42.8058" lon="0.55925">
        <ele>842</ele>
        <time>2022-01-14T11:39:53Z</time>
      </trkpt>
      <trkpt lat="42.80552" lon="0.5588">
        <ele>839</ele>
        <time>2022-01-14T11:40:03Z</time>
      </trkpt>
      <trkpt lat="42.80547" lon="0.5586">
        <ele>839</ele>
        <time>2022-01-14T11:40:07Z</time>
      </trkpt>
      <trkpt lat="42.80547" lon="0.55847">
        <ele>840</ele>
        <time>2022-01-14T11:40:09Z</time>
      </trkpt>
      <trkpt lat="42.80552" lon="0.55822">
        <ele>843</ele>
        <time>2022-01-14T11:40:14Z</time>
      </trkpt>
      <trkpt lat="42.8059" lon="0.55704">
        <ele>862</ele>
        <time>2022-01-14T11:40:36Z</time>
      </trkpt>
      <trkpt lat="42.80611" lon="0.55587">
        <ele>870</ele>
        <time>2022-01-14T11:40:56Z</time>
      </trkpt>
      <trkpt lat="42.80615" lon="0.55552">
        <ele>874</ele>
        <time>2022-01-14T11:41:02Z</time>
      </trkpt>
      <trkpt lat="42.80616" lon="0.55527">
        <ele>876</ele>
        <time>2022-01-14T11:41:07Z</time>
      </trkpt>
      <trkpt lat="42.8061" lon="0.55433">
        <ele>881</ele>
        <time>2022-01-14T11:41:23Z</time>
      </trkpt>
      <trkpt lat="42.80597" lon="0.55337">
        <ele>880</ele>
        <time>2022-01-14T11:41:39Z</time>
      </trkpt>
      <trkpt lat="42.80597" lon="0.55243">
        <ele>894</ele>
        <time>2022-01-14T11:41:56Z</time>
      </trkpt>
      <trkpt lat="42.80605" lon="0.55173">
        <ele>899</ele>
        <time>2022-01-14T11:42:08Z</time>
      </trkpt>
      <trkpt lat="42.80636" lon="0.54993">
        <ele>912</ele>
        <time>2022-01-14T11:42:39Z</time>
      </trkpt>
      <trkpt lat="42.80637" lon="0.54976">
        <ele>914</ele>
        <time>2022-01-14T11:42:42Z</time>
      </trkpt>
      <trkpt lat="42.80633" lon="0.54928">
        <ele>914</ele>
        <time>2022-01-14T11:42:51Z</time>
      </trkpt>
      <trkpt lat="42.80631" lon="0.54856">
        <ele>914</ele>
        <time>2022-01-14T11:43:03Z</time>
      </trkpt>
      <trkpt lat="42.80634" lon="0.54836">
        <ele>916</ele>
        <time>2022-01-14T11:43:06Z</time>
      </trkpt>
      <trkpt lat="42.80646" lon="0.54806">
        <ele>923</ele>
        <time>2022-01-14T11:43:12Z</time>
      </trkpt>
      <trkpt lat="42.80654" lon="0.54776">
        <ele>929</ele>
        <time>2022-01-14T11:43:18Z</time>
      </trkpt>
      <trkpt lat="42.8066" lon="0.54674">
        <ele>932</ele>
        <time>2022-01-14T11:43:35Z</time>
      </trkpt>
      <trkpt lat="42.80659" lon="0.54629">
        <ele>934</ele>
        <time>2022-01-14T11:43:43Z</time>
      </trkpt>
      <trkpt lat="42.80648" lon="0.54535">
        <ele>935</ele>
        <time>2022-01-14T11:43:59Z</time>
      </trkpt>
      <trkpt lat="42.80647" lon="0.54439">
        <ele>940</ele>
        <time>2022-01-14T11:44:16Z</time>
      </trkpt>
      <trkpt lat="42.80641" lon="0.54398">
        <ele>941</ele>
        <time>2022-01-14T11:44:23Z</time>
      </trkpt>
      <trkpt lat="42.80625" lon="0.54333">
        <ele>942</ele>
        <time>2022-01-14T11:44:35Z</time>
      </trkpt>
      <trkpt lat="42.80619" lon="0.54293">
        <ele>942</ele>
        <time>2022-01-14T11:44:42Z</time>
      </trkpt>
      <trkpt lat="42.8062" lon="0.54112">
        <ele>952</ele>
        <time>2022-01-14T11:45:13Z</time>
      </trkpt>
      <trkpt lat="42.80629" lon="0.54018">
        <ele>957</ele>
        <time>2022-01-14T11:45:29Z</time>
      </trkpt>
      <trkpt lat="42.80652" lon="0.53869">
        <ele>963</ele>
        <time>2022-01-14T11:45:55Z</time>
      </trkpt>
      <trkpt lat="42.80662" lon="0.53781">
        <ele>968</ele>
        <time>2022-01-14T11:46:10Z</time>
      </trkpt>
      <trkpt lat="42.80664" lon="0.53718">
        <ele>971</ele>
        <time>2022-01-14T11:46:21Z</time>
      </trkpt>
      <trkpt lat="42.80661" lon="0.53613">
        <ele>970</ele>
        <time>2022-01-14T11:46:39Z</time>
      </trkpt>
      <trkpt lat="42.80664" lon="0.53578">
        <ele>968</ele>
        <time>2022-01-14T11:46:45Z</time>
      </trkpt>
      <trkpt lat="42.80684" lon="0.53474">
        <ele>973</ele>
        <time>2022-01-14T11:47:04Z</time>
      </trkpt>
      <trkpt lat="42.8069" lon="0.53424">
        <ele>975</ele>
        <time>2022-01-14T11:47:12Z</time>
      </trkpt>
      <trkpt lat="42.80684" lon="0.53352">
        <ele>977</ele>
        <time>2022-01-14T11:47:25Z</time>
      </trkpt>
      <trkpt lat="42.80685" lon="0.53313">
        <ele>979</ele>
        <time>2022-01-14T11:47:31Z</time>
      </trkpt>
      <trkpt lat="42.80705" lon="0.53225">
        <ele>984</ele>
        <time>2022-01-14T11:47:47Z</time>
      </trkpt>
      <trkpt lat="42.80722" lon="0.53128">
        <ele>992</ele>
        <time>2022-01-14T11:48:04Z</time>
      </trkpt>
      <trkpt lat="42.80735" lon="0.53069">
        <ele>998</ele>
        <time>2022-01-14T11:48:15Z</time>
      </trkpt>
      <trkpt lat="42.80739" lon="0.53036">
        <ele>1000</ele>
        <time>2022-01-14T11:48:20Z</time>
      </trkpt>
      <trkpt lat="42.80738" lon="0.52986">
        <ele>1003</ele>
        <time>2022-01-14T11:48:29Z</time>
      </trkpt>
      <trkpt lat="42.80728" lon="0.52933">
        <ele>1006</ele>
        <time>2022-01-14T11:48:38Z</time>
      </trkpt>
      <trkpt lat="42.80716" lon="0.5289">
        <ele>1009</ele>
        <time>2022-01-14T11:48:46Z</time>
      </trkpt>
      <trkpt lat="42.80655" lon="0.52732">
        <ele>1022</ele>
        <time>2022-01-14T11:49:17Z</time>
      </trkpt>
      <trkpt lat="42.80612" lon="0.52524">
        <ele>1037</ele>
        <time>2022-01-14T11:49:54Z</time>
      </trkpt>
      <trkpt lat="42.80606" lon="0.52478">
        <ele>1040</ele>
        <time>2022-01-14T11:50:02Z</time>
      </trkpt>
      <trkpt lat="42.80608" lon="0.52369">
        <ele>1051</ele>
        <time>2022-01-14T11:50:21Z</time>
      </trkpt>
      <trkpt lat="42.80598" lon="0.52204">
        <ele>1064</ele>
        <time>2022-01-14T11:50:49Z</time>
      </trkpt>
      <trkpt lat="42.80602" lon="0.52177">
        <ele>1066</ele>
        <time>2022-01-14T11:50:54Z</time>
      </trkpt>
      <trkpt lat="42.80636" lon="0.52084">
        <ele>1078</ele>
        <time>2022-01-14T11:51:11Z</time>
      </trkpt>
      <trkpt lat="42.80655" lon="0.52017">
        <ele>1085</ele>
        <time>2022-01-14T11:51:24Z</time>
      </trkpt>
      <trkpt lat="42.80675" lon="0.51984">
        <ele>1091</ele>
        <time>2022-01-14T11:51:31Z</time>
      </trkpt>
      <trkpt lat="42.80687" lon="0.51972">
        <ele>1094</ele>
        <time>2022-01-14T11:51:35Z</time>
      </trkpt>
      <trkpt lat="42.80722" lon="0.5195">
        <ele>1099</ele>
        <time>2022-01-14T11:51:44Z</time>
      </trkpt>
      <trkpt lat="42.80761" lon="0.5195">
        <ele>1100</ele>
        <time>2022-01-14T11:51:53Z</time>
      </trkpt>
      <trkpt lat="42.80793" lon="0.51954">
        <ele>1102</ele>
        <time>2022-01-14T11:52:00Z</time>
      </trkpt>
      <trkpt lat="42.80816" lon="0.5195">
        <ele>1104</ele>
        <time>2022-01-14T11:52:06Z</time>
      </trkpt>
      <trkpt lat="42.80833" lon="0.5194">
        <ele>1105</ele>
        <time>2022-01-14T11:52:10Z</time>
      </trkpt>
      <trkpt lat="42.80851" lon="0.51916">
        <ele>1106</ele>
        <time>2022-01-14T11:52:16Z</time>
      </trkpt>
      <trkpt lat="42.80871" lon="0.51869">
        <ele>1110</ele>
        <time>2022-01-14T11:52:25Z</time>
      </trkpt>
      <trkpt lat="42.80877" lon="0.51845">
        <ele>1112</ele>
        <time>2022-01-14T11:52:29Z</time>
      </trkpt>
      <trkpt lat="42.80883" lon="0.51779">
        <ele>1116</ele>
        <time>2022-01-14T11:52:41Z</time>
      </trkpt>
      <trkpt lat="42.80884" lon="0.51732">
        <ele>1118</ele>
        <time>2022-01-14T11:52:49Z</time>
      </trkpt>
      <trkpt lat="42.80868" lon="0.51533">
        <ele>1125</ele>
        <time>2022-01-14T11:53:23Z</time>
      </trkpt>
      <trkpt lat="42.80865" lon="0.51517">
        <ele>1125</ele>
        <time>2022-01-14T11:53:26Z</time>
      </trkpt>
      <trkpt lat="42.80854" lon="0.51502">
        <ele>1123</ele>
        <time>2022-01-14T11:53:30Z</time>
      </trkpt>
      <trkpt lat="42.80826" lon="0.51486">
        <ele>1122</ele>
        <time>2022-01-14T11:53:37Z</time>
      </trkpt>
      <trkpt lat="42.80819" lon="0.51478">
        <ele>1123</ele>
        <time>2022-01-14T11:53:39Z</time>
      </trkpt>
      <trkpt lat="42.80813" lon="0.51466">
        <ele>1124</ele>
        <time>2022-01-14T11:53:41Z</time>
      </trkpt>
      <trkpt lat="42.80808" lon="0.51447">
        <ele>1126</ele>
        <time>2022-01-14T11:53:45Z</time>
      </trkpt>
      <trkpt lat="42.80806" lon="0.51404">
        <ele>1129</ele>
        <time>2022-01-14T11:53:52Z</time>
      </trkpt>
      <trkpt lat="42.80817" lon="0.51338">
        <ele>1134</ele>
        <time>2022-01-14T11:54:04Z</time>
      </trkpt>
      <trkpt lat="42.80828" lon="0.51211">
        <ele>1141</ele>
        <time>2022-01-14T11:54:26Z</time>
      </trkpt>
      <trkpt lat="42.80809" lon="0.5113">
        <ele>1147</ele>
        <time>2022-01-14T11:54:40Z</time>
      </trkpt>
      <trkpt lat="42.80803" lon="0.51071">
        <ele>1150</ele>
        <time>2022-01-14T11:54:51Z</time>
      </trkpt>
      <trkpt lat="42.8078" lon="0.50981">
        <ele>1154</ele>
        <time>2022-01-14T11:55:07Z</time>
      </trkpt>
      <trkpt lat="42.80769" lon="0.50952">
        <ele>1155</ele>
        <time>2022-01-14T11:55:12Z</time>
      </trkpt>
      <trkpt lat="42.80719" lon="0.50752">
        <ele>1168</ele>
        <time>2022-01-14T11:55:49Z</time>
      </trkpt>
      <trkpt lat="42.80687" lon="0.50526">
        <ele>1182</ele>
        <time>2022-01-14T11:56:28Z</time>
      </trkpt>
      <trkpt lat="42.80674" lon="0.50477">
        <ele>1187</ele>
        <time>2022-01-14T11:56:37Z</time>
      </trkpt>
      <trkpt lat="42.80676" lon="0.50434">
        <ele>1189</ele>
        <time>2022-01-14T11:56:44Z</time>
      </trkpt>
      <trkpt lat="42.80673" lon="0.50405">
        <ele>1190</ele>
        <time>2022-01-14T11:56:49Z</time>
      </trkpt>
      <trkpt lat="42.80663" lon="0.50374">
        <ele>1190</ele>
        <time>2022-01-14T11:56:55Z</time>
      </trkpt>
      <trkpt lat="42.80649" lon="0.50346">
        <ele>1192</ele>
        <time>2022-01-14T11:57:01Z</time>
      </trkpt>
      <trkpt lat="42.80628" lon="0.50321">
        <ele>1196</ele>
        <time>2022-01-14T11:57:08Z</time>
      </trkpt>
      <trkpt lat="42.80561" lon="0.50254">
        <ele>1207</ele>
        <time>2022-01-14T11:57:27Z</time>
      </trkpt>
      <trkpt lat="42.80551" lon="0.50225">
        <ele>1209</ele>
        <time>2022-01-14T11:57:32Z</time>
      </trkpt>
      <trkpt lat="42.80551" lon="0.50204">
        <ele>1210</ele>
        <time>2022-01-14T11:57:36Z</time>
      </trkpt>
      <trkpt lat="42.80559" lon="0.50155">
        <ele>1211</ele>
        <time>2022-01-14T11:57:45Z</time>
      </trkpt>
      <trkpt lat="42.80576" lon="0.5011">
        <ele>1216</ele>
        <time>2022-01-14T11:57:53Z</time>
      </trkpt>
      <trkpt lat="42.80587" lon="0.50088">
        <ele>1218</ele>
        <time>2022-01-14T11:57:58Z</time>
      </trkpt>
      <trkpt lat="42.80609" lon="0.50025">
        <ele>1225</ele>
        <time>2022-01-14T11:58:10Z</time>
      </trkpt>
      <trkpt lat="42.8065" lon="0.49941">
        <ele>1230</ele>
        <time>2022-01-14T11:58:27Z</time>
      </trkpt>
      <trkpt lat="42.80657" lon="0.49925">
        <ele>1231</ele>
        <time>2022-01-14T11:58:30Z</time>
      </trkpt>
      <trkpt lat="42.80662" lon="0.49905">
        <ele>1231</ele>
        <time>2022-01-14T11:58:34Z</time>
      </trkpt>
      <trkpt lat="42.80664" lon="0.4982">
        <ele>1236</ele>
        <time>2022-01-14T11:58:48Z</time>
      </trkpt>
      <trkpt lat="42.80662" lon="0.49783">
        <ele>1236</ele>
        <time>2022-01-14T11:58:55Z</time>
      </trkpt>
      <trkpt lat="42.80634" lon="0.49713">
        <ele>1246</ele>
        <time>2022-01-14T11:59:08Z</time>
      </trkpt>
      <trkpt lat="42.80627" lon="0.49673">
        <ele>1251</ele>
        <time>2022-01-14T11:59:16Z</time>
      </trkpt>
      <trkpt lat="42.80634" lon="0.49628">
        <ele>1251</ele>
        <time>2022-01-14T11:59:23Z</time>
      </trkpt>
      <trkpt lat="42.80635" lon="0.49562">
        <ele>1255</ele>
        <time>2022-01-14T11:59:35Z</time>
      </trkpt>
      <trkpt lat="42.80641" lon="0.49503">
        <ele>1259</ele>
        <time>2022-01-14T11:59:45Z</time>
      </trkpt>
      <trkpt lat="42.80651" lon="0.4946">
        <ele>1261</ele>
        <time>2022-01-14T11:59:53Z</time>
      </trkpt>
      <trkpt lat="42.80678" lon="0.49314">
        <ele>1271</ele>
        <time>2022-01-14T12:00:18Z</time>
      </trkpt>
      <trkpt lat="42.80682" lon="0.49268">
        <ele>1278</ele>
        <time>2022-01-14T12:00:26Z</time>
      </trkpt>
      <trkpt lat="42.80708" lon="0.49101">
        <ele>1289</ele>
        <time>2022-01-14T12:00:56Z</time>
      </trkpt>
      <trkpt lat="42.80727" lon="0.4901">
        <ele>1294</ele>
        <time>2022-01-14T12:01:12Z</time>
      </trkpt>
      <trkpt lat="42.80738" lon="0.48974">
        <ele>1294</ele>
        <time>2022-01-14T12:01:19Z</time>
      </trkpt>
      <trkpt lat="42.80743" lon="0.48947">
        <ele>1296</ele>
        <time>2022-01-14T12:01:23Z</time>
      </trkpt>
      <trkpt lat="42.80746" lon="0.48909">
        <ele>1299</ele>
        <time>2022-01-14T12:01:30Z</time>
      </trkpt>
      <trkpt lat="42.80756" lon="0.48853">
        <ele>1301</ele>
        <time>2022-01-14T12:01:40Z</time>
      </trkpt>
      <trkpt lat="42.80762" lon="0.48769">
        <ele>1308</ele>
        <time>2022-01-14T12:01:54Z</time>
      </trkpt>
      <trkpt lat="42.80759" lon="0.48654">
        <ele>1317</ele>
        <time>2022-01-14T12:02:14Z</time>
      </trkpt>
      <trkpt lat="42.80764" lon="0.48558">
        <ele>1324</ele>
        <time>2022-01-14T12:02:30Z</time>
      </trkpt>
      <trkpt lat="42.80762" lon="0.48429">
        <ele>1331</ele>
        <time>2022-01-14T12:02:52Z</time>
      </trkpt>
      <trkpt lat="42.80753" lon="0.48371">
        <ele>1331</ele>
        <time>2022-01-14T12:03:03Z</time>
      </trkpt>
      <trkpt lat="42.80733" lon="0.48317">
        <ele>1335</ele>
        <time>2022-01-14T12:03:13Z</time>
      </trkpt>
      <trkpt lat="42.80716" lon="0.48285">
        <ele>1338</ele>
        <time>2022-01-14T12:03:20Z</time>
      </trkpt>
      <trkpt lat="42.80678" lon="0.48224">
        <ele>1343</ele>
        <time>2022-01-14T12:03:33Z</time>
      </trkpt>
      <trkpt lat="42.80625" lon="0.48159">
        <ele>1349</ele>
        <time>2022-01-14T12:03:50Z</time>
      </trkpt>
      <trkpt lat="42.80577" lon="0.48091">
        <ele>1354</ele>
        <time>2022-01-14T12:04:06Z</time>
      </trkpt>
      <trkpt lat="42.80558" lon="0.48059">
        <ele>1356</ele>
        <time>2022-01-14T12:04:13Z</time>
      </trkpt>
      <trkpt lat="42.80524" lon="0.4801">
        <ele>1361</ele>
        <time>2022-01-14T12:04:25Z</time>
      </trkpt>
      <trkpt lat="42.80484" lon="0.47884">
        <ele>1371</ele>
        <time>2022-01-14T12:04:48Z</time>
      </trkpt>
      <trkpt lat="42.8046" lon="0.47765">
        <ele>1376</ele>
        <time>2022-01-14T12:05:10Z</time>
      </trkpt>
      <trkpt lat="42.8045" lon="0.47734">
        <ele>1378</ele>
        <time>2022-01-14T12:05:15Z</time>
      </trkpt>
      <trkpt lat="42.80395" lon="0.476">
        <ele>1386</ele>
        <time>2022-01-14T12:05:42Z</time>
      </trkpt>
      <trkpt lat="42.80372" lon="0.47559">
        <ele>1390</ele>
        <time>2022-01-14T12:05:51Z</time>
      </trkpt>
      <trkpt lat="42.80353" lon="0.47535">
        <ele>1393</ele>
        <time>2022-01-14T12:05:57Z</time>
      </trkpt>
      <trkpt lat="42.80313" lon="0.47495">
        <ele>1401</ele>
        <time>2022-01-14T12:06:08Z</time>
      </trkpt>
      <trkpt lat="42.80288" lon="0.47466">
        <ele>1407</ele>
        <time>2022-01-14T12:06:16Z</time>
      </trkpt>
      <trkpt lat="42.80276" lon="0.4745">
        <ele>1409</ele>
        <time>2022-01-14T12:06:20Z</time>
      </trkpt>
      <trkpt lat="42.80252" lon="0.47408">
        <ele>1411</ele>
        <time>2022-01-14T12:06:29Z</time>
      </trkpt>
      <trkpt lat="42.80237" lon="0.47379">
        <ele>1412</ele>
        <time>2022-01-14T12:06:35Z</time>
      </trkpt>
      <trkpt lat="42.80224" lon="0.4733">
        <ele>1409</ele>
        <time>2022-01-14T12:06:44Z</time>
      </trkpt>
      <trkpt lat="42.80217" lon="0.47312">
        <ele>1412</ele>
        <time>2022-01-14T12:06:47Z</time>
      </trkpt>
      <trkpt lat="42.80208" lon="0.47297">
        <ele>1415</ele>
        <time>2022-01-14T12:06:51Z</time>
      </trkpt>
      <trkpt lat="42.80176" lon="0.47259">
        <ele>1424</ele>
        <time>2022-01-14T12:07:01Z</time>
      </trkpt>
      <trkpt lat="42.80158" lon="0.47229">
        <ele>1428</ele>
        <time>2022-01-14T12:07:07Z</time>
      </trkpt>
      <trkpt lat="42.8015" lon="0.47205">
        <ele>1429</ele>
        <time>2022-01-14T12:07:12Z</time>
      </trkpt>
      <trkpt lat="42.80141" lon="0.47147">
        <ele>1434</ele>
        <time>2022-01-14T12:07:22Z</time>
      </trkpt>
      <trkpt lat="42.80143" lon="0.47121">
        <ele>1438</ele>
        <time>2022-01-14T12:07:26Z</time>
      </trkpt>
      <trkpt lat="42.80155" lon="0.47075">
        <ele>1441</ele>
        <time>2022-01-14T12:07:35Z</time>
      </trkpt>
      <trkpt lat="42.80168" lon="0.47005">
        <ele>1442</ele>
        <time>2022-01-14T12:07:47Z</time>
      </trkpt>
      <trkpt lat="42.80173" lon="0.46943">
        <ele>1453</ele>
        <time>2022-01-14T12:07:58Z</time>
      </trkpt>
      <trkpt lat="42.80177" lon="0.46924">
        <ele>1456</ele>
        <time>2022-01-14T12:08:01Z</time>
      </trkpt>
      <trkpt lat="42.80185" lon="0.46911">
        <ele>1457</ele>
        <time>2022-01-14T12:08:04Z</time>
      </trkpt>
      <trkpt lat="42.80195" lon="0.46904">
        <ele>1457</ele>
        <time>2022-01-14T12:08:07Z</time>
      </trkpt>
      <trkpt lat="42.80235" lon="0.4689">
        <ele>1454</ele>
        <time>2022-01-14T12:08:16Z</time>
      </trkpt>
      <trkpt lat="42.80252" lon="0.46887">
        <ele>1454</ele>
        <time>2022-01-14T12:08:20Z</time>
      </trkpt>
      <trkpt lat="42.80293" lon="0.46888">
        <ele>1463</ele>
        <time>2022-01-14T12:08:30Z</time>
      </trkpt>
      <trkpt lat="42.80319" lon="0.46897">
        <ele>1466</ele>
        <time>2022-01-14T12:08:36Z</time>
      </trkpt>
      <trkpt lat="42.80353" lon="0.46915">
        <ele>1468</ele>
        <time>2022-01-14T12:08:45Z</time>
      </trkpt>
      <trkpt lat="42.80377" lon="0.4695">
        <ele>1459</ele>
        <time>2022-01-14T12:08:53Z</time>
      </trkpt>
      <trkpt lat="42.80384" lon="0.46953">
        <ele>1459</ele>
        <time>2022-01-14T12:08:55Z</time>
      </trkpt>
      <trkpt lat="42.80393" lon="0.46941">
        <ele>1466</ele>
        <time>2022-01-14T12:08:58Z</time>
      </trkpt>
      <trkpt lat="42.80387" lon="0.46928">
        <ele>1470</ele>
        <time>2022-01-14T12:09:00Z</time>
      </trkpt>
      <trkpt lat="42.80319" lon="0.46849">
        <ele>1480</ele>
        <time>2022-01-14T12:09:21Z</time>
      </trkpt>
      <trkpt lat="42.80286" lon="0.46808">
        <ele>1484</ele>
        <time>2022-01-14T12:09:32Z</time>
      </trkpt>
      <trkpt lat="42.8027" lon="0.46782">
        <ele>1489</ele>
        <time>2022-01-14T12:09:37Z</time>
      </trkpt>
      <trkpt lat="42.8025" lon="0.4676">
        <ele>1491</ele>
        <time>2022-01-14T12:09:43Z</time>
      </trkpt>
      <trkpt lat="42.80227" lon="0.46738">
        <ele>1496</ele>
        <time>2022-01-14T12:09:50Z</time>
      </trkpt>
      <trkpt lat="42.80214" lon="0.46731">
        <ele>1496</ele>
        <time>2022-01-14T12:09:53Z</time>
      </trkpt>
      <trkpt lat="42.802" lon="0.46727">
        <ele>1495</ele>
        <time>2022-01-14T12:09:57Z</time>
      </trkpt>
      <trkpt lat="42.80172" lon="0.46727">
        <ele>1492</ele>
        <time>2022-01-14T12:10:03Z</time>
      </trkpt>
      <trkpt lat="42.80162" lon="0.46719">
        <ele>1494</ele>
        <time>2022-01-14T12:10:06Z</time>
      </trkpt>
      <trkpt lat="42.80162" lon="0.46707">
        <ele>1496</ele>
        <time>2022-01-14T12:10:08Z</time>
      </trkpt>
      <trkpt lat="42.80168" lon="0.46696">
        <ele>1497</ele>
        <time>2022-01-14T12:10:10Z</time>
      </trkpt>
      <trkpt lat="42.8018" lon="0.46693">
        <ele>1499</ele>
        <time>2022-01-14T12:10:13Z</time>
      </trkpt>
      <trkpt lat="42.80204" lon="0.46698">
        <ele>1502</ele>
        <time>2022-01-14T12:10:19Z</time>
      </trkpt>
      <trkpt lat="42.80251" lon="0.46715">
        <ele>1505</ele>
        <time>2022-01-14T12:10:30Z</time>
      </trkpt>
      <trkpt lat="42.80288" lon="0.46738">
        <ele>1510</ele>
        <time>2022-01-14T12:10:40Z</time>
      </trkpt>
      <trkpt lat="42.80335" lon="0.46775">
        <ele>1511</ele>
        <time>2022-01-14T12:10:52Z</time>
      </trkpt>
      <trkpt lat="42.80408" lon="0.46826">
        <ele>1521</ele>
        <time>2022-01-14T12:11:11Z</time>
      </trkpt>
      <trkpt lat="42.80435" lon="0.46848">
        <ele>1517</ele>
        <time>2022-01-14T12:11:19Z</time>
      </trkpt>
      <trkpt lat="42.80465" lon="0.46878">
        <ele>1508</ele>
        <time>2022-01-14T12:11:27Z</time>
      </trkpt>
      <trkpt lat="42.80472" lon="0.46877">
        <ele>1509</ele>
        <time>2022-01-14T12:11:29Z</time>
      </trkpt>
      <trkpt lat="42.80476" lon="0.46872">
        <ele>1513</ele>
        <time>2022-01-14T12:11:30Z</time>
      </trkpt>
      <trkpt lat="42.80473" lon="0.46856">
        <ele>1520</ele>
        <time>2022-01-14T12:11:33Z</time>
      </trkpt>
      <trkpt lat="42.80454" lon="0.46842">
        <ele>1524</ele>
        <time>2022-01-14T12:11:38Z</time>
      </trkpt>
      <trkpt lat="42.80432" lon="0.46819">
        <ele>1529</ele>
        <time>2022-01-14T12:11:45Z</time>
      </trkpt>
      <trkpt lat="42.80416" lon="0.46793">
        <ele>1537</ele>
        <time>2022-01-14T12:11:50Z</time>
      </trkpt>
      <trkpt lat="42.80382" lon="0.46751">
        <ele>1539</ele>
        <time>2022-01-14T12:12:01Z</time>
      </trkpt>
      <trkpt lat="42.80352" lon="0.46708">
        <ele>1543</ele>
        <time>2022-01-14T12:12:11Z</time>
      </trkpt>
      <trkpt lat="42.80314" lon="0.46651">
        <ele>1547</ele>
        <time>2022-01-14T12:12:25Z</time>
      </trkpt>
      <trkpt lat="42.80297" lon="0.46614">
        <ele>1550</ele>
        <time>2022-01-14T12:12:32Z</time>
      </trkpt>
      <trkpt lat="42.80265" lon="0.46487">
        <ele>1568</ele>
        <time>2022-01-14T12:12:55Z</time>
      </trkpt>
      <trkpt lat="42.80261" lon="0.46457">
        <ele>1571</ele>
        <time>2022-01-14T12:13:00Z</time>
      </trkpt>
      <trkpt lat="42.80233" lon="0.46357">
        <ele>1584</ele>
        <time>2022-01-14T12:13:19Z</time>
      </trkpt>
      <trkpt lat="42.8023" lon="0.46281">
        <ele>1591</ele>
        <time>2022-01-14T12:13:32Z</time>
      </trkpt>
      <trkpt lat="42.80226" lon="0.46257">
        <ele>1592</ele>
        <time>2022-01-14T12:13:36Z</time>
      </trkpt>
      <trkpt lat="42.80222" lon="0.46191">
        <ele>1589</ele>
        <time>2022-01-14T12:13:47Z</time>
      </trkpt>
      <trkpt lat="42.80212" lon="0.46107">
        <ele>1588</ele>
        <time>2022-01-14T12:14:02Z</time>
      </trkpt>
      <trkpt lat="42.8021" lon="0.46058">
        <ele>1586</ele>
        <time>2022-01-14T12:14:10Z</time>
      </trkpt>
      <trkpt lat="42.8021" lon="0.4606">
        <ele>1587</ele>
        <time>2022-01-14T12:14:11Z</time>
      </trkpt>
      <trkpt lat="42.80197" lon="0.45968">
        <ele>1579</ele>
        <time>2022-01-14T12:14:27Z</time>
      </trkpt>
      <trkpt lat="42.80184" lon="0.45807">
        <ele>1560</ele>
        <time>2022-01-14T12:14:54Z</time>
      </trkpt>
      <trkpt lat="42.80174" lon="0.45717">
        <ele>1549</ele>
        <time>2022-01-14T12:15:10Z</time>
      </trkpt>
      <trkpt lat="42.80174" lon="0.45683">
        <ele>1546</ele>
        <time>2022-01-14T12:15:16Z</time>
      </trkpt>
      <trkpt lat="42.80184" lon="0.4562">
        <ele>1540</ele>
        <time>2022-01-14T12:15:27Z</time>
      </trkpt>
      <trkpt lat="42.8019" lon="0.4557">
        <ele>1534</ele>
        <time>2022-01-14T12:15:36Z</time>
      </trkpt>
      <trkpt lat="42.80193" lon="0.45518">
        <ele>1529</ele>
        <time>2022-01-14T12:15:44Z</time>
      </trkpt>
      <trkpt lat="42.80203" lon="0.4545">
        <ele>1525</ele>
        <time>2022-01-14T12:15:56Z</time>
      </trkpt>
      <trkpt lat="42.80209" lon="0.45341">
        <ele>1514</ele>
        <time>2022-01-14T12:16:15Z</time>
      </trkpt>
      <trkpt lat="42.80221" lon="0.45293">
        <ele>1512</ele>
        <time>2022-01-14T12:16:24Z</time>
      </trkpt>
      <trkpt lat="42.80237" lon="0.45247">
        <ele>1511</ele>
        <time>2022-01-14T12:16:32Z</time>
      </trkpt>
      <trkpt lat="42.80234" lon="0.45191">
        <ele>1509</ele>
        <time>2022-01-14T12:16:42Z</time>
      </trkpt>
      <trkpt lat="42.80235" lon="0.45153">
        <ele>1508</ele>
        <time>2022-01-14T12:16:49Z</time>
      </trkpt>
      <trkpt lat="42.80231" lon="0.45115">
        <ele>1505</ele>
        <time>2022-01-14T12:16:55Z</time>
      </trkpt>
      <trkpt lat="42.80222" lon="0.45059">
        <ele>1501</ele>
        <time>2022-01-14T12:17:05Z</time>
      </trkpt>
      <trkpt lat="42.80188" lon="0.44934">
        <ele>1485</ele>
        <time>2022-01-14T12:17:28Z</time>
      </trkpt>
      <trkpt lat="42.80184" lon="0.44898">
        <ele>1481</ele>
        <time>2022-01-14T12:17:34Z</time>
      </trkpt>
      <trkpt lat="42.80199" lon="0.44662">
        <ele>1465</ele>
        <time>2022-01-14T12:18:15Z</time>
      </trkpt>
      <trkpt lat="42.80204" lon="0.44554">
        <ele>1453</ele>
        <time>2022-01-14T12:18:33Z</time>
      </trkpt>
      <trkpt lat="42.80205" lon="0.4447">
        <ele>1449</ele>
        <time>2022-01-14T12:18:48Z</time>
      </trkpt>
      <trkpt lat="42.80211" lon="0.44426">
        <ele>1453</ele>
        <time>2022-01-14T12:18:55Z</time>
      </trkpt>
      <trkpt lat="42.80211" lon="0.44395">
        <ele>1456</ele>
        <time>2022-01-14T12:19:01Z</time>
      </trkpt>
      <trkpt lat="42.80208" lon="0.44379">
        <ele>1456</ele>
        <time>2022-01-14T12:19:03Z</time>
      </trkpt>
      <trkpt lat="42.80174" lon="0.44323">
        <ele>1446</ele>
        <time>2022-01-14T12:19:16Z</time>
      </trkpt>
      <trkpt lat="42.80168" lon="0.44307">
        <ele>1443</ele>
        <time>2022-01-14T12:19:19Z</time>
      </trkpt>
      <trkpt lat="42.80156" lon="0.44255">
        <ele>1438</ele>
        <time>2022-01-14T12:19:28Z</time>
      </trkpt>
      <trkpt lat="42.80147" lon="0.44201">
        <ele>1435</ele>
        <time>2022-01-14T12:19:38Z</time>
      </trkpt>
      <trkpt lat="42.80122" lon="0.44137">
        <ele>1428</ele>
        <time>2022-01-14T12:19:50Z</time>
      </trkpt>
      <trkpt lat="42.80112" lon="0.44102">
        <ele>1425</ele>
        <time>2022-01-14T12:19:57Z</time>
      </trkpt>
      <trkpt lat="42.80107" lon="0.44053">
        <ele>1421</ele>
        <time>2022-01-14T12:20:05Z</time>
      </trkpt>
      <trkpt lat="42.80107" lon="0.44001">
        <ele>1419</ele>
        <time>2022-01-14T12:20:14Z</time>
      </trkpt>
      <trkpt lat="42.80096" lon="0.43921">
        <ele>1410</ele>
        <time>2022-01-14T12:20:28Z</time>
      </trkpt>
      <trkpt lat="42.80094" lon="0.4389">
        <ele>1408</ele>
        <time>2022-01-14T12:20:33Z</time>
      </trkpt>
      <trkpt lat="42.80088" lon="0.43653">
        <ele>1395</ele>
        <time>2022-01-14T12:21:14Z</time>
      </trkpt>
      <trkpt lat="42.80093" lon="0.43606">
        <ele>1394</ele>
        <time>2022-01-14T12:21:22Z</time>
      </trkpt>
      <trkpt lat="42.80114" lon="0.43503">
        <ele>1393</ele>
        <time>2022-01-14T12:21:40Z</time>
      </trkpt>
      <trkpt lat="42.80121" lon="0.4344">
        <ele>1389</ele>
        <time>2022-01-14T12:21:51Z</time>
      </trkpt>
      <trkpt lat="42.8014" lon="0.43318">
        <ele>1386</ele>
        <time>2022-01-14T12:22:13Z</time>
      </trkpt>
      <trkpt lat="42.80146" lon="0.43147">
        <ele>1378</ele>
        <time>2022-01-14T12:22:42Z</time>
      </trkpt>
      <trkpt lat="42.80171" lon="0.43064">
        <ele>1373</ele>
        <time>2022-01-14T12:22:57Z</time>
      </trkpt>
      <trkpt lat="42.80181" lon="0.43013">
        <ele>1374</ele>
        <time>2022-01-14T12:23:06Z</time>
      </trkpt>
      <trkpt lat="42.80182" lon="0.42996">
        <ele>1373</ele>
        <time>2022-01-14T12:23:09Z</time>
      </trkpt>
      <trkpt lat="42.80178" lon="0.42947">
        <ele>1368</ele>
        <time>2022-01-14T12:23:18Z</time>
      </trkpt>
      <trkpt lat="42.80179" lon="0.42916">
        <ele>1365</ele>
        <time>2022-01-14T12:23:23Z</time>
      </trkpt>
      <trkpt lat="42.80189" lon="0.42856">
        <ele>1363</ele>
        <time>2022-01-14T12:23:34Z</time>
      </trkpt>
      <trkpt lat="42.80212" lon="0.42764">
        <ele>1361</ele>
        <time>2022-01-14T12:23:50Z</time>
      </trkpt>
      <trkpt lat="42.80223" lon="0.4268">
        <ele>1350</ele>
        <time>2022-01-14T12:24:05Z</time>
      </trkpt>
      <trkpt lat="42.80236" lon="0.42648">
        <ele>1344</ele>
        <time>2022-01-14T12:24:11Z</time>
      </trkpt>
      <trkpt lat="42.80255" lon="0.42577">
        <ele>1331</ele>
        <time>2022-01-14T12:24:24Z</time>
      </trkpt>
      <trkpt lat="42.80269" lon="0.42547">
        <ele>1326</ele>
        <time>2022-01-14T12:24:30Z</time>
      </trkpt>
      <trkpt lat="42.80291" lon="0.42524">
        <ele>1324</ele>
        <time>2022-01-14T12:24:37Z</time>
      </trkpt>
      <trkpt lat="42.80341" lon="0.42486">
        <ele>1319</ele>
        <time>2022-01-14T12:24:50Z</time>
      </trkpt>
      <trkpt lat="42.80382" lon="0.42463">
        <ele>1313</ele>
        <time>2022-01-14T12:25:00Z</time>
      </trkpt>
      <trkpt lat="42.80412" lon="0.42453">
        <ele>1312</ele>
        <time>2022-01-14T12:25:08Z</time>
      </trkpt>
      <trkpt lat="42.80445" lon="0.42453">
        <ele>1311</ele>
        <time>2022-01-14T12:25:15Z</time>
      </trkpt>
      <trkpt lat="42.80508" lon="0.42462">
        <ele>1309</ele>
        <time>2022-01-14T12:25:30Z</time>
      </trkpt>
      <trkpt lat="42.80609" lon="0.4247">
        <ele>1298</ele>
        <time>2022-01-14T12:25:54Z</time>
      </trkpt>
      <trkpt lat="42.80694" lon="0.42484">
        <ele>1290</ele>
        <time>2022-01-14T12:26:14Z</time>
      </trkpt>
      <trkpt lat="42.80778" lon="0.42512">
        <ele>1283</ele>
        <time>2022-01-14T12:26:34Z</time>
      </trkpt>
      <trkpt lat="42.80853" lon="0.42544">
        <ele>1275</ele>
        <time>2022-01-14T12:26:52Z</time>
      </trkpt>
      <trkpt lat="42.80879" lon="0.42564">
        <ele>1273</ele>
        <time>2022-01-14T12:26:59Z</time>
      </trkpt>
      <trkpt lat="42.80891" lon="0.42577">
        <ele>1272</ele>
        <time>2022-01-14T12:27:03Z</time>
      </trkpt>
      <trkpt lat="42.80921" lon="0.42621">
        <ele>1275</ele>
        <time>2022-01-14T12:27:13Z</time>
      </trkpt>
      <trkpt lat="42.80956" lon="0.42656">
        <ele>1272</ele>
        <time>2022-01-14T12:27:23Z</time>
      </trkpt>
      <trkpt lat="42.8097" lon="0.42664">
        <ele>1269</ele>
        <time>2022-01-14T12:27:27Z</time>
      </trkpt>
      <trkpt lat="42.81018" lon="0.42704">
        <ele>1265</ele>
        <time>2022-01-14T12:27:40Z</time>
      </trkpt>
      <trkpt lat="42.81043" lon="0.42718">
        <ele>1262</ele>
        <time>2022-01-14T12:27:46Z</time>
      </trkpt>
      <trkpt lat="42.81083" lon="0.42731">
        <ele>1254</ele>
        <time>2022-01-14T12:27:56Z</time>
      </trkpt>
      <trkpt lat="42.81113" lon="0.42748">
        <ele>1251</ele>
        <time>2022-01-14T12:28:04Z</time>
      </trkpt>
      <trkpt lat="42.81159" lon="0.42788">
        <ele>1249</ele>
        <time>2022-01-14T12:28:16Z</time>
      </trkpt>
      <trkpt lat="42.81187" lon="0.42806">
        <ele>1248</ele>
        <time>2022-01-14T12:28:23Z</time>
      </trkpt>
      <trkpt lat="42.81229" lon="0.42828">
        <ele>1244</ele>
        <time>2022-01-14T12:28:34Z</time>
      </trkpt>
      <trkpt lat="42.81266" lon="0.42841">
        <ele>1241</ele>
        <time>2022-01-14T12:28:43Z</time>
      </trkpt>
      <trkpt lat="42.8129" lon="0.42842">
        <ele>1238</ele>
        <time>2022-01-14T12:28:49Z</time>
      </trkpt>
      <trkpt lat="42.81302" lon="0.4284">
        <ele>1236</ele>
        <time>2022-01-14T12:28:51Z</time>
      </trkpt>
      <trkpt lat="42.81307" lon="0.42832">
        <ele>1233</ele>
        <time>2022-01-14T12:28:53Z</time>
      </trkpt>
      <trkpt lat="42.8131" lon="0.42819">
        <ele>1230</ele>
        <time>2022-01-14T12:28:55Z</time>
      </trkpt>
      <trkpt lat="42.81308" lon="0.42804">
        <ele>1227</ele>
        <time>2022-01-14T12:28:58Z</time>
      </trkpt>
      <trkpt lat="42.81301" lon="0.42792">
        <ele>1225</ele>
        <time>2022-01-14T12:29:01Z</time>
      </trkpt>
      <trkpt lat="42.8127" lon="0.42784">
        <ele>1228</ele>
        <time>2022-01-14T12:29:08Z</time>
      </trkpt>
      <trkpt lat="42.81246" lon="0.42772">
        <ele>1229</ele>
        <time>2022-01-14T12:29:14Z</time>
      </trkpt>
      <trkpt lat="42.81226" lon="0.42747">
        <ele>1227</ele>
        <time>2022-01-14T12:29:20Z</time>
      </trkpt>
      <trkpt lat="42.81194" lon="0.42692">
        <ele>1223</ele>
        <time>2022-01-14T12:29:32Z</time>
      </trkpt>
      <trkpt lat="42.81185" lon="0.42665">
        <ele>1220</ele>
        <time>2022-01-14T12:29:37Z</time>
      </trkpt>
      <trkpt lat="42.81172" lon="0.42587">
        <ele>1208</ele>
        <time>2022-01-14T12:29:51Z</time>
      </trkpt>
      <trkpt lat="42.81154" lon="0.42542">
        <ele>1202</ele>
        <time>2022-01-14T12:30:00Z</time>
      </trkpt>
      <trkpt lat="42.81136" lon="0.42521">
        <ele>1200</ele>
        <time>2022-01-14T12:30:06Z</time>
      </trkpt>
      <trkpt lat="42.81127" lon="0.42514">
        <ele>1201</ele>
        <time>2022-01-14T12:30:08Z</time>
      </trkpt>
      <trkpt lat="42.81079" lon="0.425">
        <ele>1207</ele>
        <time>2022-01-14T12:30:19Z</time>
      </trkpt>
      <trkpt lat="42.81073" lon="0.42493">
        <ele>1207</ele>
        <time>2022-01-14T12:30:21Z</time>
      </trkpt>
      <trkpt lat="42.81067" lon="0.42474">
        <ele>1204</ele>
        <time>2022-01-14T12:30:25Z</time>
      </trkpt>
      <trkpt lat="42.81068" lon="0.42427">
        <ele>1194</ele>
        <time>2022-01-14T12:30:33Z</time>
      </trkpt>
      <trkpt lat="42.81061" lon="0.42402">
        <ele>1191</ele>
        <time>2022-01-14T12:30:37Z</time>
      </trkpt>
      <trkpt lat="42.8102" lon="0.42323">
        <ele>1186</ele>
        <time>2022-01-14T12:30:54Z</time>
      </trkpt>
      <trkpt lat="42.80991" lon="0.42249">
        <ele>1177</ele>
        <time>2022-01-14T12:31:08Z</time>
      </trkpt>
      <trkpt lat="42.80983" lon="0.42237">
        <ele>1175</ele>
        <time>2022-01-14T12:31:11Z</time>
      </trkpt>
      <trkpt lat="42.80965" lon="0.42221">
        <ele>1174</ele>
        <time>2022-01-14T12:31:16Z</time>
      </trkpt>
      <trkpt lat="42.80934" lon="0.422">
        <ele>1174</ele>
        <time>2022-01-14T12:31:24Z</time>
      </trkpt>
      <trkpt lat="42.80888" lon="0.42156">
        <ele>1168</ele>
        <time>2022-01-14T12:31:37Z</time>
      </trkpt>
      <trkpt lat="42.8088" lon="0.4214">
        <ele>1165</ele>
        <time>2022-01-14T12:31:41Z</time>
      </trkpt>
      <trkpt lat="42.80885" lon="0.42127">
        <ele>1161</ele>
        <time>2022-01-14T12:31:43Z</time>
      </trkpt>
      <trkpt lat="42.80896" lon="0.42132">
        <ele>1161</ele>
        <time>2022-01-14T12:31:46Z</time>
      </trkpt>
      <trkpt lat="42.8092" lon="0.42166">
        <ele>1166</ele>
        <time>2022-01-14T12:31:54Z</time>
      </trkpt>
      <trkpt lat="42.80938" lon="0.42174">
        <ele>1165</ele>
        <time>2022-01-14T12:31:58Z</time>
      </trkpt>
      <trkpt lat="42.80957" lon="0.42178">
        <ele>1163</ele>
        <time>2022-01-14T12:32:03Z</time>
      </trkpt>
      <trkpt lat="42.80981" lon="0.42177">
        <ele>1158</ele>
        <time>2022-01-14T12:32:09Z</time>
      </trkpt>
      <trkpt lat="42.81017" lon="0.4219">
        <ele>1154</ele>
        <time>2022-01-14T12:32:17Z</time>
      </trkpt>
      <trkpt lat="42.81136" lon="0.42275">
        <ele>1146</ele>
        <time>2022-01-14T12:32:49Z</time>
      </trkpt>
      <trkpt lat="42.81246" lon="0.42325">
        <ele>1130</ele>
        <time>2022-01-14T12:33:16Z</time>
      </trkpt>
      <trkpt lat="42.81299" lon="0.42354">
        <ele>1130</ele>
        <time>2022-01-14T12:33:29Z</time>
      </trkpt>
      <trkpt lat="42.81313" lon="0.42359">
        <ele>1130</ele>
        <time>2022-01-14T12:33:32Z</time>
      </trkpt>
      <trkpt lat="42.81323" lon="0.42359">
        <ele>1129</ele>
        <time>2022-01-14T12:33:35Z</time>
      </trkpt>
      <trkpt lat="42.81345" lon="0.4235">
        <ele>1128</ele>
        <time>2022-01-14T12:33:40Z</time>
      </trkpt>
      <trkpt lat="42.81363" lon="0.42328">
        <ele>1128</ele>
        <time>2022-01-14T12:33:46Z</time>
      </trkpt>
      <trkpt lat="42.81425" lon="0.42189">
        <ele>1107</ele>
        <time>2022-01-14T12:34:14Z</time>
      </trkpt>
      <trkpt lat="42.81445" lon="0.42163">
        <ele>1105</ele>
        <time>2022-01-14T12:34:20Z</time>
      </trkpt>
      <trkpt lat="42.81481" lon="0.42132">
        <ele>1101</ele>
        <time>2022-01-14T12:34:30Z</time>
      </trkpt>
      <trkpt lat="42.81536" lon="0.42104">
        <ele>1096</ele>
        <time>2022-01-14T12:34:44Z</time>
      </trkpt>
      <trkpt lat="42.81593" lon="0.4208">
        <ele>1092</ele>
        <time>2022-01-14T12:34:58Z</time>
      </trkpt>
      <trkpt lat="42.81617" lon="0.42058">
        <ele>1091</ele>
        <time>2022-01-14T12:35:04Z</time>
      </trkpt>
      <trkpt lat="42.81687" lon="0.41983">
        <ele>1077</ele>
        <time>2022-01-14T12:35:25Z</time>
      </trkpt>
      <trkpt lat="42.81714" lon="0.41964">
        <ele>1074</ele>
        <time>2022-01-14T12:35:32Z</time>
      </trkpt>
      <trkpt lat="42.81742" lon="0.4195">
        <ele>1072</ele>
        <time>2022-01-14T12:35:39Z</time>
      </trkpt>
      <trkpt lat="42.81831" lon="0.41914">
        <ele>1063</ele>
        <time>2022-01-14T12:36:01Z</time>
      </trkpt>
      <trkpt lat="42.81875" lon="0.41893">
        <ele>1062</ele>
        <time>2022-01-14T12:36:12Z</time>
      </trkpt>
      <trkpt lat="42.81903" lon="0.41874">
        <ele>1059</ele>
        <time>2022-01-14T12:36:19Z</time>
      </trkpt>
      <trkpt lat="42.81941" lon="0.41838">
        <ele>1052</ele>
        <time>2022-01-14T12:36:30Z</time>
      </trkpt>
      <trkpt lat="42.81997" lon="0.41796">
        <ele>1046</ele>
        <time>2022-01-14T12:36:45Z</time>
      </trkpt>
      <trkpt lat="42.82049" lon="0.41751">
        <ele>1038</ele>
        <time>2022-01-14T12:36:59Z</time>
      </trkpt>
      <trkpt lat="42.8216" lon="0.41686">
        <ele>1028</ele>
        <time>2022-01-14T12:37:27Z</time>
      </trkpt>
      <trkpt lat="42.82312" lon="0.4158">
        <ele>1012</ele>
        <time>2022-01-14T12:38:07Z</time>
      </trkpt>
      <trkpt lat="42.82343" lon="0.41544">
        <ele>1005</ele>
        <time>2022-01-14T12:38:17Z</time>
      </trkpt>
      <trkpt lat="42.82369" lon="0.415">
        <ele>998</ele>
        <time>2022-01-14T12:38:27Z</time>
      </trkpt>
      <trkpt lat="42.8238" lon="0.41489">
        <ele>997</ele>
        <time>2022-01-14T12:38:30Z</time>
      </trkpt>
      <trkpt lat="42.82408" lon="0.41476">
        <ele>998</ele>
        <time>2022-01-14T12:38:37Z</time>
      </trkpt>
      <trkpt lat="42.82423" lon="0.41472">
        <ele>997</ele>
        <time>2022-01-14T12:38:40Z</time>
      </trkpt>
      <trkpt lat="42.82465" lon="0.41467">
        <ele>993</ele>
        <time>2022-01-14T12:38:50Z</time>
      </trkpt>
      <trkpt lat="42.82477" lon="0.41469">
        <ele>993</ele>
        <time>2022-01-14T12:38:53Z</time>
      </trkpt>
      <trkpt lat="42.82487" lon="0.41475">
        <ele>993</ele>
        <time>2022-01-14T12:38:55Z</time>
      </trkpt>
      <trkpt lat="42.82502" lon="0.41495">
        <ele>995</ele>
        <time>2022-01-14T12:39:00Z</time>
      </trkpt>
      <trkpt lat="42.82521" lon="0.41506">
        <ele>997</ele>
        <time>2022-01-14T12:39:05Z</time>
      </trkpt>
      <trkpt lat="42.8256" lon="0.41474">
        <ele>990</ele>
        <time>2022-01-14T12:39:16Z</time>
      </trkpt>
      <trkpt lat="42.82568" lon="0.41464">
        <ele>988</ele>
        <time>2022-01-14T12:39:18Z</time>
      </trkpt>
      <trkpt lat="42.82584" lon="0.41425">
        <ele>980</ele>
        <time>2022-01-14T12:39:26Z</time>
      </trkpt>
      <trkpt lat="42.82589" lon="0.414">
        <ele>975</ele>
        <time>2022-01-14T12:39:30Z</time>
      </trkpt>
      <trkpt lat="42.82603" lon="0.4139">
        <ele>973</ele>
        <time>2022-01-14T12:39:34Z</time>
      </trkpt>
      <trkpt lat="42.82616" lon="0.41398">
        <ele>976</ele>
        <time>2022-01-14T12:39:37Z</time>
      </trkpt>
      <trkpt lat="42.82637" lon="0.41402">
        <ele>977</ele>
        <time>2022-01-14T12:39:42Z</time>
      </trkpt>
      <trkpt lat="42.82684" lon="0.41392">
        <ele>975</ele>
        <time>2022-01-14T12:39:53Z</time>
      </trkpt>
      <trkpt lat="42.82726" lon="0.41378">
        <ele>969</ele>
        <time>2022-01-14T12:40:04Z</time>
      </trkpt>
      <trkpt lat="42.82766" lon="0.41361">
        <ele>963</ele>
        <time>2022-01-14T12:40:13Z</time>
      </trkpt>
      <trkpt lat="42.82821" lon="0.41343">
        <ele>957</ele>
        <time>2022-01-14T12:40:27Z</time>
      </trkpt>
      <trkpt lat="42.8289" lon="0.41324">
        <ele>954</ele>
        <time>2022-01-14T12:40:43Z</time>
      </trkpt>
      <trkpt lat="42.82958" lon="0.41311">
        <ele>952</ele>
        <time>2022-01-14T12:40:59Z</time>
      </trkpt>
      <trkpt lat="42.83021" lon="0.41315">
        <ele>953</ele>
        <time>2022-01-14T12:41:14Z</time>
      </trkpt>
      <trkpt lat="42.83119" lon="0.4134">
        <ele>957</ele>
        <time>2022-01-14T12:41:37Z</time>
      </trkpt>
      <trkpt lat="42.83152" lon="0.41345">
        <ele>957</ele>
        <time>2022-01-14T12:41:45Z</time>
      </trkpt>
      <trkpt lat="42.83233" lon="0.41364">
        <ele>961</ele>
        <time>2022-01-14T12:42:04Z</time>
      </trkpt>
      <trkpt lat="42.83299" lon="0.41374">
        <ele>964</ele>
        <time>2022-01-14T12:42:19Z</time>
      </trkpt>
      <trkpt lat="42.83327" lon="0.41366">
        <ele>963</ele>
        <time>2022-01-14T12:42:26Z</time>
      </trkpt>
      <trkpt lat="42.83339" lon="0.41359">
        <ele>962</ele>
        <time>2022-01-14T12:42:29Z</time>
      </trkpt>
      <trkpt lat="42.83354" lon="0.41354">
        <ele>962</ele>
        <time>2022-01-14T12:42:33Z</time>
      </trkpt>
      <trkpt lat="42.83455" lon="0.41322">
        <ele>959</ele>
        <time>2022-01-14T12:42:57Z</time>
      </trkpt>
      <trkpt lat="42.83549" lon="0.41267">
        <ele>953</ele>
        <time>2022-01-14T12:43:21Z</time>
      </trkpt>
      <trkpt lat="42.83628" lon="0.41224">
        <ele>947</ele>
        <time>2022-01-14T12:43:41Z</time>
      </trkpt>
      <trkpt lat="42.83683" lon="0.41198">
        <ele>944</ele>
        <time>2022-01-14T12:43:54Z</time>
      </trkpt>
      <trkpt lat="42.83737" lon="0.41167">
        <ele>939</ele>
        <time>2022-01-14T12:44:08Z</time>
      </trkpt>
      <trkpt lat="42.83747" lon="0.41164">
        <ele>940</ele>
        <time>2022-01-14T12:44:10Z</time>
      </trkpt>
      <trkpt lat="42.83767" lon="0.41161">
        <ele>939</ele>
        <time>2022-01-14T12:44:15Z</time>
      </trkpt>
      <trkpt lat="42.83786" lon="0.41165">
        <ele>940</ele>
        <time>2022-01-14T12:44:20Z</time>
      </trkpt>
      <trkpt lat="42.83823" lon="0.41182">
        <ele>948</ele>
        <time>2022-01-14T12:44:29Z</time>
      </trkpt>
      <trkpt lat="42.8385" lon="0.41181">
        <ele>948</ele>
        <time>2022-01-14T12:44:35Z</time>
      </trkpt>
      <trkpt lat="42.83922" lon="0.4116">
        <ele>940</ele>
        <time>2022-01-14T12:44:52Z</time>
      </trkpt>
      <trkpt lat="42.83966" lon="0.4113">
        <ele>933</ele>
        <time>2022-01-14T12:45:04Z</time>
      </trkpt>
      <trkpt lat="42.83986" lon="0.41122">
        <ele>931</ele>
        <time>2022-01-14T12:45:09Z</time>
      </trkpt>
      <trkpt lat="42.83997" lon="0.41122">
        <ele>931</ele>
        <time>2022-01-14T12:45:11Z</time>
      </trkpt>
      <trkpt lat="42.84035" lon="0.41131">
        <ele>931</ele>
        <time>2022-01-14T12:45:20Z</time>
      </trkpt>
      <trkpt lat="42.84086" lon="0.41148">
        <ele>931</ele>
        <time>2022-01-14T12:45:32Z</time>
      </trkpt>
      <trkpt lat="42.84113" lon="0.41152">
        <ele>929</ele>
        <time>2022-01-14T12:45:39Z</time>
      </trkpt>
      <trkpt lat="42.84179" lon="0.4115">
        <ele>923</ele>
        <time>2022-01-14T12:45:54Z</time>
      </trkpt>
      <trkpt lat="42.84204" lon="0.41146">
        <ele>922</ele>
        <time>2022-01-14T12:46:00Z</time>
      </trkpt>
      <trkpt lat="42.84266" lon="0.41129">
        <ele>920</ele>
        <time>2022-01-14T12:46:15Z</time>
      </trkpt>
      <trkpt lat="42.84312" lon="0.41109">
        <ele>920</ele>
        <time>2022-01-14T12:46:26Z</time>
      </trkpt>
      <trkpt lat="42.84344" lon="0.41085">
        <ele>916</ele>
        <time>2022-01-14T12:46:35Z</time>
      </trkpt>
      <trkpt lat="42.84416" lon="0.40991">
        <ele>901</ele>
        <time>2022-01-14T12:46:58Z</time>
      </trkpt>
      <trkpt lat="42.84431" lon="0.4097">
        <ele>902</ele>
        <time>2022-01-14T12:47:03Z</time>
      </trkpt>
      <trkpt lat="42.84454" lon="0.40929">
        <ele>906</ele>
        <time>2022-01-14T12:47:12Z</time>
      </trkpt>
      <trkpt lat="42.84474" lon="0.40906">
        <ele>910</ele>
        <time>2022-01-14T12:47:18Z</time>
      </trkpt>
      <trkpt lat="42.84489" lon="0.40902">
        <ele>911</ele>
        <time>2022-01-14T12:47:21Z</time>
      </trkpt>
      <trkpt lat="42.84501" lon="0.4091">
        <ele>911</ele>
        <time>2022-01-14T12:47:25Z</time>
      </trkpt>
      <trkpt lat="42.84512" lon="0.40923">
        <ele>910</ele>
        <time>2022-01-14T12:47:28Z</time>
      </trkpt>
      <trkpt lat="42.84539" lon="0.40964">
        <ele>907</ele>
        <time>2022-01-14T12:47:37Z</time>
      </trkpt>
      <trkpt lat="42.84546" lon="0.4097">
        <ele>906</ele>
        <time>2022-01-14T12:47:39Z</time>
      </trkpt>
      <trkpt lat="42.84565" lon="0.40977">
        <ele>906</ele>
        <time>2022-01-14T12:47:44Z</time>
      </trkpt>
      <trkpt lat="42.84574" lon="0.40976">
        <ele>907</ele>
        <time>2022-01-14T12:47:46Z</time>
      </trkpt>
      <trkpt lat="42.84584" lon="0.40971">
        <ele>908</ele>
        <time>2022-01-14T12:47:49Z</time>
      </trkpt>
      <trkpt lat="42.84609" lon="0.40953">
        <ele>911</ele>
        <time>2022-01-14T12:47:55Z</time>
      </trkpt>
      <trkpt lat="42.84642" lon="0.40944">
        <ele>912</ele>
        <time>2022-01-14T12:48:03Z</time>
      </trkpt>
      <trkpt lat="42.84692" lon="0.40948">
        <ele>910</ele>
        <time>2022-01-14T12:48:15Z</time>
      </trkpt>
      <trkpt lat="42.84709" lon="0.40946">
        <ele>909</ele>
        <time>2022-01-14T12:48:19Z</time>
      </trkpt>
      <trkpt lat="42.84727" lon="0.40938">
        <ele>909</ele>
        <time>2022-01-14T12:48:23Z</time>
      </trkpt>
      <trkpt lat="42.84817" lon="0.40879">
        <ele>912</ele>
        <time>2022-01-14T12:48:46Z</time>
      </trkpt>
      <trkpt lat="42.84838" lon="0.40868">
        <ele>911</ele>
        <time>2022-01-14T12:48:52Z</time>
      </trkpt>
      <trkpt lat="42.84861" lon="0.40859">
        <ele>912</ele>
        <time>2022-01-14T12:48:57Z</time>
      </trkpt>
      <trkpt lat="42.84904" lon="0.40848">
        <ele>910</ele>
        <time>2022-01-14T12:49:07Z</time>
      </trkpt>
      <trkpt lat="42.84943" lon="0.40845">
        <ele>905</ele>
        <time>2022-01-14T12:49:17Z</time>
      </trkpt>
      <trkpt lat="42.84953" lon="0.40842">
        <ele>905</ele>
        <time>2022-01-14T12:49:19Z</time>
      </trkpt>
      <trkpt lat="42.84978" lon="0.40823">
        <ele>906</ele>
        <time>2022-01-14T12:49:26Z</time>
      </trkpt>
      <trkpt lat="42.85001" lon="0.40797">
        <ele>911</ele>
        <time>2022-01-14T12:49:33Z</time>
      </trkpt>
      <trkpt lat="42.85023" lon="0.40783">
        <ele>913</ele>
        <time>2022-01-14T12:49:38Z</time>
      </trkpt>
      <trkpt lat="42.85081" lon="0.40765">
        <ele>909</ele>
        <time>2022-01-14T12:49:52Z</time>
      </trkpt>
      <trkpt lat="42.85126" lon="0.40734">
        <ele>909</ele>
        <time>2022-01-14T12:50:04Z</time>
      </trkpt>
      <trkpt lat="42.85165" lon="0.40721">
        <ele>905</ele>
        <time>2022-01-14T12:50:13Z</time>
      </trkpt>
      <trkpt lat="42.85195" lon="0.40715">
        <ele>905</ele>
        <time>2022-01-14T12:50:20Z</time>
      </trkpt>
      <trkpt lat="42.8522" lon="0.40713">
        <ele>905</ele>
        <time>2022-01-14T12:50:26Z</time>
      </trkpt>
      <trkpt lat="42.8528" lon="0.40718">
        <ele>903</ele>
        <time>2022-01-14T12:50:40Z</time>
      </trkpt>
      <trkpt lat="42.85298" lon="0.40714">
        <ele>904</ele>
        <time>2022-01-14T12:50:45Z</time>
      </trkpt>
      <trkpt lat="42.85336" lon="0.40697">
        <ele>906</ele>
        <time>2022-01-14T12:50:54Z</time>
      </trkpt>
      <trkpt lat="42.85357" lon="0.40682">
        <ele>904</ele>
        <time>2022-01-14T12:50:59Z</time>
      </trkpt>
      <trkpt lat="42.85384" lon="0.40651">
        <ele>901</ele>
        <time>2022-01-14T12:51:08Z</time>
      </trkpt>
      <trkpt lat="42.85422" lon="0.40574">
        <ele>905</ele>
        <time>2022-01-14T12:51:24Z</time>
      </trkpt>
      <trkpt lat="42.85443" lon="0.40544">
        <ele>909</ele>
        <time>2022-01-14T12:51:31Z</time>
      </trkpt>
      <trkpt lat="42.85461" lon="0.40527">
        <ele>907</ele>
        <time>2022-01-14T12:51:36Z</time>
      </trkpt>
      <trkpt lat="42.85504" lon="0.40506">
        <ele>895</ele>
        <time>2022-01-14T12:51:46Z</time>
      </trkpt>
      <trkpt lat="42.85559" lon="0.40475">
        <ele>901</ele>
        <time>2022-01-14T12:52:00Z</time>
      </trkpt>
      <trkpt lat="42.85612" lon="0.40452">
        <ele>897</ele>
        <time>2022-01-14T12:52:13Z</time>
      </trkpt>
      <trkpt lat="42.85633" lon="0.40448">
        <ele>894</ele>
        <time>2022-01-14T12:52:18Z</time>
      </trkpt>
      <trkpt lat="42.85673" lon="0.40447">
        <ele>887</ele>
        <time>2022-01-14T12:52:28Z</time>
      </trkpt>
      <trkpt lat="42.85729" lon="0.40439">
        <ele>883</ele>
        <time>2022-01-14T12:52:41Z</time>
      </trkpt>
      <trkpt lat="42.85805" lon="0.40412">
        <ele>882</ele>
        <time>2022-01-14T12:52:59Z</time>
      </trkpt>
      <trkpt lat="42.85864" lon="0.40401">
        <ele>879</ele>
        <time>2022-01-14T12:53:13Z</time>
      </trkpt>
      <trkpt lat="42.85908" lon="0.40383">
        <ele>878</ele>
        <time>2022-01-14T12:53:24Z</time>
      </trkpt>
      <trkpt lat="42.85942" lon="0.40359">
        <ele>877</ele>
        <time>2022-01-14T12:53:33Z</time>
      </trkpt>
      <trkpt lat="42.85977" lon="0.40314">
        <ele>880</ele>
        <time>2022-01-14T12:53:44Z</time>
      </trkpt>
      <trkpt lat="42.86001" lon="0.40293">
        <ele>882</ele>
        <time>2022-01-14T12:53:51Z</time>
      </trkpt>
      <trkpt lat="42.86029" lon="0.40284">
        <ele>882</ele>
        <time>2022-01-14T12:53:57Z</time>
      </trkpt>
      <trkpt lat="42.86074" lon="0.40279">
        <ele>879</ele>
        <time>2022-01-14T12:54:08Z</time>
      </trkpt>
      <trkpt lat="42.86099" lon="0.40266">
        <ele>878</ele>
        <time>2022-01-14T12:54:14Z</time>
      </trkpt>
      <trkpt lat="42.86112" lon="0.40252">
        <ele>877</ele>
        <time>2022-01-14T12:54:18Z</time>
      </trkpt>
      <trkpt lat="42.86128" lon="0.40222">
        <ele>877</ele>
        <time>2022-01-14T12:54:24Z</time>
      </trkpt>
      <trkpt lat="42.86168" lon="0.40167">
        <ele>872</ele>
        <time>2022-01-14T12:54:38Z</time>
      </trkpt>
      <trkpt lat="42.86189" lon="0.40145">
        <ele>875</ele>
        <time>2022-01-14T12:54:44Z</time>
      </trkpt>
      <trkpt lat="42.86215" lon="0.40127">
        <ele>877</ele>
        <time>2022-01-14T12:54:51Z</time>
      </trkpt>
      <trkpt lat="42.86241" lon="0.40121">
        <ele>876</ele>
        <time>2022-01-14T12:54:57Z</time>
      </trkpt>
      <trkpt lat="42.86259" lon="0.4012">
        <ele>875</ele>
        <time>2022-01-14T12:55:01Z</time>
      </trkpt>
      <trkpt lat="42.86303" lon="0.40124">
        <ele>872</ele>
        <time>2022-01-14T12:55:11Z</time>
      </trkpt>
      <trkpt lat="42.86336" lon="0.40131">
        <ele>869</ele>
        <time>2022-01-14T12:55:19Z</time>
      </trkpt>
      <trkpt lat="42.86388" lon="0.40132">
        <ele>865</ele>
        <time>2022-01-14T12:55:31Z</time>
      </trkpt>
      <trkpt lat="42.86447" lon="0.40123">
        <ele>863</ele>
        <time>2022-01-14T12:55:45Z</time>
      </trkpt>
      <trkpt lat="42.8651" lon="0.40124">
        <ele>861</ele>
        <time>2022-01-14T12:56:00Z</time>
      </trkpt>
      <trkpt lat="42.86539" lon="0.4011">
        <ele>861</ele>
        <time>2022-01-14T12:56:07Z</time>
      </trkpt>
      <trkpt lat="42.86552" lon="0.40096">
        <ele>861</ele>
        <time>2022-01-14T12:56:11Z</time>
      </trkpt>
      <trkpt lat="42.86584" lon="0.40049">
        <ele>863</ele>
        <time>2022-01-14T12:56:22Z</time>
      </trkpt>
      <trkpt lat="42.8663" lon="0.3999">
        <ele>861</ele>
        <time>2022-01-14T12:56:37Z</time>
      </trkpt>
      <trkpt lat="42.86695" lon="0.39936">
        <ele>856</ele>
        <time>2022-01-14T12:56:54Z</time>
      </trkpt>
      <trkpt lat="42.8673" lon="0.39897">
        <ele>855</ele>
        <time>2022-01-14T12:57:05Z</time>
      </trkpt>
      <trkpt lat="42.86736" lon="0.39887">
        <ele>855</ele>
        <time>2022-01-14T12:57:07Z</time>
      </trkpt>
      <trkpt lat="42.86746" lon="0.39865">
        <ele>855</ele>
        <time>2022-01-14T12:57:12Z</time>
      </trkpt>
      <trkpt lat="42.8675" lon="0.39838">
        <ele>855</ele>
        <time>2022-01-14T12:57:16Z</time>
      </trkpt>
      <trkpt lat="42.86753" lon="0.39771">
        <ele>856</ele>
        <time>2022-01-14T12:57:28Z</time>
      </trkpt>
      <trkpt lat="42.86757" lon="0.39745">
        <ele>856</ele>
        <time>2022-01-14T12:57:32Z</time>
      </trkpt>
      <trkpt lat="42.8676" lon="0.39732">
        <ele>857</ele>
        <time>2022-01-14T12:57:35Z</time>
      </trkpt>
      <trkpt lat="42.86779" lon="0.39687">
        <ele>859</ele>
        <time>2022-01-14T12:57:44Z</time>
      </trkpt>
      <trkpt lat="42.86803" lon="0.39667">
        <ele>857</ele>
        <time>2022-01-14T12:57:50Z</time>
      </trkpt>
      <trkpt lat="42.86847" lon="0.39646">
        <ele>854</ele>
        <time>2022-01-14T12:58:01Z</time>
      </trkpt>
      <trkpt lat="42.86866" lon="0.39643">
        <ele>854</ele>
        <time>2022-01-14T12:58:05Z</time>
      </trkpt>
      <trkpt lat="42.86934" lon="0.39652">
        <ele>853</ele>
        <time>2022-01-14T12:58:21Z</time>
      </trkpt>
      <trkpt lat="42.87009" lon="0.39652">
        <ele>853</ele>
        <time>2022-01-14T12:58:39Z</time>
      </trkpt>
      <trkpt lat="42.87026" lon="0.3965">
        <ele>854</ele>
        <time>2022-01-14T12:58:43Z</time>
      </trkpt>
      <trkpt lat="42.87058" lon="0.39631">
        <ele>855</ele>
        <time>2022-01-14T12:58:51Z</time>
      </trkpt>
      <trkpt lat="42.87065" lon="0.39623">
        <ele>855</ele>
        <time>2022-01-14T12:58:53Z</time>
      </trkpt>
      <trkpt lat="42.87081" lon="0.39592">
        <ele>853</ele>
        <time>2022-01-14T12:59:00Z</time>
      </trkpt>
      <trkpt lat="42.87124" lon="0.39472">
        <ele>854</ele>
        <time>2022-01-14T12:59:23Z</time>
      </trkpt>
      <trkpt lat="42.87145" lon="0.39405">
        <ele>855</ele>
        <time>2022-01-14T12:59:35Z</time>
      </trkpt>
      <trkpt lat="42.87177" lon="0.39366">
        <ele>855</ele>
        <time>2022-01-14T12:59:45Z</time>
      </trkpt>
      <trkpt lat="42.87194" lon="0.39358">
        <ele>855</ele>
        <time>2022-01-14T12:59:49Z</time>
      </trkpt>
      <trkpt lat="42.87257" lon="0.39343">
        <ele>853</ele>
        <time>2022-01-14T13:00:04Z</time>
      </trkpt>
      <trkpt lat="42.87426" lon="0.39295">
        <ele>850</ele>
        <time>2022-01-14T13:00:44Z</time>
      </trkpt>
      <trkpt lat="42.87466" lon="0.39274">
        <ele>848</ele>
        <time>2022-01-14T13:00:54Z</time>
      </trkpt>
      <trkpt lat="42.875" lon="0.3926">
        <ele>844</ele>
        <time>2022-01-14T13:01:03Z</time>
      </trkpt>
      <trkpt lat="42.87527" lon="0.39242">
        <ele>843</ele>
        <time>2022-01-14T13:01:10Z</time>
      </trkpt>
      <trkpt lat="42.87597" lon="0.39176">
        <ele>839</ele>
        <time>2022-01-14T13:01:30Z</time>
      </trkpt>
      <trkpt lat="42.87614" lon="0.39158">
        <ele>839</ele>
        <time>2022-01-14T13:01:35Z</time>
      </trkpt>
      <trkpt lat="42.87649" lon="0.39109">
        <ele>839</ele>
        <time>2022-01-14T13:01:46Z</time>
      </trkpt>
      <trkpt lat="42.87667" lon="0.39095">
        <ele>837</ele>
        <time>2022-01-14T13:01:51Z</time>
      </trkpt>
      <trkpt lat="42.87687" lon="0.3909">
        <ele>837</ele>
        <time>2022-01-14T13:01:56Z</time>
      </trkpt>
      <trkpt lat="42.87719" lon="0.39087">
        <ele>836</ele>
        <time>2022-01-14T13:02:03Z</time>
      </trkpt>
      <trkpt lat="42.87737" lon="0.39073">
        <ele>836</ele>
        <time>2022-01-14T13:02:08Z</time>
      </trkpt>
      <trkpt lat="42.8775" lon="0.3905">
        <ele>837</ele>
        <time>2022-01-14T13:02:13Z</time>
      </trkpt>
      <trkpt lat="42.87778" lon="0.3898">
        <ele>846</ele>
        <time>2022-01-14T13:02:27Z</time>
      </trkpt>
      <trkpt lat="42.87783" lon="0.3897">
        <ele>849</ele>
        <time>2022-01-14T13:02:29Z</time>
      </trkpt>
      <trkpt lat="42.87795" lon="0.38957">
        <ele>853</ele>
        <time>2022-01-14T13:02:33Z</time>
      </trkpt>
      <trkpt lat="42.87821" lon="0.38954">
        <ele>852</ele>
        <time>2022-01-14T13:02:39Z</time>
      </trkpt>
      <trkpt lat="42.87839" lon="0.38959">
        <ele>848</ele>
        <time>2022-01-14T13:02:43Z</time>
      </trkpt>
      <trkpt lat="42.87871" lon="0.3896">
        <ele>846</ele>
        <time>2022-01-14T13:02:50Z</time>
      </trkpt>
      <trkpt lat="42.87925" lon="0.38938">
        <ele>850</ele>
        <time>2022-01-14T13:03:04Z</time>
      </trkpt>
      <trkpt lat="42.87993" lon="0.38904">
        <ele>845</ele>
        <time>2022-01-14T13:03:20Z</time>
      </trkpt>
      <trkpt lat="42.88014" lon="0.38897">
        <ele>844</ele>
        <time>2022-01-14T13:03:26Z</time>
      </trkpt>
      <trkpt lat="42.88105" lon="0.38875">
        <ele>837</ele>
        <time>2022-01-14T13:03:47Z</time>
      </trkpt>
      <trkpt lat="42.88162" lon="0.38851">
        <ele>828</ele>
        <time>2022-01-14T13:04:01Z</time>
      </trkpt>
      <trkpt lat="42.88203" lon="0.38827">
        <ele>824</ele>
        <time>2022-01-14T13:04:11Z</time>
      </trkpt>
      <trkpt lat="42.88263" lon="0.38786">
        <ele>817</ele>
        <time>2022-01-14T13:04:27Z</time>
      </trkpt>
      <trkpt lat="42.88295" lon="0.38769">
        <ele>817</ele>
        <time>2022-01-14T13:04:35Z</time>
      </trkpt>
      <trkpt lat="42.88315" lon="0.38751">
        <ele>816</ele>
        <time>2022-01-14T13:04:41Z</time>
      </trkpt>
      <trkpt lat="42.88375" lon="0.38667">
        <ele>814</ele>
        <time>2022-01-14T13:05:01Z</time>
      </trkpt>
      <trkpt lat="42.88403" lon="0.38633">
        <ele>812</ele>
        <time>2022-01-14T13:05:10Z</time>
      </trkpt>
      <trkpt lat="42.88435" lon="0.38603">
        <ele>809</ele>
        <time>2022-01-14T13:05:19Z</time>
      </trkpt>
      <trkpt lat="42.88511" lon="0.38564">
        <ele>805</ele>
        <time>2022-01-14T13:05:38Z</time>
      </trkpt>
      <trkpt lat="42.88561" lon="0.38533">
        <ele>806</ele>
        <time>2022-01-14T13:05:50Z</time>
      </trkpt>
      <trkpt lat="42.88585" lon="0.38515">
        <ele>804</ele>
        <time>2022-01-14T13:05:57Z</time>
      </trkpt>
      <trkpt lat="42.88613" lon="0.38479">
        <ele>805</ele>
        <time>2022-01-14T13:06:06Z</time>
      </trkpt>
      <trkpt lat="42.88628" lon="0.38452">
        <ele>804</ele>
        <time>2022-01-14T13:06:12Z</time>
      </trkpt>
      <trkpt lat="42.8866" lon="0.38352">
        <ele>800</ele>
        <time>2022-01-14T13:06:30Z</time>
      </trkpt>
      <trkpt lat="42.88672" lon="0.38325">
        <ele>798</ele>
        <time>2022-01-14T13:06:36Z</time>
      </trkpt>
      <trkpt lat="42.88708" lon="0.38259">
        <ele>796</ele>
        <time>2022-01-14T13:06:50Z</time>
      </trkpt>
      <trkpt lat="42.88751" lon="0.38204">
        <ele>788</ele>
        <time>2022-01-14T13:07:04Z</time>
      </trkpt>
      <trkpt lat="42.88762" lon="0.38176">
        <ele>787</ele>
        <time>2022-01-14T13:07:09Z</time>
      </trkpt>
      <trkpt lat="42.88765" lon="0.38161">
        <ele>787</ele>
        <time>2022-01-14T13:07:12Z</time>
      </trkpt>
      <trkpt lat="42.88774" lon="0.38066">
        <ele>796</ele>
        <time>2022-01-14T13:07:28Z</time>
      </trkpt>
      <trkpt lat="42.88777" lon="0.38051">
        <ele>800</ele>
        <time>2022-01-14T13:07:31Z</time>
      </trkpt>
      <trkpt lat="42.88787" lon="0.38024">
        <ele>804</ele>
        <time>2022-01-14T13:07:36Z</time>
      </trkpt>
      <trkpt lat="42.88805" lon="0.38006">
        <ele>803</ele>
        <time>2022-01-14T13:07:41Z</time>
      </trkpt>
      <trkpt lat="42.88818" lon="0.38006">
        <ele>799</ele>
        <time>2022-01-14T13:07:44Z</time>
      </trkpt>
      <trkpt lat="42.88841" lon="0.37999">
        <ele>794</ele>
        <time>2022-01-14T13:07:50Z</time>
      </trkpt>
      <trkpt lat="42.88885" lon="0.37979">
        <ele>793</ele>
        <time>2022-01-14T13:08:00Z</time>
      </trkpt>
      <trkpt lat="42.88981" lon="0.37921">
        <ele>792</ele>
        <time>2022-01-14T13:08:25Z</time>
      </trkpt>
      <trkpt lat="42.89003" lon="0.37899">
        <ele>790</ele>
        <time>2022-01-14T13:08:31Z</time>
      </trkpt>
      <trkpt lat="42.89011" lon="0.37879">
        <ele>790</ele>
        <time>2022-01-14T13:08:35Z</time>
      </trkpt>
      <trkpt lat="42.89013" lon="0.37851">
        <ele>788</ele>
        <time>2022-01-14T13:08:40Z</time>
      </trkpt>
      <trkpt lat="42.89009" lon="0.37821">
        <ele>785</ele>
        <time>2022-01-14T13:08:45Z</time>
      </trkpt>
      <trkpt lat="42.88999" lon="0.37795">
        <ele>782</ele>
        <time>2022-01-14T13:08:50Z</time>
      </trkpt>
      <trkpt lat="42.88965" lon="0.37757">
        <ele>794</ele>
        <time>2022-01-14T13:09:01Z</time>
      </trkpt>
      <trkpt lat="42.88952" lon="0.37735">
        <ele>800</ele>
        <time>2022-01-14T13:09:05Z</time>
      </trkpt>
      <trkpt lat="42.88943" lon="0.37698">
        <ele>805</ele>
        <time>2022-01-14T13:09:12Z</time>
      </trkpt>
      <trkpt lat="42.8895" lon="0.37677">
        <ele>802</ele>
        <time>2022-01-14T13:09:16Z</time>
      </trkpt>
      <trkpt lat="42.89001" lon="0.37614">
        <ele>777</ele>
        <time>2022-01-14T13:09:32Z</time>
      </trkpt>
      <trkpt lat="42.89016" lon="0.37588">
        <ele>778</ele>
        <time>2022-01-14T13:09:38Z</time>
      </trkpt>
      <trkpt lat="42.89036" lon="0.37547">
        <ele>778</ele>
        <time>2022-01-14T13:09:46Z</time>
      </trkpt>
      <trkpt lat="42.89067" lon="0.37466">
        <ele>778</ele>
        <time>2022-01-14T13:10:02Z</time>
      </trkpt>
      <trkpt lat="42.89115" lon="0.37389">
        <ele>779</ele>
        <time>2022-01-14T13:10:19Z</time>
      </trkpt>
      <trkpt lat="42.89164" lon="0.37334">
        <ele>779</ele>
        <time>2022-01-14T13:10:34Z</time>
      </trkpt>
      <trkpt lat="42.89188" lon="0.37311">
        <ele>779</ele>
        <time>2022-01-14T13:10:41Z</time>
      </trkpt>
      <trkpt lat="42.89227" lon="0.37264">
        <ele>778</ele>
        <time>2022-01-14T13:10:53Z</time>
      </trkpt>
      <trkpt lat="42.89317" lon="0.37186">
        <ele>776</ele>
        <time>2022-01-14T13:11:18Z</time>
      </trkpt>
      <trkpt lat="42.89344" lon="0.37166">
        <ele>774</ele>
        <time>2022-01-14T13:11:25Z</time>
      </trkpt>
      <trkpt lat="42.89421" lon="0.37116">
        <ele>783</ele>
        <time>2022-01-14T13:11:45Z</time>
      </trkpt>
      <trkpt lat="42.89481" lon="0.37101">
        <ele>777</ele>
        <time>2022-01-14T13:11:59Z</time>
      </trkpt>
      <trkpt lat="42.89498" lon="0.37093">
        <ele>776</ele>
        <time>2022-01-14T13:12:03Z</time>
      </trkpt>
      <trkpt lat="42.89539" lon="0.37063">
        <ele>776</ele>
        <time>2022-01-14T13:12:14Z</time>
      </trkpt>
      <trkpt lat="42.89568" lon="0.37051">
        <ele>771</ele>
        <time>2022-01-14T13:12:21Z</time>
      </trkpt>
      <trkpt lat="42.89614" lon="0.37026">
        <ele>767</ele>
        <time>2022-01-14T13:12:33Z</time>
      </trkpt>
      <trkpt lat="42.8966" lon="0.37007">
        <ele>758</ele>
        <time>2022-01-14T13:12:44Z</time>
      </trkpt>
      <trkpt lat="42.89678" lon="0.36996">
        <ele>755</ele>
        <time>2022-01-14T13:12:49Z</time>
      </trkpt>
      <trkpt lat="42.8969" lon="0.36974">
        <ele>756</ele>
        <time>2022-01-14T13:12:53Z</time>
      </trkpt>
      <trkpt lat="42.89695" lon="0.36944">
        <ele>758</ele>
        <time>2022-01-14T13:12:59Z</time>
      </trkpt>
      <trkpt lat="42.89695" lon="0.36881">
        <ele>766</ele>
        <time>2022-01-14T13:13:09Z</time>
      </trkpt>
      <trkpt lat="42.89698" lon="0.36849">
        <ele>768</ele>
        <time>2022-01-14T13:13:15Z</time>
      </trkpt>
      <trkpt lat="42.8971" lon="0.36801">
        <ele>770</ele>
        <time>2022-01-14T13:13:24Z</time>
      </trkpt>
      <trkpt lat="42.89729" lon="0.36758">
        <ele>766</ele>
        <time>2022-01-14T13:13:32Z</time>
      </trkpt>
      <trkpt lat="42.89745" lon="0.3673">
        <ele>764</ele>
        <time>2022-01-14T13:13:38Z</time>
      </trkpt>
      <trkpt lat="42.89806" lon="0.36636">
        <ele>757</ele>
        <time>2022-01-14T13:14:00Z</time>
      </trkpt>
      <trkpt lat="42.8982" lon="0.36608">
        <ele>754</ele>
        <time>2022-01-14T13:14:06Z</time>
      </trkpt>
      <trkpt lat="42.89849" lon="0.36535">
        <ele>753</ele>
        <time>2022-01-14T13:14:20Z</time>
      </trkpt>
      <trkpt lat="42.89869" lon="0.36498">
        <ele>749</ele>
        <time>2022-01-14T13:14:28Z</time>
      </trkpt>
      <trkpt lat="42.89885" lon="0.36461">
        <ele>746</ele>
        <time>2022-01-14T13:14:35Z</time>
      </trkpt>
      <trkpt lat="42.89889" lon="0.36436">
        <ele>747</ele>
        <time>2022-01-14T13:14:39Z</time>
      </trkpt>
      <trkpt lat="42.89889" lon="0.36391">
        <ele>752</ele>
        <time>2022-01-14T13:14:47Z</time>
      </trkpt>
      <trkpt lat="42.89854" lon="0.36161">
        <ele>769</ele>
        <time>2022-01-14T13:15:27Z</time>
      </trkpt>
      <trkpt lat="42.89845" lon="0.36116">
        <ele>766</ele>
        <time>2022-01-14T13:15:35Z</time>
      </trkpt>
      <trkpt lat="42.8982" lon="0.36056">
        <ele>765</ele>
        <time>2022-01-14T13:15:47Z</time>
      </trkpt>
      <trkpt lat="42.89794" lon="0.36004">
        <ele>764</ele>
        <time>2022-01-14T13:15:58Z</time>
      </trkpt>
      <trkpt lat="42.89778" lon="0.35966">
        <ele>761</ele>
        <time>2022-01-14T13:16:05Z</time>
      </trkpt>
      <trkpt lat="42.89732" lon="0.35839">
        <ele>747</ele>
        <time>2022-01-14T13:16:30Z</time>
      </trkpt>
      <trkpt lat="42.89726" lon="0.35826">
        <ele>746</ele>
        <time>2022-01-14T13:16:32Z</time>
      </trkpt>
      <trkpt lat="42.89702" lon="0.3579">
        <ele>745</ele>
        <time>2022-01-14T13:16:40Z</time>
      </trkpt>
      <trkpt lat="42.89683" lon="0.35768">
        <ele>743</ele>
        <time>2022-01-14T13:16:46Z</time>
      </trkpt>
      <trkpt lat="42.89607" lon="0.35697">
        <ele>739</ele>
        <time>2022-01-14T13:17:08Z</time>
      </trkpt>
      <trkpt lat="42.89577" lon="0.3566">
        <ele>736</ele>
        <time>2022-01-14T13:17:17Z</time>
      </trkpt>
      <trkpt lat="42.89548" lon="0.35618">
        <ele>735</ele>
        <time>2022-01-14T13:17:27Z</time>
      </trkpt>
      <trkpt lat="42.89533" lon="0.3559">
        <ele>732</ele>
        <time>2022-01-14T13:17:33Z</time>
      </trkpt>
      <trkpt lat="42.89518" lon="0.35543">
        <ele>729</ele>
        <time>2022-01-14T13:17:42Z</time>
      </trkpt>
      <trkpt lat="42.8952" lon="0.35525">
        <ele>727</ele>
        <time>2022-01-14T13:17:45Z</time>
      </trkpt>
      <trkpt lat="42.8953" lon="0.35509">
        <ele>725</ele>
        <time>2022-01-14T13:17:49Z</time>
      </trkpt>
      <trkpt lat="42.89547" lon="0.3549">
        <ele>723</ele>
        <time>2022-01-14T13:17:54Z</time>
      </trkpt>
      <trkpt lat="42.89563" lon="0.35465">
        <ele>722</ele>
        <time>2022-01-14T13:17:59Z</time>
      </trkpt>
      <trkpt lat="42.89587" lon="0.35447">
        <ele>720</ele>
        <time>2022-01-14T13:18:06Z</time>
      </trkpt>
      <trkpt lat="42.89639" lon="0.35417">
        <ele>716</ele>
        <time>2022-01-14T13:18:19Z</time>
      </trkpt>
      <trkpt lat="42.89801" lon="0.3531">
        <ele>723</ele>
        <time>2022-01-14T13:19:01Z</time>
      </trkpt>
      <trkpt lat="42.89836" lon="0.35296">
        <ele>724</ele>
        <time>2022-01-14T13:19:09Z</time>
      </trkpt>
      <trkpt lat="42.89858" lon="0.35295">
        <ele>725</ele>
        <time>2022-01-14T13:19:15Z</time>
      </trkpt>
      <trkpt lat="42.89919" lon="0.35307">
        <ele>724</ele>
        <time>2022-01-14T13:19:29Z</time>
      </trkpt>
      <trkpt lat="42.8995" lon="0.3531">
        <ele>721</ele>
        <time>2022-01-14T13:19:36Z</time>
      </trkpt>
      <trkpt lat="42.9006" lon="0.35279">
        <ele>728</ele>
        <time>2022-01-14T13:20:02Z</time>
      </trkpt>
      <trkpt lat="42.90085" lon="0.35283">
        <ele>727</ele>
        <time>2022-01-14T13:20:08Z</time>
      </trkpt>
      <trkpt lat="42.90101" lon="0.35289">
        <ele>727</ele>
        <time>2022-01-14T13:20:12Z</time>
      </trkpt>
      <trkpt lat="42.90146" lon="0.35313">
        <ele>723</ele>
        <time>2022-01-14T13:20:24Z</time>
      </trkpt>
      <trkpt lat="42.90279" lon="0.35409">
        <ele>717</ele>
        <time>2022-01-14T13:20:59Z</time>
      </trkpt>
      <trkpt lat="42.90324" lon="0.35451">
        <ele>715</ele>
        <time>2022-01-14T13:21:11Z</time>
      </trkpt>
      <trkpt lat="42.90368" lon="0.35497">
        <ele>711</ele>
        <time>2022-01-14T13:21:24Z</time>
      </trkpt>
      <trkpt lat="42.90394" lon="0.35515">
        <ele>710</ele>
        <time>2022-01-14T13:21:31Z</time>
      </trkpt>
      <trkpt lat="42.90408" lon="0.3553">
        <ele>710</ele>
        <time>2022-01-14T13:21:35Z</time>
      </trkpt>
      <trkpt lat="42.90442" lon="0.35593">
        <ele>708</ele>
        <time>2022-01-14T13:21:49Z</time>
      </trkpt>
      <trkpt lat="42.90464" lon="0.35625">
        <ele>709</ele>
        <time>2022-01-14T13:21:56Z</time>
      </trkpt>
      <trkpt lat="42.90563" lon="0.3574">
        <ele>704</ele>
        <time>2022-01-14T13:22:27Z</time>
      </trkpt>
      <trkpt lat="42.90584" lon="0.35753">
        <ele>702</ele>
        <time>2022-01-14T13:22:32Z</time>
      </trkpt>
      <trkpt lat="42.90602" lon="0.35757">
        <ele>702</ele>
        <time>2022-01-14T13:22:36Z</time>
      </trkpt>
      <trkpt lat="42.90635" lon="0.35754">
        <ele>703</ele>
        <time>2022-01-14T13:22:44Z</time>
      </trkpt>
      <trkpt lat="42.90686" lon="0.35745">
        <ele>708</ele>
        <time>2022-01-14T13:22:56Z</time>
      </trkpt>
      <trkpt lat="42.90694" lon="0.35746">
        <ele>709</ele>
        <time>2022-01-14T13:22:58Z</time>
      </trkpt>
      <trkpt lat="42.90711" lon="0.35754">
        <ele>710</ele>
        <time>2022-01-14T13:23:02Z</time>
      </trkpt>
      <trkpt lat="42.90811" lon="0.35848">
        <ele>714</ele>
        <time>2022-01-14T13:23:30Z</time>
      </trkpt>
      <trkpt lat="42.9091" lon="0.35962">
        <ele>711</ele>
        <time>2022-01-14T13:24:01Z</time>
      </trkpt>
      <trkpt lat="42.90921" lon="0.3598">
        <ele>708</ele>
        <time>2022-01-14T13:24:05Z</time>
      </trkpt>
      <trkpt lat="42.90939" lon="0.35993">
        <ele>706</ele>
        <time>2022-01-14T13:24:09Z</time>
      </trkpt>
      <trkpt lat="42.90958" lon="0.35991">
        <ele>707</ele>
        <time>2022-01-14T13:24:14Z</time>
      </trkpt>
      <trkpt lat="42.90983" lon="0.36003">
        <ele>706</ele>
        <time>2022-01-14T13:24:20Z</time>
      </trkpt>
      <trkpt lat="42.90987" lon="0.36003">
        <ele>706</ele>
        <time>2022-01-14T13:24:21Z</time>
      </trkpt>
      <trkpt lat="42.91008" lon="0.35999">
        <ele>707</ele>
        <time>2022-01-14T13:24:26Z</time>
      </trkpt>
      <trkpt lat="42.9105" lon="0.35982">
        <ele>709</ele>
        <time>2022-01-14T13:24:36Z</time>
      </trkpt>
      <trkpt lat="42.9108" lon="0.35965">
        <ele>712</ele>
        <time>2022-01-14T13:24:44Z</time>
      </trkpt>
      <trkpt lat="42.91115" lon="0.35932">
        <ele>716</ele>
        <time>2022-01-14T13:24:54Z</time>
      </trkpt>
      <trkpt lat="42.91177" lon="0.35881">
        <ele>725</ele>
        <time>2022-01-14T13:25:11Z</time>
      </trkpt>
      <trkpt lat="42.91188" lon="0.35875">
        <ele>725</ele>
        <time>2022-01-14T13:25:13Z</time>
      </trkpt>
      <trkpt lat="42.91212" lon="0.35856">
        <ele>727</ele>
        <time>2022-01-14T13:25:20Z</time>
      </trkpt>
      <trkpt lat="42.91242" lon="0.35839">
        <ele>727</ele>
        <time>2022-01-14T13:25:27Z</time>
      </trkpt>
      <trkpt lat="42.91266" lon="0.35829">
        <ele>730</ele>
        <time>2022-01-14T13:25:33Z</time>
      </trkpt>
      <trkpt lat="42.91304" lon="0.3582">
        <ele>733</ele>
        <time>2022-01-14T13:25:42Z</time>
      </trkpt>
      <trkpt lat="42.91329" lon="0.35817">
        <ele>734</ele>
        <time>2022-01-14T13:25:48Z</time>
      </trkpt>
      <trkpt lat="42.91354" lon="0.35819">
        <ele>735</ele>
        <time>2022-01-14T13:25:54Z</time>
      </trkpt>
      <trkpt lat="42.9138" lon="0.3583">
        <ele>735</ele>
        <time>2022-01-14T13:26:00Z</time>
      </trkpt>
      <trkpt lat="42.91409" lon="0.35855">
        <ele>729</ele>
        <time>2022-01-14T13:26:08Z</time>
      </trkpt>
      <trkpt lat="42.91433" lon="0.35868">
        <ele>726</ele>
        <time>2022-01-14T13:26:14Z</time>
      </trkpt>
      <trkpt lat="42.91446" lon="0.35873">
        <ele>725</ele>
        <time>2022-01-14T13:26:17Z</time>
      </trkpt>
      <trkpt lat="42.91469" lon="0.35876">
        <ele>725</ele>
        <time>2022-01-14T13:26:23Z</time>
      </trkpt>
      <trkpt lat="42.91479" lon="0.3587">
        <ele>727</ele>
        <time>2022-01-14T13:26:25Z</time>
      </trkpt>
      <trkpt lat="42.91486" lon="0.35859">
        <ele>729</ele>
        <time>2022-01-14T13:26:28Z</time>
      </trkpt>
      <trkpt lat="42.91494" lon="0.35826">
        <ele>734</ele>
        <time>2022-01-14T13:26:34Z</time>
      </trkpt>
      <trkpt lat="42.915" lon="0.3576">
        <ele>743</ele>
        <time>2022-01-14T13:26:45Z</time>
      </trkpt>
      <trkpt lat="42.91538" lon="0.35658">
        <ele>749</ele>
        <time>2022-01-14T13:27:05Z</time>
      </trkpt>
      <trkpt lat="42.91541" lon="0.35638">
        <ele>752</ele>
        <time>2022-01-14T13:27:08Z</time>
      </trkpt>
      <trkpt lat="42.91563" lon="0.35583">
        <ele>755</ele>
        <time>2022-01-14T13:27:19Z</time>
      </trkpt>
      <trkpt lat="42.91578" lon="0.35563">
        <ele>756</ele>
        <time>2022-01-14T13:27:24Z</time>
      </trkpt>
      <trkpt lat="42.91606" lon="0.35541">
        <ele>756</ele>
        <time>2022-01-14T13:27:31Z</time>
      </trkpt>
      <trkpt lat="42.91615" lon="0.35529">
        <ele>756</ele>
        <time>2022-01-14T13:27:34Z</time>
      </trkpt>
      <trkpt lat="42.91618" lon="0.35514">
        <ele>757</ele>
        <time>2022-01-14T13:27:37Z</time>
      </trkpt>
      <trkpt lat="42.91618" lon="0.3544">
        <ele>769</ele>
        <time>2022-01-14T13:27:50Z</time>
      </trkpt>
      <trkpt lat="42.91624" lon="0.35391">
        <ele>771</ele>
        <time>2022-01-14T13:27:58Z</time>
      </trkpt>
      <trkpt lat="42.91653" lon="0.35313">
        <ele>764</ele>
        <time>2022-01-14T13:28:13Z</time>
      </trkpt>
      <trkpt lat="42.91653" lon="0.35229">
        <ele>773</ele>
        <time>2022-01-14T13:28:28Z</time>
      </trkpt>
      <trkpt lat="42.91655" lon="0.35216">
        <ele>774</ele>
        <time>2022-01-14T13:28:30Z</time>
      </trkpt>
      <trkpt lat="42.91674" lon="0.35142">
        <ele>780</ele>
        <time>2022-01-14T13:28:43Z</time>
      </trkpt>
      <trkpt lat="42.9168" lon="0.35127">
        <ele>781</ele>
        <time>2022-01-14T13:28:46Z</time>
      </trkpt>
      <trkpt lat="42.91717" lon="0.35088">
        <ele>774</ele>
        <time>2022-01-14T13:28:57Z</time>
      </trkpt>
      <trkpt lat="42.9173" lon="0.35056">
        <ele>773</ele>
        <time>2022-01-14T13:29:03Z</time>
      </trkpt>
      <trkpt lat="42.91738" lon="0.35008">
        <ele>774</ele>
        <time>2022-01-14T13:29:12Z</time>
      </trkpt>
      <trkpt lat="42.91734" lon="0.34973">
        <ele>781</ele>
        <time>2022-01-14T13:29:18Z</time>
      </trkpt>
      <trkpt lat="42.91734" lon="0.34955">
        <ele>783</ele>
        <time>2022-01-14T13:29:21Z</time>
      </trkpt>
      <trkpt lat="42.91737" lon="0.34943">
        <ele>784</ele>
        <time>2022-01-14T13:29:23Z</time>
      </trkpt>
      <trkpt lat="42.91745" lon="0.34923">
        <ele>782</ele>
        <time>2022-01-14T13:29:27Z</time>
      </trkpt>
      <trkpt lat="42.91756" lon="0.34906">
        <ele>782</ele>
        <time>2022-01-14T13:29:31Z</time>
      </trkpt>
      <trkpt lat="42.91804" lon="0.34865">
        <ele>778</ele>
        <time>2022-01-14T13:29:44Z</time>
      </trkpt>
      <trkpt lat="42.91811" lon="0.34855">
        <ele>777</ele>
        <time>2022-01-14T13:29:46Z</time>
      </trkpt>
      <trkpt lat="42.91838" lon="0.3476">
        <ele>783</ele>
        <time>2022-01-14T13:30:04Z</time>
      </trkpt>
      <trkpt lat="42.91867" lon="0.34719">
        <ele>789</ele>
        <time>2022-01-14T13:30:14Z</time>
      </trkpt>
      <trkpt lat="42.91887" lon="0.34709">
        <ele>788</ele>
        <time>2022-01-14T13:30:19Z</time>
      </trkpt>
      <trkpt lat="42.91919" lon="0.34689">
        <ele>787</ele>
        <time>2022-01-14T13:30:27Z</time>
      </trkpt>
      <trkpt lat="42.91928" lon="0.34681">
        <ele>788</ele>
        <time>2022-01-14T13:30:29Z</time>
      </trkpt>
      <trkpt lat="42.9197" lon="0.34595">
        <ele>796</ele>
        <time>2022-01-14T13:30:47Z</time>
      </trkpt>
      <trkpt lat="42.9198" lon="0.34582">
        <ele>795</ele>
        <time>2022-01-14T13:30:50Z</time>
      </trkpt>
      <trkpt lat="42.91985" lon="0.34581">
        <ele>794</ele>
        <time>2022-01-14T13:30:51Z</time>
      </trkpt>
      <trkpt lat="42.92013" lon="0.34592">
        <ele>792</ele>
        <time>2022-01-14T13:30:58Z</time>
      </trkpt>
      <trkpt lat="42.92015" lon="0.34603">
        <ele>792</ele>
        <time>2022-01-14T13:31:00Z</time>
      </trkpt>
      <trkpt lat="42.92004" lon="0.3466">
        <ele>789</ele>
        <time>2022-01-14T13:31:10Z</time>
      </trkpt>
      <trkpt lat="42.92008" lon="0.34678">
        <ele>792</ele>
        <time>2022-01-14T13:31:13Z</time>
      </trkpt>
      <trkpt lat="42.92007" lon="0.34686">
        <ele>793</ele>
        <time>2022-01-14T13:31:15Z</time>
      </trkpt>
      <trkpt lat="42.92" lon="0.34698">
        <ele>793</ele>
        <time>2022-01-14T13:31:17Z</time>
      </trkpt>
      <trkpt lat="42.91969" lon="0.34726">
        <ele>792</ele>
        <time>2022-01-14T13:31:26Z</time>
      </trkpt>
      <trkpt lat="42.91936" lon="0.34765">
        <ele>786</ele>
        <time>2022-01-14T13:31:36Z</time>
      </trkpt>
      <trkpt lat="42.91923" lon="0.348">
        <ele>786</ele>
        <time>2022-01-14T13:31:43Z</time>
      </trkpt>
      <trkpt lat="42.91923" lon="0.34821">
        <ele>788</ele>
        <time>2022-01-14T13:31:47Z</time>
      </trkpt>
      <trkpt lat="42.91937" lon="0.34862">
        <ele>798</ele>
        <time>2022-01-14T13:31:54Z</time>
      </trkpt>
      <trkpt lat="42.91946" lon="0.34897">
        <ele>806</ele>
        <time>2022-01-14T13:32:01Z</time>
      </trkpt>
      <trkpt lat="42.91947" lon="0.34922">
        <ele>809</ele>
        <time>2022-01-14T13:32:05Z</time>
      </trkpt>
      <trkpt lat="42.91945" lon="0.34944">
        <ele>811</ele>
        <time>2022-01-14T13:32:09Z</time>
      </trkpt>
      <trkpt lat="42.91932" lon="0.34957">
        <ele>809</ele>
        <time>2022-01-14T13:32:13Z</time>
      </trkpt>
      <trkpt lat="42.91922" lon="0.34957">
        <ele>805</ele>
        <time>2022-01-14T13:32:15Z</time>
      </trkpt>
      <trkpt lat="42.91913" lon="0.3496">
        <ele>803</ele>
        <time>2022-01-14T13:32:17Z</time>
      </trkpt>
      <trkpt lat="42.91903" lon="0.34967">
        <ele>800</ele>
        <time>2022-01-14T13:32:20Z</time>
      </trkpt>
      <trkpt lat="42.9189" lon="0.34991">
        <ele>799</ele>
        <time>2022-01-14T13:32:25Z</time>
      </trkpt>
      <trkpt lat="42.91863" lon="0.35114">
        <ele>809</ele>
        <time>2022-01-14T13:32:47Z</time>
      </trkpt>
      <trkpt lat="42.91827" lon="0.35231">
        <ele>817</ele>
        <time>2022-01-14T13:33:08Z</time>
      </trkpt>
      <trkpt lat="42.91828" lon="0.35284">
        <ele>823</ele>
        <time>2022-01-14T13:33:17Z</time>
      </trkpt>
      <trkpt lat="42.91833" lon="0.3535">
        <ele>829</ele>
        <time>2022-01-14T13:33:29Z</time>
      </trkpt>
      <trkpt lat="42.91848" lon="0.35482">
        <ele>845</ele>
        <time>2022-01-14T13:33:52Z</time>
      </trkpt>
      <trkpt lat="42.91845" lon="0.35503">
        <ele>844</ele>
        <time>2022-01-14T13:33:55Z</time>
      </trkpt>
      <trkpt lat="42.91837" lon="0.35528">
        <ele>844</ele>
        <time>2022-01-14T13:34:00Z</time>
      </trkpt>
      <trkpt lat="42.91821" lon="0.35597">
        <ele>843</ele>
        <time>2022-01-14T13:34:12Z</time>
      </trkpt>
      <trkpt lat="42.91813" lon="0.35665">
        <ele>847</ele>
        <time>2022-01-14T13:34:24Z</time>
      </trkpt>
      <trkpt lat="42.91802" lon="0.35699">
        <ele>844</ele>
        <time>2022-01-14T13:34:31Z</time>
      </trkpt>
      <trkpt lat="42.91803" lon="0.35722">
        <ele>847</ele>
        <time>2022-01-14T13:34:34Z</time>
      </trkpt>
      <trkpt lat="42.91807" lon="0.35736">
        <ele>851</ele>
        <time>2022-01-14T13:34:37Z</time>
      </trkpt>
      <trkpt lat="42.91829" lon="0.35782">
        <ele>858</ele>
        <time>2022-01-14T13:34:46Z</time>
      </trkpt>
      <trkpt lat="42.91852" lon="0.35811">
        <ele>860</ele>
        <time>2022-01-14T13:34:54Z</time>
      </trkpt>
      <trkpt lat="42.919" lon="0.35853">
        <ele>864</ele>
        <time>2022-01-14T13:35:07Z</time>
      </trkpt>
      <trkpt lat="42.91943" lon="0.35877">
        <ele>869</ele>
        <time>2022-01-14T13:35:18Z</time>
      </trkpt>
      <trkpt lat="42.91986" lon="0.35905">
        <ele>871</ele>
        <time>2022-01-14T13:35:29Z</time>
      </trkpt>
      <trkpt lat="42.92062" lon="0.35928">
        <ele>879</ele>
        <time>2022-01-14T13:35:47Z</time>
      </trkpt>
      <trkpt lat="42.92098" lon="0.35951">
        <ele>877</ele>
        <time>2022-01-14T13:35:56Z</time>
      </trkpt>
      <trkpt lat="42.92109" lon="0.35953">
        <ele>878</ele>
        <time>2022-01-14T13:35:59Z</time>
      </trkpt>
      <trkpt lat="42.92143" lon="0.35952">
        <ele>883</ele>
        <time>2022-01-14T13:36:07Z</time>
      </trkpt>
      <trkpt lat="42.92199" lon="0.35937">
        <ele>893</ele>
        <time>2022-01-14T13:36:20Z</time>
      </trkpt>
      <trkpt lat="42.92215" lon="0.35935">
        <ele>894</ele>
        <time>2022-01-14T13:36:24Z</time>
      </trkpt>
      <trkpt lat="42.92255" lon="0.35946">
        <ele>891</ele>
        <time>2022-01-14T13:36:34Z</time>
      </trkpt>
      <trkpt lat="42.92315" lon="0.35947">
        <ele>898</ele>
        <time>2022-01-14T13:36:48Z</time>
      </trkpt>
      <trkpt lat="42.92356" lon="0.35944">
        <ele>905</ele>
        <time>2022-01-14T13:36:57Z</time>
      </trkpt>
      <trkpt lat="42.92373" lon="0.35945">
        <ele>907</ele>
        <time>2022-01-14T13:37:01Z</time>
      </trkpt>
      <trkpt lat="42.92379" lon="0.35947">
        <ele>907</ele>
        <time>2022-01-14T13:37:03Z</time>
      </trkpt>
      <trkpt lat="42.92384" lon="0.35952">
        <ele>907</ele>
        <time>2022-01-14T13:37:04Z</time>
      </trkpt>
      <trkpt lat="42.92389" lon="0.35963">
        <ele>904</ele>
        <time>2022-01-14T13:37:06Z</time>
      </trkpt>
      <trkpt lat="42.9239" lon="0.36013">
        <ele>892</ele>
        <time>2022-01-14T13:37:15Z</time>
      </trkpt>
      <trkpt lat="42.92397" lon="0.3603">
        <ele>892</ele>
        <time>2022-01-14T13:37:18Z</time>
      </trkpt>
      <trkpt lat="42.92401" lon="0.36031">
        <ele>893</ele>
        <time>2022-01-14T13:37:19Z</time>
      </trkpt>
      <trkpt lat="42.9241" lon="0.36026">
        <ele>895</ele>
        <time>2022-01-14T13:37:21Z</time>
      </trkpt>
      <trkpt lat="42.92412" lon="0.36016">
        <ele>896</ele>
        <time>2022-01-14T13:37:23Z</time>
      </trkpt>
      <trkpt lat="42.92399" lon="0.35984">
        <ele>900</ele>
        <time>2022-01-14T13:37:29Z</time>
      </trkpt>
      <trkpt lat="42.92402" lon="0.35942">
        <ele>912</ele>
        <time>2022-01-14T13:37:37Z</time>
      </trkpt>
      <trkpt lat="42.92397" lon="0.35923">
        <ele>917</ele>
        <time>2022-01-14T13:37:40Z</time>
      </trkpt>
      <trkpt lat="42.92392" lon="0.35917">
        <ele>918</ele>
        <time>2022-01-14T13:37:42Z</time>
      </trkpt>
      <trkpt lat="42.92384" lon="0.35916">
        <ele>918</ele>
        <time>2022-01-14T13:37:44Z</time>
      </trkpt>
      <trkpt lat="42.92367" lon="0.35922">
        <ele>914</ele>
        <time>2022-01-14T13:37:48Z</time>
      </trkpt>
      <trkpt lat="42.9236" lon="0.35921">
        <ele>913</ele>
        <time>2022-01-14T13:37:49Z</time>
      </trkpt>
      <trkpt lat="42.9232" lon="0.35904">
        <ele>916</ele>
        <time>2022-01-14T13:37:59Z</time>
      </trkpt>
      <trkpt lat="42.92273" lon="0.35895">
        <ele>916</ele>
        <time>2022-01-14T13:38:10Z</time>
      </trkpt>
      <trkpt lat="42.92191" lon="0.35866">
        <ele>920</ele>
        <time>2022-01-14T13:38:30Z</time>
      </trkpt>
      <trkpt lat="42.92142" lon="0.35853">
        <ele>918</ele>
        <time>2022-01-14T13:38:42Z</time>
      </trkpt>
      <trkpt lat="42.9213" lon="0.35847">
        <ele>918</ele>
        <time>2022-01-14T13:38:45Z</time>
      </trkpt>
      <trkpt lat="42.92069" lon="0.35806">
        <ele>922</ele>
        <time>2022-01-14T13:39:00Z</time>
      </trkpt>
      <trkpt lat="42.92045" lon="0.35785">
        <ele>924</ele>
        <time>2022-01-14T13:39:07Z</time>
      </trkpt>
      <trkpt lat="42.92004" lon="0.3574">
        <ele>928</ele>
        <time>2022-01-14T13:39:19Z</time>
      </trkpt>
      <trkpt lat="42.91983" lon="0.35703">
        <ele>923</ele>
        <time>2022-01-14T13:39:27Z</time>
      </trkpt>
      <trkpt lat="42.91977" lon="0.35684">
        <ele>922</ele>
        <time>2022-01-14T13:39:31Z</time>
      </trkpt>
      <trkpt lat="42.91977" lon="0.35641">
        <ele>920</ele>
        <time>2022-01-14T13:39:38Z</time>
      </trkpt>
      <trkpt lat="42.91984" lon="0.35622">
        <ele>920</ele>
        <time>2022-01-14T13:39:42Z</time>
      </trkpt>
      <trkpt lat="42.91997" lon="0.35606">
        <ele>923</ele>
        <time>2022-01-14T13:39:46Z</time>
      </trkpt>
      <trkpt lat="42.92071" lon="0.35563">
        <ele>944</ele>
        <time>2022-01-14T13:40:05Z</time>
      </trkpt>
      <trkpt lat="42.92085" lon="0.35552">
        <ele>948</ele>
        <time>2022-01-14T13:40:09Z</time>
      </trkpt>
      <trkpt lat="42.92089" lon="0.35544">
        <ele>950</ele>
        <time>2022-01-14T13:40:10Z</time>
      </trkpt>
      <trkpt lat="42.92089" lon="0.35526">
        <ele>949</ele>
        <time>2022-01-14T13:40:13Z</time>
      </trkpt>
      <trkpt lat="42.92051" lon="0.35468">
        <ele>937</ele>
        <time>2022-01-14T13:40:27Z</time>
      </trkpt>
      <trkpt lat="42.92048" lon="0.35459">
        <ele>936</ele>
        <time>2022-01-14T13:40:28Z</time>
      </trkpt>
      <trkpt lat="42.92045" lon="0.3544">
        <ele>936</ele>
        <time>2022-01-14T13:40:32Z</time>
      </trkpt>
      <trkpt lat="42.92051" lon="0.35411">
        <ele>939</ele>
        <time>2022-01-14T13:40:37Z</time>
      </trkpt>
      <trkpt lat="42.92064" lon="0.35388">
        <ele>941</ele>
        <time>2022-01-14T13:40:42Z</time>
      </trkpt>
      <trkpt lat="42.92089" lon="0.35359">
        <ele>945</ele>
        <time>2022-01-14T13:40:49Z</time>
      </trkpt>
      <trkpt lat="42.92164" lon="0.35302">
        <ele>954</ele>
        <time>2022-01-14T13:41:09Z</time>
      </trkpt>
      <trkpt lat="42.92217" lon="0.35243">
        <ele>958</ele>
        <time>2022-01-14T13:41:25Z</time>
      </trkpt>
      <trkpt lat="42.92265" lon="0.35181">
        <ele>969</ele>
        <time>2022-01-14T13:41:41Z</time>
      </trkpt>
      <trkpt lat="42.9227" lon="0.35165">
        <ele>969</ele>
        <time>2022-01-14T13:41:44Z</time>
      </trkpt>
      <trkpt lat="42.92267" lon="0.35128">
        <ele>965</ele>
        <time>2022-01-14T13:41:50Z</time>
      </trkpt>
      <trkpt lat="42.92269" lon="0.3512">
        <ele>965</ele>
        <time>2022-01-14T13:41:52Z</time>
      </trkpt>
      <trkpt lat="42.92284" lon="0.35096">
        <ele>969</ele>
        <time>2022-01-14T13:41:57Z</time>
      </trkpt>
      <trkpt lat="42.92301" lon="0.35074">
        <ele>971</ele>
        <time>2022-01-14T13:42:02Z</time>
      </trkpt>
      <trkpt lat="42.92361" lon="0.35011">
        <ele>975</ele>
        <time>2022-01-14T13:42:20Z</time>
      </trkpt>
      <trkpt lat="42.92405" lon="0.34973">
        <ele>981</ele>
        <time>2022-01-14T13:42:32Z</time>
      </trkpt>
      <trkpt lat="42.92445" lon="0.34934">
        <ele>984</ele>
        <time>2022-01-14T13:42:44Z</time>
      </trkpt>
      <trkpt lat="42.92476" lon="0.34895">
        <ele>987</ele>
        <time>2022-01-14T13:42:54Z</time>
      </trkpt>
      <trkpt lat="42.92513" lon="0.34833">
        <ele>987</ele>
        <time>2022-01-14T13:43:07Z</time>
      </trkpt>
      <trkpt lat="42.92545" lon="0.34793">
        <ele>988</ele>
        <time>2022-01-14T13:43:17Z</time>
      </trkpt>
      <trkpt lat="42.92567" lon="0.34774">
        <ele>990</ele>
        <time>2022-01-14T13:43:24Z</time>
      </trkpt>
      <trkpt lat="42.92598" lon="0.34757">
        <ele>995</ele>
        <time>2022-01-14T13:43:31Z</time>
      </trkpt>
      <trkpt lat="42.92627" lon="0.34737">
        <ele>998</ele>
        <time>2022-01-14T13:43:39Z</time>
      </trkpt>
      <trkpt lat="42.92675" lon="0.34715">
        <ele>1009</ele>
        <time>2022-01-14T13:43:51Z</time>
      </trkpt>
      <trkpt lat="42.92695" lon="0.34701">
        <ele>1013</ele>
        <time>2022-01-14T13:43:56Z</time>
      </trkpt>
      <trkpt lat="42.92699" lon="0.34692">
        <ele>1013</ele>
        <time>2022-01-14T13:43:58Z</time>
      </trkpt>
      <trkpt lat="42.927" lon="0.34672">
        <ele>1011</ele>
        <time>2022-01-14T13:44:01Z</time>
      </trkpt>
      <trkpt lat="42.92698" lon="0.34663">
        <ele>1010</ele>
        <time>2022-01-14T13:44:03Z</time>
      </trkpt>
      <trkpt lat="42.92676" lon="0.34634">
        <ele>1007</ele>
        <time>2022-01-14T13:44:10Z</time>
      </trkpt>
      <trkpt lat="42.92647" lon="0.34611">
        <ele>1002</ele>
        <time>2022-01-14T13:44:18Z</time>
      </trkpt>
      <trkpt lat="42.92642" lon="0.34604">
        <ele>1001</ele>
        <time>2022-01-14T13:44:19Z</time>
      </trkpt>
      <trkpt lat="42.92633" lon="0.34588">
        <ele>1001</ele>
        <time>2022-01-14T13:44:23Z</time>
      </trkpt>
      <trkpt lat="42.92628" lon="0.34565">
        <ele>1001</ele>
        <time>2022-01-14T13:44:27Z</time>
      </trkpt>
      <trkpt lat="42.92629" lon="0.34541">
        <ele>1003</ele>
        <time>2022-01-14T13:44:31Z</time>
      </trkpt>
      <trkpt lat="42.92639" lon="0.34507">
        <ele>1008</ele>
        <time>2022-01-14T13:44:37Z</time>
      </trkpt>
      <trkpt lat="42.92651" lon="0.34485">
        <ele>1010</ele>
        <time>2022-01-14T13:44:42Z</time>
      </trkpt>
      <trkpt lat="42.92679" lon="0.34455">
        <ele>1010</ele>
        <time>2022-01-14T13:44:50Z</time>
      </trkpt>
      <trkpt lat="42.92696" lon="0.34442">
        <ele>1009</ele>
        <time>2022-01-14T13:44:55Z</time>
      </trkpt>
      <trkpt lat="42.92709" lon="0.34438">
        <ele>1010</ele>
        <time>2022-01-14T13:44:58Z</time>
      </trkpt>
      <trkpt lat="42.92716" lon="0.34437">
        <ele>1010</ele>
        <time>2022-01-14T13:45:00Z</time>
      </trkpt>
      <trkpt lat="42.92736" lon="0.34441">
        <ele>1013</ele>
        <time>2022-01-14T13:45:04Z</time>
      </trkpt>
      <trkpt lat="42.92749" lon="0.3445">
        <ele>1016</ele>
        <time>2022-01-14T13:45:08Z</time>
      </trkpt>
      <trkpt lat="42.92806" lon="0.34511">
        <ele>1027</ele>
        <time>2022-01-14T13:45:25Z</time>
      </trkpt>
      <trkpt lat="42.92813" lon="0.34524">
        <ele>1030</ele>
        <time>2022-01-14T13:45:27Z</time>
      </trkpt>
      <trkpt lat="42.92815" lon="0.34541">
        <ele>1032</ele>
        <time>2022-01-14T13:45:30Z</time>
      </trkpt>
      <trkpt lat="42.92799" lon="0.34585">
        <ele>1035</ele>
        <time>2022-01-14T13:45:39Z</time>
      </trkpt>
      <trkpt lat="42.92794" lon="0.34603">
        <ele>1035</ele>
        <time>2022-01-14T13:45:42Z</time>
      </trkpt>
      <trkpt lat="42.92792" lon="0.34623">
        <ele>1035</ele>
        <time>2022-01-14T13:45:46Z</time>
      </trkpt>
      <trkpt lat="42.92793" lon="0.34731">
        <ele>1046</ele>
        <time>2022-01-14T13:46:04Z</time>
      </trkpt>
      <trkpt lat="42.9279" lon="0.34747">
        <ele>1047</ele>
        <time>2022-01-14T13:46:07Z</time>
      </trkpt>
      <trkpt lat="42.92784" lon="0.34762">
        <ele>1049</ele>
        <time>2022-01-14T13:46:10Z</time>
      </trkpt>
      <trkpt lat="42.92729" lon="0.34846">
        <ele>1055</ele>
        <time>2022-01-14T13:46:29Z</time>
      </trkpt>
      <trkpt lat="42.92671" lon="0.34918">
        <ele>1056</ele>
        <time>2022-01-14T13:46:47Z</time>
      </trkpt>
      <trkpt lat="42.92635" lon="0.34979">
        <ele>1060</ele>
        <time>2022-01-14T13:47:01Z</time>
      </trkpt>
      <trkpt lat="42.92603" lon="0.35044">
        <ele>1064</ele>
        <time>2022-01-14T13:47:14Z</time>
      </trkpt>
      <trkpt lat="42.92554" lon="0.35164">
        <ele>1075</ele>
        <time>2022-01-14T13:47:38Z</time>
      </trkpt>
      <trkpt lat="42.9254" lon="0.35211">
        <ele>1077</ele>
        <time>2022-01-14T13:47:46Z</time>
      </trkpt>
      <trkpt lat="42.92528" lon="0.35288">
        <ele>1082</ele>
        <time>2022-01-14T13:48:00Z</time>
      </trkpt>
      <trkpt lat="42.92523" lon="0.35308">
        <ele>1083</ele>
        <time>2022-01-14T13:48:03Z</time>
      </trkpt>
      <trkpt lat="42.92499" lon="0.35376">
        <ele>1085</ele>
        <time>2022-01-14T13:48:16Z</time>
      </trkpt>
      <trkpt lat="42.92496" lon="0.35392">
        <ele>1087</ele>
        <time>2022-01-14T13:48:19Z</time>
      </trkpt>
      <trkpt lat="42.92498" lon="0.35412">
        <ele>1091</ele>
        <time>2022-01-14T13:48:23Z</time>
      </trkpt>
      <trkpt lat="42.92506" lon="0.35418">
        <ele>1093</ele>
        <time>2022-01-14T13:48:25Z</time>
      </trkpt>
      <trkpt lat="42.92513" lon="0.35417">
        <ele>1093</ele>
        <time>2022-01-14T13:48:26Z</time>
      </trkpt>
      <trkpt lat="42.92519" lon="0.35412">
        <ele>1094</ele>
        <time>2022-01-14T13:48:28Z</time>
      </trkpt>
      <trkpt lat="42.92525" lon="0.35397">
        <ele>1093</ele>
        <time>2022-01-14T13:48:31Z</time>
      </trkpt>
      <trkpt lat="42.92531" lon="0.35361">
        <ele>1091</ele>
        <time>2022-01-14T13:48:37Z</time>
      </trkpt>
      <trkpt lat="42.92544" lon="0.35332">
        <ele>1093</ele>
        <time>2022-01-14T13:48:43Z</time>
      </trkpt>
      <trkpt lat="42.92572" lon="0.35295">
        <ele>1098</ele>
        <time>2022-01-14T13:48:52Z</time>
      </trkpt>
      <trkpt lat="42.92602" lon="0.35261">
        <ele>1104</ele>
        <time>2022-01-14T13:49:01Z</time>
      </trkpt>
      <trkpt lat="42.92626" lon="0.35228">
        <ele>1106</ele>
        <time>2022-01-14T13:49:09Z</time>
      </trkpt>
      <trkpt lat="42.92674" lon="0.35153">
        <ele>1109</ele>
        <time>2022-01-14T13:49:26Z</time>
      </trkpt>
      <trkpt lat="42.92689" lon="0.35135">
        <ele>1109</ele>
        <time>2022-01-14T13:49:31Z</time>
      </trkpt>
      <trkpt lat="42.92708" lon="0.35126">
        <ele>1111</ele>
        <time>2022-01-14T13:49:36Z</time>
      </trkpt>
      <trkpt lat="42.9275" lon="0.35127">
        <ele>1119</ele>
        <time>2022-01-14T13:49:45Z</time>
      </trkpt>
      <trkpt lat="42.92805" lon="0.35112">
        <ele>1126</ele>
        <time>2022-01-14T13:49:59Z</time>
      </trkpt>
      <trkpt lat="42.92866" lon="0.35072">
        <ele>1133</ele>
        <time>2022-01-14T13:50:14Z</time>
      </trkpt>
      <trkpt lat="42.92901" lon="0.35041">
        <ele>1136</ele>
        <time>2022-01-14T13:50:24Z</time>
      </trkpt>
      <trkpt lat="42.9306" lon="0.34887">
        <ele>1160</ele>
        <time>2022-01-14T13:51:10Z</time>
      </trkpt>
      <trkpt lat="42.93148" lon="0.34784">
        <ele>1170</ele>
        <time>2022-01-14T13:51:37Z</time>
      </trkpt>
      <trkpt lat="42.93196" lon="0.34741">
        <ele>1174</ele>
        <time>2022-01-14T13:51:50Z</time>
      </trkpt>
      <trkpt lat="42.93339" lon="0.34658">
        <ele>1186</ele>
        <time>2022-01-14T13:52:26Z</time>
      </trkpt>
      <trkpt lat="42.93407" lon="0.34632">
        <ele>1197</ele>
        <time>2022-01-14T13:52:43Z</time>
      </trkpt>
      <trkpt lat="42.93496" lon="0.3458">
        <ele>1202</ele>
        <time>2022-01-14T13:53:05Z</time>
      </trkpt>
      <trkpt lat="42.93612" lon="0.3448">
        <ele>1213</ele>
        <time>2022-01-14T13:53:37Z</time>
      </trkpt>
      <trkpt lat="42.93706" lon="0.34369">
        <ele>1223</ele>
        <time>2022-01-14T13:54:06Z</time>
      </trkpt>
      <trkpt lat="42.93735" lon="0.34339">
        <ele>1225</ele>
        <time>2022-01-14T13:54:15Z</time>
      </trkpt>
      <trkpt lat="42.93744" lon="0.34333">
        <ele>1227</ele>
        <time>2022-01-14T13:54:17Z</time>
      </trkpt>
      <trkpt lat="42.93768" lon="0.34308">
        <ele>1231</ele>
        <time>2022-01-14T13:54:24Z</time>
      </trkpt>
      <trkpt lat="42.93794" lon="0.34288">
        <ele>1238</ele>
        <time>2022-01-14T13:54:31Z</time>
      </trkpt>
      <trkpt lat="42.93822" lon="0.34259">
        <ele>1244</ele>
        <time>2022-01-14T13:54:40Z</time>
      </trkpt>
      <trkpt lat="42.93856" lon="0.34203">
        <ele>1253</ele>
        <time>2022-01-14T13:54:52Z</time>
      </trkpt>
      <trkpt lat="42.9386" lon="0.34187">
        <ele>1253</ele>
        <time>2022-01-14T13:54:55Z</time>
      </trkpt>
      <trkpt lat="42.93859" lon="0.34172">
        <ele>1251</ele>
        <time>2022-01-14T13:54:57Z</time>
      </trkpt>
      <trkpt lat="42.93833" lon="0.34112">
        <ele>1247</ele>
        <time>2022-01-14T13:55:09Z</time>
      </trkpt>
      <trkpt lat="42.93825" lon="0.34103">
        <ele>1246</ele>
        <time>2022-01-14T13:55:12Z</time>
      </trkpt>
      <trkpt lat="42.93805" lon="0.34096">
        <ele>1240</ele>
        <time>2022-01-14T13:55:17Z</time>
      </trkpt>
      <trkpt lat="42.938" lon="0.34092">
        <ele>1239</ele>
        <time>2022-01-14T13:55:18Z</time>
      </trkpt>
      <trkpt lat="42.93792" lon="0.34077">
        <ele>1238</ele>
        <time>2022-01-14T13:55:21Z</time>
      </trkpt>
      <trkpt lat="42.93793" lon="0.34046">
        <ele>1240</ele>
        <time>2022-01-14T13:55:26Z</time>
      </trkpt>
      <trkpt lat="42.93797" lon="0.34024">
        <ele>1243</ele>
        <time>2022-01-14T13:55:30Z</time>
      </trkpt>
      <trkpt lat="42.93802" lon="0.34011">
        <ele>1247</ele>
        <time>2022-01-14T13:55:33Z</time>
      </trkpt>
      <trkpt lat="42.93837" lon="0.33955">
        <ele>1257</ele>
        <time>2022-01-14T13:55:45Z</time>
      </trkpt>
      <trkpt lat="42.93875" lon="0.33904">
        <ele>1265</ele>
        <time>2022-01-14T13:55:58Z</time>
      </trkpt>
      <trkpt lat="42.9394" lon="0.33778">
        <ele>1273</ele>
        <time>2022-01-14T13:56:24Z</time>
      </trkpt>
      <trkpt lat="42.93955" lon="0.33741">
        <ele>1273</ele>
        <time>2022-01-14T13:56:31Z</time>
      </trkpt>
      <trkpt lat="42.93981" lon="0.33708">
        <ele>1276</ele>
        <time>2022-01-14T13:56:40Z</time>
      </trkpt>
      <trkpt lat="42.94011" lon="0.33691">
        <ele>1286</ele>
        <time>2022-01-14T13:56:47Z</time>
      </trkpt>
      <trkpt lat="42.94059" lon="0.33646">
        <ele>1297</ele>
        <time>2022-01-14T13:57:01Z</time>
      </trkpt>
      <trkpt lat="42.94086" lon="0.33602">
        <ele>1296</ele>
        <time>2022-01-14T13:57:11Z</time>
      </trkpt>
      <trkpt lat="42.94112" lon="0.33539">
        <ele>1296</ele>
        <time>2022-01-14T13:57:23Z</time>
      </trkpt>
      <trkpt lat="42.94122" lon="0.33535">
        <ele>1300</ele>
        <time>2022-01-14T13:57:26Z</time>
      </trkpt>
      <trkpt lat="42.94133" lon="0.33541">
        <ele>1306</ele>
        <time>2022-01-14T13:57:28Z</time>
      </trkpt>
      <trkpt lat="42.94137" lon="0.33547">
        <ele>1308</ele>
        <time>2022-01-14T13:57:30Z</time>
      </trkpt>
      <trkpt lat="42.94141" lon="0.33555">
        <ele>1311</ele>
        <time>2022-01-14T13:57:31Z</time>
      </trkpt>
      <trkpt lat="42.94141" lon="0.33572">
        <ele>1312</ele>
        <time>2022-01-14T13:57:34Z</time>
      </trkpt>
      <trkpt lat="42.94123" lon="0.33601">
        <ele>1312</ele>
        <time>2022-01-14T13:57:41Z</time>
      </trkpt>
      <trkpt lat="42.941" lon="0.33616">
        <ele>1307</ele>
        <time>2022-01-14T13:57:47Z</time>
      </trkpt>
      <trkpt lat="42.94093" lon="0.33624">
        <ele>1307</ele>
        <time>2022-01-14T13:57:49Z</time>
      </trkpt>
      <trkpt lat="42.94075" lon="0.33673">
        <ele>1315</ele>
        <time>2022-01-14T13:57:58Z</time>
      </trkpt>
      <trkpt lat="42.9403" lon="0.33744">
        <ele>1314</ele>
        <time>2022-01-14T13:58:14Z</time>
      </trkpt>
      <trkpt lat="42.94023" lon="0.33772">
        <ele>1316</ele>
        <time>2022-01-14T13:58:19Z</time>
      </trkpt>
      <trkpt lat="42.94008" lon="0.3387">
        <ele>1320</ele>
        <time>2022-01-14T13:58:36Z</time>
      </trkpt>
      <trkpt lat="42.94004" lon="0.33922">
        <ele>1325</ele>
        <time>2022-01-14T13:58:45Z</time>
      </trkpt>
      <trkpt lat="42.94003" lon="0.33959">
        <ele>1328</ele>
        <time>2022-01-14T13:58:52Z</time>
      </trkpt>
      <trkpt lat="42.94007" lon="0.34032">
        <ele>1333</ele>
        <time>2022-01-14T13:59:04Z</time>
      </trkpt>
      <trkpt lat="42.94015" lon="0.34083">
        <ele>1336</ele>
        <time>2022-01-14T13:59:13Z</time>
      </trkpt>
      <trkpt lat="42.94026" lon="0.34103">
        <ele>1340</ele>
        <time>2022-01-14T13:59:17Z</time>
      </trkpt>
      <trkpt lat="42.94047" lon="0.3412">
        <ele>1348</ele>
        <time>2022-01-14T13:59:23Z</time>
      </trkpt>
      <trkpt lat="42.94056" lon="0.34135">
        <ele>1352</ele>
        <time>2022-01-14T13:59:26Z</time>
      </trkpt>
      <trkpt lat="42.94057" lon="0.34142">
        <ele>1352</ele>
        <time>2022-01-14T13:59:28Z</time>
      </trkpt>
      <trkpt lat="42.94057" lon="0.34163">
        <ele>1350</ele>
        <time>2022-01-14T13:59:31Z</time>
      </trkpt>
      <trkpt lat="42.94043" lon="0.3426">
        <ele>1353</ele>
        <time>2022-01-14T13:59:48Z</time>
      </trkpt>
      <trkpt lat="42.94034" lon="0.34349">
        <ele>1358</ele>
        <time>2022-01-14T14:00:03Z</time>
      </trkpt>
      <trkpt lat="42.94039" lon="0.34396">
        <ele>1362</ele>
        <time>2022-01-14T14:00:12Z</time>
      </trkpt>
      <trkpt lat="42.9406" lon="0.34461">
        <ele>1365</ele>
        <time>2022-01-14T14:00:24Z</time>
      </trkpt>
      <trkpt lat="42.94071" lon="0.34475">
        <ele>1366</ele>
        <time>2022-01-14T14:00:27Z</time>
      </trkpt>
      <trkpt lat="42.94077" lon="0.34475">
        <ele>1368</ele>
        <time>2022-01-14T14:00:29Z</time>
      </trkpt>
      <trkpt lat="42.94082" lon="0.34472">
        <ele>1370</ele>
        <time>2022-01-14T14:00:30Z</time>
      </trkpt>
      <trkpt lat="42.9409" lon="0.34461">
        <ele>1372</ele>
        <time>2022-01-14T14:00:33Z</time>
      </trkpt>
      <trkpt lat="42.94091" lon="0.34444">
        <ele>1375</ele>
        <time>2022-01-14T14:00:36Z</time>
      </trkpt>
      <trkpt lat="42.94088" lon="0.34438">
        <ele>1376</ele>
        <time>2022-01-14T14:00:37Z</time>
      </trkpt>
      <trkpt lat="42.94072" lon="0.34423">
        <ele>1375</ele>
        <time>2022-01-14T14:00:41Z</time>
      </trkpt>
      <trkpt lat="42.94069" lon="0.34416">
        <ele>1374</ele>
        <time>2022-01-14T14:00:43Z</time>
      </trkpt>
      <trkpt lat="42.94067" lon="0.34407">
        <ele>1374</ele>
        <time>2022-01-14T14:00:44Z</time>
      </trkpt>
      <trkpt lat="42.94069" lon="0.34379">
        <ele>1374</ele>
        <time>2022-01-14T14:00:49Z</time>
      </trkpt>
      <trkpt lat="42.94074" lon="0.34348">
        <ele>1376</ele>
        <time>2022-01-14T14:00:55Z</time>
      </trkpt>
      <trkpt lat="42.94111" lon="0.34217">
        <ele>1384</ele>
        <time>2022-01-14T14:01:19Z</time>
      </trkpt>
      <trkpt lat="42.94122" lon="0.34169">
        <ele>1388</ele>
        <time>2022-01-14T14:01:27Z</time>
      </trkpt>
      <trkpt lat="42.94134" lon="0.34074">
        <ele>1394</ele>
        <time>2022-01-14T14:01:44Z</time>
      </trkpt>
      <trkpt lat="42.94148" lon="0.34001">
        <ele>1401</ele>
        <time>2022-01-14T14:01:57Z</time>
      </trkpt>
      <trkpt lat="42.94193" lon="0.33867">
        <ele>1415</ele>
        <time>2022-01-14T14:02:22Z</time>
      </trkpt>
      <trkpt lat="42.9421" lon="0.33822">
        <ele>1417</ele>
        <time>2022-01-14T14:02:30Z</time>
      </trkpt>
      <trkpt lat="42.94218" lon="0.33809">
        <ele>1418</ele>
        <time>2022-01-14T14:02:33Z</time>
      </trkpt>
      <trkpt lat="42.94228" lon="0.33785">
        <ele>1416</ele>
        <time>2022-01-14T14:02:38Z</time>
      </trkpt>
      <trkpt lat="42.9424" lon="0.33767">
        <ele>1417</ele>
        <time>2022-01-14T14:02:42Z</time>
      </trkpt>
      <trkpt lat="42.94268" lon="0.33749">
        <ele>1426</ele>
        <time>2022-01-14T14:02:49Z</time>
      </trkpt>
      <trkpt lat="42.94283" lon="0.33727">
        <ele>1427</ele>
        <time>2022-01-14T14:02:55Z</time>
      </trkpt>
      <trkpt lat="42.94293" lon="0.33715">
        <ele>1429</ele>
        <time>2022-01-14T14:02:58Z</time>
      </trkpt>
      <trkpt lat="42.94313" lon="0.33698">
        <ele>1436</ele>
        <time>2022-01-14T14:03:03Z</time>
      </trkpt>
      <trkpt lat="42.94324" lon="0.33681">
        <ele>1438</ele>
        <time>2022-01-14T14:03:07Z</time>
      </trkpt>
      <trkpt lat="42.94328" lon="0.3367">
        <ele>1437</ele>
        <time>2022-01-14T14:03:09Z</time>
      </trkpt>
      <trkpt lat="42.94329" lon="0.33549">
        <ele>1430</ele>
        <time>2022-01-14T14:03:30Z</time>
      </trkpt>
      <trkpt lat="42.94333" lon="0.33527">
        <ele>1433</ele>
        <time>2022-01-14T14:03:34Z</time>
      </trkpt>
      <trkpt lat="42.9436" lon="0.33446">
        <ele>1450</ele>
        <time>2022-01-14T14:03:49Z</time>
      </trkpt>
      <trkpt lat="42.94379" lon="0.33376">
        <ele>1459</ele>
        <time>2022-01-14T14:04:02Z</time>
      </trkpt>
      <trkpt lat="42.94387" lon="0.33357">
        <ele>1464</ele>
        <time>2022-01-14T14:04:05Z</time>
      </trkpt>
      <trkpt lat="42.94391" lon="0.33336">
        <ele>1465</ele>
        <time>2022-01-14T14:04:09Z</time>
      </trkpt>
      <trkpt lat="42.94387" lon="0.33287">
        <ele>1466</ele>
        <time>2022-01-14T14:04:18Z</time>
      </trkpt>
      <trkpt lat="42.94373" lon="0.33205">
        <ele>1472</ele>
        <time>2022-01-14T14:04:32Z</time>
      </trkpt>
      <trkpt lat="42.94357" lon="0.33186">
        <ele>1468</ele>
        <time>2022-01-14T14:04:37Z</time>
      </trkpt>
      <trkpt lat="42.9435" lon="0.33183">
        <ele>1465</ele>
        <time>2022-01-14T14:04:39Z</time>
      </trkpt>
      <trkpt lat="42.94333" lon="0.33168">
        <ele>1461</ele>
        <time>2022-01-14T14:04:43Z</time>
      </trkpt>
      <trkpt lat="42.94318" lon="0.33119">
        <ele>1468</ele>
        <time>2022-01-14T14:04:52Z</time>
      </trkpt>
      <trkpt lat="42.94306" lon="0.33104">
        <ele>1465</ele>
        <time>2022-01-14T14:04:56Z</time>
      </trkpt>
      <trkpt lat="42.94293" lon="0.33095">
        <ele>1460</ele>
        <time>2022-01-14T14:05:00Z</time>
      </trkpt>
      <trkpt lat="42.94288" lon="0.33084">
        <ele>1460</ele>
        <time>2022-01-14T14:05:02Z</time>
      </trkpt>
      <trkpt lat="42.94286" lon="0.33002">
        <ele>1471</ele>
        <time>2022-01-14T14:05:16Z</time>
      </trkpt>
      <trkpt lat="42.94281" lon="0.32959">
        <ele>1476</ele>
        <time>2022-01-14T14:05:23Z</time>
      </trkpt>
      <trkpt lat="42.94274" lon="0.32934">
        <ele>1478</ele>
        <time>2022-01-14T14:05:28Z</time>
      </trkpt>
      <trkpt lat="42.9426" lon="0.32908">
        <ele>1477</ele>
        <time>2022-01-14T14:05:33Z</time>
      </trkpt>
      <trkpt lat="42.94242" lon="0.32841">
        <ele>1481</ele>
        <time>2022-01-14T14:05:46Z</time>
      </trkpt>
      <trkpt lat="42.9423" lon="0.32807">
        <ele>1481</ele>
        <time>2022-01-14T14:05:52Z</time>
      </trkpt>
      <trkpt lat="42.94223" lon="0.32749">
        <ele>1485</ele>
        <time>2022-01-14T14:06:02Z</time>
      </trkpt>
      <trkpt lat="42.94226" lon="0.3275">
        <ele>1485</ele>
        <time>2022-01-14T14:06:03Z</time>
      </trkpt>
      <trkpt lat="42.9423" lon="0.32747">
        <ele>1485</ele>
        <time>2022-01-14T14:06:04Z</time>
      </trkpt>
      <trkpt lat="42.94237" lon="0.3273">
        <ele>1486</ele>
        <time>2022-01-14T14:06:07Z</time>
      </trkpt>
      <trkpt lat="42.94241" lon="0.32727">
        <ele>1486</ele>
        <time>2022-01-14T14:06:08Z</time>
      </trkpt>
      <trkpt lat="42.94244" lon="0.3272">
        <ele>1487</ele>
        <time>2022-01-14T14:06:10Z</time>
      </trkpt>
      <trkpt lat="42.94279" lon="0.32679">
        <ele>1492</ele>
        <time>2022-01-14T14:06:20Z</time>
      </trkpt>
      <trkpt lat="42.9431" lon="0.32635">
        <ele>1491</ele>
        <time>2022-01-14T14:06:31Z</time>
      </trkpt>
      <trkpt lat="42.94322" lon="0.32604">
        <ele>1487</ele>
        <time>2022-01-14T14:06:37Z</time>
      </trkpt>
      <trkpt lat="42.94328" lon="0.32578">
        <ele>1482</ele>
        <time>2022-01-14T14:06:42Z</time>
      </trkpt>
      <trkpt lat="42.94337" lon="0.32521">
        <ele>1475</ele>
        <time>2022-01-14T14:06:51Z</time>
      </trkpt>
      <trkpt lat="42.94359" lon="0.32411">
        <ele>1471</ele>
        <time>2022-01-14T14:07:11Z</time>
      </trkpt>
      <trkpt lat="42.94364" lon="0.32343">
        <ele>1467</ele>
        <time>2022-01-14T14:07:23Z</time>
      </trkpt>
      <trkpt lat="42.94369" lon="0.3231">
        <ele>1463</ele>
        <time>2022-01-14T14:07:28Z</time>
      </trkpt>
      <trkpt lat="42.94399" lon="0.32253">
        <ele>1461</ele>
        <time>2022-01-14T14:07:40Z</time>
      </trkpt>
      <trkpt lat="42.94427" lon="0.32193">
        <ele>1461</ele>
        <time>2022-01-14T14:07:53Z</time>
      </trkpt>
      <trkpt lat="42.94451" lon="0.3213">
        <ele>1461</ele>
        <time>2022-01-14T14:08:05Z</time>
      </trkpt>
      <trkpt lat="42.94492" lon="0.32039">
        <ele>1460</ele>
        <time>2022-01-14T14:08:23Z</time>
      </trkpt>
      <trkpt lat="42.94533" lon="0.31966">
        <ele>1455</ele>
        <time>2022-01-14T14:08:39Z</time>
      </trkpt>
      <trkpt lat="42.94562" lon="0.31928">
        <ele>1455</ele>
        <time>2022-01-14T14:08:48Z</time>
      </trkpt>
      <trkpt lat="42.9457" lon="0.31912">
        <ele>1453</ele>
        <time>2022-01-14T14:08:51Z</time>
      </trkpt>
      <trkpt lat="42.94597" lon="0.31809">
        <ele>1434</ele>
        <time>2022-01-14T14:09:10Z</time>
      </trkpt>
      <trkpt lat="42.94616" lon="0.31764">
        <ele>1433</ele>
        <time>2022-01-14T14:09:19Z</time>
      </trkpt>
      <trkpt lat="42.94623" lon="0.31752">
        <ele>1434</ele>
        <time>2022-01-14T14:09:22Z</time>
      </trkpt>
      <trkpt lat="42.94639" lon="0.31737">
        <ele>1439</ele>
        <time>2022-01-14T14:09:26Z</time>
      </trkpt>
      <trkpt lat="42.94646" lon="0.31727">
        <ele>1441</ele>
        <time>2022-01-14T14:09:29Z</time>
      </trkpt>
      <trkpt lat="42.94655" lon="0.31703">
        <ele>1444</ele>
        <time>2022-01-14T14:09:33Z</time>
      </trkpt>
      <trkpt lat="42.94641" lon="0.3167">
        <ele>1435</ele>
        <time>2022-01-14T14:09:40Z</time>
      </trkpt>
      <trkpt lat="42.94609" lon="0.31634">
        <ele>1427</ele>
        <time>2022-01-14T14:09:49Z</time>
      </trkpt>
      <trkpt lat="42.94568" lon="0.31608">
        <ele>1416</ele>
        <time>2022-01-14T14:10:00Z</time>
      </trkpt>
      <trkpt lat="42.94559" lon="0.316">
        <ele>1415</ele>
        <time>2022-01-14T14:10:02Z</time>
      </trkpt>
      <trkpt lat="42.94489" lon="0.31504">
        <ele>1403</ele>
        <time>2022-01-14T14:10:26Z</time>
      </trkpt>
      <trkpt lat="42.94475" lon="0.31471">
        <ele>1401</ele>
        <time>2022-01-14T14:10:32Z</time>
      </trkpt>
      <trkpt lat="42.9446" lon="0.31421">
        <ele>1399</ele>
        <time>2022-01-14T14:10:41Z</time>
      </trkpt>
      <trkpt lat="42.94433" lon="0.31357">
        <ele>1396</ele>
        <time>2022-01-14T14:10:54Z</time>
      </trkpt>
      <trkpt lat="42.94397" lon="0.31281">
        <ele>1395</ele>
        <time>2022-01-14T14:11:09Z</time>
      </trkpt>
      <trkpt lat="42.94388" lon="0.31269">
        <ele>1394</ele>
        <time>2022-01-14T14:11:12Z</time>
      </trkpt>
      <trkpt lat="42.94355" lon="0.31238">
        <ele>1390</ele>
        <time>2022-01-14T14:11:22Z</time>
      </trkpt>
      <trkpt lat="42.94297" lon="0.31162">
        <ele>1391</ele>
        <time>2022-01-14T14:11:40Z</time>
      </trkpt>
      <trkpt lat="42.94276" lon="0.31149">
        <ele>1386</ele>
        <time>2022-01-14T14:11:46Z</time>
      </trkpt>
      <trkpt lat="42.94246" lon="0.31138">
        <ele>1378</ele>
        <time>2022-01-14T14:11:53Z</time>
      </trkpt>
      <trkpt lat="42.94237" lon="0.3112">
        <ele>1376</ele>
        <time>2022-01-14T14:11:57Z</time>
      </trkpt>
      <trkpt lat="42.94236" lon="0.31092">
        <ele>1378</ele>
        <time>2022-01-14T14:12:02Z</time>
      </trkpt>
      <trkpt lat="42.94258" lon="0.30896">
        <ele>1369</ele>
        <time>2022-01-14T14:12:36Z</time>
      </trkpt>
      <trkpt lat="42.94271" lon="0.30824">
        <ele>1363</ele>
        <time>2022-01-14T14:12:48Z</time>
      </trkpt>
      <trkpt lat="42.94284" lon="0.30774">
        <ele>1364</ele>
        <time>2022-01-14T14:12:57Z</time>
      </trkpt>
      <trkpt lat="42.94306" lon="0.30722">
        <ele>1367</ele>
        <time>2022-01-14T14:13:08Z</time>
      </trkpt>
      <trkpt lat="42.94302" lon="0.30696">
        <ele>1365</ele>
        <time>2022-01-14T14:13:12Z</time>
      </trkpt>
      <trkpt lat="42.94294" lon="0.3069">
        <ele>1363</ele>
        <time>2022-01-14T14:13:14Z</time>
      </trkpt>
      <trkpt lat="42.94278" lon="0.30668">
        <ele>1357</ele>
        <time>2022-01-14T14:13:20Z</time>
      </trkpt>
      <trkpt lat="42.94281" lon="0.30593">
        <ele>1357</ele>
        <time>2022-01-14T14:13:32Z</time>
      </trkpt>
      <trkpt lat="42.94285" lon="0.30565">
        <ele>1359</ele>
        <time>2022-01-14T14:13:37Z</time>
      </trkpt>
      <trkpt lat="42.94282" lon="0.30554">
        <ele>1359</ele>
        <time>2022-01-14T14:13:39Z</time>
      </trkpt>
      <trkpt lat="42.94271" lon="0.30537">
        <ele>1357</ele>
        <time>2022-01-14T14:13:43Z</time>
      </trkpt>
      <trkpt lat="42.94241" lon="0.30524">
        <ele>1348</ele>
        <time>2022-01-14T14:13:50Z</time>
      </trkpt>
      <trkpt lat="42.94227" lon="0.30514">
        <ele>1342</ele>
        <time>2022-01-14T14:13:54Z</time>
      </trkpt>
      <trkpt lat="42.94222" lon="0.30478">
        <ele>1343</ele>
        <time>2022-01-14T14:14:00Z</time>
      </trkpt>
      <trkpt lat="42.94218" lon="0.30466">
        <ele>1342</ele>
        <time>2022-01-14T14:14:03Z</time>
      </trkpt>
      <trkpt lat="42.94201" lon="0.30435">
        <ele>1337</ele>
        <time>2022-01-14T14:14:09Z</time>
      </trkpt>
      <trkpt lat="42.94186" lon="0.30392">
        <ele>1334</ele>
        <time>2022-01-14T14:14:17Z</time>
      </trkpt>
      <trkpt lat="42.94183" lon="0.30377">
        <ele>1335</ele>
        <time>2022-01-14T14:14:20Z</time>
      </trkpt>
      <trkpt lat="42.94155" lon="0.3032">
        <ele>1329</ele>
        <time>2022-01-14T14:14:32Z</time>
      </trkpt>
      <trkpt lat="42.94141" lon="0.30261">
        <ele>1331</ele>
        <time>2022-01-14T14:14:42Z</time>
      </trkpt>
      <trkpt lat="42.94118" lon="0.30224">
        <ele>1329</ele>
        <time>2022-01-14T14:14:51Z</time>
      </trkpt>
      <trkpt lat="42.94109" lon="0.30214">
        <ele>1327</ele>
        <time>2022-01-14T14:14:53Z</time>
      </trkpt>
      <trkpt lat="42.94058" lon="0.30185">
        <ele>1311</ele>
        <time>2022-01-14T14:15:06Z</time>
      </trkpt>
      <trkpt lat="42.94035" lon="0.30154">
        <ele>1305</ele>
        <time>2022-01-14T14:15:14Z</time>
      </trkpt>
      <trkpt lat="42.94023" lon="0.30125">
        <ele>1305</ele>
        <time>2022-01-14T14:15:20Z</time>
      </trkpt>
      <trkpt lat="42.94003" lon="0.30087">
        <ele>1304</ele>
        <time>2022-01-14T14:15:28Z</time>
      </trkpt>
      <trkpt lat="42.93994" lon="0.3006">
        <ele>1305</ele>
        <time>2022-01-14T14:15:33Z</time>
      </trkpt>
      <trkpt lat="42.93979" lon="0.3004">
        <ele>1302</ele>
        <time>2022-01-14T14:15:38Z</time>
      </trkpt>
      <trkpt lat="42.93959" lon="0.30032">
        <ele>1295</ele>
        <time>2022-01-14T14:15:42Z</time>
      </trkpt>
      <trkpt lat="42.9395" lon="0.30031">
        <ele>1291</ele>
        <time>2022-01-14T14:15:45Z</time>
      </trkpt>
      <trkpt lat="42.93941" lon="0.30002">
        <ele>1290</ele>
        <time>2022-01-14T14:15:50Z</time>
      </trkpt>
      <trkpt lat="42.93944" lon="0.29958">
        <ele>1293</ele>
        <time>2022-01-14T14:15:57Z</time>
      </trkpt>
      <trkpt lat="42.93938" lon="0.29934">
        <ele>1291</ele>
        <time>2022-01-14T14:16:02Z</time>
      </trkpt>
      <trkpt lat="42.93923" lon="0.29915">
        <ele>1286</ele>
        <time>2022-01-14T14:16:07Z</time>
      </trkpt>
      <trkpt lat="42.93913" lon="0.29907">
        <ele>1282</ele>
        <time>2022-01-14T14:16:09Z</time>
      </trkpt>
      <trkpt lat="42.93901" lon="0.29885">
        <ele>1278</ele>
        <time>2022-01-14T14:16:14Z</time>
      </trkpt>
      <trkpt lat="42.93904" lon="0.29853">
        <ele>1281</ele>
        <time>2022-01-14T14:16:19Z</time>
      </trkpt>
      <trkpt lat="42.9391" lon="0.29822">
        <ele>1283</ele>
        <time>2022-01-14T14:16:25Z</time>
      </trkpt>
      <trkpt lat="42.93941" lon="0.29728">
        <ele>1274</ele>
        <time>2022-01-14T14:16:43Z</time>
      </trkpt>
      <trkpt lat="42.93956" lon="0.29698">
        <ele>1269</ele>
        <time>2022-01-14T14:16:49Z</time>
      </trkpt>
      <trkpt lat="42.93977" lon="0.29678">
        <ele>1270</ele>
        <time>2022-01-14T14:16:55Z</time>
      </trkpt>
      <trkpt lat="42.93998" lon="0.29662">
        <ele>1271</ele>
        <time>2022-01-14T14:17:00Z</time>
      </trkpt>
      <trkpt lat="42.94022" lon="0.29653">
        <ele>1274</ele>
        <time>2022-01-14T14:17:06Z</time>
      </trkpt>
      <trkpt lat="42.94032" lon="0.29644">
        <ele>1274</ele>
        <time>2022-01-14T14:17:09Z</time>
      </trkpt>
      <trkpt lat="42.94038" lon="0.29633">
        <ele>1273</ele>
        <time>2022-01-14T14:17:11Z</time>
      </trkpt>
      <trkpt lat="42.94041" lon="0.29598">
        <ele>1266</ele>
        <time>2022-01-14T14:17:17Z</time>
      </trkpt>
      <trkpt lat="42.94045" lon="0.29583">
        <ele>1264</ele>
        <time>2022-01-14T14:17:20Z</time>
      </trkpt>
      <trkpt lat="42.9408" lon="0.29509">
        <ele>1260</ele>
        <time>2022-01-14T14:17:35Z</time>
      </trkpt>
      <trkpt lat="42.94094" lon="0.29475">
        <ele>1255</ele>
        <time>2022-01-14T14:17:42Z</time>
      </trkpt>
      <trkpt lat="42.94103" lon="0.29438">
        <ele>1248</ele>
        <time>2022-01-14T14:17:49Z</time>
      </trkpt>
      <trkpt lat="42.94119" lon="0.29405">
        <ele>1243</ele>
        <time>2022-01-14T14:17:55Z</time>
      </trkpt>
      <trkpt lat="42.94129" lon="0.29392">
        <ele>1242</ele>
        <time>2022-01-14T14:17:59Z</time>
      </trkpt>
      <trkpt lat="42.94145" lon="0.29363">
        <ele>1239</ele>
        <time>2022-01-14T14:18:05Z</time>
      </trkpt>
      <trkpt lat="42.94177" lon="0.29328">
        <ele>1235</ele>
        <time>2022-01-14T14:18:14Z</time>
      </trkpt>
      <trkpt lat="42.94194" lon="0.29304">
        <ele>1232</ele>
        <time>2022-01-14T14:18:20Z</time>
      </trkpt>
      <trkpt lat="42.94203" lon="0.29296">
        <ele>1231</ele>
        <time>2022-01-14T14:18:23Z</time>
      </trkpt>
      <trkpt lat="42.94247" lon="0.29274">
        <ele>1228</ele>
        <time>2022-01-14T14:18:33Z</time>
      </trkpt>
      <trkpt lat="42.94251" lon="0.2926">
        <ele>1226</ele>
        <time>2022-01-14T14:18:36Z</time>
      </trkpt>
      <trkpt lat="42.94249" lon="0.29252">
        <ele>1225</ele>
        <time>2022-01-14T14:18:37Z</time>
      </trkpt>
      <trkpt lat="42.94239" lon="0.29238">
        <ele>1223</ele>
        <time>2022-01-14T14:18:41Z</time>
      </trkpt>
      <trkpt lat="42.94221" lon="0.29233">
        <ele>1222</ele>
        <time>2022-01-14T14:18:45Z</time>
      </trkpt>
      <trkpt lat="42.94211" lon="0.29234">
        <ele>1221</ele>
        <time>2022-01-14T14:18:47Z</time>
      </trkpt>
      <trkpt lat="42.94139" lon="0.29258">
        <ele>1218</ele>
        <time>2022-01-14T14:19:05Z</time>
      </trkpt>
      <trkpt lat="42.94117" lon="0.29269">
        <ele>1216</ele>
        <time>2022-01-14T14:19:10Z</time>
      </trkpt>
      <trkpt lat="42.94067" lon="0.293">
        <ele>1211</ele>
        <time>2022-01-14T14:19:23Z</time>
      </trkpt>
      <trkpt lat="42.94048" lon="0.29321">
        <ele>1210</ele>
        <time>2022-01-14T14:19:29Z</time>
      </trkpt>
      <trkpt lat="42.94033" lon="0.29321">
        <ele>1206</ele>
        <time>2022-01-14T14:19:32Z</time>
      </trkpt>
      <trkpt lat="42.94041" lon="0.29298">
        <ele>1203</ele>
        <time>2022-01-14T14:19:37Z</time>
      </trkpt>
      <trkpt lat="42.94069" lon="0.29266">
        <ele>1205</ele>
        <time>2022-01-14T14:19:45Z</time>
      </trkpt>
      <trkpt lat="42.94143" lon="0.29135">
        <ele>1193</ele>
        <time>2022-01-14T14:20:13Z</time>
      </trkpt>
      <trkpt lat="42.94173" lon="0.29097">
        <ele>1189</ele>
        <time>2022-01-14T14:20:23Z</time>
      </trkpt>
      <trkpt lat="42.94193" lon="0.29074">
        <ele>1185</ele>
        <time>2022-01-14T14:20:29Z</time>
      </trkpt>
      <trkpt lat="42.94224" lon="0.29047">
        <ele>1182</ele>
        <time>2022-01-14T14:20:38Z</time>
      </trkpt>
      <trkpt lat="42.94244" lon="0.29042">
        <ele>1183</ele>
        <time>2022-01-14T14:20:42Z</time>
      </trkpt>
      <trkpt lat="42.94266" lon="0.29041">
        <ele>1179</ele>
        <time>2022-01-14T14:20:48Z</time>
      </trkpt>
      <trkpt lat="42.94274" lon="0.29032">
        <ele>1175</ele>
        <time>2022-01-14T14:20:50Z</time>
      </trkpt>
      <trkpt lat="42.9427" lon="0.29017">
        <ele>1173</ele>
        <time>2022-01-14T14:20:53Z</time>
      </trkpt>
      <trkpt lat="42.94254" lon="0.2901">
        <ele>1175</ele>
        <time>2022-01-14T14:20:57Z</time>
      </trkpt>
      <trkpt lat="42.94199" lon="0.29009">
        <ele>1171</ele>
        <time>2022-01-14T14:21:09Z</time>
      </trkpt>
      <trkpt lat="42.94157" lon="0.29004">
        <ele>1166</ele>
        <time>2022-01-14T14:21:19Z</time>
      </trkpt>
      <trkpt lat="42.94133" lon="0.29005">
        <ele>1162</ele>
        <time>2022-01-14T14:21:25Z</time>
      </trkpt>
      <trkpt lat="42.94102" lon="0.29011">
        <ele>1157</ele>
        <time>2022-01-14T14:21:32Z</time>
      </trkpt>
      <trkpt lat="42.94095" lon="0.29014">
        <ele>1156</ele>
        <time>2022-01-14T14:21:34Z</time>
      </trkpt>
      <trkpt lat="42.94085" lon="0.29025">
        <ele>1157</ele>
        <time>2022-01-14T14:21:37Z</time>
      </trkpt>
      <trkpt lat="42.94079" lon="0.29038">
        <ele>1158</ele>
        <time>2022-01-14T14:21:40Z</time>
      </trkpt>
      <trkpt lat="42.94074" lon="0.29042">
        <ele>1157</ele>
        <time>2022-01-14T14:21:41Z</time>
      </trkpt>
      <trkpt lat="42.94065" lon="0.29037">
        <ele>1152</ele>
        <time>2022-01-14T14:21:43Z</time>
      </trkpt>
      <trkpt lat="42.94062" lon="0.29021">
        <ele>1148</ele>
        <time>2022-01-14T14:21:46Z</time>
      </trkpt>
      <trkpt lat="42.94065" lon="0.2901">
        <ele>1146</ele>
        <time>2022-01-14T14:21:48Z</time>
      </trkpt>
      <trkpt lat="42.94101" lon="0.28927">
        <ele>1141</ele>
        <time>2022-01-14T14:22:05Z</time>
      </trkpt>
      <trkpt lat="42.94124" lon="0.28897">
        <ele>1138</ele>
        <time>2022-01-14T14:22:12Z</time>
      </trkpt>
      <trkpt lat="42.94154" lon="0.28875">
        <ele>1137</ele>
        <time>2022-01-14T14:22:20Z</time>
      </trkpt>
      <trkpt lat="42.942" lon="0.28852">
        <ele>1133</ele>
        <time>2022-01-14T14:22:31Z</time>
      </trkpt>
      <trkpt lat="42.94224" lon="0.28843">
        <ele>1130</ele>
        <time>2022-01-14T14:22:37Z</time>
      </trkpt>
      <trkpt lat="42.94248" lon="0.28838">
        <ele>1127</ele>
        <time>2022-01-14T14:22:43Z</time>
      </trkpt>
      <trkpt lat="42.94283" lon="0.2884">
        <ele>1126</ele>
        <time>2022-01-14T14:22:51Z</time>
      </trkpt>
      <trkpt lat="42.94348" lon="0.28858">
        <ele>1124</ele>
        <time>2022-01-14T14:23:06Z</time>
      </trkpt>
      <trkpt lat="42.94365" lon="0.2887">
        <ele>1123</ele>
        <time>2022-01-14T14:23:11Z</time>
      </trkpt>
      <trkpt lat="42.94392" lon="0.28901">
        <ele>1123</ele>
        <time>2022-01-14T14:23:19Z</time>
      </trkpt>
      <trkpt lat="42.94411" lon="0.28908">
        <ele>1120</ele>
        <time>2022-01-14T14:23:24Z</time>
      </trkpt>
      <trkpt lat="42.94423" lon="0.28895">
        <ele>1117</ele>
        <time>2022-01-14T14:23:27Z</time>
      </trkpt>
      <trkpt lat="42.94427" lon="0.28883">
        <ele>1116</ele>
        <time>2022-01-14T14:23:30Z</time>
      </trkpt>
      <trkpt lat="42.94432" lon="0.28855">
        <ele>1112</ele>
        <time>2022-01-14T14:23:35Z</time>
      </trkpt>
      <trkpt lat="42.94432" lon="0.28825">
        <ele>1109</ele>
        <time>2022-01-14T14:23:40Z</time>
      </trkpt>
      <trkpt lat="42.94424" lon="0.28781">
        <ele>1107</ele>
        <time>2022-01-14T14:23:47Z</time>
      </trkpt>
      <trkpt lat="42.94413" lon="0.28754">
        <ele>1105</ele>
        <time>2022-01-14T14:23:53Z</time>
      </trkpt>
      <trkpt lat="42.94329" lon="0.28608">
        <ele>1107</ele>
        <time>2022-01-14T14:24:24Z</time>
      </trkpt>
      <trkpt lat="42.94297" lon="0.28548">
        <ele>1107</ele>
        <time>2022-01-14T14:24:37Z</time>
      </trkpt>
      <trkpt lat="42.94287" lon="0.28523">
        <ele>1107</ele>
        <time>2022-01-14T14:24:42Z</time>
      </trkpt>
      <trkpt lat="42.94282" lon="0.28482">
        <ele>1107</ele>
        <time>2022-01-14T14:24:49Z</time>
      </trkpt>
      <trkpt lat="42.94276" lon="0.2829">
        <ele>1104</ele>
        <time>2022-01-14T14:25:22Z</time>
      </trkpt>
      <trkpt lat="42.94278" lon="0.28238">
        <ele>1103</ele>
        <time>2022-01-14T14:25:31Z</time>
      </trkpt>
      <trkpt lat="42.94288" lon="0.28201">
        <ele>1101</ele>
        <time>2022-01-14T14:25:38Z</time>
      </trkpt>
      <trkpt lat="42.94324" lon="0.2814">
        <ele>1100</ele>
        <time>2022-01-14T14:25:51Z</time>
      </trkpt>
      <trkpt lat="42.94337" lon="0.28108">
        <ele>1098</ele>
        <time>2022-01-14T14:25:57Z</time>
      </trkpt>
      <trkpt lat="42.9435" lon="0.28027">
        <ele>1096</ele>
        <time>2022-01-14T14:26:11Z</time>
      </trkpt>
      <trkpt lat="42.94362" lon="0.27983">
        <ele>1099</ele>
        <time>2022-01-14T14:26:19Z</time>
      </trkpt>
      <trkpt lat="42.94365" lon="0.2796">
        <ele>1101</ele>
        <time>2022-01-14T14:26:23Z</time>
      </trkpt>
      <trkpt lat="42.94359" lon="0.27815">
        <ele>1097</ele>
        <time>2022-01-14T14:26:48Z</time>
      </trkpt>
      <trkpt lat="42.94363" lon="0.27781">
        <ele>1097</ele>
        <time>2022-01-14T14:26:54Z</time>
      </trkpt>
      <trkpt lat="42.94369" lon="0.27759">
        <ele>1097</ele>
        <time>2022-01-14T14:26:58Z</time>
      </trkpt>
      <trkpt lat="42.94375" lon="0.27738">
        <ele>1097</ele>
        <time>2022-01-14T14:27:02Z</time>
      </trkpt>
      <trkpt lat="42.94398" lon="0.27688">
        <ele>1096</ele>
        <time>2022-01-14T14:27:12Z</time>
      </trkpt>
      <trkpt lat="42.94448" lon="0.27621">
        <ele>1098</ele>
        <time>2022-01-14T14:27:28Z</time>
      </trkpt>
      <trkpt lat="42.94465" lon="0.27585">
        <ele>1095</ele>
        <time>2022-01-14T14:27:36Z</time>
      </trkpt>
      <trkpt lat="42.94478" lon="0.275">
        <ele>1088</ele>
        <time>2022-01-14T14:27:51Z</time>
      </trkpt>
      <trkpt lat="42.94523" lon="0.27378">
        <ele>1095</ele>
        <time>2022-01-14T14:28:14Z</time>
      </trkpt>
      <trkpt lat="42.94551" lon="0.27276">
        <ele>1098</ele>
        <time>2022-01-14T14:28:33Z</time>
      </trkpt>
      <trkpt lat="42.9457" lon="0.27231">
        <ele>1096</ele>
        <time>2022-01-14T14:28:42Z</time>
      </trkpt>
      <trkpt lat="42.94593" lon="0.27203">
        <ele>1097</ele>
        <time>2022-01-14T14:28:49Z</time>
      </trkpt>
      <trkpt lat="42.94623" lon="0.27186">
        <ele>1097</ele>
        <time>2022-01-14T14:28:56Z</time>
      </trkpt>
      <trkpt lat="42.94666" lon="0.27142">
        <ele>1095</ele>
        <time>2022-01-14T14:29:09Z</time>
      </trkpt>
      <trkpt lat="42.94686" lon="0.27125">
        <ele>1097</ele>
        <time>2022-01-14T14:29:14Z</time>
      </trkpt>
      <trkpt lat="42.94738" lon="0.27092">
        <ele>1095</ele>
        <time>2022-01-14T14:29:28Z</time>
      </trkpt>
      <trkpt lat="42.94795" lon="0.27065">
        <ele>1091</ele>
        <time>2022-01-14T14:29:42Z</time>
      </trkpt>
      <trkpt lat="42.94835" lon="0.27059">
        <ele>1086</ele>
        <time>2022-01-14T14:29:51Z</time>
      </trkpt>
      <trkpt lat="42.94878" lon="0.27057">
        <ele>1081</ele>
        <time>2022-01-14T14:30:01Z</time>
      </trkpt>
      <trkpt lat="42.94903" lon="0.27042">
        <ele>1078</ele>
        <time>2022-01-14T14:30:08Z</time>
      </trkpt>
      <trkpt lat="42.94911" lon="0.27034">
        <ele>1076</ele>
        <time>2022-01-14T14:30:10Z</time>
      </trkpt>
      <trkpt lat="42.94926" lon="0.27013">
        <ele>1073</ele>
        <time>2022-01-14T14:30:15Z</time>
      </trkpt>
      <trkpt lat="42.94962" lon="0.26946">
        <ele>1072</ele>
        <time>2022-01-14T14:30:29Z</time>
      </trkpt>
      <trkpt lat="42.94982" lon="0.26903">
        <ele>1069</ele>
        <time>2022-01-14T14:30:38Z</time>
      </trkpt>
      <trkpt lat="42.94986" lon="0.26887">
        <ele>1068</ele>
        <time>2022-01-14T14:30:41Z</time>
      </trkpt>
      <trkpt lat="42.94983" lon="0.2679">
        <ele>1074</ele>
        <time>2022-01-14T14:30:57Z</time>
      </trkpt>
      <trkpt lat="42.94994" lon="0.26765">
        <ele>1071</ele>
        <time>2022-01-14T14:31:02Z</time>
      </trkpt>
      <trkpt lat="42.95004" lon="0.26757">
        <ele>1068</ele>
        <time>2022-01-14T14:31:05Z</time>
      </trkpt>
      <trkpt lat="42.95019" lon="0.26753">
        <ele>1067</ele>
        <time>2022-01-14T14:31:09Z</time>
      </trkpt>
      <trkpt lat="42.95054" lon="0.26723">
        <ele>1064</ele>
        <time>2022-01-14T14:31:18Z</time>
      </trkpt>
      <trkpt lat="42.95105" lon="0.26686">
        <ele>1058</ele>
        <time>2022-01-14T14:31:32Z</time>
      </trkpt>
      <trkpt lat="42.95127" lon="0.26666">
        <ele>1056</ele>
        <time>2022-01-14T14:31:38Z</time>
      </trkpt>
      <trkpt lat="42.95135" lon="0.26653">
        <ele>1055</ele>
        <time>2022-01-14T14:31:41Z</time>
      </trkpt>
      <trkpt lat="42.95143" lon="0.26622">
        <ele>1052</ele>
        <time>2022-01-14T14:31:46Z</time>
      </trkpt>
      <trkpt lat="42.95148" lon="0.26573">
        <ele>1047</ele>
        <time>2022-01-14T14:31:55Z</time>
      </trkpt>
      <trkpt lat="42.95146" lon="0.26522">
        <ele>1049</ele>
        <time>2022-01-14T14:32:04Z</time>
      </trkpt>
      <trkpt lat="42.95148" lon="0.26505">
        <ele>1049</ele>
        <time>2022-01-14T14:32:07Z</time>
      </trkpt>
      <trkpt lat="42.95159" lon="0.2649">
        <ele>1047</ele>
        <time>2022-01-14T14:32:10Z</time>
      </trkpt>
      <trkpt lat="42.95218" lon="0.26426">
        <ele>1041</ele>
        <time>2022-01-14T14:32:28Z</time>
      </trkpt>
      <trkpt lat="42.95227" lon="0.26412">
        <ele>1038</ele>
        <time>2022-01-14T14:32:31Z</time>
      </trkpt>
      <trkpt lat="42.95233" lon="0.26396">
        <ele>1035</ele>
        <time>2022-01-14T14:32:34Z</time>
      </trkpt>
      <trkpt lat="42.95256" lon="0.26307">
        <ele>1026</ele>
        <time>2022-01-14T14:32:50Z</time>
      </trkpt>
      <trkpt lat="42.95295" lon="0.26197">
        <ele>1021</ele>
        <time>2022-01-14T14:33:11Z</time>
      </trkpt>
      <trkpt lat="42.95325" lon="0.26131">
        <ele>1018</ele>
        <time>2022-01-14T14:33:24Z</time>
      </trkpt>
      <trkpt lat="42.95363" lon="0.26057">
        <ele>1019</ele>
        <time>2022-01-14T14:33:40Z</time>
      </trkpt>
      <trkpt lat="42.95372" lon="0.26044">
        <ele>1018</ele>
        <time>2022-01-14T14:33:43Z</time>
      </trkpt>
      <trkpt lat="42.95394" lon="0.26026">
        <ele>1015</ele>
        <time>2022-01-14T14:33:49Z</time>
      </trkpt>
      <trkpt lat="42.95431" lon="0.26007">
        <ele>1010</ele>
        <time>2022-01-14T14:33:58Z</time>
      </trkpt>
      <trkpt lat="42.95503" lon="0.25977">
        <ele>1005</ele>
        <time>2022-01-14T14:34:16Z</time>
      </trkpt>
      <trkpt lat="42.95538" lon="0.25956">
        <ele>1004</ele>
        <time>2022-01-14T14:34:25Z</time>
      </trkpt>
      <trkpt lat="42.95557" lon="0.25934">
        <ele>1002</ele>
        <time>2022-01-14T14:34:30Z</time>
      </trkpt>
      <trkpt lat="42.95578" lon="0.25893">
        <ele>1001</ele>
        <time>2022-01-14T14:34:39Z</time>
      </trkpt>
      <trkpt lat="42.95585" lon="0.2586">
        <ele>1001</ele>
        <time>2022-01-14T14:34:45Z</time>
      </trkpt>
      <trkpt lat="42.95611" lon="0.25808">
        <ele>1002</ele>
        <time>2022-01-14T14:34:56Z</time>
      </trkpt>
      <trkpt lat="42.95627" lon="0.25784">
        <ele>1002</ele>
        <time>2022-01-14T14:35:01Z</time>
      </trkpt>
      <trkpt lat="42.95645" lon="0.25764">
        <ele>1002</ele>
        <time>2022-01-14T14:35:07Z</time>
      </trkpt>
      <trkpt lat="42.95716" lon="0.25699">
        <ele>997</ele>
        <time>2022-01-14T14:35:27Z</time>
      </trkpt>
      <trkpt lat="42.95752" lon="0.25661">
        <ele>994</ele>
        <time>2022-01-14T14:35:37Z</time>
      </trkpt>
      <trkpt lat="42.95821" lon="0.25572">
        <ele>996</ele>
        <time>2022-01-14T14:35:59Z</time>
      </trkpt>
      <trkpt lat="42.95883" lon="0.25503">
        <ele>994</ele>
        <time>2022-01-14T14:36:18Z</time>
      </trkpt>
      <trkpt lat="42.95931" lon="0.25465">
        <ele>987</ele>
        <time>2022-01-14T14:36:31Z</time>
      </trkpt>
      <trkpt lat="42.95965" lon="0.25432">
        <ele>985</ele>
        <time>2022-01-14T14:36:41Z</time>
      </trkpt>
      <trkpt lat="42.95992" lon="0.25401">
        <ele>985</ele>
        <time>2022-01-14T14:36:49Z</time>
      </trkpt>
      <trkpt lat="42.96069" lon="0.2529">
        <ele>983</ele>
        <time>2022-01-14T14:37:15Z</time>
      </trkpt>
      <trkpt lat="42.96187" lon="0.25143">
        <ele>972</ele>
        <time>2022-01-14T14:37:52Z</time>
      </trkpt>
      <trkpt lat="42.96273" lon="0.24989">
        <ele>964</ele>
        <time>2022-01-14T14:38:25Z</time>
      </trkpt>
      <trkpt lat="42.96305" lon="0.24913">
        <ele>963</ele>
        <time>2022-01-14T14:38:40Z</time>
      </trkpt>
      <trkpt lat="42.96343" lon="0.24845">
        <ele>961</ele>
        <time>2022-01-14T14:38:55Z</time>
      </trkpt>
      <trkpt lat="42.96359" lon="0.24809">
        <ele>960</ele>
        <time>2022-01-14T14:39:02Z</time>
      </trkpt>
      <trkpt lat="42.96385" lon="0.24765">
        <ele>958</ele>
        <time>2022-01-14T14:39:12Z</time>
      </trkpt>
      <trkpt lat="42.96419" lon="0.24696">
        <ele>957</ele>
        <time>2022-01-14T14:39:26Z</time>
      </trkpt>
      <trkpt lat="42.96509" lon="0.24593">
        <ele>952</ele>
        <time>2022-01-14T14:39:54Z</time>
      </trkpt>
      <trkpt lat="42.96524" lon="0.24579">
        <ele>952</ele>
        <time>2022-01-14T14:39:58Z</time>
      </trkpt>
      <trkpt lat="42.96604" lon="0.24518">
        <ele>952</ele>
        <time>2022-01-14T14:40:19Z</time>
      </trkpt>
      <trkpt lat="42.96624" lon="0.24508">
        <ele>951</ele>
        <time>2022-01-14T14:40:24Z</time>
      </trkpt>
      <trkpt lat="42.96646" lon="0.24502">
        <ele>949</ele>
        <time>2022-01-14T14:40:29Z</time>
      </trkpt>
      <trkpt lat="42.96702" lon="0.24503">
        <ele>944</ele>
        <time>2022-01-14T14:40:42Z</time>
      </trkpt>
      <trkpt lat="42.96725" lon="0.245">
        <ele>943</ele>
        <time>2022-01-14T14:40:48Z</time>
      </trkpt>
      <trkpt lat="42.96769" lon="0.24489">
        <ele>942</ele>
        <time>2022-01-14T14:40:58Z</time>
      </trkpt>
      <trkpt lat="42.96791" lon="0.24481">
        <ele>941</ele>
        <time>2022-01-14T14:41:04Z</time>
      </trkpt>
      <trkpt lat="42.96894" lon="0.2443">
        <ele>943</ele>
        <time>2022-01-14T14:41:29Z</time>
      </trkpt>
      <trkpt lat="42.96915" lon="0.24423">
        <ele>944</ele>
        <time>2022-01-14T14:41:34Z</time>
      </trkpt>
      <trkpt lat="42.96947" lon="0.2442">
        <ele>942</ele>
        <time>2022-01-14T14:41:42Z</time>
      </trkpt>
      <trkpt lat="42.96995" lon="0.24423">
        <ele>938</ele>
        <time>2022-01-14T14:41:53Z</time>
      </trkpt>
      <trkpt lat="42.97023" lon="0.24413">
        <ele>936</ele>
        <time>2022-01-14T14:42:00Z</time>
      </trkpt>
      <trkpt lat="42.97049" lon="0.24408">
        <ele>933</ele>
        <time>2022-01-14T14:42:06Z</time>
      </trkpt>
      <trkpt lat="42.97094" lon="0.24405">
        <ele>928</ele>
        <time>2022-01-14T14:42:16Z</time>
      </trkpt>
      <trkpt lat="42.97163" lon="0.24395">
        <ele>924</ele>
        <time>2022-01-14T14:42:33Z</time>
      </trkpt>
      <trkpt lat="42.97263" lon="0.24356">
        <ele>922</ele>
        <time>2022-01-14T14:42:57Z</time>
      </trkpt>
      <trkpt lat="42.97387" lon="0.2432">
        <ele>917</ele>
        <time>2022-01-14T14:43:26Z</time>
      </trkpt>
      <trkpt lat="42.97411" lon="0.24315">
        <ele>917</ele>
        <time>2022-01-14T14:43:32Z</time>
      </trkpt>
      <trkpt lat="42.975" lon="0.24319">
        <ele>912</ele>
        <time>2022-01-14T14:43:53Z</time>
      </trkpt>
      <trkpt lat="42.97533" lon="0.24312">
        <ele>912</ele>
        <time>2022-01-14T14:44:01Z</time>
      </trkpt>
      <trkpt lat="42.97577" lon="0.24288">
        <ele>914</ele>
        <time>2022-01-14T14:44:12Z</time>
      </trkpt>
      <trkpt lat="42.97595" lon="0.24283">
        <ele>913</ele>
        <time>2022-01-14T14:44:16Z</time>
      </trkpt>
      <trkpt lat="42.97674" lon="0.24271">
        <ele>906</ele>
        <time>2022-01-14T14:44:35Z</time>
      </trkpt>
      <trkpt lat="42.97735" lon="0.2424">
        <ele>903</ele>
        <time>2022-01-14T14:44:50Z</time>
      </trkpt>
      <trkpt lat="42.97759" lon="0.2421">
        <ele>907</ele>
        <time>2022-01-14T14:44:57Z</time>
      </trkpt>
      <trkpt lat="42.97802" lon="0.24112">
        <ele>911</ele>
        <time>2022-01-14T14:45:17Z</time>
      </trkpt>
      <trkpt lat="42.97828" lon="0.24041">
        <ele>914</ele>
        <time>2022-01-14T14:45:31Z</time>
      </trkpt>
      <trkpt lat="42.97855" lon="0.23998">
        <ele>917</ele>
        <time>2022-01-14T14:45:40Z</time>
      </trkpt>
      <trkpt lat="42.97874" lon="0.23993">
        <ele>912</ele>
        <time>2022-01-14T14:45:45Z</time>
      </trkpt>
      <trkpt lat="42.97904" lon="0.23975">
        <ele>907</ele>
        <time>2022-01-14T14:45:52Z</time>
      </trkpt>
      <trkpt lat="42.97931" lon="0.23967">
        <ele>902</ele>
        <time>2022-01-14T14:45:59Z</time>
      </trkpt>
      <trkpt lat="42.97957" lon="0.23947">
        <ele>899</ele>
        <time>2022-01-14T14:46:06Z</time>
      </trkpt>
      <trkpt lat="42.97981" lon="0.23904">
        <ele>894</ele>
        <time>2022-01-14T14:46:15Z</time>
      </trkpt>
      <trkpt lat="42.97999" lon="0.23855">
        <ele>896</ele>
        <time>2022-01-14T14:46:24Z</time>
      </trkpt>
      <trkpt lat="42.98105" lon="0.23736">
        <ele>898</ele>
        <time>2022-01-14T14:46:56Z</time>
      </trkpt>
      <trkpt lat="42.98189" lon="0.23637">
        <ele>889</ele>
        <time>2022-01-14T14:47:22Z</time>
      </trkpt>
      <trkpt lat="42.98206" lon="0.23613">
        <ele>886</ele>
        <time>2022-01-14T14:47:28Z</time>
      </trkpt>
      <trkpt lat="42.98226" lon="0.23572">
        <ele>883</ele>
        <time>2022-01-14T14:47:36Z</time>
      </trkpt>
      <trkpt lat="42.98231" lon="0.23556">
        <ele>883</ele>
        <time>2022-01-14T14:47:39Z</time>
      </trkpt>
      <trkpt lat="42.98239" lon="0.23502">
        <ele>884</ele>
        <time>2022-01-14T14:47:49Z</time>
      </trkpt>
      <trkpt lat="42.98247" lon="0.23468">
        <ele>882</ele>
        <time>2022-01-14T14:47:55Z</time>
      </trkpt>
      <trkpt lat="42.98267" lon="0.23406">
        <ele>880</ele>
        <time>2022-01-14T14:48:07Z</time>
      </trkpt>
      <trkpt lat="42.98282" lon="0.23381">
        <ele>881</ele>
        <time>2022-01-14T14:48:12Z</time>
      </trkpt>
      <trkpt lat="42.983" lon="0.23362">
        <ele>880</ele>
        <time>2022-01-14T14:48:17Z</time>
      </trkpt>
      <trkpt lat="42.98332" lon="0.23343">
        <ele>875</ele>
        <time>2022-01-14T14:48:26Z</time>
      </trkpt>
      <trkpt lat="42.98356" lon="0.23311">
        <ele>870</ele>
        <time>2022-01-14T14:48:33Z</time>
      </trkpt>
      <trkpt lat="42.98379" lon="0.23253">
        <ele>867</ele>
        <time>2022-01-14T14:48:45Z</time>
      </trkpt>
      <trkpt lat="42.98385" lon="0.23223">
        <ele>864</ele>
        <time>2022-01-14T14:48:50Z</time>
      </trkpt>
      <trkpt lat="42.98383" lon="0.23191">
        <ele>863</ele>
        <time>2022-01-14T14:48:55Z</time>
      </trkpt>
      <trkpt lat="42.98346" lon="0.23084">
        <ele>862</ele>
        <time>2022-01-14T14:49:16Z</time>
      </trkpt>
      <trkpt lat="42.98335" lon="0.2304">
        <ele>861</ele>
        <time>2022-01-14T14:49:24Z</time>
      </trkpt>
      <trkpt lat="42.98324" lon="0.22979">
        <ele>858</ele>
        <time>2022-01-14T14:49:34Z</time>
      </trkpt>
      <trkpt lat="42.98319" lon="0.22964">
        <ele>857</ele>
        <time>2022-01-14T14:49:37Z</time>
      </trkpt>
      <trkpt lat="42.9828" lon="0.22917">
        <ele>853</ele>
        <time>2022-01-14T14:49:49Z</time>
      </trkpt>
      <trkpt lat="42.98226" lon="0.2288">
        <ele>854</ele>
        <time>2022-01-14T14:50:03Z</time>
      </trkpt>
      <trkpt lat="42.98216" lon="0.22859">
        <ele>854</ele>
        <time>2022-01-14T14:50:08Z</time>
      </trkpt>
      <trkpt lat="42.98226" lon="0.22829">
        <ele>854</ele>
        <time>2022-01-14T14:50:13Z</time>
      </trkpt>
      <trkpt lat="42.98241" lon="0.22813">
        <ele>855</ele>
        <time>2022-01-14T14:50:18Z</time>
      </trkpt>
      <trkpt lat="42.98259" lon="0.2281">
        <ele>854</ele>
        <time>2022-01-14T14:50:22Z</time>
      </trkpt>
      <trkpt lat="42.98322" lon="0.22811">
        <ele>853</ele>
        <time>2022-01-14T14:50:37Z</time>
      </trkpt>
      <trkpt lat="42.98377" lon="0.22795">
        <ele>852</ele>
        <time>2022-01-14T14:50:50Z</time>
      </trkpt>
      <trkpt lat="42.98407" lon="0.22781">
        <ele>852</ele>
        <time>2022-01-14T14:50:57Z</time>
      </trkpt>
      <trkpt lat="42.9843" lon="0.22781">
        <ele>851</ele>
        <time>2022-01-14T14:51:03Z</time>
      </trkpt>
      <trkpt lat="42.98447" lon="0.22767">
        <ele>852</ele>
        <time>2022-01-14T14:51:07Z</time>
      </trkpt>
      <trkpt lat="42.98455" lon="0.22765">
        <ele>852</ele>
        <time>2022-01-14T14:51:09Z</time>
      </trkpt>
      <trkpt lat="42.98453" lon="0.2274">
        <ele>854</ele>
        <time>2022-01-14T14:51:13Z</time>
      </trkpt>
      <trkpt lat="42.98448" lon="0.22724">
        <ele>855</ele>
        <time>2022-01-14T14:51:16Z</time>
      </trkpt>
      <trkpt lat="42.98437" lon="0.22709">
        <ele>857</ele>
        <time>2022-01-14T14:51:20Z</time>
      </trkpt>
      <trkpt lat="42.98405" lon="0.22693">
        <ele>860</ele>
        <time>2022-01-14T14:51:28Z</time>
      </trkpt>
      <trkpt lat="42.98377" lon="0.22685">
        <ele>861</ele>
        <time>2022-01-14T14:51:35Z</time>
      </trkpt>
      <trkpt lat="42.98363" lon="0.22688">
        <ele>861</ele>
        <time>2022-01-14T14:51:38Z</time>
      </trkpt>
      <trkpt lat="42.98357" lon="0.22684">
        <ele>862</ele>
        <time>2022-01-14T14:51:40Z</time>
      </trkpt>
      <trkpt lat="42.98322" lon="0.22679">
        <ele>864</ele>
        <time>2022-01-14T14:51:48Z</time>
      </trkpt>
      <trkpt lat="42.98294" lon="0.22686">
        <ele>865</ele>
        <time>2022-01-14T14:51:54Z</time>
      </trkpt>
      <trkpt lat="42.98247" lon="0.22691">
        <ele>868</ele>
        <time>2022-01-14T14:52:05Z</time>
      </trkpt>
      <trkpt lat="42.98193" lon="0.22705">
        <ele>871</ele>
        <time>2022-01-14T14:52:18Z</time>
      </trkpt>
      <trkpt lat="42.98149" lon="0.22707">
        <ele>874</ele>
        <time>2022-01-14T14:52:29Z</time>
      </trkpt>
      <trkpt lat="42.98065" lon="0.22724">
        <ele>876</ele>
        <time>2022-01-14T14:52:48Z</time>
      </trkpt>
      <trkpt lat="42.97996" lon="0.22756">
        <ele>876</ele>
        <time>2022-01-14T14:53:05Z</time>
      </trkpt>
      <trkpt lat="42.97944" lon="0.22787">
        <ele>878</ele>
        <time>2022-01-14T14:53:19Z</time>
      </trkpt>
      <trkpt lat="42.97837" lon="0.22814">
        <ele>882</ele>
        <time>2022-01-14T14:53:44Z</time>
      </trkpt>
      <trkpt lat="42.97804" lon="0.22815">
        <ele>884</ele>
        <time>2022-01-14T14:53:52Z</time>
      </trkpt>
      <trkpt lat="42.97738" lon="0.22839">
        <ele>887</ele>
        <time>2022-01-14T14:54:08Z</time>
      </trkpt>
      <trkpt lat="42.97713" lon="0.22839">
        <ele>890</ele>
        <time>2022-01-14T14:54:14Z</time>
      </trkpt>
      <trkpt lat="42.97708" lon="0.22833">
        <ele>891</ele>
        <time>2022-01-14T14:54:15Z</time>
      </trkpt>
      <trkpt lat="42.97699" lon="0.22832">
        <ele>892</ele>
        <time>2022-01-14T14:54:17Z</time>
      </trkpt>
      <trkpt lat="42.97682" lon="0.22835">
        <ele>893</ele>
        <time>2022-01-14T14:54:21Z</time>
      </trkpt>
      <trkpt lat="42.97671" lon="0.2283">
        <ele>895</ele>
        <time>2022-01-14T14:54:24Z</time>
      </trkpt>
      <trkpt lat="42.97658" lon="0.2283">
        <ele>896</ele>
        <time>2022-01-14T14:54:27Z</time>
      </trkpt>
      <trkpt lat="42.97653" lon="0.22827">
        <ele>897</ele>
        <time>2022-01-14T14:54:28Z</time>
      </trkpt>
      <trkpt lat="42.97612" lon="0.22819">
        <ele>903</ele>
        <time>2022-01-14T14:54:38Z</time>
      </trkpt>
      <trkpt lat="42.97592" lon="0.2282">
        <ele>904</ele>
        <time>2022-01-14T14:54:43Z</time>
      </trkpt>
      <trkpt lat="42.9755" lon="0.22831">
        <ele>907</ele>
        <time>2022-01-14T14:54:53Z</time>
      </trkpt>
      <trkpt lat="42.97531" lon="0.2284">
        <ele>908</ele>
        <time>2022-01-14T14:54:57Z</time>
      </trkpt>
      <trkpt lat="42.97472" lon="0.22893">
        <ele>910</ele>
        <time>2022-01-14T14:55:14Z</time>
      </trkpt>
      <trkpt lat="42.97432" lon="0.22919">
        <ele>909</ele>
        <time>2022-01-14T14:55:24Z</time>
      </trkpt>
      <trkpt lat="42.97408" lon="0.2293">
        <ele>912</ele>
        <time>2022-01-14T14:55:30Z</time>
      </trkpt>
      <trkpt lat="42.9738" lon="0.22958">
        <ele>913</ele>
        <time>2022-01-14T14:55:38Z</time>
      </trkpt>
      <trkpt lat="42.97338" lon="0.22992">
        <ele>911</ele>
        <time>2022-01-14T14:55:49Z</time>
      </trkpt>
      <trkpt lat="42.97308" lon="0.23005">
        <ele>911</ele>
        <time>2022-01-14T14:55:57Z</time>
      </trkpt>
      <trkpt lat="42.97244" lon="0.23011">
        <ele>918</ele>
        <time>2022-01-14T14:56:12Z</time>
      </trkpt>
      <trkpt lat="42.97211" lon="0.2302">
        <ele>921</ele>
        <time>2022-01-14T14:56:20Z</time>
      </trkpt>
      <trkpt lat="42.97195" lon="0.23028">
        <ele>921</ele>
        <time>2022-01-14T14:56:24Z</time>
      </trkpt>
      <trkpt lat="42.97088" lon="0.23106">
        <ele>923</ele>
        <time>2022-01-14T14:56:52Z</time>
      </trkpt>
      <trkpt lat="42.97068" lon="0.23113">
        <ele>924</ele>
        <time>2022-01-14T14:56:57Z</time>
      </trkpt>
      <trkpt lat="42.97061" lon="0.23113">
        <ele>924</ele>
        <time>2022-01-14T14:56:58Z</time>
      </trkpt>
      <trkpt lat="42.97009" lon="0.23106">
        <ele>928</ele>
        <time>2022-01-14T14:57:11Z</time>
      </trkpt>
      <trkpt lat="42.96951" lon="0.23089">
        <ele>931</ele>
        <time>2022-01-14T14:57:24Z</time>
      </trkpt>
      <trkpt lat="42.96913" lon="0.23069">
        <ele>937</ele>
        <time>2022-01-14T14:57:34Z</time>
      </trkpt>
      <trkpt lat="42.96896" lon="0.23055">
        <ele>942</ele>
        <time>2022-01-14T14:57:39Z</time>
      </trkpt>
      <trkpt lat="42.96868" lon="0.23039">
        <ele>946</ele>
        <time>2022-01-14T14:57:46Z</time>
      </trkpt>
      <trkpt lat="42.96845" lon="0.2303">
        <ele>949</ele>
        <time>2022-01-14T14:57:51Z</time>
      </trkpt>
      <trkpt lat="42.96814" lon="0.23025">
        <ele>949</ele>
        <time>2022-01-14T14:57:59Z</time>
      </trkpt>
      <trkpt lat="42.968" lon="0.23019">
        <ele>949</ele>
        <time>2022-01-14T14:58:02Z</time>
      </trkpt>
      <trkpt lat="42.96783" lon="0.23017">
        <ele>949</ele>
        <time>2022-01-14T14:58:06Z</time>
      </trkpt>
      <trkpt lat="42.96764" lon="0.23007">
        <ele>950</ele>
        <time>2022-01-14T14:58:11Z</time>
      </trkpt>
      <trkpt lat="42.9673" lon="0.23009">
        <ele>948</ele>
        <time>2022-01-14T14:58:19Z</time>
      </trkpt>
      <trkpt lat="42.9666" lon="0.23036">
        <ele>942</ele>
        <time>2022-01-14T14:58:36Z</time>
      </trkpt>
      <trkpt lat="42.96618" lon="0.23037">
        <ele>944</ele>
        <time>2022-01-14T14:58:46Z</time>
      </trkpt>
      <trkpt lat="42.96557" lon="0.23035">
        <ele>944</ele>
        <time>2022-01-14T14:59:00Z</time>
      </trkpt>
      <trkpt lat="42.96446" lon="0.23025">
        <ele>941</ele>
        <time>2022-01-14T14:59:26Z</time>
      </trkpt>
      <trkpt lat="42.9634" lon="0.23027">
        <ele>942</ele>
        <time>2022-01-14T14:59:51Z</time>
      </trkpt>
      <trkpt lat="42.96259" lon="0.23037">
        <ele>945</ele>
        <time>2022-01-14T15:00:09Z</time>
      </trkpt>
      <trkpt lat="42.96242" lon="0.23036">
        <ele>946</ele>
        <time>2022-01-14T15:00:13Z</time>
      </trkpt>
      <trkpt lat="42.96194" lon="0.23025">
        <ele>947</ele>
        <time>2022-01-14T15:00:25Z</time>
      </trkpt>
      <trkpt lat="42.96136" lon="0.23025">
        <ele>947</ele>
        <time>2022-01-14T15:00:38Z</time>
      </trkpt>
      <trkpt lat="42.96044" lon="0.23013">
        <ele>951</ele>
        <time>2022-01-14T15:01:00Z</time>
      </trkpt>
      <trkpt lat="42.9603" lon="0.23009">
        <ele>952</ele>
        <time>2022-01-14T15:01:03Z</time>
      </trkpt>
      <trkpt lat="42.95996" lon="0.22992">
        <ele>955</ele>
        <time>2022-01-14T15:01:12Z</time>
      </trkpt>
      <trkpt lat="42.95899" lon="0.22903">
        <ele>962</ele>
        <time>2022-01-14T15:01:39Z</time>
      </trkpt>
      <trkpt lat="42.95856" lon="0.22874">
        <ele>969</ele>
        <time>2022-01-14T15:01:50Z</time>
      </trkpt>
      <trkpt lat="42.95835" lon="0.22867">
        <ele>969</ele>
        <time>2022-01-14T15:01:55Z</time>
      </trkpt>
      <trkpt lat="42.95786" lon="0.22864">
        <ele>968</ele>
        <time>2022-01-14T15:02:07Z</time>
      </trkpt>
      <trkpt lat="42.95682" lon="0.22817">
        <ele>972</ele>
        <time>2022-01-14T15:02:32Z</time>
      </trkpt>
      <trkpt lat="42.95667" lon="0.22813">
        <ele>972</ele>
        <time>2022-01-14T15:02:36Z</time>
      </trkpt>
      <trkpt lat="42.9564" lon="0.22798">
        <ele>976</ele>
        <time>2022-01-14T15:02:43Z</time>
      </trkpt>
      <trkpt lat="42.95598" lon="0.22784">
        <ele>978</ele>
        <time>2022-01-14T15:02:53Z</time>
      </trkpt>
      <trkpt lat="42.95583" lon="0.22783">
        <ele>978</ele>
        <time>2022-01-14T15:02:56Z</time>
      </trkpt>
      <trkpt lat="42.95536" lon="0.22792">
        <ele>976</ele>
        <time>2022-01-14T15:03:07Z</time>
      </trkpt>
      <trkpt lat="42.95508" lon="0.22793">
        <ele>976</ele>
        <time>2022-01-14T15:03:14Z</time>
      </trkpt>
      <trkpt lat="42.95401" lon="0.2279">
        <ele>980</ele>
        <time>2022-01-14T15:03:39Z</time>
      </trkpt>
      <trkpt lat="42.95377" lon="0.22785">
        <ele>981</ele>
        <time>2022-01-14T15:03:45Z</time>
      </trkpt>
      <trkpt lat="42.9535" lon="0.22774">
        <ele>982</ele>
        <time>2022-01-14T15:03:51Z</time>
      </trkpt>
      <trkpt lat="42.95232" lon="0.22716">
        <ele>985</ele>
        <time>2022-01-14T15:04:20Z</time>
      </trkpt>
      <trkpt lat="42.9521" lon="0.227">
        <ele>986</ele>
        <time>2022-01-14T15:04:26Z</time>
      </trkpt>
      <trkpt lat="42.95116" lon="0.22621">
        <ele>991</ele>
        <time>2022-01-14T15:04:52Z</time>
      </trkpt>
      <trkpt lat="42.95004" lon="0.22562">
        <ele>1001</ele>
        <time>2022-01-14T15:05:20Z</time>
      </trkpt>
      <trkpt lat="42.94984" lon="0.22556">
        <ele>1001</ele>
        <time>2022-01-14T15:05:25Z</time>
      </trkpt>
      <trkpt lat="42.94956" lon="0.22553">
        <ele>1002</ele>
        <time>2022-01-14T15:05:31Z</time>
      </trkpt>
      <trkpt lat="42.94938" lon="0.22544">
        <ele>1003</ele>
        <time>2022-01-14T15:05:36Z</time>
      </trkpt>
      <trkpt lat="42.94921" lon="0.22519">
        <ele>1006</ele>
        <time>2022-01-14T15:05:42Z</time>
      </trkpt>
      <trkpt lat="42.94904" lon="0.22487">
        <ele>1009</ele>
        <time>2022-01-14T15:05:48Z</time>
      </trkpt>
      <trkpt lat="42.94896" lon="0.22466">
        <ele>1010</ele>
        <time>2022-01-14T15:05:53Z</time>
      </trkpt>
      <trkpt lat="42.94891" lon="0.2246">
        <ele>1010</ele>
        <time>2022-01-14T15:05:54Z</time>
      </trkpt>
      <trkpt lat="42.9487" lon="0.22448">
        <ele>1011</ele>
        <time>2022-01-14T15:05:59Z</time>
      </trkpt>
      <trkpt lat="42.94843" lon="0.22443">
        <ele>1012</ele>
        <time>2022-01-14T15:06:06Z</time>
      </trkpt>
      <trkpt lat="42.94774" lon="0.22399">
        <ele>1016</ele>
        <time>2022-01-14T15:06:24Z</time>
      </trkpt>
      <trkpt lat="42.94735" lon="0.22362">
        <ele>1018</ele>
        <time>2022-01-14T15:06:35Z</time>
      </trkpt>
      <trkpt lat="42.9472" lon="0.22344">
        <ele>1019</ele>
        <time>2022-01-14T15:06:39Z</time>
      </trkpt>
      <trkpt lat="42.94701" lon="0.22312">
        <ele>1021</ele>
        <time>2022-01-14T15:06:46Z</time>
      </trkpt>
      <trkpt lat="42.94687" lon="0.22282">
        <ele>1023</ele>
        <time>2022-01-14T15:06:52Z</time>
      </trkpt>
      <trkpt lat="42.94678" lon="0.22254">
        <ele>1025</ele>
        <time>2022-01-14T15:06:58Z</time>
      </trkpt>
      <trkpt lat="42.94667" lon="0.22202">
        <ele>1031</ele>
        <time>2022-01-14T15:07:07Z</time>
      </trkpt>
      <trkpt lat="42.94655" lon="0.22163">
        <ele>1035</ele>
        <time>2022-01-14T15:07:14Z</time>
      </trkpt>
      <trkpt lat="42.9465" lon="0.22155">
        <ele>1036</ele>
        <time>2022-01-14T15:07:16Z</time>
      </trkpt>
      <trkpt lat="42.94639" lon="0.22141">
        <ele>1038</ele>
        <time>2022-01-14T15:07:19Z</time>
      </trkpt>
      <trkpt lat="42.94622" lon="0.22133">
        <ele>1039</ele>
        <time>2022-01-14T15:07:24Z</time>
      </trkpt>
      <trkpt lat="42.94605" lon="0.22129">
        <ele>1040</ele>
        <time>2022-01-14T15:07:28Z</time>
      </trkpt>
      <trkpt lat="42.94576" lon="0.22106">
        <ele>1042</ele>
        <time>2022-01-14T15:07:36Z</time>
      </trkpt>
      <trkpt lat="42.94562" lon="0.22085">
        <ele>1044</ele>
        <time>2022-01-14T15:07:40Z</time>
      </trkpt>
      <trkpt lat="42.94543" lon="0.22046">
        <ele>1050</ele>
        <time>2022-01-14T15:07:48Z</time>
      </trkpt>
      <trkpt lat="42.94524" lon="0.22021">
        <ele>1053</ele>
        <time>2022-01-14T15:07:55Z</time>
      </trkpt>
      <trkpt lat="42.94497" lon="0.21995">
        <ele>1055</ele>
        <time>2022-01-14T15:08:02Z</time>
      </trkpt>
      <trkpt lat="42.94451" lon="0.21965">
        <ele>1057</ele>
        <time>2022-01-14T15:08:14Z</time>
      </trkpt>
      <trkpt lat="42.94357" lon="0.21849">
        <ele>1075</ele>
        <time>2022-01-14T15:08:44Z</time>
      </trkpt>
      <trkpt lat="42.94342" lon="0.21829">
        <ele>1077</ele>
        <time>2022-01-14T15:08:49Z</time>
      </trkpt>
      <trkpt lat="42.94317" lon="0.21788">
        <ele>1089</ele>
        <time>2022-01-14T15:08:58Z</time>
      </trkpt>
      <trkpt lat="42.94285" lon="0.21749">
        <ele>1091</ele>
        <time>2022-01-14T15:09:08Z</time>
      </trkpt>
      <trkpt lat="42.94264" lon="0.21715">
        <ele>1093</ele>
        <time>2022-01-14T15:09:15Z</time>
      </trkpt>
      <trkpt lat="42.94265" lon="0.21698">
        <ele>1101</ele>
        <time>2022-01-14T15:09:18Z</time>
      </trkpt>
      <trkpt lat="42.94252" lon="0.21674">
        <ele>1104</ele>
        <time>2022-01-14T15:09:23Z</time>
      </trkpt>
      <trkpt lat="42.94194" lon="0.21623">
        <ele>1097</ele>
        <time>2022-01-14T15:09:39Z</time>
      </trkpt>
      <trkpt lat="42.94175" lon="0.21588">
        <ele>1103</ele>
        <time>2022-01-14T15:09:47Z</time>
      </trkpt>
      <trkpt lat="42.94158" lon="0.21534">
        <ele>1115</ele>
        <time>2022-01-14T15:09:57Z</time>
      </trkpt>
      <trkpt lat="42.94151" lon="0.21522">
        <ele>1116</ele>
        <time>2022-01-14T15:10:00Z</time>
      </trkpt>
      <trkpt lat="42.94142" lon="0.21494">
        <ele>1121</ele>
        <time>2022-01-14T15:10:05Z</time>
      </trkpt>
      <trkpt lat="42.94121" lon="0.21474">
        <ele>1117</ele>
        <time>2022-01-14T15:10:11Z</time>
      </trkpt>
      <trkpt lat="42.94109" lon="0.21452">
        <ele>1118</ele>
        <time>2022-01-14T15:10:16Z</time>
      </trkpt>
      <trkpt lat="42.94049" lon="0.21374">
        <ele>1126</ele>
        <time>2022-01-14T15:10:35Z</time>
      </trkpt>
      <trkpt lat="42.94023" lon="0.21352">
        <ele>1128</ele>
        <time>2022-01-14T15:10:42Z</time>
      </trkpt>
      <trkpt lat="42.9401" lon="0.21344">
        <ele>1128</ele>
        <time>2022-01-14T15:10:45Z</time>
      </trkpt>
      <trkpt lat="42.93976" lon="0.21332">
        <ele>1124</ele>
        <time>2022-01-14T15:10:54Z</time>
      </trkpt>
      <trkpt lat="42.93946" lon="0.21299">
        <ele>1131</ele>
        <time>2022-01-14T15:11:03Z</time>
      </trkpt>
      <trkpt lat="42.9393" lon="0.21276">
        <ele>1135</ele>
        <time>2022-01-14T15:11:08Z</time>
      </trkpt>
      <trkpt lat="42.9391" lon="0.21254">
        <ele>1136</ele>
        <time>2022-01-14T15:11:14Z</time>
      </trkpt>
      <trkpt lat="42.93882" lon="0.2119">
        <ele>1147</ele>
        <time>2022-01-14T15:11:27Z</time>
      </trkpt>
      <trkpt lat="42.93867" lon="0.21177">
        <ele>1144</ele>
        <time>2022-01-14T15:11:31Z</time>
      </trkpt>
      <trkpt lat="42.93852" lon="0.21158">
        <ele>1144</ele>
        <time>2022-01-14T15:11:36Z</time>
      </trkpt>
      <trkpt lat="42.93825" lon="0.21145">
        <ele>1137</ele>
        <time>2022-01-14T15:11:42Z</time>
      </trkpt>
      <trkpt lat="42.93817" lon="0.21138">
        <ele>1137</ele>
        <time>2022-01-14T15:11:45Z</time>
      </trkpt>
      <trkpt lat="42.93814" lon="0.21111">
        <ele>1147</ele>
        <time>2022-01-14T15:11:49Z</time>
      </trkpt>
      <trkpt lat="42.93811" lon="0.21103">
        <ele>1149</ele>
        <time>2022-01-14T15:11:51Z</time>
      </trkpt>
      <trkpt lat="42.93803" lon="0.21092">
        <ele>1150</ele>
        <time>2022-01-14T15:11:53Z</time>
      </trkpt>
      <trkpt lat="42.93764" lon="0.21054">
        <ele>1152</ele>
        <time>2022-01-14T15:12:05Z</time>
      </trkpt>
      <trkpt lat="42.93745" lon="0.21018">
        <ele>1161</ele>
        <time>2022-01-14T15:12:12Z</time>
      </trkpt>
      <trkpt lat="42.93727" lon="0.20975">
        <ele>1172</ele>
        <time>2022-01-14T15:12:21Z</time>
      </trkpt>
      <trkpt lat="42.93711" lon="0.20959">
        <ele>1171</ele>
        <time>2022-01-14T15:12:25Z</time>
      </trkpt>
      <trkpt lat="42.93666" lon="0.20928">
        <ele>1162</ele>
        <time>2022-01-14T15:12:37Z</time>
      </trkpt>
      <trkpt lat="42.93658" lon="0.20917">
        <ele>1164</ele>
        <time>2022-01-14T15:12:40Z</time>
      </trkpt>
      <trkpt lat="42.93654" lon="0.20907">
        <ele>1169</ele>
        <time>2022-01-14T15:12:42Z</time>
      </trkpt>
      <trkpt lat="42.93653" lon="0.20882">
        <ele>1182</ele>
        <time>2022-01-14T15:12:46Z</time>
      </trkpt>
      <trkpt lat="42.93649" lon="0.20859">
        <ele>1193</ele>
        <time>2022-01-14T15:12:50Z</time>
      </trkpt>
      <trkpt lat="42.93647" lon="0.20857">
        <ele>1193</ele>
        <time>2022-01-14T15:12:51Z</time>
      </trkpt>
      <trkpt lat="42.93639" lon="0.20857">
        <ele>1192</ele>
        <time>2022-01-14T15:12:52Z</time>
      </trkpt>
      <trkpt lat="42.93622" lon="0.2087">
        <ele>1181</ele>
        <time>2022-01-14T15:12:57Z</time>
      </trkpt>
      <trkpt lat="42.93616" lon="0.20882">
        <ele>1174</ele>
        <time>2022-01-14T15:12:59Z</time>
      </trkpt>
      <trkpt lat="42.93612" lon="0.20885">
        <ele>1172</ele>
        <time>2022-01-14T15:13:00Z</time>
      </trkpt>
      <trkpt lat="42.93605" lon="0.20883">
        <ele>1171</ele>
        <time>2022-01-14T15:13:02Z</time>
      </trkpt>
      <trkpt lat="42.93587" lon="0.2087">
        <ele>1173</ele>
        <time>2022-01-14T15:13:07Z</time>
      </trkpt>
      <trkpt lat="42.93564" lon="0.20841">
        <ele>1181</ele>
        <time>2022-01-14T15:13:14Z</time>
      </trkpt>
      <trkpt lat="42.93525" lon="0.20826">
        <ele>1176</ele>
        <time>2022-01-14T15:13:24Z</time>
      </trkpt>
      <trkpt lat="42.93507" lon="0.20813">
        <ele>1176</ele>
        <time>2022-01-14T15:13:28Z</time>
      </trkpt>
      <trkpt lat="42.935" lon="0.20802">
        <ele>1178</ele>
        <time>2022-01-14T15:13:31Z</time>
      </trkpt>
      <trkpt lat="42.93488" lon="0.20769">
        <ele>1185</ele>
        <time>2022-01-14T15:13:37Z</time>
      </trkpt>
      <trkpt lat="42.93476" lon="0.20744">
        <ele>1189</ele>
        <time>2022-01-14T15:13:42Z</time>
      </trkpt>
      <trkpt lat="42.93416" lon="0.20674">
        <ele>1191</ele>
        <time>2022-01-14T15:14:01Z</time>
      </trkpt>
      <trkpt lat="42.93404" lon="0.20655">
        <ele>1195</ele>
        <time>2022-01-14T15:14:05Z</time>
      </trkpt>
      <trkpt lat="42.93389" lon="0.20618">
        <ele>1202</ele>
        <time>2022-01-14T15:14:12Z</time>
      </trkpt>
      <trkpt lat="42.93363" lon="0.20582">
        <ele>1205</ele>
        <time>2022-01-14T15:14:21Z</time>
      </trkpt>
      <trkpt lat="42.93327" lon="0.20552">
        <ele>1205</ele>
        <time>2022-01-14T15:14:31Z</time>
      </trkpt>
      <trkpt lat="42.93259" lon="0.20474">
        <ele>1216</ele>
        <time>2022-01-14T15:14:52Z</time>
      </trkpt>
      <trkpt lat="42.93244" lon="0.20462">
        <ele>1218</ele>
        <time>2022-01-14T15:14:56Z</time>
      </trkpt>
      <trkpt lat="42.93155" lon="0.20407">
        <ele>1223</ele>
        <time>2022-01-14T15:15:18Z</time>
      </trkpt>
      <trkpt lat="42.9312" lon="0.20381">
        <ele>1225</ele>
        <time>2022-01-14T15:15:28Z</time>
      </trkpt>
      <trkpt lat="42.93092" lon="0.20349">
        <ele>1229</ele>
        <time>2022-01-14T15:15:36Z</time>
      </trkpt>
      <trkpt lat="42.93048" lon="0.2027">
        <ele>1239</ele>
        <time>2022-01-14T15:15:53Z</time>
      </trkpt>
      <trkpt lat="42.93021" lon="0.20234">
        <ele>1242</ele>
        <time>2022-01-14T15:16:02Z</time>
      </trkpt>
      <trkpt lat="42.93009" lon="0.20225">
        <ele>1242</ele>
        <time>2022-01-14T15:16:05Z</time>
      </trkpt>
      <trkpt lat="42.92991" lon="0.20217">
        <ele>1242</ele>
        <time>2022-01-14T15:16:10Z</time>
      </trkpt>
      <trkpt lat="42.92967" lon="0.20194">
        <ele>1247</ele>
        <time>2022-01-14T15:16:16Z</time>
      </trkpt>
      <trkpt lat="42.92914" lon="0.20158">
        <ele>1249</ele>
        <time>2022-01-14T15:16:30Z</time>
      </trkpt>
      <trkpt lat="42.92881" lon="0.20127">
        <ele>1254</ele>
        <time>2022-01-14T15:16:40Z</time>
      </trkpt>
      <trkpt lat="42.92806" lon="0.20023">
        <ele>1270</ele>
        <time>2022-01-14T15:17:05Z</time>
      </trkpt>
      <trkpt lat="42.92769" lon="0.1998">
        <ele>1271</ele>
        <time>2022-01-14T15:17:16Z</time>
      </trkpt>
      <trkpt lat="42.92741" lon="0.19936">
        <ele>1277</ele>
        <time>2022-01-14T15:17:26Z</time>
      </trkpt>
      <trkpt lat="42.92722" lon="0.19914">
        <ele>1279</ele>
        <time>2022-01-14T15:17:32Z</time>
      </trkpt>
      <trkpt lat="42.92714" lon="0.19896">
        <ele>1282</ele>
        <time>2022-01-14T15:17:35Z</time>
      </trkpt>
      <trkpt lat="42.92708" lon="0.19867">
        <ele>1287</ele>
        <time>2022-01-14T15:17:41Z</time>
      </trkpt>
      <trkpt lat="42.92697" lon="0.19842">
        <ele>1290</ele>
        <time>2022-01-14T15:17:45Z</time>
      </trkpt>
      <trkpt lat="42.92666" lon="0.19812">
        <ele>1286</ele>
        <time>2022-01-14T15:17:54Z</time>
      </trkpt>
      <trkpt lat="42.92647" lon="0.19787">
        <ele>1292</ele>
        <time>2022-01-14T15:18:01Z</time>
      </trkpt>
      <trkpt lat="42.92636" lon="0.19768">
        <ele>1295</ele>
        <time>2022-01-14T15:18:05Z</time>
      </trkpt>
      <trkpt lat="42.92627" lon="0.19737">
        <ele>1303</ele>
        <time>2022-01-14T15:18:10Z</time>
      </trkpt>
      <trkpt lat="42.92612" lon="0.19724">
        <ele>1306</ele>
        <time>2022-01-14T15:18:15Z</time>
      </trkpt>
      <trkpt lat="42.92599" lon="0.19717">
        <ele>1307</ele>
        <time>2022-01-14T15:18:18Z</time>
      </trkpt>
      <trkpt lat="42.92592" lon="0.19716">
        <ele>1308</ele>
        <time>2022-01-14T15:18:19Z</time>
      </trkpt>
      <trkpt lat="42.92581" lon="0.19719">
        <ele>1307</ele>
        <time>2022-01-14T15:18:22Z</time>
      </trkpt>
      <trkpt lat="42.92564" lon="0.19738">
        <ele>1307</ele>
        <time>2022-01-14T15:18:27Z</time>
      </trkpt>
      <trkpt lat="42.92541" lon="0.19758">
        <ele>1308</ele>
        <time>2022-01-14T15:18:34Z</time>
      </trkpt>
      <trkpt lat="42.92507" lon="0.19767">
        <ele>1317</ele>
        <time>2022-01-14T15:18:42Z</time>
      </trkpt>
      <trkpt lat="42.92485" lon="0.19769">
        <ele>1326</ele>
        <time>2022-01-14T15:18:47Z</time>
      </trkpt>
      <trkpt lat="42.92465" lon="0.19787">
        <ele>1335</ele>
        <time>2022-01-14T15:18:52Z</time>
      </trkpt>
      <trkpt lat="42.92465" lon="0.19803">
        <ele>1335</ele>
        <time>2022-01-14T15:18:55Z</time>
      </trkpt>
      <trkpt lat="42.92476" lon="0.19829">
        <ele>1326</ele>
        <time>2022-01-14T15:19:00Z</time>
      </trkpt>
      <trkpt lat="42.92475" lon="0.19851">
        <ele>1327</ele>
        <time>2022-01-14T15:19:04Z</time>
      </trkpt>
      <trkpt lat="42.92477" lon="0.19859">
        <ele>1326</ele>
        <time>2022-01-14T15:19:05Z</time>
      </trkpt>
      <trkpt lat="42.92494" lon="0.19891">
        <ele>1314</ele>
        <time>2022-01-14T15:19:12Z</time>
      </trkpt>
      <trkpt lat="42.92499" lon="0.19921">
        <ele>1311</ele>
        <time>2022-01-14T15:19:17Z</time>
      </trkpt>
      <trkpt lat="42.92502" lon="0.19971">
        <ele>1313</ele>
        <time>2022-01-14T15:19:26Z</time>
      </trkpt>
      <trkpt lat="42.92495" lon="0.20002">
        <ele>1320</ele>
        <time>2022-01-14T15:19:32Z</time>
      </trkpt>
      <trkpt lat="42.92491" lon="0.20008">
        <ele>1323</ele>
        <time>2022-01-14T15:19:33Z</time>
      </trkpt>
      <trkpt lat="42.92488" lon="0.2002">
        <ele>1325</ele>
        <time>2022-01-14T15:19:35Z</time>
      </trkpt>
      <trkpt lat="42.92489" lon="0.20039">
        <ele>1324</ele>
        <time>2022-01-14T15:19:38Z</time>
      </trkpt>
      <trkpt lat="42.92497" lon="0.2006">
        <ele>1318</ele>
        <time>2022-01-14T15:19:42Z</time>
      </trkpt>
      <trkpt lat="42.92491" lon="0.20076">
        <ele>1322</ele>
        <time>2022-01-14T15:19:46Z</time>
      </trkpt>
      <trkpt lat="42.92471" lon="0.20105">
        <ele>1337</ele>
        <time>2022-01-14T15:19:52Z</time>
      </trkpt>
      <trkpt lat="42.92437" lon="0.20167">
        <ele>1355</ele>
        <time>2022-01-14T15:20:06Z</time>
      </trkpt>
      <trkpt lat="42.92436" lon="0.20197">
        <ele>1354</ele>
        <time>2022-01-14T15:20:11Z</time>
      </trkpt>
      <trkpt lat="42.9244" lon="0.20242">
        <ele>1350</ele>
        <time>2022-01-14T15:20:18Z</time>
      </trkpt>
      <trkpt lat="42.92436" lon="0.20263">
        <ele>1352</ele>
        <time>2022-01-14T15:20:22Z</time>
      </trkpt>
      <trkpt lat="42.92428" lon="0.20283">
        <ele>1355</ele>
        <time>2022-01-14T15:20:26Z</time>
      </trkpt>
      <trkpt lat="42.92421" lon="0.2031">
        <ele>1356</ele>
        <time>2022-01-14T15:20:31Z</time>
      </trkpt>
      <trkpt lat="42.92367" lon="0.20399">
        <ele>1369</ele>
        <time>2022-01-14T15:20:51Z</time>
      </trkpt>
      <trkpt lat="42.92362" lon="0.2043">
        <ele>1366</ele>
        <time>2022-01-14T15:20:56Z</time>
      </trkpt>
      <trkpt lat="42.92355" lon="0.20449">
        <ele>1366</ele>
        <time>2022-01-14T15:21:00Z</time>
      </trkpt>
      <trkpt lat="42.92336" lon="0.20483">
        <ele>1369</ele>
        <time>2022-01-14T15:21:07Z</time>
      </trkpt>
      <trkpt lat="42.92325" lon="0.20496">
        <ele>1371</ele>
        <time>2022-01-14T15:21:11Z</time>
      </trkpt>
      <trkpt lat="42.92309" lon="0.20523">
        <ele>1372</ele>
        <time>2022-01-14T15:21:16Z</time>
      </trkpt>
      <trkpt lat="42.92297" lon="0.20537">
        <ele>1373</ele>
        <time>2022-01-14T15:21:20Z</time>
      </trkpt>
      <trkpt lat="42.92285" lon="0.20561">
        <ele>1370</ele>
        <time>2022-01-14T15:21:25Z</time>
      </trkpt>
      <trkpt lat="42.92275" lon="0.20572">
        <ele>1370</ele>
        <time>2022-01-14T15:21:28Z</time>
      </trkpt>
      <trkpt lat="42.92262" lon="0.20581">
        <ele>1371</ele>
        <time>2022-01-14T15:21:32Z</time>
      </trkpt>
      <trkpt lat="42.92217" lon="0.206">
        <ele>1384</ele>
        <time>2022-01-14T15:21:43Z</time>
      </trkpt>
      <trkpt lat="42.92208" lon="0.20608">
        <ele>1385</ele>
        <time>2022-01-14T15:21:45Z</time>
      </trkpt>
      <trkpt lat="42.92178" lon="0.20646">
        <ele>1382</ele>
        <time>2022-01-14T15:21:55Z</time>
      </trkpt>
      <trkpt lat="42.92162" lon="0.20658">
        <ele>1383</ele>
        <time>2022-01-14T15:21:59Z</time>
      </trkpt>
      <trkpt lat="42.92092" lon="0.20695">
        <ele>1395</ele>
        <time>2022-01-14T15:22:16Z</time>
      </trkpt>
      <trkpt lat="42.92066" lon="0.20704">
        <ele>1402</ele>
        <time>2022-01-14T15:22:23Z</time>
      </trkpt>
      <trkpt lat="42.92051" lon="0.20712">
        <ele>1404</ele>
        <time>2022-01-14T15:22:26Z</time>
      </trkpt>
      <trkpt lat="42.9203" lon="0.2073">
        <ele>1404</ele>
        <time>2022-01-14T15:22:32Z</time>
      </trkpt>
      <trkpt lat="42.92014" lon="0.2074">
        <ele>1406</ele>
        <time>2022-01-14T15:22:36Z</time>
      </trkpt>
      <trkpt lat="42.9199" lon="0.20766">
        <ele>1405</ele>
        <time>2022-01-14T15:22:43Z</time>
      </trkpt>
      <trkpt lat="42.91975" lon="0.20775">
        <ele>1409</ele>
        <time>2022-01-14T15:22:47Z</time>
      </trkpt>
      <trkpt lat="42.91966" lon="0.20785">
        <ele>1409</ele>
        <time>2022-01-14T15:22:50Z</time>
      </trkpt>
      <trkpt lat="42.91947" lon="0.20792">
        <ele>1414</ele>
        <time>2022-01-14T15:22:55Z</time>
      </trkpt>
      <trkpt lat="42.91927" lon="0.20805">
        <ele>1417</ele>
        <time>2022-01-14T15:23:00Z</time>
      </trkpt>
      <trkpt lat="42.91913" lon="0.2082">
        <ele>1416</ele>
        <time>2022-01-14T15:23:04Z</time>
      </trkpt>
      <trkpt lat="42.91899" lon="0.20829">
        <ele>1417</ele>
        <time>2022-01-14T15:23:08Z</time>
      </trkpt>
      <trkpt lat="42.91879" lon="0.20849">
        <ele>1416</ele>
        <time>2022-01-14T15:23:13Z</time>
      </trkpt>
      <trkpt lat="42.91865" lon="0.20851">
        <ele>1419</ele>
        <time>2022-01-14T15:23:17Z</time>
      </trkpt>
      <trkpt lat="42.9185" lon="0.20848">
        <ele>1425</ele>
        <time>2022-01-14T15:23:20Z</time>
      </trkpt>
      <trkpt lat="42.91831" lon="0.20856">
        <ele>1427</ele>
        <time>2022-01-14T15:23:25Z</time>
      </trkpt>
      <trkpt lat="42.91793" lon="0.20884">
        <ele>1427</ele>
        <time>2022-01-14T15:23:35Z</time>
      </trkpt>
      <trkpt lat="42.91771" lon="0.20897">
        <ele>1428</ele>
        <time>2022-01-14T15:23:40Z</time>
      </trkpt>
      <trkpt lat="42.9176" lon="0.20914">
        <ele>1424</ele>
        <time>2022-01-14T15:23:44Z</time>
      </trkpt>
      <trkpt lat="42.91712" lon="0.20957">
        <ele>1423</ele>
        <time>2022-01-14T15:23:58Z</time>
      </trkpt>
      <trkpt lat="42.91707" lon="0.20958">
        <ele>1423</ele>
        <time>2022-01-14T15:23:59Z</time>
      </trkpt>
      <trkpt lat="42.91701" lon="0.2095">
        <ele>1426</ele>
        <time>2022-01-14T15:24:01Z</time>
      </trkpt>
      <trkpt lat="42.91701" lon="0.20927">
        <ele>1430</ele>
        <time>2022-01-14T15:24:05Z</time>
      </trkpt>
      <trkpt lat="42.91707" lon="0.20917">
        <ele>1431</ele>
        <time>2022-01-14T15:24:07Z</time>
      </trkpt>
      <trkpt lat="42.91774" lon="0.20857">
        <ele>1444</ele>
        <time>2022-01-14T15:24:26Z</time>
      </trkpt>
      <trkpt lat="42.91799" lon="0.20845">
        <ele>1441</ele>
        <time>2022-01-14T15:24:32Z</time>
      </trkpt>
      <trkpt lat="42.91812" lon="0.20827">
        <ele>1445</ele>
        <time>2022-01-14T15:24:36Z</time>
      </trkpt>
      <trkpt lat="42.91832" lon="0.20812">
        <ele>1446</ele>
        <time>2022-01-14T15:24:42Z</time>
      </trkpt>
      <trkpt lat="42.91849" lon="0.20791">
        <ele>1450</ele>
        <time>2022-01-14T15:24:47Z</time>
      </trkpt>
      <trkpt lat="42.91865" lon="0.20777">
        <ele>1451</ele>
        <time>2022-01-14T15:24:51Z</time>
      </trkpt>
      <trkpt lat="42.91879" lon="0.20752">
        <ele>1457</ele>
        <time>2022-01-14T15:24:57Z</time>
      </trkpt>
      <trkpt lat="42.91902" lon="0.20721">
        <ele>1461</ele>
        <time>2022-01-14T15:25:04Z</time>
      </trkpt>
      <trkpt lat="42.91949" lon="0.20676">
        <ele>1461</ele>
        <time>2022-01-14T15:25:18Z</time>
      </trkpt>
      <trkpt lat="42.9196" lon="0.20661">
        <ele>1463</ele>
        <time>2022-01-14T15:25:21Z</time>
      </trkpt>
      <trkpt lat="42.91974" lon="0.2062">
        <ele>1473</ele>
        <time>2022-01-14T15:25:29Z</time>
      </trkpt>
      <trkpt lat="42.91984" lon="0.20603">
        <ele>1476</ele>
        <time>2022-01-14T15:25:33Z</time>
      </trkpt>
      <trkpt lat="42.91999" lon="0.2059">
        <ele>1475</ele>
        <time>2022-01-14T15:25:37Z</time>
      </trkpt>
      <trkpt lat="42.92014" lon="0.20572">
        <ele>1476</ele>
        <time>2022-01-14T15:25:42Z</time>
      </trkpt>
      <trkpt lat="42.92035" lon="0.20566">
        <ele>1471</ele>
        <time>2022-01-14T15:25:47Z</time>
      </trkpt>
      <trkpt lat="42.92048" lon="0.20557">
        <ele>1470</ele>
        <time>2022-01-14T15:25:50Z</time>
      </trkpt>
      <trkpt lat="42.92106" lon="0.20477">
        <ele>1480</ele>
        <time>2022-01-14T15:26:09Z</time>
      </trkpt>
      <trkpt lat="42.92127" lon="0.20437">
        <ele>1485</ele>
        <time>2022-01-14T15:26:18Z</time>
      </trkpt>
      <trkpt lat="42.9213" lon="0.20435">
        <ele>1485</ele>
        <time>2022-01-14T15:26:18Z</time>
      </trkpt>
      <trkpt lat="42.9214" lon="0.20408">
        <ele>1489</ele>
        <time>2022-01-14T15:26:24Z</time>
      </trkpt>
      <trkpt lat="42.92156" lon="0.20386">
        <ele>1488</ele>
        <time>2022-01-14T15:26:29Z</time>
      </trkpt>
      <trkpt lat="42.92166" lon="0.20367">
        <ele>1489</ele>
        <time>2022-01-14T15:26:33Z</time>
      </trkpt>
      <trkpt lat="42.92181" lon="0.20321">
        <ele>1495</ele>
        <time>2022-01-14T15:26:42Z</time>
      </trkpt>
      <trkpt lat="42.92186" lon="0.20296">
        <ele>1500</ele>
        <time>2022-01-14T15:26:46Z</time>
      </trkpt>
      <trkpt lat="42.92204" lon="0.20245">
        <ele>1503</ele>
        <time>2022-01-14T15:26:56Z</time>
      </trkpt>
      <trkpt lat="42.92208" lon="0.20217">
        <ele>1510</ele>
        <time>2022-01-14T15:27:01Z</time>
      </trkpt>
      <trkpt lat="42.9223" lon="0.20169">
        <ele>1508</ele>
        <time>2022-01-14T15:27:10Z</time>
      </trkpt>
      <trkpt lat="42.92238" lon="0.20144">
        <ele>1508</ele>
        <time>2022-01-14T15:27:15Z</time>
      </trkpt>
      <trkpt lat="42.9225" lon="0.20083">
        <ele>1514</ele>
        <time>2022-01-14T15:27:26Z</time>
      </trkpt>
      <trkpt lat="42.92249" lon="0.20067">
        <ele>1514</ele>
        <time>2022-01-14T15:27:28Z</time>
      </trkpt>
      <trkpt lat="42.92237" lon="0.20023">
        <ele>1520</ele>
        <time>2022-01-14T15:27:37Z</time>
      </trkpt>
      <trkpt lat="42.92212" lon="0.19967">
        <ele>1531</ele>
        <time>2022-01-14T15:27:48Z</time>
      </trkpt>
      <trkpt lat="42.92198" lon="0.19916">
        <ele>1530</ele>
        <time>2022-01-14T15:27:57Z</time>
      </trkpt>
      <trkpt lat="42.92188" lon="0.19891">
        <ele>1531</ele>
        <time>2022-01-14T15:28:02Z</time>
      </trkpt>
      <trkpt lat="42.9215" lon="0.19825">
        <ele>1542</ele>
        <time>2022-01-14T15:28:16Z</time>
      </trkpt>
      <trkpt lat="42.92144" lon="0.19807">
        <ele>1542</ele>
        <time>2022-01-14T15:28:20Z</time>
      </trkpt>
      <trkpt lat="42.92129" lon="0.19784">
        <ele>1546</ele>
        <time>2022-01-14T15:28:25Z</time>
      </trkpt>
      <trkpt lat="42.92115" lon="0.19753">
        <ele>1546</ele>
        <time>2022-01-14T15:28:31Z</time>
      </trkpt>
      <trkpt lat="42.921" lon="0.19727">
        <ele>1550</ele>
        <time>2022-01-14T15:28:37Z</time>
      </trkpt>
      <trkpt lat="42.9205" lon="0.1961">
        <ele>1555</ele>
        <time>2022-01-14T15:29:00Z</time>
      </trkpt>
      <trkpt lat="42.92023" lon="0.1956">
        <ele>1562</ele>
        <time>2022-01-14T15:29:11Z</time>
      </trkpt>
      <trkpt lat="42.92018" lon="0.19545">
        <ele>1562</ele>
        <time>2022-01-14T15:29:13Z</time>
      </trkpt>
      <trkpt lat="42.92003" lon="0.19517">
        <ele>1565</ele>
        <time>2022-01-14T15:29:19Z</time>
      </trkpt>
      <trkpt lat="42.91981" lon="0.19463">
        <ele>1575</ele>
        <time>2022-01-14T15:29:30Z</time>
      </trkpt>
      <trkpt lat="42.91957" lon="0.1939">
        <ele>1587</ele>
        <time>2022-01-14T15:29:44Z</time>
      </trkpt>
      <trkpt lat="42.91949" lon="0.19365">
        <ele>1592</ele>
        <time>2022-01-14T15:29:48Z</time>
      </trkpt>
      <trkpt lat="42.91946" lon="0.19347">
        <ele>1593</ele>
        <time>2022-01-14T15:29:51Z</time>
      </trkpt>
      <trkpt lat="42.9195" lon="0.19334">
        <ele>1591</ele>
        <time>2022-01-14T15:29:54Z</time>
      </trkpt>
      <trkpt lat="42.91966" lon="0.1931">
        <ele>1585</ele>
        <time>2022-01-14T15:29:59Z</time>
      </trkpt>
      <trkpt lat="42.91975" lon="0.19271">
        <ele>1585</ele>
        <time>2022-01-14T15:30:06Z</time>
      </trkpt>
      <trkpt lat="42.91975" lon="0.19255">
        <ele>1587</ele>
        <time>2022-01-14T15:30:09Z</time>
      </trkpt>
      <trkpt lat="42.91972" lon="0.19221">
        <ele>1590</ele>
        <time>2022-01-14T15:30:15Z</time>
      </trkpt>
      <trkpt lat="42.91958" lon="0.19155">
        <ele>1595</ele>
        <time>2022-01-14T15:30:27Z</time>
      </trkpt>
      <trkpt lat="42.91952" lon="0.19139">
        <ele>1595</ele>
        <time>2022-01-14T15:30:30Z</time>
      </trkpt>
      <trkpt lat="42.91933" lon="0.19103">
        <ele>1596</ele>
        <time>2022-01-14T15:30:37Z</time>
      </trkpt>
      <trkpt lat="42.91921" lon="0.19087">
        <ele>1597</ele>
        <time>2022-01-14T15:30:41Z</time>
      </trkpt>
      <trkpt lat="42.91909" lon="0.19078">
        <ele>1598</ele>
        <time>2022-01-14T15:30:44Z</time>
      </trkpt>
      <trkpt lat="42.91815" lon="0.18989">
        <ele>1612</ele>
        <time>2022-01-14T15:31:11Z</time>
      </trkpt>
      <trkpt lat="42.91786" lon="0.18955">
        <ele>1618</ele>
        <time>2022-01-14T15:31:20Z</time>
      </trkpt>
      <trkpt lat="42.91766" lon="0.18925">
        <ele>1618</ele>
        <time>2022-01-14T15:31:27Z</time>
      </trkpt>
      <trkpt lat="42.91751" lon="0.18907">
        <ele>1618</ele>
        <time>2022-01-14T15:31:32Z</time>
      </trkpt>
      <trkpt lat="42.9173" lon="0.18886">
        <ele>1621</ele>
        <time>2022-01-14T15:31:38Z</time>
      </trkpt>
      <trkpt lat="42.91702" lon="0.18865">
        <ele>1625</ele>
        <time>2022-01-14T15:31:45Z</time>
      </trkpt>
      <trkpt lat="42.91689" lon="0.18849">
        <ele>1624</ele>
        <time>2022-01-14T15:31:49Z</time>
      </trkpt>
      <trkpt lat="42.91653" lon="0.18813">
        <ele>1627</ele>
        <time>2022-01-14T15:32:00Z</time>
      </trkpt>
      <trkpt lat="42.91634" lon="0.18797">
        <ele>1631</ele>
        <time>2022-01-14T15:32:05Z</time>
      </trkpt>
      <trkpt lat="42.91621" lon="0.18775">
        <ele>1631</ele>
        <time>2022-01-14T15:32:10Z</time>
      </trkpt>
      <trkpt lat="42.91618" lon="0.18756">
        <ele>1628</ele>
        <time>2022-01-14T15:32:13Z</time>
      </trkpt>
      <trkpt lat="42.91611" lon="0.18744">
        <ele>1628</ele>
        <time>2022-01-14T15:32:16Z</time>
      </trkpt>
      <trkpt lat="42.91595" lon="0.18724">
        <ele>1629</ele>
        <time>2022-01-14T15:32:21Z</time>
      </trkpt>
      <trkpt lat="42.91581" lon="0.18711">
        <ele>1632</ele>
        <time>2022-01-14T15:32:25Z</time>
      </trkpt>
      <trkpt lat="42.91569" lon="0.18705">
        <ele>1635</ele>
        <time>2022-01-14T15:32:28Z</time>
      </trkpt>
      <trkpt lat="42.9156" lon="0.18704">
        <ele>1638</ele>
        <time>2022-01-14T15:32:30Z</time>
      </trkpt>
      <trkpt lat="42.9153" lon="0.18716">
        <ele>1649</ele>
        <time>2022-01-14T15:32:37Z</time>
      </trkpt>
      <trkpt lat="42.91511" lon="0.18718">
        <ele>1656</ele>
        <time>2022-01-14T15:32:42Z</time>
      </trkpt>
      <trkpt lat="42.91509" lon="0.18711">
        <ele>1655</ele>
        <time>2022-01-14T15:32:43Z</time>
      </trkpt>
      <trkpt lat="42.91501" lon="0.18701">
        <ele>1655</ele>
        <time>2022-01-14T15:32:45Z</time>
      </trkpt>
      <trkpt lat="42.91491" lon="0.18693">
        <ele>1655</ele>
        <time>2022-01-14T15:32:48Z</time>
      </trkpt>
      <trkpt lat="42.91472" lon="0.18687">
        <ele>1657</ele>
        <time>2022-01-14T15:32:53Z</time>
      </trkpt>
      <trkpt lat="42.91447" lon="0.18674">
        <ele>1657</ele>
        <time>2022-01-14T15:32:59Z</time>
      </trkpt>
      <trkpt lat="42.91419" lon="0.18653">
        <ele>1656</ele>
        <time>2022-01-14T15:33:06Z</time>
      </trkpt>
      <trkpt lat="42.91365" lon="0.18662">
        <ele>1678</ele>
        <time>2022-01-14T15:33:19Z</time>
      </trkpt>
      <trkpt lat="42.91367" lon="0.1866">
        <ele>1677</ele>
        <time>2022-01-14T15:33:20Z</time>
      </trkpt>
      <trkpt lat="42.91385" lon="0.18661">
        <ele>1670</ele>
        <time>2022-01-14T15:33:24Z</time>
      </trkpt>
      <trkpt lat="42.91385" lon="0.18656">
        <ele>1669</ele>
        <time>2022-01-14T15:33:25Z</time>
      </trkpt>
      <trkpt lat="42.91336" lon="0.18587">
        <ele>1675</ele>
        <time>2022-01-14T15:33:41Z</time>
      </trkpt>
      <trkpt lat="42.91325" lon="0.18552">
        <ele>1673</ele>
        <time>2022-01-14T15:33:48Z</time>
      </trkpt>
      <trkpt lat="42.91314" lon="0.18531">
        <ele>1674</ele>
        <time>2022-01-14T15:33:52Z</time>
      </trkpt>
      <trkpt lat="42.9129" lon="0.18471">
        <ele>1675</ele>
        <time>2022-01-14T15:34:04Z</time>
      </trkpt>
      <trkpt lat="42.91273" lon="0.18448">
        <ele>1678</ele>
        <time>2022-01-14T15:34:09Z</time>
      </trkpt>
      <trkpt lat="42.91247" lon="0.18427">
        <ele>1684</ele>
        <time>2022-01-14T15:34:16Z</time>
      </trkpt>
      <trkpt lat="42.91232" lon="0.18419">
        <ele>1687</ele>
        <time>2022-01-14T15:34:20Z</time>
      </trkpt>
      <trkpt lat="42.91196" lon="0.18413">
        <ele>1696</ele>
        <time>2022-01-14T15:34:29Z</time>
      </trkpt>
      <trkpt lat="42.91177" lon="0.18405">
        <ele>1700</ele>
        <time>2022-01-14T15:34:33Z</time>
      </trkpt>
      <trkpt lat="42.91137" lon="0.1836">
        <ele>1707</ele>
        <time>2022-01-14T15:34:45Z</time>
      </trkpt>
      <trkpt lat="42.91127" lon="0.18342">
        <ele>1708</ele>
        <time>2022-01-14T15:34:49Z</time>
      </trkpt>
      <trkpt lat="42.91109" lon="0.18288">
        <ele>1710</ele>
        <time>2022-01-14T15:34:59Z</time>
      </trkpt>
      <trkpt lat="42.91103" lon="0.18258">
        <ele>1710</ele>
        <time>2022-01-14T15:35:05Z</time>
      </trkpt>
      <trkpt lat="42.91091" lon="0.18228">
        <ele>1716</ele>
        <time>2022-01-14T15:35:11Z</time>
      </trkpt>
      <trkpt lat="42.91072" lon="0.18203">
        <ele>1724</ele>
        <time>2022-01-14T15:35:17Z</time>
      </trkpt>
      <trkpt lat="42.91049" lon="0.18159">
        <ele>1731</ele>
        <time>2022-01-14T15:35:26Z</time>
      </trkpt>
      <trkpt lat="42.91029" lon="0.18081">
        <ele>1740</ele>
        <time>2022-01-14T15:35:40Z</time>
      </trkpt>
      <trkpt lat="42.91016" lon="0.18044">
        <ele>1740</ele>
        <time>2022-01-14T15:35:47Z</time>
      </trkpt>
      <trkpt lat="42.9101" lon="0.17979">
        <ele>1743</ele>
        <time>2022-01-14T15:35:58Z</time>
      </trkpt>
      <trkpt lat="42.91011" lon="0.17946">
        <ele>1745</ele>
        <time>2022-01-14T15:36:04Z</time>
      </trkpt>
      <trkpt lat="42.91018" lon="0.17928">
        <ele>1747</ele>
        <time>2022-01-14T15:36:08Z</time>
      </trkpt>
      <trkpt lat="42.91038" lon="0.17911">
        <ele>1750</ele>
        <time>2022-01-14T15:36:13Z</time>
      </trkpt>
      <trkpt lat="42.9106" lon="0.17904">
        <ele>1753</ele>
        <time>2022-01-14T15:36:18Z</time>
      </trkpt>
      <trkpt lat="42.91081" lon="0.17894">
        <ele>1755</ele>
        <time>2022-01-14T15:36:24Z</time>
      </trkpt>
      <trkpt lat="42.91093" lon="0.17886">
        <ele>1756</ele>
        <time>2022-01-14T15:36:27Z</time>
      </trkpt>
      <trkpt lat="42.91101" lon="0.17877">
        <ele>1757</ele>
        <time>2022-01-14T15:36:29Z</time>
      </trkpt>
      <trkpt lat="42.91111" lon="0.1786">
        <ele>1759</ele>
        <time>2022-01-14T15:36:33Z</time>
      </trkpt>
      <trkpt lat="42.91116" lon="0.17834">
        <ele>1760</ele>
        <time>2022-01-14T15:36:37Z</time>
      </trkpt>
      <trkpt lat="42.91116" lon="0.17814">
        <ele>1763</ele>
        <time>2022-01-14T15:36:41Z</time>
      </trkpt>
      <trkpt lat="42.91112" lon="0.17792">
        <ele>1765</ele>
        <time>2022-01-14T15:36:45Z</time>
      </trkpt>
      <trkpt lat="42.91108" lon="0.17723">
        <ele>1774</ele>
        <time>2022-01-14T15:36:57Z</time>
      </trkpt>
      <trkpt lat="42.91104" lon="0.17707">
        <ele>1776</ele>
        <time>2022-01-14T15:36:59Z</time>
      </trkpt>
      <trkpt lat="42.91082" lon="0.17676">
        <ele>1771</ele>
        <time>2022-01-14T15:37:07Z</time>
      </trkpt>
      <trkpt lat="42.91065" lon="0.17643">
        <ele>1772</ele>
        <time>2022-01-14T15:37:14Z</time>
      </trkpt>
      <trkpt lat="42.91055" lon="0.1758">
        <ele>1776</ele>
        <time>2022-01-14T15:37:25Z</time>
      </trkpt>
      <trkpt lat="42.91054" lon="0.17551">
        <ele>1778</ele>
        <time>2022-01-14T15:37:30Z</time>
      </trkpt>
      <trkpt lat="42.91058" lon="0.17516">
        <ele>1783</ele>
        <time>2022-01-14T15:37:36Z</time>
      </trkpt>
      <trkpt lat="42.91057" lon="0.17424">
        <ele>1793</ele>
        <time>2022-01-14T15:37:51Z</time>
      </trkpt>
      <trkpt lat="42.91049" lon="0.17386">
        <ele>1794</ele>
        <time>2022-01-14T15:37:58Z</time>
      </trkpt>
      <trkpt lat="42.91035" lon="0.17349">
        <ele>1793</ele>
        <time>2022-01-14T15:38:05Z</time>
      </trkpt>
      <trkpt lat="42.91028" lon="0.17293">
        <ele>1795</ele>
        <time>2022-01-14T15:38:15Z</time>
      </trkpt>
      <trkpt lat="42.91031" lon="0.17248">
        <ele>1800</ele>
        <time>2022-01-14T15:38:23Z</time>
      </trkpt>
      <trkpt lat="42.91038" lon="0.17219">
        <ele>1804</ele>
        <time>2022-01-14T15:38:28Z</time>
      </trkpt>
      <trkpt lat="42.91039" lon="0.17202">
        <ele>1805</ele>
        <time>2022-01-14T15:38:31Z</time>
      </trkpt>
      <trkpt lat="42.91032" lon="0.17102">
        <ele>1810</ele>
        <time>2022-01-14T15:38:48Z</time>
      </trkpt>
      <trkpt lat="42.91033" lon="0.17075">
        <ele>1813</ele>
        <time>2022-01-14T15:38:53Z</time>
      </trkpt>
      <trkpt lat="42.91027" lon="0.17026">
        <ele>1817</ele>
        <time>2022-01-14T15:39:01Z</time>
      </trkpt>
      <trkpt lat="42.91024" lon="0.16939">
        <ele>1825</ele>
        <time>2022-01-14T15:39:16Z</time>
      </trkpt>
      <trkpt lat="42.91022" lon="0.16929">
        <ele>1825</ele>
        <time>2022-01-14T15:39:18Z</time>
      </trkpt>
      <trkpt lat="42.91" lon="0.16878">
        <ele>1826</ele>
        <time>2022-01-14T15:39:28Z</time>
      </trkpt>
      <trkpt lat="42.90991" lon="0.16851">
        <ele>1830</ele>
        <time>2022-01-14T15:39:33Z</time>
      </trkpt>
      <trkpt lat="42.90985" lon="0.16818">
        <ele>1835</ele>
        <time>2022-01-14T15:39:39Z</time>
      </trkpt>
      <trkpt lat="42.90979" lon="0.16804">
        <ele>1836</ele>
        <time>2022-01-14T15:39:42Z</time>
      </trkpt>
      <trkpt lat="42.90963" lon="0.1678">
        <ele>1836</ele>
        <time>2022-01-14T15:39:47Z</time>
      </trkpt>
      <trkpt lat="42.90952" lon="0.16753">
        <ele>1837</ele>
        <time>2022-01-14T15:39:53Z</time>
      </trkpt>
      <trkpt lat="42.90946" lon="0.16731">
        <ele>1837</ele>
        <time>2022-01-14T15:39:57Z</time>
      </trkpt>
      <trkpt lat="42.90943" lon="0.16605">
        <ele>1843</ele>
        <time>2022-01-14T15:40:18Z</time>
      </trkpt>
      <trkpt lat="42.90951" lon="0.16558">
        <ele>1848</ele>
        <time>2022-01-14T15:40:26Z</time>
      </trkpt>
      <trkpt lat="42.9096" lon="0.16524">
        <ele>1853</ele>
        <time>2022-01-14T15:40:33Z</time>
      </trkpt>
      <trkpt lat="42.90959" lon="0.16491">
        <ele>1854</ele>
        <time>2022-01-14T15:40:38Z</time>
      </trkpt>
      <trkpt lat="42.90966" lon="0.16449">
        <ele>1860</ele>
        <time>2022-01-14T15:40:46Z</time>
      </trkpt>
      <trkpt lat="42.90966" lon="0.16429">
        <ele>1861</ele>
        <time>2022-01-14T15:40:49Z</time>
      </trkpt>
      <trkpt lat="42.90955" lon="0.16381">
        <ele>1862</ele>
        <time>2022-01-14T15:40:58Z</time>
      </trkpt>
      <trkpt lat="42.90944" lon="0.16307">
        <ele>1868</ele>
        <time>2022-01-14T15:41:11Z</time>
      </trkpt>
      <trkpt lat="42.90933" lon="0.16276">
        <ele>1869</ele>
        <time>2022-01-14T15:41:16Z</time>
      </trkpt>
      <trkpt lat="42.90907" lon="0.16222">
        <ele>1869</ele>
        <time>2022-01-14T15:41:27Z</time>
      </trkpt>
      <trkpt lat="42.909" lon="0.16191">
        <ele>1873</ele>
        <time>2022-01-14T15:41:33Z</time>
      </trkpt>
      <trkpt lat="42.90885" lon="0.16148">
        <ele>1876</ele>
        <time>2022-01-14T15:41:41Z</time>
      </trkpt>
      <trkpt lat="42.90872" lon="0.16093">
        <ele>1882</ele>
        <time>2022-01-14T15:41:51Z</time>
      </trkpt>
      <trkpt lat="42.90862" lon="0.16033">
        <ele>1886</ele>
        <time>2022-01-14T15:42:02Z</time>
      </trkpt>
      <trkpt lat="42.90858" lon="0.15989">
        <ele>1891</ele>
        <time>2022-01-14T15:42:09Z</time>
      </trkpt>
      <trkpt lat="42.90848" lon="0.15949">
        <ele>1897</ele>
        <time>2022-01-14T15:42:16Z</time>
      </trkpt>
      <trkpt lat="42.90825" lon="0.15903">
        <ele>1900</ele>
        <time>2022-01-14T15:42:26Z</time>
      </trkpt>
      <trkpt lat="42.90796" lon="0.15867">
        <ele>1901</ele>
        <time>2022-01-14T15:42:35Z</time>
      </trkpt>
      <trkpt lat="42.90768" lon="0.15819">
        <ele>1906</ele>
        <time>2022-01-14T15:42:46Z</time>
      </trkpt>
      <trkpt lat="42.9075" lon="0.15796">
        <ele>1907</ele>
        <time>2022-01-14T15:42:51Z</time>
      </trkpt>
      <trkpt lat="42.90741" lon="0.1578">
        <ele>1908</ele>
        <time>2022-01-14T15:42:55Z</time>
      </trkpt>
      <trkpt lat="42.90728" lon="0.15738">
        <ele>1913</ele>
        <time>2022-01-14T15:43:03Z</time>
      </trkpt>
      <trkpt lat="42.90703" lon="0.15697">
        <ele>1914</ele>
        <time>2022-01-14T15:43:12Z</time>
      </trkpt>
      <trkpt lat="42.90691" lon="0.15667">
        <ele>1916</ele>
        <time>2022-01-14T15:43:18Z</time>
      </trkpt>
      <trkpt lat="42.9067" lon="0.15597">
        <ele>1923</ele>
        <time>2022-01-14T15:43:30Z</time>
      </trkpt>
      <trkpt lat="42.90665" lon="0.15552">
        <ele>1929</ele>
        <time>2022-01-14T15:43:38Z</time>
      </trkpt>
      <trkpt lat="42.90656" lon="0.15522">
        <ele>1931</ele>
        <time>2022-01-14T15:43:44Z</time>
      </trkpt>
      <trkpt lat="42.90653" lon="0.15491">
        <ele>1934</ele>
        <time>2022-01-14T15:43:49Z</time>
      </trkpt>
      <trkpt lat="42.90652" lon="0.15462">
        <ele>1935</ele>
        <time>2022-01-14T15:43:54Z</time>
      </trkpt>
      <trkpt lat="42.90655" lon="0.15415">
        <ele>1937</ele>
        <time>2022-01-14T15:44:02Z</time>
      </trkpt>
      <trkpt lat="42.90659" lon="0.15399">
        <ele>1939</ele>
        <time>2022-01-14T15:44:05Z</time>
      </trkpt>
      <trkpt lat="42.90666" lon="0.1539">
        <ele>1941</ele>
        <time>2022-01-14T15:44:07Z</time>
      </trkpt>
      <trkpt lat="42.9067" lon="0.15389">
        <ele>1942</ele>
        <time>2022-01-14T15:44:08Z</time>
      </trkpt>
      <trkpt lat="42.90674" lon="0.15391">
        <ele>1944</ele>
        <time>2022-01-14T15:44:09Z</time>
      </trkpt>
      <trkpt lat="42.90678" lon="0.15399">
        <ele>1945</ele>
        <time>2022-01-14T15:44:11Z</time>
      </trkpt>
      <trkpt lat="42.9068" lon="0.15416">
        <ele>1944</ele>
        <time>2022-01-14T15:44:14Z</time>
      </trkpt>
      <trkpt lat="42.90675" lon="0.15455">
        <ele>1941</ele>
        <time>2022-01-14T15:44:21Z</time>
      </trkpt>
      <trkpt lat="42.90678" lon="0.15482">
        <ele>1941</ele>
        <time>2022-01-14T15:44:25Z</time>
      </trkpt>
      <trkpt lat="42.90686" lon="0.155">
        <ele>1942</ele>
        <time>2022-01-14T15:44:29Z</time>
      </trkpt>
      <trkpt lat="42.90704" lon="0.15518">
        <ele>1945</ele>
        <time>2022-01-14T15:44:34Z</time>
      </trkpt>
      <trkpt lat="42.90734" lon="0.15555">
        <ele>1950</ele>
        <time>2022-01-14T15:44:44Z</time>
      </trkpt>
      <trkpt lat="42.9077" lon="0.15577">
        <ele>1958</ele>
        <time>2022-01-14T15:44:53Z</time>
      </trkpt>
      <trkpt lat="42.90796" lon="0.15613">
        <ele>1958</ele>
        <time>2022-01-14T15:45:01Z</time>
      </trkpt>
      <trkpt lat="42.9081" lon="0.15627">
        <ele>1959</ele>
        <time>2022-01-14T15:45:05Z</time>
      </trkpt>
      <trkpt lat="42.90824" lon="0.15626">
        <ele>1963</ele>
        <time>2022-01-14T15:45:09Z</time>
      </trkpt>
      <trkpt lat="42.90839" lon="0.15621">
        <ele>1966</ele>
        <time>2022-01-14T15:45:12Z</time>
      </trkpt>
      <trkpt lat="42.90858" lon="0.15634">
        <ele>1966</ele>
        <time>2022-01-14T15:45:17Z</time>
      </trkpt>
      <trkpt lat="42.90868" lon="0.15638">
        <ele>1967</ele>
        <time>2022-01-14T15:45:20Z</time>
      </trkpt>
      <trkpt lat="42.90883" lon="0.15641">
        <ele>1969</ele>
        <time>2022-01-14T15:45:23Z</time>
      </trkpt>
      <trkpt lat="42.90899" lon="0.1564">
        <ele>1971</ele>
        <time>2022-01-14T15:45:27Z</time>
      </trkpt>
      <trkpt lat="42.90907" lon="0.15636">
        <ele>1972</ele>
        <time>2022-01-14T15:45:29Z</time>
      </trkpt>
      <trkpt lat="42.90931" lon="0.15612">
        <ele>1978</ele>
        <time>2022-01-14T15:45:36Z</time>
      </trkpt>
      <trkpt lat="42.90945" lon="0.15605">
        <ele>1981</ele>
        <time>2022-01-14T15:45:39Z</time>
      </trkpt>
      <trkpt lat="42.90967" lon="0.15601">
        <ele>1984</ele>
        <time>2022-01-14T15:45:45Z</time>
      </trkpt>
      <trkpt lat="42.90972" lon="0.15603">
        <ele>1985</ele>
        <time>2022-01-14T15:45:46Z</time>
      </trkpt>
      <trkpt lat="42.9099" lon="0.15625">
        <ele>1984</ele>
        <time>2022-01-14T15:45:51Z</time>
      </trkpt>
      <trkpt lat="42.90999" lon="0.15631">
        <ele>1985</ele>
        <time>2022-01-14T15:45:54Z</time>
      </trkpt>
      <trkpt lat="42.91012" lon="0.15625">
        <ele>1989</ele>
        <time>2022-01-14T15:45:57Z</time>
      </trkpt>
      <trkpt lat="42.91018" lon="0.15607">
        <ele>1994</ele>
        <time>2022-01-14T15:46:00Z</time>
      </trkpt>
      <trkpt lat="42.91016" lon="0.15587">
        <ele>1995</ele>
        <time>2022-01-14T15:46:04Z</time>
      </trkpt>
      <trkpt lat="42.90998" lon="0.15559">
        <ele>1997</ele>
        <time>2022-01-14T15:46:10Z</time>
      </trkpt>
      <trkpt lat="42.90984" lon="0.15547">
        <ele>1998</ele>
        <time>2022-01-14T15:46:14Z</time>
      </trkpt>
      <trkpt lat="42.90968" lon="0.15538">
        <ele>1997</ele>
        <time>2022-01-14T15:46:18Z</time>
      </trkpt>
      <trkpt lat="42.90957" lon="0.15526">
        <ele>1999</ele>
        <time>2022-01-14T15:46:21Z</time>
      </trkpt>
      <trkpt lat="42.90917" lon="0.15465">
        <ele>2005</ele>
        <time>2022-01-14T15:46:35Z</time>
      </trkpt>
      <trkpt lat="42.90908" lon="0.1546">
        <ele>2004</ele>
        <time>2022-01-14T15:46:38Z</time>
      </trkpt>
      <trkpt lat="42.9088" lon="0.15455">
        <ele>2001</ele>
        <time>2022-01-14T15:46:44Z</time>
      </trkpt>
      <trkpt lat="42.90875" lon="0.15451">
        <ele>2001</ele>
        <time>2022-01-14T15:46:46Z</time>
      </trkpt>
      <trkpt lat="42.90846" lon="0.15375">
        <ele>2006</ele>
        <time>2022-01-14T15:47:00Z</time>
      </trkpt>
      <trkpt lat="42.90844" lon="0.15363">
        <ele>2008</ele>
        <time>2022-01-14T15:47:02Z</time>
      </trkpt>
      <trkpt lat="42.90845" lon="0.15331">
        <ele>2011</ele>
        <time>2022-01-14T15:47:08Z</time>
      </trkpt>
      <trkpt lat="42.9088" lon="0.15242">
        <ele>2019</ele>
        <time>2022-01-14T15:47:25Z</time>
      </trkpt>
      <trkpt lat="42.90889" lon="0.15183">
        <ele>2025</ele>
        <time>2022-01-14T15:47:35Z</time>
      </trkpt>
      <trkpt lat="42.90905" lon="0.15119">
        <ele>2034</ele>
        <time>2022-01-14T15:47:47Z</time>
      </trkpt>
      <trkpt lat="42.90898" lon="0.15082">
        <ele>2035</ele>
        <time>2022-01-14T15:47:54Z</time>
      </trkpt>
      <trkpt lat="42.90887" lon="0.15051">
        <ele>2036</ele>
        <time>2022-01-14T15:47:59Z</time>
      </trkpt>
      <trkpt lat="42.90866" lon="0.1501">
        <ele>2036</ele>
        <time>2022-01-14T15:48:08Z</time>
      </trkpt>
      <trkpt lat="42.9086" lon="0.14989">
        <ele>2038</ele>
        <time>2022-01-14T15:48:12Z</time>
      </trkpt>
      <trkpt lat="42.90859" lon="0.14968">
        <ele>2041</ele>
        <time>2022-01-14T15:48:15Z</time>
      </trkpt>
      <trkpt lat="42.90871" lon="0.14905">
        <ele>2056</ele>
        <time>2022-01-14T15:48:27Z</time>
      </trkpt>
      <trkpt lat="42.90866" lon="0.14891">
        <ele>2059</ele>
        <time>2022-01-14T15:48:29Z</time>
      </trkpt>
      <trkpt lat="42.9086" lon="0.14887">
        <ele>2059</ele>
        <time>2022-01-14T15:48:31Z</time>
      </trkpt>
      <trkpt lat="42.90853" lon="0.14886">
        <ele>2058</ele>
        <time>2022-01-14T15:48:32Z</time>
      </trkpt>
      <trkpt lat="42.90812" lon="0.1489">
        <ele>2055</ele>
        <time>2022-01-14T15:48:42Z</time>
      </trkpt>
      <trkpt lat="42.90802" lon="0.14887">
        <ele>2055</ele>
        <time>2022-01-14T15:48:44Z</time>
      </trkpt>
      <trkpt lat="42.90768" lon="0.14869">
        <ele>2060</ele>
        <time>2022-01-14T15:48:53Z</time>
      </trkpt>
      <trkpt lat="42.9074" lon="0.14872">
        <ele>2059</ele>
        <time>2022-01-14T15:49:00Z</time>
      </trkpt>
      <trkpt lat="42.90731" lon="0.1487">
        <ele>2059</ele>
        <time>2022-01-14T15:49:02Z</time>
      </trkpt>
      <trkpt lat="42.90673" lon="0.14822">
        <ele>2072</ele>
        <time>2022-01-14T15:49:18Z</time>
      </trkpt>
      <trkpt lat="42.90658" lon="0.14816">
        <ele>2075</ele>
        <time>2022-01-14T15:49:21Z</time>
      </trkpt>
      <trkpt lat="42.90638" lon="0.14816">
        <ele>2077</ele>
        <time>2022-01-14T15:49:26Z</time>
      </trkpt>
      <trkpt lat="42.90608" lon="0.1483">
        <ele>2077</ele>
        <time>2022-01-14T15:49:33Z</time>
      </trkpt>
      <trkpt lat="42.90605" lon="0.1483">
        <ele>2077</ele>
        <time>2022-01-14T15:49:34Z</time>
      </trkpt>
      <trkpt lat="42.90601" lon="0.14824">
        <ele>2079</ele>
        <time>2022-01-14T15:49:35Z</time>
      </trkpt>
      <trkpt lat="42.90601" lon="0.14814">
        <ele>2082</ele>
        <time>2022-01-14T15:49:37Z</time>
      </trkpt>
      <trkpt lat="42.90616" lon="0.14799">
        <ele>2084</ele>
        <time>2022-01-14T15:49:41Z</time>
      </trkpt>
      <trkpt lat="42.90627" lon="0.14793">
        <ele>2084</ele>
        <time>2022-01-14T15:49:44Z</time>
      </trkpt>
      <trkpt lat="42.90729" lon="0.14765">
        <ele>2087</ele>
        <time>2022-01-14T15:50:08Z</time>
      </trkpt>
      <trkpt lat="42.90746" lon="0.14755">
        <ele>2089</ele>
        <time>2022-01-14T15:50:13Z</time>
      </trkpt>
      <trkpt lat="42.90754" lon="0.14743">
        <ele>2092</ele>
        <time>2022-01-14T15:50:16Z</time>
      </trkpt>
      <trkpt lat="42.90777" lon="0.14719">
        <ele>2096</ele>
        <time>2022-01-14T15:50:22Z</time>
      </trkpt>
      <trkpt lat="42.90808" lon="0.14671">
        <ele>2103</ele>
        <time>2022-01-14T15:50:33Z</time>
      </trkpt>
      <trkpt lat="42.90855" lon="0.14613">
        <ele>2112</ele>
        <time>2022-01-14T15:50:48Z</time>
      </trkpt>
      <trkpt lat="42.90863" lon="0.14595">
        <ele>2117</ele>
        <time>2022-01-14T15:50:52Z</time>
      </trkpt>
      <trkpt lat="42.90863" lon="0.14576">
        <ele>2121</ele>
        <time>2022-01-14T15:50:55Z</time>
      </trkpt>
      <trkpt lat="42.90844" lon="0.14536">
        <ele>2119</ele>
        <time>2022-01-14T15:51:03Z</time>
      </trkpt>
      <trkpt lat="42.90823" lon="0.14506">
        <ele>2115</ele>
        <time>2022-01-14T15:51:10Z</time>
      </trkpt>
      <trkpt lat="42.9081" lon="0.14507">
        <ele>2113</ele>
        <time>2022-01-14T15:51:13Z</time>
      </trkpt>
      <trkpt lat="42.90788" lon="0.14516">
        <ele>2111</ele>
        <time>2022-01-14T15:51:19Z</time>
      </trkpt>
      <trkpt lat="42.90768" lon="0.14516">
        <ele>2108</ele>
        <time>2022-01-14T15:51:23Z</time>
      </trkpt>
      <trkpt lat="42.90745" lon="0.1451">
        <ele>2103</ele>
        <time>2022-01-14T15:51:29Z</time>
      </trkpt>
      <trkpt lat="42.90719" lon="0.14512">
        <ele>2097</ele>
        <time>2022-01-14T15:51:35Z</time>
      </trkpt>
      <trkpt lat="42.90696" lon="0.14518">
        <ele>2093</ele>
        <time>2022-01-14T15:51:40Z</time>
      </trkpt>
      <trkpt lat="42.90682" lon="0.14526">
        <ele>2092</ele>
        <time>2022-01-14T15:51:44Z</time>
      </trkpt>
      <trkpt lat="42.90666" lon="0.14553">
        <ele>2097</ele>
        <time>2022-01-14T15:51:50Z</time>
      </trkpt>
      <trkpt lat="42.90651" lon="0.14572">
        <ele>2097</ele>
        <time>2022-01-14T15:51:55Z</time>
      </trkpt>
      <trkpt lat="42.90624" lon="0.14592">
        <ele>2091</ele>
        <time>2022-01-14T15:52:02Z</time>
      </trkpt>
      <trkpt lat="42.90602" lon="0.14612">
        <ele>2087</ele>
        <time>2022-01-14T15:52:08Z</time>
      </trkpt>
      <trkpt lat="42.90568" lon="0.14653">
        <ele>2091</ele>
        <time>2022-01-14T15:52:18Z</time>
      </trkpt>
      <trkpt lat="42.90545" lon="0.14666">
        <ele>2090</ele>
        <time>2022-01-14T15:52:24Z</time>
      </trkpt>
      <trkpt lat="42.90531" lon="0.14671">
        <ele>2088</ele>
        <time>2022-01-14T15:52:28Z</time>
      </trkpt>
      <trkpt lat="42.90521" lon="0.14673">
        <ele>2087</ele>
        <time>2022-01-14T15:52:30Z</time>
      </trkpt>
      <trkpt lat="42.90518" lon="0.14664">
        <ele>2083</ele>
        <time>2022-01-14T15:52:32Z</time>
      </trkpt>
      <trkpt lat="42.90526" lon="0.14654">
        <ele>2081</ele>
        <time>2022-01-14T15:52:34Z</time>
      </trkpt>
      <trkpt lat="42.90534" lon="0.14649">
        <ele>2081</ele>
        <time>2022-01-14T15:52:36Z</time>
      </trkpt>
      <trkpt lat="42.90556" lon="0.14641">
        <ele>2084</ele>
        <time>2022-01-14T15:52:42Z</time>
      </trkpt>
      <trkpt lat="42.90573" lon="0.14619">
        <ele>2080</ele>
        <time>2022-01-14T15:52:47Z</time>
      </trkpt>
      <trkpt lat="42.90595" lon="0.14575">
        <ele>2074</ele>
        <time>2022-01-14T15:52:56Z</time>
      </trkpt>
      <trkpt lat="42.90613" lon="0.14509">
        <ele>2061</ele>
        <time>2022-01-14T15:53:08Z</time>
      </trkpt>
      <trkpt lat="42.90631" lon="0.14466">
        <ele>2052</ele>
        <time>2022-01-14T15:53:17Z</time>
      </trkpt>
      <trkpt lat="42.90654" lon="0.14443">
        <ele>2050</ele>
        <time>2022-01-14T15:53:23Z</time>
      </trkpt>
      <trkpt lat="42.90682" lon="0.14429">
        <ele>2052</ele>
        <time>2022-01-14T15:53:30Z</time>
      </trkpt>
      <trkpt lat="42.90715" lon="0.14405">
        <ele>2053</ele>
        <time>2022-01-14T15:53:39Z</time>
      </trkpt>
      <trkpt lat="42.90732" lon="0.1439">
        <ele>2054</ele>
        <time>2022-01-14T15:53:44Z</time>
      </trkpt>
      <trkpt lat="42.90746" lon="0.14373">
        <ele>2055</ele>
        <time>2022-01-14T15:53:48Z</time>
      </trkpt>
      <trkpt lat="42.90751" lon="0.14349">
        <ele>2052</ele>
        <time>2022-01-14T15:53:52Z</time>
      </trkpt>
      <trkpt lat="42.90747" lon="0.1432">
        <ele>2046</ele>
        <time>2022-01-14T15:53:57Z</time>
      </trkpt>
      <trkpt lat="42.90739" lon="0.14291">
        <ele>2040</ele>
        <time>2022-01-14T15:54:03Z</time>
      </trkpt>
      <trkpt lat="42.9072" lon="0.14242">
        <ele>2025</ele>
        <time>2022-01-14T15:54:12Z</time>
      </trkpt>
      <trkpt lat="42.90718" lon="0.1423">
        <ele>2022</ele>
        <time>2022-01-14T15:54:14Z</time>
      </trkpt>
      <trkpt lat="42.90721" lon="0.14204">
        <ele>2020</ele>
        <time>2022-01-14T15:54:19Z</time>
      </trkpt>
      <trkpt lat="42.90751" lon="0.14117">
        <ele>2014</ele>
        <time>2022-01-14T15:54:35Z</time>
      </trkpt>
      <trkpt lat="42.90785" lon="0.14068">
        <ele>2010</ele>
        <time>2022-01-14T15:54:47Z</time>
      </trkpt>
      <trkpt lat="42.90823" lon="0.14019">
        <ele>2002</ele>
        <time>2022-01-14T15:54:59Z</time>
      </trkpt>
      <trkpt lat="42.90846" lon="0.14001">
        <ele>2003</ele>
        <time>2022-01-14T15:55:05Z</time>
      </trkpt>
      <trkpt lat="42.90875" lon="0.13966">
        <ele>2000</ele>
        <time>2022-01-14T15:55:14Z</time>
      </trkpt>
      <trkpt lat="42.90901" lon="0.13941">
        <ele>1998</ele>
        <time>2022-01-14T15:55:22Z</time>
      </trkpt>
      <trkpt lat="42.90911" lon="0.13935">
        <ele>1998</ele>
        <time>2022-01-14T15:55:24Z</time>
      </trkpt>
      <trkpt lat="42.90932" lon="0.13928">
        <ele>1995</ele>
        <time>2022-01-14T15:55:29Z</time>
      </trkpt>
      <trkpt lat="42.90943" lon="0.13926">
        <ele>1994</ele>
        <time>2022-01-14T15:55:32Z</time>
      </trkpt>
      <trkpt lat="42.91004" lon="0.13927">
        <ele>1990</ele>
        <time>2022-01-14T15:55:46Z</time>
      </trkpt>
      <trkpt lat="42.91017" lon="0.13925">
        <ele>1987</ele>
        <time>2022-01-14T15:55:49Z</time>
      </trkpt>
      <trkpt lat="42.91042" lon="0.13927">
        <ele>1984</ele>
        <time>2022-01-14T15:55:55Z</time>
      </trkpt>
      <trkpt lat="42.91108" lon="0.13938">
        <ele>1990</ele>
        <time>2022-01-14T15:56:11Z</time>
      </trkpt>
      <trkpt lat="42.91133" lon="0.13925">
        <ele>1988</ele>
        <time>2022-01-14T15:56:17Z</time>
      </trkpt>
      <trkpt lat="42.91138" lon="0.13912">
        <ele>1981</ele>
        <time>2022-01-14T15:56:19Z</time>
      </trkpt>
      <trkpt lat="42.91141" lon="0.13894">
        <ele>1972</ele>
        <time>2022-01-14T15:56:23Z</time>
      </trkpt>
      <trkpt lat="42.91152" lon="0.13867">
        <ele>1958</ele>
        <time>2022-01-14T15:56:28Z</time>
      </trkpt>
      <trkpt lat="42.91169" lon="0.13841">
        <ele>1944</ele>
        <time>2022-01-14T15:56:34Z</time>
      </trkpt>
      <trkpt lat="42.91183" lon="0.13828">
        <ele>1941</ele>
        <time>2022-01-14T15:56:38Z</time>
      </trkpt>
      <trkpt lat="42.91224" lon="0.13824">
        <ele>1951</ele>
        <time>2022-01-14T15:56:47Z</time>
      </trkpt>
      <trkpt lat="42.91255" lon="0.13806">
        <ele>1954</ele>
        <time>2022-01-14T15:56:55Z</time>
      </trkpt>
      <trkpt lat="42.91272" lon="0.13784">
        <ele>1951</ele>
        <time>2022-01-14T15:57:01Z</time>
      </trkpt>
      <trkpt lat="42.91291" lon="0.13746">
        <ele>1941</ele>
        <time>2022-01-14T15:57:09Z</time>
      </trkpt>
      <trkpt lat="42.91301" lon="0.13731">
        <ele>1939</ele>
        <time>2022-01-14T15:57:12Z</time>
      </trkpt>
      <trkpt lat="42.91331" lon="0.13717">
        <ele>1945</ele>
        <time>2022-01-14T15:57:19Z</time>
      </trkpt>
      <trkpt lat="42.91343" lon="0.13693">
        <ele>1940</ele>
        <time>2022-01-14T15:57:24Z</time>
      </trkpt>
      <trkpt lat="42.91337" lon="0.13675">
        <ele>1933</ele>
        <time>2022-01-14T15:57:28Z</time>
      </trkpt>
      <trkpt lat="42.91329" lon="0.1367">
        <ele>1928</ele>
        <time>2022-01-14T15:57:30Z</time>
      </trkpt>
      <trkpt lat="42.913" lon="0.13685">
        <ele>1923</ele>
        <time>2022-01-14T15:57:37Z</time>
      </trkpt>
      <trkpt lat="42.91288" lon="0.13703">
        <ele>1925</ele>
        <time>2022-01-14T15:57:41Z</time>
      </trkpt>
      <trkpt lat="42.91269" lon="0.13743">
        <ele>1933</ele>
        <time>2022-01-14T15:57:49Z</time>
      </trkpt>
      <trkpt lat="42.9125" lon="0.13768">
        <ele>1936</ele>
        <time>2022-01-14T15:57:56Z</time>
      </trkpt>
      <trkpt lat="42.91235" lon="0.13778">
        <ele>1935</ele>
        <time>2022-01-14T15:57:59Z</time>
      </trkpt>
      <trkpt lat="42.91211" lon="0.13786">
        <ele>1931</ele>
        <time>2022-01-14T15:58:05Z</time>
      </trkpt>
      <trkpt lat="42.91196" lon="0.13786">
        <ele>1926</ele>
        <time>2022-01-14T15:58:09Z</time>
      </trkpt>
      <trkpt lat="42.91173" lon="0.13781">
        <ele>1916</ele>
        <time>2022-01-14T15:58:14Z</time>
      </trkpt>
      <trkpt lat="42.91151" lon="0.13792">
        <ele>1919</ele>
        <time>2022-01-14T15:58:20Z</time>
      </trkpt>
      <trkpt lat="42.91144" lon="0.13798">
        <ele>1922</ele>
        <time>2022-01-14T15:58:22Z</time>
      </trkpt>
      <trkpt lat="42.91111" lon="0.13841">
        <ele>1941</ele>
        <time>2022-01-14T15:58:32Z</time>
      </trkpt>
      <trkpt lat="42.91092" lon="0.13854">
        <ele>1946</ele>
        <time>2022-01-14T15:58:37Z</time>
      </trkpt>
      <trkpt lat="42.9108" lon="0.13842">
        <ele>1941</ele>
        <time>2022-01-14T15:58:41Z</time>
      </trkpt>
      <trkpt lat="42.91058" lon="0.138">
        <ele>1923</ele>
        <time>2022-01-14T15:58:49Z</time>
      </trkpt>
      <trkpt lat="42.91042" lon="0.13791">
        <ele>1919</ele>
        <time>2022-01-14T15:58:53Z</time>
      </trkpt>
      <trkpt lat="42.91032" lon="0.13791">
        <ele>1920</ele>
        <time>2022-01-14T15:58:56Z</time>
      </trkpt>
      <trkpt lat="42.91007" lon="0.13797">
        <ele>1923</ele>
        <time>2022-01-14T15:59:02Z</time>
      </trkpt>
      <trkpt lat="42.90945" lon="0.13794">
        <ele>1924</ele>
        <time>2022-01-14T15:59:16Z</time>
      </trkpt>
      <trkpt lat="42.90907" lon="0.13785">
        <ele>1918</ele>
        <time>2022-01-14T15:59:25Z</time>
      </trkpt>
      <trkpt lat="42.90883" lon="0.13776">
        <ele>1910</ele>
        <time>2022-01-14T15:59:31Z</time>
      </trkpt>
      <trkpt lat="42.90838" lon="0.13772">
        <ele>1902</ele>
        <time>2022-01-14T15:59:42Z</time>
      </trkpt>
      <trkpt lat="42.90827" lon="0.13774">
        <ele>1901</ele>
        <time>2022-01-14T15:59:44Z</time>
      </trkpt>
      <trkpt lat="42.90817" lon="0.13779">
        <ele>1900</ele>
        <time>2022-01-14T15:59:47Z</time>
      </trkpt>
      <trkpt lat="42.90787" lon="0.13799">
        <ele>1900</ele>
        <time>2022-01-14T15:59:54Z</time>
      </trkpt>
      <trkpt lat="42.90753" lon="0.13845">
        <ele>1906</ele>
        <time>2022-01-14T16:00:06Z</time>
      </trkpt>
      <trkpt lat="42.90732" lon="0.13859">
        <ele>1907</ele>
        <time>2022-01-14T16:00:11Z</time>
      </trkpt>
      <trkpt lat="42.90673" lon="0.13862">
        <ele>1897</ele>
        <time>2022-01-14T16:00:25Z</time>
      </trkpt>
      <trkpt lat="42.90649" lon="0.13867">
        <ele>1897</ele>
        <time>2022-01-14T16:00:31Z</time>
      </trkpt>
      <trkpt lat="42.90637" lon="0.13867">
        <ele>1897</ele>
        <time>2022-01-14T16:00:33Z</time>
      </trkpt>
      <trkpt lat="42.90616" lon="0.13859">
        <ele>1894</ele>
        <time>2022-01-14T16:00:38Z</time>
      </trkpt>
      <trkpt lat="42.90545" lon="0.13797">
        <ele>1878</ele>
        <time>2022-01-14T16:00:58Z</time>
      </trkpt>
      <trkpt lat="42.90529" lon="0.13773">
        <ele>1872</ele>
        <time>2022-01-14T16:01:04Z</time>
      </trkpt>
      <trkpt lat="42.9051" lon="0.13734">
        <ele>1864</ele>
        <time>2022-01-14T16:01:12Z</time>
      </trkpt>
      <trkpt lat="42.90496" lon="0.13714">
        <ele>1859</ele>
        <time>2022-01-14T16:01:16Z</time>
      </trkpt>
      <trkpt lat="42.90479" lon="0.13703">
        <ele>1856</ele>
        <time>2022-01-14T16:01:21Z</time>
      </trkpt>
      <trkpt lat="42.90469" lon="0.13701">
        <ele>1855</ele>
        <time>2022-01-14T16:01:23Z</time>
      </trkpt>
      <trkpt lat="42.90435" lon="0.13707">
        <ele>1856</ele>
        <time>2022-01-14T16:01:31Z</time>
      </trkpt>
      <trkpt lat="42.90412" lon="0.13707">
        <ele>1856</ele>
        <time>2022-01-14T16:01:37Z</time>
      </trkpt>
      <trkpt lat="42.9039" lon="0.137">
        <ele>1857</ele>
        <time>2022-01-14T16:01:42Z</time>
      </trkpt>
      <trkpt lat="42.9037" lon="0.13687">
        <ele>1857</ele>
        <time>2022-01-14T16:01:47Z</time>
      </trkpt>
      <trkpt lat="42.90366" lon="0.13681">
        <ele>1857</ele>
        <time>2022-01-14T16:01:48Z</time>
      </trkpt>
      <trkpt lat="42.90358" lon="0.13663">
        <ele>1855</ele>
        <time>2022-01-14T16:01:52Z</time>
      </trkpt>
      <trkpt lat="42.90349" lon="0.1363">
        <ele>1853</ele>
        <time>2022-01-14T16:01:58Z</time>
      </trkpt>
      <trkpt lat="42.90326" lon="0.13609">
        <ele>1856</ele>
        <time>2022-01-14T16:02:04Z</time>
      </trkpt>
      <trkpt lat="42.90298" lon="0.13604">
        <ele>1860</ele>
        <time>2022-01-14T16:02:11Z</time>
      </trkpt>
      <trkpt lat="42.90283" lon="0.13583">
        <ele>1860</ele>
        <time>2022-01-14T16:02:16Z</time>
      </trkpt>
      <trkpt lat="42.90272" lon="0.13504">
        <ele>1857</ele>
        <time>2022-01-14T16:02:30Z</time>
      </trkpt>
      <trkpt lat="42.90272" lon="0.13494">
        <ele>1855</ele>
        <time>2022-01-14T16:02:32Z</time>
      </trkpt>
      <trkpt lat="42.90281" lon="0.13462">
        <ele>1845</ele>
        <time>2022-01-14T16:02:37Z</time>
      </trkpt>
      <trkpt lat="42.90273" lon="0.13426">
        <ele>1838</ele>
        <time>2022-01-14T16:02:44Z</time>
      </trkpt>
      <trkpt lat="42.90261" lon="0.13406">
        <ele>1837</ele>
        <time>2022-01-14T16:02:48Z</time>
      </trkpt>
      <trkpt lat="42.90227" lon="0.13384">
        <ele>1840</ele>
        <time>2022-01-14T16:02:57Z</time>
      </trkpt>
      <trkpt lat="42.90221" lon="0.13358">
        <ele>1838</ele>
        <time>2022-01-14T16:03:02Z</time>
      </trkpt>
      <trkpt lat="42.90215" lon="0.13313">
        <ele>1833</ele>
        <time>2022-01-14T16:03:10Z</time>
      </trkpt>
      <trkpt lat="42.90196" lon="0.13274">
        <ele>1830</ele>
        <time>2022-01-14T16:03:18Z</time>
      </trkpt>
      <trkpt lat="42.90193" lon="0.13251">
        <ele>1827</ele>
        <time>2022-01-14T16:03:22Z</time>
      </trkpt>
      <trkpt lat="42.90203" lon="0.13231">
        <ele>1827</ele>
        <time>2022-01-14T16:03:26Z</time>
      </trkpt>
      <trkpt lat="42.90263" lon="0.13226">
        <ele>1822</ele>
        <time>2022-01-14T16:03:40Z</time>
      </trkpt>
      <trkpt lat="42.90283" lon="0.13216">
        <ele>1817</ele>
        <time>2022-01-14T16:03:45Z</time>
      </trkpt>
      <trkpt lat="42.90297" lon="0.13195">
        <ele>1814</ele>
        <time>2022-01-14T16:03:50Z</time>
      </trkpt>
      <trkpt lat="42.90309" lon="0.1317">
        <ele>1810</ele>
        <time>2022-01-14T16:03:55Z</time>
      </trkpt>
      <trkpt lat="42.90341" lon="0.1313">
        <ele>1797</ele>
        <time>2022-01-14T16:04:05Z</time>
      </trkpt>
      <trkpt lat="42.90344" lon="0.13086">
        <ele>1798</ele>
        <time>2022-01-14T16:04:12Z</time>
      </trkpt>
      <trkpt lat="42.90338" lon="0.13069">
        <ele>1801</ele>
        <time>2022-01-14T16:04:16Z</time>
      </trkpt>
      <trkpt lat="42.90347" lon="0.13022">
        <ele>1799</ele>
        <time>2022-01-14T16:04:24Z</time>
      </trkpt>
      <trkpt lat="42.9036" lon="0.12978">
        <ele>1795</ele>
        <time>2022-01-14T16:04:32Z</time>
      </trkpt>
      <trkpt lat="42.90376" lon="0.12938">
        <ele>1790</ele>
        <time>2022-01-14T16:04:40Z</time>
      </trkpt>
      <trkpt lat="42.90383" lon="0.129">
        <ele>1787</ele>
        <time>2022-01-14T16:04:47Z</time>
      </trkpt>
      <trkpt lat="42.9038" lon="0.12863">
        <ele>1786</ele>
        <time>2022-01-14T16:04:53Z</time>
      </trkpt>
      <trkpt lat="42.90359" lon="0.12804">
        <ele>1791</ele>
        <time>2022-01-14T16:05:04Z</time>
      </trkpt>
      <trkpt lat="42.90357" lon="0.12791">
        <ele>1792</ele>
        <time>2022-01-14T16:05:06Z</time>
      </trkpt>
      <trkpt lat="42.90359" lon="0.1277">
        <ele>1790</ele>
        <time>2022-01-14T16:05:10Z</time>
      </trkpt>
      <trkpt lat="42.90372" lon="0.12738">
        <ele>1785</ele>
        <time>2022-01-14T16:05:16Z</time>
      </trkpt>
      <trkpt lat="42.90374" lon="0.12726">
        <ele>1784</ele>
        <time>2022-01-14T16:05:18Z</time>
      </trkpt>
      <trkpt lat="42.90373" lon="0.12674">
        <ele>1787</ele>
        <time>2022-01-14T16:05:27Z</time>
      </trkpt>
      <trkpt lat="42.90379" lon="0.12653">
        <ele>1783</ele>
        <time>2022-01-14T16:05:31Z</time>
      </trkpt>
      <trkpt lat="42.9039" lon="0.1264">
        <ele>1778</ele>
        <time>2022-01-14T16:05:35Z</time>
      </trkpt>
      <trkpt lat="42.90404" lon="0.12643">
        <ele>1772</ele>
        <time>2022-01-14T16:05:38Z</time>
      </trkpt>
      <trkpt lat="42.90411" lon="0.12663">
        <ele>1771</ele>
        <time>2022-01-14T16:05:42Z</time>
      </trkpt>
      <trkpt lat="42.90407" lon="0.12682">
        <ele>1772</ele>
        <time>2022-01-14T16:05:45Z</time>
      </trkpt>
      <trkpt lat="42.90407" lon="0.12726">
        <ele>1771</ele>
        <time>2022-01-14T16:05:53Z</time>
      </trkpt>
      <trkpt lat="42.90426" lon="0.12779">
        <ele>1765</ele>
        <time>2022-01-14T16:06:03Z</time>
      </trkpt>
      <trkpt lat="42.90427" lon="0.12828">
        <ele>1766</ele>
        <time>2022-01-14T16:06:11Z</time>
      </trkpt>
      <trkpt lat="42.90433" lon="0.12875">
        <ele>1767</ele>
        <time>2022-01-14T16:06:19Z</time>
      </trkpt>
      <trkpt lat="42.90455" lon="0.12967">
        <ele>1763</ele>
        <time>2022-01-14T16:06:36Z</time>
      </trkpt>
      <trkpt lat="42.90471" lon="0.12994">
        <ele>1759</ele>
        <time>2022-01-14T16:06:42Z</time>
      </trkpt>
      <trkpt lat="42.90523" lon="0.13028">
        <ele>1748</ele>
        <time>2022-01-14T16:06:55Z</time>
      </trkpt>
      <trkpt lat="42.90545" lon="0.13058">
        <ele>1744</ele>
        <time>2022-01-14T16:07:02Z</time>
      </trkpt>
      <trkpt lat="42.90561" lon="0.13096">
        <ele>1739</ele>
        <time>2022-01-14T16:07:10Z</time>
      </trkpt>
      <trkpt lat="42.90571" lon="0.13147">
        <ele>1735</ele>
        <time>2022-01-14T16:07:19Z</time>
      </trkpt>
      <trkpt lat="42.90582" lon="0.13162">
        <ele>1734</ele>
        <time>2022-01-14T16:07:23Z</time>
      </trkpt>
      <trkpt lat="42.90596" lon="0.13166">
        <ele>1736</ele>
        <time>2022-01-14T16:07:26Z</time>
      </trkpt>
      <trkpt lat="42.90618" lon="0.1316">
        <ele>1738</ele>
        <time>2022-01-14T16:07:31Z</time>
      </trkpt>
      <trkpt lat="42.90641" lon="0.13149">
        <ele>1740</ele>
        <time>2022-01-14T16:07:37Z</time>
      </trkpt>
      <trkpt lat="42.90658" lon="0.13119">
        <ele>1738</ele>
        <time>2022-01-14T16:07:43Z</time>
      </trkpt>
      <trkpt lat="42.90677" lon="0.13027">
        <ele>1732</ele>
        <time>2022-01-14T16:08:00Z</time>
      </trkpt>
      <trkpt lat="42.90691" lon="0.12984">
        <ele>1733</ele>
        <time>2022-01-14T16:08:08Z</time>
      </trkpt>
      <trkpt lat="42.90695" lon="0.1296">
        <ele>1732</ele>
        <time>2022-01-14T16:08:12Z</time>
      </trkpt>
      <trkpt lat="42.90699" lon="0.12812">
        <ele>1718</ele>
        <time>2022-01-14T16:08:37Z</time>
      </trkpt>
      <trkpt lat="42.90712" lon="0.12653">
        <ele>1710</ele>
        <time>2022-01-14T16:09:05Z</time>
      </trkpt>
      <trkpt lat="42.90714" lon="0.126">
        <ele>1706</ele>
        <time>2022-01-14T16:09:14Z</time>
      </trkpt>
      <trkpt lat="42.90714" lon="0.12559">
        <ele>1705</ele>
        <time>2022-01-14T16:09:21Z</time>
      </trkpt>
      <trkpt lat="42.90707" lon="0.12455">
        <ele>1700</ele>
        <time>2022-01-14T16:09:39Z</time>
      </trkpt>
      <trkpt lat="42.90707" lon="0.12388">
        <ele>1694</ele>
        <time>2022-01-14T16:09:50Z</time>
      </trkpt>
      <trkpt lat="42.90711" lon="0.12285">
        <ele>1685</ele>
        <time>2022-01-14T16:10:08Z</time>
      </trkpt>
      <trkpt lat="42.9071" lon="0.12065">
        <ele>1666</ele>
        <time>2022-01-14T16:10:45Z</time>
      </trkpt>
      <trkpt lat="42.90725" lon="0.11906">
        <ele>1653</ele>
        <time>2022-01-14T16:11:13Z</time>
      </trkpt>
      <trkpt lat="42.90739" lon="0.11795">
        <ele>1645</ele>
        <time>2022-01-14T16:11:32Z</time>
      </trkpt>
      <trkpt lat="42.9075" lon="0.11733">
        <ele>1641</ele>
        <time>2022-01-14T16:11:43Z</time>
      </trkpt>
      <trkpt lat="42.90766" lon="0.11673">
        <ele>1639</ele>
        <time>2022-01-14T16:11:54Z</time>
      </trkpt>
      <trkpt lat="42.90787" lon="0.11626">
        <ele>1637</ele>
        <time>2022-01-14T16:12:03Z</time>
      </trkpt>
      <trkpt lat="42.90811" lon="0.11584">
        <ele>1634</ele>
        <time>2022-01-14T16:12:12Z</time>
      </trkpt>
      <trkpt lat="42.90818" lon="0.11556">
        <ele>1633</ele>
        <time>2022-01-14T16:12:17Z</time>
      </trkpt>
      <trkpt lat="42.90808" lon="0.11546">
        <ele>1631</ele>
        <time>2022-01-14T16:12:20Z</time>
      </trkpt>
      <trkpt lat="42.90792" lon="0.11553">
        <ele>1628</ele>
        <time>2022-01-14T16:12:24Z</time>
      </trkpt>
      <trkpt lat="42.9074" lon="0.11619">
        <ele>1629</ele>
        <time>2022-01-14T16:12:41Z</time>
      </trkpt>
      <trkpt lat="42.90721" lon="0.11624">
        <ele>1627</ele>
        <time>2022-01-14T16:12:45Z</time>
      </trkpt>
      <trkpt lat="42.90718" lon="0.11605">
        <ele>1625</ele>
        <time>2022-01-14T16:12:49Z</time>
      </trkpt>
      <trkpt lat="42.90719" lon="0.11593">
        <ele>1624</ele>
        <time>2022-01-14T16:12:51Z</time>
      </trkpt>
      <trkpt lat="42.90731" lon="0.11555">
        <ele>1620</ele>
        <time>2022-01-14T16:12:58Z</time>
      </trkpt>
      <trkpt lat="42.90738" lon="0.11519">
        <ele>1615</ele>
        <time>2022-01-14T16:13:04Z</time>
      </trkpt>
      <trkpt lat="42.90742" lon="0.11468">
        <ele>1610</ele>
        <time>2022-01-14T16:13:13Z</time>
      </trkpt>
      <trkpt lat="42.90742" lon="0.11441">
        <ele>1608</ele>
        <time>2022-01-14T16:13:18Z</time>
      </trkpt>
      <trkpt lat="42.90728" lon="0.11309">
        <ele>1601</ele>
        <time>2022-01-14T16:13:40Z</time>
      </trkpt>
      <trkpt lat="42.90724" lon="0.11194">
        <ele>1596</ele>
        <time>2022-01-14T16:14:00Z</time>
      </trkpt>
      <trkpt lat="42.90718" lon="0.11163">
        <ele>1596</ele>
        <time>2022-01-14T16:14:06Z</time>
      </trkpt>
      <trkpt lat="42.90662" lon="0.10969">
        <ele>1576</ele>
        <time>2022-01-14T16:14:41Z</time>
      </trkpt>
      <trkpt lat="42.90651" lon="0.10921">
        <ele>1572</ele>
        <time>2022-01-14T16:14:50Z</time>
      </trkpt>
      <trkpt lat="42.90644" lon="0.10872">
        <ele>1570</ele>
        <time>2022-01-14T16:14:58Z</time>
      </trkpt>
      <trkpt lat="42.90638" lon="0.10804">
        <ele>1566</ele>
        <time>2022-01-14T16:15:10Z</time>
      </trkpt>
      <trkpt lat="42.90635" lon="0.10694">
        <ele>1560</ele>
        <time>2022-01-14T16:15:29Z</time>
      </trkpt>
      <trkpt lat="42.90616" lon="0.10585">
        <ele>1540</ele>
        <time>2022-01-14T16:15:48Z</time>
      </trkpt>
      <trkpt lat="42.90617" lon="0.1057">
        <ele>1540</ele>
        <time>2022-01-14T16:15:51Z</time>
      </trkpt>
      <trkpt lat="42.9063" lon="0.10509">
        <ele>1544</ele>
        <time>2022-01-14T16:16:02Z</time>
      </trkpt>
      <trkpt lat="42.90633" lon="0.10446">
        <ele>1541</ele>
        <time>2022-01-14T16:16:12Z</time>
      </trkpt>
      <trkpt lat="42.90649" lon="0.10289">
        <ele>1531</ele>
        <time>2022-01-14T16:16:39Z</time>
      </trkpt>
      <trkpt lat="42.90663" lon="0.10197">
        <ele>1527</ele>
        <time>2022-01-14T16:16:56Z</time>
      </trkpt>
      <trkpt lat="42.90661" lon="0.10188">
        <ele>1526</ele>
        <time>2022-01-14T16:16:57Z</time>
      </trkpt>
      <trkpt lat="42.9065" lon="0.10182">
        <ele>1522</ele>
        <time>2022-01-14T16:17:00Z</time>
      </trkpt>
      <trkpt lat="42.90638" lon="0.10195">
        <ele>1519</ele>
        <time>2022-01-14T16:17:03Z</time>
      </trkpt>
      <trkpt lat="42.90635" lon="0.1022">
        <ele>1519</ele>
        <time>2022-01-14T16:17:08Z</time>
      </trkpt>
      <trkpt lat="42.90636" lon="0.10248">
        <ele>1521</ele>
        <time>2022-01-14T16:17:13Z</time>
      </trkpt>
      <trkpt lat="42.90628" lon="0.10287">
        <ele>1522</ele>
        <time>2022-01-14T16:17:20Z</time>
      </trkpt>
      <trkpt lat="42.90596" lon="0.10372">
        <ele>1517</ele>
        <time>2022-01-14T16:17:36Z</time>
      </trkpt>
      <trkpt lat="42.9056" lon="0.10447">
        <ele>1511</ele>
        <time>2022-01-14T16:17:51Z</time>
      </trkpt>
      <trkpt lat="42.90547" lon="0.10463">
        <ele>1508</ele>
        <time>2022-01-14T16:17:55Z</time>
      </trkpt>
      <trkpt lat="42.90531" lon="0.10467">
        <ele>1503</ele>
        <time>2022-01-14T16:17:59Z</time>
      </trkpt>
      <trkpt lat="42.90521" lon="0.10448">
        <ele>1499</ele>
        <time>2022-01-14T16:18:03Z</time>
      </trkpt>
      <trkpt lat="42.90524" lon="0.10434">
        <ele>1498</ele>
        <time>2022-01-14T16:18:06Z</time>
      </trkpt>
      <trkpt lat="42.90529" lon="0.10424">
        <ele>1499</ele>
        <time>2022-01-14T16:18:08Z</time>
      </trkpt>
      <trkpt lat="42.9055" lon="0.10395">
        <ele>1502</ele>
        <time>2022-01-14T16:18:15Z</time>
      </trkpt>
      <trkpt lat="42.90563" lon="0.10333">
        <ele>1499</ele>
        <time>2022-01-14T16:18:26Z</time>
      </trkpt>
      <trkpt lat="42.90569" lon="0.10267">
        <ele>1497</ele>
        <time>2022-01-14T16:18:37Z</time>
      </trkpt>
      <trkpt lat="42.90568" lon="0.10194">
        <ele>1495</ele>
        <time>2022-01-14T16:18:50Z</time>
      </trkpt>
      <trkpt lat="42.90562" lon="0.10168">
        <ele>1492</ele>
        <time>2022-01-14T16:18:54Z</time>
      </trkpt>
      <trkpt lat="42.90552" lon="0.10151">
        <ele>1489</ele>
        <time>2022-01-14T16:18:58Z</time>
      </trkpt>
      <trkpt lat="42.90538" lon="0.10152">
        <ele>1485</ele>
        <time>2022-01-14T16:19:01Z</time>
      </trkpt>
      <trkpt lat="42.90528" lon="0.10171">
        <ele>1482</ele>
        <time>2022-01-14T16:19:05Z</time>
      </trkpt>
      <trkpt lat="42.90525" lon="0.10198">
        <ele>1480</ele>
        <time>2022-01-14T16:19:10Z</time>
      </trkpt>
      <trkpt lat="42.90525" lon="0.1024">
        <ele>1479</ele>
        <time>2022-01-14T16:19:17Z</time>
      </trkpt>
      <trkpt lat="42.90519" lon="0.10267">
        <ele>1478</ele>
        <time>2022-01-14T16:19:22Z</time>
      </trkpt>
      <trkpt lat="42.90496" lon="0.10302">
        <ele>1473</ele>
        <time>2022-01-14T16:19:30Z</time>
      </trkpt>
      <trkpt lat="42.90435" lon="0.10365">
        <ele>1472</ele>
        <time>2022-01-14T16:19:48Z</time>
      </trkpt>
      <trkpt lat="42.90419" lon="0.10372">
        <ele>1471</ele>
        <time>2022-01-14T16:19:52Z</time>
      </trkpt>
      <trkpt lat="42.90402" lon="0.10368">
        <ele>1470</ele>
        <time>2022-01-14T16:19:56Z</time>
      </trkpt>
      <trkpt lat="42.90386" lon="0.10355">
        <ele>1467</ele>
        <time>2022-01-14T16:20:00Z</time>
      </trkpt>
      <trkpt lat="42.90372" lon="0.10334">
        <ele>1464</ele>
        <time>2022-01-14T16:20:05Z</time>
      </trkpt>
      <trkpt lat="42.90347" lon="0.10274">
        <ele>1460</ele>
        <time>2022-01-14T16:20:17Z</time>
      </trkpt>
      <trkpt lat="42.90341" lon="0.10248">
        <ele>1459</ele>
        <time>2022-01-14T16:20:21Z</time>
      </trkpt>
      <trkpt lat="42.90335" lon="0.10175">
        <ele>1454</ele>
        <time>2022-01-14T16:20:34Z</time>
      </trkpt>
      <trkpt lat="42.90319" lon="0.1009">
        <ele>1461</ele>
        <time>2022-01-14T16:20:49Z</time>
      </trkpt>
      <trkpt lat="42.90319" lon="0.10079">
        <ele>1462</ele>
        <time>2022-01-14T16:20:51Z</time>
      </trkpt>
      <trkpt lat="42.90329" lon="0.10049">
        <ele>1462</ele>
        <time>2022-01-14T16:20:57Z</time>
      </trkpt>
      <trkpt lat="42.90349" lon="0.10021">
        <ele>1460</ele>
        <time>2022-01-14T16:21:03Z</time>
      </trkpt>
      <trkpt lat="42.90359" lon="0.09999">
        <ele>1459</ele>
        <time>2022-01-14T16:21:08Z</time>
      </trkpt>
      <trkpt lat="42.90362" lon="0.09973">
        <ele>1457</ele>
        <time>2022-01-14T16:21:12Z</time>
      </trkpt>
      <trkpt lat="42.90352" lon="0.0985">
        <ele>1452</ele>
        <time>2022-01-14T16:21:33Z</time>
      </trkpt>
      <trkpt lat="42.90337" lon="0.09723">
        <ele>1441</ele>
        <time>2022-01-14T16:21:55Z</time>
      </trkpt>
      <trkpt lat="42.90333" lon="0.09663">
        <ele>1445</ele>
        <time>2022-01-14T16:22:06Z</time>
      </trkpt>
      <trkpt lat="42.90334" lon="0.09576">
        <ele>1438</ele>
        <time>2022-01-14T16:22:21Z</time>
      </trkpt>
      <trkpt lat="42.90329" lon="0.09421">
        <ele>1432</ele>
        <time>2022-01-14T16:22:47Z</time>
      </trkpt>
      <trkpt lat="42.90321" lon="0.09366">
        <ele>1431</ele>
        <time>2022-01-14T16:22:57Z</time>
      </trkpt>
      <trkpt lat="42.90303" lon="0.09279">
        <ele>1427</ele>
        <time>2022-01-14T16:23:12Z</time>
      </trkpt>
      <trkpt lat="42.90273" lon="0.09156">
        <ele>1424</ele>
        <time>2022-01-14T16:23:34Z</time>
      </trkpt>
      <trkpt lat="42.90269" lon="0.09127">
        <ele>1423</ele>
        <time>2022-01-14T16:23:39Z</time>
      </trkpt>
      <trkpt lat="42.90268" lon="0.09082">
        <ele>1418</ele>
        <time>2022-01-14T16:23:47Z</time>
      </trkpt>
      <trkpt lat="42.90275" lon="0.0902">
        <ele>1416</ele>
        <time>2022-01-14T16:23:58Z</time>
      </trkpt>
      <trkpt lat="42.90274" lon="0.08989">
        <ele>1415</ele>
        <time>2022-01-14T16:24:03Z</time>
      </trkpt>
      <trkpt lat="42.90269" lon="0.0896">
        <ele>1413</ele>
        <time>2022-01-14T16:24:08Z</time>
      </trkpt>
      <trkpt lat="42.90221" lon="0.08786">
        <ele>1407</ele>
        <time>2022-01-14T16:24:40Z</time>
      </trkpt>
      <trkpt lat="42.90196" lon="0.08708">
        <ele>1411</ele>
        <time>2022-01-14T16:24:55Z</time>
      </trkpt>
      <trkpt lat="42.90186" lon="0.08658">
        <ele>1410</ele>
        <time>2022-01-14T16:25:03Z</time>
      </trkpt>
      <trkpt lat="42.90175" lon="0.08503">
        <ele>1394</ele>
        <time>2022-01-14T16:25:30Z</time>
      </trkpt>
      <trkpt lat="42.9016" lon="0.08398">
        <ele>1382</ele>
        <time>2022-01-14T16:25:48Z</time>
      </trkpt>
      <trkpt lat="42.9016" lon="0.08347">
        <ele>1373</ele>
        <time>2022-01-14T16:25:57Z</time>
      </trkpt>
      <trkpt lat="42.90152" lon="0.08295">
        <ele>1369</ele>
        <time>2022-01-14T16:26:06Z</time>
      </trkpt>
      <trkpt lat="42.90138" lon="0.08263">
        <ele>1370</ele>
        <time>2022-01-14T16:26:13Z</time>
      </trkpt>
      <trkpt lat="42.90099" lon="0.08187">
        <ele>1372</ele>
        <time>2022-01-14T16:26:28Z</time>
      </trkpt>
      <trkpt lat="42.90077" lon="0.081">
        <ele>1357</ele>
        <time>2022-01-14T16:26:44Z</time>
      </trkpt>
      <trkpt lat="42.90045" lon="0.07992">
        <ele>1350</ele>
        <time>2022-01-14T16:27:04Z</time>
      </trkpt>
      <trkpt lat="42.90021" lon="0.07915">
        <ele>1342</ele>
        <time>2022-01-14T16:27:18Z</time>
      </trkpt>
      <trkpt lat="42.8998" lon="0.07801">
        <ele>1328</ele>
        <time>2022-01-14T16:27:40Z</time>
      </trkpt>
      <trkpt lat="42.89948" lon="0.07637">
        <ele>1314</ele>
        <time>2022-01-14T16:28:09Z</time>
      </trkpt>
      <trkpt lat="42.89942" lon="0.0762">
        <ele>1313</ele>
        <time>2022-01-14T16:28:12Z</time>
      </trkpt>
      <trkpt lat="42.89877" lon="0.07501">
        <ele>1311</ele>
        <time>2022-01-14T16:28:38Z</time>
      </trkpt>
      <trkpt lat="42.89871" lon="0.07486">
        <ele>1313</ele>
        <time>2022-01-14T16:28:41Z</time>
      </trkpt>
      <trkpt lat="42.89861" lon="0.07347">
        <ele>1306</ele>
        <time>2022-01-14T16:29:05Z</time>
      </trkpt>
      <trkpt lat="42.8985" lon="0.07263">
        <ele>1301</ele>
        <time>2022-01-14T16:29:19Z</time>
      </trkpt>
      <trkpt lat="42.89841" lon="0.07223">
        <ele>1298</ele>
        <time>2022-01-14T16:29:26Z</time>
      </trkpt>
      <trkpt lat="42.89837" lon="0.07142">
        <ele>1289</ele>
        <time>2022-01-14T16:29:40Z</time>
      </trkpt>
      <trkpt lat="42.89822" lon="0.07011">
        <ele>1275</ele>
        <time>2022-01-14T16:30:03Z</time>
      </trkpt>
      <trkpt lat="42.89789" lon="0.06836">
        <ele>1268</ele>
        <time>2022-01-14T16:30:34Z</time>
      </trkpt>
      <trkpt lat="42.89778" lon="0.0674">
        <ele>1256</ele>
        <time>2022-01-14T16:30:50Z</time>
      </trkpt>
      <trkpt lat="42.89737" lon="0.06628">
        <ele>1245</ele>
        <time>2022-01-14T16:31:12Z</time>
      </trkpt>
      <trkpt lat="42.89722" lon="0.06578">
        <ele>1243</ele>
        <time>2022-01-14T16:31:21Z</time>
      </trkpt>
      <trkpt lat="42.897" lon="0.06519">
        <ele>1241</ele>
        <time>2022-01-14T16:31:32Z</time>
      </trkpt>
      <trkpt lat="42.89674" lon="0.0646">
        <ele>1233</ele>
        <time>2022-01-14T16:31:44Z</time>
      </trkpt>
      <trkpt lat="42.89657" lon="0.06405">
        <ele>1228</ele>
        <time>2022-01-14T16:31:54Z</time>
      </trkpt>
      <trkpt lat="42.89633" lon="0.06341">
        <ele>1226</ele>
        <time>2022-01-14T16:32:07Z</time>
      </trkpt>
      <trkpt lat="42.89624" lon="0.06307">
        <ele>1224</ele>
        <time>2022-01-14T16:32:13Z</time>
      </trkpt>
      <trkpt lat="42.89622" lon="0.06249">
        <ele>1219</ele>
        <time>2022-01-14T16:32:23Z</time>
      </trkpt>
      <trkpt lat="42.89612" lon="0.06189">
        <ele>1218</ele>
        <time>2022-01-14T16:32:33Z</time>
      </trkpt>
      <trkpt lat="42.89614" lon="0.06079">
        <ele>1208</ele>
        <time>2022-01-14T16:32:52Z</time>
      </trkpt>
      <trkpt lat="42.89603" lon="0.06012">
        <ele>1201</ele>
        <time>2022-01-14T16:33:04Z</time>
      </trkpt>
      <trkpt lat="42.89601" lon="0.05973">
        <ele>1198</ele>
        <time>2022-01-14T16:33:11Z</time>
      </trkpt>
      <trkpt lat="42.89594" lon="0.05956">
        <ele>1195</ele>
        <time>2022-01-14T16:33:14Z</time>
      </trkpt>
      <trkpt lat="42.89583" lon="0.05944">
        <ele>1191</ele>
        <time>2022-01-14T16:33:17Z</time>
      </trkpt>
      <trkpt lat="42.89576" lon="0.0594">
        <ele>1191</ele>
        <time>2022-01-14T16:33:19Z</time>
      </trkpt>
      <trkpt lat="42.89561" lon="0.05937">
        <ele>1192</ele>
        <time>2022-01-14T16:33:23Z</time>
      </trkpt>
      <trkpt lat="42.89545" lon="0.0594">
        <ele>1193</ele>
        <time>2022-01-14T16:33:26Z</time>
      </trkpt>
      <trkpt lat="42.89513" lon="0.05953">
        <ele>1199</ele>
        <time>2022-01-14T16:33:34Z</time>
      </trkpt>
      <trkpt lat="42.89501" lon="0.05945">
        <ele>1198</ele>
        <time>2022-01-14T16:33:37Z</time>
      </trkpt>
      <trkpt lat="42.89494" lon="0.05931">
        <ele>1197</ele>
        <time>2022-01-14T16:33:40Z</time>
      </trkpt>
      <trkpt lat="42.89498" lon="0.05911">
        <ele>1191</ele>
        <time>2022-01-14T16:33:44Z</time>
      </trkpt>
      <trkpt lat="42.89504" lon="0.05903">
        <ele>1189</ele>
        <time>2022-01-14T16:33:46Z</time>
      </trkpt>
      <trkpt lat="42.8952" lon="0.05901">
        <ele>1188</ele>
        <time>2022-01-14T16:33:49Z</time>
      </trkpt>
      <trkpt lat="42.89562" lon="0.05909">
        <ele>1187</ele>
        <time>2022-01-14T16:33:59Z</time>
      </trkpt>
      <trkpt lat="42.89572" lon="0.05883">
        <ele>1185</ele>
        <time>2022-01-14T16:34:04Z</time>
      </trkpt>
      <trkpt lat="42.89564" lon="0.05863">
        <ele>1184</ele>
        <time>2022-01-14T16:34:08Z</time>
      </trkpt>
      <trkpt lat="42.89557" lon="0.05855">
        <ele>1183</ele>
        <time>2022-01-14T16:34:10Z</time>
      </trkpt>
      <trkpt lat="42.8951" lon="0.05829">
        <ele>1180</ele>
        <time>2022-01-14T16:34:22Z</time>
      </trkpt>
      <trkpt lat="42.89483" lon="0.05803">
        <ele>1181</ele>
        <time>2022-01-14T16:34:30Z</time>
      </trkpt>
      <trkpt lat="42.89467" lon="0.0578">
        <ele>1181</ele>
        <time>2022-01-14T16:34:35Z</time>
      </trkpt>
      <trkpt lat="42.89442" lon="0.05733">
        <ele>1177</ele>
        <time>2022-01-14T16:34:45Z</time>
      </trkpt>
      <trkpt lat="42.89414" lon="0.05628">
        <ele>1163</ele>
        <time>2022-01-14T16:35:04Z</time>
      </trkpt>
      <trkpt lat="42.89404" lon="0.05601">
        <ele>1163</ele>
        <time>2022-01-14T16:35:10Z</time>
      </trkpt>
      <trkpt lat="42.89311" lon="0.05399">
        <ele>1150</ele>
        <time>2022-01-14T16:35:50Z</time>
      </trkpt>
      <trkpt lat="42.893" lon="0.05363">
        <ele>1147</ele>
        <time>2022-01-14T16:35:57Z</time>
      </trkpt>
      <trkpt lat="42.89291" lon="0.05295">
        <ele>1136</ele>
        <time>2022-01-14T16:36:09Z</time>
      </trkpt>
      <trkpt lat="42.89282" lon="0.05261">
        <ele>1131</ele>
        <time>2022-01-14T16:36:15Z</time>
      </trkpt>
      <trkpt lat="42.89209" lon="0.05108">
        <ele>1117</ele>
        <time>2022-01-14T16:36:46Z</time>
      </trkpt>
      <trkpt lat="42.89192" lon="0.0509">
        <ele>1114</ele>
        <time>2022-01-14T16:36:51Z</time>
      </trkpt>
      <trkpt lat="42.89142" lon="0.05068">
        <ele>1119</ele>
        <time>2022-01-14T16:37:04Z</time>
      </trkpt>
      <trkpt lat="42.89123" lon="0.05056">
        <ele>1122</ele>
        <time>2022-01-14T16:37:09Z</time>
      </trkpt>
      <trkpt lat="42.89107" lon="0.05036">
        <ele>1121</ele>
        <time>2022-01-14T16:37:14Z</time>
      </trkpt>
      <trkpt lat="42.89072" lon="0.04982">
        <ele>1113</ele>
        <time>2022-01-14T16:37:26Z</time>
      </trkpt>
      <trkpt lat="42.89061" lon="0.04958">
        <ele>1110</ele>
        <time>2022-01-14T16:37:31Z</time>
      </trkpt>
      <trkpt lat="42.89057" lon="0.04943">
        <ele>1108</ele>
        <time>2022-01-14T16:37:34Z</time>
      </trkpt>
      <trkpt lat="42.89053" lon="0.04897">
        <ele>1100</ele>
        <time>2022-01-14T16:37:41Z</time>
      </trkpt>
      <trkpt lat="42.89048" lon="0.04869">
        <ele>1097</ele>
        <time>2022-01-14T16:37:46Z</time>
      </trkpt>
      <trkpt lat="42.89033" lon="0.04849">
        <ele>1095</ele>
        <time>2022-01-14T16:37:51Z</time>
      </trkpt>
      <trkpt lat="42.89016" lon="0.04835">
        <ele>1094</ele>
        <time>2022-01-14T16:37:56Z</time>
      </trkpt>
      <trkpt lat="42.8901" lon="0.04819">
        <ele>1092</ele>
        <time>2022-01-14T16:37:59Z</time>
      </trkpt>
      <trkpt lat="42.89019" lon="0.04805">
        <ele>1089</ele>
        <time>2022-01-14T16:38:02Z</time>
      </trkpt>
      <trkpt lat="42.89027" lon="0.04803">
        <ele>1089</ele>
        <time>2022-01-14T16:38:04Z</time>
      </trkpt>
      <trkpt lat="42.89043" lon="0.04813">
        <ele>1089</ele>
        <time>2022-01-14T16:38:08Z</time>
      </trkpt>
      <trkpt lat="42.89064" lon="0.04855">
        <ele>1094</ele>
        <time>2022-01-14T16:38:17Z</time>
      </trkpt>
      <trkpt lat="42.89084" lon="0.04879">
        <ele>1094</ele>
        <time>2022-01-14T16:38:23Z</time>
      </trkpt>
      <trkpt lat="42.89099" lon="0.04887">
        <ele>1096</ele>
        <time>2022-01-14T16:38:27Z</time>
      </trkpt>
      <trkpt lat="42.89113" lon="0.04877">
        <ele>1096</ele>
        <time>2022-01-14T16:38:31Z</time>
      </trkpt>
      <trkpt lat="42.89115" lon="0.04855">
        <ele>1095</ele>
        <time>2022-01-14T16:38:34Z</time>
      </trkpt>
      <trkpt lat="42.89111" lon="0.04843">
        <ele>1094</ele>
        <time>2022-01-14T16:38:37Z</time>
      </trkpt>
      <trkpt lat="42.89093" lon="0.04822">
        <ele>1090</ele>
        <time>2022-01-14T16:38:42Z</time>
      </trkpt>
      <trkpt lat="42.8904" lon="0.04737">
        <ele>1080</ele>
        <time>2022-01-14T16:39:01Z</time>
      </trkpt>
      <trkpt lat="42.89016" lon="0.04712">
        <ele>1077</ele>
        <time>2022-01-14T16:39:08Z</time>
      </trkpt>
      <trkpt lat="42.88997" lon="0.04698">
        <ele>1074</ele>
        <time>2022-01-14T16:39:13Z</time>
      </trkpt>
      <trkpt lat="42.88951" lon="0.0468">
        <ele>1069</ele>
        <time>2022-01-14T16:39:25Z</time>
      </trkpt>
      <trkpt lat="42.88885" lon="0.04647">
        <ele>1065</ele>
        <time>2022-01-14T16:39:41Z</time>
      </trkpt>
      <trkpt lat="42.88836" lon="0.04627">
        <ele>1058</ele>
        <time>2022-01-14T16:39:53Z</time>
      </trkpt>
      <trkpt lat="42.88789" lon="0.04601">
        <ele>1055</ele>
        <time>2022-01-14T16:40:05Z</time>
      </trkpt>
      <trkpt lat="42.88719" lon="0.04529">
        <ele>1049</ele>
        <time>2022-01-14T16:40:25Z</time>
      </trkpt>
      <trkpt lat="42.88614" lon="0.04433">
        <ele>1042</ele>
        <time>2022-01-14T16:40:55Z</time>
      </trkpt>
      <trkpt lat="42.88564" lon="0.04365">
        <ele>1036</ele>
        <time>2022-01-14T16:41:11Z</time>
      </trkpt>
      <trkpt lat="42.88513" lon="0.04276">
        <ele>1030</ele>
        <time>2022-01-14T16:41:31Z</time>
      </trkpt>
      <trkpt lat="42.8846" lon="0.04211">
        <ele>1021</ele>
        <time>2022-01-14T16:41:47Z</time>
      </trkpt>
      <trkpt lat="42.8844" lon="0.04181">
        <ele>1016</ele>
        <time>2022-01-14T16:41:54Z</time>
      </trkpt>
      <trkpt lat="42.88419" lon="0.04156">
        <ele>1012</ele>
        <time>2022-01-14T16:42:01Z</time>
      </trkpt>
      <trkpt lat="42.88305" lon="0.03995">
        <ele>992</ele>
        <time>2022-01-14T16:42:39Z</time>
      </trkpt>
      <trkpt lat="42.88279" lon="0.03979">
        <ele>996</ele>
        <time>2022-01-14T16:42:46Z</time>
      </trkpt>
      <trkpt lat="42.8827" lon="0.03978">
        <ele>997</ele>
        <time>2022-01-14T16:42:48Z</time>
      </trkpt>
      <trkpt lat="42.88256" lon="0.03972">
        <ele>1000</ele>
        <time>2022-01-14T16:42:51Z</time>
      </trkpt>
      <trkpt lat="42.88254" lon="0.03965">
        <ele>1000</ele>
        <time>2022-01-14T16:42:52Z</time>
      </trkpt>
      <trkpt lat="42.8826" lon="0.0395">
        <ele>997</ele>
        <time>2022-01-14T16:42:55Z</time>
      </trkpt>
      <trkpt lat="42.88282" lon="0.03953">
        <ele>993</ele>
        <time>2022-01-14T16:43:00Z</time>
      </trkpt>
      <trkpt lat="42.88327" lon="0.03988">
        <ele>988</ele>
        <time>2022-01-14T16:43:13Z</time>
      </trkpt>
      <trkpt lat="42.88355" lon="0.04034">
        <ele>996</ele>
        <time>2022-01-14T16:43:23Z</time>
      </trkpt>
      <trkpt lat="42.88361" lon="0.04037">
        <ele>996</ele>
        <time>2022-01-14T16:43:24Z</time>
      </trkpt>
      <trkpt lat="42.88374" lon="0.04032">
        <ele>995</ele>
        <time>2022-01-14T16:43:27Z</time>
      </trkpt>
      <trkpt lat="42.8838" lon="0.04018">
        <ele>993</ele>
        <time>2022-01-14T16:43:30Z</time>
      </trkpt>
      <trkpt lat="42.88378" lon="0.03991">
        <ele>990</ele>
        <time>2022-01-14T16:43:35Z</time>
      </trkpt>
      <trkpt lat="42.88352" lon="0.03936">
        <ele>984</ele>
        <time>2022-01-14T16:43:46Z</time>
      </trkpt>
      <trkpt lat="42.88299" lon="0.03802">
        <ele>976</ele>
        <time>2022-01-14T16:44:12Z</time>
      </trkpt>
      <trkpt lat="42.88281" lon="0.0374">
        <ele>973</ele>
        <time>2022-01-14T16:44:24Z</time>
      </trkpt>
      <trkpt lat="42.88274" lon="0.03706">
        <ele>971</ele>
        <time>2022-01-14T16:44:30Z</time>
      </trkpt>
      <trkpt lat="42.8827" lon="0.03671">
        <ele>967</ele>
        <time>2022-01-14T16:44:36Z</time>
      </trkpt>
      <trkpt lat="42.88274" lon="0.03559">
        <ele>962</ele>
        <time>2022-01-14T16:44:55Z</time>
      </trkpt>
      <trkpt lat="42.88279" lon="0.03524">
        <ele>962</ele>
        <time>2022-01-14T16:45:01Z</time>
      </trkpt>
      <trkpt lat="42.88294" lon="0.03472">
        <ele>958</ele>
        <time>2022-01-14T16:45:11Z</time>
      </trkpt>
      <trkpt lat="42.88297" lon="0.03454">
        <ele>957</ele>
        <time>2022-01-14T16:45:14Z</time>
      </trkpt>
      <trkpt lat="42.88304" lon="0.03352">
        <ele>950</ele>
        <time>2022-01-14T16:45:31Z</time>
      </trkpt>
      <trkpt lat="42.88305" lon="0.03311">
        <ele>949</ele>
        <time>2022-01-14T16:45:38Z</time>
      </trkpt>
      <trkpt lat="42.88302" lon="0.03276">
        <ele>950</ele>
        <time>2022-01-14T16:45:44Z</time>
      </trkpt>
      <trkpt lat="42.88304" lon="0.03258">
        <ele>949</ele>
        <time>2022-01-14T16:45:47Z</time>
      </trkpt>
      <trkpt lat="42.88327" lon="0.03174">
        <ele>934</ele>
        <time>2022-01-14T16:46:03Z</time>
      </trkpt>
      <trkpt lat="42.88323" lon="0.03113">
        <ele>927</ele>
        <time>2022-01-14T16:46:13Z</time>
      </trkpt>
      <trkpt lat="42.88317" lon="0.03072">
        <ele>925</ele>
        <time>2022-01-14T16:46:20Z</time>
      </trkpt>
      <trkpt lat="42.883" lon="0.03037">
        <ele>926</ele>
        <time>2022-01-14T16:46:28Z</time>
      </trkpt>
      <trkpt lat="42.8827" lon="0.02996">
        <ele>917</ele>
        <time>2022-01-14T16:46:37Z</time>
      </trkpt>
      <trkpt lat="42.88109" lon="0.02815">
        <ele>900</ele>
        <time>2022-01-14T16:47:26Z</time>
      </trkpt>
      <trkpt lat="42.88059" lon="0.02755">
        <ele>891</ele>
        <time>2022-01-14T16:47:42Z</time>
      </trkpt>
      <trkpt lat="42.88015" lon="0.02709">
        <ele>886</ele>
        <time>2022-01-14T16:47:55Z</time>
      </trkpt>
      <trkpt lat="42.87964" lon="0.0265">
        <ele>884</ele>
        <time>2022-01-14T16:48:10Z</time>
      </trkpt>
      <trkpt lat="42.87955" lon="0.02637">
        <ele>884</ele>
        <time>2022-01-14T16:48:13Z</time>
      </trkpt>
      <trkpt lat="42.87934" lon="0.02592">
        <ele>881</ele>
        <time>2022-01-14T16:48:22Z</time>
      </trkpt>
      <trkpt lat="42.87923" lon="0.02558">
        <ele>878</ele>
        <time>2022-01-14T16:48:29Z</time>
      </trkpt>
      <trkpt lat="42.87884" lon="0.02347">
        <ele>868</ele>
        <time>2022-01-14T16:49:06Z</time>
      </trkpt>
      <trkpt lat="42.87859" lon="0.02229">
        <ele>863</ele>
        <time>2022-01-14T16:49:27Z</time>
      </trkpt>
      <trkpt lat="42.87845" lon="0.01841">
        <ele>828</ele>
        <time>2022-01-14T16:50:34Z</time>
      </trkpt>
      <trkpt lat="42.87818" lon="0.01478">
        <ele>817</ele>
        <time>2022-01-14T16:51:36Z</time>
      </trkpt>
      <trkpt lat="42.87819" lon="0.01323">
        <ele>806</ele>
        <time>2022-01-14T16:52:03Z</time>
      </trkpt>
      <trkpt lat="42.87811" lon="0.01272">
        <ele>804</ele>
        <time>2022-01-14T16:52:11Z</time>
      </trkpt>
      <trkpt lat="42.87775" lon="0.01161">
        <ele>799</ele>
        <time>2022-01-14T16:52:32Z</time>
      </trkpt>
      <trkpt lat="42.87729" lon="0.01041">
        <ele>789</ele>
        <time>2022-01-14T16:52:55Z</time>
      </trkpt>
      <trkpt lat="42.87686" lon="0.00912">
        <ele>784</ele>
        <time>2022-01-14T16:53:20Z</time>
      </trkpt>
      <trkpt lat="42.8767" lon="0.00877">
        <ele>779</ele>
        <time>2022-01-14T16:53:27Z</time>
      </trkpt>
      <trkpt lat="42.87589" lon="0.0076">
        <ele>766</ele>
        <time>2022-01-14T16:53:54Z</time>
      </trkpt>
      <trkpt lat="42.8758" lon="0.0075">
        <ele>763</ele>
        <time>2022-01-14T16:53:57Z</time>
      </trkpt>
      <trkpt lat="42.87423" lon="0.00512">
        <ele>747</ele>
        <time>2022-01-14T16:54:52Z</time>
      </trkpt>
      <trkpt lat="42.87408" lon="0.00475">
        <ele>745</ele>
        <time>2022-01-14T16:54:59Z</time>
      </trkpt>
      <trkpt lat="42.87313" lon="0.00111">
        <ele>735</ele>
        <time>2022-01-14T16:56:05Z</time>
      </trkpt>
      <trkpt lat="42.87231" lon="-0.0017">
        <ele>728</ele>
        <time>2022-01-14T16:56:57Z</time>
      </trkpt>
      <trkpt lat="42.87231" lon="-0.0018">
        <ele>728</ele>
        <time>2022-01-14T16:56:59Z</time>
      </trkpt>
      <trkpt lat="42.87239" lon="-0.00199">
        <ele>726</ele>
        <time>2022-01-14T16:57:02Z</time>
      </trkpt>
      <trkpt lat="42.87273" lon="-0.00251">
        <ele>721</ele>
        <time>2022-01-14T16:57:14Z</time>
      </trkpt>
      <trkpt lat="42.87312" lon="-0.00325">
        <ele>716</ele>
        <time>2022-01-14T16:57:30Z</time>
      </trkpt>
      <trkpt lat="42.87331" lon="-0.00334">
        <ele>715</ele>
        <time>2022-01-14T16:57:35Z</time>
      </trkpt>
      <trkpt lat="42.87373" lon="-0.00336">
        <ele>714</ele>
        <time>2022-01-14T16:57:44Z</time>
      </trkpt>
      <trkpt lat="42.87394" lon="-0.00328">
        <ele>714</ele>
        <time>2022-01-14T16:57:49Z</time>
      </trkpt>
      <trkpt lat="42.87404" lon="-0.00299">
        <ele>715</ele>
        <time>2022-01-14T16:57:55Z</time>
      </trkpt>
      <trkpt lat="42.87406" lon="-0.00286">
        <ele>716</ele>
        <time>2022-01-14T16:57:57Z</time>
      </trkpt>
      <trkpt lat="42.87421" lon="-0.00284">
        <ele>716</ele>
        <time>2022-01-14T16:58:01Z</time>
      </trkpt>
      <trkpt lat="42.87444" lon="-0.00314">
        <ele>714</ele>
        <time>2022-01-14T16:58:08Z</time>
      </trkpt>
      <trkpt lat="42.87478" lon="-0.00371">
        <ele>710</ele>
        <time>2022-01-14T16:58:21Z</time>
      </trkpt>
      <trkpt lat="42.87581" lon="-0.00515">
        <ele>701</ele>
        <time>2022-01-14T16:58:55Z</time>
      </trkpt>
      <trkpt lat="42.87767" lon="-0.00791">
        <ele>692</ele>
        <time>2022-01-14T16:59:59Z</time>
      </trkpt>
      <trkpt lat="42.87837" lon="-0.009">
        <ele>686</ele>
        <time>2022-01-14T17:00:24Z</time>
      </trkpt>
      <trkpt lat="42.88014" lon="-0.01157">
        <ele>678</ele>
        <time>2022-01-14T17:01:25Z</time>
      </trkpt>
      <trkpt lat="42.88023" lon="-0.01167">
        <ele>677</ele>
        <time>2022-01-14T17:01:27Z</time>
      </trkpt>
      <trkpt lat="42.88053" lon="-0.01192">
        <ele>674</ele>
        <time>2022-01-14T17:01:35Z</time>
      </trkpt>
      <trkpt lat="42.88125" lon="-0.01245">
        <ele>669</ele>
        <time>2022-01-14T17:01:55Z</time>
      </trkpt>
      <trkpt lat="42.88195" lon="-0.01304">
        <ele>666</ele>
        <time>2022-01-14T17:02:14Z</time>
      </trkpt>
      <trkpt lat="42.88263" lon="-0.01352">
        <ele>663</ele>
        <time>2022-01-14T17:02:32Z</time>
      </trkpt>
      <trkpt lat="42.88278" lon="-0.0136">
        <ele>662</ele>
        <time>2022-01-14T17:02:35Z</time>
      </trkpt>
      <trkpt lat="42.88274" lon="-0.01365">
        <ele>662</ele>
        <time>2022-01-14T17:02:37Z</time>
      </trkpt>
      <trkpt lat="42.88352" lon="-0.01424">
        <ele>658</ele>
        <time>2022-01-14T17:02:57Z</time>
      </trkpt>
      <trkpt lat="42.88401" lon="-0.0146">
        <ele>656</ele>
        <time>2022-01-14T17:03:10Z</time>
      </trkpt>
      <trkpt lat="42.88491" lon="-0.01519">
        <ele>654</ele>
        <time>2022-01-14T17:03:34Z</time>
      </trkpt>
      <trkpt lat="42.88517" lon="-0.01539">
        <ele>655</ele>
        <time>2022-01-14T17:03:41Z</time>
      </trkpt>
      <trkpt lat="42.88536" lon="-0.01566">
        <ele>655</ele>
        <time>2022-01-14T17:03:47Z</time>
      </trkpt>
      <trkpt lat="42.88542" lon="-0.01591">
        <ele>653</ele>
        <time>2022-01-14T17:03:52Z</time>
      </trkpt>
      <trkpt lat="42.88544" lon="-0.01633">
        <ele>655</ele>
        <time>2022-01-14T17:03:59Z</time>
      </trkpt>
      <trkpt lat="42.88568" lon="-0.01675">
        <ele>658</ele>
        <time>2022-01-14T17:04:08Z</time>
      </trkpt>
      <trkpt lat="42.88607" lon="-0.01704">
        <ele>665</ele>
        <time>2022-01-14T17:04:18Z</time>
      </trkpt>
      <trkpt lat="42.88758" lon="-0.01839">
        <ele>666</ele>
        <time>2022-01-14T17:05:01Z</time>
      </trkpt>
      <trkpt lat="42.8882" lon="-0.01896">
        <ele>667</ele>
        <time>2022-01-14T17:05:18Z</time>
      </trkpt>
      <trkpt lat="42.88838" lon="-0.01917">
        <ele>665</ele>
        <time>2022-01-14T17:05:24Z</time>
      </trkpt>
      <trkpt lat="42.88854" lon="-0.01942">
        <ele>668</ele>
        <time>2022-01-14T17:05:29Z</time>
      </trkpt>
      <trkpt lat="42.88902" lon="-0.02034">
        <ele>668</ele>
        <time>2022-01-14T17:05:49Z</time>
      </trkpt>
      <trkpt lat="42.88918" lon="-0.02057">
        <ele>667</ele>
        <time>2022-01-14T17:05:54Z</time>
      </trkpt>
      <trkpt lat="42.88935" lon="-0.02075">
        <ele>668</ele>
        <time>2022-01-14T17:05:59Z</time>
      </trkpt>
      <trkpt lat="42.88972" lon="-0.02107">
        <ele>662</ele>
        <time>2022-01-14T17:06:09Z</time>
      </trkpt>
      <trkpt lat="42.89002" lon="-0.02147">
        <ele>657</ele>
        <time>2022-01-14T17:06:19Z</time>
      </trkpt>
      <trkpt lat="42.89094" lon="-0.0233">
        <ele>653</ele>
        <time>2022-01-14T17:06:57Z</time>
      </trkpt>
      <trkpt lat="42.89117" lon="-0.02361">
        <ele>652</ele>
        <time>2022-01-14T17:07:05Z</time>
      </trkpt>
      <trkpt lat="42.89134" lon="-0.02379">
        <ele>649</ele>
        <time>2022-01-14T17:07:10Z</time>
      </trkpt>
      <trkpt lat="42.89282" lon="-0.02474">
        <ele>638</ele>
        <time>2022-01-14T17:07:48Z</time>
      </trkpt>
      <trkpt lat="42.89711" lon="-0.02736">
        <ele>628</ele>
        <time>2022-01-14T17:09:37Z</time>
      </trkpt>
      <trkpt lat="42.89779" lon="-0.0278">
        <ele>628</ele>
        <time>2022-01-14T17:09:55Z</time>
      </trkpt>
      <trkpt lat="42.8989" lon="-0.0284">
        <ele>627</ele>
        <time>2022-01-14T17:10:23Z</time>
      </trkpt>
      <trkpt lat="42.8999" lon="-0.0292">
        <ele>629</ele>
        <time>2022-01-14T17:10:50Z</time>
      </trkpt>
      <trkpt lat="42.90043" lon="-0.02957">
        <ele>629</ele>
        <time>2022-01-14T17:11:04Z</time>
      </trkpt>
      <trkpt lat="42.90159" lon="-0.03046">
        <ele>625</ele>
        <time>2022-01-14T17:11:35Z</time>
      </trkpt>
      <trkpt lat="42.9027" lon="-0.03125">
        <ele>629</ele>
        <time>2022-01-14T17:12:04Z</time>
      </trkpt>
      <trkpt lat="42.90329" lon="-0.03155">
        <ele>630</ele>
        <time>2022-01-14T17:12:19Z</time>
      </trkpt>
      <trkpt lat="42.9034" lon="-0.03156">
        <ele>630</ele>
        <time>2022-01-14T17:12:22Z</time>
      </trkpt>
      <trkpt lat="42.90361" lon="-0.03152">
        <ele>628</ele>
        <time>2022-01-14T17:12:26Z</time>
      </trkpt>
      <trkpt lat="42.90394" lon="-0.0314">
        <ele>626</ele>
        <time>2022-01-14T17:12:34Z</time>
      </trkpt>
      <trkpt lat="42.90414" lon="-0.03151">
        <ele>627</ele>
        <time>2022-01-14T17:12:39Z</time>
      </trkpt>
      <trkpt lat="42.90436" lon="-0.03192">
        <ele>631</ele>
        <time>2022-01-14T17:12:48Z</time>
      </trkpt>
      <trkpt lat="42.9047" lon="-0.03244">
        <ele>628</ele>
        <time>2022-01-14T17:13:00Z</time>
      </trkpt>
      <trkpt lat="42.90528" lon="-0.03351">
        <ele>627</ele>
        <time>2022-01-14T17:13:23Z</time>
      </trkpt>
      <trkpt lat="42.90567" lon="-0.03406">
        <ele>616</ele>
        <time>2022-01-14T17:13:36Z</time>
      </trkpt>
      <trkpt lat="42.90592" lon="-0.0347">
        <ele>610</ele>
        <time>2022-01-14T17:13:48Z</time>
      </trkpt>
      <trkpt lat="42.90611" lon="-0.03481">
        <ele>610</ele>
        <time>2022-01-14T17:13:53Z</time>
      </trkpt>
      <trkpt lat="42.90645" lon="-0.03447">
        <ele>621</ele>
        <time>2022-01-14T17:14:03Z</time>
      </trkpt>
      <trkpt lat="42.90667" lon="-0.03457">
        <ele>622</ele>
        <time>2022-01-14T17:14:08Z</time>
      </trkpt>
      <trkpt lat="42.90694" lon="-0.03488">
        <ele>620</ele>
        <time>2022-01-14T17:14:17Z</time>
      </trkpt>
      <trkpt lat="42.90734" lon="-0.03508">
        <ele>622</ele>
        <time>2022-01-14T17:14:27Z</time>
      </trkpt>
      <trkpt lat="42.90784" lon="-0.0355">
        <ele>624</ele>
        <time>2022-01-14T17:14:40Z</time>
      </trkpt>
      <trkpt lat="42.90821" lon="-0.03575">
        <ele>625</ele>
        <time>2022-01-14T17:14:50Z</time>
      </trkpt>
      <trkpt lat="42.90834" lon="-0.03587">
        <ele>624</ele>
        <time>2022-01-14T17:14:54Z</time>
      </trkpt>
      <trkpt lat="42.90866" lon="-0.03626">
        <ele>629</ele>
        <time>2022-01-14T17:15:04Z</time>
      </trkpt>
      <trkpt lat="42.90905" lon="-0.03656">
        <ele>630</ele>
        <time>2022-01-14T17:15:14Z</time>
      </trkpt>
      <trkpt lat="42.90953" lon="-0.03675">
        <ele>631</ele>
        <time>2022-01-14T17:15:26Z</time>
      </trkpt>
      <trkpt lat="42.90985" lon="-0.03675">
        <ele>632</ele>
        <time>2022-01-14T17:15:33Z</time>
      </trkpt>
      <trkpt lat="42.91004" lon="-0.03666">
        <ele>634</ele>
        <time>2022-01-14T17:15:38Z</time>
      </trkpt>
      <trkpt lat="42.91018" lon="-0.03663">
        <ele>637</ele>
        <time>2022-01-14T17:15:41Z</time>
      </trkpt>
      <trkpt lat="42.91103" lon="-0.03674">
        <ele>647</ele>
        <time>2022-01-14T17:16:01Z</time>
      </trkpt>
      <trkpt lat="42.91168" lon="-0.03722">
        <ele>641</ele>
        <time>2022-01-14T17:16:18Z</time>
      </trkpt>
      <trkpt lat="42.91207" lon="-0.03733">
        <ele>635</ele>
        <time>2022-01-14T17:16:28Z</time>
      </trkpt>
      <trkpt lat="42.9123" lon="-0.03746">
        <ele>628</ele>
        <time>2022-01-14T17:16:34Z</time>
      </trkpt>
      <trkpt lat="42.91275" lon="-0.03739">
        <ele>626</ele>
        <time>2022-01-14T17:16:44Z</time>
      </trkpt>
      <trkpt lat="42.91303" lon="-0.03722">
        <ele>631</ele>
        <time>2022-01-14T17:16:51Z</time>
      </trkpt>
      <trkpt lat="42.91342" lon="-0.03712">
        <ele>632</ele>
        <time>2022-01-14T17:17:01Z</time>
      </trkpt>
      <trkpt lat="42.9139" lon="-0.03684">
        <ele>656</ele>
        <time>2022-01-14T17:17:13Z</time>
      </trkpt>
      <trkpt lat="42.91417" lon="-0.03694">
        <ele>650</ele>
        <time>2022-01-14T17:17:19Z</time>
      </trkpt>
      <trkpt lat="42.91539" lon="-0.03781">
        <ele>621</ele>
        <time>2022-01-14T17:17:51Z</time>
      </trkpt>
      <trkpt lat="42.91624" lon="-0.03832">
        <ele>619</ele>
        <time>2022-01-14T17:18:13Z</time>
      </trkpt>
      <trkpt lat="42.91644" lon="-0.03837">
        <ele>625</ele>
        <time>2022-01-14T17:18:18Z</time>
      </trkpt>
      <trkpt lat="42.91661" lon="-0.03853">
        <ele>625</ele>
        <time>2022-01-14T17:18:23Z</time>
      </trkpt>
      <trkpt lat="42.91713" lon="-0.03942">
        <ele>611</ele>
        <time>2022-01-14T17:18:42Z</time>
      </trkpt>
      <trkpt lat="42.9175" lon="-0.03993">
        <ele>604</ele>
        <time>2022-01-14T17:18:54Z</time>
      </trkpt>
      <trkpt lat="42.91813" lon="-0.04006">
        <ele>613</ele>
        <time>2022-01-14T17:19:09Z</time>
      </trkpt>
      <trkpt lat="42.91829" lon="-0.04017">
        <ele>612</ele>
        <time>2022-01-14T17:19:13Z</time>
      </trkpt>
      <trkpt lat="42.91852" lon="-0.0404">
        <ele>606</ele>
        <time>2022-01-14T17:19:20Z</time>
      </trkpt>
      <trkpt lat="42.91879" lon="-0.04059">
        <ele>599</ele>
        <time>2022-01-14T17:19:27Z</time>
      </trkpt>
      <trkpt lat="42.9191" lon="-0.04053">
        <ele>603</ele>
        <time>2022-01-14T17:19:35Z</time>
      </trkpt>
      <trkpt lat="42.91953" lon="-0.04031">
        <ele>614</ele>
        <time>2022-01-14T17:19:45Z</time>
      </trkpt>
      <trkpt lat="42.92101" lon="-0.04076">
        <ele>626</ele>
        <time>2022-01-14T17:20:21Z</time>
      </trkpt>
      <trkpt lat="42.92132" lon="-0.04093">
        <ele>624</ele>
        <time>2022-01-14T17:20:28Z</time>
      </trkpt>
      <trkpt lat="42.92141" lon="-0.04095">
        <ele>625</ele>
        <time>2022-01-14T17:20:31Z</time>
      </trkpt>
      <trkpt lat="42.92194" lon="-0.0409">
        <ele>628</ele>
        <time>2022-01-14T17:20:43Z</time>
      </trkpt>
      <trkpt lat="42.92238" lon="-0.04047">
        <ele>648</ele>
        <time>2022-01-14T17:20:56Z</time>
      </trkpt>
      <trkpt lat="42.9228" lon="-0.04054">
        <ele>636</ele>
        <time>2022-01-14T17:21:06Z</time>
      </trkpt>
      <trkpt lat="42.92289" lon="-0.04052">
        <ele>636</ele>
        <time>2022-01-14T17:21:08Z</time>
      </trkpt>
      <trkpt lat="42.92299" lon="-0.04057">
        <ele>631</ele>
        <time>2022-01-14T17:21:10Z</time>
      </trkpt>
      <trkpt lat="42.92308" lon="-0.04058">
        <ele>629</ele>
        <time>2022-01-14T17:21:12Z</time>
      </trkpt>
      <trkpt lat="42.92333" lon="-0.04072">
        <ele>617</ele>
        <time>2022-01-14T17:21:19Z</time>
      </trkpt>
      <trkpt lat="42.92353" lon="-0.0408">
        <ele>616</ele>
        <time>2022-01-14T17:21:23Z</time>
      </trkpt>
      <trkpt lat="42.92394" lon="-0.04081">
        <ele>624</ele>
        <time>2022-01-14T17:21:33Z</time>
      </trkpt>
      <trkpt lat="42.92411" lon="-0.04087">
        <ele>625</ele>
        <time>2022-01-14T17:21:37Z</time>
      </trkpt>
      <trkpt lat="42.92427" lon="-0.04105">
        <ele>623</ele>
        <time>2022-01-14T17:21:42Z</time>
      </trkpt>
      <trkpt lat="42.92435" lon="-0.0412">
        <ele>619</ele>
        <time>2022-01-14T17:21:45Z</time>
      </trkpt>
      <trkpt lat="42.92444" lon="-0.04131">
        <ele>617</ele>
        <time>2022-01-14T17:21:48Z</time>
      </trkpt>
      <trkpt lat="42.92481" lon="-0.04167">
        <ele>610</ele>
        <time>2022-01-14T17:21:59Z</time>
      </trkpt>
      <trkpt lat="42.92521" lon="-0.042">
        <ele>608</ele>
        <time>2022-01-14T17:22:09Z</time>
      </trkpt>
      <trkpt lat="42.92554" lon="-0.04218">
        <ele>601</ele>
        <time>2022-01-14T17:22:18Z</time>
      </trkpt>
      <trkpt lat="42.92587" lon="-0.04204">
        <ele>605</ele>
        <time>2022-01-14T17:22:26Z</time>
      </trkpt>
      <trkpt lat="42.92605" lon="-0.04181">
        <ele>609</ele>
        <time>2022-01-14T17:22:32Z</time>
      </trkpt>
      <trkpt lat="42.92628" lon="-0.04165">
        <ele>608</ele>
        <time>2022-01-14T17:22:38Z</time>
      </trkpt>
      <trkpt lat="42.92656" lon="-0.04161">
        <ele>600</ele>
        <time>2022-01-14T17:22:44Z</time>
      </trkpt>
      <trkpt lat="42.92721" lon="-0.04171">
        <ele>598</ele>
        <time>2022-01-14T17:22:59Z</time>
      </trkpt>
      <trkpt lat="42.9277" lon="-0.04191">
        <ele>598</ele>
        <time>2022-01-14T17:23:11Z</time>
      </trkpt>
      <trkpt lat="42.92818" lon="-0.04217">
        <ele>595</ele>
        <time>2022-01-14T17:23:23Z</time>
      </trkpt>
      <trkpt lat="42.92851" lon="-0.04239">
        <ele>592</ele>
        <time>2022-01-14T17:23:32Z</time>
      </trkpt>
      <trkpt lat="42.92898" lon="-0.0426">
        <ele>598</ele>
        <time>2022-01-14T17:23:44Z</time>
      </trkpt>
      <trkpt lat="42.9291" lon="-0.04263">
        <ele>600</ele>
        <time>2022-01-14T17:23:46Z</time>
      </trkpt>
      <trkpt lat="42.92931" lon="-0.04278">
        <ele>605</ele>
        <time>2022-01-14T17:23:52Z</time>
      </trkpt>
      <trkpt lat="42.9295" lon="-0.04303">
        <ele>606</ele>
        <time>2022-01-14T17:23:58Z</time>
      </trkpt>
      <trkpt lat="42.92982" lon="-0.04357">
        <ele>601</ele>
        <time>2022-01-14T17:24:10Z</time>
      </trkpt>
      <trkpt lat="42.93006" lon="-0.04455">
        <ele>573</ele>
        <time>2022-01-14T17:24:28Z</time>
      </trkpt>
      <trkpt lat="42.93018" lon="-0.04493">
        <ele>566</ele>
        <time>2022-01-14T17:24:35Z</time>
      </trkpt>
      <trkpt lat="42.93032" lon="-0.04525">
        <ele>566</ele>
        <time>2022-01-14T17:24:41Z</time>
      </trkpt>
      <trkpt lat="42.93074" lon="-0.04585">
        <ele>558</ele>
        <time>2022-01-14T17:24:55Z</time>
      </trkpt>
      <trkpt lat="42.93087" lon="-0.04596">
        <ele>558</ele>
        <time>2022-01-14T17:24:59Z</time>
      </trkpt>
      <trkpt lat="42.931" lon="-0.04604">
        <ele>558</ele>
        <time>2022-01-14T17:25:02Z</time>
      </trkpt>
      <trkpt lat="42.93114" lon="-0.04609">
        <ele>559</ele>
        <time>2022-01-14T17:25:06Z</time>
      </trkpt>
      <trkpt lat="42.93169" lon="-0.04608">
        <ele>568</ele>
        <time>2022-01-14T17:25:18Z</time>
      </trkpt>
      <trkpt lat="42.93197" lon="-0.04613">
        <ele>571</ele>
        <time>2022-01-14T17:25:25Z</time>
      </trkpt>
      <trkpt lat="42.93224" lon="-0.04624">
        <ele>570</ele>
        <time>2022-01-14T17:25:32Z</time>
      </trkpt>
      <trkpt lat="42.93285" lon="-0.04665">
        <ele>566</ele>
        <time>2022-01-14T17:25:48Z</time>
      </trkpt>
      <trkpt lat="42.93308" lon="-0.04675">
        <ele>575</ele>
        <time>2022-01-14T17:25:53Z</time>
      </trkpt>
      <trkpt lat="42.93363" lon="-0.04713">
        <ele>583</ele>
        <time>2022-01-14T17:26:08Z</time>
      </trkpt>
      <trkpt lat="42.93427" lon="-0.04763">
        <ele>591</ele>
        <time>2022-01-14T17:26:25Z</time>
      </trkpt>
      <trkpt lat="42.93445" lon="-0.04784">
        <ele>590</ele>
        <time>2022-01-14T17:26:30Z</time>
      </trkpt>
      <trkpt lat="42.93487" lon="-0.04846">
        <ele>584</ele>
        <time>2022-01-14T17:26:45Z</time>
      </trkpt>
      <trkpt lat="42.93519" lon="-0.04841">
        <ele>584</ele>
        <time>2022-01-14T17:26:52Z</time>
      </trkpt>
      <trkpt lat="42.93534" lon="-0.04836">
        <ele>583</ele>
        <time>2022-01-14T17:26:56Z</time>
      </trkpt>
      <trkpt lat="42.93565" lon="-0.04839">
        <ele>577</ele>
        <time>2022-01-14T17:27:03Z</time>
      </trkpt>
      <trkpt lat="42.93621" lon="-0.04835">
        <ele>568</ele>
        <time>2022-01-14T17:27:16Z</time>
      </trkpt>
      <trkpt lat="42.93644" lon="-0.04839">
        <ele>562</ele>
        <time>2022-01-14T17:27:22Z</time>
      </trkpt>
      <trkpt lat="42.93676" lon="-0.04853">
        <ele>556</ele>
        <time>2022-01-14T17:27:29Z</time>
      </trkpt>
      <trkpt lat="42.93693" lon="-0.04872">
        <ele>555</ele>
        <time>2022-01-14T17:27:35Z</time>
      </trkpt>
      <trkpt lat="42.93712" lon="-0.04912">
        <ele>544</ele>
        <time>2022-01-14T17:27:43Z</time>
      </trkpt>
      <trkpt lat="42.93735" lon="-0.0495">
        <ele>546</ele>
        <time>2022-01-14T17:27:51Z</time>
      </trkpt>
      <trkpt lat="42.93745" lon="-0.04959">
        <ele>545</ele>
        <time>2022-01-14T17:27:54Z</time>
      </trkpt>
      <trkpt lat="42.9383" lon="-0.05008">
        <ele>537</ele>
        <time>2022-01-14T17:28:16Z</time>
      </trkpt>
      <trkpt lat="42.93882" lon="-0.05034">
        <ele>542</ele>
        <time>2022-01-14T17:28:28Z</time>
      </trkpt>
      <trkpt lat="42.93909" lon="-0.05061">
        <ele>537</ele>
        <time>2022-01-14T17:28:36Z</time>
      </trkpt>
      <trkpt lat="42.9393" lon="-0.05097">
        <ele>536</ele>
        <time>2022-01-14T17:28:44Z</time>
      </trkpt>
      <trkpt lat="42.93942" lon="-0.05123">
        <ele>539</ele>
        <time>2022-01-14T17:28:49Z</time>
      </trkpt>
      <trkpt lat="42.9395" lon="-0.05152">
        <ele>537</ele>
        <time>2022-01-14T17:28:55Z</time>
      </trkpt>
      <trkpt lat="42.93966" lon="-0.05235">
        <ele>531</ele>
        <time>2022-01-14T17:29:09Z</time>
      </trkpt>
      <trkpt lat="42.93994" lon="-0.05317">
        <ele>523</ele>
        <time>2022-01-14T17:29:25Z</time>
      </trkpt>
      <trkpt lat="42.94003" lon="-0.05326">
        <ele>520</ele>
        <time>2022-01-14T17:29:27Z</time>
      </trkpt>
      <trkpt lat="42.94026" lon="-0.05338">
        <ele>518</ele>
        <time>2022-01-14T17:29:33Z</time>
      </trkpt>
      <trkpt lat="42.94038" lon="-0.05336">
        <ele>516</ele>
        <time>2022-01-14T17:29:36Z</time>
      </trkpt>
      <trkpt lat="42.94124" lon="-0.05275">
        <ele>518</ele>
        <time>2022-01-14T17:29:59Z</time>
      </trkpt>
      <trkpt lat="42.94133" lon="-0.05265">
        <ele>517</ele>
        <time>2022-01-14T17:30:01Z</time>
      </trkpt>
      <trkpt lat="42.94153" lon="-0.05228">
        <ele>526</ele>
        <time>2022-01-14T17:30:09Z</time>
      </trkpt>
      <trkpt lat="42.94176" lon="-0.05216">
        <ele>531</ele>
        <time>2022-01-14T17:30:15Z</time>
      </trkpt>
      <trkpt lat="42.94253" lon="-0.05278">
        <ele>518</ele>
        <time>2022-01-14T17:30:36Z</time>
      </trkpt>
      <trkpt lat="42.94284" lon="-0.05309">
        <ele>516</ele>
        <time>2022-01-14T17:30:45Z</time>
      </trkpt>
      <trkpt lat="42.94393" lon="-0.05373">
        <ele>516</ele>
        <time>2022-01-14T17:31:13Z</time>
      </trkpt>
      <trkpt lat="42.94426" lon="-0.05411">
        <ele>508</ele>
        <time>2022-01-14T17:31:23Z</time>
      </trkpt>
      <trkpt lat="42.94471" lon="-0.05457">
        <ele>514</ele>
        <time>2022-01-14T17:31:36Z</time>
      </trkpt>
      <trkpt lat="42.94559" lon="-0.05571">
        <ele>511</ele>
        <time>2022-01-14T17:32:04Z</time>
      </trkpt>
      <trkpt lat="42.946" lon="-0.0562">
        <ele>513</ele>
        <time>2022-01-14T17:32:17Z</time>
      </trkpt>
      <trkpt lat="42.94653" lon="-0.05675">
        <ele>516</ele>
        <time>2022-01-14T17:32:32Z</time>
      </trkpt>
      <trkpt lat="42.94667" lon="-0.05692">
        <ele>513</ele>
        <time>2022-01-14T17:32:37Z</time>
      </trkpt>
      <trkpt lat="42.94679" lon="-0.05712">
        <ele>516</ele>
        <time>2022-01-14T17:32:41Z</time>
      </trkpt>
      <trkpt lat="42.94689" lon="-0.05734">
        <ele>517</ele>
        <time>2022-01-14T17:32:46Z</time>
      </trkpt>
      <trkpt lat="42.947" lon="-0.05771">
        <ele>517</ele>
        <time>2022-01-14T17:32:52Z</time>
      </trkpt>
      <trkpt lat="42.94711" lon="-0.05853">
        <ele>510</ele>
        <time>2022-01-14T17:33:07Z</time>
      </trkpt>
      <trkpt lat="42.9472" lon="-0.05893">
        <ele>507</ele>
        <time>2022-01-14T17:33:14Z</time>
      </trkpt>
      <trkpt lat="42.94767" lon="-0.06009">
        <ele>506</ele>
        <time>2022-01-14T17:33:36Z</time>
      </trkpt>
      <trkpt lat="42.94795" lon="-0.0605">
        <ele>514</ele>
        <time>2022-01-14T17:33:46Z</time>
      </trkpt>
      <trkpt lat="42.9482" lon="-0.06095">
        <ele>505</ele>
        <time>2022-01-14T17:33:56Z</time>
      </trkpt>
      <trkpt lat="42.94873" lon="-0.06202">
        <ele>507</ele>
        <time>2022-01-14T17:34:18Z</time>
      </trkpt>
      <trkpt lat="42.94882" lon="-0.06229">
        <ele>505</ele>
        <time>2022-01-14T17:34:23Z</time>
      </trkpt>
      <trkpt lat="42.94888" lon="-0.06258">
        <ele>503</ele>
        <time>2022-01-14T17:34:28Z</time>
      </trkpt>
      <trkpt lat="42.94899" lon="-0.06282">
        <ele>501</ele>
        <time>2022-01-14T17:34:33Z</time>
      </trkpt>
      <trkpt lat="42.94933" lon="-0.06334">
        <ele>496</ele>
        <time>2022-01-14T17:34:45Z</time>
      </trkpt>
      <trkpt lat="42.94955" lon="-0.0638">
        <ele>502</ele>
        <time>2022-01-14T17:34:54Z</time>
      </trkpt>
      <trkpt lat="42.94994" lon="-0.06491">
        <ele>494</ele>
        <time>2022-01-14T17:35:15Z</time>
      </trkpt>
      <trkpt lat="42.95026" lon="-0.06646">
        <ele>492</ele>
        <time>2022-01-14T17:35:43Z</time>
      </trkpt>
      <trkpt lat="42.95051" lon="-0.06742">
        <ele>489</ele>
        <time>2022-01-14T17:36:00Z</time>
      </trkpt>
      <trkpt lat="42.95067" lon="-0.06758">
        <ele>486</ele>
        <time>2022-01-14T17:36:05Z</time>
      </trkpt>
      <trkpt lat="42.95088" lon="-0.06763">
        <ele>482</ele>
        <time>2022-01-14T17:36:10Z</time>
      </trkpt>
      <trkpt lat="42.951" lon="-0.06771">
        <ele>482</ele>
        <time>2022-01-14T17:36:13Z</time>
      </trkpt>
      <trkpt lat="42.95097" lon="-0.06808">
        <ele>485</ele>
        <time>2022-01-14T17:36:19Z</time>
      </trkpt>
      <trkpt lat="42.95105" lon="-0.06834">
        <ele>486</ele>
        <time>2022-01-14T17:36:24Z</time>
      </trkpt>
      <trkpt lat="42.95138" lon="-0.06893">
        <ele>492</ele>
        <time>2022-01-14T17:36:37Z</time>
      </trkpt>
      <trkpt lat="42.9516" lon="-0.06953">
        <ele>503</ele>
        <time>2022-01-14T17:36:48Z</time>
      </trkpt>
      <trkpt lat="42.95182" lon="-0.06975">
        <ele>504</ele>
        <time>2022-01-14T17:36:55Z</time>
      </trkpt>
      <trkpt lat="42.95205" lon="-0.06983">
        <ele>501</ele>
        <time>2022-01-14T17:37:00Z</time>
      </trkpt>
      <trkpt lat="42.95244" lon="-0.06986">
        <ele>491</ele>
        <time>2022-01-14T17:37:09Z</time>
      </trkpt>
      <trkpt lat="42.95277" lon="-0.07">
        <ele>488</ele>
        <time>2022-01-14T17:37:17Z</time>
      </trkpt>
      <trkpt lat="42.95395" lon="-0.07071">
        <ele>490</ele>
        <time>2022-01-14T17:37:47Z</time>
      </trkpt>
      <trkpt lat="42.95443" lon="-0.07103">
        <ele>490</ele>
        <time>2022-01-14T17:38:00Z</time>
      </trkpt>
      <trkpt lat="42.95473" lon="-0.07127">
        <ele>490</ele>
        <time>2022-01-14T17:38:08Z</time>
      </trkpt>
      <trkpt lat="42.95494" lon="-0.07149">
        <ele>488</ele>
        <time>2022-01-14T17:38:14Z</time>
      </trkpt>
      <trkpt lat="42.95522" lon="-0.07186">
        <ele>487</ele>
        <time>2022-01-14T17:38:23Z</time>
      </trkpt>
      <trkpt lat="42.95574" lon="-0.07261">
        <ele>488</ele>
        <time>2022-01-14T17:38:41Z</time>
      </trkpt>
      <trkpt lat="42.95656" lon="-0.07391">
        <ele>494</ele>
        <time>2022-01-14T17:39:10Z</time>
      </trkpt>
      <trkpt lat="42.95669" lon="-0.07421">
        <ele>495</ele>
        <time>2022-01-14T17:39:16Z</time>
      </trkpt>
      <trkpt lat="42.95677" lon="-0.07447">
        <ele>497</ele>
        <time>2022-01-14T17:39:21Z</time>
      </trkpt>
      <trkpt lat="42.95682" lon="-0.07476">
        <ele>498</ele>
        <time>2022-01-14T17:39:26Z</time>
      </trkpt>
      <trkpt lat="42.95687" lon="-0.07485">
        <ele>498</ele>
        <time>2022-01-14T17:39:28Z</time>
      </trkpt>
      <trkpt lat="42.95695" lon="-0.07492">
        <ele>498</ele>
        <time>2022-01-14T17:39:30Z</time>
      </trkpt>
      <trkpt lat="42.95728" lon="-0.07504">
        <ele>495</ele>
        <time>2022-01-14T17:39:38Z</time>
      </trkpt>
      <trkpt lat="42.95753" lon="-0.07503">
        <ele>493</ele>
        <time>2022-01-14T17:39:44Z</time>
      </trkpt>
      <trkpt lat="42.95788" lon="-0.07489">
        <ele>493</ele>
        <time>2022-01-14T17:39:53Z</time>
      </trkpt>
      <trkpt lat="42.95835" lon="-0.07474">
        <ele>493</ele>
        <time>2022-01-14T17:40:04Z</time>
      </trkpt>
      <trkpt lat="42.95877" lon="-0.07453">
        <ele>491</ele>
        <time>2022-01-14T17:40:14Z</time>
      </trkpt>
      <trkpt lat="42.95904" lon="-0.07449">
        <ele>490</ele>
        <time>2022-01-14T17:40:21Z</time>
      </trkpt>
      <trkpt lat="42.95932" lon="-0.07436">
        <ele>489</ele>
        <time>2022-01-14T17:40:28Z</time>
      </trkpt>
      <trkpt lat="42.9594" lon="-0.07435">
        <ele>488</ele>
        <time>2022-01-14T17:40:29Z</time>
      </trkpt>
      <trkpt lat="42.95963" lon="-0.07438">
        <ele>487</ele>
        <time>2022-01-14T17:40:35Z</time>
      </trkpt>
      <trkpt lat="42.96042" lon="-0.07435">
        <ele>483</ele>
        <time>2022-01-14T17:40:53Z</time>
      </trkpt>
      <trkpt lat="42.96143" lon="-0.07441">
        <ele>478</ele>
        <time>2022-01-14T17:41:17Z</time>
      </trkpt>
      <trkpt lat="42.96204" lon="-0.07439">
        <ele>476</ele>
        <time>2022-01-14T17:41:31Z</time>
      </trkpt>
      <trkpt lat="42.96293" lon="-0.07443">
        <ele>475</ele>
        <time>2022-01-14T17:41:52Z</time>
      </trkpt>
      <trkpt lat="42.96329" lon="-0.07443">
        <ele>474</ele>
        <time>2022-01-14T17:42:00Z</time>
      </trkpt>
      <trkpt lat="42.9635" lon="-0.0744">
        <ele>473</ele>
        <time>2022-01-14T17:42:05Z</time>
      </trkpt>
      <trkpt lat="42.96575" lon="-0.07376">
        <ele>465</ele>
        <time>2022-01-14T17:42:59Z</time>
      </trkpt>
      <trkpt lat="42.96598" lon="-0.07362">
        <ele>464</ele>
        <time>2022-01-14T17:43:05Z</time>
      </trkpt>
      <trkpt lat="42.96611" lon="-0.07337">
        <ele>463</ele>
        <time>2022-01-14T17:43:10Z</time>
      </trkpt>
      <trkpt lat="42.96617" lon="-0.07331">
        <ele>463</ele>
        <time>2022-01-14T17:43:12Z</time>
      </trkpt>
      <trkpt lat="42.9663" lon="-0.0733">
        <ele>463</ele>
        <time>2022-01-14T17:43:15Z</time>
      </trkpt>
      <trkpt lat="42.96657" lon="-0.07357">
        <ele>463</ele>
        <time>2022-01-14T17:43:23Z</time>
      </trkpt>
      <trkpt lat="42.96698" lon="-0.07361">
        <ele>462</ele>
        <time>2022-01-14T17:43:32Z</time>
      </trkpt>
      <trkpt lat="42.9677" lon="-0.07384">
        <ele>461</ele>
        <time>2022-01-14T17:43:50Z</time>
      </trkpt>
      <trkpt lat="42.9686" lon="-0.07407">
        <ele>459</ele>
        <time>2022-01-14T17:44:11Z</time>
      </trkpt>
      <trkpt lat="42.96943" lon="-0.07433">
        <ele>460</ele>
        <time>2022-01-14T17:44:31Z</time>
      </trkpt>
      <trkpt lat="42.97078" lon="-0.07469">
        <ele>454</ele>
        <time>2022-01-14T17:45:03Z</time>
      </trkpt>
      <trkpt lat="42.9714" lon="-0.07489">
        <ele>451</ele>
        <time>2022-01-14T17:45:18Z</time>
      </trkpt>
      <trkpt lat="42.97201" lon="-0.07516">
        <ele>450</ele>
        <time>2022-01-14T17:45:33Z</time>
      </trkpt>
      <trkpt lat="42.97318" lon="-0.07576">
        <ele>447</ele>
        <time>2022-01-14T17:46:02Z</time>
      </trkpt>
      <trkpt lat="42.97353" lon="-0.07591">
        <ele>446</ele>
        <time>2022-01-14T17:46:11Z</time>
      </trkpt>
      <trkpt lat="42.97387" lon="-0.07614">
        <ele>445</ele>
        <time>2022-01-14T17:46:19Z</time>
      </trkpt>
      <trkpt lat="42.97423" lon="-0.07653">
        <ele>445</ele>
        <time>2022-01-14T17:46:30Z</time>
      </trkpt>
      <trkpt lat="42.9745" lon="-0.07695">
        <ele>445</ele>
        <time>2022-01-14T17:46:40Z</time>
      </trkpt>
      <trkpt lat="42.97474" lon="-0.0775">
        <ele>444</ele>
        <time>2022-01-14T17:46:51Z</time>
      </trkpt>
      <trkpt lat="42.975" lon="-0.0782">
        <ele>443</ele>
        <time>2022-01-14T17:47:04Z</time>
      </trkpt>
      <trkpt lat="42.97528" lon="-0.07883">
        <ele>444</ele>
        <time>2022-01-14T17:47:17Z</time>
      </trkpt>
      <trkpt lat="42.97542" lon="-0.07909">
        <ele>444</ele>
        <time>2022-01-14T17:47:22Z</time>
      </trkpt>
      <trkpt lat="42.97569" lon="-0.07948">
        <ele>443</ele>
        <time>2022-01-14T17:47:31Z</time>
      </trkpt>
      <trkpt lat="42.97704" lon="-0.08085">
        <ele>440</ele>
        <time>2022-01-14T17:48:11Z</time>
      </trkpt>
      <trkpt lat="42.97956" lon="-0.08289">
        <ele>437</ele>
        <time>2022-01-14T17:49:19Z</time>
      </trkpt>
      <trkpt lat="42.98007" lon="-0.08333">
        <ele>437</ele>
        <time>2022-01-14T17:49:33Z</time>
      </trkpt>
      <trkpt lat="42.98234" lon="-0.08556">
        <ele>435</ele>
        <time>2022-01-14T17:50:38Z</time>
      </trkpt>
      <trkpt lat="42.98275" lon="-0.08599">
        <ele>435</ele>
        <time>2022-01-14T17:50:50Z</time>
      </trkpt>
      <trkpt lat="42.98399" lon="-0.08716">
        <ele>434</ele>
        <time>2022-01-14T17:51:26Z</time>
      </trkpt>
      <trkpt lat="42.9842" lon="-0.08731">
        <ele>435</ele>
        <time>2022-01-14T17:51:31Z</time>
      </trkpt>
      <trkpt lat="42.98528" lon="-0.0879">
        <ele>435</ele>
        <time>2022-01-14T17:51:58Z</time>
      </trkpt>
      <trkpt lat="42.98593" lon="-0.08818">
        <ele>435</ele>
        <time>2022-01-14T17:52:14Z</time>
      </trkpt>
      <trkpt lat="42.98606" lon="-0.08829">
        <ele>435</ele>
        <time>2022-01-14T17:52:18Z</time>
      </trkpt>
      <trkpt lat="42.9862" lon="-0.08837">
        <ele>435</ele>
        <time>2022-01-14T17:52:21Z</time>
      </trkpt>
      <trkpt lat="42.98666" lon="-0.08853">
        <ele>436</ele>
        <time>2022-01-14T17:52:32Z</time>
      </trkpt>
      <trkpt lat="42.98816" lon="-0.08887">
        <ele>434</ele>
        <time>2022-01-14T17:53:08Z</time>
      </trkpt>
      <trkpt lat="42.98893" lon="-0.08918">
        <ele>433</ele>
        <time>2022-01-14T17:53:27Z</time>
      </trkpt>
      <trkpt lat="42.98943" lon="-0.08942">
        <ele>433</ele>
        <time>2022-01-14T17:53:39Z</time>
      </trkpt>
      <trkpt lat="42.98994" lon="-0.08961">
        <ele>432</ele>
        <time>2022-01-14T17:53:51Z</time>
      </trkpt>
      <trkpt lat="42.99146" lon="-0.09006">
        <ele>432</ele>
        <time>2022-01-14T17:54:28Z</time>
      </trkpt>
      <trkpt lat="42.99191" lon="-0.09025">
        <ele>431</ele>
        <time>2022-01-14T17:54:39Z</time>
      </trkpt>
      <trkpt lat="42.99298" lon="-0.09081">
        <ele>434</ele>
        <time>2022-01-14T17:55:05Z</time>
      </trkpt>
      <trkpt lat="42.9944" lon="-0.09144">
        <ele>438</ele>
        <time>2022-01-14T17:55:40Z</time>
      </trkpt>
      <trkpt lat="42.99458" lon="-0.09151">
        <ele>438</ele>
        <time>2022-01-14T17:55:45Z</time>
      </trkpt>
      <trkpt lat="42.99515" lon="-0.09156">
        <ele>435</ele>
        <time>2022-01-14T17:55:58Z</time>
      </trkpt>
      <trkpt lat="42.99551" lon="-0.09164">
        <ele>434</ele>
        <time>2022-01-14T17:56:07Z</time>
      </trkpt>
      <trkpt lat="42.99668" lon="-0.09215">
        <ele>437</ele>
        <time>2022-01-14T17:56:35Z</time>
      </trkpt>
      <trkpt lat="42.99689" lon="-0.0924">
        <ele>437</ele>
        <time>2022-01-14T17:56:42Z</time>
      </trkpt>
      <trkpt lat="42.99776" lon="-0.09372">
        <ele>446</ele>
        <time>2022-01-14T17:57:12Z</time>
      </trkpt>
      <trkpt lat="42.99858" lon="-0.09507">
        <ele>448</ele>
        <time>2022-01-14T17:57:42Z</time>
      </trkpt>
      <trkpt lat="42.99887" lon="-0.09539">
        <ele>448</ele>
        <time>2022-01-14T17:57:51Z</time>
      </trkpt>
      <trkpt lat="42.99918" lon="-0.09584">
        <ele>448</ele>
        <time>2022-01-14T17:58:01Z</time>
      </trkpt>
      <trkpt lat="42.99977" lon="-0.09679">
        <ele>449</ele>
        <time>2022-01-14T17:58:23Z</time>
      </trkpt>
      <trkpt lat="43.00005" lon="-0.09714">
        <ele>449</ele>
        <time>2022-01-14T17:58:31Z</time>
      </trkpt>
      <trkpt lat="43.00089" lon="-0.0985">
        <ele>452</ele>
        <time>2022-01-14T17:59:02Z</time>
      </trkpt>
      <trkpt lat="43.0013" lon="-0.09901">
        <ele>453</ele>
        <time>2022-01-14T17:59:15Z</time>
      </trkpt>
      <trkpt lat="43.00161" lon="-0.09925">
        <ele>453</ele>
        <time>2022-01-14T17:59:23Z</time>
      </trkpt>
      <trkpt lat="43.00167" lon="-0.09966">
        <ele>453</ele>
        <time>2022-01-14T17:59:30Z</time>
      </trkpt>
      <trkpt lat="43.00208" lon="-0.10032">
        <ele>453</ele>
        <time>2022-01-14T17:59:45Z</time>
      </trkpt>
      <trkpt lat="43.00233" lon="-0.10078">
        <ele>455</ele>
        <time>2022-01-14T17:59:55Z</time>
      </trkpt>
      <trkpt lat="43.00258" lon="-0.10132">
        <ele>457</ele>
        <time>2022-01-14T18:00:06Z</time>
      </trkpt>
      <trkpt lat="43.0028" lon="-0.10168">
        <ele>460</ele>
        <time>2022-01-14T18:00:14Z</time>
      </trkpt>
      <trkpt lat="43.00298" lon="-0.10174">
        <ele>463</ele>
        <time>2022-01-14T18:00:18Z</time>
      </trkpt>
      <trkpt lat="43.0031" lon="-0.1017">
        <ele>464</ele>
        <time>2022-01-14T18:00:21Z</time>
      </trkpt>
      <trkpt lat="43.00359" lon="-0.10145">
        <ele>465</ele>
        <time>2022-01-14T18:00:33Z</time>
      </trkpt>
      <trkpt lat="43.00377" lon="-0.10132">
        <ele>464</ele>
        <time>2022-01-14T18:00:38Z</time>
      </trkpt>
      <trkpt lat="43.00406" lon="-0.10124">
        <ele>466</ele>
        <time>2022-01-14T18:00:45Z</time>
      </trkpt>
      <trkpt lat="43.0042" lon="-0.10116">
        <ele>466</ele>
        <time>2022-01-14T18:00:48Z</time>
      </trkpt>
      <trkpt lat="43.00423" lon="-0.1011">
        <ele>465</ele>
        <time>2022-01-14T18:00:50Z</time>
      </trkpt>
      <trkpt lat="43.00434" lon="-0.10105">
        <ele>465</ele>
        <time>2022-01-14T18:00:52Z</time>
      </trkpt>
      <trkpt lat="43.00436" lon="-0.10129">
        <ele>467</ele>
        <time>2022-01-14T18:00:56Z</time>
      </trkpt>
      <trkpt lat="43.00447" lon="-0.10121">
        <ele>467</ele>
        <time>2022-01-14T18:00:59Z</time>
      </trkpt>
      <trkpt lat="43.00454" lon="-0.10105">
        <ele>466</ele>
        <time>2022-01-14T18:01:03Z</time>
      </trkpt>
      <trkpt lat="43.00469" lon="-0.10086">
        <ele>466</ele>
        <time>2022-01-14T18:01:07Z</time>
      </trkpt>
      <trkpt lat="43.00484" lon="-0.10084">
        <ele>467</ele>
        <time>2022-01-14T18:01:11Z</time>
      </trkpt>
      <trkpt lat="43.00546" lon="-0.10053">
        <ele>465</ele>
        <time>2022-01-14T18:01:26Z</time>
      </trkpt>
      <trkpt lat="43.00588" lon="-0.10045">
        <ele>465</ele>
        <time>2022-01-14T18:01:36Z</time>
      </trkpt>
      <trkpt lat="43.00607" lon="-0.10026">
        <ele>462</ele>
        <time>2022-01-14T18:01:42Z</time>
      </trkpt>
      <trkpt lat="43.00617" lon="-0.10028">
        <ele>462</ele>
        <time>2022-01-14T18:01:44Z</time>
      </trkpt>
      <trkpt lat="43.00632" lon="-0.1005">
        <ele>463</ele>
        <time>2022-01-14T18:01:49Z</time>
      </trkpt>
      <trkpt lat="43.00636" lon="-0.10084">
        <ele>466</ele>
        <time>2022-01-14T18:01:55Z</time>
      </trkpt>
      <trkpt lat="43.00649" lon="-0.10105">
        <ele>467</ele>
        <time>2022-01-14T18:02:00Z</time>
      </trkpt>
      <trkpt lat="43.00663" lon="-0.10111">
        <ele>467</ele>
        <time>2022-01-14T18:02:03Z</time>
      </trkpt>
      <trkpt lat="43.00701" lon="-0.1011">
        <ele>467</ele>
        <time>2022-01-14T18:02:12Z</time>
      </trkpt>
      <trkpt lat="43.0071" lon="-0.10129">
        <ele>470</ele>
        <time>2022-01-14T18:02:16Z</time>
      </trkpt>
      <trkpt lat="43.00704" lon="-0.10145">
        <ele>472</ele>
        <time>2022-01-14T18:02:19Z</time>
      </trkpt>
      <trkpt lat="43.00662" lon="-0.10154">
        <ele>472</ele>
        <time>2022-01-14T18:02:29Z</time>
      </trkpt>
      <trkpt lat="43.00651" lon="-0.10161">
        <ele>473</ele>
        <time>2022-01-14T18:02:32Z</time>
      </trkpt>
      <trkpt lat="43.00622" lon="-0.10163">
        <ele>473</ele>
        <time>2022-01-14T18:02:39Z</time>
      </trkpt>
      <trkpt lat="43.00599" lon="-0.1017">
        <ele>474</ele>
        <time>2022-01-14T18:02:44Z</time>
      </trkpt>
      <trkpt lat="43.00585" lon="-0.10168">
        <ele>473</ele>
        <time>2022-01-14T18:02:47Z</time>
      </trkpt>
      <trkpt lat="43.00577" lon="-0.10175">
        <ele>474</ele>
        <time>2022-01-14T18:02:50Z</time>
      </trkpt>
      <trkpt lat="43.00553" lon="-0.10213">
        <ele>476</ele>
        <time>2022-01-14T18:02:58Z</time>
      </trkpt>
      <trkpt lat="43.00539" lon="-0.10248">
        <ele>478</ele>
        <time>2022-01-14T18:03:05Z</time>
      </trkpt>
      <trkpt lat="43.00506" lon="-0.10288">
        <ele>480</ele>
        <time>2022-01-14T18:03:15Z</time>
      </trkpt>
      <trkpt lat="43.00495" lon="-0.1032">
        <ele>484</ele>
        <time>2022-01-14T18:03:21Z</time>
      </trkpt>
      <trkpt lat="43.00487" lon="-0.10392">
        <ele>493</ele>
        <time>2022-01-14T18:03:34Z</time>
      </trkpt>
      <trkpt lat="43.00482" lon="-0.10408">
        <ele>494</ele>
        <time>2022-01-14T18:03:37Z</time>
      </trkpt>
      <trkpt lat="43.00453" lon="-0.10445">
        <ele>498</ele>
        <time>2022-01-14T18:03:46Z</time>
      </trkpt>
      <trkpt lat="43.00426" lon="-0.10471">
        <ele>500</ele>
        <time>2022-01-14T18:03:54Z</time>
      </trkpt>
      <trkpt lat="43.00372" lon="-0.10579">
        <ele>516</ele>
        <time>2022-01-14T18:04:16Z</time>
      </trkpt>
      <trkpt lat="43.00364" lon="-0.10583">
        <ele>515</ele>
        <time>2022-01-14T18:04:18Z</time>
      </trkpt>
      <trkpt lat="43.0035" lon="-0.10581">
        <ele>512</ele>
        <time>2022-01-14T18:04:21Z</time>
      </trkpt>
      <trkpt lat="43.00342" lon="-0.10584">
        <ele>512</ele>
        <time>2022-01-14T18:04:23Z</time>
      </trkpt>
      <trkpt lat="43.00324" lon="-0.10598">
        <ele>512</ele>
        <time>2022-01-14T18:04:28Z</time>
      </trkpt>
      <trkpt lat="43.00313" lon="-0.10612">
        <ele>514</ele>
        <time>2022-01-14T18:04:32Z</time>
      </trkpt>
      <trkpt lat="43.00311" lon="-0.10619">
        <ele>516</ele>
        <time>2022-01-14T18:04:33Z</time>
      </trkpt>
      <trkpt lat="43.003" lon="-0.10629">
        <ele>517</ele>
        <time>2022-01-14T18:04:36Z</time>
      </trkpt>
      <trkpt lat="43.00296" lon="-0.10641">
        <ele>519</ele>
        <time>2022-01-14T18:04:38Z</time>
      </trkpt>
      <trkpt lat="43.00277" lon="-0.10652">
        <ele>519</ele>
        <time>2022-01-14T18:04:43Z</time>
      </trkpt>
      <trkpt lat="43.00268" lon="-0.10669">
        <ele>522</ele>
        <time>2022-01-14T18:04:47Z</time>
      </trkpt>
      <trkpt lat="43.00258" lon="-0.10681">
        <ele>524</ele>
        <time>2022-01-14T18:04:50Z</time>
      </trkpt>
      <trkpt lat="43.00257" lon="-0.10686">
        <ele>526</ele>
        <time>2022-01-14T18:04:51Z</time>
      </trkpt>
      <trkpt lat="43.00249" lon="-0.10691">
        <ele>526</ele>
        <time>2022-01-14T18:04:53Z</time>
      </trkpt>
      <trkpt lat="43.00219" lon="-0.10724">
        <ele>533</ele>
        <time>2022-01-14T18:05:02Z</time>
      </trkpt>
      <trkpt lat="43.00194" lon="-0.10746">
        <ele>537</ele>
        <time>2022-01-14T18:05:09Z</time>
      </trkpt>
      <trkpt lat="43.0017" lon="-0.10776">
        <ele>542</ele>
        <time>2022-01-14T18:05:16Z</time>
      </trkpt>
      <trkpt lat="43.00149" lon="-0.10787">
        <ele>543</ele>
        <time>2022-01-14T18:05:21Z</time>
      </trkpt>
      <trkpt lat="43.0013" lon="-0.10802">
        <ele>545</ele>
        <time>2022-01-14T18:05:27Z</time>
      </trkpt>
      <trkpt lat="43.0011" lon="-0.10814">
        <ele>545</ele>
        <time>2022-01-14T18:05:32Z</time>
      </trkpt>
      <trkpt lat="43.00081" lon="-0.10842">
        <ele>550</ele>
        <time>2022-01-14T18:05:40Z</time>
      </trkpt>
      <trkpt lat="43.00063" lon="-0.1085">
        <ele>550</ele>
        <time>2022-01-14T18:05:44Z</time>
      </trkpt>
      <trkpt lat="43.00037" lon="-0.10868">
        <ele>554</ele>
        <time>2022-01-14T18:05:51Z</time>
      </trkpt>
      <trkpt lat="43.0002" lon="-0.10873">
        <ele>554</ele>
        <time>2022-01-14T18:05:55Z</time>
      </trkpt>
      <trkpt lat="43.00008" lon="-0.10874">
        <ele>553</ele>
        <time>2022-01-14T18:05:58Z</time>
      </trkpt>
      <trkpt lat="42.9997" lon="-0.10862">
        <ele>545</ele>
        <time>2022-01-14T18:06:07Z</time>
      </trkpt>
      <trkpt lat="42.99955" lon="-0.10865">
        <ele>544</ele>
        <time>2022-01-14T18:06:11Z</time>
      </trkpt>
      <trkpt lat="42.99945" lon="-0.10873">
        <ele>545</ele>
        <time>2022-01-14T18:06:13Z</time>
      </trkpt>
      <trkpt lat="42.99927" lon="-0.109">
        <ele>548</ele>
        <time>2022-01-14T18:06:20Z</time>
      </trkpt>
      <trkpt lat="42.99921" lon="-0.10923">
        <ele>550</ele>
        <time>2022-01-14T18:06:24Z</time>
      </trkpt>
      <trkpt lat="42.99918" lon="-0.1106">
        <ele>562</ele>
        <time>2022-01-14T18:06:47Z</time>
      </trkpt>
      <trkpt lat="42.9991" lon="-0.1113">
        <ele>570</ele>
        <time>2022-01-14T18:06:59Z</time>
      </trkpt>
      <trkpt lat="42.99918" lon="-0.11159">
        <ele>579</ele>
        <time>2022-01-14T18:07:05Z</time>
      </trkpt>
      <trkpt lat="42.99919" lon="-0.1118">
        <ele>584</ele>
        <time>2022-01-14T18:07:08Z</time>
      </trkpt>
      <trkpt lat="42.99907" lon="-0.11225">
        <ele>587</ele>
        <time>2022-01-14T18:07:16Z</time>
      </trkpt>
      <trkpt lat="42.99855" lon="-0.11268">
        <ele>575</ele>
        <time>2022-01-14T18:07:31Z</time>
      </trkpt>
      <trkpt lat="42.99846" lon="-0.11284">
        <ele>574</ele>
        <time>2022-01-14T18:07:34Z</time>
      </trkpt>
      <trkpt lat="42.9984" lon="-0.11319">
        <ele>576</ele>
        <time>2022-01-14T18:07:40Z</time>
      </trkpt>
      <trkpt lat="42.9984" lon="-0.11332">
        <ele>578</ele>
        <time>2022-01-14T18:07:42Z</time>
      </trkpt>
      <trkpt lat="42.99849" lon="-0.1139">
        <ele>586</ele>
        <time>2022-01-14T18:07:52Z</time>
      </trkpt>
      <trkpt lat="42.99853" lon="-0.11447">
        <ele>593</ele>
        <time>2022-01-14T18:08:02Z</time>
      </trkpt>
      <trkpt lat="42.99841" lon="-0.11502">
        <ele>594</ele>
        <time>2022-01-14T18:08:12Z</time>
      </trkpt>
      <trkpt lat="42.99838" lon="-0.11559">
        <ele>602</ele>
        <time>2022-01-14T18:08:22Z</time>
      </trkpt>
      <trkpt lat="42.99824" lon="-0.11602">
        <ele>606</ele>
        <time>2022-01-14T18:08:30Z</time>
      </trkpt>
      <trkpt lat="42.99814" lon="-0.11616">
        <ele>607</ele>
        <time>2022-01-14T18:08:33Z</time>
      </trkpt>
      <trkpt lat="42.99785" lon="-0.11634">
        <ele>605</ele>
        <time>2022-01-14T18:08:41Z</time>
      </trkpt>
      <trkpt lat="42.99757" lon="-0.11657">
        <ele>604</ele>
        <time>2022-01-14T18:08:48Z</time>
      </trkpt>
      <trkpt lat="42.99752" lon="-0.11669">
        <ele>605</ele>
        <time>2022-01-14T18:08:51Z</time>
      </trkpt>
      <trkpt lat="42.99743" lon="-0.1168">
        <ele>607</ele>
        <time>2022-01-14T18:08:53Z</time>
      </trkpt>
      <trkpt lat="42.99713" lon="-0.117">
        <ele>612</ele>
        <time>2022-01-14T18:09:01Z</time>
      </trkpt>
      <trkpt lat="42.99695" lon="-0.11724">
        <ele>617</ele>
        <time>2022-01-14T18:09:07Z</time>
      </trkpt>
      <trkpt lat="42.99683" lon="-0.11736">
        <ele>620</ele>
        <time>2022-01-14T18:09:11Z</time>
      </trkpt>
      <trkpt lat="42.99657" lon="-0.11742">
        <ele>622</ele>
        <time>2022-01-14T18:09:17Z</time>
      </trkpt>
      <trkpt lat="42.99641" lon="-0.11741">
        <ele>623</ele>
        <time>2022-01-14T18:09:21Z</time>
      </trkpt>
      <trkpt lat="42.99633" lon="-0.11744">
        <ele>624</ele>
        <time>2022-01-14T18:09:22Z</time>
      </trkpt>
      <trkpt lat="42.99618" lon="-0.11756">
        <ele>627</ele>
        <time>2022-01-14T18:09:26Z</time>
      </trkpt>
      <trkpt lat="42.99593" lon="-0.1177">
        <ele>630</ele>
        <time>2022-01-14T18:09:33Z</time>
      </trkpt>
      <trkpt lat="42.99548" lon="-0.1177">
        <ele>626</ele>
        <time>2022-01-14T18:09:43Z</time>
      </trkpt>
      <trkpt lat="42.99539" lon="-0.11777">
        <ele>627</ele>
        <time>2022-01-14T18:09:46Z</time>
      </trkpt>
      <trkpt lat="42.99535" lon="-0.11784">
        <ele>627</ele>
        <time>2022-01-14T18:09:47Z</time>
      </trkpt>
      <trkpt lat="42.99523" lon="-0.11812">
        <ele>630</ele>
        <time>2022-01-14T18:09:53Z</time>
      </trkpt>
      <trkpt lat="42.99515" lon="-0.1185">
        <ele>634</ele>
        <time>2022-01-14T18:10:00Z</time>
      </trkpt>
      <trkpt lat="42.99503" lon="-0.11875">
        <ele>635</ele>
        <time>2022-01-14T18:10:05Z</time>
      </trkpt>
      <trkpt lat="42.99488" lon="-0.12002">
        <ele>644</ele>
        <time>2022-01-14T18:10:27Z</time>
      </trkpt>
      <trkpt lat="42.9949" lon="-0.12025">
        <ele>646</ele>
        <time>2022-01-14T18:10:31Z</time>
      </trkpt>
      <trkpt lat="42.99494" lon="-0.12041">
        <ele>648</ele>
        <time>2022-01-14T18:10:33Z</time>
      </trkpt>
      <trkpt lat="42.99504" lon="-0.12067">
        <ele>652</ele>
        <time>2022-01-14T18:10:38Z</time>
      </trkpt>
      <trkpt lat="42.99515" lon="-0.12109">
        <ele>657</ele>
        <time>2022-01-14T18:10:46Z</time>
      </trkpt>
      <trkpt lat="42.99516" lon="-0.12143">
        <ele>660</ele>
        <time>2022-01-14T18:10:52Z</time>
      </trkpt>
      <trkpt lat="42.99489" lon="-0.12251">
        <ele>670</ele>
        <time>2022-01-14T18:11:11Z</time>
      </trkpt>
      <trkpt lat="42.99472" lon="-0.12305">
        <ele>674</ele>
        <time>2022-01-14T18:11:21Z</time>
      </trkpt>
      <trkpt lat="42.99449" lon="-0.12356">
        <ele>676</ele>
        <time>2022-01-14T18:11:32Z</time>
      </trkpt>
      <trkpt lat="42.99431" lon="-0.12389">
        <ele>677</ele>
        <time>2022-01-14T18:11:39Z</time>
      </trkpt>
      <trkpt lat="42.99415" lon="-0.12404">
        <ele>676</ele>
        <time>2022-01-14T18:11:43Z</time>
      </trkpt>
      <trkpt lat="42.99389" lon="-0.12421">
        <ele>678</ele>
        <time>2022-01-14T18:11:50Z</time>
      </trkpt>
      <trkpt lat="42.99366" lon="-0.12442">
        <ele>680</ele>
        <time>2022-01-14T18:11:56Z</time>
      </trkpt>
      <trkpt lat="42.99354" lon="-0.12456">
        <ele>682</ele>
        <time>2022-01-14T18:12:00Z</time>
      </trkpt>
      <trkpt lat="42.99334" lon="-0.12489">
        <ele>685</ele>
        <time>2022-01-14T18:12:07Z</time>
      </trkpt>
      <trkpt lat="42.99298" lon="-0.12534">
        <ele>688</ele>
        <time>2022-01-14T18:12:19Z</time>
      </trkpt>
      <trkpt lat="42.99292" lon="-0.12546">
        <ele>689</ele>
        <time>2022-01-14T18:12:21Z</time>
      </trkpt>
      <trkpt lat="42.9928" lon="-0.1258">
        <ele>692</ele>
        <time>2022-01-14T18:12:28Z</time>
      </trkpt>
      <trkpt lat="42.99272" lon="-0.12634">
        <ele>695</ele>
        <time>2022-01-14T18:12:37Z</time>
      </trkpt>
      <trkpt lat="42.99257" lon="-0.12694">
        <ele>697</ele>
        <time>2022-01-14T18:12:48Z</time>
      </trkpt>
      <trkpt lat="42.99251" lon="-0.12711">
        <ele>697</ele>
        <time>2022-01-14T18:12:51Z</time>
      </trkpt>
      <trkpt lat="42.99203" lon="-0.12809">
        <ele>702</ele>
        <time>2022-01-14T18:13:11Z</time>
      </trkpt>
      <trkpt lat="42.99174" lon="-0.12949">
        <ele>715</ele>
        <time>2022-01-14T18:13:36Z</time>
      </trkpt>
      <trkpt lat="42.99165" lon="-0.12966">
        <ele>715</ele>
        <time>2022-01-14T18:13:40Z</time>
      </trkpt>
      <trkpt lat="42.9909" lon="-0.13069">
        <ele>716</ele>
        <time>2022-01-14T18:14:05Z</time>
      </trkpt>
      <trkpt lat="42.9907" lon="-0.13093">
        <ele>716</ele>
        <time>2022-01-14T18:14:11Z</time>
      </trkpt>
      <trkpt lat="42.9904" lon="-0.1312">
        <ele>716</ele>
        <time>2022-01-14T18:14:19Z</time>
      </trkpt>
      <trkpt lat="42.99018" lon="-0.13146">
        <ele>717</ele>
        <time>2022-01-14T18:14:26Z</time>
      </trkpt>
      <trkpt lat="42.99008" lon="-0.13171">
        <ele>719</ele>
        <time>2022-01-14T18:14:31Z</time>
      </trkpt>
      <trkpt lat="42.98998" lon="-0.1323">
        <ele>724</ele>
        <time>2022-01-14T18:14:41Z</time>
      </trkpt>
      <trkpt lat="42.98983" lon="-0.1326">
        <ele>725</ele>
        <time>2022-01-14T18:14:47Z</time>
      </trkpt>
      <trkpt lat="42.98926" lon="-0.13326">
        <ele>726</ele>
        <time>2022-01-14T18:15:05Z</time>
      </trkpt>
      <trkpt lat="42.98909" lon="-0.13361">
        <ele>727</ele>
        <time>2022-01-14T18:15:12Z</time>
      </trkpt>
      <trkpt lat="42.98889" lon="-0.13423">
        <ele>728</ele>
        <time>2022-01-14T18:15:24Z</time>
      </trkpt>
      <trkpt lat="42.98874" lon="-0.13455">
        <ele>729</ele>
        <time>2022-01-14T18:15:30Z</time>
      </trkpt>
      <trkpt lat="42.9885" lon="-0.13493">
        <ele>730</ele>
        <time>2022-01-14T18:15:39Z</time>
      </trkpt>
      <trkpt lat="42.98835" lon="-0.13525">
        <ele>730</ele>
        <time>2022-01-14T18:15:45Z</time>
      </trkpt>
      <trkpt lat="42.98801" lon="-0.13654">
        <ele>733</ele>
        <time>2022-01-14T18:16:09Z</time>
      </trkpt>
      <trkpt lat="42.98764" lon="-0.13755">
        <ele>738</ele>
        <time>2022-01-14T18:16:28Z</time>
      </trkpt>
      <trkpt lat="42.98676" lon="-0.13963">
        <ele>739</ele>
        <time>2022-01-14T18:17:09Z</time>
      </trkpt>
      <trkpt lat="42.98652" lon="-0.14043">
        <ele>746</ele>
        <time>2022-01-14T18:17:24Z</time>
      </trkpt>
      <trkpt lat="42.98601" lon="-0.14157">
        <ele>749</ele>
        <time>2022-01-14T18:17:47Z</time>
      </trkpt>
      <trkpt lat="42.98576" lon="-0.1422">
        <ele>750</ele>
        <time>2022-01-14T18:17:59Z</time>
      </trkpt>
      <trkpt lat="42.98552" lon="-0.14296">
        <ele>755</ele>
        <time>2022-01-14T18:18:13Z</time>
      </trkpt>
      <trkpt lat="42.98536" lon="-0.14367">
        <ele>759</ele>
        <time>2022-01-14T18:18:26Z</time>
      </trkpt>
      <trkpt lat="42.98514" lon="-0.14411">
        <ele>759</ele>
        <time>2022-01-14T18:18:35Z</time>
      </trkpt>
      <trkpt lat="42.98424" lon="-0.14531">
        <ele>766</ele>
        <time>2022-01-14T18:19:04Z</time>
      </trkpt>
      <trkpt lat="42.98387" lon="-0.1459">
        <ele>763</ele>
        <time>2022-01-14T18:19:17Z</time>
      </trkpt>
      <trkpt lat="42.98375" lon="-0.14617">
        <ele>760</ele>
        <time>2022-01-14T18:19:23Z</time>
      </trkpt>
      <trkpt lat="42.9837" lon="-0.14632">
        <ele>760</ele>
        <time>2022-01-14T18:19:26Z</time>
      </trkpt>
      <trkpt lat="42.98364" lon="-0.14682">
        <ele>760</ele>
        <time>2022-01-14T18:19:34Z</time>
      </trkpt>
      <trkpt lat="42.98354" lon="-0.14811">
        <ele>765</ele>
        <time>2022-01-14T18:19:56Z</time>
      </trkpt>
      <trkpt lat="42.98339" lon="-0.14872">
        <ele>765</ele>
        <time>2022-01-14T18:20:07Z</time>
      </trkpt>
      <trkpt lat="42.98323" lon="-0.14915">
        <ele>764</ele>
        <time>2022-01-14T18:20:16Z</time>
      </trkpt>
      <trkpt lat="42.98311" lon="-0.14938">
        <ele>763</ele>
        <time>2022-01-14T18:20:20Z</time>
      </trkpt>
      <trkpt lat="42.983" lon="-0.14971">
        <ele>764</ele>
        <time>2022-01-14T18:20:27Z</time>
      </trkpt>
      <trkpt lat="42.9828" lon="-0.15039">
        <ele>766</ele>
        <time>2022-01-14T18:20:39Z</time>
      </trkpt>
      <trkpt lat="42.98256" lon="-0.15139">
        <ele>771</ele>
        <time>2022-01-14T18:20:57Z</time>
      </trkpt>
      <trkpt lat="42.98241" lon="-0.15182">
        <ele>772</ele>
        <time>2022-01-14T18:21:05Z</time>
      </trkpt>
      <trkpt lat="42.98233" lon="-0.15199">
        <ele>772</ele>
        <time>2022-01-14T18:21:09Z</time>
      </trkpt>
      <trkpt lat="42.98178" lon="-0.15292">
        <ele>776</ele>
        <time>2022-01-14T18:21:29Z</time>
      </trkpt>
      <trkpt lat="42.98123" lon="-0.15394">
        <ele>777</ele>
        <time>2022-01-14T18:21:51Z</time>
      </trkpt>
      <trkpt lat="42.98094" lon="-0.15454">
        <ele>779</ele>
        <time>2022-01-14T18:22:03Z</time>
      </trkpt>
      <trkpt lat="42.98053" lon="-0.15634">
        <ele>786</ele>
        <time>2022-01-14T18:22:35Z</time>
      </trkpt>
      <trkpt lat="42.98005" lon="-0.15878">
        <ele>805</ele>
        <time>2022-01-14T18:23:19Z</time>
      </trkpt>
      <trkpt lat="42.97997" lon="-0.15911">
        <ele>807</ele>
        <time>2022-01-14T18:23:24Z</time>
      </trkpt>
      <trkpt lat="42.97991" lon="-0.1592">
        <ele>807</ele>
        <time>2022-01-14T18:23:27Z</time>
      </trkpt>
      <trkpt lat="42.97989" lon="-0.15928">
        <ele>807</ele>
        <time>2022-01-14T18:23:28Z</time>
      </trkpt>
      <trkpt lat="42.97982" lon="-0.15976">
        <ele>810</ele>
        <time>2022-01-14T18:23:36Z</time>
      </trkpt>
      <trkpt lat="42.97962" lon="-0.16226">
        <ele>821</ele>
        <time>2022-01-14T18:24:19Z</time>
      </trkpt>
      <trkpt lat="42.97963" lon="-0.16262">
        <ele>822</ele>
        <time>2022-01-14T18:24:25Z</time>
      </trkpt>
      <trkpt lat="42.97972" lon="-0.16311">
        <ele>824</ele>
        <time>2022-01-14T18:24:34Z</time>
      </trkpt>
      <trkpt lat="42.97978" lon="-0.16365">
        <ele>826</ele>
        <time>2022-01-14T18:24:43Z</time>
      </trkpt>
      <trkpt lat="42.97978" lon="-0.16384">
        <ele>826</ele>
        <time>2022-01-14T18:24:47Z</time>
      </trkpt>
      <trkpt lat="42.97968" lon="-0.16488">
        <ele>829</ele>
        <time>2022-01-14T18:25:05Z</time>
      </trkpt>
      <trkpt lat="42.97967" lon="-0.16529">
        <ele>831</ele>
        <time>2022-01-14T18:25:12Z</time>
      </trkpt>
      <trkpt lat="42.97978" lon="-0.16627">
        <ele>839</ele>
        <time>2022-01-14T18:25:29Z</time>
      </trkpt>
      <trkpt lat="42.97982" lon="-0.16775">
        <ele>841</ele>
        <time>2022-01-14T18:25:54Z</time>
      </trkpt>
      <trkpt lat="42.97978" lon="-0.16803">
        <ele>843</ele>
        <time>2022-01-14T18:25:59Z</time>
      </trkpt>
      <trkpt lat="42.97949" lon="-0.16919">
        <ele>845</ele>
        <time>2022-01-14T18:26:20Z</time>
      </trkpt>
      <trkpt lat="42.9793" lon="-0.16968">
        <ele>844</ele>
        <time>2022-01-14T18:26:29Z</time>
      </trkpt>
      <trkpt lat="42.97911" lon="-0.16989">
        <ele>841</ele>
        <time>2022-01-14T18:26:35Z</time>
      </trkpt>
      <trkpt lat="42.97902" lon="-0.17029">
        <ele>839</ele>
        <time>2022-01-14T18:26:42Z</time>
      </trkpt>
      <trkpt lat="42.97901" lon="-0.17101">
        <ele>840</ele>
        <time>2022-01-14T18:26:54Z</time>
      </trkpt>
      <trkpt lat="42.97897" lon="-0.17118">
        <ele>840</ele>
        <time>2022-01-14T18:26:57Z</time>
      </trkpt>
      <trkpt lat="42.97872" lon="-0.17186">
        <ele>837</ele>
        <time>2022-01-14T18:27:10Z</time>
      </trkpt>
      <trkpt lat="42.9785" lon="-0.17236">
        <ele>838</ele>
        <time>2022-01-14T18:27:20Z</time>
      </trkpt>
      <trkpt lat="42.97829" lon="-0.17321">
        <ele>835</ele>
        <time>2022-01-14T18:27:36Z</time>
      </trkpt>
      <trkpt lat="42.97827" lon="-0.17333">
        <ele>834</ele>
        <time>2022-01-14T18:27:38Z</time>
      </trkpt>
      <trkpt lat="42.97826" lon="-0.17431">
        <ele>832</ele>
        <time>2022-01-14T18:27:55Z</time>
      </trkpt>
      <trkpt lat="42.9783" lon="-0.1761">
        <ele>834</ele>
        <time>2022-01-14T18:28:25Z</time>
      </trkpt>
      <trkpt lat="42.97826" lon="-0.17654">
        <ele>835</ele>
        <time>2022-01-14T18:28:33Z</time>
      </trkpt>
      <trkpt lat="42.97814" lon="-0.17695">
        <ele>837</ele>
        <time>2022-01-14T18:28:40Z</time>
      </trkpt>
      <trkpt lat="42.97798" lon="-0.17733">
        <ele>837</ele>
        <time>2022-01-14T18:28:48Z</time>
      </trkpt>
      <trkpt lat="42.97765" lon="-0.17914">
        <ele>838</ele>
        <time>2022-01-14T18:29:20Z</time>
      </trkpt>
      <trkpt lat="42.9775" lon="-0.18036">
        <ele>842</ele>
        <time>2022-01-14T18:29:41Z</time>
      </trkpt>
      <trkpt lat="42.97751" lon="-0.18043">
        <ele>842</ele>
        <time>2022-01-14T18:29:42Z</time>
      </trkpt>
      <trkpt lat="42.97741" lon="-0.18085">
        <ele>843</ele>
        <time>2022-01-14T18:29:49Z</time>
      </trkpt>
      <trkpt lat="42.97711" lon="-0.18135">
        <ele>843</ele>
        <time>2022-01-14T18:30:01Z</time>
      </trkpt>
      <trkpt lat="42.97686" lon="-0.18183">
        <ele>843</ele>
        <time>2022-01-14T18:30:11Z</time>
      </trkpt>
      <trkpt lat="42.97647" lon="-0.18269">
        <ele>845</ele>
        <time>2022-01-14T18:30:28Z</time>
      </trkpt>
      <trkpt lat="42.97631" lon="-0.18328">
        <ele>847</ele>
        <time>2022-01-14T18:30:39Z</time>
      </trkpt>
      <trkpt lat="42.9761" lon="-0.18386">
        <ele>847</ele>
        <time>2022-01-14T18:30:50Z</time>
      </trkpt>
      <trkpt lat="42.97574" lon="-0.1851">
        <ele>845</ele>
        <time>2022-01-14T18:31:12Z</time>
      </trkpt>
      <trkpt lat="42.9756" lon="-0.18537">
        <ele>846</ele>
        <time>2022-01-14T18:31:18Z</time>
      </trkpt>
      <trkpt lat="42.9753" lon="-0.18575">
        <ele>846</ele>
        <time>2022-01-14T18:31:28Z</time>
      </trkpt>
      <trkpt lat="42.97515" lon="-0.186">
        <ele>846</ele>
        <time>2022-01-14T18:31:33Z</time>
      </trkpt>
      <trkpt lat="42.97504" lon="-0.1863">
        <ele>848</ele>
        <time>2022-01-14T18:31:39Z</time>
      </trkpt>
      <trkpt lat="42.97498" lon="-0.18683">
        <ele>850</ele>
        <time>2022-01-14T18:31:48Z</time>
      </trkpt>
      <trkpt lat="42.97493" lon="-0.18704">
        <ele>850</ele>
        <time>2022-01-14T18:31:52Z</time>
      </trkpt>
      <trkpt lat="42.97463" lon="-0.1875">
        <ele>851</ele>
        <time>2022-01-14T18:32:02Z</time>
      </trkpt>
      <trkpt lat="42.97457" lon="-0.18766">
        <ele>852</ele>
        <time>2022-01-14T18:32:05Z</time>
      </trkpt>
      <trkpt lat="42.97454" lon="-0.18785">
        <ele>852</ele>
        <time>2022-01-14T18:32:09Z</time>
      </trkpt>
      <trkpt lat="42.97456" lon="-0.18809">
        <ele>853</ele>
        <time>2022-01-14T18:32:13Z</time>
      </trkpt>
      <trkpt lat="42.97477" lon="-0.18876">
        <ele>854</ele>
        <time>2022-01-14T18:32:25Z</time>
      </trkpt>
      <trkpt lat="42.97482" lon="-0.18902">
        <ele>855</ele>
        <time>2022-01-14T18:32:30Z</time>
      </trkpt>
      <trkpt lat="42.97482" lon="-0.18948">
        <ele>858</ele>
        <time>2022-01-14T18:32:38Z</time>
      </trkpt>
      <trkpt lat="42.97465" lon="-0.19016">
        <ele>862</ele>
        <time>2022-01-14T18:32:50Z</time>
      </trkpt>
      <trkpt lat="42.9745" lon="-0.191">
        <ele>866</ele>
        <time>2022-01-14T18:33:05Z</time>
      </trkpt>
      <trkpt lat="42.9744" lon="-0.19126">
        <ele>866</ele>
        <time>2022-01-14T18:33:10Z</time>
      </trkpt>
      <trkpt lat="42.97421" lon="-0.19163">
        <ele>865</ele>
        <time>2022-01-14T18:33:18Z</time>
      </trkpt>
      <trkpt lat="42.97412" lon="-0.1919">
        <ele>867</ele>
        <time>2022-01-14T18:33:23Z</time>
      </trkpt>
      <trkpt lat="42.974" lon="-0.19215">
        <ele>869</ele>
        <time>2022-01-14T18:33:28Z</time>
      </trkpt>
      <trkpt lat="42.97399" lon="-0.19222">
        <ele>870</ele>
        <time>2022-01-14T18:33:29Z</time>
      </trkpt>
      <trkpt lat="42.97397" lon="-0.19222">
        <ele>870</ele>
        <time>2022-01-14T18:33:30Z</time>
      </trkpt>
      <trkpt lat="42.97383" lon="-0.19242">
        <ele>871</ele>
        <time>2022-01-14T18:33:34Z</time>
      </trkpt>
      <trkpt lat="42.97352" lon="-0.19277">
        <ele>872</ele>
        <time>2022-01-14T18:33:44Z</time>
      </trkpt>
      <trkpt lat="42.97339" lon="-0.19299">
        <ele>873</ele>
        <time>2022-01-14T18:33:48Z</time>
      </trkpt>
      <trkpt lat="42.97304" lon="-0.19371">
        <ele>871</ele>
        <time>2022-01-14T18:34:03Z</time>
      </trkpt>
      <trkpt lat="42.97294" lon="-0.19426">
        <ele>870</ele>
        <time>2022-01-14T18:34:13Z</time>
      </trkpt>
      <trkpt lat="42.97276" lon="-0.19463">
        <ele>869</ele>
        <time>2022-01-14T18:34:21Z</time>
      </trkpt>
      <trkpt lat="42.9724" lon="-0.19526">
        <ele>866</ele>
        <time>2022-01-14T18:34:34Z</time>
      </trkpt>
      <trkpt lat="42.97159" lon="-0.19651">
        <ele>860</ele>
        <time>2022-01-14T18:35:03Z</time>
      </trkpt>
      <trkpt lat="42.971" lon="-0.19732">
        <ele>858</ele>
        <time>2022-01-14T18:35:22Z</time>
      </trkpt>
      <trkpt lat="42.97045" lon="-0.19801">
        <ele>856</ele>
        <time>2022-01-14T18:35:40Z</time>
      </trkpt>
      <trkpt lat="42.97021" lon="-0.19836">
        <ele>855</ele>
        <time>2022-01-14T18:35:48Z</time>
      </trkpt>
      <trkpt lat="42.96997" lon="-0.19894">
        <ele>855</ele>
        <time>2022-01-14T18:35:59Z</time>
      </trkpt>
      <trkpt lat="42.96956" lon="-0.20013">
        <ele>863</ele>
        <time>2022-01-14T18:36:22Z</time>
      </trkpt>
      <trkpt lat="42.96938" lon="-0.20046">
        <ele>864</ele>
        <time>2022-01-14T18:36:29Z</time>
      </trkpt>
      <trkpt lat="42.9689" lon="-0.20108">
        <ele>866</ele>
        <time>2022-01-14T18:36:44Z</time>
      </trkpt>
      <trkpt lat="42.96849" lon="-0.20166">
        <ele>865</ele>
        <time>2022-01-14T18:36:58Z</time>
      </trkpt>
      <trkpt lat="42.96829" lon="-0.20188">
        <ele>867</ele>
        <time>2022-01-14T18:37:04Z</time>
      </trkpt>
      <trkpt lat="42.96798" lon="-0.2021">
        <ele>868</ele>
        <time>2022-01-14T18:37:12Z</time>
      </trkpt>
      <trkpt lat="42.96757" lon="-0.20229">
        <ele>866</ele>
        <time>2022-01-14T18:37:22Z</time>
      </trkpt>
      <trkpt lat="42.96707" lon="-0.20248">
        <ele>865</ele>
        <time>2022-01-14T18:37:34Z</time>
      </trkpt>
      <trkpt lat="42.96656" lon="-0.20253">
        <ele>864</ele>
        <time>2022-01-14T18:37:46Z</time>
      </trkpt>
      <trkpt lat="42.96638" lon="-0.2025">
        <ele>864</ele>
        <time>2022-01-14T18:37:51Z</time>
      </trkpt>
      <trkpt lat="42.96602" lon="-0.20228">
        <ele>864</ele>
        <time>2022-01-14T18:38:00Z</time>
      </trkpt>
      <trkpt lat="42.96583" lon="-0.20222">
        <ele>865</ele>
        <time>2022-01-14T18:38:04Z</time>
      </trkpt>
      <trkpt lat="42.96556" lon="-0.20199">
        <ele>863</ele>
        <time>2022-01-14T18:38:12Z</time>
      </trkpt>
      <trkpt lat="42.96519" lon="-0.20177">
        <ele>862</ele>
        <time>2022-01-14T18:38:21Z</time>
      </trkpt>
      <trkpt lat="42.96497" lon="-0.20172">
        <ele>861</ele>
        <time>2022-01-14T18:38:26Z</time>
      </trkpt>
      <trkpt lat="42.96461" lon="-0.20192">
        <ele>862</ele>
        <time>2022-01-14T18:38:35Z</time>
      </trkpt>
      <trkpt lat="42.96442" lon="-0.20191">
        <ele>862</ele>
        <time>2022-01-14T18:38:40Z</time>
      </trkpt>
      <trkpt lat="42.96424" lon="-0.20174">
        <ele>861</ele>
        <time>2022-01-14T18:38:45Z</time>
      </trkpt>
      <trkpt lat="42.96393" lon="-0.2016">
        <ele>861</ele>
        <time>2022-01-14T18:38:53Z</time>
      </trkpt>
      <trkpt lat="42.96352" lon="-0.20163">
        <ele>861</ele>
        <time>2022-01-14T18:39:02Z</time>
      </trkpt>
      <trkpt lat="42.96323" lon="-0.20176">
        <ele>862</ele>
        <time>2022-01-14T18:39:09Z</time>
      </trkpt>
      <trkpt lat="42.96189" lon="-0.20256">
        <ele>865</ele>
        <time>2022-01-14T18:39:43Z</time>
      </trkpt>
      <trkpt lat="42.96153" lon="-0.20283">
        <ele>865</ele>
        <time>2022-01-14T18:39:53Z</time>
      </trkpt>
      <trkpt lat="42.96135" lon="-0.20305">
        <ele>864</ele>
        <time>2022-01-14T18:39:59Z</time>
      </trkpt>
      <trkpt lat="42.96115" lon="-0.20339">
        <ele>863</ele>
        <time>2022-01-14T18:40:06Z</time>
      </trkpt>
      <trkpt lat="42.96024" lon="-0.20584">
        <ele>864</ele>
        <time>2022-01-14T18:40:53Z</time>
      </trkpt>
      <trkpt lat="42.96" lon="-0.20635">
        <ele>865</ele>
        <time>2022-01-14T18:41:03Z</time>
      </trkpt>
      <trkpt lat="42.95937" lon="-0.20726">
        <ele>868</ele>
        <time>2022-01-14T18:41:25Z</time>
      </trkpt>
      <trkpt lat="42.95825" lon="-0.20938">
        <ele>871</ele>
        <time>2022-01-14T18:42:10Z</time>
      </trkpt>
      <trkpt lat="42.95733" lon="-0.21091">
        <ele>871</ele>
        <time>2022-01-14T18:42:43Z</time>
      </trkpt>
      <trkpt lat="42.95727" lon="-0.21112">
        <ele>871</ele>
        <time>2022-01-14T18:42:47Z</time>
      </trkpt>
      <trkpt lat="42.95721" lon="-0.2112">
        <ele>871</ele>
        <time>2022-01-14T18:42:49Z</time>
      </trkpt>
      <trkpt lat="42.95713" lon="-0.21122">
        <ele>871</ele>
        <time>2022-01-14T18:42:51Z</time>
      </trkpt>
      <trkpt lat="42.95698" lon="-0.21149">
        <ele>871</ele>
        <time>2022-01-14T18:42:57Z</time>
      </trkpt>
      <trkpt lat="42.95672" lon="-0.21218">
        <ele>873</ele>
        <time>2022-01-14T18:43:10Z</time>
      </trkpt>
      <trkpt lat="42.95667" lon="-0.21277">
        <ele>876</ele>
        <time>2022-01-14T18:43:20Z</time>
      </trkpt>
      <trkpt lat="42.95654" lon="-0.21321">
        <ele>877</ele>
        <time>2022-01-14T18:43:28Z</time>
      </trkpt>
      <trkpt lat="42.95628" lon="-0.21362">
        <ele>878</ele>
        <time>2022-01-14T18:43:38Z</time>
      </trkpt>
      <trkpt lat="42.95623" lon="-0.21383">
        <ele>878</ele>
        <time>2022-01-14T18:43:41Z</time>
      </trkpt>
      <trkpt lat="42.95629" lon="-0.21437">
        <ele>880</ele>
        <time>2022-01-14T18:43:51Z</time>
      </trkpt>
      <trkpt lat="42.95658" lon="-0.21486">
        <ele>882</ele>
        <time>2022-01-14T18:44:02Z</time>
      </trkpt>
      <trkpt lat="42.95665" lon="-0.21511">
        <ele>882</ele>
        <time>2022-01-14T18:44:06Z</time>
      </trkpt>
      <trkpt lat="42.95682" lon="-0.21529">
        <ele>883</ele>
        <time>2022-01-14T18:44:11Z</time>
      </trkpt>
      <trkpt lat="42.95703" lon="-0.21545">
        <ele>885</ele>
        <time>2022-01-14T18:44:17Z</time>
      </trkpt>
      <trkpt lat="42.95704" lon="-0.21549">
        <ele>885</ele>
        <time>2022-01-14T18:44:18Z</time>
      </trkpt>
      <trkpt lat="42.95726" lon="-0.2156">
        <ele>887</ele>
        <time>2022-01-14T18:44:23Z</time>
      </trkpt>
      <trkpt lat="42.95741" lon="-0.21552">
        <ele>888</ele>
        <time>2022-01-14T18:44:27Z</time>
      </trkpt>
      <trkpt lat="42.95752" lon="-0.21536">
        <ele>888</ele>
        <time>2022-01-14T18:44:31Z</time>
      </trkpt>
      <trkpt lat="42.95759" lon="-0.2153">
        <ele>889</ele>
        <time>2022-01-14T18:44:32Z</time>
      </trkpt>
      <trkpt lat="42.95784" lon="-0.21519">
        <ele>895</ele>
        <time>2022-01-14T18:44:39Z</time>
      </trkpt>
      <trkpt lat="42.95803" lon="-0.21502">
        <ele>899</ele>
        <time>2022-01-14T18:44:44Z</time>
      </trkpt>
      <trkpt lat="42.95838" lon="-0.21443">
        <ele>903</ele>
        <time>2022-01-14T18:44:57Z</time>
      </trkpt>
      <trkpt lat="42.95847" lon="-0.21419">
        <ele>904</ele>
        <time>2022-01-14T18:45:01Z</time>
      </trkpt>
      <trkpt lat="42.95851" lon="-0.21376">
        <ele>902</ele>
        <time>2022-01-14T18:45:09Z</time>
      </trkpt>
      <trkpt lat="42.9586" lon="-0.21357">
        <ele>903</ele>
        <time>2022-01-14T18:45:13Z</time>
      </trkpt>
      <trkpt lat="42.95866" lon="-0.21348">
        <ele>904</ele>
        <time>2022-01-14T18:45:15Z</time>
      </trkpt>
      <trkpt lat="42.95896" lon="-0.21324">
        <ele>910</ele>
        <time>2022-01-14T18:45:23Z</time>
      </trkpt>
      <trkpt lat="42.95917" lon="-0.2129">
        <ele>912</ele>
        <time>2022-01-14T18:45:31Z</time>
      </trkpt>
      <trkpt lat="42.95935" lon="-0.21255">
        <ele>913</ele>
        <time>2022-01-14T18:45:38Z</time>
      </trkpt>
      <trkpt lat="42.96001" lon="-0.21181">
        <ele>921</ele>
        <time>2022-01-14T18:45:58Z</time>
      </trkpt>
      <trkpt lat="42.96016" lon="-0.21154">
        <ele>921</ele>
        <time>2022-01-14T18:46:04Z</time>
      </trkpt>
      <trkpt lat="42.96023" lon="-0.21126">
        <ele>919</ele>
        <time>2022-01-14T18:46:09Z</time>
      </trkpt>
      <trkpt lat="42.96033" lon="-0.21118">
        <ele>920</ele>
        <time>2022-01-14T18:46:11Z</time>
      </trkpt>
      <trkpt lat="42.96045" lon="-0.21115">
        <ele>922</ele>
        <time>2022-01-14T18:46:14Z</time>
      </trkpt>
      <trkpt lat="42.96051" lon="-0.21116">
        <ele>923</ele>
        <time>2022-01-14T18:46:16Z</time>
      </trkpt>
      <trkpt lat="42.96061" lon="-0.21127">
        <ele>926</ele>
        <time>2022-01-14T18:46:19Z</time>
      </trkpt>
      <trkpt lat="42.96064" lon="-0.21133">
        <ele>927</ele>
        <time>2022-01-14T18:46:20Z</time>
      </trkpt>
      <trkpt lat="42.96065" lon="-0.21146">
        <ele>928</ele>
        <time>2022-01-14T18:46:22Z</time>
      </trkpt>
      <trkpt lat="42.96065" lon="-0.21272">
        <ele>940</ele>
        <time>2022-01-14T18:46:44Z</time>
      </trkpt>
      <trkpt lat="42.96063" lon="-0.21319">
        <ele>943</ele>
        <time>2022-01-14T18:46:52Z</time>
      </trkpt>
      <trkpt lat="42.96055" lon="-0.21356">
        <ele>944</ele>
        <time>2022-01-14T18:46:58Z</time>
      </trkpt>
      <trkpt lat="42.96054" lon="-0.21377">
        <ele>945</ele>
        <time>2022-01-14T18:47:02Z</time>
      </trkpt>
      <trkpt lat="42.96063" lon="-0.21403">
        <ele>947</ele>
        <time>2022-01-14T18:47:07Z</time>
      </trkpt>
      <trkpt lat="42.9609" lon="-0.2144">
        <ele>953</ele>
        <time>2022-01-14T18:47:16Z</time>
      </trkpt>
      <trkpt lat="42.961" lon="-0.2146">
        <ele>957</ele>
        <time>2022-01-14T18:47:20Z</time>
      </trkpt>
      <trkpt lat="42.96104" lon="-0.21494">
        <ele>960</ele>
        <time>2022-01-14T18:47:26Z</time>
      </trkpt>
      <trkpt lat="42.96103" lon="-0.2158">
        <ele>964</ele>
        <time>2022-01-14T18:47:40Z</time>
      </trkpt>
      <trkpt lat="42.96096" lon="-0.2163">
        <ele>966</ele>
        <time>2022-01-14T18:47:49Z</time>
      </trkpt>
      <trkpt lat="42.96096" lon="-0.21713">
        <ele>972</ele>
        <time>2022-01-14T18:48:03Z</time>
      </trkpt>
      <trkpt lat="42.96093" lon="-0.21729">
        <ele>973</ele>
        <time>2022-01-14T18:48:06Z</time>
      </trkpt>
      <trkpt lat="42.96084" lon="-0.21755">
        <ele>973</ele>
        <time>2022-01-14T18:48:11Z</time>
      </trkpt>
      <trkpt lat="42.96081" lon="-0.2178">
        <ele>974</ele>
        <time>2022-01-14T18:48:15Z</time>
      </trkpt>
      <trkpt lat="42.96086" lon="-0.21843">
        <ele>979</ele>
        <time>2022-01-14T18:48:26Z</time>
      </trkpt>
      <trkpt lat="42.96085" lon="-0.21857">
        <ele>979</ele>
        <time>2022-01-14T18:48:29Z</time>
      </trkpt>
      <trkpt lat="42.96072" lon="-0.21889">
        <ele>977</ele>
        <time>2022-01-14T18:48:35Z</time>
      </trkpt>
      <trkpt lat="42.96068" lon="-0.21918">
        <ele>977</ele>
        <time>2022-01-14T18:48:40Z</time>
      </trkpt>
      <trkpt lat="42.96085" lon="-0.21975">
        <ele>981</ele>
        <time>2022-01-14T18:48:50Z</time>
      </trkpt>
      <trkpt lat="42.9609" lon="-0.22036">
        <ele>985</ele>
        <time>2022-01-14T18:49:01Z</time>
      </trkpt>
      <trkpt lat="42.96095" lon="-0.22045">
        <ele>987</ele>
        <time>2022-01-14T18:49:03Z</time>
      </trkpt>
      <trkpt lat="42.96109" lon="-0.22051">
        <ele>991</ele>
        <time>2022-01-14T18:49:06Z</time>
      </trkpt>
      <trkpt lat="42.96117" lon="-0.22048">
        <ele>994</ele>
        <time>2022-01-14T18:49:08Z</time>
      </trkpt>
      <trkpt lat="42.96123" lon="-0.22036">
        <ele>995</ele>
        <time>2022-01-14T18:49:11Z</time>
      </trkpt>
      <trkpt lat="42.96124" lon="-0.22017">
        <ele>994</ele>
        <time>2022-01-14T18:49:14Z</time>
      </trkpt>
      <trkpt lat="42.96117" lon="-0.21989">
        <ele>990</ele>
        <time>2022-01-14T18:49:19Z</time>
      </trkpt>
      <trkpt lat="42.96114" lon="-0.21954">
        <ele>988</ele>
        <time>2022-01-14T18:49:25Z</time>
      </trkpt>
      <trkpt lat="42.96118" lon="-0.21942">
        <ele>989</ele>
        <time>2022-01-14T18:49:27Z</time>
      </trkpt>
      <trkpt lat="42.96129" lon="-0.21927">
        <ele>991</ele>
        <time>2022-01-14T18:49:31Z</time>
      </trkpt>
      <trkpt lat="42.96138" lon="-0.21921">
        <ele>993</ele>
        <time>2022-01-14T18:49:33Z</time>
      </trkpt>
      <trkpt lat="42.96147" lon="-0.21919">
        <ele>995</ele>
        <time>2022-01-14T18:49:35Z</time>
      </trkpt>
      <trkpt lat="42.96159" lon="-0.2192">
        <ele>997</ele>
        <time>2022-01-14T18:49:38Z</time>
      </trkpt>
      <trkpt lat="42.96195" lon="-0.21935">
        <ele>1008</ele>
        <time>2022-01-14T18:49:47Z</time>
      </trkpt>
      <trkpt lat="42.96209" lon="-0.21937">
        <ele>1012</ele>
        <time>2022-01-14T18:49:50Z</time>
      </trkpt>
      <trkpt lat="42.96224" lon="-0.21933">
        <ele>1016</ele>
        <time>2022-01-14T18:49:54Z</time>
      </trkpt>
      <trkpt lat="42.96228" lon="-0.21929">
        <ele>1017</ele>
        <time>2022-01-14T18:49:55Z</time>
      </trkpt>
      <trkpt lat="42.96232" lon="-0.21916">
        <ele>1017</ele>
        <time>2022-01-14T18:49:57Z</time>
      </trkpt>
      <trkpt lat="42.96233" lon="-0.21893">
        <ele>1016</ele>
        <time>2022-01-14T18:50:01Z</time>
      </trkpt>
      <trkpt lat="42.96224" lon="-0.21863">
        <ele>1013</ele>
        <time>2022-01-14T18:50:07Z</time>
      </trkpt>
      <trkpt lat="42.96224" lon="-0.21852">
        <ele>1012</ele>
        <time>2022-01-14T18:50:09Z</time>
      </trkpt>
      <trkpt lat="42.96234" lon="-0.2181">
        <ele>1012</ele>
        <time>2022-01-14T18:50:16Z</time>
      </trkpt>
      <trkpt lat="42.96243" lon="-0.21795">
        <ele>1013</ele>
        <time>2022-01-14T18:50:20Z</time>
      </trkpt>
      <trkpt lat="42.96255" lon="-0.21785">
        <ele>1015</ele>
        <time>2022-01-14T18:50:23Z</time>
      </trkpt>
      <trkpt lat="42.96261" lon="-0.21784">
        <ele>1015</ele>
        <time>2022-01-14T18:50:24Z</time>
      </trkpt>
      <trkpt lat="42.9627" lon="-0.21785">
        <ele>1016</ele>
        <time>2022-01-14T18:50:26Z</time>
      </trkpt>
      <trkpt lat="42.9628" lon="-0.21791">
        <ele>1018</ele>
        <time>2022-01-14T18:50:29Z</time>
      </trkpt>
      <trkpt lat="42.96287" lon="-0.21797">
        <ele>1020</ele>
        <time>2022-01-14T18:50:31Z</time>
      </trkpt>
      <trkpt lat="42.96292" lon="-0.21807">
        <ele>1021</ele>
        <time>2022-01-14T18:50:33Z</time>
      </trkpt>
      <trkpt lat="42.96294" lon="-0.21855">
        <ele>1026</ele>
        <time>2022-01-14T18:50:41Z</time>
      </trkpt>
      <trkpt lat="42.96302" lon="-0.21873">
        <ele>1029</ele>
        <time>2022-01-14T18:50:45Z</time>
      </trkpt>
      <trkpt lat="42.96306" lon="-0.21876">
        <ele>1030</ele>
        <time>2022-01-14T18:50:46Z</time>
      </trkpt>
      <trkpt lat="42.96319" lon="-0.21877">
        <ele>1032</ele>
        <time>2022-01-14T18:50:49Z</time>
      </trkpt>
      <trkpt lat="42.96332" lon="-0.21869">
        <ele>1033</ele>
        <time>2022-01-14T18:50:52Z</time>
      </trkpt>
      <trkpt lat="42.96353" lon="-0.21851">
        <ele>1035</ele>
        <time>2022-01-14T18:50:58Z</time>
      </trkpt>
      <trkpt lat="42.96438" lon="-0.21753">
        <ele>1044</ele>
        <time>2022-01-14T18:51:24Z</time>
      </trkpt>
      <trkpt lat="42.96478" lon="-0.21719">
        <ele>1051</ele>
        <time>2022-01-14T18:51:35Z</time>
      </trkpt>
      <trkpt lat="42.96491" lon="-0.21698">
        <ele>1052</ele>
        <time>2022-01-14T18:51:40Z</time>
      </trkpt>
      <trkpt lat="42.96506" lon="-0.21682">
        <ele>1054</ele>
        <time>2022-01-14T18:51:44Z</time>
      </trkpt>
      <trkpt lat="42.96532" lon="-0.21644">
        <ele>1056</ele>
        <time>2022-01-14T18:51:53Z</time>
      </trkpt>
      <trkpt lat="42.96549" lon="-0.21628">
        <ele>1058</ele>
        <time>2022-01-14T18:51:58Z</time>
      </trkpt>
      <trkpt lat="42.96559" lon="-0.21622">
        <ele>1059</ele>
        <time>2022-01-14T18:52:00Z</time>
      </trkpt>
      <trkpt lat="42.9658" lon="-0.21615">
        <ele>1063</ele>
        <time>2022-01-14T18:52:05Z</time>
      </trkpt>
      <trkpt lat="42.96589" lon="-0.21607">
        <ele>1064</ele>
        <time>2022-01-14T18:52:08Z</time>
      </trkpt>
      <trkpt lat="42.96593" lon="-0.21601">
        <ele>1065</ele>
        <time>2022-01-14T18:52:09Z</time>
      </trkpt>
      <trkpt lat="42.96611" lon="-0.21544">
        <ele>1061</ele>
        <time>2022-01-14T18:52:20Z</time>
      </trkpt>
      <trkpt lat="42.9662" lon="-0.21523">
        <ele>1060</ele>
        <time>2022-01-14T18:52:24Z</time>
      </trkpt>
      <trkpt lat="42.96625" lon="-0.21518">
        <ele>1060</ele>
        <time>2022-01-14T18:52:26Z</time>
      </trkpt>
      <trkpt lat="42.96638" lon="-0.21515">
        <ele>1062</ele>
        <time>2022-01-14T18:52:29Z</time>
      </trkpt>
      <trkpt lat="42.96643" lon="-0.21519">
        <ele>1064</ele>
        <time>2022-01-14T18:52:30Z</time>
      </trkpt>
      <trkpt lat="42.9665" lon="-0.2153">
        <ele>1067</ele>
        <time>2022-01-14T18:52:32Z</time>
      </trkpt>
      <trkpt lat="42.96653" lon="-0.21549">
        <ele>1070</ele>
        <time>2022-01-14T18:52:36Z</time>
      </trkpt>
      <trkpt lat="42.96641" lon="-0.21591">
        <ele>1073</ele>
        <time>2022-01-14T18:52:43Z</time>
      </trkpt>
      <trkpt lat="42.96642" lon="-0.21659">
        <ele>1083</ele>
        <time>2022-01-14T18:52:55Z</time>
      </trkpt>
      <trkpt lat="42.96631" lon="-0.2172">
        <ele>1090</ele>
        <time>2022-01-14T18:53:06Z</time>
      </trkpt>
      <trkpt lat="42.96627" lon="-0.21733">
        <ele>1091</ele>
        <time>2022-01-14T18:53:08Z</time>
      </trkpt>
      <trkpt lat="42.96617" lon="-0.2175">
        <ele>1090</ele>
        <time>2022-01-14T18:53:12Z</time>
      </trkpt>
      <trkpt lat="42.96611" lon="-0.2177">
        <ele>1090</ele>
        <time>2022-01-14T18:53:16Z</time>
      </trkpt>
      <trkpt lat="42.96612" lon="-0.21823">
        <ele>1099</ele>
        <time>2022-01-14T18:53:25Z</time>
      </trkpt>
      <trkpt lat="42.96597" lon="-0.2191">
        <ele>1106</ele>
        <time>2022-01-14T18:53:40Z</time>
      </trkpt>
      <trkpt lat="42.96599" lon="-0.2193">
        <ele>1109</ele>
        <time>2022-01-14T18:53:43Z</time>
      </trkpt>
      <trkpt lat="42.96598" lon="-0.21954">
        <ele>1111</ele>
        <time>2022-01-14T18:53:48Z</time>
      </trkpt>
      <trkpt lat="42.9659" lon="-0.21985">
        <ele>1112</ele>
        <time>2022-01-14T18:53:53Z</time>
      </trkpt>
      <trkpt lat="42.96563" lon="-0.22047">
        <ele>1110</ele>
        <time>2022-01-14T18:54:06Z</time>
      </trkpt>
      <trkpt lat="42.96552" lon="-0.22101">
        <ele>1111</ele>
        <time>2022-01-14T18:54:15Z</time>
      </trkpt>
      <trkpt lat="42.96553" lon="-0.22123">
        <ele>1113</ele>
        <time>2022-01-14T18:54:19Z</time>
      </trkpt>
      <trkpt lat="42.96567" lon="-0.22169">
        <ele>1122</ele>
        <time>2022-01-14T18:54:27Z</time>
      </trkpt>
      <trkpt lat="42.96568" lon="-0.22201">
        <ele>1125</ele>
        <time>2022-01-14T18:54:33Z</time>
      </trkpt>
      <trkpt lat="42.96513" lon="-0.22342">
        <ele>1126</ele>
        <time>2022-01-14T18:55:00Z</time>
      </trkpt>
      <trkpt lat="42.96511" lon="-0.22362">
        <ele>1128</ele>
        <time>2022-01-14T18:55:04Z</time>
      </trkpt>
      <trkpt lat="42.96515" lon="-0.2238">
        <ele>1131</ele>
        <time>2022-01-14T18:55:07Z</time>
      </trkpt>
      <trkpt lat="42.96526" lon="-0.22393">
        <ele>1134</ele>
        <time>2022-01-14T18:55:10Z</time>
      </trkpt>
      <trkpt lat="42.96541" lon="-0.22399">
        <ele>1137</ele>
        <time>2022-01-14T18:55:14Z</time>
      </trkpt>
      <trkpt lat="42.9658" lon="-0.224">
        <ele>1143</ele>
        <time>2022-01-14T18:55:23Z</time>
      </trkpt>
      <trkpt lat="42.96618" lon="-0.22385">
        <ele>1144</ele>
        <time>2022-01-14T18:55:32Z</time>
      </trkpt>
      <trkpt lat="42.96631" lon="-0.22384">
        <ele>1145</ele>
        <time>2022-01-14T18:55:35Z</time>
      </trkpt>
      <trkpt lat="42.96643" lon="-0.22385">
        <ele>1145</ele>
        <time>2022-01-14T18:55:38Z</time>
      </trkpt>
      <trkpt lat="42.96663" lon="-0.22393">
        <ele>1146</ele>
        <time>2022-01-14T18:55:43Z</time>
      </trkpt>
      <trkpt lat="42.96688" lon="-0.22413">
        <ele>1145</ele>
        <time>2022-01-14T18:55:50Z</time>
      </trkpt>
      <trkpt lat="42.96725" lon="-0.22464">
        <ele>1148</ele>
        <time>2022-01-14T18:56:02Z</time>
      </trkpt>
      <trkpt lat="42.96733" lon="-0.22481">
        <ele>1149</ele>
        <time>2022-01-14T18:56:05Z</time>
      </trkpt>
      <trkpt lat="42.96737" lon="-0.22498">
        <ele>1150</ele>
        <time>2022-01-14T18:56:08Z</time>
      </trkpt>
      <trkpt lat="42.96736" lon="-0.22515">
        <ele>1152</ele>
        <time>2022-01-14T18:56:11Z</time>
      </trkpt>
      <trkpt lat="42.96722" lon="-0.22574">
        <ele>1158</ele>
        <time>2022-01-14T18:56:22Z</time>
      </trkpt>
      <trkpt lat="42.96715" lon="-0.22619">
        <ele>1161</ele>
        <time>2022-01-14T18:56:30Z</time>
      </trkpt>
      <trkpt lat="42.96718" lon="-0.22671">
        <ele>1166</ele>
        <time>2022-01-14T18:56:39Z</time>
      </trkpt>
      <trkpt lat="42.96726" lon="-0.22703">
        <ele>1168</ele>
        <time>2022-01-14T18:56:45Z</time>
      </trkpt>
      <trkpt lat="42.96722" lon="-0.22733">
        <ele>1170</ele>
        <time>2022-01-14T18:56:50Z</time>
      </trkpt>
      <trkpt lat="42.96711" lon="-0.22758">
        <ele>1173</ele>
        <time>2022-01-14T18:56:55Z</time>
      </trkpt>
      <trkpt lat="42.96671" lon="-0.22791">
        <ele>1176</ele>
        <time>2022-01-14T18:57:06Z</time>
      </trkpt>
      <trkpt lat="42.96656" lon="-0.22797">
        <ele>1177</ele>
        <time>2022-01-14T18:57:09Z</time>
      </trkpt>
      <trkpt lat="42.96636" lon="-0.22792">
        <ele>1178</ele>
        <time>2022-01-14T18:57:14Z</time>
      </trkpt>
      <trkpt lat="42.96619" lon="-0.22768">
        <ele>1175</ele>
        <time>2022-01-14T18:57:20Z</time>
      </trkpt>
      <trkpt lat="42.96592" lon="-0.22747">
        <ele>1174</ele>
        <time>2022-01-14T18:57:27Z</time>
      </trkpt>
      <trkpt lat="42.96573" lon="-0.22752">
        <ele>1174</ele>
        <time>2022-01-14T18:57:32Z</time>
      </trkpt>
      <trkpt lat="42.96553" lon="-0.22765">
        <ele>1173</ele>
        <time>2022-01-14T18:57:37Z</time>
      </trkpt>
      <trkpt lat="42.96545" lon="-0.22776">
        <ele>1173</ele>
        <time>2022-01-14T18:57:39Z</time>
      </trkpt>
      <trkpt lat="42.96536" lon="-0.22798">
        <ele>1176</ele>
        <time>2022-01-14T18:57:44Z</time>
      </trkpt>
      <trkpt lat="42.96528" lon="-0.22839">
        <ele>1182</ele>
        <time>2022-01-14T18:57:51Z</time>
      </trkpt>
      <trkpt lat="42.96505" lon="-0.22916">
        <ele>1194</ele>
        <time>2022-01-14T18:58:05Z</time>
      </trkpt>
      <trkpt lat="42.96489" lon="-0.22946">
        <ele>1197</ele>
        <time>2022-01-14T18:58:11Z</time>
      </trkpt>
      <trkpt lat="42.96476" lon="-0.2296">
        <ele>1198</ele>
        <time>2022-01-14T18:58:15Z</time>
      </trkpt>
      <trkpt lat="42.96449" lon="-0.22982">
        <ele>1199</ele>
        <time>2022-01-14T18:58:23Z</time>
      </trkpt>
      <trkpt lat="42.96435" lon="-0.22999">
        <ele>1201</ele>
        <time>2022-01-14T18:58:27Z</time>
      </trkpt>
      <trkpt lat="42.96429" lon="-0.23011">
        <ele>1202</ele>
        <time>2022-01-14T18:58:30Z</time>
      </trkpt>
      <trkpt lat="42.96426" lon="-0.23024">
        <ele>1203</ele>
        <time>2022-01-14T18:58:32Z</time>
      </trkpt>
      <trkpt lat="42.96423" lon="-0.23056">
        <ele>1207</ele>
        <time>2022-01-14T18:58:37Z</time>
      </trkpt>
      <trkpt lat="42.96418" lon="-0.23074">
        <ele>1209</ele>
        <time>2022-01-14T18:58:41Z</time>
      </trkpt>
      <trkpt lat="42.9641" lon="-0.23084">
        <ele>1210</ele>
        <time>2022-01-14T18:58:43Z</time>
      </trkpt>
      <trkpt lat="42.96397" lon="-0.2309">
        <ele>1211</ele>
        <time>2022-01-14T18:58:46Z</time>
      </trkpt>
      <trkpt lat="42.96384" lon="-0.2309">
        <ele>1210</ele>
        <time>2022-01-14T18:58:49Z</time>
      </trkpt>
      <trkpt lat="42.96369" lon="-0.23083">
        <ele>1209</ele>
        <time>2022-01-14T18:58:53Z</time>
      </trkpt>
      <trkpt lat="42.96351" lon="-0.23086">
        <ele>1209</ele>
        <time>2022-01-14T18:58:57Z</time>
      </trkpt>
      <trkpt lat="42.96341" lon="-0.23092">
        <ele>1210</ele>
        <time>2022-01-14T18:59:00Z</time>
      </trkpt>
      <trkpt lat="42.96292" lon="-0.23142">
        <ele>1214</ele>
        <time>2022-01-14T18:59:14Z</time>
      </trkpt>
      <trkpt lat="42.96277" lon="-0.23161">
        <ele>1215</ele>
        <time>2022-01-14T18:59:19Z</time>
      </trkpt>
      <trkpt lat="42.96265" lon="-0.23189">
        <ele>1219</ele>
        <time>2022-01-14T18:59:25Z</time>
      </trkpt>
      <trkpt lat="42.96259" lon="-0.23209">
        <ele>1221</ele>
        <time>2022-01-14T18:59:28Z</time>
      </trkpt>
      <trkpt lat="42.96254" lon="-0.2324">
        <ele>1226</ele>
        <time>2022-01-14T18:59:34Z</time>
      </trkpt>
      <trkpt lat="42.96241" lon="-0.2328">
        <ele>1226</ele>
        <time>2022-01-14T18:59:41Z</time>
      </trkpt>
      <trkpt lat="42.96235" lon="-0.23322">
        <ele>1227</ele>
        <time>2022-01-14T18:59:48Z</time>
      </trkpt>
      <trkpt lat="42.9624" lon="-0.23361">
        <ele>1230</ele>
        <time>2022-01-14T18:59:55Z</time>
      </trkpt>
      <trkpt lat="42.96246" lon="-0.23382">
        <ele>1233</ele>
        <time>2022-01-14T18:59:59Z</time>
      </trkpt>
      <trkpt lat="42.96296" lon="-0.2354">
        <ele>1247</ele>
        <time>2022-01-14T19:00:28Z</time>
      </trkpt>
      <trkpt lat="42.96309" lon="-0.23593">
        <ele>1250</ele>
        <time>2022-01-14T19:00:38Z</time>
      </trkpt>
      <trkpt lat="42.96326" lon="-0.23635">
        <ele>1253</ele>
        <time>2022-01-14T19:00:46Z</time>
      </trkpt>
      <trkpt lat="42.96348" lon="-0.23669">
        <ele>1260</ele>
        <time>2022-01-14T19:00:54Z</time>
      </trkpt>
      <trkpt lat="42.96359" lon="-0.23695">
        <ele>1264</ele>
        <time>2022-01-14T19:00:59Z</time>
      </trkpt>
      <trkpt lat="42.96409" lon="-0.23846">
        <ele>1278</ele>
        <time>2022-01-14T19:01:27Z</time>
      </trkpt>
      <trkpt lat="42.96411" lon="-0.23861">
        <ele>1279</ele>
        <time>2022-01-14T19:01:30Z</time>
      </trkpt>
      <trkpt lat="42.96398" lon="-0.23892">
        <ele>1276</ele>
        <time>2022-01-14T19:01:36Z</time>
      </trkpt>
      <trkpt lat="42.96394" lon="-0.2391">
        <ele>1276</ele>
        <time>2022-01-14T19:01:39Z</time>
      </trkpt>
      <trkpt lat="42.96403" lon="-0.2395">
        <ele>1281</ele>
        <time>2022-01-14T19:01:47Z</time>
      </trkpt>
      <trkpt lat="42.9642" lon="-0.23984">
        <ele>1287</ele>
        <time>2022-01-14T19:01:54Z</time>
      </trkpt>
      <trkpt lat="42.96424" lon="-0.24007">
        <ele>1290</ele>
        <time>2022-01-14T19:01:58Z</time>
      </trkpt>
      <trkpt lat="42.96415" lon="-0.24035">
        <ele>1291</ele>
        <time>2022-01-14T19:02:03Z</time>
      </trkpt>
      <trkpt lat="42.964" lon="-0.24058">
        <ele>1291</ele>
        <time>2022-01-14T19:02:08Z</time>
      </trkpt>
      <trkpt lat="42.96392" lon="-0.24075">
        <ele>1292</ele>
        <time>2022-01-14T19:02:12Z</time>
      </trkpt>
      <trkpt lat="42.9637" lon="-0.24103">
        <ele>1295</ele>
        <time>2022-01-14T19:02:19Z</time>
      </trkpt>
      <trkpt lat="42.96354" lon="-0.2411">
        <ele>1295</ele>
        <time>2022-01-14T19:02:22Z</time>
      </trkpt>
      <trkpt lat="42.96331" lon="-0.24107">
        <ele>1292</ele>
        <time>2022-01-14T19:02:28Z</time>
      </trkpt>
      <trkpt lat="42.96314" lon="-0.24109">
        <ele>1291</ele>
        <time>2022-01-14T19:02:32Z</time>
      </trkpt>
      <trkpt lat="42.96294" lon="-0.24122">
        <ele>1292</ele>
        <time>2022-01-14T19:02:37Z</time>
      </trkpt>
      <trkpt lat="42.9628" lon="-0.2414">
        <ele>1294</ele>
        <time>2022-01-14T19:02:42Z</time>
      </trkpt>
      <trkpt lat="42.96272" lon="-0.24172">
        <ele>1297</ele>
        <time>2022-01-14T19:02:47Z</time>
      </trkpt>
      <trkpt lat="42.96274" lon="-0.24193">
        <ele>1298</ele>
        <time>2022-01-14T19:02:51Z</time>
      </trkpt>
      <trkpt lat="42.96281" lon="-0.24214">
        <ele>1301</ele>
        <time>2022-01-14T19:02:55Z</time>
      </trkpt>
      <trkpt lat="42.96289" lon="-0.24225">
        <ele>1303</ele>
        <time>2022-01-14T19:02:58Z</time>
      </trkpt>
      <trkpt lat="42.96299" lon="-0.24233">
        <ele>1305</ele>
        <time>2022-01-14T19:03:00Z</time>
      </trkpt>
      <trkpt lat="42.96331" lon="-0.24234">
        <ele>1312</ele>
        <time>2022-01-14T19:03:08Z</time>
      </trkpt>
      <trkpt lat="42.96343" lon="-0.24242">
        <ele>1314</ele>
        <time>2022-01-14T19:03:11Z</time>
      </trkpt>
      <trkpt lat="42.96352" lon="-0.24261">
        <ele>1317</ele>
        <time>2022-01-14T19:03:15Z</time>
      </trkpt>
      <trkpt lat="42.96353" lon="-0.24287">
        <ele>1320</ele>
        <time>2022-01-14T19:03:19Z</time>
      </trkpt>
      <trkpt lat="42.96348" lon="-0.24299">
        <ele>1321</ele>
        <time>2022-01-14T19:03:22Z</time>
      </trkpt>
      <trkpt lat="42.96313" lon="-0.2434">
        <ele>1320</ele>
        <time>2022-01-14T19:03:32Z</time>
      </trkpt>
      <trkpt lat="42.96305" lon="-0.24354">
        <ele>1321</ele>
        <time>2022-01-14T19:03:35Z</time>
      </trkpt>
      <trkpt lat="42.96282" lon="-0.24406">
        <ele>1326</ele>
        <time>2022-01-14T19:03:46Z</time>
      </trkpt>
      <trkpt lat="42.96277" lon="-0.24423">
        <ele>1329</ele>
        <time>2022-01-14T19:03:49Z</time>
      </trkpt>
      <trkpt lat="42.96251" lon="-0.24474">
        <ele>1339</ele>
        <time>2022-01-14T19:03:59Z</time>
      </trkpt>
      <trkpt lat="42.96227" lon="-0.24502">
        <ele>1342</ele>
        <time>2022-01-14T19:04:07Z</time>
      </trkpt>
      <trkpt lat="42.96196" lon="-0.24529">
        <ele>1344</ele>
        <time>2022-01-14T19:04:15Z</time>
      </trkpt>
      <trkpt lat="42.96162" lon="-0.24563">
        <ele>1347</ele>
        <time>2022-01-14T19:04:25Z</time>
      </trkpt>
      <trkpt lat="42.96143" lon="-0.24585">
        <ele>1347</ele>
        <time>2022-01-14T19:04:31Z</time>
      </trkpt>
      <trkpt lat="42.96124" lon="-0.24613">
        <ele>1347</ele>
        <time>2022-01-14T19:04:38Z</time>
      </trkpt>
      <trkpt lat="42.96094" lon="-0.24712">
        <ele>1356</ele>
        <time>2022-01-14T19:04:56Z</time>
      </trkpt>
      <trkpt lat="42.96082" lon="-0.24775">
        <ele>1363</ele>
        <time>2022-01-14T19:05:07Z</time>
      </trkpt>
      <trkpt lat="42.96058" lon="-0.24825">
        <ele>1366</ele>
        <time>2022-01-14T19:05:17Z</time>
      </trkpt>
      <trkpt lat="42.96027" lon="-0.2487">
        <ele>1364</ele>
        <time>2022-01-14T19:05:28Z</time>
      </trkpt>
      <trkpt lat="42.9601" lon="-0.24926">
        <ele>1368</ele>
        <time>2022-01-14T19:05:38Z</time>
      </trkpt>
      <trkpt lat="42.96005" lon="-0.24952">
        <ele>1367</ele>
        <time>2022-01-14T19:05:43Z</time>
      </trkpt>
      <trkpt lat="42.96008" lon="-0.24991">
        <ele>1369</ele>
        <time>2022-01-14T19:05:49Z</time>
      </trkpt>
      <trkpt lat="42.96014" lon="-0.25003">
        <ele>1371</ele>
        <time>2022-01-14T19:05:52Z</time>
      </trkpt>
      <trkpt lat="42.96027" lon="-0.25019">
        <ele>1374</ele>
        <time>2022-01-14T19:05:56Z</time>
      </trkpt>
      <trkpt lat="42.96032" lon="-0.25024">
        <ele>1375</ele>
        <time>2022-01-14T19:05:57Z</time>
      </trkpt>
      <trkpt lat="42.96049" lon="-0.25033">
        <ele>1380</ele>
        <time>2022-01-14T19:06:02Z</time>
      </trkpt>
      <trkpt lat="42.96096" lon="-0.25036">
        <ele>1392</ele>
        <time>2022-01-14T19:06:13Z</time>
      </trkpt>
      <trkpt lat="42.96107" lon="-0.25039">
        <ele>1394</ele>
        <time>2022-01-14T19:06:15Z</time>
      </trkpt>
      <trkpt lat="42.96112" lon="-0.25043">
        <ele>1396</ele>
        <time>2022-01-14T19:06:17Z</time>
      </trkpt>
      <trkpt lat="42.96121" lon="-0.25061">
        <ele>1398</ele>
        <time>2022-01-14T19:06:20Z</time>
      </trkpt>
      <trkpt lat="42.96122" lon="-0.25088">
        <ele>1399</ele>
        <time>2022-01-14T19:06:25Z</time>
      </trkpt>
      <trkpt lat="42.96098" lon="-0.25151">
        <ele>1396</ele>
        <time>2022-01-14T19:06:37Z</time>
      </trkpt>
      <trkpt lat="42.96095" lon="-0.25179">
        <ele>1396</ele>
        <time>2022-01-14T19:06:42Z</time>
      </trkpt>
      <trkpt lat="42.96101" lon="-0.25199">
        <ele>1398</ele>
        <time>2022-01-14T19:06:46Z</time>
      </trkpt>
      <trkpt lat="42.96123" lon="-0.25227">
        <ele>1404</ele>
        <time>2022-01-14T19:06:53Z</time>
      </trkpt>
      <trkpt lat="42.96128" lon="-0.25239">
        <ele>1406</ele>
        <time>2022-01-14T19:06:55Z</time>
      </trkpt>
      <trkpt lat="42.96127" lon="-0.25254">
        <ele>1406</ele>
        <time>2022-01-14T19:06:58Z</time>
      </trkpt>
      <trkpt lat="42.9612" lon="-0.25276">
        <ele>1406</ele>
        <time>2022-01-14T19:07:02Z</time>
      </trkpt>
      <trkpt lat="42.96117" lon="-0.253">
        <ele>1407</ele>
        <time>2022-01-14T19:07:06Z</time>
      </trkpt>
      <trkpt lat="42.96119" lon="-0.25355">
        <ele>1414</ele>
        <time>2022-01-14T19:07:15Z</time>
      </trkpt>
      <trkpt lat="42.96114" lon="-0.25395">
        <ele>1421</ele>
        <time>2022-01-14T19:07:22Z</time>
      </trkpt>
      <trkpt lat="42.961" lon="-0.25411">
        <ele>1422</ele>
        <time>2022-01-14T19:07:27Z</time>
      </trkpt>
      <trkpt lat="42.96083" lon="-0.25418">
        <ele>1422</ele>
        <time>2022-01-14T19:07:31Z</time>
      </trkpt>
      <trkpt lat="42.96069" lon="-0.25428">
        <ele>1421</ele>
        <time>2022-01-14T19:07:34Z</time>
      </trkpt>
      <trkpt lat="42.96049" lon="-0.25451">
        <ele>1421</ele>
        <time>2022-01-14T19:07:40Z</time>
      </trkpt>
      <trkpt lat="42.96031" lon="-0.25485">
        <ele>1422</ele>
        <time>2022-01-14T19:07:48Z</time>
      </trkpt>
      <trkpt lat="42.96025" lon="-0.25531">
        <ele>1422</ele>
        <time>2022-01-14T19:07:56Z</time>
      </trkpt>
      <trkpt lat="42.96028" lon="-0.25564">
        <ele>1423</ele>
        <time>2022-01-14T19:08:01Z</time>
      </trkpt>
      <trkpt lat="42.96033" lon="-0.25582">
        <ele>1424</ele>
        <time>2022-01-14T19:08:05Z</time>
      </trkpt>
      <trkpt lat="42.96041" lon="-0.25592">
        <ele>1426</ele>
        <time>2022-01-14T19:08:07Z</time>
      </trkpt>
      <trkpt lat="42.96068" lon="-0.25608">
        <ele>1433</ele>
        <time>2022-01-14T19:08:14Z</time>
      </trkpt>
      <trkpt lat="42.96081" lon="-0.25627">
        <ele>1438</ele>
        <time>2022-01-14T19:08:18Z</time>
      </trkpt>
      <trkpt lat="42.96084" lon="-0.25642">
        <ele>1439</ele>
        <time>2022-01-14T19:08:21Z</time>
      </trkpt>
      <trkpt lat="42.96083" lon="-0.25662">
        <ele>1441</ele>
        <time>2022-01-14T19:08:25Z</time>
      </trkpt>
      <trkpt lat="42.96088" lon="-0.25672">
        <ele>1442</ele>
        <time>2022-01-14T19:08:27Z</time>
      </trkpt>
      <trkpt lat="42.96088" lon="-0.25681">
        <ele>1442</ele>
        <time>2022-01-14T19:08:28Z</time>
      </trkpt>
      <trkpt lat="42.9609" lon="-0.25678">
        <ele>1443</ele>
        <time>2022-01-14T19:08:29Z</time>
      </trkpt>
      <trkpt lat="42.96082" lon="-0.25679">
        <ele>1441</ele>
        <time>2022-01-14T19:08:31Z</time>
      </trkpt>
      <trkpt lat="42.96082" lon="-0.25732">
        <ele>1444</ele>
        <time>2022-01-14T19:08:40Z</time>
      </trkpt>
      <trkpt lat="42.96076" lon="-0.25778">
        <ele>1446</ele>
        <time>2022-01-14T19:08:48Z</time>
      </trkpt>
      <trkpt lat="42.96056" lon="-0.25866">
        <ele>1450</ele>
        <time>2022-01-14T19:09:03Z</time>
      </trkpt>
      <trkpt lat="42.96041" lon="-0.25906">
        <ele>1452</ele>
        <time>2022-01-14T19:09:11Z</time>
      </trkpt>
      <trkpt lat="42.96035" lon="-0.25931">
        <ele>1453</ele>
        <time>2022-01-14T19:09:16Z</time>
      </trkpt>
      <trkpt lat="42.96037" lon="-0.25976">
        <ele>1457</ele>
        <time>2022-01-14T19:09:23Z</time>
      </trkpt>
      <trkpt lat="42.96041" lon="-0.25992">
        <ele>1460</ele>
        <time>2022-01-14T19:09:26Z</time>
      </trkpt>
      <trkpt lat="42.96058" lon="-0.26021">
        <ele>1465</ele>
        <time>2022-01-14T19:09:33Z</time>
      </trkpt>
      <trkpt lat="42.96062" lon="-0.26045">
        <ele>1468</ele>
        <time>2022-01-14T19:09:37Z</time>
      </trkpt>
      <trkpt lat="42.96061" lon="-0.26096">
        <ele>1470</ele>
        <time>2022-01-14T19:09:46Z</time>
      </trkpt>
      <trkpt lat="42.96066" lon="-0.26146">
        <ele>1471</ele>
        <time>2022-01-14T19:09:54Z</time>
      </trkpt>
      <trkpt lat="42.96067" lon="-0.26186">
        <ele>1470</ele>
        <time>2022-01-14T19:10:01Z</time>
      </trkpt>
      <trkpt lat="42.96048" lon="-0.26359">
        <ele>1463</ele>
        <time>2022-01-14T19:10:31Z</time>
      </trkpt>
      <trkpt lat="42.96031" lon="-0.26421">
        <ele>1458</ele>
        <time>2022-01-14T19:10:42Z</time>
      </trkpt>
      <trkpt lat="42.95998" lon="-0.26493">
        <ele>1453</ele>
        <time>2022-01-14T19:10:57Z</time>
      </trkpt>
      <trkpt lat="42.95989" lon="-0.26519">
        <ele>1452</ele>
        <time>2022-01-14T19:11:02Z</time>
      </trkpt>
      <trkpt lat="42.95983" lon="-0.26576">
        <ele>1448</ele>
        <time>2022-01-14T19:11:12Z</time>
      </trkpt>
      <trkpt lat="42.95947" lon="-0.26761">
        <ele>1445</ele>
        <time>2022-01-14T19:11:44Z</time>
      </trkpt>
      <trkpt lat="42.9594" lon="-0.26838">
        <ele>1445</ele>
        <time>2022-01-14T19:11:57Z</time>
      </trkpt>
      <trkpt lat="42.95936" lon="-0.26855">
        <ele>1444</ele>
        <time>2022-01-14T19:12:01Z</time>
      </trkpt>
      <trkpt lat="42.95913" lon="-0.26899">
        <ele>1441</ele>
        <time>2022-01-14T19:12:10Z</time>
      </trkpt>
      <trkpt lat="42.95879" lon="-0.26946">
        <ele>1444</ele>
        <time>2022-01-14T19:12:21Z</time>
      </trkpt>
      <trkpt lat="42.95862" lon="-0.27011">
        <ele>1440</ele>
        <time>2022-01-14T19:12:33Z</time>
      </trkpt>
      <trkpt lat="42.95841" lon="-0.27046">
        <ele>1443</ele>
        <time>2022-01-14T19:12:41Z</time>
      </trkpt>
      <trkpt lat="42.95828" lon="-0.27079">
        <ele>1445</ele>
        <time>2022-01-14T19:12:47Z</time>
      </trkpt>
      <trkpt lat="42.95838" lon="-0.2717">
        <ele>1440</ele>
        <time>2022-01-14T19:13:03Z</time>
      </trkpt>
      <trkpt lat="42.95831" lon="-0.27207">
        <ele>1439</ele>
        <time>2022-01-14T19:13:09Z</time>
      </trkpt>
      <trkpt lat="42.95812" lon="-0.2726">
        <ele>1445</ele>
        <time>2022-01-14T19:13:19Z</time>
      </trkpt>
      <trkpt lat="42.95807" lon="-0.27277">
        <ele>1447</ele>
        <time>2022-01-14T19:13:22Z</time>
      </trkpt>
      <trkpt lat="42.95805" lon="-0.27295">
        <ele>1448</ele>
        <time>2022-01-14T19:13:26Z</time>
      </trkpt>
      <trkpt lat="42.95806" lon="-0.27314">
        <ele>1447</ele>
        <time>2022-01-14T19:13:29Z</time>
      </trkpt>
      <trkpt lat="42.95813" lon="-0.27353">
        <ele>1444</ele>
        <time>2022-01-14T19:13:36Z</time>
      </trkpt>
      <trkpt lat="42.95828" lon="-0.27396">
        <ele>1438</ele>
        <time>2022-01-14T19:13:44Z</time>
      </trkpt>
      <trkpt lat="42.95838" lon="-0.27415">
        <ele>1435</ele>
        <time>2022-01-14T19:13:48Z</time>
      </trkpt>
      <trkpt lat="42.95847" lon="-0.27454">
        <ele>1433</ele>
        <time>2022-01-14T19:13:55Z</time>
      </trkpt>
      <trkpt lat="42.9584" lon="-0.27474">
        <ele>1435</ele>
        <time>2022-01-14T19:13:59Z</time>
      </trkpt>
      <trkpt lat="42.95823" lon="-0.27506">
        <ele>1437</ele>
        <time>2022-01-14T19:14:05Z</time>
      </trkpt>
      <trkpt lat="42.95808" lon="-0.27589">
        <ele>1417</ele>
        <time>2022-01-14T19:14:20Z</time>
      </trkpt>
      <trkpt lat="42.95792" lon="-0.27644">
        <ele>1403</ele>
        <time>2022-01-14T19:14:30Z</time>
      </trkpt>
      <trkpt lat="42.95775" lon="-0.27672">
        <ele>1398</ele>
        <time>2022-01-14T19:14:36Z</time>
      </trkpt>
      <trkpt lat="42.95754" lon="-0.27665">
        <ele>1406</ele>
        <time>2022-01-14T19:14:41Z</time>
      </trkpt>
      <trkpt lat="42.95727" lon="-0.27645">
        <ele>1412</ele>
        <time>2022-01-14T19:14:49Z</time>
      </trkpt>
      <trkpt lat="42.95695" lon="-0.27636">
        <ele>1411</ele>
        <time>2022-01-14T19:14:56Z</time>
      </trkpt>
      <trkpt lat="42.95648" lon="-0.27628">
        <ele>1410</ele>
        <time>2022-01-14T19:15:07Z</time>
      </trkpt>
      <trkpt lat="42.95601" lon="-0.27664">
        <ele>1402</ele>
        <time>2022-01-14T19:15:20Z</time>
      </trkpt>
      <trkpt lat="42.95558" lon="-0.27705">
        <ele>1401</ele>
        <time>2022-01-14T19:15:32Z</time>
      </trkpt>
      <trkpt lat="42.95548" lon="-0.27716">
        <ele>1401</ele>
        <time>2022-01-14T19:15:35Z</time>
      </trkpt>
      <trkpt lat="42.95528" lon="-0.27754">
        <ele>1401</ele>
        <time>2022-01-14T19:15:43Z</time>
      </trkpt>
      <trkpt lat="42.95537" lon="-0.2779">
        <ele>1397</ele>
        <time>2022-01-14T19:15:50Z</time>
      </trkpt>
      <trkpt lat="42.95541" lon="-0.27827">
        <ele>1394</ele>
        <time>2022-01-14T19:15:56Z</time>
      </trkpt>
      <trkpt lat="42.95535" lon="-0.2794">
        <ele>1389</ele>
        <time>2022-01-14T19:16:15Z</time>
      </trkpt>
      <trkpt lat="42.95521" lon="-0.28032">
        <ele>1382</ele>
        <time>2022-01-14T19:16:31Z</time>
      </trkpt>
      <trkpt lat="42.95511" lon="-0.28064">
        <ele>1379</ele>
        <time>2022-01-14T19:16:37Z</time>
      </trkpt>
      <trkpt lat="42.95487" lon="-0.28122">
        <ele>1389</ele>
        <time>2022-01-14T19:16:49Z</time>
      </trkpt>
      <trkpt lat="42.95496" lon="-0.28152">
        <ele>1374</ele>
        <time>2022-01-14T19:16:54Z</time>
      </trkpt>
      <trkpt lat="42.95502" lon="-0.28185">
        <ele>1365</ele>
        <time>2022-01-14T19:17:00Z</time>
      </trkpt>
      <trkpt lat="42.95496" lon="-0.28292">
        <ele>1364</ele>
        <time>2022-01-14T19:17:18Z</time>
      </trkpt>
      <trkpt lat="42.9549" lon="-0.28341">
        <ele>1364</ele>
        <time>2022-01-14T19:17:27Z</time>
      </trkpt>
      <trkpt lat="42.95497" lon="-0.2838">
        <ele>1359</ele>
        <time>2022-01-14T19:17:34Z</time>
      </trkpt>
      <trkpt lat="42.95503" lon="-0.28391">
        <ele>1356</ele>
        <time>2022-01-14T19:17:36Z</time>
      </trkpt>
      <trkpt lat="42.95502" lon="-0.28439">
        <ele>1356</ele>
        <time>2022-01-14T19:17:44Z</time>
      </trkpt>
      <trkpt lat="42.95495" lon="-0.2846">
        <ele>1358</ele>
        <time>2022-01-14T19:17:48Z</time>
      </trkpt>
      <trkpt lat="42.9547" lon="-0.28504">
        <ele>1365</ele>
        <time>2022-01-14T19:17:58Z</time>
      </trkpt>
      <trkpt lat="42.95446" lon="-0.28558">
        <ele>1363</ele>
        <time>2022-01-14T19:18:09Z</time>
      </trkpt>
      <trkpt lat="42.95418" lon="-0.28613">
        <ele>1364</ele>
        <time>2022-01-14T19:18:20Z</time>
      </trkpt>
      <trkpt lat="42.9541" lon="-0.28638">
        <ele>1367</ele>
        <time>2022-01-14T19:18:25Z</time>
      </trkpt>
      <trkpt lat="42.95395" lon="-0.28667">
        <ele>1374</ele>
        <time>2022-01-14T19:18:31Z</time>
      </trkpt>
      <trkpt lat="42.95391" lon="-0.287">
        <ele>1381</ele>
        <time>2022-01-14T19:18:36Z</time>
      </trkpt>
      <trkpt lat="42.95425" lon="-0.28788">
        <ele>1369</ele>
        <time>2022-01-14T19:18:53Z</time>
      </trkpt>
      <trkpt lat="42.95434" lon="-0.28846">
        <ele>1378</ele>
        <time>2022-01-14T19:19:04Z</time>
      </trkpt>
      <trkpt lat="42.9544" lon="-0.28866">
        <ele>1381</ele>
        <time>2022-01-14T19:19:07Z</time>
      </trkpt>
      <trkpt lat="42.95456" lon="-0.28887">
        <ele>1377</ele>
        <time>2022-01-14T19:19:13Z</time>
      </trkpt>
      <trkpt lat="42.95483" lon="-0.28912">
        <ele>1366</ele>
        <time>2022-01-14T19:19:20Z</time>
      </trkpt>
      <trkpt lat="42.95494" lon="-0.28937">
        <ele>1385</ele>
        <time>2022-01-14T19:19:25Z</time>
      </trkpt>
      <trkpt lat="42.95497" lon="-0.28961">
        <ele>1414</ele>
        <time>2022-01-14T19:19:29Z</time>
      </trkpt>
      <trkpt lat="42.95506" lon="-0.28976">
        <ele>1431</ele>
        <time>2022-01-14T19:19:33Z</time>
      </trkpt>
      <trkpt lat="42.95539" lon="-0.29007">
        <ele>1459</ele>
        <time>2022-01-14T19:19:42Z</time>
      </trkpt>
      <trkpt lat="42.95575" lon="-0.29049">
        <ele>1488</ele>
        <time>2022-01-14T19:19:53Z</time>
      </trkpt>
      <trkpt lat="42.9559" lon="-0.2906">
        <ele>1493</ele>
        <time>2022-01-14T19:19:57Z</time>
      </trkpt>
      <trkpt lat="42.95601" lon="-0.29064">
        <ele>1489</ele>
        <time>2022-01-14T19:20:00Z</time>
      </trkpt>
      <trkpt lat="42.95625" lon="-0.29065">
        <ele>1474</ele>
        <time>2022-01-14T19:20:05Z</time>
      </trkpt>
      <trkpt lat="42.95643" lon="-0.2906">
        <ele>1459</ele>
        <time>2022-01-14T19:20:10Z</time>
      </trkpt>
      <trkpt lat="42.95655" lon="-0.29062">
        <ele>1452</ele>
        <time>2022-01-14T19:20:12Z</time>
      </trkpt>
      <trkpt lat="42.95676" lon="-0.29061">
        <ele>1435</ele>
        <time>2022-01-14T19:20:17Z</time>
      </trkpt>
      <trkpt lat="42.95721" lon="-0.29048">
        <ele>1378</ele>
        <time>2022-01-14T19:20:28Z</time>
      </trkpt>
      <trkpt lat="42.95747" lon="-0.29048">
        <ele>1348</ele>
        <time>2022-01-14T19:20:34Z</time>
      </trkpt>
      <trkpt lat="42.95756" lon="-0.29059">
        <ele>1349</ele>
        <time>2022-01-14T19:20:37Z</time>
      </trkpt>
      <trkpt lat="42.95768" lon="-0.29081">
        <ele>1356</ele>
        <time>2022-01-14T19:20:42Z</time>
      </trkpt>
      <trkpt lat="42.95791" lon="-0.29092">
        <ele>1339</ele>
        <time>2022-01-14T19:20:47Z</time>
      </trkpt>
      <trkpt lat="42.95809" lon="-0.29113">
        <ele>1334</ele>
        <time>2022-01-14T19:20:53Z</time>
      </trkpt>
      <trkpt lat="42.95811" lon="-0.29123">
        <ele>1338</ele>
        <time>2022-01-14T19:20:55Z</time>
      </trkpt>
      <trkpt lat="42.95807" lon="-0.2916">
        <ele>1365</ele>
        <time>2022-01-14T19:21:01Z</time>
      </trkpt>
      <trkpt lat="42.95808" lon="-0.29176">
        <ele>1370</ele>
        <time>2022-01-14T19:21:04Z</time>
      </trkpt>
      <trkpt lat="42.95829" lon="-0.29226">
        <ele>1365</ele>
        <time>2022-01-14T19:21:14Z</time>
      </trkpt>
      <trkpt lat="42.95828" lon="-0.29258">
        <ele>1374</ele>
        <time>2022-01-14T19:21:19Z</time>
      </trkpt>
      <trkpt lat="42.95824" lon="-0.29281">
        <ele>1382</ele>
        <time>2022-01-14T19:21:23Z</time>
      </trkpt>
      <trkpt lat="42.95828" lon="-0.29302">
        <ele>1383</ele>
        <time>2022-01-14T19:21:27Z</time>
      </trkpt>
      <trkpt lat="42.95835" lon="-0.29315">
        <ele>1380</ele>
        <time>2022-01-14T19:21:30Z</time>
      </trkpt>
      <trkpt lat="42.95849" lon="-0.29327">
        <ele>1372</ele>
        <time>2022-01-14T19:21:33Z</time>
      </trkpt>
      <trkpt lat="42.9588" lon="-0.29383">
        <ele>1372</ele>
        <time>2022-01-14T19:21:45Z</time>
      </trkpt>
      <trkpt lat="42.95928" lon="-0.29443">
        <ele>1370</ele>
        <time>2022-01-14T19:22:01Z</time>
      </trkpt>
      <trkpt lat="42.95939" lon="-0.29477">
        <ele>1381</ele>
        <time>2022-01-14T19:22:07Z</time>
      </trkpt>
      <trkpt lat="42.95939" lon="-0.29487">
        <ele>1387</ele>
        <time>2022-01-14T19:22:09Z</time>
      </trkpt>
      <trkpt lat="42.95929" lon="-0.29511">
        <ele>1408</ele>
        <time>2022-01-14T19:22:13Z</time>
      </trkpt>
      <trkpt lat="42.96023" lon="-0.29586">
        <ele>1365</ele>
        <time>2022-01-14T19:22:39Z</time>
      </trkpt>
      <trkpt lat="42.96039" lon="-0.29609">
        <ele>1363</ele>
        <time>2022-01-14T19:22:44Z</time>
      </trkpt>
      <trkpt lat="42.96088" lon="-0.29726">
        <ele>1384</ele>
        <time>2022-01-14T19:23:07Z</time>
      </trkpt>
      <trkpt lat="42.96099" lon="-0.29745">
        <ele>1386</ele>
        <time>2022-01-14T19:23:11Z</time>
      </trkpt>
      <trkpt lat="42.96144" lon="-0.29783">
        <ele>1374</ele>
        <time>2022-01-14T19:23:24Z</time>
      </trkpt>
      <trkpt lat="42.96162" lon="-0.29791">
        <ele>1366</ele>
        <time>2022-01-14T19:23:28Z</time>
      </trkpt>
      <trkpt lat="42.96184" lon="-0.29814">
        <ele>1363</ele>
        <time>2022-01-14T19:23:35Z</time>
      </trkpt>
      <trkpt lat="42.96212" lon="-0.29873">
        <ele>1378</ele>
        <time>2022-01-14T19:23:47Z</time>
      </trkpt>
      <trkpt lat="42.96236" lon="-0.29906">
        <ele>1377</ele>
        <time>2022-01-14T19:23:55Z</time>
      </trkpt>
      <trkpt lat="42.96257" lon="-0.29943">
        <ele>1376</ele>
        <time>2022-01-14T19:24:03Z</time>
      </trkpt>
      <trkpt lat="42.96265" lon="-0.29959">
        <ele>1375</ele>
        <time>2022-01-14T19:24:06Z</time>
      </trkpt>
      <trkpt lat="42.9627" lon="-0.29979">
        <ele>1378</ele>
        <time>2022-01-14T19:24:10Z</time>
      </trkpt>
      <trkpt lat="42.96278" lon="-0.30031">
        <ele>1391</ele>
        <time>2022-01-14T19:24:19Z</time>
      </trkpt>
      <trkpt lat="42.96324" lon="-0.3017">
        <ele>1391</ele>
        <time>2022-01-14T19:24:45Z</time>
      </trkpt>
      <trkpt lat="42.96331" lon="-0.30214">
        <ele>1396</ele>
        <time>2022-01-14T19:24:52Z</time>
      </trkpt>
      <trkpt lat="42.96353" lon="-0.30276">
        <ele>1407</ele>
        <time>2022-01-14T19:25:04Z</time>
      </trkpt>
      <trkpt lat="42.96363" lon="-0.30314">
        <ele>1417</ele>
        <time>2022-01-14T19:25:11Z</time>
      </trkpt>
      <trkpt lat="42.96367" lon="-0.30325">
        <ele>1419</ele>
        <time>2022-01-14T19:25:13Z</time>
      </trkpt>
      <trkpt lat="42.96374" lon="-0.30333">
        <ele>1417</ele>
        <time>2022-01-14T19:25:15Z</time>
      </trkpt>
      <trkpt lat="42.96383" lon="-0.30335">
        <ele>1413</ele>
        <time>2022-01-14T19:25:17Z</time>
      </trkpt>
      <trkpt lat="42.96425" lon="-0.30319">
        <ele>1391</ele>
        <time>2022-01-14T19:25:28Z</time>
      </trkpt>
      <trkpt lat="42.9644" lon="-0.30296">
        <ele>1389</ele>
        <time>2022-01-14T19:25:33Z</time>
      </trkpt>
      <trkpt lat="42.96466" lon="-0.30275">
        <ele>1391</ele>
        <time>2022-01-14T19:25:40Z</time>
      </trkpt>
      <trkpt lat="42.96476" lon="-0.30264">
        <ele>1392</ele>
        <time>2022-01-14T19:25:43Z</time>
      </trkpt>
      <trkpt lat="42.96537" lon="-0.30216">
        <ele>1397</ele>
        <time>2022-01-14T19:25:59Z</time>
      </trkpt>
      <trkpt lat="42.96588" lon="-0.30185">
        <ele>1402</ele>
        <time>2022-01-14T19:26:12Z</time>
      </trkpt>
      <trkpt lat="42.96602" lon="-0.30184">
        <ele>1400</ele>
        <time>2022-01-14T19:26:16Z</time>
      </trkpt>
      <trkpt lat="42.96613" lon="-0.30192">
        <ele>1401</ele>
        <time>2022-01-14T19:26:19Z</time>
      </trkpt>
      <trkpt lat="42.96646" lon="-0.30261">
        <ele>1419</ele>
        <time>2022-01-14T19:26:33Z</time>
      </trkpt>
      <trkpt lat="42.96652" lon="-0.30268">
        <ele>1421</ele>
        <time>2022-01-14T19:26:35Z</time>
      </trkpt>
      <trkpt lat="42.96667" lon="-0.30274">
        <ele>1425</ele>
        <time>2022-01-14T19:26:38Z</time>
      </trkpt>
      <trkpt lat="42.96692" lon="-0.30273">
        <ele>1428</ele>
        <time>2022-01-14T19:26:44Z</time>
      </trkpt>
      <trkpt lat="42.96718" lon="-0.30257">
        <ele>1427</ele>
        <time>2022-01-14T19:26:51Z</time>
      </trkpt>
      <trkpt lat="42.9676" lon="-0.30212">
        <ele>1417</ele>
        <time>2022-01-14T19:27:03Z</time>
      </trkpt>
      <trkpt lat="42.96786" lon="-0.30197">
        <ele>1418</ele>
        <time>2022-01-14T19:27:10Z</time>
      </trkpt>
      <trkpt lat="42.96799" lon="-0.30196">
        <ele>1422</ele>
        <time>2022-01-14T19:27:13Z</time>
      </trkpt>
      <trkpt lat="42.96826" lon="-0.30202">
        <ele>1433</ele>
        <time>2022-01-14T19:27:19Z</time>
      </trkpt>
      <trkpt lat="42.96837" lon="-0.30198">
        <ele>1435</ele>
        <time>2022-01-14T19:27:22Z</time>
      </trkpt>
      <trkpt lat="42.96853" lon="-0.30179">
        <ele>1434</ele>
        <time>2022-01-14T19:27:27Z</time>
      </trkpt>
      <trkpt lat="42.96871" lon="-0.30139">
        <ele>1424</ele>
        <time>2022-01-14T19:27:35Z</time>
      </trkpt>
      <trkpt lat="42.96902" lon="-0.30103">
        <ele>1421</ele>
        <time>2022-01-14T19:27:44Z</time>
      </trkpt>
      <trkpt lat="42.96926" lon="-0.30085">
        <ele>1419</ele>
        <time>2022-01-14T19:27:51Z</time>
      </trkpt>
      <trkpt lat="42.96972" lon="-0.30062">
        <ele>1418</ele>
        <time>2022-01-14T19:28:02Z</time>
      </trkpt>
      <trkpt lat="42.9699" lon="-0.30043">
        <ele>1416</ele>
        <time>2022-01-14T19:28:07Z</time>
      </trkpt>
      <trkpt lat="42.97006" lon="-0.30052">
        <ele>1419</ele>
        <time>2022-01-14T19:28:11Z</time>
      </trkpt>
      <trkpt lat="42.97018" lon="-0.30075">
        <ele>1422</ele>
        <time>2022-01-14T19:28:16Z</time>
      </trkpt>
      <trkpt lat="42.97024" lon="-0.30102">
        <ele>1430</ele>
        <time>2022-01-14T19:28:21Z</time>
      </trkpt>
      <trkpt lat="42.97034" lon="-0.30124">
        <ele>1435</ele>
        <time>2022-01-14T19:28:26Z</time>
      </trkpt>
      <trkpt lat="42.97129" lon="-0.30208">
        <ele>1433</ele>
        <time>2022-01-14T19:28:52Z</time>
      </trkpt>
      <trkpt lat="42.97154" lon="-0.30246">
        <ele>1435</ele>
        <time>2022-01-14T19:29:01Z</time>
      </trkpt>
      <trkpt lat="42.97172" lon="-0.30286">
        <ele>1438</ele>
        <time>2022-01-14T19:29:09Z</time>
      </trkpt>
      <trkpt lat="42.97208" lon="-0.30347">
        <ele>1440</ele>
        <time>2022-01-14T19:29:22Z</time>
      </trkpt>
      <trkpt lat="42.97223" lon="-0.30363">
        <ele>1438</ele>
        <time>2022-01-14T19:29:27Z</time>
      </trkpt>
      <trkpt lat="42.97242" lon="-0.30396">
        <ele>1439</ele>
        <time>2022-01-14T19:29:34Z</time>
      </trkpt>
      <trkpt lat="42.9727" lon="-0.30436">
        <ele>1447</ele>
        <time>2022-01-14T19:29:43Z</time>
      </trkpt>
      <trkpt lat="42.97289" lon="-0.30448">
        <ele>1449</ele>
        <time>2022-01-14T19:29:48Z</time>
      </trkpt>
      <trkpt lat="42.97318" lon="-0.30443">
        <ele>1441</ele>
        <time>2022-01-14T19:29:55Z</time>
      </trkpt>
      <trkpt lat="42.97327" lon="-0.30445">
        <ele>1440</ele>
        <time>2022-01-14T19:29:57Z</time>
      </trkpt>
      <trkpt lat="42.97346" lon="-0.3046">
        <ele>1442</ele>
        <time>2022-01-14T19:30:02Z</time>
      </trkpt>
      <trkpt lat="42.97358" lon="-0.30465">
        <ele>1442</ele>
        <time>2022-01-14T19:30:05Z</time>
      </trkpt>
      <trkpt lat="42.97384" lon="-0.30466">
        <ele>1436</ele>
        <time>2022-01-14T19:30:11Z</time>
      </trkpt>
      <trkpt lat="42.97392" lon="-0.3047">
        <ele>1436</ele>
        <time>2022-01-14T19:30:13Z</time>
      </trkpt>
      <trkpt lat="42.97431" lon="-0.30526">
        <ele>1445</ele>
        <time>2022-01-14T19:30:26Z</time>
      </trkpt>
      <trkpt lat="42.97467" lon="-0.30553">
        <ele>1441</ele>
        <time>2022-01-14T19:30:36Z</time>
      </trkpt>
      <trkpt lat="42.97474" lon="-0.30561">
        <ele>1441</ele>
        <time>2022-01-14T19:30:38Z</time>
      </trkpt>
      <trkpt lat="42.97485" lon="-0.30594">
        <ele>1444</ele>
        <time>2022-01-14T19:30:44Z</time>
      </trkpt>
      <trkpt lat="42.97485" lon="-0.306">
        <ele>1444</ele>
        <time>2022-01-14T19:30:45Z</time>
      </trkpt>
      <trkpt lat="42.97468" lon="-0.30736">
        <ele>1449</ele>
        <time>2022-01-14T19:31:09Z</time>
      </trkpt>
      <trkpt lat="42.97464" lon="-0.30754">
        <ele>1451</ele>
        <time>2022-01-14T19:31:12Z</time>
      </trkpt>
      <trkpt lat="42.97451" lon="-0.30782">
        <ele>1461</ele>
        <time>2022-01-14T19:31:18Z</time>
      </trkpt>
      <trkpt lat="42.9745" lon="-0.30802">
        <ele>1465</ele>
        <time>2022-01-14T19:31:21Z</time>
      </trkpt>
      <trkpt lat="42.97472" lon="-0.30853">
        <ele>1467</ele>
        <time>2022-01-14T19:31:31Z</time>
      </trkpt>
      <trkpt lat="42.97488" lon="-0.30877">
        <ele>1469</ele>
        <time>2022-01-14T19:31:37Z</time>
      </trkpt>
      <trkpt lat="42.97525" lon="-0.30912">
        <ele>1463</ele>
        <time>2022-01-14T19:31:47Z</time>
      </trkpt>
      <trkpt lat="42.97564" lon="-0.30986">
        <ele>1476</ele>
        <time>2022-01-14T19:32:03Z</time>
      </trkpt>
      <trkpt lat="42.97584" lon="-0.3101">
        <ele>1473</ele>
        <time>2022-01-14T19:32:09Z</time>
      </trkpt>
      <trkpt lat="42.97597" lon="-0.31019">
        <ele>1468</ele>
        <time>2022-01-14T19:32:13Z</time>
      </trkpt>
      <trkpt lat="42.97612" lon="-0.31038">
        <ele>1465</ele>
        <time>2022-01-14T19:32:17Z</time>
      </trkpt>
      <trkpt lat="42.97618" lon="-0.3106">
        <ele>1466</ele>
        <time>2022-01-14T19:32:21Z</time>
      </trkpt>
      <trkpt lat="42.97611" lon="-0.31114">
        <ele>1474</ele>
        <time>2022-01-14T19:32:31Z</time>
      </trkpt>
      <trkpt lat="42.97599" lon="-0.31153">
        <ele>1481</ele>
        <time>2022-01-14T19:32:38Z</time>
      </trkpt>
      <trkpt lat="42.97588" lon="-0.31219">
        <ele>1484</ele>
        <time>2022-01-14T19:32:49Z</time>
      </trkpt>
      <trkpt lat="42.97575" lon="-0.31246">
        <ele>1491</ele>
        <time>2022-01-14T19:32:55Z</time>
      </trkpt>
      <trkpt lat="42.97567" lon="-0.31259">
        <ele>1496</ele>
        <time>2022-01-14T19:32:58Z</time>
      </trkpt>
      <trkpt lat="42.97559" lon="-0.31267">
        <ele>1501</ele>
        <time>2022-01-14T19:33:00Z</time>
      </trkpt>
      <trkpt lat="42.97555" lon="-0.31286">
        <ele>1504</ele>
        <time>2022-01-14T19:33:04Z</time>
      </trkpt>
      <trkpt lat="42.97559" lon="-0.31307">
        <ele>1501</ele>
        <time>2022-01-14T19:33:07Z</time>
      </trkpt>
      <trkpt lat="42.97568" lon="-0.31337">
        <ele>1495</ele>
        <time>2022-01-14T19:33:13Z</time>
      </trkpt>
      <trkpt lat="42.97576" lon="-0.31352">
        <ele>1489</ele>
        <time>2022-01-14T19:33:16Z</time>
      </trkpt>
      <trkpt lat="42.97577" lon="-0.31361">
        <ele>1488</ele>
        <time>2022-01-14T19:33:18Z</time>
      </trkpt>
      <trkpt lat="42.9757" lon="-0.31429">
        <ele>1494</ele>
        <time>2022-01-14T19:33:29Z</time>
      </trkpt>
      <trkpt lat="42.97558" lon="-0.31462">
        <ele>1507</ele>
        <time>2022-01-14T19:33:36Z</time>
      </trkpt>
      <trkpt lat="42.97558" lon="-0.31472">
        <ele>1508</ele>
        <time>2022-01-14T19:33:37Z</time>
      </trkpt>
      <trkpt lat="42.97566" lon="-0.31507">
        <ele>1502</ele>
        <time>2022-01-14T19:33:44Z</time>
      </trkpt>
      <trkpt lat="42.97563" lon="-0.31551">
        <ele>1508</ele>
        <time>2022-01-14T19:33:51Z</time>
      </trkpt>
      <trkpt lat="42.9757" lon="-0.31654">
        <ele>1506</ele>
        <time>2022-01-14T19:34:09Z</time>
      </trkpt>
      <trkpt lat="42.97566" lon="-0.31694">
        <ele>1508</ele>
        <time>2022-01-14T19:34:16Z</time>
      </trkpt>
      <trkpt lat="42.97558" lon="-0.31724">
        <ele>1511</ele>
        <time>2022-01-14T19:34:21Z</time>
      </trkpt>
      <trkpt lat="42.97545" lon="-0.31751">
        <ele>1515</ele>
        <time>2022-01-14T19:34:27Z</time>
      </trkpt>
      <trkpt lat="42.97528" lon="-0.31773">
        <ele>1514</ele>
        <time>2022-01-14T19:34:32Z</time>
      </trkpt>
      <trkpt lat="42.975" lon="-0.31794">
        <ele>1514</ele>
        <time>2022-01-14T19:34:40Z</time>
      </trkpt>
      <trkpt lat="42.97473" lon="-0.31803">
        <ele>1515</ele>
        <time>2022-01-14T19:34:46Z</time>
      </trkpt>
      <trkpt lat="42.97459" lon="-0.31811">
        <ele>1513</ele>
        <time>2022-01-14T19:34:50Z</time>
      </trkpt>
      <trkpt lat="42.97439" lon="-0.31831">
        <ele>1503</ele>
        <time>2022-01-14T19:34:55Z</time>
      </trkpt>
      <trkpt lat="42.9743" lon="-0.31831">
        <ele>1505</ele>
        <time>2022-01-14T19:34:58Z</time>
      </trkpt>
      <trkpt lat="42.9739" lon="-0.31816">
        <ele>1524</ele>
        <time>2022-01-14T19:35:07Z</time>
      </trkpt>
      <trkpt lat="42.97368" lon="-0.31812">
        <ele>1530</ele>
        <time>2022-01-14T19:35:12Z</time>
      </trkpt>
      <trkpt lat="42.97338" lon="-0.31794">
        <ele>1550</ele>
        <time>2022-01-14T19:35:20Z</time>
      </trkpt>
      <trkpt lat="42.97325" lon="-0.31794">
        <ele>1552</ele>
        <time>2022-01-14T19:35:23Z</time>
      </trkpt>
      <trkpt lat="42.97313" lon="-0.31791">
        <ele>1556</ele>
        <time>2022-01-14T19:35:26Z</time>
      </trkpt>
      <trkpt lat="42.9728" lon="-0.31791">
        <ele>1560</ele>
        <time>2022-01-14T19:35:34Z</time>
      </trkpt>
      <trkpt lat="42.97265" lon="-0.31795">
        <ele>1561</ele>
        <time>2022-01-14T19:35:37Z</time>
      </trkpt>
      <trkpt lat="42.97252" lon="-0.31804">
        <ele>1559</ele>
        <time>2022-01-14T19:35:41Z</time>
      </trkpt>
      <trkpt lat="42.97246" lon="-0.31817">
        <ele>1557</ele>
        <time>2022-01-14T19:35:43Z</time>
      </trkpt>
      <trkpt lat="42.97247" lon="-0.31862">
        <ele>1547</ele>
        <time>2022-01-14T19:35:51Z</time>
      </trkpt>
      <trkpt lat="42.97238" lon="-0.31897">
        <ele>1549</ele>
        <time>2022-01-14T19:35:57Z</time>
      </trkpt>
      <trkpt lat="42.97234" lon="-0.31956">
        <ele>1547</ele>
        <time>2022-01-14T19:36:07Z</time>
      </trkpt>
      <trkpt lat="42.97225" lon="-0.32024">
        <ele>1551</ele>
        <time>2022-01-14T19:36:19Z</time>
      </trkpt>
      <trkpt lat="42.97223" lon="-0.32099">
        <ele>1550</ele>
        <time>2022-01-14T19:36:32Z</time>
      </trkpt>
      <trkpt lat="42.9722" lon="-0.32115">
        <ele>1550</ele>
        <time>2022-01-14T19:36:35Z</time>
      </trkpt>
      <trkpt lat="42.97214" lon="-0.32134">
        <ele>1552</ele>
        <time>2022-01-14T19:36:38Z</time>
      </trkpt>
      <trkpt lat="42.97193" lon="-0.32173">
        <ele>1560</ele>
        <time>2022-01-14T19:36:47Z</time>
      </trkpt>
      <trkpt lat="42.97188" lon="-0.32191">
        <ele>1560</ele>
        <time>2022-01-14T19:36:50Z</time>
      </trkpt>
      <trkpt lat="42.97178" lon="-0.3221">
        <ele>1562</ele>
        <time>2022-01-14T19:36:54Z</time>
      </trkpt>
      <trkpt lat="42.97172" lon="-0.32216">
        <ele>1564</ele>
        <time>2022-01-14T19:36:56Z</time>
      </trkpt>
      <trkpt lat="42.97146" lon="-0.32232">
        <ele>1576</ele>
        <time>2022-01-14T19:37:02Z</time>
      </trkpt>
      <trkpt lat="42.9714" lon="-0.3224">
        <ele>1579</ele>
        <time>2022-01-14T19:37:04Z</time>
      </trkpt>
      <trkpt lat="42.97133" lon="-0.32268">
        <ele>1580</ele>
        <time>2022-01-14T19:37:09Z</time>
      </trkpt>
      <trkpt lat="42.97134" lon="-0.32288">
        <ele>1577</ele>
        <time>2022-01-14T19:37:13Z</time>
      </trkpt>
      <trkpt lat="42.97145" lon="-0.32319">
        <ele>1567</ele>
        <time>2022-01-14T19:37:19Z</time>
      </trkpt>
      <trkpt lat="42.9714" lon="-0.32347">
        <ele>1570</ele>
        <time>2022-01-14T19:37:24Z</time>
      </trkpt>
      <trkpt lat="42.97134" lon="-0.32364">
        <ele>1575</ele>
        <time>2022-01-14T19:37:27Z</time>
      </trkpt>
      <trkpt lat="42.97128" lon="-0.32373">
        <ele>1579</ele>
        <time>2022-01-14T19:37:29Z</time>
      </trkpt>
      <trkpt lat="42.97095" lon="-0.32395">
        <ele>1592</ele>
        <time>2022-01-14T19:37:37Z</time>
      </trkpt>
      <trkpt lat="42.97088" lon="-0.32405">
        <ele>1594</ele>
        <time>2022-01-14T19:37:40Z</time>
      </trkpt>
      <trkpt lat="42.97087" lon="-0.32419">
        <ele>1593</ele>
        <time>2022-01-14T19:37:42Z</time>
      </trkpt>
      <trkpt lat="42.9709" lon="-0.32428">
        <ele>1594</ele>
        <time>2022-01-14T19:37:44Z</time>
      </trkpt>
      <trkpt lat="42.97098" lon="-0.32437">
        <ele>1594</ele>
        <time>2022-01-14T19:37:46Z</time>
      </trkpt>
      <trkpt lat="42.9711" lon="-0.32443">
        <ele>1592</ele>
        <time>2022-01-14T19:37:49Z</time>
      </trkpt>
      <trkpt lat="42.97129" lon="-0.32459">
        <ele>1592</ele>
        <time>2022-01-14T19:37:55Z</time>
      </trkpt>
      <trkpt lat="42.97135" lon="-0.32461">
        <ele>1591</ele>
        <time>2022-01-14T19:37:56Z</time>
      </trkpt>
      <trkpt lat="42.97161" lon="-0.32459">
        <ele>1584</ele>
        <time>2022-01-14T19:38:02Z</time>
      </trkpt>
      <trkpt lat="42.97184" lon="-0.3247">
        <ele>1585</ele>
        <time>2022-01-14T19:38:08Z</time>
      </trkpt>
      <trkpt lat="42.9721" lon="-0.32464">
        <ele>1582</ele>
        <time>2022-01-14T19:38:14Z</time>
      </trkpt>
      <trkpt lat="42.97225" lon="-0.32466">
        <ele>1581</ele>
        <time>2022-01-14T19:38:17Z</time>
      </trkpt>
      <trkpt lat="42.97234" lon="-0.32472">
        <ele>1582</ele>
        <time>2022-01-14T19:38:20Z</time>
      </trkpt>
      <trkpt lat="42.97247" lon="-0.32498">
        <ele>1588</ele>
        <time>2022-01-14T19:38:25Z</time>
      </trkpt>
      <trkpt lat="42.97251" lon="-0.32523">
        <ele>1590</ele>
        <time>2022-01-14T19:38:30Z</time>
      </trkpt>
      <trkpt lat="42.9725" lon="-0.32536">
        <ele>1592</ele>
        <time>2022-01-14T19:38:32Z</time>
      </trkpt>
      <trkpt lat="42.97244" lon="-0.32553">
        <ele>1595</ele>
        <time>2022-01-14T19:38:35Z</time>
      </trkpt>
      <trkpt lat="42.97229" lon="-0.32578">
        <ele>1601</ele>
        <time>2022-01-14T19:38:41Z</time>
      </trkpt>
      <trkpt lat="42.97182" lon="-0.32616">
        <ele>1608</ele>
        <time>2022-01-14T19:38:53Z</time>
      </trkpt>
      <trkpt lat="42.97172" lon="-0.3263">
        <ele>1610</ele>
        <time>2022-01-14T19:38:57Z</time>
      </trkpt>
      <trkpt lat="42.97136" lon="-0.32697">
        <ele>1612</ele>
        <time>2022-01-14T19:39:11Z</time>
      </trkpt>
      <trkpt lat="42.9712" lon="-0.32744">
        <ele>1613</ele>
        <time>2022-01-14T19:39:20Z</time>
      </trkpt>
      <trkpt lat="42.9712" lon="-0.32762">
        <ele>1614</ele>
        <time>2022-01-14T19:39:23Z</time>
      </trkpt>
      <trkpt lat="42.97131" lon="-0.32784">
        <ele>1614</ele>
        <time>2022-01-14T19:39:27Z</time>
      </trkpt>
      <trkpt lat="42.97153" lon="-0.32808">
        <ele>1613</ele>
        <time>2022-01-14T19:39:34Z</time>
      </trkpt>
      <trkpt lat="42.97158" lon="-0.32823">
        <ele>1614</ele>
        <time>2022-01-14T19:39:37Z</time>
      </trkpt>
      <trkpt lat="42.97158" lon="-0.32842">
        <ele>1616</ele>
        <time>2022-01-14T19:39:40Z</time>
      </trkpt>
      <trkpt lat="42.9715" lon="-0.32863">
        <ele>1619</ele>
        <time>2022-01-14T19:39:44Z</time>
      </trkpt>
      <trkpt lat="42.97149" lon="-0.32878">
        <ele>1620</ele>
        <time>2022-01-14T19:39:47Z</time>
      </trkpt>
      <trkpt lat="42.97163" lon="-0.32951">
        <ele>1624</ele>
        <time>2022-01-14T19:39:59Z</time>
      </trkpt>
      <trkpt lat="42.97176" lon="-0.33003">
        <ele>1625</ele>
        <time>2022-01-14T19:40:09Z</time>
      </trkpt>
      <trkpt lat="42.97181" lon="-0.33018">
        <ele>1627</ele>
        <time>2022-01-14T19:40:12Z</time>
      </trkpt>
      <trkpt lat="42.97197" lon="-0.33044">
        <ele>1627</ele>
        <time>2022-01-14T19:40:17Z</time>
      </trkpt>
      <trkpt lat="42.97205" lon="-0.33065">
        <ele>1629</ele>
        <time>2022-01-14T19:40:22Z</time>
      </trkpt>
      <trkpt lat="42.97224" lon="-0.33094">
        <ele>1629</ele>
        <time>2022-01-14T19:40:28Z</time>
      </trkpt>
      <trkpt lat="42.9723" lon="-0.33109">
        <ele>1630</ele>
        <time>2022-01-14T19:40:31Z</time>
      </trkpt>
      <trkpt lat="42.9723" lon="-0.33122">
        <ele>1632</ele>
        <time>2022-01-14T19:40:33Z</time>
      </trkpt>
      <trkpt lat="42.97218" lon="-0.33159">
        <ele>1642</ele>
        <time>2022-01-14T19:40:40Z</time>
      </trkpt>
      <trkpt lat="42.97216" lon="-0.33172">
        <ele>1645</ele>
        <time>2022-01-14T19:40:42Z</time>
      </trkpt>
      <trkpt lat="42.97221" lon="-0.33197">
        <ele>1650</ele>
        <time>2022-01-14T19:40:47Z</time>
      </trkpt>
      <trkpt lat="42.9723" lon="-0.33205">
        <ele>1650</ele>
        <time>2022-01-14T19:40:49Z</time>
      </trkpt>
      <trkpt lat="42.97235" lon="-0.33205">
        <ele>1649</ele>
        <time>2022-01-14T19:40:51Z</time>
      </trkpt>
      <trkpt lat="42.97279" lon="-0.33196">
        <ele>1644</ele>
        <time>2022-01-14T19:41:01Z</time>
      </trkpt>
      <trkpt lat="42.97312" lon="-0.33203">
        <ele>1647</ele>
        <time>2022-01-14T19:41:09Z</time>
      </trkpt>
      <trkpt lat="42.97333" lon="-0.3321">
        <ele>1649</ele>
        <time>2022-01-14T19:41:14Z</time>
      </trkpt>
      <trkpt lat="42.97347" lon="-0.33217">
        <ele>1649</ele>
        <time>2022-01-14T19:41:17Z</time>
      </trkpt>
      <trkpt lat="42.97353" lon="-0.33223">
        <ele>1650</ele>
        <time>2022-01-14T19:41:19Z</time>
      </trkpt>
      <trkpt lat="42.97398" lon="-0.3328">
        <ele>1656</ele>
        <time>2022-01-14T19:41:33Z</time>
      </trkpt>
      <trkpt lat="42.97418" lon="-0.33326">
        <ele>1659</ele>
        <time>2022-01-14T19:41:43Z</time>
      </trkpt>
      <trkpt lat="42.97428" lon="-0.33365">
        <ele>1664</ele>
        <time>2022-01-14T19:41:50Z</time>
      </trkpt>
      <trkpt lat="42.97443" lon="-0.33407">
        <ele>1668</ele>
        <time>2022-01-14T19:41:58Z</time>
      </trkpt>
      <trkpt lat="42.97462" lon="-0.33432">
        <ele>1667</ele>
        <time>2022-01-14T19:42:04Z</time>
      </trkpt>
      <trkpt lat="42.97473" lon="-0.33442">
        <ele>1666</ele>
        <time>2022-01-14T19:42:07Z</time>
      </trkpt>
      <trkpt lat="42.97489" lon="-0.33468">
        <ele>1665</ele>
        <time>2022-01-14T19:42:13Z</time>
      </trkpt>
      <trkpt lat="42.975" lon="-0.33502">
        <ele>1666</ele>
        <time>2022-01-14T19:42:19Z</time>
      </trkpt>
      <trkpt lat="42.97509" lon="-0.33552">
        <ele>1672</ele>
        <time>2022-01-14T19:42:28Z</time>
      </trkpt>
      <trkpt lat="42.97512" lon="-0.33585">
        <ele>1676</ele>
        <time>2022-01-14T19:42:33Z</time>
      </trkpt>
      <trkpt lat="42.97518" lon="-0.33611">
        <ele>1677</ele>
        <time>2022-01-14T19:42:38Z</time>
      </trkpt>
      <trkpt lat="42.9752" lon="-0.33633">
        <ele>1678</ele>
        <time>2022-01-14T19:42:42Z</time>
      </trkpt>
      <trkpt lat="42.97518" lon="-0.33684">
        <ele>1685</ele>
        <time>2022-01-14T19:42:51Z</time>
      </trkpt>
      <trkpt lat="42.97525" lon="-0.33712">
        <ele>1691</ele>
        <time>2022-01-14T19:42:56Z</time>
      </trkpt>
      <trkpt lat="42.97531" lon="-0.33725">
        <ele>1693</ele>
        <time>2022-01-14T19:42:58Z</time>
      </trkpt>
      <trkpt lat="42.97541" lon="-0.33738">
        <ele>1694</ele>
        <time>2022-01-14T19:43:02Z</time>
      </trkpt>
      <trkpt lat="42.97609" lon="-0.3379">
        <ele>1693</ele>
        <time>2022-01-14T19:43:20Z</time>
      </trkpt>
      <trkpt lat="42.97614" lon="-0.33796">
        <ele>1693</ele>
        <time>2022-01-14T19:43:21Z</time>
      </trkpt>
      <trkpt lat="42.97622" lon="-0.3381">
        <ele>1694</ele>
        <time>2022-01-14T19:43:24Z</time>
      </trkpt>
      <trkpt lat="42.9763" lon="-0.33835">
        <ele>1696</ele>
        <time>2022-01-14T19:43:29Z</time>
      </trkpt>
      <trkpt lat="42.97643" lon="-0.33895">
        <ele>1703</ele>
        <time>2022-01-14T19:43:40Z</time>
      </trkpt>
      <trkpt lat="42.97667" lon="-0.3395">
        <ele>1707</ele>
        <time>2022-01-14T19:43:51Z</time>
      </trkpt>
      <trkpt lat="42.97669" lon="-0.33962">
        <ele>1708</ele>
        <time>2022-01-14T19:43:53Z</time>
      </trkpt>
      <trkpt lat="42.97665" lon="-0.33981">
        <ele>1710</ele>
        <time>2022-01-14T19:43:56Z</time>
      </trkpt>
      <trkpt lat="42.97649" lon="-0.34004">
        <ele>1710</ele>
        <time>2022-01-14T19:44:02Z</time>
      </trkpt>
      <trkpt lat="42.97646" lon="-0.34005">
        <ele>1709</ele>
        <time>2022-01-14T19:44:02Z</time>
      </trkpt>
      <trkpt lat="42.97635" lon="-0.34031">
        <ele>1706</ele>
        <time>2022-01-14T19:44:07Z</time>
      </trkpt>
      <trkpt lat="42.97631" lon="-0.34053">
        <ele>1704</ele>
        <time>2022-01-14T19:44:11Z</time>
      </trkpt>
      <trkpt lat="42.97633" lon="-0.34082">
        <ele>1702</ele>
        <time>2022-01-14T19:44:16Z</time>
      </trkpt>
      <trkpt lat="42.97644" lon="-0.34128">
        <ele>1698</ele>
        <time>2022-01-14T19:44:24Z</time>
      </trkpt>
      <trkpt lat="42.97663" lon="-0.34165">
        <ele>1696</ele>
        <time>2022-01-14T19:44:32Z</time>
      </trkpt>
      <trkpt lat="42.9769" lon="-0.342">
        <ele>1697</ele>
        <time>2022-01-14T19:44:41Z</time>
      </trkpt>
      <trkpt lat="42.97702" lon="-0.34224">
        <ele>1695</ele>
        <time>2022-01-14T19:44:46Z</time>
      </trkpt>
      <trkpt lat="42.97716" lon="-0.34295">
        <ele>1683</ele>
        <time>2022-01-14T19:44:58Z</time>
      </trkpt>
      <trkpt lat="42.97726" lon="-0.34317">
        <ele>1679</ele>
        <time>2022-01-14T19:45:03Z</time>
      </trkpt>
      <trkpt lat="42.97743" lon="-0.34327">
        <ele>1678</ele>
        <time>2022-01-14T19:45:07Z</time>
      </trkpt>
      <trkpt lat="42.97768" lon="-0.34319">
        <ele>1677</ele>
        <time>2022-01-14T19:45:13Z</time>
      </trkpt>
      <trkpt lat="42.97788" lon="-0.34307">
        <ele>1677</ele>
        <time>2022-01-14T19:45:18Z</time>
      </trkpt>
      <trkpt lat="42.97815" lon="-0.3428">
        <ele>1681</ele>
        <time>2022-01-14T19:45:26Z</time>
      </trkpt>
      <trkpt lat="42.97826" lon="-0.34275">
        <ele>1681</ele>
        <time>2022-01-14T19:45:29Z</time>
      </trkpt>
      <trkpt lat="42.97836" lon="-0.34273">
        <ele>1681</ele>
        <time>2022-01-14T19:45:31Z</time>
      </trkpt>
      <trkpt lat="42.97869" lon="-0.34276">
        <ele>1678</ele>
        <time>2022-01-14T19:45:39Z</time>
      </trkpt>
      <trkpt lat="42.97894" lon="-0.34273">
        <ele>1678</ele>
        <time>2022-01-14T19:45:45Z</time>
      </trkpt>
      <trkpt lat="42.97901" lon="-0.34276">
        <ele>1677</ele>
        <time>2022-01-14T19:45:46Z</time>
      </trkpt>
      <trkpt lat="42.97906" lon="-0.34293">
        <ele>1671</ele>
        <time>2022-01-14T19:45:50Z</time>
      </trkpt>
      <trkpt lat="42.97904" lon="-0.34304">
        <ele>1668</ele>
        <time>2022-01-14T19:45:52Z</time>
      </trkpt>
      <trkpt lat="42.97882" lon="-0.3431">
        <ele>1667</ele>
        <time>2022-01-14T19:45:57Z</time>
      </trkpt>
      <trkpt lat="42.97849" lon="-0.34302">
        <ele>1670</ele>
        <time>2022-01-14T19:46:05Z</time>
      </trkpt>
      <trkpt lat="42.97832" lon="-0.34306">
        <ele>1670</ele>
        <time>2022-01-14T19:46:09Z</time>
      </trkpt>
      <trkpt lat="42.97819" lon="-0.34322">
        <ele>1667</ele>
        <time>2022-01-14T19:46:13Z</time>
      </trkpt>
      <trkpt lat="42.97807" lon="-0.34376">
        <ele>1656</ele>
        <time>2022-01-14T19:46:22Z</time>
      </trkpt>
      <trkpt lat="42.97724" lon="-0.34524">
        <ele>1636</ele>
        <time>2022-01-14T19:46:54Z</time>
      </trkpt>
      <trkpt lat="42.97706" lon="-0.3454">
        <ele>1632</ele>
        <time>2022-01-14T19:46:59Z</time>
      </trkpt>
      <trkpt lat="42.97687" lon="-0.34544">
        <ele>1632</ele>
        <time>2022-01-14T19:47:04Z</time>
      </trkpt>
      <trkpt lat="42.97661" lon="-0.34531">
        <ele>1635</ele>
        <time>2022-01-14T19:47:10Z</time>
      </trkpt>
      <trkpt lat="42.97627" lon="-0.34493">
        <ele>1639</ele>
        <time>2022-01-14T19:47:20Z</time>
      </trkpt>
      <trkpt lat="42.97613" lon="-0.3449">
        <ele>1637</ele>
        <time>2022-01-14T19:47:24Z</time>
      </trkpt>
      <trkpt lat="42.97607" lon="-0.34495">
        <ele>1636</ele>
        <time>2022-01-14T19:47:25Z</time>
      </trkpt>
      <trkpt lat="42.97583" lon="-0.3453">
        <ele>1627</ele>
        <time>2022-01-14T19:47:34Z</time>
      </trkpt>
      <trkpt lat="42.97558" lon="-0.34537">
        <ele>1623</ele>
        <time>2022-01-14T19:47:40Z</time>
      </trkpt>
      <trkpt lat="42.9755" lon="-0.34534">
        <ele>1622</ele>
        <time>2022-01-14T19:47:41Z</time>
      </trkpt>
      <trkpt lat="42.97535" lon="-0.34519">
        <ele>1622</ele>
        <time>2022-01-14T19:47:46Z</time>
      </trkpt>
      <trkpt lat="42.97517" lon="-0.34484">
        <ele>1623</ele>
        <time>2022-01-14T19:47:53Z</time>
      </trkpt>
      <trkpt lat="42.97491" lon="-0.34456">
        <ele>1621</ele>
        <time>2022-01-14T19:48:01Z</time>
      </trkpt>
      <trkpt lat="42.97481" lon="-0.34449">
        <ele>1621</ele>
        <time>2022-01-14T19:48:03Z</time>
      </trkpt>
      <trkpt lat="42.9746" lon="-0.34443">
        <ele>1620</ele>
        <time>2022-01-14T19:48:08Z</time>
      </trkpt>
      <trkpt lat="42.9744" lon="-0.34448">
        <ele>1618</ele>
        <time>2022-01-14T19:48:13Z</time>
      </trkpt>
      <trkpt lat="42.97432" lon="-0.34456">
        <ele>1616</ele>
        <time>2022-01-14T19:48:16Z</time>
      </trkpt>
      <trkpt lat="42.97422" lon="-0.34479">
        <ele>1613</ele>
        <time>2022-01-14T19:48:20Z</time>
      </trkpt>
      <trkpt lat="42.97414" lon="-0.34517">
        <ele>1608</ele>
        <time>2022-01-14T19:48:27Z</time>
      </trkpt>
      <trkpt lat="42.97408" lon="-0.34525">
        <ele>1607</ele>
        <time>2022-01-14T19:48:29Z</time>
      </trkpt>
      <trkpt lat="42.97392" lon="-0.34535">
        <ele>1606</ele>
        <time>2022-01-14T19:48:33Z</time>
      </trkpt>
      <trkpt lat="42.97374" lon="-0.34542">
        <ele>1605</ele>
        <time>2022-01-14T19:48:37Z</time>
      </trkpt>
      <trkpt lat="42.97364" lon="-0.34561">
        <ele>1603</ele>
        <time>2022-01-14T19:48:41Z</time>
      </trkpt>
      <trkpt lat="42.97365" lon="-0.34586">
        <ele>1600</ele>
        <time>2022-01-14T19:48:46Z</time>
      </trkpt>
      <trkpt lat="42.97372" lon="-0.34621">
        <ele>1593</ele>
        <time>2022-01-14T19:48:52Z</time>
      </trkpt>
      <trkpt lat="42.97372" lon="-0.34632">
        <ele>1590</ele>
        <time>2022-01-14T19:48:54Z</time>
      </trkpt>
      <trkpt lat="42.9737" lon="-0.34642">
        <ele>1588</ele>
        <time>2022-01-14T19:48:55Z</time>
      </trkpt>
      <trkpt lat="42.97358" lon="-0.34655">
        <ele>1586</ele>
        <time>2022-01-14T19:48:59Z</time>
      </trkpt>
      <trkpt lat="42.97339" lon="-0.34658">
        <ele>1586</ele>
        <time>2022-01-14T19:49:03Z</time>
      </trkpt>
      <trkpt lat="42.97294" lon="-0.34649">
        <ele>1578</ele>
        <time>2022-01-14T19:49:14Z</time>
      </trkpt>
      <trkpt lat="42.97271" lon="-0.34637">
        <ele>1576</ele>
        <time>2022-01-14T19:49:20Z</time>
      </trkpt>
      <trkpt lat="42.97256" lon="-0.34592">
        <ele>1582</ele>
        <time>2022-01-14T19:49:28Z</time>
      </trkpt>
      <trkpt lat="42.97249" lon="-0.34582">
        <ele>1583</ele>
        <time>2022-01-14T19:49:31Z</time>
      </trkpt>
      <trkpt lat="42.97231" lon="-0.34575">
        <ele>1583</ele>
        <time>2022-01-14T19:49:35Z</time>
      </trkpt>
      <trkpt lat="42.97221" lon="-0.34574">
        <ele>1583</ele>
        <time>2022-01-14T19:49:37Z</time>
      </trkpt>
      <trkpt lat="42.97212" lon="-0.34576">
        <ele>1582</ele>
        <time>2022-01-14T19:49:40Z</time>
      </trkpt>
      <trkpt lat="42.97197" lon="-0.34586">
        <ele>1578</ele>
        <time>2022-01-14T19:49:43Z</time>
      </trkpt>
      <trkpt lat="42.97189" lon="-0.34605">
        <ele>1572</ele>
        <time>2022-01-14T19:49:47Z</time>
      </trkpt>
      <trkpt lat="42.97187" lon="-0.34628">
        <ele>1566</ele>
        <time>2022-01-14T19:49:51Z</time>
      </trkpt>
      <trkpt lat="42.97189" lon="-0.34661">
        <ele>1558</ele>
        <time>2022-01-14T19:49:57Z</time>
      </trkpt>
      <trkpt lat="42.97186" lon="-0.34679">
        <ele>1555</ele>
        <time>2022-01-14T19:50:00Z</time>
      </trkpt>
      <trkpt lat="42.97177" lon="-0.34687">
        <ele>1553</ele>
        <time>2022-01-14T19:50:02Z</time>
      </trkpt>
      <trkpt lat="42.97164" lon="-0.3468">
        <ele>1551</ele>
        <time>2022-01-14T19:50:06Z</time>
      </trkpt>
      <trkpt lat="42.97156" lon="-0.34661">
        <ele>1550</ele>
        <time>2022-01-14T19:50:09Z</time>
      </trkpt>
      <trkpt lat="42.97155" lon="-0.34614">
        <ele>1563</ele>
        <time>2022-01-14T19:50:17Z</time>
      </trkpt>
      <trkpt lat="42.97144" lon="-0.34578">
        <ele>1568</ele>
        <time>2022-01-14T19:50:24Z</time>
      </trkpt>
      <trkpt lat="42.97127" lon="-0.34561">
        <ele>1564</ele>
        <time>2022-01-14T19:50:29Z</time>
      </trkpt>
      <trkpt lat="42.97106" lon="-0.3455">
        <ele>1557</ele>
        <time>2022-01-14T19:50:34Z</time>
      </trkpt>
      <trkpt lat="42.97079" lon="-0.34528">
        <ele>1548</ele>
        <time>2022-01-14T19:50:42Z</time>
      </trkpt>
      <trkpt lat="42.97064" lon="-0.34486">
        <ele>1547</ele>
        <time>2022-01-14T19:50:50Z</time>
      </trkpt>
      <trkpt lat="42.97044" lon="-0.34443">
        <ele>1545</ele>
        <time>2022-01-14T19:50:58Z</time>
      </trkpt>
      <trkpt lat="42.97028" lon="-0.34415">
        <ele>1541</ele>
        <time>2022-01-14T19:51:04Z</time>
      </trkpt>
      <trkpt lat="42.96984" lon="-0.34371">
        <ele>1524</ele>
        <time>2022-01-14T19:51:17Z</time>
      </trkpt>
      <trkpt lat="42.96976" lon="-0.34347">
        <ele>1524</ele>
        <time>2022-01-14T19:51:22Z</time>
      </trkpt>
      <trkpt lat="42.96985" lon="-0.34287">
        <ele>1538</ele>
        <time>2022-01-14T19:51:32Z</time>
      </trkpt>
      <trkpt lat="42.96984" lon="-0.34272">
        <ele>1539</ele>
        <time>2022-01-14T19:51:35Z</time>
      </trkpt>
      <trkpt lat="42.96981" lon="-0.34258">
        <ele>1538</ele>
        <time>2022-01-14T19:51:37Z</time>
      </trkpt>
      <trkpt lat="42.96925" lon="-0.34136">
        <ele>1510</ele>
        <time>2022-01-14T19:52:02Z</time>
      </trkpt>
      <trkpt lat="42.96924" lon="-0.34111">
        <ele>1509</ele>
        <time>2022-01-14T19:52:06Z</time>
      </trkpt>
      <trkpt lat="42.96928" lon="-0.34086">
        <ele>1512</ele>
        <time>2022-01-14T19:52:10Z</time>
      </trkpt>
      <trkpt lat="42.96937" lon="-0.34061">
        <ele>1519</ele>
        <time>2022-01-14T19:52:15Z</time>
      </trkpt>
      <trkpt lat="42.96938" lon="-0.34038">
        <ele>1520</ele>
        <time>2022-01-14T19:52:19Z</time>
      </trkpt>
      <trkpt lat="42.96924" lon="-0.34012">
        <ele>1510</ele>
        <time>2022-01-14T19:52:25Z</time>
      </trkpt>
      <trkpt lat="42.96899" lon="-0.33932">
        <ele>1501</ele>
        <time>2022-01-14T19:52:40Z</time>
      </trkpt>
      <trkpt lat="42.96894" lon="-0.33895">
        <ele>1500</ele>
        <time>2022-01-14T19:52:46Z</time>
      </trkpt>
      <trkpt lat="42.96874" lon="-0.33807">
        <ele>1488</ele>
        <time>2022-01-14T19:53:02Z</time>
      </trkpt>
      <trkpt lat="42.96873" lon="-0.33792">
        <ele>1487</ele>
        <time>2022-01-14T19:53:04Z</time>
      </trkpt>
      <trkpt lat="42.96878" lon="-0.3378">
        <ele>1489</ele>
        <time>2022-01-14T19:53:07Z</time>
      </trkpt>
      <trkpt lat="42.96886" lon="-0.33741">
        <ele>1492</ele>
        <time>2022-01-14T19:53:14Z</time>
      </trkpt>
      <trkpt lat="42.96882" lon="-0.33696">
        <ele>1494</ele>
        <time>2022-01-14T19:53:21Z</time>
      </trkpt>
      <trkpt lat="42.96885" lon="-0.33668">
        <ele>1498</ele>
        <time>2022-01-14T19:53:26Z</time>
      </trkpt>
      <trkpt lat="42.96873" lon="-0.33657">
        <ele>1495</ele>
        <time>2022-01-14T19:53:30Z</time>
      </trkpt>
      <trkpt lat="42.96853" lon="-0.33655">
        <ele>1485</ele>
        <time>2022-01-14T19:53:34Z</time>
      </trkpt>
      <trkpt lat="42.96839" lon="-0.33657">
        <ele>1477</ele>
        <time>2022-01-14T19:53:37Z</time>
      </trkpt>
      <trkpt lat="42.96828" lon="-0.33652">
        <ele>1475</ele>
        <time>2022-01-14T19:53:40Z</time>
      </trkpt>
      <trkpt lat="42.96809" lon="-0.33632">
        <ele>1477</ele>
        <time>2022-01-14T19:53:46Z</time>
      </trkpt>
      <trkpt lat="42.96795" lon="-0.33607">
        <ele>1481</ele>
        <time>2022-01-14T19:53:51Z</time>
      </trkpt>
      <trkpt lat="42.96766" lon="-0.33587">
        <ele>1481</ele>
        <time>2022-01-14T19:53:59Z</time>
      </trkpt>
      <trkpt lat="42.9675" lon="-0.33586">
        <ele>1477</ele>
        <time>2022-01-14T19:54:02Z</time>
      </trkpt>
      <trkpt lat="42.96711" lon="-0.3357">
        <ele>1472</ele>
        <time>2022-01-14T19:54:12Z</time>
      </trkpt>
      <trkpt lat="42.96675" lon="-0.33564">
        <ele>1463</ele>
        <time>2022-01-14T19:54:20Z</time>
      </trkpt>
      <trkpt lat="42.96647" lon="-0.33549">
        <ele>1455</ele>
        <time>2022-01-14T19:54:28Z</time>
      </trkpt>
      <trkpt lat="42.96635" lon="-0.33526">
        <ele>1454</ele>
        <time>2022-01-14T19:54:32Z</time>
      </trkpt>
      <trkpt lat="42.9663" lon="-0.3347">
        <ele>1467</ele>
        <time>2022-01-14T19:54:42Z</time>
      </trkpt>
      <trkpt lat="42.96621" lon="-0.33455">
        <ele>1469</ele>
        <time>2022-01-14T19:54:45Z</time>
      </trkpt>
      <trkpt lat="42.96605" lon="-0.33455">
        <ele>1462</ele>
        <time>2022-01-14T19:54:49Z</time>
      </trkpt>
      <trkpt lat="42.96568" lon="-0.33472">
        <ele>1438</ele>
        <time>2022-01-14T19:54:58Z</time>
      </trkpt>
      <trkpt lat="42.9656" lon="-0.33472">
        <ele>1433</ele>
        <time>2022-01-14T19:55:00Z</time>
      </trkpt>
      <trkpt lat="42.96546" lon="-0.33463">
        <ele>1428</ele>
        <time>2022-01-14T19:55:04Z</time>
      </trkpt>
      <trkpt lat="42.96532" lon="-0.33443">
        <ele>1427</ele>
        <time>2022-01-14T19:55:08Z</time>
      </trkpt>
      <trkpt lat="42.96529" lon="-0.33418">
        <ele>1434</ele>
        <time>2022-01-14T19:55:13Z</time>
      </trkpt>
      <trkpt lat="42.96505" lon="-0.33339">
        <ele>1431</ele>
        <time>2022-01-14T19:55:27Z</time>
      </trkpt>
      <trkpt lat="42.96504" lon="-0.33299">
        <ele>1434</ele>
        <time>2022-01-14T19:55:34Z</time>
      </trkpt>
      <trkpt lat="42.96495" lon="-0.33241">
        <ele>1436</ele>
        <time>2022-01-14T19:55:44Z</time>
      </trkpt>
      <trkpt lat="42.96492" lon="-0.33228">
        <ele>1439</ele>
        <time>2022-01-14T19:55:47Z</time>
      </trkpt>
      <trkpt lat="42.96481" lon="-0.33204">
        <ele>1441</ele>
        <time>2022-01-14T19:55:51Z</time>
      </trkpt>
      <trkpt lat="42.96473" lon="-0.33193">
        <ele>1441</ele>
        <time>2022-01-14T19:55:54Z</time>
      </trkpt>
      <trkpt lat="42.9643" lon="-0.33159">
        <ele>1432</ele>
        <time>2022-01-14T19:56:06Z</time>
      </trkpt>
      <trkpt lat="42.96357" lon="-0.33128">
        <ele>1419</ele>
        <time>2022-01-14T19:56:24Z</time>
      </trkpt>
      <trkpt lat="42.9634" lon="-0.33109">
        <ele>1418</ele>
        <time>2022-01-14T19:56:29Z</time>
      </trkpt>
      <trkpt lat="42.96336" lon="-0.3309">
        <ele>1422</ele>
        <time>2022-01-14T19:56:32Z</time>
      </trkpt>
      <trkpt lat="42.96311" lon="-0.33058">
        <ele>1425</ele>
        <time>2022-01-14T19:56:40Z</time>
      </trkpt>
      <trkpt lat="42.96289" lon="-0.33052">
        <ele>1421</ele>
        <time>2022-01-14T19:56:45Z</time>
      </trkpt>
      <trkpt lat="42.96263" lon="-0.33057">
        <ele>1412</ele>
        <time>2022-01-14T19:56:51Z</time>
      </trkpt>
      <trkpt lat="42.96209" lon="-0.33083">
        <ele>1399</ele>
        <time>2022-01-14T19:57:05Z</time>
      </trkpt>
      <trkpt lat="42.96172" lon="-0.33111">
        <ele>1390</ele>
        <time>2022-01-14T19:57:15Z</time>
      </trkpt>
      <trkpt lat="42.96147" lon="-0.33124">
        <ele>1385</ele>
        <time>2022-01-14T19:57:21Z</time>
      </trkpt>
      <trkpt lat="42.96125" lon="-0.33128">
        <ele>1384</ele>
        <time>2022-01-14T19:57:26Z</time>
      </trkpt>
      <trkpt lat="42.96102" lon="-0.33128">
        <ele>1384</ele>
        <time>2022-01-14T19:57:31Z</time>
      </trkpt>
      <trkpt lat="42.96052" lon="-0.33144">
        <ele>1380</ele>
        <time>2022-01-14T19:57:43Z</time>
      </trkpt>
      <trkpt lat="42.96035" lon="-0.33151">
        <ele>1378</ele>
        <time>2022-01-14T19:57:48Z</time>
      </trkpt>
      <trkpt lat="42.96014" lon="-0.33175">
        <ele>1374</ele>
        <time>2022-01-14T19:57:54Z</time>
      </trkpt>
      <trkpt lat="42.96001" lon="-0.33164">
        <ele>1377</ele>
        <time>2022-01-14T19:57:58Z</time>
      </trkpt>
      <trkpt lat="42.95996" lon="-0.33164">
        <ele>1377</ele>
        <time>2022-01-14T19:57:59Z</time>
      </trkpt>
      <trkpt lat="42.95991" lon="-0.33205">
        <ele>1371</ele>
        <time>2022-01-14T19:58:06Z</time>
      </trkpt>
      <trkpt lat="42.95985" lon="-0.3323">
        <ele>1368</ele>
        <time>2022-01-14T19:58:10Z</time>
      </trkpt>
      <trkpt lat="42.95971" lon="-0.33247">
        <ele>1365</ele>
        <time>2022-01-14T19:58:15Z</time>
      </trkpt>
      <trkpt lat="42.95954" lon="-0.33257">
        <ele>1364</ele>
        <time>2022-01-14T19:58:19Z</time>
      </trkpt>
      <trkpt lat="42.95945" lon="-0.33259">
        <ele>1364</ele>
        <time>2022-01-14T19:58:21Z</time>
      </trkpt>
      <trkpt lat="42.95919" lon="-0.33256">
        <ele>1364</ele>
        <time>2022-01-14T19:58:27Z</time>
      </trkpt>
      <trkpt lat="42.95886" lon="-0.33267">
        <ele>1362</ele>
        <time>2022-01-14T19:58:35Z</time>
      </trkpt>
      <trkpt lat="42.95857" lon="-0.3326">
        <ele>1360</ele>
        <time>2022-01-14T19:58:42Z</time>
      </trkpt>
      <trkpt lat="42.95841" lon="-0.33245">
        <ele>1361</ele>
        <time>2022-01-14T19:58:47Z</time>
      </trkpt>
      <trkpt lat="42.95826" lon="-0.3324">
        <ele>1361</ele>
        <time>2022-01-14T19:58:50Z</time>
      </trkpt>
      <trkpt lat="42.95819" lon="-0.33242">
        <ele>1361</ele>
        <time>2022-01-14T19:58:52Z</time>
      </trkpt>
      <trkpt lat="42.95808" lon="-0.33258">
        <ele>1360</ele>
        <time>2022-01-14T19:58:56Z</time>
      </trkpt>
      <trkpt lat="42.95808" lon="-0.33295">
        <ele>1359</ele>
        <time>2022-01-14T19:59:02Z</time>
      </trkpt>
      <trkpt lat="42.95837" lon="-0.33319">
        <ele>1358</ele>
        <time>2022-01-14T19:59:10Z</time>
      </trkpt>
      <trkpt lat="42.95874" lon="-0.33324">
        <ele>1358</ele>
        <time>2022-01-14T19:59:19Z</time>
      </trkpt>
      <trkpt lat="42.95887" lon="-0.33322">
        <ele>1358</ele>
        <time>2022-01-14T19:59:22Z</time>
      </trkpt>
      <trkpt lat="42.95897" lon="-0.33317">
        <ele>1358</ele>
        <time>2022-01-14T19:59:24Z</time>
      </trkpt>
      <trkpt lat="42.95902" lon="-0.33309">
        <ele>1359</ele>
        <time>2022-01-14T19:59:26Z</time>
      </trkpt>
      <trkpt lat="42.95924" lon="-0.33296">
        <ele>1360</ele>
        <time>2022-01-14T19:59:31Z</time>
      </trkpt>
      <trkpt lat="42.95929" lon="-0.33296">
        <ele>1359</ele>
        <time>2022-01-14T19:59:33Z</time>
      </trkpt>
      <trkpt lat="42.95944" lon="-0.33304">
        <ele>1357</ele>
        <time>2022-01-14T19:59:36Z</time>
      </trkpt>
      <trkpt lat="42.95953" lon="-0.33315">
        <ele>1355</ele>
        <time>2022-01-14T19:59:39Z</time>
      </trkpt>
      <trkpt lat="42.95983" lon="-0.33326">
        <ele>1350</ele>
        <time>2022-01-14T19:59:46Z</time>
      </trkpt>
      <trkpt lat="42.96009" lon="-0.33325">
        <ele>1347</ele>
        <time>2022-01-14T19:59:53Z</time>
      </trkpt>
      <trkpt lat="42.96056" lon="-0.33301">
        <ele>1342</ele>
        <time>2022-01-14T20:00:04Z</time>
      </trkpt>
      <trkpt lat="42.96066" lon="-0.33301">
        <ele>1340</ele>
        <time>2022-01-14T20:00:07Z</time>
      </trkpt>
      <trkpt lat="42.96086" lon="-0.3331">
        <ele>1333</ele>
        <time>2022-01-14T20:00:12Z</time>
      </trkpt>
      <trkpt lat="42.96106" lon="-0.33324">
        <ele>1324</ele>
        <time>2022-01-14T20:00:17Z</time>
      </trkpt>
      <trkpt lat="42.96116" lon="-0.33325">
        <ele>1322</ele>
        <time>2022-01-14T20:00:19Z</time>
      </trkpt>
      <trkpt lat="42.96125" lon="-0.33322">
        <ele>1321</ele>
        <time>2022-01-14T20:00:21Z</time>
      </trkpt>
      <trkpt lat="42.96134" lon="-0.33313">
        <ele>1322</ele>
        <time>2022-01-14T20:00:24Z</time>
      </trkpt>
      <trkpt lat="42.96152" lon="-0.33288">
        <ele>1328</ele>
        <time>2022-01-14T20:00:30Z</time>
      </trkpt>
      <trkpt lat="42.96165" lon="-0.33284">
        <ele>1327</ele>
        <time>2022-01-14T20:00:33Z</time>
      </trkpt>
      <trkpt lat="42.96189" lon="-0.33281">
        <ele>1326</ele>
        <time>2022-01-14T20:00:39Z</time>
      </trkpt>
      <trkpt lat="42.96228" lon="-0.33285">
        <ele>1322</ele>
        <time>2022-01-14T20:00:48Z</time>
      </trkpt>
      <trkpt lat="42.96264" lon="-0.33306">
        <ele>1317</ele>
        <time>2022-01-14T20:00:57Z</time>
      </trkpt>
      <trkpt lat="42.96288" lon="-0.33329">
        <ele>1315</ele>
        <time>2022-01-14T20:01:04Z</time>
      </trkpt>
      <trkpt lat="42.96335" lon="-0.33381">
        <ele>1308</ele>
        <time>2022-01-14T20:01:18Z</time>
      </trkpt>
      <trkpt lat="42.96362" lon="-0.3343">
        <ele>1307</ele>
        <time>2022-01-14T20:01:28Z</time>
      </trkpt>
      <trkpt lat="42.96423" lon="-0.33587">
        <ele>1295</ele>
        <time>2022-01-14T20:01:59Z</time>
      </trkpt>
      <trkpt lat="42.96434" lon="-0.33702">
        <ele>1277</ele>
        <time>2022-01-14T20:02:19Z</time>
      </trkpt>
      <trkpt lat="42.96422" lon="-0.33739">
        <ele>1262</ele>
        <time>2022-01-14T20:02:25Z</time>
      </trkpt>
      <trkpt lat="42.9642" lon="-0.33778">
        <ele>1250</ele>
        <time>2022-01-14T20:02:32Z</time>
      </trkpt>
      <trkpt lat="42.96453" lon="-0.33862">
        <ele>1253</ele>
        <time>2022-01-14T20:02:48Z</time>
      </trkpt>
      <trkpt lat="42.96464" lon="-0.3391">
        <ele>1254</ele>
        <time>2022-01-14T20:02:57Z</time>
      </trkpt>
      <trkpt lat="42.96463" lon="-0.33932">
        <ele>1252</ele>
        <time>2022-01-14T20:03:01Z</time>
      </trkpt>
      <trkpt lat="42.96479" lon="-0.34057">
        <ele>1252</ele>
        <time>2022-01-14T20:03:22Z</time>
      </trkpt>
      <trkpt lat="42.96495" lon="-0.34146">
        <ele>1249</ele>
        <time>2022-01-14T20:03:38Z</time>
      </trkpt>
      <trkpt lat="42.96502" lon="-0.34277">
        <ele>1233</ele>
        <time>2022-01-14T20:04:01Z</time>
      </trkpt>
      <trkpt lat="42.96515" lon="-0.34273">
        <ele>1239</ele>
        <time>2022-01-14T20:04:04Z</time>
      </trkpt>
      <trkpt lat="42.96511" lon="-0.34319">
        <ele>1232</ele>
        <time>2022-01-14T20:04:12Z</time>
      </trkpt>
      <trkpt lat="42.96494" lon="-0.34351">
        <ele>1221</ele>
        <time>2022-01-14T20:04:18Z</time>
      </trkpt>
      <trkpt lat="42.96471" lon="-0.34329">
        <ele>1213</ele>
        <time>2022-01-14T20:04:25Z</time>
      </trkpt>
      <trkpt lat="42.96447" lon="-0.34261">
        <ele>1213</ele>
        <time>2022-01-14T20:04:38Z</time>
      </trkpt>
      <trkpt lat="42.96417" lon="-0.3414">
        <ele>1211</ele>
        <time>2022-01-14T20:05:00Z</time>
      </trkpt>
      <trkpt lat="42.96415" lon="-0.34082">
        <ele>1213</ele>
        <time>2022-01-14T20:05:10Z</time>
      </trkpt>
      <trkpt lat="42.96418" lon="-0.34064">
        <ele>1215</ele>
        <time>2022-01-14T20:05:13Z</time>
      </trkpt>
      <trkpt lat="42.96418" lon="-0.34012">
        <ele>1217</ele>
        <time>2022-01-14T20:05:22Z</time>
      </trkpt>
      <trkpt lat="42.96416" lon="-0.33994">
        <ele>1218</ele>
        <time>2022-01-14T20:05:25Z</time>
      </trkpt>
      <trkpt lat="42.96398" lon="-0.33954">
        <ele>1216</ele>
        <time>2022-01-14T20:05:33Z</time>
      </trkpt>
      <trkpt lat="42.96371" lon="-0.33945">
        <ele>1208</ele>
        <time>2022-01-14T20:05:39Z</time>
      </trkpt>
      <trkpt lat="42.96334" lon="-0.33945">
        <ele>1195</ele>
        <time>2022-01-14T20:05:48Z</time>
      </trkpt>
      <trkpt lat="42.96314" lon="-0.33949">
        <ele>1191</ele>
        <time>2022-01-14T20:05:53Z</time>
      </trkpt>
      <trkpt lat="42.96303" lon="-0.33965">
        <ele>1188</ele>
        <time>2022-01-14T20:05:56Z</time>
      </trkpt>
      <trkpt lat="42.96301" lon="-0.33978">
        <ele>1186</ele>
        <time>2022-01-14T20:05:59Z</time>
      </trkpt>
      <trkpt lat="42.96348" lon="-0.34108">
        <ele>1190</ele>
        <time>2022-01-14T20:06:23Z</time>
      </trkpt>
      <trkpt lat="42.96354" lon="-0.34141">
        <ele>1191</ele>
        <time>2022-01-14T20:06:29Z</time>
      </trkpt>
      <trkpt lat="42.96347" lon="-0.34197">
        <ele>1188</ele>
        <time>2022-01-14T20:06:39Z</time>
      </trkpt>
      <trkpt lat="42.96338" lon="-0.3423">
        <ele>1184</ele>
        <time>2022-01-14T20:06:45Z</time>
      </trkpt>
      <trkpt lat="42.9633" lon="-0.34283">
        <ele>1181</ele>
        <time>2022-01-14T20:06:54Z</time>
      </trkpt>
      <trkpt lat="42.96326" lon="-0.34341">
        <ele>1177</ele>
        <time>2022-01-14T20:07:04Z</time>
      </trkpt>
      <trkpt lat="42.96327" lon="-0.34361">
        <ele>1173</ele>
        <time>2022-01-14T20:07:08Z</time>
      </trkpt>
      <trkpt lat="42.96317" lon="-0.34435">
        <ele>1164</ele>
        <time>2022-01-14T20:07:20Z</time>
      </trkpt>
      <trkpt lat="42.96319" lon="-0.34485">
        <ele>1156</ele>
        <time>2022-01-14T20:07:29Z</time>
      </trkpt>
      <trkpt lat="42.96316" lon="-0.3453">
        <ele>1152</ele>
        <time>2022-01-14T20:07:37Z</time>
      </trkpt>
      <trkpt lat="42.96309" lon="-0.34549">
        <ele>1153</ele>
        <time>2022-01-14T20:07:40Z</time>
      </trkpt>
      <trkpt lat="42.96304" lon="-0.34556">
        <ele>1154</ele>
        <time>2022-01-14T20:07:42Z</time>
      </trkpt>
      <trkpt lat="42.96289" lon="-0.34562">
        <ele>1161</ele>
        <time>2022-01-14T20:07:46Z</time>
      </trkpt>
      <trkpt lat="42.9628" lon="-0.34563">
        <ele>1165</ele>
        <time>2022-01-14T20:07:48Z</time>
      </trkpt>
      <trkpt lat="42.96264" lon="-0.34578">
        <ele>1171</ele>
        <time>2022-01-14T20:07:52Z</time>
      </trkpt>
      <trkpt lat="42.96258" lon="-0.34591">
        <ele>1172</ele>
        <time>2022-01-14T20:07:55Z</time>
      </trkpt>
      <trkpt lat="42.96263" lon="-0.34693">
        <ele>1153</ele>
        <time>2022-01-14T20:08:12Z</time>
      </trkpt>
      <trkpt lat="42.9626" lon="-0.34766">
        <ele>1140</ele>
        <time>2022-01-14T20:08:25Z</time>
      </trkpt>
      <trkpt lat="42.96251" lon="-0.34821">
        <ele>1132</ele>
        <time>2022-01-14T20:08:35Z</time>
      </trkpt>
      <trkpt lat="42.96249" lon="-0.34879">
        <ele>1124</ele>
        <time>2022-01-14T20:08:44Z</time>
      </trkpt>
      <trkpt lat="42.96238" lon="-0.34948">
        <ele>1121</ele>
        <time>2022-01-14T20:08:57Z</time>
      </trkpt>
      <trkpt lat="42.9624" lon="-0.34954">
        <ele>1119</ele>
        <time>2022-01-14T20:08:58Z</time>
      </trkpt>
      <trkpt lat="42.96245" lon="-0.34956">
        <ele>1115</ele>
        <time>2022-01-14T20:08:59Z</time>
      </trkpt>
      <trkpt lat="42.9625" lon="-0.34943">
        <ele>1114</ele>
        <time>2022-01-14T20:09:01Z</time>
      </trkpt>
      <trkpt lat="42.96246" lon="-0.34896">
        <ele>1123</ele>
        <time>2022-01-14T20:09:09Z</time>
      </trkpt>
      <trkpt lat="42.96251" lon="-0.3486">
        <ele>1125</ele>
        <time>2022-01-14T20:09:16Z</time>
      </trkpt>
      <trkpt lat="42.96257" lon="-0.34834">
        <ele>1127</ele>
        <time>2022-01-14T20:09:20Z</time>
      </trkpt>
      <trkpt lat="42.96275" lon="-0.34796">
        <ele>1126</ele>
        <time>2022-01-14T20:09:28Z</time>
      </trkpt>
      <trkpt lat="42.96298" lon="-0.34766">
        <ele>1121</ele>
        <time>2022-01-14T20:09:36Z</time>
      </trkpt>
      <trkpt lat="42.96322" lon="-0.3475">
        <ele>1113</ele>
        <time>2022-01-14T20:09:42Z</time>
      </trkpt>
      <trkpt lat="42.96329" lon="-0.34738">
        <ele>1111</ele>
        <time>2022-01-14T20:09:44Z</time>
      </trkpt>
      <trkpt lat="42.96339" lon="-0.34729">
        <ele>1110</ele>
        <time>2022-01-14T20:09:47Z</time>
      </trkpt>
      <trkpt lat="42.96355" lon="-0.34708">
        <ele>1112</ele>
        <time>2022-01-14T20:09:52Z</time>
      </trkpt>
      <trkpt lat="42.96368" lon="-0.34681">
        <ele>1115</ele>
        <time>2022-01-14T20:09:58Z</time>
      </trkpt>
      <trkpt lat="42.96378" lon="-0.34635">
        <ele>1121</ele>
        <time>2022-01-14T20:10:06Z</time>
      </trkpt>
      <trkpt lat="42.96383" lon="-0.34622">
        <ele>1123</ele>
        <time>2022-01-14T20:10:09Z</time>
      </trkpt>
      <trkpt lat="42.96398" lon="-0.34608">
        <ele>1123</ele>
        <time>2022-01-14T20:10:13Z</time>
      </trkpt>
      <trkpt lat="42.96414" lon="-0.34616">
        <ele>1119</ele>
        <time>2022-01-14T20:10:17Z</time>
      </trkpt>
      <trkpt lat="42.9641" lon="-0.34747">
        <ele>1099</ele>
        <time>2022-01-14T20:10:39Z</time>
      </trkpt>
      <trkpt lat="42.96411" lon="-0.3476">
        <ele>1097</ele>
        <time>2022-01-14T20:10:41Z</time>
      </trkpt>
      <trkpt lat="42.96418" lon="-0.34783">
        <ele>1094</ele>
        <time>2022-01-14T20:10:46Z</time>
      </trkpt>
      <trkpt lat="42.96429" lon="-0.34803">
        <ele>1097</ele>
        <time>2022-01-14T20:10:50Z</time>
      </trkpt>
      <trkpt lat="42.96435" lon="-0.34829">
        <ele>1096</ele>
        <time>2022-01-14T20:10:55Z</time>
      </trkpt>
      <trkpt lat="42.96433" lon="-0.34866">
        <ele>1092</ele>
        <time>2022-01-14T20:11:01Z</time>
      </trkpt>
      <trkpt lat="42.96408" lon="-0.34904">
        <ele>1084</ele>
        <time>2022-01-14T20:11:10Z</time>
      </trkpt>
      <trkpt lat="42.96394" lon="-0.34931">
        <ele>1082</ele>
        <time>2022-01-14T20:11:15Z</time>
      </trkpt>
      <trkpt lat="42.96384" lon="-0.34982">
        <ele>1078</ele>
        <time>2022-01-14T20:11:24Z</time>
      </trkpt>
      <trkpt lat="42.96381" lon="-0.35055">
        <ele>1075</ele>
        <time>2022-01-14T20:11:37Z</time>
      </trkpt>
      <trkpt lat="42.96347" lon="-0.35153">
        <ele>1059</ele>
        <time>2022-01-14T20:11:55Z</time>
      </trkpt>
      <trkpt lat="42.96346" lon="-0.35191">
        <ele>1055</ele>
        <time>2022-01-14T20:12:02Z</time>
      </trkpt>
      <trkpt lat="42.96351" lon="-0.3525">
        <ele>1052</ele>
        <time>2022-01-14T20:12:12Z</time>
      </trkpt>
      <trkpt lat="42.96359" lon="-0.3529">
        <ele>1047</ele>
        <time>2022-01-14T20:12:19Z</time>
      </trkpt>
      <trkpt lat="42.96376" lon="-0.35324">
        <ele>1044</ele>
        <time>2022-01-14T20:12:26Z</time>
      </trkpt>
      <trkpt lat="42.96406" lon="-0.35373">
        <ele>1039</ele>
        <time>2022-01-14T20:12:37Z</time>
      </trkpt>
      <trkpt lat="42.96432" lon="-0.3543">
        <ele>1033</ele>
        <time>2022-01-14T20:12:49Z</time>
      </trkpt>
      <trkpt lat="42.9645" lon="-0.35466">
        <ele>1029</ele>
        <time>2022-01-14T20:12:56Z</time>
      </trkpt>
      <trkpt lat="42.96471" lon="-0.35501">
        <ele>1027</ele>
        <time>2022-01-14T20:13:04Z</time>
      </trkpt>
      <trkpt lat="42.96479" lon="-0.3552">
        <ele>1025</ele>
        <time>2022-01-14T20:13:08Z</time>
      </trkpt>
      <trkpt lat="42.96512" lon="-0.35569">
        <ele>1023</ele>
        <time>2022-01-14T20:13:19Z</time>
      </trkpt>
      <trkpt lat="42.96562" lon="-0.35628">
        <ele>1017</ele>
        <time>2022-01-14T20:13:34Z</time>
      </trkpt>
      <trkpt lat="42.96576" lon="-0.35666">
        <ele>1012</ele>
        <time>2022-01-14T20:13:42Z</time>
      </trkpt>
      <trkpt lat="42.96584" lon="-0.35715">
        <ele>1007</ele>
        <time>2022-01-14T20:13:50Z</time>
      </trkpt>
      <trkpt lat="42.96609" lon="-0.35828">
        <ele>998</ele>
        <time>2022-01-14T20:14:10Z</time>
      </trkpt>
      <trkpt lat="42.96619" lon="-0.35917">
        <ele>989</ele>
        <time>2022-01-14T20:14:26Z</time>
      </trkpt>
      <trkpt lat="42.96619" lon="-0.35976">
        <ele>985</ele>
        <time>2022-01-14T20:14:36Z</time>
      </trkpt>
      <trkpt lat="42.96636" lon="-0.36062">
        <ele>980</ele>
        <time>2022-01-14T20:14:51Z</time>
      </trkpt>
      <trkpt lat="42.96639" lon="-0.36097">
        <ele>977</ele>
        <time>2022-01-14T20:14:57Z</time>
      </trkpt>
      <trkpt lat="42.96653" lon="-0.36172">
        <ele>975</ele>
        <time>2022-01-14T20:15:10Z</time>
      </trkpt>
      <trkpt lat="42.96689" lon="-0.36315">
        <ele>967</ele>
        <time>2022-01-14T20:15:36Z</time>
      </trkpt>
      <trkpt lat="42.96698" lon="-0.36398">
        <ele>958</ele>
        <time>2022-01-14T20:15:51Z</time>
      </trkpt>
      <trkpt lat="42.96703" lon="-0.3643">
        <ele>955</ele>
        <time>2022-01-14T20:15:56Z</time>
      </trkpt>
      <trkpt lat="42.96717" lon="-0.3648">
        <ele>952</ele>
        <time>2022-01-14T20:16:05Z</time>
      </trkpt>
      <trkpt lat="42.96723" lon="-0.36535">
        <ele>947</ele>
        <time>2022-01-14T20:16:15Z</time>
      </trkpt>
      <trkpt lat="42.96736" lon="-0.36584">
        <ele>947</ele>
        <time>2022-01-14T20:16:24Z</time>
      </trkpt>
      <trkpt lat="42.96749" lon="-0.36616">
        <ele>943</ele>
        <time>2022-01-14T20:16:30Z</time>
      </trkpt>
      <trkpt lat="42.96759" lon="-0.36652">
        <ele>942</ele>
        <time>2022-01-14T20:16:37Z</time>
      </trkpt>
      <trkpt lat="42.9677" lon="-0.36707">
        <ele>942</ele>
        <time>2022-01-14T20:16:46Z</time>
      </trkpt>
      <trkpt lat="42.96778" lon="-0.36785">
        <ele>934</ele>
        <time>2022-01-14T20:17:00Z</time>
      </trkpt>
      <trkpt lat="42.96793" lon="-0.36844">
        <ele>930</ele>
        <time>2022-01-14T20:17:10Z</time>
      </trkpt>
      <trkpt lat="42.96829" lon="-0.36956">
        <ele>917</ele>
        <time>2022-01-14T20:17:31Z</time>
      </trkpt>
      <trkpt lat="42.96836" lon="-0.36973">
        <ele>916</ele>
        <time>2022-01-14T20:17:35Z</time>
      </trkpt>
      <trkpt lat="42.96862" lon="-0.37019">
        <ele>915</ele>
        <time>2022-01-14T20:17:45Z</time>
      </trkpt>
      <trkpt lat="42.96887" lon="-0.37074">
        <ele>910</ele>
        <time>2022-01-14T20:17:56Z</time>
      </trkpt>
      <trkpt lat="42.96894" lon="-0.37117">
        <ele>907</ele>
        <time>2022-01-14T20:18:03Z</time>
      </trkpt>
      <trkpt lat="42.96887" lon="-0.37159">
        <ele>902</ele>
        <time>2022-01-14T20:18:11Z</time>
      </trkpt>
      <trkpt lat="42.96898" lon="-0.37192">
        <ele>901</ele>
        <time>2022-01-14T20:18:17Z</time>
      </trkpt>
      <trkpt lat="42.96911" lon="-0.37213">
        <ele>901</ele>
        <time>2022-01-14T20:18:21Z</time>
      </trkpt>
      <trkpt lat="42.96908" lon="-0.37246">
        <ele>897</ele>
        <time>2022-01-14T20:18:27Z</time>
      </trkpt>
      <trkpt lat="42.96902" lon="-0.37255">
        <ele>896</ele>
        <time>2022-01-14T20:18:29Z</time>
      </trkpt>
      <trkpt lat="42.96884" lon="-0.37268">
        <ele>894</ele>
        <time>2022-01-14T20:18:34Z</time>
      </trkpt>
      <trkpt lat="42.96874" lon="-0.37272">
        <ele>892</ele>
        <time>2022-01-14T20:18:36Z</time>
      </trkpt>
      <trkpt lat="42.96852" lon="-0.37271">
        <ele>889</ele>
        <time>2022-01-14T20:18:41Z</time>
      </trkpt>
      <trkpt lat="42.96831" lon="-0.37259">
        <ele>887</ele>
        <time>2022-01-14T20:18:47Z</time>
      </trkpt>
      <trkpt lat="42.96815" lon="-0.37233">
        <ele>885</ele>
        <time>2022-01-14T20:18:53Z</time>
      </trkpt>
      <trkpt lat="42.96791" lon="-0.37181">
        <ele>884</ele>
        <time>2022-01-14T20:19:03Z</time>
      </trkpt>
      <trkpt lat="42.96778" lon="-0.37162">
        <ele>882</ele>
        <time>2022-01-14T20:19:08Z</time>
      </trkpt>
      <trkpt lat="42.96763" lon="-0.37159">
        <ele>880</ele>
        <time>2022-01-14T20:19:11Z</time>
      </trkpt>
      <trkpt lat="42.96755" lon="-0.37164">
        <ele>878</ele>
        <time>2022-01-14T20:19:13Z</time>
      </trkpt>
      <trkpt lat="42.96743" lon="-0.37184">
        <ele>877</ele>
        <time>2022-01-14T20:19:18Z</time>
      </trkpt>
      <trkpt lat="42.96741" lon="-0.37217">
        <ele>876</ele>
        <time>2022-01-14T20:19:23Z</time>
      </trkpt>
      <trkpt lat="42.96757" lon="-0.37346">
        <ele>870</ele>
        <time>2022-01-14T20:19:46Z</time>
      </trkpt>
      <trkpt lat="42.96758" lon="-0.37422">
        <ele>868</ele>
        <time>2022-01-14T20:19:59Z</time>
      </trkpt>
      <trkpt lat="42.96761" lon="-0.37455">
        <ele>866</ele>
        <time>2022-01-14T20:20:04Z</time>
      </trkpt>
      <trkpt lat="42.96775" lon="-0.37523">
        <ele>861</ele>
        <time>2022-01-14T20:20:16Z</time>
      </trkpt>
      <trkpt lat="42.96793" lon="-0.37561">
        <ele>857</ele>
        <time>2022-01-14T20:20:24Z</time>
      </trkpt>
      <trkpt lat="42.96811" lon="-0.37576">
        <ele>854</ele>
        <time>2022-01-14T20:20:29Z</time>
      </trkpt>
      <trkpt lat="42.96811" lon="-0.37603">
        <ele>852</ele>
        <time>2022-01-14T20:20:34Z</time>
      </trkpt>
      <trkpt lat="42.96798" lon="-0.37611">
        <ele>853</ele>
        <time>2022-01-14T20:20:37Z</time>
      </trkpt>
      <trkpt lat="42.96784" lon="-0.37624">
        <ele>855</ele>
        <time>2022-01-14T20:20:41Z</time>
      </trkpt>
      <trkpt lat="42.96773" lon="-0.37645">
        <ele>856</ele>
        <time>2022-01-14T20:20:45Z</time>
      </trkpt>
      <trkpt lat="42.96767" lon="-0.37668">
        <ele>858</ele>
        <time>2022-01-14T20:20:49Z</time>
      </trkpt>
      <trkpt lat="42.96772" lon="-0.37693">
        <ele>858</ele>
        <time>2022-01-14T20:20:54Z</time>
      </trkpt>
      <trkpt lat="42.96804" lon="-0.37729">
        <ele>848</ele>
        <time>2022-01-14T20:21:04Z</time>
      </trkpt>
      <trkpt lat="42.9681" lon="-0.37739">
        <ele>846</ele>
        <time>2022-01-14T20:21:06Z</time>
      </trkpt>
      <trkpt lat="42.96816" lon="-0.37766">
        <ele>843</ele>
        <time>2022-01-14T20:21:11Z</time>
      </trkpt>
      <trkpt lat="42.96816" lon="-0.3781">
        <ele>845</ele>
        <time>2022-01-14T20:21:18Z</time>
      </trkpt>
      <trkpt lat="42.96836" lon="-0.3786">
        <ele>838</ele>
        <time>2022-01-14T20:21:28Z</time>
      </trkpt>
      <trkpt lat="42.96838" lon="-0.37888">
        <ele>840</ele>
        <time>2022-01-14T20:21:33Z</time>
      </trkpt>
      <trkpt lat="42.96835" lon="-0.37917">
        <ele>843</ele>
        <time>2022-01-14T20:21:38Z</time>
      </trkpt>
      <trkpt lat="42.96842" lon="-0.37939">
        <ele>843</ele>
        <time>2022-01-14T20:21:42Z</time>
      </trkpt>
      <trkpt lat="42.96859" lon="-0.37946">
        <ele>839</ele>
        <time>2022-01-14T20:21:46Z</time>
      </trkpt>
      <trkpt lat="42.9687" lon="-0.37946">
        <ele>836</ele>
        <time>2022-01-14T20:21:48Z</time>
      </trkpt>
      <trkpt lat="42.96879" lon="-0.3795">
        <ele>833</ele>
        <time>2022-01-14T20:21:51Z</time>
      </trkpt>
      <trkpt lat="42.96893" lon="-0.37967">
        <ele>829</ele>
        <time>2022-01-14T20:21:55Z</time>
      </trkpt>
      <trkpt lat="42.96897" lon="-0.3798">
        <ele>828</ele>
        <time>2022-01-14T20:21:57Z</time>
      </trkpt>
      <trkpt lat="42.96897" lon="-0.38008">
        <ele>829</ele>
        <time>2022-01-14T20:22:02Z</time>
      </trkpt>
      <trkpt lat="42.96873" lon="-0.38051">
        <ele>841</ele>
        <time>2022-01-14T20:22:12Z</time>
      </trkpt>
      <trkpt lat="42.96877" lon="-0.38072">
        <ele>841</ele>
        <time>2022-01-14T20:22:15Z</time>
      </trkpt>
      <trkpt lat="42.96883" lon="-0.38082">
        <ele>840</ele>
        <time>2022-01-14T20:22:17Z</time>
      </trkpt>
      <trkpt lat="42.96902" lon="-0.38094">
        <ele>834</ele>
        <time>2022-01-14T20:22:22Z</time>
      </trkpt>
      <trkpt lat="42.9692" lon="-0.38093">
        <ele>827</ele>
        <time>2022-01-14T20:22:27Z</time>
      </trkpt>
      <trkpt lat="42.96931" lon="-0.38096">
        <ele>826</ele>
        <time>2022-01-14T20:22:29Z</time>
      </trkpt>
      <trkpt lat="42.96949" lon="-0.38108">
        <ele>823</ele>
        <time>2022-01-14T20:22:34Z</time>
      </trkpt>
      <trkpt lat="42.96961" lon="-0.38135">
        <ele>824</ele>
        <time>2022-01-14T20:22:39Z</time>
      </trkpt>
      <trkpt lat="42.96982" lon="-0.38164">
        <ele>823</ele>
        <time>2022-01-14T20:22:46Z</time>
      </trkpt>
      <trkpt lat="42.9699" lon="-0.38188">
        <ele>824</ele>
        <time>2022-01-14T20:22:51Z</time>
      </trkpt>
      <trkpt lat="42.96993" lon="-0.3824">
        <ele>827</ele>
        <time>2022-01-14T20:23:00Z</time>
      </trkpt>
      <trkpt lat="42.96996" lon="-0.38254">
        <ele>827</ele>
        <time>2022-01-14T20:23:02Z</time>
      </trkpt>
      <trkpt lat="42.97004" lon="-0.38239">
        <ele>824</ele>
        <time>2022-01-14T20:23:05Z</time>
      </trkpt>
      <trkpt lat="42.96994" lon="-0.38202">
        <ele>824</ele>
        <time>2022-01-14T20:23:12Z</time>
      </trkpt>
      <trkpt lat="42.96991" lon="-0.38163">
        <ele>821</ele>
        <time>2022-01-14T20:23:19Z</time>
      </trkpt>
      <trkpt lat="42.96978" lon="-0.38125">
        <ele>819</ele>
        <time>2022-01-14T20:23:26Z</time>
      </trkpt>
      <trkpt lat="42.96964" lon="-0.38102">
        <ele>820</ele>
        <time>2022-01-14T20:23:31Z</time>
      </trkpt>
      <trkpt lat="42.96959" lon="-0.38088">
        <ele>819</ele>
        <time>2022-01-14T20:23:34Z</time>
      </trkpt>
      <trkpt lat="42.96956" lon="-0.38063">
        <ele>819</ele>
        <time>2022-01-14T20:23:38Z</time>
      </trkpt>
      <trkpt lat="42.96965" lon="-0.38052">
        <ele>817</ele>
        <time>2022-01-14T20:23:41Z</time>
      </trkpt>
      <trkpt lat="42.96973" lon="-0.38055">
        <ele>816</ele>
        <time>2022-01-14T20:23:43Z</time>
      </trkpt>
      <trkpt lat="42.96993" lon="-0.38073">
        <ele>812</ele>
        <time>2022-01-14T20:23:48Z</time>
      </trkpt>
      <trkpt lat="42.97004" lon="-0.38095">
        <ele>812</ele>
        <time>2022-01-14T20:23:53Z</time>
      </trkpt>
      <trkpt lat="42.9703" lon="-0.38202">
        <ele>817</ele>
        <time>2022-01-14T20:24:12Z</time>
      </trkpt>
      <trkpt lat="42.97048" lon="-0.38239">
        <ele>814</ele>
        <time>2022-01-14T20:24:20Z</time>
      </trkpt>
      <trkpt lat="42.97082" lon="-0.38259">
        <ele>808</ele>
        <time>2022-01-14T20:24:28Z</time>
      </trkpt>
      <trkpt lat="42.97103" lon="-0.38276">
        <ele>809</ele>
        <time>2022-01-14T20:24:34Z</time>
      </trkpt>
      <trkpt lat="42.97124" lon="-0.38315">
        <ele>807</ele>
        <time>2022-01-14T20:24:42Z</time>
      </trkpt>
      <trkpt lat="42.97127" lon="-0.38333">
        <ele>805</ele>
        <time>2022-01-14T20:24:46Z</time>
      </trkpt>
      <trkpt lat="42.97138" lon="-0.38362">
        <ele>803</ele>
        <time>2022-01-14T20:24:51Z</time>
      </trkpt>
      <trkpt lat="42.97162" lon="-0.38423">
        <ele>794</ele>
        <time>2022-01-14T20:25:03Z</time>
      </trkpt>
      <trkpt lat="42.97189" lon="-0.38481">
        <ele>794</ele>
        <time>2022-01-14T20:25:15Z</time>
      </trkpt>
      <trkpt lat="42.97197" lon="-0.38512">
        <ele>792</ele>
        <time>2022-01-14T20:25:20Z</time>
      </trkpt>
      <trkpt lat="42.97197" lon="-0.38528">
        <ele>790</ele>
        <time>2022-01-14T20:25:23Z</time>
      </trkpt>
      <trkpt lat="42.97175" lon="-0.3863">
        <ele>792</ele>
        <time>2022-01-14T20:25:41Z</time>
      </trkpt>
      <trkpt lat="42.97176" lon="-0.38647">
        <ele>792</ele>
        <time>2022-01-14T20:25:44Z</time>
      </trkpt>
      <trkpt lat="42.97216" lon="-0.38796">
        <ele>772</ele>
        <time>2022-01-14T20:26:11Z</time>
      </trkpt>
      <trkpt lat="42.97227" lon="-0.38849">
        <ele>766</ele>
        <time>2022-01-14T20:26:21Z</time>
      </trkpt>
      <trkpt lat="42.97238" lon="-0.38883">
        <ele>761</ele>
        <time>2022-01-14T20:26:27Z</time>
      </trkpt>
      <trkpt lat="42.97248" lon="-0.38898">
        <ele>756</ele>
        <time>2022-01-14T20:26:30Z</time>
      </trkpt>
      <trkpt lat="42.97269" lon="-0.38947">
        <ele>752</ele>
        <time>2022-01-14T20:26:40Z</time>
      </trkpt>
      <trkpt lat="42.97307" lon="-0.39061">
        <ele>734</ele>
        <time>2022-01-14T20:27:02Z</time>
      </trkpt>
      <trkpt lat="42.97338" lon="-0.39122">
        <ele>729</ele>
        <time>2022-01-14T20:27:14Z</time>
      </trkpt>
      <trkpt lat="42.97339" lon="-0.39134">
        <ele>729</ele>
        <time>2022-01-14T20:27:16Z</time>
      </trkpt>
      <trkpt lat="42.97334" lon="-0.39159">
        <ele>732</ele>
        <time>2022-01-14T20:27:21Z</time>
      </trkpt>
      <trkpt lat="42.97324" lon="-0.39172">
        <ele>733</ele>
        <time>2022-01-14T20:27:24Z</time>
      </trkpt>
      <trkpt lat="42.97319" lon="-0.39183">
        <ele>733</ele>
        <time>2022-01-14T20:27:26Z</time>
      </trkpt>
      <trkpt lat="42.97297" lon="-0.39206">
        <ele>735</ele>
        <time>2022-01-14T20:27:33Z</time>
      </trkpt>
      <trkpt lat="42.97282" lon="-0.39211">
        <ele>737</ele>
        <time>2022-01-14T20:27:36Z</time>
      </trkpt>
      <trkpt lat="42.97312" lon="-0.3925">
        <ele>731</ele>
        <time>2022-01-14T20:27:46Z</time>
      </trkpt>
      <trkpt lat="42.97349" lon="-0.39332">
        <ele>719</ele>
        <time>2022-01-14T20:28:02Z</time>
      </trkpt>
      <trkpt lat="42.97375" lon="-0.39407">
        <ele>724</ele>
        <time>2022-01-14T20:28:17Z</time>
      </trkpt>
      <trkpt lat="42.97383" lon="-0.39437">
        <ele>726</ele>
        <time>2022-01-14T20:28:22Z</time>
      </trkpt>
      <trkpt lat="42.97389" lon="-0.39447">
        <ele>725</ele>
        <time>2022-01-14T20:28:24Z</time>
      </trkpt>
      <trkpt lat="42.97399" lon="-0.39475">
        <ele>724</ele>
        <time>2022-01-14T20:28:30Z</time>
      </trkpt>
      <trkpt lat="42.97404" lon="-0.39502">
        <ele>724</ele>
        <time>2022-01-14T20:28:34Z</time>
      </trkpt>
      <trkpt lat="42.97412" lon="-0.39516">
        <ele>719</ele>
        <time>2022-01-14T20:28:37Z</time>
      </trkpt>
      <trkpt lat="42.97419" lon="-0.39536">
        <ele>713</ele>
        <time>2022-01-14T20:28:41Z</time>
      </trkpt>
      <trkpt lat="42.97425" lon="-0.39562">
        <ele>708</ele>
        <time>2022-01-14T20:28:46Z</time>
      </trkpt>
      <trkpt lat="42.97411" lon="-0.39627">
        <ele>709</ele>
        <time>2022-01-14T20:28:57Z</time>
      </trkpt>
      <trkpt lat="42.97412" lon="-0.39655">
        <ele>705</ele>
        <time>2022-01-14T20:29:02Z</time>
      </trkpt>
      <trkpt lat="42.97409" lon="-0.39681">
        <ele>705</ele>
        <time>2022-01-14T20:29:07Z</time>
      </trkpt>
      <trkpt lat="42.97398" lon="-0.3972">
        <ele>709</ele>
        <time>2022-01-14T20:29:14Z</time>
      </trkpt>
      <trkpt lat="42.97403" lon="-0.39749">
        <ele>705</ele>
        <time>2022-01-14T20:29:19Z</time>
      </trkpt>
      <trkpt lat="42.97439" lon="-0.39792">
        <ele>692</ele>
        <time>2022-01-14T20:29:30Z</time>
      </trkpt>
      <trkpt lat="42.97455" lon="-0.3985">
        <ele>688</ele>
        <time>2022-01-14T20:29:41Z</time>
      </trkpt>
      <trkpt lat="42.97458" lon="-0.39881">
        <ele>689</ele>
        <time>2022-01-14T20:29:46Z</time>
      </trkpt>
      <trkpt lat="42.97468" lon="-0.39927">
        <ele>684</ele>
        <time>2022-01-14T20:29:54Z</time>
      </trkpt>
      <trkpt lat="42.9747" lon="-0.39958">
        <ele>682</ele>
        <time>2022-01-14T20:30:00Z</time>
      </trkpt>
      <trkpt lat="42.97464" lon="-0.40065">
        <ele>685</ele>
        <time>2022-01-14T20:30:18Z</time>
      </trkpt>
      <trkpt lat="42.97471" lon="-0.40109">
        <ele>683</ele>
        <time>2022-01-14T20:30:26Z</time>
      </trkpt>
      <trkpt lat="42.9749" lon="-0.40181">
        <ele>674</ele>
        <time>2022-01-14T20:30:39Z</time>
      </trkpt>
      <trkpt lat="42.97494" lon="-0.40226">
        <ele>670</ele>
        <time>2022-01-14T20:30:46Z</time>
      </trkpt>
      <trkpt lat="42.97492" lon="-0.40257">
        <ele>671</ele>
        <time>2022-01-14T20:30:52Z</time>
      </trkpt>
      <trkpt lat="42.97497" lon="-0.40304">
        <ele>672</ele>
        <time>2022-01-14T20:31:00Z</time>
      </trkpt>
      <trkpt lat="42.97512" lon="-0.40347">
        <ele>670</ele>
        <time>2022-01-14T20:31:08Z</time>
      </trkpt>
      <trkpt lat="42.97517" lon="-0.40376">
        <ele>671</ele>
        <time>2022-01-14T20:31:13Z</time>
      </trkpt>
      <trkpt lat="42.97529" lon="-0.40419">
        <ele>671</ele>
        <time>2022-01-14T20:31:21Z</time>
      </trkpt>
      <trkpt lat="42.97536" lon="-0.40431">
        <ele>670</ele>
        <time>2022-01-14T20:31:24Z</time>
      </trkpt>
      <trkpt lat="42.97587" lon="-0.40494">
        <ele>665</ele>
        <time>2022-01-14T20:31:40Z</time>
      </trkpt>
      <trkpt lat="42.97617" lon="-0.40515">
        <ele>659</ele>
        <time>2022-01-14T20:31:47Z</time>
      </trkpt>
      <trkpt lat="42.97661" lon="-0.40532">
        <ele>649</ele>
        <time>2022-01-14T20:31:58Z</time>
      </trkpt>
      <trkpt lat="42.97679" lon="-0.40548">
        <ele>647</ele>
        <time>2022-01-14T20:32:03Z</time>
      </trkpt>
      <trkpt lat="42.97699" lon="-0.40584">
        <ele>644</ele>
        <time>2022-01-14T20:32:11Z</time>
      </trkpt>
      <trkpt lat="42.97708" lon="-0.40612">
        <ele>643</ele>
        <time>2022-01-14T20:32:16Z</time>
      </trkpt>
      <trkpt lat="42.97715" lon="-0.40656">
        <ele>645</ele>
        <time>2022-01-14T20:32:24Z</time>
      </trkpt>
      <trkpt lat="42.97727" lon="-0.40699">
        <ele>646</ele>
        <time>2022-01-14T20:32:32Z</time>
      </trkpt>
      <trkpt lat="42.97753" lon="-0.4071">
        <ele>640</ele>
        <time>2022-01-14T20:32:38Z</time>
      </trkpt>
      <trkpt lat="42.97775" lon="-0.40723">
        <ele>635</ele>
        <time>2022-01-14T20:32:44Z</time>
      </trkpt>
      <trkpt lat="42.97793" lon="-0.40742">
        <ele>633</ele>
        <time>2022-01-14T20:32:49Z</time>
      </trkpt>
      <trkpt lat="42.97806" lon="-0.40765">
        <ele>633</ele>
        <time>2022-01-14T20:32:54Z</time>
      </trkpt>
      <trkpt lat="42.9781" lon="-0.40795">
        <ele>636</ele>
        <time>2022-01-14T20:32:59Z</time>
      </trkpt>
      <trkpt lat="42.97813" lon="-0.40856">
        <ele>642</ele>
        <time>2022-01-14T20:33:10Z</time>
      </trkpt>
      <trkpt lat="42.97809" lon="-0.40901">
        <ele>642</ele>
        <time>2022-01-14T20:33:17Z</time>
      </trkpt>
      <trkpt lat="42.97809" lon="-0.40933">
        <ele>642</ele>
        <time>2022-01-14T20:33:23Z</time>
      </trkpt>
      <trkpt lat="42.97816" lon="-0.4096">
        <ele>641</ele>
        <time>2022-01-14T20:33:28Z</time>
      </trkpt>
      <trkpt lat="42.97846" lon="-0.41007">
        <ele>634</ele>
        <time>2022-01-14T20:33:38Z</time>
      </trkpt>
      <trkpt lat="42.97852" lon="-0.4102">
        <ele>632</ele>
        <time>2022-01-14T20:33:41Z</time>
      </trkpt>
      <trkpt lat="42.97854" lon="-0.41035">
        <ele>631</ele>
        <time>2022-01-14T20:33:44Z</time>
      </trkpt>
      <trkpt lat="42.97848" lon="-0.41069">
        <ele>631</ele>
        <time>2022-01-14T20:33:50Z</time>
      </trkpt>
      <trkpt lat="42.97832" lon="-0.4113">
        <ele>633</ele>
        <time>2022-01-14T20:34:01Z</time>
      </trkpt>
      <trkpt lat="42.9782" lon="-0.41208">
        <ele>628</ele>
        <time>2022-01-14T20:34:14Z</time>
      </trkpt>
      <trkpt lat="42.97791" lon="-0.41292">
        <ele>632</ele>
        <time>2022-01-14T20:34:30Z</time>
      </trkpt>
      <trkpt lat="42.97784" lon="-0.41369">
        <ele>624</ele>
        <time>2022-01-14T20:34:43Z</time>
      </trkpt>
      <trkpt lat="42.97779" lon="-0.41398">
        <ele>622</ele>
        <time>2022-01-14T20:34:48Z</time>
      </trkpt>
      <trkpt lat="42.97759" lon="-0.41458">
        <ele>624</ele>
        <time>2022-01-14T20:35:00Z</time>
      </trkpt>
      <trkpt lat="42.97752" lon="-0.41488">
        <ele>624</ele>
        <time>2022-01-14T20:35:05Z</time>
      </trkpt>
      <trkpt lat="42.97749" lon="-0.41533">
        <ele>621</ele>
        <time>2022-01-14T20:35:13Z</time>
      </trkpt>
      <trkpt lat="42.97757" lon="-0.41624">
        <ele>613</ele>
        <time>2022-01-14T20:35:28Z</time>
      </trkpt>
      <trkpt lat="42.97753" lon="-0.41669">
        <ele>611</ele>
        <time>2022-01-14T20:35:36Z</time>
      </trkpt>
      <trkpt lat="42.9774" lon="-0.41709">
        <ele>606</ele>
        <time>2022-01-14T20:35:44Z</time>
      </trkpt>
      <trkpt lat="42.97728" lon="-0.41733">
        <ele>605</ele>
        <time>2022-01-14T20:35:49Z</time>
      </trkpt>
      <trkpt lat="42.97675" lon="-0.41819">
        <ele>607</ele>
        <time>2022-01-14T20:36:08Z</time>
      </trkpt>
      <trkpt lat="42.97651" lon="-0.41869">
        <ele>607</ele>
        <time>2022-01-14T20:36:18Z</time>
      </trkpt>
      <trkpt lat="42.97643" lon="-0.41896">
        <ele>604</ele>
        <time>2022-01-14T20:36:23Z</time>
      </trkpt>
      <trkpt lat="42.97631" lon="-0.41953">
        <ele>597</ele>
        <time>2022-01-14T20:36:33Z</time>
      </trkpt>
      <trkpt lat="42.97622" lon="-0.4198">
        <ele>595</ele>
        <time>2022-01-14T20:36:38Z</time>
      </trkpt>
      <trkpt lat="42.97615" lon="-0.41993">
        <ele>595</ele>
        <time>2022-01-14T20:36:41Z</time>
      </trkpt>
      <trkpt lat="42.97599" lon="-0.42013">
        <ele>598</ele>
        <time>2022-01-14T20:36:46Z</time>
      </trkpt>
      <trkpt lat="42.97573" lon="-0.42038">
        <ele>605</ele>
        <time>2022-01-14T20:36:53Z</time>
      </trkpt>
      <trkpt lat="42.97568" lon="-0.42047">
        <ele>606</ele>
        <time>2022-01-14T20:36:55Z</time>
      </trkpt>
      <trkpt lat="42.97569" lon="-0.42069">
        <ele>603</ele>
        <time>2022-01-14T20:36:59Z</time>
      </trkpt>
      <trkpt lat="42.97575" lon="-0.42077">
        <ele>600</ele>
        <time>2022-01-14T20:37:01Z</time>
      </trkpt>
      <trkpt lat="42.97591" lon="-0.42081">
        <ele>595</ele>
        <time>2022-01-14T20:37:05Z</time>
      </trkpt>
      <trkpt lat="42.97607" lon="-0.4206">
        <ele>592</ele>
        <time>2022-01-14T20:37:10Z</time>
      </trkpt>
      <trkpt lat="42.97635" lon="-0.41982">
        <ele>590</ele>
        <time>2022-01-14T20:37:25Z</time>
      </trkpt>
      <trkpt lat="42.97654" lon="-0.41938">
        <ele>591</ele>
        <time>2022-01-14T20:37:34Z</time>
      </trkpt>
      <trkpt lat="42.97665" lon="-0.41917">
        <ele>590</ele>
        <time>2022-01-14T20:37:38Z</time>
      </trkpt>
      <trkpt lat="42.97724" lon="-0.41829">
        <ele>583</ele>
        <time>2022-01-14T20:37:59Z</time>
      </trkpt>
      <trkpt lat="42.97794" lon="-0.41738">
        <ele>576</ele>
        <time>2022-01-14T20:38:21Z</time>
      </trkpt>
      <trkpt lat="42.97831" lon="-0.41675">
        <ele>577</ele>
        <time>2022-01-14T20:38:35Z</time>
      </trkpt>
      <trkpt lat="42.97854" lon="-0.41647">
        <ele>574</ele>
        <time>2022-01-14T20:38:42Z</time>
      </trkpt>
      <trkpt lat="42.97935" lon="-0.41589">
        <ele>561</ele>
        <time>2022-01-14T20:39:03Z</time>
      </trkpt>
      <trkpt lat="42.9795" lon="-0.41562">
        <ele>559</ele>
        <time>2022-01-14T20:39:09Z</time>
      </trkpt>
      <trkpt lat="42.97968" lon="-0.41488">
        <ele>562</ele>
        <time>2022-01-14T20:39:23Z</time>
      </trkpt>
      <trkpt lat="42.97974" lon="-0.41475">
        <ele>562</ele>
        <time>2022-01-14T20:39:25Z</time>
      </trkpt>
      <trkpt lat="42.97989" lon="-0.41461">
        <ele>560</ele>
        <time>2022-01-14T20:39:29Z</time>
      </trkpt>
      <trkpt lat="42.98007" lon="-0.41466">
        <ele>556</ele>
        <time>2022-01-14T20:39:34Z</time>
      </trkpt>
      <trkpt lat="42.98013" lon="-0.41485">
        <ele>553</ele>
        <time>2022-01-14T20:39:37Z</time>
      </trkpt>
      <trkpt lat="42.98011" lon="-0.41508">
        <ele>551</ele>
        <time>2022-01-14T20:39:41Z</time>
      </trkpt>
      <trkpt lat="42.97967" lon="-0.41598">
        <ele>549</ele>
        <time>2022-01-14T20:40:00Z</time>
      </trkpt>
      <trkpt lat="42.97946" lon="-0.4163">
        <ele>550</ele>
        <time>2022-01-14T20:40:07Z</time>
      </trkpt>
      <trkpt lat="42.97888" lon="-0.41696">
        <ele>554</ele>
        <time>2022-01-14T20:40:25Z</time>
      </trkpt>
      <trkpt lat="42.97861" lon="-0.41743">
        <ele>552</ele>
        <time>2022-01-14T20:40:35Z</time>
      </trkpt>
      <trkpt lat="42.97846" lon="-0.41812">
        <ele>543</ele>
        <time>2022-01-14T20:40:47Z</time>
      </trkpt>
      <trkpt lat="42.97835" lon="-0.41838">
        <ele>542</ele>
        <time>2022-01-14T20:40:52Z</time>
      </trkpt>
      <trkpt lat="42.97822" lon="-0.4186">
        <ele>542</ele>
        <time>2022-01-14T20:40:57Z</time>
      </trkpt>
      <trkpt lat="42.97807" lon="-0.41896">
        <ele>542</ele>
        <time>2022-01-14T20:41:04Z</time>
      </trkpt>
      <trkpt lat="42.97803" lon="-0.41924">
        <ele>539</ele>
        <time>2022-01-14T20:41:09Z</time>
      </trkpt>
      <trkpt lat="42.97801" lon="-0.41986">
        <ele>539</ele>
        <time>2022-01-14T20:41:20Z</time>
      </trkpt>
      <trkpt lat="42.97797" lon="-0.42">
        <ele>540</ele>
        <time>2022-01-14T20:41:22Z</time>
      </trkpt>
      <trkpt lat="42.97782" lon="-0.42033">
        <ele>547</ele>
        <time>2022-01-14T20:41:29Z</time>
      </trkpt>
      <trkpt lat="42.97779" lon="-0.42052">
        <ele>550</ele>
        <time>2022-01-14T20:41:32Z</time>
      </trkpt>
      <trkpt lat="42.97786" lon="-0.42067">
        <ele>550</ele>
        <time>2022-01-14T20:41:35Z</time>
      </trkpt>
      <trkpt lat="42.97802" lon="-0.42068">
        <ele>546</ele>
        <time>2022-01-14T20:41:39Z</time>
      </trkpt>
      <trkpt lat="42.97813" lon="-0.42054">
        <ele>541</ele>
        <time>2022-01-14T20:41:42Z</time>
      </trkpt>
      <trkpt lat="42.97818" lon="-0.42007">
        <ele>535</ele>
        <time>2022-01-14T20:41:51Z</time>
      </trkpt>
      <trkpt lat="42.97831" lon="-0.41928">
        <ele>531</ele>
        <time>2022-01-14T20:42:04Z</time>
      </trkpt>
      <trkpt lat="42.97839" lon="-0.41894">
        <ele>532</ele>
        <time>2022-01-14T20:42:11Z</time>
      </trkpt>
      <trkpt lat="42.97851" lon="-0.41877">
        <ele>532</ele>
        <time>2022-01-14T20:42:15Z</time>
      </trkpt>
      <trkpt lat="42.9787" lon="-0.41869">
        <ele>529</ele>
        <time>2022-01-14T20:42:19Z</time>
      </trkpt>
      <trkpt lat="42.97891" lon="-0.41882">
        <ele>523</ele>
        <time>2022-01-14T20:42:25Z</time>
      </trkpt>
      <trkpt lat="42.979" lon="-0.41906">
        <ele>518</ele>
        <time>2022-01-14T20:42:29Z</time>
      </trkpt>
      <trkpt lat="42.97901" lon="-0.41934">
        <ele>517</ele>
        <time>2022-01-14T20:42:34Z</time>
      </trkpt>
      <trkpt lat="42.97908" lon="-0.41975">
        <ele>514</ele>
        <time>2022-01-14T20:42:41Z</time>
      </trkpt>
      <trkpt lat="42.97919" lon="-0.42014">
        <ele>512</ele>
        <time>2022-01-14T20:42:48Z</time>
      </trkpt>
      <trkpt lat="42.97936" lon="-0.42045">
        <ele>512</ele>
        <time>2022-01-14T20:42:55Z</time>
      </trkpt>
      <trkpt lat="42.97963" lon="-0.42061">
        <ele>511</ele>
        <time>2022-01-14T20:43:02Z</time>
      </trkpt>
      <trkpt lat="42.98067" lon="-0.42075">
        <ele>509</ele>
        <time>2022-01-14T20:43:26Z</time>
      </trkpt>
      <trkpt lat="42.98111" lon="-0.42084">
        <ele>509</ele>
        <time>2022-01-14T20:43:37Z</time>
      </trkpt>
      <trkpt lat="42.98126" lon="-0.42091">
        <ele>509</ele>
        <time>2022-01-14T20:43:40Z</time>
      </trkpt>
      <trkpt lat="42.98139" lon="-0.42105">
        <ele>509</ele>
        <time>2022-01-14T20:43:44Z</time>
      </trkpt>
      <trkpt lat="42.98146" lon="-0.42121">
        <ele>510</ele>
        <time>2022-01-14T20:43:47Z</time>
      </trkpt>
      <trkpt lat="42.98185" lon="-0.42302">
        <ele>516</ele>
        <time>2022-01-14T20:44:20Z</time>
      </trkpt>
      <trkpt lat="42.98199" lon="-0.42437">
        <ele>518</ele>
        <time>2022-01-14T20:44:43Z</time>
      </trkpt>
      <trkpt lat="42.98211" lon="-0.42524">
        <ele>521</ele>
        <time>2022-01-14T20:44:58Z</time>
      </trkpt>
      <trkpt lat="42.9822" lon="-0.42565">
        <ele>523</ele>
        <time>2022-01-14T20:45:05Z</time>
      </trkpt>
      <trkpt lat="42.98264" lon="-0.42666">
        <ele>524</ele>
        <time>2022-01-14T20:45:25Z</time>
      </trkpt>
      <trkpt lat="42.98287" lon="-0.42711">
        <ele>526</ele>
        <time>2022-01-14T20:45:35Z</time>
      </trkpt>
      <trkpt lat="42.98317" lon="-0.42746">
        <ele>523</ele>
        <time>2022-01-14T20:45:44Z</time>
      </trkpt>
      <trkpt lat="42.98324" lon="-0.4276">
        <ele>522</ele>
        <time>2022-01-14T20:45:47Z</time>
      </trkpt>
      <trkpt lat="42.98334" lon="-0.42771">
        <ele>521</ele>
        <time>2022-01-14T20:45:50Z</time>
      </trkpt>
      <trkpt lat="42.98364" lon="-0.42796">
        <ele>522</ele>
        <time>2022-01-14T20:45:58Z</time>
      </trkpt>
      <trkpt lat="42.98378" lon="-0.42798">
        <ele>522</ele>
        <time>2022-01-14T20:46:01Z</time>
      </trkpt>
      <trkpt lat="42.98451" lon="-0.4278">
        <ele>522</ele>
        <time>2022-01-14T20:46:19Z</time>
      </trkpt>
      <trkpt lat="42.98485" lon="-0.42762">
        <ele>523</ele>
        <time>2022-01-14T20:46:27Z</time>
      </trkpt>
      <trkpt lat="42.9849" lon="-0.42765">
        <ele>524</ele>
        <time>2022-01-14T20:46:29Z</time>
      </trkpt>
      <trkpt lat="42.98492" lon="-0.42777">
        <ele>524</ele>
        <time>2022-01-14T20:46:31Z</time>
      </trkpt>
      <trkpt lat="42.98493" lon="-0.42761">
        <ele>524</ele>
        <time>2022-01-14T20:46:33Z</time>
      </trkpt>
      <trkpt lat="42.98503" lon="-0.42753">
        <ele>524</ele>
        <time>2022-01-14T20:46:36Z</time>
      </trkpt>
      <trkpt lat="42.98538" lon="-0.42749">
        <ele>526</ele>
        <time>2022-01-14T20:46:44Z</time>
      </trkpt>
      <trkpt lat="42.98562" lon="-0.42742">
        <ele>527</ele>
        <time>2022-01-14T20:46:50Z</time>
      </trkpt>
      <trkpt lat="42.98558" lon="-0.42742">
        <ele>527</ele>
        <time>2022-01-14T20:46:51Z</time>
      </trkpt>
      <trkpt lat="42.98558" lon="-0.4274">
        <ele>527</ele>
        <time>2022-01-14T20:46:51Z</time>
      </trkpt>
      <trkpt lat="42.98571" lon="-0.42738">
        <ele>528</ele>
        <time>2022-01-14T20:46:54Z</time>
      </trkpt>
      <trkpt lat="42.98572" lon="-0.42727">
        <ele>527</ele>
        <time>2022-01-14T20:46:56Z</time>
      </trkpt>
      <trkpt lat="42.98571" lon="-0.42732">
        <ele>527</ele>
        <time>2022-01-14T20:46:57Z</time>
      </trkpt>
      <trkpt lat="42.98596" lon="-0.42724">
        <ele>528</ele>
        <time>2022-01-14T20:47:03Z</time>
      </trkpt>
      <trkpt lat="42.98653" lon="-0.42692">
        <ele>528</ele>
        <time>2022-01-14T20:47:17Z</time>
      </trkpt>
      <trkpt lat="42.98694" lon="-0.42673">
        <ele>528</ele>
        <time>2022-01-14T20:47:28Z</time>
      </trkpt>
      <trkpt lat="42.98714" lon="-0.42659">
        <ele>528</ele>
        <time>2022-01-14T20:47:33Z</time>
      </trkpt>
      <trkpt lat="42.98729" lon="-0.42654">
        <ele>527</ele>
        <time>2022-01-14T20:47:36Z</time>
      </trkpt>
      <trkpt lat="42.98788" lon="-0.42648">
        <ele>527</ele>
        <time>2022-01-14T20:47:50Z</time>
      </trkpt>
      <trkpt lat="42.988" lon="-0.42641">
        <ele>526</ele>
        <time>2022-01-14T20:47:53Z</time>
      </trkpt>
      <trkpt lat="42.98818" lon="-0.42609">
        <ele>524</ele>
        <time>2022-01-14T20:48:00Z</time>
      </trkpt>
      <trkpt lat="42.98811" lon="-0.42535">
        <ele>520</ele>
        <time>2022-01-14T20:48:13Z</time>
      </trkpt>
      <trkpt lat="42.98814" lon="-0.42487">
        <ele>518</ele>
        <time>2022-01-14T20:48:21Z</time>
      </trkpt>
      <trkpt lat="42.98812" lon="-0.42442">
        <ele>518</ele>
        <time>2022-01-14T20:48:29Z</time>
      </trkpt>
      <trkpt lat="42.98815" lon="-0.42252">
        <ele>509</ele>
        <time>2022-01-14T20:49:01Z</time>
      </trkpt>
      <trkpt lat="42.9883" lon="-0.42227">
        <ele>508</ele>
        <time>2022-01-14T20:49:07Z</time>
      </trkpt>
      <trkpt lat="42.98848" lon="-0.42225">
        <ele>508</ele>
        <time>2022-01-14T20:49:11Z</time>
      </trkpt>
      <trkpt lat="42.9888" lon="-0.42238">
        <ele>507</ele>
        <time>2022-01-14T20:49:19Z</time>
      </trkpt>
      <trkpt lat="42.98943" lon="-0.42255">
        <ele>506</ele>
        <time>2022-01-14T20:49:34Z</time>
      </trkpt>
      <trkpt lat="42.98985" lon="-0.42262">
        <ele>505</ele>
        <time>2022-01-14T20:49:44Z</time>
      </trkpt>
      <trkpt lat="42.99019" lon="-0.42243">
        <ele>504</ele>
        <time>2022-01-14T20:49:52Z</time>
      </trkpt>
      <trkpt lat="42.99052" lon="-0.42219">
        <ele>504</ele>
        <time>2022-01-14T20:50:01Z</time>
      </trkpt>
      <trkpt lat="42.99081" lon="-0.42211">
        <ele>503</ele>
        <time>2022-01-14T20:50:08Z</time>
      </trkpt>
      <trkpt lat="42.99147" lon="-0.42228">
        <ele>502</ele>
        <time>2022-01-14T20:50:24Z</time>
      </trkpt>
      <trkpt lat="42.99239" lon="-0.42247">
        <ele>499</ele>
        <time>2022-01-14T20:50:45Z</time>
      </trkpt>
      <trkpt lat="42.99268" lon="-0.42245">
        <ele>499</ele>
        <time>2022-01-14T20:50:52Z</time>
      </trkpt>
      <trkpt lat="42.99334" lon="-0.42232">
        <ele>498</ele>
        <time>2022-01-14T20:51:08Z</time>
      </trkpt>
      <trkpt lat="42.99653" lon="-0.42194">
        <ele>490</ele>
        <time>2022-01-14T20:52:23Z</time>
      </trkpt>
      <trkpt lat="42.99709" lon="-0.42183">
        <ele>488</ele>
        <time>2022-01-14T20:52:36Z</time>
      </trkpt>
      <trkpt lat="42.99765" lon="-0.42165">
        <ele>486</ele>
        <time>2022-01-14T20:52:49Z</time>
      </trkpt>
      <trkpt lat="42.99886" lon="-0.42111">
        <ele>488</ele>
        <time>2022-01-14T20:53:19Z</time>
      </trkpt>
      <trkpt lat="43.00069" lon="-0.42035">
        <ele>487</ele>
        <time>2022-01-14T20:54:04Z</time>
      </trkpt>
      <trkpt lat="43.00126" lon="-0.42014">
        <ele>487</ele>
        <time>2022-01-14T20:54:17Z</time>
      </trkpt>
      <trkpt lat="43.00177" lon="-0.42008">
        <ele>489</ele>
        <time>2022-01-14T20:54:29Z</time>
      </trkpt>
      <trkpt lat="43.0022" lon="-0.42013">
        <ele>485</ele>
        <time>2022-01-14T20:54:39Z</time>
      </trkpt>
      <trkpt lat="43.00238" lon="-0.42019">
        <ele>484</ele>
        <time>2022-01-14T20:54:44Z</time>
      </trkpt>
      <trkpt lat="43.00276" lon="-0.42037">
        <ele>483</ele>
        <time>2022-01-14T20:54:53Z</time>
      </trkpt>
      <trkpt lat="43.00443" lon="-0.42132">
        <ele>483</ele>
        <time>2022-01-14T20:55:35Z</time>
      </trkpt>
      <trkpt lat="43.00477" lon="-0.42147">
        <ele>487</ele>
        <time>2022-01-14T20:55:44Z</time>
      </trkpt>
      <trkpt lat="43.00508" lon="-0.42155">
        <ele>491</ele>
        <time>2022-01-14T20:55:51Z</time>
      </trkpt>
      <trkpt lat="43.00547" lon="-0.42154">
        <ele>495</ele>
        <time>2022-01-14T20:56:00Z</time>
      </trkpt>
      <trkpt lat="43.00584" lon="-0.42144">
        <ele>496</ele>
        <time>2022-01-14T20:56:09Z</time>
      </trkpt>
      <trkpt lat="43.0063" lon="-0.42116">
        <ele>496</ele>
        <time>2022-01-14T20:56:21Z</time>
      </trkpt>
      <trkpt lat="43.00685" lon="-0.42092">
        <ele>490</ele>
        <time>2022-01-14T20:56:34Z</time>
      </trkpt>
      <trkpt lat="43.00733" lon="-0.42085">
        <ele>487</ele>
        <time>2022-01-14T20:56:45Z</time>
      </trkpt>
      <trkpt lat="43.00782" lon="-0.42088">
        <ele>486</ele>
        <time>2022-01-14T20:56:57Z</time>
      </trkpt>
      <trkpt lat="43.00814" lon="-0.42096">
        <ele>486</ele>
        <time>2022-01-14T20:57:05Z</time>
      </trkpt>
      <trkpt lat="43.0087" lon="-0.42121">
        <ele>485</ele>
        <time>2022-01-14T20:57:18Z</time>
      </trkpt>
      <trkpt lat="43.00965" lon="-0.42182">
        <ele>479</ele>
        <time>2022-01-14T20:57:43Z</time>
      </trkpt>
      <trkpt lat="43.01021" lon="-0.42213">
        <ele>477</ele>
        <time>2022-01-14T20:57:57Z</time>
      </trkpt>
      <trkpt lat="43.01179" lon="-0.42285">
        <ele>475</ele>
        <time>2022-01-14T20:58:36Z</time>
      </trkpt>
      <trkpt lat="43.01195" lon="-0.42291">
        <ele>476</ele>
        <time>2022-01-14T20:58:40Z</time>
      </trkpt>
      <trkpt lat="43.01251" lon="-0.42304">
        <ele>475</ele>
        <time>2022-01-14T20:58:53Z</time>
      </trkpt>
      <trkpt lat="43.01445" lon="-0.42307">
        <ele>477</ele>
        <time>2022-01-14T20:59:38Z</time>
      </trkpt>
      <trkpt lat="43.01496" lon="-0.423">
        <ele>479</ele>
        <time>2022-01-14T20:59:50Z</time>
      </trkpt>
      <trkpt lat="43.01557" lon="-0.42299">
        <ele>478</ele>
        <time>2022-01-14T21:00:04Z</time>
      </trkpt>
      <trkpt lat="43.01673" lon="-0.42303">
        <ele>475</ele>
        <time>2022-01-14T21:00:32Z</time>
      </trkpt>
      <trkpt lat="43.01846" lon="-0.42316">
        <ele>469</ele>
        <time>2022-01-14T21:01:12Z</time>
      </trkpt>
      <trkpt lat="43.01886" lon="-0.42314">
        <ele>467</ele>
        <time>2022-01-14T21:01:21Z</time>
      </trkpt>
      <trkpt lat="43.02042" lon="-0.42288">
        <ele>463</ele>
        <time>2022-01-14T21:01:58Z</time>
      </trkpt>
      <trkpt lat="43.02292" lon="-0.42194">
        <ele>460</ele>
        <time>2022-01-14T21:02:59Z</time>
      </trkpt>
      <trkpt lat="43.0236" lon="-0.42185">
        <ele>461</ele>
        <time>2022-01-14T21:03:15Z</time>
      </trkpt>
      <trkpt lat="43.02391" lon="-0.42163">
        <ele>462</ele>
        <time>2022-01-14T21:03:23Z</time>
      </trkpt>
      <trkpt lat="43.02396" lon="-0.42156">
        <ele>462</ele>
        <time>2022-01-14T21:03:24Z</time>
      </trkpt>
      <trkpt lat="43.02416" lon="-0.4215">
        <ele>462</ele>
        <time>2022-01-14T21:03:29Z</time>
      </trkpt>
      <trkpt lat="43.02436" lon="-0.42158">
        <ele>462</ele>
        <time>2022-01-14T21:03:34Z</time>
      </trkpt>
      <trkpt lat="43.02497" lon="-0.42154">
        <ele>461</ele>
        <time>2022-01-14T21:03:48Z</time>
      </trkpt>
      <trkpt lat="43.02552" lon="-0.42155">
        <ele>461</ele>
        <time>2022-01-14T21:04:01Z</time>
      </trkpt>
      <trkpt lat="43.02771" lon="-0.42165">
        <ele>457</ele>
        <time>2022-01-14T21:04:52Z</time>
      </trkpt>
      <trkpt lat="43.03115" lon="-0.42176">
        <ele>455</ele>
        <time>2022-01-14T21:06:13Z</time>
      </trkpt>
      <trkpt lat="43.03236" lon="-0.42183">
        <ele>453</ele>
        <time>2022-01-14T21:06:41Z</time>
      </trkpt>
      <trkpt lat="43.03293" lon="-0.42189">
        <ele>453</ele>
        <time>2022-01-14T21:06:54Z</time>
      </trkpt>
      <trkpt lat="43.03336" lon="-0.42197">
        <ele>453</ele>
        <time>2022-01-14T21:07:04Z</time>
      </trkpt>
      <trkpt lat="43.03386" lon="-0.42213">
        <ele>454</ele>
        <time>2022-01-14T21:07:16Z</time>
      </trkpt>
      <trkpt lat="43.0365" lon="-0.42305">
        <ele>451</ele>
        <time>2022-01-14T21:08:20Z</time>
      </trkpt>
      <trkpt lat="43.03685" lon="-0.42324">
        <ele>451</ele>
        <time>2022-01-14T21:08:29Z</time>
      </trkpt>
      <trkpt lat="43.03715" lon="-0.42329">
        <ele>450</ele>
        <time>2022-01-14T21:08:36Z</time>
      </trkpt>
      <trkpt lat="43.03749" lon="-0.42349">
        <ele>449</ele>
        <time>2022-01-14T21:08:45Z</time>
      </trkpt>
      <trkpt lat="43.03772" lon="-0.42352">
        <ele>448</ele>
        <time>2022-01-14T21:08:50Z</time>
      </trkpt>
      <trkpt lat="43.03823" lon="-0.42367">
        <ele>447</ele>
        <time>2022-01-14T21:09:02Z</time>
      </trkpt>
      <trkpt lat="43.03852" lon="-0.42379">
        <ele>447</ele>
        <time>2022-01-14T21:09:09Z</time>
      </trkpt>
      <trkpt lat="43.04108" lon="-0.42466">
        <ele>446</ele>
        <time>2022-01-14T21:10:11Z</time>
      </trkpt>
      <trkpt lat="43.04208" lon="-0.42503">
        <ele>442</ele>
        <time>2022-01-14T21:10:35Z</time>
      </trkpt>
      <trkpt lat="43.04343" lon="-0.42547">
        <ele>441</ele>
        <time>2022-01-14T21:11:07Z</time>
      </trkpt>
      <trkpt lat="43.04446" lon="-0.42587">
        <ele>441</ele>
        <time>2022-01-14T21:11:32Z</time>
      </trkpt>
      <trkpt lat="43.04674" lon="-0.42666">
        <ele>437</ele>
        <time>2022-01-14T21:12:27Z</time>
      </trkpt>
      <trkpt lat="43.04795" lon="-0.42703">
        <ele>436</ele>
        <time>2022-01-14T21:12:56Z</time>
      </trkpt>
      <trkpt lat="43.04852" lon="-0.42713">
        <ele>436</ele>
        <time>2022-01-14T21:13:10Z</time>
      </trkpt>
      <trkpt lat="43.04911" lon="-0.42716">
        <ele>436</ele>
        <time>2022-01-14T21:13:24Z</time>
      </trkpt>
      <trkpt lat="43.04954" lon="-0.42713">
        <ele>436</ele>
        <time>2022-01-14T21:13:34Z</time>
      </trkpt>
      <trkpt lat="43.05078" lon="-0.42694">
        <ele>437</ele>
        <time>2022-01-14T21:14:03Z</time>
      </trkpt>
      <trkpt lat="43.05193" lon="-0.42681">
        <ele>441</ele>
        <time>2022-01-14T21:14:30Z</time>
      </trkpt>
      <trkpt lat="43.05537" lon="-0.42657">
        <ele>440</ele>
        <time>2022-01-14T21:15:50Z</time>
      </trkpt>
      <trkpt lat="43.05757" lon="-0.42638">
        <ele>439</ele>
        <time>2022-01-14T21:16:42Z</time>
      </trkpt>
      <trkpt lat="43.05815" lon="-0.4264">
        <ele>439</ele>
        <time>2022-01-14T21:16:55Z</time>
      </trkpt>
      <trkpt lat="43.05872" lon="-0.42653">
        <ele>440</ele>
        <time>2022-01-14T21:17:09Z</time>
      </trkpt>
      <trkpt lat="43.05947" lon="-0.42681">
        <ele>440</ele>
        <time>2022-01-14T21:17:27Z</time>
      </trkpt>
      <trkpt lat="43.05972" lon="-0.42688">
        <ele>440</ele>
        <time>2022-01-14T21:17:33Z</time>
      </trkpt>
      <trkpt lat="43.06039" lon="-0.42682">
        <ele>438</ele>
        <time>2022-01-14T21:17:48Z</time>
      </trkpt>
      <trkpt lat="43.06063" lon="-0.42666">
        <ele>436</ele>
        <time>2022-01-14T21:17:55Z</time>
      </trkpt>
      <trkpt lat="43.0611" lon="-0.42623">
        <ele>434</ele>
        <time>2022-01-14T21:18:08Z</time>
      </trkpt>
      <trkpt lat="43.06166" lon="-0.42559">
        <ele>433</ele>
        <time>2022-01-14T21:18:25Z</time>
      </trkpt>
      <trkpt lat="43.06284" lon="-0.42477">
        <ele>430</ele>
        <time>2022-01-14T21:18:56Z</time>
      </trkpt>
      <trkpt lat="43.06331" lon="-0.42454">
        <ele>430</ele>
        <time>2022-01-14T21:19:07Z</time>
      </trkpt>
      <trkpt lat="43.06367" lon="-0.42447">
        <ele>431</ele>
        <time>2022-01-14T21:19:16Z</time>
      </trkpt>
      <trkpt lat="43.06407" lon="-0.42445">
        <ele>433</ele>
        <time>2022-01-14T21:19:25Z</time>
      </trkpt>
      <trkpt lat="43.06453" lon="-0.42439">
        <ele>433</ele>
        <time>2022-01-14T21:19:36Z</time>
      </trkpt>
      <trkpt lat="43.06602" lon="-0.42399">
        <ele>434</ele>
        <time>2022-01-14T21:20:12Z</time>
      </trkpt>
      <trkpt lat="43.06656" lon="-0.42375">
        <ele>434</ele>
        <time>2022-01-14T21:20:25Z</time>
      </trkpt>
      <trkpt lat="43.06747" lon="-0.42317">
        <ele>430</ele>
        <time>2022-01-14T21:20:48Z</time>
      </trkpt>
      <trkpt lat="43.068" lon="-0.42279">
        <ele>430</ele>
        <time>2022-01-14T21:21:02Z</time>
      </trkpt>
      <trkpt lat="43.06851" lon="-0.42246">
        <ele>430</ele>
        <time>2022-01-14T21:21:15Z</time>
      </trkpt>
      <trkpt lat="43.06894" lon="-0.42229">
        <ele>435</ele>
        <time>2022-01-14T21:21:26Z</time>
      </trkpt>
      <trkpt lat="43.06949" lon="-0.42225">
        <ele>436</ele>
        <time>2022-01-14T21:21:39Z</time>
      </trkpt>
      <trkpt lat="43.0703" lon="-0.42238">
        <ele>435</ele>
        <time>2022-01-14T21:21:58Z</time>
      </trkpt>
      <trkpt lat="43.07083" lon="-0.42241">
        <ele>435</ele>
        <time>2022-01-14T21:22:10Z</time>
      </trkpt>
      <trkpt lat="43.07126" lon="-0.42234">
        <ele>436</ele>
        <time>2022-01-14T21:22:20Z</time>
      </trkpt>
      <trkpt lat="43.07161" lon="-0.42216">
        <ele>436</ele>
        <time>2022-01-14T21:22:29Z</time>
      </trkpt>
      <trkpt lat="43.07257" lon="-0.42137">
        <ele>432</ele>
        <time>2022-01-14T21:22:55Z</time>
      </trkpt>
      <trkpt lat="43.07271" lon="-0.42129">
        <ele>432</ele>
        <time>2022-01-14T21:22:59Z</time>
      </trkpt>
      <trkpt lat="43.07332" lon="-0.42104">
        <ele>433</ele>
        <time>2022-01-14T21:23:14Z</time>
      </trkpt>
      <trkpt lat="43.07386" lon="-0.42095">
        <ele>433</ele>
        <time>2022-01-14T21:23:26Z</time>
      </trkpt>
      <trkpt lat="43.07436" lon="-0.42104">
        <ele>434</ele>
        <time>2022-01-14T21:23:38Z</time>
      </trkpt>
      <trkpt lat="43.0759" lon="-0.42149">
        <ele>434</ele>
        <time>2022-01-14T21:24:15Z</time>
      </trkpt>
      <trkpt lat="43.07607" lon="-0.42151">
        <ele>434</ele>
        <time>2022-01-14T21:24:19Z</time>
      </trkpt>
      <trkpt lat="43.07659" lon="-0.42151">
        <ele>431</ele>
        <time>2022-01-14T21:24:31Z</time>
      </trkpt>
      <trkpt lat="43.07721" lon="-0.4214">
        <ele>429</ele>
        <time>2022-01-14T21:24:46Z</time>
      </trkpt>
      <trkpt lat="43.07813" lon="-0.42116">
        <ele>430</ele>
        <time>2022-01-14T21:25:07Z</time>
      </trkpt>
      <trkpt lat="43.07852" lon="-0.42113">
        <ele>430</ele>
        <time>2022-01-14T21:25:17Z</time>
      </trkpt>
      <trkpt lat="43.07905" lon="-0.42115">
        <ele>429</ele>
        <time>2022-01-14T21:25:29Z</time>
      </trkpt>
      <trkpt lat="43.08056" lon="-0.42143">
        <ele>434</ele>
        <time>2022-01-14T21:26:04Z</time>
      </trkpt>
      <trkpt lat="43.08123" lon="-0.4216">
        <ele>430</ele>
        <time>2022-01-14T21:26:20Z</time>
      </trkpt>
      <trkpt lat="43.08176" lon="-0.4218">
        <ele>425</ele>
        <time>2022-01-14T21:26:33Z</time>
      </trkpt>
      <trkpt lat="43.08246" lon="-0.42216">
        <ele>422</ele>
        <time>2022-01-14T21:26:51Z</time>
      </trkpt>
      <trkpt lat="43.08353" lon="-0.42281">
        <ele>421</ele>
        <time>2022-01-14T21:27:18Z</time>
      </trkpt>
      <trkpt lat="43.08454" lon="-0.42348">
        <ele>422</ele>
        <time>2022-01-14T21:27:44Z</time>
      </trkpt>
      <trkpt lat="43.08496" lon="-0.4235">
        <ele>422</ele>
        <time>2022-01-14T21:27:54Z</time>
      </trkpt>
      <trkpt lat="43.08507" lon="-0.42369">
        <ele>422</ele>
        <time>2022-01-14T21:27:58Z</time>
      </trkpt>
      <trkpt lat="43.08503" lon="-0.42411">
        <ele>422</ele>
        <time>2022-01-14T21:28:05Z</time>
      </trkpt>
      <trkpt lat="43.08517" lon="-0.42461">
        <ele>422</ele>
        <time>2022-01-14T21:28:15Z</time>
      </trkpt>
      <trkpt lat="43.08554" lon="-0.42517">
        <ele>424</ele>
        <time>2022-01-14T21:28:27Z</time>
      </trkpt>
      <trkpt lat="43.08583" lon="-0.42543">
        <ele>428</ele>
        <time>2022-01-14T21:28:36Z</time>
      </trkpt>
      <trkpt lat="43.08606" lon="-0.42559">
        <ele>432</ele>
        <time>2022-01-14T21:28:42Z</time>
      </trkpt>
      <trkpt lat="43.08646" lon="-0.42574">
        <ele>440</ele>
        <time>2022-01-14T21:28:51Z</time>
      </trkpt>
      <trkpt lat="43.08713" lon="-0.42577">
        <ele>441</ele>
        <time>2022-01-14T21:29:07Z</time>
      </trkpt>
      <trkpt lat="43.08772" lon="-0.4259">
        <ele>439</ele>
        <time>2022-01-14T21:29:21Z</time>
      </trkpt>
      <trkpt lat="43.08807" lon="-0.42607">
        <ele>438</ele>
        <time>2022-01-14T21:29:30Z</time>
      </trkpt>
      <trkpt lat="43.08853" lon="-0.42642">
        <ele>438</ele>
        <time>2022-01-14T21:29:42Z</time>
      </trkpt>
      <trkpt lat="43.08867" lon="-0.42656">
        <ele>439</ele>
        <time>2022-01-14T21:29:46Z</time>
      </trkpt>
      <trkpt lat="43.08904" lon="-0.42703">
        <ele>436</ele>
        <time>2022-01-14T21:29:58Z</time>
      </trkpt>
      <trkpt lat="43.08945" lon="-0.42759">
        <ele>433</ele>
        <time>2022-01-14T21:30:11Z</time>
      </trkpt>
      <trkpt lat="43.09014" lon="-0.42906">
        <ele>423</ele>
        <time>2022-01-14T21:30:41Z</time>
      </trkpt>
      <trkpt lat="43.09039" lon="-0.42939">
        <ele>421</ele>
        <time>2022-01-14T21:30:49Z</time>
      </trkpt>
      <trkpt lat="43.09057" lon="-0.42958">
        <ele>420</ele>
        <time>2022-01-14T21:30:54Z</time>
      </trkpt>
      <trkpt lat="43.09087" lon="-0.43005">
        <ele>420</ele>
        <time>2022-01-14T21:31:05Z</time>
      </trkpt>
      <trkpt lat="43.09141" lon="-0.43054">
        <ele>419</ele>
        <time>2022-01-14T21:31:20Z</time>
      </trkpt>
      <trkpt lat="43.09203" lon="-0.43095">
        <ele>419</ele>
        <time>2022-01-14T21:31:36Z</time>
      </trkpt>
      <trkpt lat="43.09246" lon="-0.43127">
        <ele>419</ele>
        <time>2022-01-14T21:31:48Z</time>
      </trkpt>
      <trkpt lat="43.09292" lon="-0.43173">
        <ele>419</ele>
        <time>2022-01-14T21:32:01Z</time>
      </trkpt>
      <trkpt lat="43.09327" lon="-0.432">
        <ele>418</ele>
        <time>2022-01-14T21:32:10Z</time>
      </trkpt>
      <trkpt lat="43.09355" lon="-0.4322">
        <ele>417</ele>
        <time>2022-01-14T21:32:18Z</time>
      </trkpt>
      <trkpt lat="43.09397" lon="-0.43243">
        <ele>416</ele>
        <time>2022-01-14T21:32:28Z</time>
      </trkpt>
      <trkpt lat="43.09465" lon="-0.43268">
        <ele>416</ele>
        <time>2022-01-14T21:32:45Z</time>
      </trkpt>
      <trkpt lat="43.09516" lon="-0.43277">
        <ele>416</ele>
        <time>2022-01-14T21:32:57Z</time>
      </trkpt>
      <trkpt lat="43.09866" lon="-0.43305">
        <ele>421</ele>
        <time>2022-01-14T21:34:19Z</time>
      </trkpt>
      <trkpt lat="43.09922" lon="-0.43315">
        <ele>418</ele>
        <time>2022-01-14T21:34:32Z</time>
      </trkpt>
      <trkpt lat="43.10039" lon="-0.43349">
        <ele>417</ele>
        <time>2022-01-14T21:35:00Z</time>
      </trkpt>
      <trkpt lat="43.10068" lon="-0.43346">
        <ele>417</ele>
        <time>2022-01-14T21:35:07Z</time>
      </trkpt>
      <trkpt lat="43.1008" lon="-0.43342">
        <ele>417</ele>
        <time>2022-01-14T21:35:09Z</time>
      </trkpt>
      <trkpt lat="43.10094" lon="-0.43354">
        <ele>417</ele>
        <time>2022-01-14T21:35:13Z</time>
      </trkpt>
      <trkpt lat="43.10099" lon="-0.43396">
        <ele>415</ele>
        <time>2022-01-14T21:35:21Z</time>
      </trkpt>
      <trkpt lat="43.10116" lon="-0.43426">
        <ele>413</ele>
        <time>2022-01-14T21:35:27Z</time>
      </trkpt>
      <trkpt lat="43.10177" lon="-0.43462">
        <ele>414</ele>
        <time>2022-01-14T21:35:43Z</time>
      </trkpt>
      <trkpt lat="43.10198" lon="-0.4348">
        <ele>415</ele>
        <time>2022-01-14T21:35:48Z</time>
      </trkpt>
      <trkpt lat="43.10233" lon="-0.43494">
        <ele>416</ele>
        <time>2022-01-14T21:35:57Z</time>
      </trkpt>
      <trkpt lat="43.10306" lon="-0.435">
        <ele>415</ele>
        <time>2022-01-14T21:36:14Z</time>
      </trkpt>
      <trkpt lat="43.10404" lon="-0.43535">
        <ele>413</ele>
        <time>2022-01-14T21:36:38Z</time>
      </trkpt>
      <trkpt lat="43.1044" lon="-0.43551">
        <ele>414</ele>
        <time>2022-01-14T21:36:46Z</time>
      </trkpt>
      <trkpt lat="43.10468" lon="-0.43556">
        <ele>414</ele>
        <time>2022-01-14T21:36:53Z</time>
      </trkpt>
      <trkpt lat="43.10517" lon="-0.43571">
        <ele>415</ele>
        <time>2022-01-14T21:37:05Z</time>
      </trkpt>
      <trkpt lat="43.10576" lon="-0.43582">
        <ele>414</ele>
        <time>2022-01-14T21:37:19Z</time>
      </trkpt>
      <trkpt lat="43.1061" lon="-0.43582">
        <ele>414</ele>
        <time>2022-01-14T21:37:27Z</time>
      </trkpt>
      <trkpt lat="43.10639" lon="-0.43588">
        <ele>415</ele>
        <time>2022-01-14T21:37:33Z</time>
      </trkpt>
      <trkpt lat="43.10656" lon="-0.43589">
        <ele>415</ele>
        <time>2022-01-14T21:37:37Z</time>
      </trkpt>
      <trkpt lat="43.10671" lon="-0.43586">
        <ele>415</ele>
        <time>2022-01-14T21:37:41Z</time>
      </trkpt>
      <trkpt lat="43.10726" lon="-0.4356">
        <ele>414</ele>
        <time>2022-01-14T21:37:54Z</time>
      </trkpt>
      <trkpt lat="43.10749" lon="-0.43552">
        <ele>414</ele>
        <time>2022-01-14T21:38:00Z</time>
      </trkpt>
      <trkpt lat="43.10781" lon="-0.43544">
        <ele>412</ele>
        <time>2022-01-14T21:38:08Z</time>
      </trkpt>
      <trkpt lat="43.10833" lon="-0.43537">
        <ele>411</ele>
        <time>2022-01-14T21:38:20Z</time>
      </trkpt>
      <trkpt lat="43.10848" lon="-0.43539">
        <ele>411</ele>
        <time>2022-01-14T21:38:23Z</time>
      </trkpt>
      <trkpt lat="43.10982" lon="-0.43586">
        <ele>404</ele>
        <time>2022-01-14T21:38:56Z</time>
      </trkpt>
      <trkpt lat="43.10991" lon="-0.43591">
        <ele>404</ele>
        <time>2022-01-14T21:38:58Z</time>
      </trkpt>
      <trkpt lat="43.11014" lon="-0.43617">
        <ele>401</ele>
        <time>2022-01-14T21:39:05Z</time>
      </trkpt>
      <trkpt lat="43.11018" lon="-0.4363">
        <ele>401</ele>
        <time>2022-01-14T21:39:07Z</time>
      </trkpt>
      <trkpt lat="43.11021" lon="-0.4369">
        <ele>400</ele>
        <time>2022-01-14T21:39:18Z</time>
      </trkpt>
      <trkpt lat="43.11042" lon="-0.43727">
        <ele>398</ele>
        <time>2022-01-14T21:39:26Z</time>
      </trkpt>
      <trkpt lat="43.1105" lon="-0.43736">
        <ele>398</ele>
        <time>2022-01-14T21:39:28Z</time>
      </trkpt>
      <trkpt lat="43.11078" lon="-0.43754">
        <ele>398</ele>
        <time>2022-01-14T21:39:35Z</time>
      </trkpt>
      <trkpt lat="43.111" lon="-0.43757">
        <ele>398</ele>
        <time>2022-01-14T21:39:40Z</time>
      </trkpt>
      <trkpt lat="43.11156" lon="-0.43744">
        <ele>397</ele>
        <time>2022-01-14T21:39:54Z</time>
      </trkpt>
      <trkpt lat="43.11212" lon="-0.43739">
        <ele>397</ele>
        <time>2022-01-14T21:40:07Z</time>
      </trkpt>
      <trkpt lat="43.11316" lon="-0.43723">
        <ele>399</ele>
        <time>2022-01-14T21:40:31Z</time>
      </trkpt>
      <trkpt lat="43.11356" lon="-0.43725">
        <ele>400</ele>
        <time>2022-01-14T21:40:41Z</time>
      </trkpt>
      <trkpt lat="43.11452" lon="-0.43744">
        <ele>402</ele>
        <time>2022-01-14T21:41:03Z</time>
      </trkpt>
      <trkpt lat="43.1147" lon="-0.43754">
        <ele>403</ele>
        <time>2022-01-14T21:41:08Z</time>
      </trkpt>
      <trkpt lat="43.11495" lon="-0.43776">
        <ele>405</ele>
        <time>2022-01-14T21:41:15Z</time>
      </trkpt>
      <trkpt lat="43.11512" lon="-0.43784">
        <ele>406</ele>
        <time>2022-01-14T21:41:19Z</time>
      </trkpt>
      <trkpt lat="43.11535" lon="-0.43804">
        <ele>408</ele>
        <time>2022-01-14T21:41:25Z</time>
      </trkpt>
      <trkpt lat="43.11566" lon="-0.43817">
        <ele>408</ele>
        <time>2022-01-14T21:41:33Z</time>
      </trkpt>
      <trkpt lat="43.11585" lon="-0.43815">
        <ele>407</ele>
        <time>2022-01-14T21:41:37Z</time>
      </trkpt>
      <trkpt lat="43.11653" lon="-0.43793">
        <ele>403</ele>
        <time>2022-01-14T21:41:54Z</time>
      </trkpt>
      <trkpt lat="43.11673" lon="-0.43793">
        <ele>402</ele>
        <time>2022-01-14T21:41:58Z</time>
      </trkpt>
      <trkpt lat="43.11691" lon="-0.43802">
        <ele>403</ele>
        <time>2022-01-14T21:42:03Z</time>
      </trkpt>
      <trkpt lat="43.11744" lon="-0.43851">
        <ele>408</ele>
        <time>2022-01-14T21:42:18Z</time>
      </trkpt>
      <trkpt lat="43.11782" lon="-0.43874">
        <ele>411</ele>
        <time>2022-01-14T21:42:27Z</time>
      </trkpt>
      <trkpt lat="43.1182" lon="-0.43901">
        <ele>411</ele>
        <time>2022-01-14T21:42:37Z</time>
      </trkpt>
      <trkpt lat="43.11868" lon="-0.43944">
        <ele>410</ele>
        <time>2022-01-14T21:42:51Z</time>
      </trkpt>
      <trkpt lat="43.11884" lon="-0.43966">
        <ele>411</ele>
        <time>2022-01-14T21:42:56Z</time>
      </trkpt>
      <trkpt lat="43.11922" lon="-0.43997">
        <ele>411</ele>
        <time>2022-01-14T21:43:06Z</time>
      </trkpt>
      <trkpt lat="43.11949" lon="-0.44009">
        <ele>412</ele>
        <time>2022-01-14T21:43:13Z</time>
      </trkpt>
      <trkpt lat="43.11983" lon="-0.44039">
        <ele>416</ele>
        <time>2022-01-14T21:43:22Z</time>
      </trkpt>
      <trkpt lat="43.12007" lon="-0.44071">
        <ele>419</ele>
        <time>2022-01-14T21:43:30Z</time>
      </trkpt>
      <trkpt lat="43.12049" lon="-0.44104">
        <ele>423</ele>
        <time>2022-01-14T21:43:42Z</time>
      </trkpt>
      <trkpt lat="43.12093" lon="-0.44118">
        <ele>421</ele>
        <time>2022-01-14T21:43:52Z</time>
      </trkpt>
      <trkpt lat="43.12106" lon="-0.4412">
        <ele>420</ele>
        <time>2022-01-14T21:43:55Z</time>
      </trkpt>
      <trkpt lat="43.12155" lon="-0.44137">
        <ele>418</ele>
        <time>2022-01-14T21:44:07Z</time>
      </trkpt>
      <trkpt lat="43.12228" lon="-0.44177">
        <ele>421</ele>
        <time>2022-01-14T21:44:25Z</time>
      </trkpt>
      <trkpt lat="43.12272" lon="-0.44196">
        <ele>423</ele>
        <time>2022-01-14T21:44:36Z</time>
      </trkpt>
      <trkpt lat="43.12342" lon="-0.44206">
        <ele>421</ele>
        <time>2022-01-14T21:44:52Z</time>
      </trkpt>
      <trkpt lat="43.12377" lon="-0.44216">
        <ele>421</ele>
        <time>2022-01-14T21:45:01Z</time>
      </trkpt>
      <trkpt lat="43.12424" lon="-0.44241">
        <ele>422</ele>
        <time>2022-01-14T21:45:13Z</time>
      </trkpt>
      <trkpt lat="43.12486" lon="-0.44266">
        <ele>426</ele>
        <time>2022-01-14T21:45:28Z</time>
      </trkpt>
      <trkpt lat="43.12502" lon="-0.44278">
        <ele>427</ele>
        <time>2022-01-14T21:45:32Z</time>
      </trkpt>
      <trkpt lat="43.1254" lon="-0.44294">
        <ele>429</ele>
        <time>2022-01-14T21:45:41Z</time>
      </trkpt>
      <trkpt lat="43.12585" lon="-0.44298">
        <ele>429</ele>
        <time>2022-01-14T21:45:52Z</time>
      </trkpt>
      <trkpt lat="43.12625" lon="-0.44296">
        <ele>428</ele>
        <time>2022-01-14T21:46:01Z</time>
      </trkpt>
      <trkpt lat="43.12656" lon="-0.44291">
        <ele>426</ele>
        <time>2022-01-14T21:46:08Z</time>
      </trkpt>
      <trkpt lat="43.12687" lon="-0.44294">
        <ele>425</ele>
        <time>2022-01-14T21:46:16Z</time>
      </trkpt>
      <trkpt lat="43.12773" lon="-0.44364">
        <ele>423</ele>
        <time>2022-01-14T21:46:39Z</time>
      </trkpt>
      <trkpt lat="43.12807" lon="-0.44379">
        <ele>423</ele>
        <time>2022-01-14T21:46:47Z</time>
      </trkpt>
      <trkpt lat="43.12892" lon="-0.44377">
        <ele>422</ele>
        <time>2022-01-14T21:47:07Z</time>
      </trkpt>
      <trkpt lat="43.12912" lon="-0.44385">
        <ele>422</ele>
        <time>2022-01-14T21:47:12Z</time>
      </trkpt>
      <trkpt lat="43.12942" lon="-0.44414">
        <ele>419</ele>
        <time>2022-01-14T21:47:21Z</time>
      </trkpt>
      <trkpt lat="43.12953" lon="-0.44436">
        <ele>417</ele>
        <time>2022-01-14T21:47:25Z</time>
      </trkpt>
      <trkpt lat="43.12962" lon="-0.44474">
        <ele>415</ele>
        <time>2022-01-14T21:47:32Z</time>
      </trkpt>
      <trkpt lat="43.12961" lon="-0.44531">
        <ele>412</ele>
        <time>2022-01-14T21:47:42Z</time>
      </trkpt>
      <trkpt lat="43.1297" lon="-0.44578">
        <ele>407</ele>
        <time>2022-01-14T21:47:50Z</time>
      </trkpt>
      <trkpt lat="43.13019" lon="-0.44709">
        <ele>399</ele>
        <time>2022-01-14T21:48:15Z</time>
      </trkpt>
      <trkpt lat="43.13056" lon="-0.44799">
        <ele>402</ele>
        <time>2022-01-14T21:48:33Z</time>
      </trkpt>
      <trkpt lat="43.1311" lon="-0.44953">
        <ele>394</ele>
        <time>2022-01-14T21:49:02Z</time>
      </trkpt>
      <trkpt lat="43.13122" lon="-0.44993">
        <ele>392</ele>
        <time>2022-01-14T21:49:09Z</time>
      </trkpt>
      <trkpt lat="43.13143" lon="-0.45032">
        <ele>388</ele>
        <time>2022-01-14T21:49:17Z</time>
      </trkpt>
      <trkpt lat="43.13154" lon="-0.45061">
        <ele>386</ele>
        <time>2022-01-14T21:49:23Z</time>
      </trkpt>
      <trkpt lat="43.13188" lon="-0.45266">
        <ele>384</ele>
        <time>2022-01-14T21:49:59Z</time>
      </trkpt>
      <trkpt lat="43.13195" lon="-0.45328">
        <ele>387</ele>
        <time>2022-01-14T21:50:10Z</time>
      </trkpt>
      <trkpt lat="43.132" lon="-0.4542">
        <ele>383</ele>
        <time>2022-01-14T21:50:25Z</time>
      </trkpt>
      <trkpt lat="43.13211" lon="-0.4546">
        <ele>381</ele>
        <time>2022-01-14T21:50:33Z</time>
      </trkpt>
      <trkpt lat="43.13231" lon="-0.45495">
        <ele>380</ele>
        <time>2022-01-14T21:50:40Z</time>
      </trkpt>
      <trkpt lat="43.1328" lon="-0.45602">
        <ele>376</ele>
        <time>2022-01-14T21:51:02Z</time>
      </trkpt>
      <trkpt lat="43.13295" lon="-0.45649">
        <ele>376</ele>
        <time>2022-01-14T21:51:10Z</time>
      </trkpt>
      <trkpt lat="43.13303" lon="-0.45706">
        <ele>375</ele>
        <time>2022-01-14T21:51:20Z</time>
      </trkpt>
      <trkpt lat="43.1332" lon="-0.45739">
        <ele>374</ele>
        <time>2022-01-14T21:51:27Z</time>
      </trkpt>
      <trkpt lat="43.13335" lon="-0.4576">
        <ele>373</ele>
        <time>2022-01-14T21:51:32Z</time>
      </trkpt>
      <trkpt lat="43.13363" lon="-0.45778">
        <ele>372</ele>
        <time>2022-01-14T21:51:39Z</time>
      </trkpt>
      <trkpt lat="43.13372" lon="-0.45779">
        <ele>372</ele>
        <time>2022-01-14T21:51:42Z</time>
      </trkpt>
      <trkpt lat="43.13411" lon="-0.45771">
        <ele>371</ele>
        <time>2022-01-14T21:51:51Z</time>
      </trkpt>
      <trkpt lat="43.1343" lon="-0.45775">
        <ele>371</ele>
        <time>2022-01-14T21:51:55Z</time>
      </trkpt>
      <trkpt lat="43.13444" lon="-0.4579">
        <ele>371</ele>
        <time>2022-01-14T21:51:59Z</time>
      </trkpt>
      <trkpt lat="43.13455" lon="-0.45811">
        <ele>370</ele>
        <time>2022-01-14T21:52:04Z</time>
      </trkpt>
      <trkpt lat="43.13464" lon="-0.45863">
        <ele>369</ele>
        <time>2022-01-14T21:52:13Z</time>
      </trkpt>
      <trkpt lat="43.13471" lon="-0.45889">
        <ele>369</ele>
        <time>2022-01-14T21:52:18Z</time>
      </trkpt>
      <trkpt lat="43.13476" lon="-0.45902">
        <ele>368</ele>
        <time>2022-01-14T21:52:20Z</time>
      </trkpt>
      <trkpt lat="43.13506" lon="-0.45957">
        <ele>366</ele>
        <time>2022-01-14T21:52:32Z</time>
      </trkpt>
      <trkpt lat="43.13522" lon="-0.46005">
        <ele>364</ele>
        <time>2022-01-14T21:52:41Z</time>
      </trkpt>
      <trkpt lat="43.13555" lon="-0.46089">
        <ele>364</ele>
        <time>2022-01-14T21:52:57Z</time>
      </trkpt>
      <trkpt lat="43.13603" lon="-0.46196">
        <ele>362</ele>
        <time>2022-01-14T21:53:18Z</time>
      </trkpt>
      <trkpt lat="43.13641" lon="-0.46303">
        <ele>360</ele>
        <time>2022-01-14T21:53:39Z</time>
      </trkpt>
      <trkpt lat="43.13693" lon="-0.46433">
        <ele>358</ele>
        <time>2022-01-14T21:54:04Z</time>
      </trkpt>
      <trkpt lat="43.13824" lon="-0.46782">
        <ele>353</ele>
        <time>2022-01-14T21:55:11Z</time>
      </trkpt>
      <trkpt lat="43.1388" lon="-0.46939">
        <ele>352</ele>
        <time>2022-01-14T21:55:41Z</time>
      </trkpt>
      <trkpt lat="43.13955" lon="-0.47138">
        <ele>350</ele>
        <time>2022-01-14T21:56:19Z</time>
      </trkpt>
      <trkpt lat="43.14018" lon="-0.47316">
        <ele>349</ele>
        <time>2022-01-14T21:56:53Z</time>
      </trkpt>
      <trkpt lat="43.14061" lon="-0.47419">
        <ele>347</ele>
        <time>2022-01-14T21:57:13Z</time>
      </trkpt>
      <trkpt lat="43.141" lon="-0.47502">
        <ele>346</ele>
        <time>2022-01-14T21:57:30Z</time>
      </trkpt>
      <trkpt lat="43.14124" lon="-0.47565">
        <ele>346</ele>
        <time>2022-01-14T21:57:42Z</time>
      </trkpt>
      <trkpt lat="43.1415" lon="-0.47665">
        <ele>345</ele>
        <time>2022-01-14T21:58:00Z</time>
      </trkpt>
      <trkpt lat="43.14213" lon="-0.47877">
        <ele>342</ele>
        <time>2022-01-14T21:58:39Z</time>
      </trkpt>
      <trkpt lat="43.14236" lon="-0.47947">
        <ele>342</ele>
        <time>2022-01-14T21:58:52Z</time>
      </trkpt>
      <trkpt lat="43.14266" lon="-0.48012">
        <ele>342</ele>
        <time>2022-01-14T21:59:05Z</time>
      </trkpt>
      <trkpt lat="43.14347" lon="-0.48146">
        <ele>339</ele>
        <time>2022-01-14T21:59:35Z</time>
      </trkpt>
      <trkpt lat="43.14372" lon="-0.48197">
        <ele>339</ele>
        <time>2022-01-14T21:59:45Z</time>
      </trkpt>
      <trkpt lat="43.14456" lon="-0.48495">
        <ele>337</ele>
        <time>2022-01-14T22:00:40Z</time>
      </trkpt>
      <trkpt lat="43.14593" lon="-0.48931">
        <ele>331</ele>
        <time>2022-01-14T22:02:00Z</time>
      </trkpt>
      <trkpt lat="43.1468" lon="-0.49164">
        <ele>329</ele>
        <time>2022-01-14T22:02:45Z</time>
      </trkpt>
      <trkpt lat="43.14812" lon="-0.49471">
        <ele>327</ele>
        <time>2022-01-14T22:03:46Z</time>
      </trkpt>
      <trkpt lat="43.14839" lon="-0.49543">
        <ele>327</ele>
        <time>2022-01-14T22:04:00Z</time>
      </trkpt>
      <trkpt lat="43.14905" lon="-0.49775">
        <ele>325</ele>
        <time>2022-01-14T22:04:42Z</time>
      </trkpt>
      <trkpt lat="43.14914" lon="-0.49799">
        <ele>324</ele>
        <time>2022-01-14T22:04:47Z</time>
      </trkpt>
      <trkpt lat="43.14973" lon="-0.49918">
        <ele>324</ele>
        <time>2022-01-14T22:05:11Z</time>
      </trkpt>
      <trkpt lat="43.14992" lon="-0.49948">
        <ele>323</ele>
        <time>2022-01-14T22:05:18Z</time>
      </trkpt>
      <trkpt lat="43.14997" lon="-0.4996">
        <ele>323</ele>
        <time>2022-01-14T22:05:20Z</time>
      </trkpt>
      <trkpt lat="43.15009" lon="-0.49996">
        <ele>323</ele>
        <time>2022-01-14T22:05:27Z</time>
      </trkpt>
      <trkpt lat="43.15038" lon="-0.50106">
        <ele>323</ele>
        <time>2022-01-14T22:05:47Z</time>
      </trkpt>
      <trkpt lat="43.15059" lon="-0.50146">
        <ele>322</ele>
        <time>2022-01-14T22:05:55Z</time>
      </trkpt>
      <trkpt lat="43.1508" lon="-0.5017">
        <ele>322</ele>
        <time>2022-01-14T22:06:02Z</time>
      </trkpt>
      <trkpt lat="43.15116" lon="-0.50218">
        <ele>321</ele>
        <time>2022-01-14T22:06:13Z</time>
      </trkpt>
      <trkpt lat="43.15161" lon="-0.5027">
        <ele>320</ele>
        <time>2022-01-14T22:06:27Z</time>
      </trkpt>
      <trkpt lat="43.15167" lon="-0.50279">
        <ele>320</ele>
        <time>2022-01-14T22:06:29Z</time>
      </trkpt>
      <trkpt lat="43.1518" lon="-0.5031">
        <ele>320</ele>
        <time>2022-01-14T22:06:35Z</time>
      </trkpt>
      <trkpt lat="43.15195" lon="-0.50385">
        <ele>320</ele>
        <time>2022-01-14T22:06:49Z</time>
      </trkpt>
      <trkpt lat="43.15223" lon="-0.50473">
        <ele>319</ele>
        <time>2022-01-14T22:07:05Z</time>
      </trkpt>
      <trkpt lat="43.15261" lon="-0.50554">
        <ele>317</ele>
        <time>2022-01-14T22:07:21Z</time>
      </trkpt>
      <trkpt lat="43.15286" lon="-0.50632">
        <ele>316</ele>
        <time>2022-01-14T22:07:36Z</time>
      </trkpt>
      <trkpt lat="43.1534" lon="-0.50765">
        <ele>316</ele>
        <time>2022-01-14T22:08:02Z</time>
      </trkpt>
      <trkpt lat="43.15359" lon="-0.50828">
        <ele>315</ele>
        <time>2022-01-14T22:08:13Z</time>
      </trkpt>
      <trkpt lat="43.15402" lon="-0.50924">
        <ele>315</ele>
        <time>2022-01-14T22:08:33Z</time>
      </trkpt>
      <trkpt lat="43.15413" lon="-0.50954">
        <ele>315</ele>
        <time>2022-01-14T22:08:38Z</time>
      </trkpt>
      <trkpt lat="43.15447" lon="-0.51075">
        <ele>313</ele>
        <time>2022-01-14T22:09:00Z</time>
      </trkpt>
      <trkpt lat="43.1547" lon="-0.51142">
        <ele>312</ele>
        <time>2022-01-14T22:09:13Z</time>
      </trkpt>
      <trkpt lat="43.15501" lon="-0.51255">
        <ele>311</ele>
        <time>2022-01-14T22:09:34Z</time>
      </trkpt>
      <trkpt lat="43.15523" lon="-0.51316">
        <ele>310</ele>
        <time>2022-01-14T22:09:45Z</time>
      </trkpt>
      <trkpt lat="43.15539" lon="-0.51371">
        <ele>310</ele>
        <time>2022-01-14T22:09:55Z</time>
      </trkpt>
      <trkpt lat="43.15597" lon="-0.5167">
        <ele>306</ele>
        <time>2022-01-14T22:10:48Z</time>
      </trkpt>
      <trkpt lat="43.15603" lon="-0.51692">
        <ele>307</ele>
        <time>2022-01-14T22:10:52Z</time>
      </trkpt>
      <trkpt lat="43.15721" lon="-0.5204">
        <ele>305</ele>
        <time>2022-01-14T22:11:57Z</time>
      </trkpt>
      <trkpt lat="43.15744" lon="-0.52102">
        <ele>304</ele>
        <time>2022-01-14T22:12:09Z</time>
      </trkpt>
      <trkpt lat="43.15765" lon="-0.52138">
        <ele>304</ele>
        <time>2022-01-14T22:12:17Z</time>
      </trkpt>
      <trkpt lat="43.15814" lon="-0.52208">
        <ele>304</ele>
        <time>2022-01-14T22:12:34Z</time>
      </trkpt>
      <trkpt lat="43.15844" lon="-0.52274">
        <ele>305</ele>
        <time>2022-01-14T22:12:47Z</time>
      </trkpt>
      <trkpt lat="43.15869" lon="-0.52297">
        <ele>307</ele>
        <time>2022-01-14T22:12:54Z</time>
      </trkpt>
      <trkpt lat="43.15891" lon="-0.52307">
        <ele>308</ele>
        <time>2022-01-14T22:12:59Z</time>
      </trkpt>
      <trkpt lat="43.15904" lon="-0.52319">
        <ele>309</ele>
        <time>2022-01-14T22:13:03Z</time>
      </trkpt>
      <trkpt lat="43.15976" lon="-0.52422">
        <ele>307</ele>
        <time>2022-01-14T22:13:27Z</time>
      </trkpt>
      <trkpt lat="43.16012" lon="-0.52452">
        <ele>306</ele>
        <time>2022-01-14T22:13:37Z</time>
      </trkpt>
      <trkpt lat="43.16057" lon="-0.5248">
        <ele>304</ele>
        <time>2022-01-14T22:13:49Z</time>
      </trkpt>
      <trkpt lat="43.161" lon="-0.52514">
        <ele>302</ele>
        <time>2022-01-14T22:14:00Z</time>
      </trkpt>
      <trkpt lat="43.16167" lon="-0.52575">
        <ele>300</ele>
        <time>2022-01-14T22:14:19Z</time>
      </trkpt>
      <trkpt lat="43.16363" lon="-0.52738">
        <ele>300</ele>
        <time>2022-01-14T22:15:12Z</time>
      </trkpt>
      <trkpt lat="43.16636" lon="-0.52973">
        <ele>294</ele>
        <time>2022-01-14T22:16:28Z</time>
      </trkpt>
      <trkpt lat="43.16711" lon="-0.5305">
        <ele>294</ele>
        <time>2022-01-14T22:16:50Z</time>
      </trkpt>
      <trkpt lat="43.16762" lon="-0.53092">
        <ele>294</ele>
        <time>2022-01-14T22:17:04Z</time>
      </trkpt>
      <trkpt lat="43.16824" lon="-0.53129">
        <ele>292</ele>
        <time>2022-01-14T22:17:19Z</time>
      </trkpt>
      <trkpt lat="43.17037" lon="-0.53199">
        <ele>290</ele>
        <time>2022-01-14T22:18:10Z</time>
      </trkpt>
      <trkpt lat="43.17054" lon="-0.53196">
        <ele>291</ele>
        <time>2022-01-14T22:18:14Z</time>
      </trkpt>
      <trkpt lat="43.17058" lon="-0.53193">
        <ele>291</ele>
        <time>2022-01-14T22:18:16Z</time>
      </trkpt>
      <trkpt lat="43.17071" lon="-0.53193">
        <ele>291</ele>
        <time>2022-01-14T22:18:19Z</time>
      </trkpt>
      <trkpt lat="43.17085" lon="-0.53216">
        <ele>290</ele>
        <time>2022-01-14T22:18:24Z</time>
      </trkpt>
      <trkpt lat="43.17146" lon="-0.53428">
        <ele>288</ele>
        <time>2022-01-14T22:19:03Z</time>
      </trkpt>
      <trkpt lat="43.17192" lon="-0.53641">
        <ele>284</ele>
        <time>2022-01-14T22:19:40Z</time>
      </trkpt>
      <trkpt lat="43.17217" lon="-0.53742">
        <ele>285</ele>
        <time>2022-01-14T22:19:59Z</time>
      </trkpt>
      <trkpt lat="43.17239" lon="-0.53806">
        <ele>285</ele>
        <time>2022-01-14T22:20:11Z</time>
      </trkpt>
      <trkpt lat="43.17312" lon="-0.54069">
        <ele>284</ele>
        <time>2022-01-14T22:20:58Z</time>
      </trkpt>
      <trkpt lat="43.17328" lon="-0.54143">
        <ele>284</ele>
        <time>2022-01-14T22:21:12Z</time>
      </trkpt>
      <trkpt lat="43.17362" lon="-0.54253">
        <ele>282</ele>
        <time>2022-01-14T22:21:32Z</time>
      </trkpt>
      <trkpt lat="43.17386" lon="-0.54359">
        <ele>282</ele>
        <time>2022-01-14T22:21:51Z</time>
      </trkpt>
      <trkpt lat="43.17479" lon="-0.54712">
        <ele>280</ele>
        <time>2022-01-14T22:22:55Z</time>
      </trkpt>
      <trkpt lat="43.17504" lon="-0.54799">
        <ele>280</ele>
        <time>2022-01-14T22:23:11Z</time>
      </trkpt>
      <trkpt lat="43.17544" lon="-0.54962">
        <ele>279</ele>
        <time>2022-01-14T22:23:40Z</time>
      </trkpt>
      <trkpt lat="43.17633" lon="-0.55294">
        <ele>275</ele>
        <time>2022-01-14T22:24:40Z</time>
      </trkpt>
      <trkpt lat="43.17714" lon="-0.55566">
        <ele>274</ele>
        <time>2022-01-14T22:25:30Z</time>
      </trkpt>
      <trkpt lat="43.17742" lon="-0.55675">
        <ele>275</ele>
        <time>2022-01-14T22:25:50Z</time>
      </trkpt>
      <trkpt lat="43.17749" lon="-0.55695">
        <ele>275</ele>
        <time>2022-01-14T22:25:54Z</time>
      </trkpt>
      <trkpt lat="43.178" lon="-0.55903">
        <ele>280</ele>
        <time>2022-01-14T22:26:31Z</time>
      </trkpt>
      <trkpt lat="43.1783" lon="-0.56012">
        <ele>283</ele>
        <time>2022-01-14T22:26:51Z</time>
      </trkpt>
      <trkpt lat="43.1784" lon="-0.56035">
        <ele>284</ele>
        <time>2022-01-14T22:26:56Z</time>
      </trkpt>
      <trkpt lat="43.17843" lon="-0.56062">
        <ele>285</ele>
        <time>2022-01-14T22:27:00Z</time>
      </trkpt>
      <trkpt lat="43.17867" lon="-0.56164">
        <ele>285</ele>
        <time>2022-01-14T22:27:18Z</time>
      </trkpt>
      <trkpt lat="43.17864" lon="-0.56192">
        <ele>286</ele>
        <time>2022-01-14T22:27:23Z</time>
      </trkpt>
      <trkpt lat="43.17866" lon="-0.56244">
        <ele>288</ele>
        <time>2022-01-14T22:27:32Z</time>
      </trkpt>
      <trkpt lat="43.17861" lon="-0.56293">
        <ele>290</ele>
        <time>2022-01-14T22:27:41Z</time>
      </trkpt>
      <trkpt lat="43.17866" lon="-0.56328">
        <ele>290</ele>
        <time>2022-01-14T22:27:47Z</time>
      </trkpt>
      <trkpt lat="43.17876" lon="-0.56342">
        <ele>290</ele>
        <time>2022-01-14T22:27:50Z</time>
      </trkpt>
      <trkpt lat="43.17906" lon="-0.56413">
        <ele>291</ele>
        <time>2022-01-14T22:28:04Z</time>
      </trkpt>
      <trkpt lat="43.17986" lon="-0.5663">
        <ele>293</ele>
        <time>2022-01-14T22:28:45Z</time>
      </trkpt>
      <trkpt lat="43.18057" lon="-0.56836">
        <ele>290</ele>
        <time>2022-01-14T22:29:24Z</time>
      </trkpt>
      <trkpt lat="43.18264" lon="-0.57403">
        <ele>286</ele>
        <time>2022-01-14T22:31:12Z</time>
      </trkpt>
      <trkpt lat="43.18487" lon="-0.58039">
        <ele>281</ele>
        <time>2022-01-14T22:33:12Z</time>
      </trkpt>
      <trkpt lat="43.18596" lon="-0.58337">
        <ele>280</ele>
        <time>2022-01-14T22:34:09Z</time>
      </trkpt>
      <trkpt lat="43.18664" lon="-0.58534">
        <ele>277</ele>
        <time>2022-01-14T22:34:46Z</time>
      </trkpt>
      <trkpt lat="43.187" lon="-0.58653">
        <ele>270</ele>
        <time>2022-01-14T22:35:08Z</time>
      </trkpt>
      <trkpt lat="43.18707" lon="-0.58685">
        <ele>269</ele>
        <time>2022-01-14T22:35:14Z</time>
      </trkpt>
      <trkpt lat="43.18725" lon="-0.58721">
        <ele>268</ele>
        <time>2022-01-14T22:35:21Z</time>
      </trkpt>
      <trkpt lat="43.18737" lon="-0.58762">
        <ele>269</ele>
        <time>2022-01-14T22:35:29Z</time>
      </trkpt>
      <trkpt lat="43.18764" lon="-0.58806">
        <ele>268</ele>
        <time>2022-01-14T22:35:39Z</time>
      </trkpt>
      <trkpt lat="43.18776" lon="-0.58837">
        <ele>269</ele>
        <time>2022-01-14T22:35:45Z</time>
      </trkpt>
      <trkpt lat="43.18828" lon="-0.58994">
        <ele>271</ele>
        <time>2022-01-14T22:36:14Z</time>
      </trkpt>
      <trkpt lat="43.18883" lon="-0.59148">
        <ele>269</ele>
        <time>2022-01-14T22:36:43Z</time>
      </trkpt>
      <trkpt lat="43.18917" lon="-0.59264">
        <ele>271</ele>
        <time>2022-01-14T22:37:04Z</time>
      </trkpt>
      <trkpt lat="43.18931" lon="-0.59328">
        <ele>269</ele>
        <time>2022-01-14T22:37:16Z</time>
      </trkpt>
      <trkpt lat="43.19002" lon="-0.59611">
        <ele>261</ele>
        <time>2022-01-14T22:38:07Z</time>
      </trkpt>
      <trkpt lat="43.19021" lon="-0.59701">
        <ele>253</ele>
        <time>2022-01-14T22:38:23Z</time>
      </trkpt>
      <trkpt lat="43.19054" lon="-0.59832">
        <ele>250</ele>
        <time>2022-01-14T22:38:46Z</time>
      </trkpt>
      <trkpt lat="43.1908" lon="-0.59951">
        <ele>251</ele>
        <time>2022-01-14T22:39:07Z</time>
      </trkpt>
      <trkpt lat="43.19092" lon="-0.59992">
        <ele>249</ele>
        <time>2022-01-14T22:39:15Z</time>
      </trkpt>
      <trkpt lat="43.19123" lon="-0.60058">
        <ele>245</ele>
        <time>2022-01-14T22:39:28Z</time>
      </trkpt>
      <trkpt lat="43.19153" lon="-0.6013">
        <ele>242</ele>
        <time>2022-01-14T22:39:42Z</time>
      </trkpt>
      <trkpt lat="43.19252" lon="-0.60373">
        <ele>232</ele>
        <time>2022-01-14T22:40:30Z</time>
      </trkpt>
      <trkpt lat="43.19255" lon="-0.60387">
        <ele>231</ele>
        <time>2022-01-14T22:40:32Z</time>
      </trkpt>
      <trkpt lat="43.19265" lon="-0.60411">
        <ele>230</ele>
        <time>2022-01-14T22:40:37Z</time>
      </trkpt>
      <trkpt lat="43.1928" lon="-0.60424">
        <ele>229</ele>
        <time>2022-01-14T22:40:41Z</time>
      </trkpt>
      <trkpt lat="43.19294" lon="-0.60432">
        <ele>229</ele>
        <time>2022-01-14T22:40:45Z</time>
      </trkpt>
      <trkpt lat="43.19311" lon="-0.60452">
        <ele>228</ele>
        <time>2022-01-14T22:40:50Z</time>
      </trkpt>
      <trkpt lat="43.19323" lon="-0.60457">
        <ele>228</ele>
        <time>2022-01-14T22:40:53Z</time>
      </trkpt>
      <trkpt lat="43.19328" lon="-0.60464">
        <ele>227</ele>
        <time>2022-01-14T22:40:55Z</time>
      </trkpt>
      <trkpt lat="43.19327" lon="-0.60477">
        <ele>226</ele>
        <time>2022-01-14T22:40:57Z</time>
      </trkpt>
      <trkpt lat="43.1928" lon="-0.60571">
        <ele>220</ele>
        <time>2022-01-14T22:41:16Z</time>
      </trkpt>
      <trkpt lat="43.19258" lon="-0.60591">
        <ele>219</ele>
        <time>2022-01-14T22:41:22Z</time>
      </trkpt>
      <trkpt lat="43.19238" lon="-0.60603">
        <ele>221</ele>
        <time>2022-01-14T22:41:27Z</time>
      </trkpt>
      <trkpt lat="43.19237" lon="-0.6064">
        <ele>222</ele>
        <time>2022-01-14T22:41:34Z</time>
      </trkpt>
      <trkpt lat="43.19219" lon="-0.60668">
        <ele>225</ele>
        <time>2022-01-14T22:41:40Z</time>
      </trkpt>
      <trkpt lat="43.19205" lon="-0.60701">
        <ele>225</ele>
        <time>2022-01-14T22:41:47Z</time>
      </trkpt>
      <trkpt lat="43.19204" lon="-0.60717">
        <ele>224</ele>
        <time>2022-01-14T22:41:49Z</time>
      </trkpt>
      <trkpt lat="43.19194" lon="-0.60736">
        <ele>223</ele>
        <time>2022-01-14T22:41:53Z</time>
      </trkpt>
      <trkpt lat="43.19191" lon="-0.60759">
        <ele>221</ele>
        <time>2022-01-14T22:41:57Z</time>
      </trkpt>
      <trkpt lat="43.19193" lon="-0.60787">
        <ele>217</ele>
        <time>2022-01-14T22:42:02Z</time>
      </trkpt>
      <trkpt lat="43.19218" lon="-0.60875">
        <ele>216</ele>
        <time>2022-01-14T22:42:18Z</time>
      </trkpt>
      <trkpt lat="43.19221" lon="-0.60902">
        <ele>219</ele>
        <time>2022-01-14T22:42:23Z</time>
      </trkpt>
      <trkpt lat="43.19232" lon="-0.60917">
        <ele>220</ele>
        <time>2022-01-14T22:42:26Z</time>
      </trkpt>
      <trkpt lat="43.19241" lon="-0.60967">
        <ele>223</ele>
        <time>2022-01-14T22:42:35Z</time>
      </trkpt>
      <trkpt lat="43.19264" lon="-0.61021">
        <ele>224</ele>
        <time>2022-01-14T22:42:46Z</time>
      </trkpt>
      <trkpt lat="43.19264" lon="-0.61046">
        <ele>224</ele>
        <time>2022-01-14T22:42:50Z</time>
      </trkpt>
      <trkpt lat="43.19253" lon="-0.61063">
        <ele>225</ele>
        <time>2022-01-14T22:42:54Z</time>
      </trkpt>
      <trkpt lat="43.19242" lon="-0.6107">
        <ele>225</ele>
        <time>2022-01-14T22:42:57Z</time>
      </trkpt>
      <trkpt lat="43.19236" lon="-0.61101">
        <ele>225</ele>
        <time>2022-01-14T22:43:02Z</time>
      </trkpt>
      <trkpt lat="43.19223" lon="-0.61124">
        <ele>226</ele>
        <time>2022-01-14T22:43:07Z</time>
      </trkpt>
      <trkpt lat="43.19228" lon="-0.61165">
        <ele>226</ele>
        <time>2022-01-14T22:43:14Z</time>
      </trkpt>
      <trkpt lat="43.19224" lon="-0.61184">
        <ele>226</ele>
        <time>2022-01-14T22:43:18Z</time>
      </trkpt>
      <trkpt lat="43.19219" lon="-0.61193">
        <ele>226</ele>
        <time>2022-01-14T22:43:20Z</time>
      </trkpt>
      <trkpt lat="43.19213" lon="-0.61198">
        <ele>226</ele>
        <time>2022-01-14T22:43:21Z</time>
      </trkpt>
      <trkpt lat="43.19219" lon="-0.6124">
        <ele>226</ele>
        <time>2022-01-14T22:43:28Z</time>
      </trkpt>
      <trkpt lat="43.19222" lon="-0.61245">
        <ele>226</ele>
        <time>2022-01-14T22:43:30Z</time>
      </trkpt>
      <trkpt lat="43.19218" lon="-0.61253">
        <ele>226</ele>
        <time>2022-01-14T22:43:31Z</time>
      </trkpt>
      <trkpt lat="43.19181" lon="-0.61283">
        <ele>226</ele>
        <time>2022-01-14T22:43:41Z</time>
      </trkpt>
      <trkpt lat="43.1916" lon="-0.61322">
        <ele>225</ele>
        <time>2022-01-14T22:43:50Z</time>
      </trkpt>
      <trkpt lat="43.1915" lon="-0.61348">
        <ele>225</ele>
        <time>2022-01-14T22:43:55Z</time>
      </trkpt>
      <trkpt lat="43.19147" lon="-0.61381">
        <ele>224</ele>
        <time>2022-01-14T22:44:00Z</time>
      </trkpt>
      <trkpt lat="43.19137" lon="-0.61427">
        <ele>224</ele>
        <time>2022-01-14T22:44:08Z</time>
      </trkpt>
      <trkpt lat="43.19104" lon="-0.61538">
        <ele>231</ele>
        <time>2022-01-14T22:44:29Z</time>
      </trkpt>
      <trkpt lat="43.19045" lon="-0.617">
        <ele>234</ele>
        <time>2022-01-14T22:45:00Z</time>
      </trkpt>
      <trkpt lat="43.19039" lon="-0.61722">
        <ele>234</ele>
        <time>2022-01-14T22:45:04Z</time>
      </trkpt>
      <trkpt lat="43.19038" lon="-0.61736">
        <ele>234</ele>
        <time>2022-01-14T22:45:06Z</time>
      </trkpt>
      <trkpt lat="43.19031" lon="-0.61757">
        <ele>233</ele>
        <time>2022-01-14T22:45:10Z</time>
      </trkpt>
      <trkpt lat="43.19012" lon="-0.6178">
        <ele>233</ele>
        <time>2022-01-14T22:45:16Z</time>
      </trkpt>
      <trkpt lat="43.18961" lon="-0.61897">
        <ele>232</ele>
        <time>2022-01-14T22:45:39Z</time>
      </trkpt>
      <trkpt lat="43.18959" lon="-0.61929">
        <ele>233</ele>
        <time>2022-01-14T22:45:45Z</time>
      </trkpt>
      <trkpt lat="43.18972" lon="-0.6204">
        <ele>234</ele>
        <time>2022-01-14T22:46:04Z</time>
      </trkpt>
      <trkpt lat="43.18977" lon="-0.62062">
        <ele>233</ele>
        <time>2022-01-14T22:46:08Z</time>
      </trkpt>
      <trkpt lat="43.1899" lon="-0.62087">
        <ele>233</ele>
        <time>2022-01-14T22:46:13Z</time>
      </trkpt>
      <trkpt lat="43.19021" lon="-0.62123">
        <ele>233</ele>
        <time>2022-01-14T22:46:22Z</time>
      </trkpt>
      <trkpt lat="43.19047" lon="-0.62137">
        <ele>233</ele>
        <time>2022-01-14T22:46:29Z</time>
      </trkpt>
      <trkpt lat="43.19054" lon="-0.62149">
        <ele>233</ele>
        <time>2022-01-14T22:46:31Z</time>
      </trkpt>
      <trkpt lat="43.19051" lon="-0.62162">
        <ele>233</ele>
        <time>2022-01-14T22:46:34Z</time>
      </trkpt>
      <trkpt lat="43.19026" lon="-0.6219">
        <ele>233</ele>
        <time>2022-01-14T22:46:41Z</time>
      </trkpt>
      <trkpt lat="43.18932" lon="-0.62365">
        <ele>233</ele>
        <time>2022-01-14T22:47:18Z</time>
      </trkpt>
      <trkpt lat="43.18894" lon="-0.62425">
        <ele>233</ele>
        <time>2022-01-14T22:47:32Z</time>
      </trkpt>
      <trkpt lat="43.18852" lon="-0.62464">
        <ele>233</ele>
        <time>2022-01-14T22:47:44Z</time>
      </trkpt>
      <trkpt lat="43.1884" lon="-0.62472">
        <ele>233</ele>
        <time>2022-01-14T22:47:47Z</time>
      </trkpt>
      <trkpt lat="43.18813" lon="-0.62486">
        <ele>234</ele>
        <time>2022-01-14T22:47:54Z</time>
      </trkpt>
      <trkpt lat="43.1876" lon="-0.62497">
        <ele>235</ele>
        <time>2022-01-14T22:48:06Z</time>
      </trkpt>
      <trkpt lat="43.1873" lon="-0.62518">
        <ele>235</ele>
        <time>2022-01-14T22:48:14Z</time>
      </trkpt>
      <trkpt lat="43.18718" lon="-0.62546">
        <ele>235</ele>
        <time>2022-01-14T22:48:19Z</time>
      </trkpt>
      <trkpt lat="43.18709" lon="-0.62557">
        <ele>235</ele>
        <time>2022-01-14T22:48:22Z</time>
      </trkpt>
      <trkpt lat="43.18693" lon="-0.62588">
        <ele>235</ele>
        <time>2022-01-14T22:48:29Z</time>
      </trkpt>
      <trkpt lat="43.18686" lon="-0.62615">
        <ele>234</ele>
        <time>2022-01-14T22:48:34Z</time>
      </trkpt>
      <trkpt lat="43.18669" lon="-0.62641">
        <ele>234</ele>
        <time>2022-01-14T22:48:40Z</time>
      </trkpt>
      <trkpt lat="43.18546" lon="-0.62763">
        <ele>237</ele>
        <time>2022-01-14T22:49:15Z</time>
      </trkpt>
      <trkpt lat="43.18518" lon="-0.62798">
        <ele>236</ele>
        <time>2022-01-14T22:49:24Z</time>
      </trkpt>
      <trkpt lat="43.18485" lon="-0.62865">
        <ele>236</ele>
        <time>2022-01-14T22:49:38Z</time>
      </trkpt>
      <trkpt lat="43.18417" lon="-0.63038">
        <ele>236</ele>
        <time>2022-01-14T22:50:11Z</time>
      </trkpt>
      <trkpt lat="43.18392" lon="-0.6311">
        <ele>235</ele>
        <time>2022-01-14T22:50:25Z</time>
      </trkpt>
      <trkpt lat="43.18373" lon="-0.63184">
        <ele>237</ele>
        <time>2022-01-14T22:50:38Z</time>
      </trkpt>
      <trkpt lat="43.18344" lon="-0.6333">
        <ele>237</ele>
        <time>2022-01-14T22:51:04Z</time>
      </trkpt>
      <trkpt lat="43.18327" lon="-0.63398">
        <ele>235</ele>
        <time>2022-01-14T22:51:16Z</time>
      </trkpt>
      <trkpt lat="43.18311" lon="-0.63478">
        <ele>234</ele>
        <time>2022-01-14T22:51:30Z</time>
      </trkpt>
      <trkpt lat="43.18297" lon="-0.6352">
        <ele>234</ele>
        <time>2022-01-14T22:51:38Z</time>
      </trkpt>
      <trkpt lat="43.18234" lon="-0.63638">
        <ele>236</ele>
        <time>2022-01-14T22:52:03Z</time>
      </trkpt>
      <trkpt lat="43.18211" lon="-0.63675">
        <ele>236</ele>
        <time>2022-01-14T22:52:11Z</time>
      </trkpt>
      <trkpt lat="43.1816" lon="-0.63768">
        <ele>236</ele>
        <time>2022-01-14T22:52:31Z</time>
      </trkpt>
      <trkpt lat="43.18061" lon="-0.63959">
        <ele>235</ele>
        <time>2022-01-14T22:53:11Z</time>
      </trkpt>
      <trkpt lat="43.1805" lon="-0.63973">
        <ele>235</ele>
        <time>2022-01-14T22:53:14Z</time>
      </trkpt>
      <trkpt lat="43.18" lon="-0.64009">
        <ele>234</ele>
        <time>2022-01-14T22:53:28Z</time>
      </trkpt>
      <trkpt lat="43.17828" lon="-0.64118">
        <ele>233</ele>
        <time>2022-01-14T22:54:12Z</time>
      </trkpt>
      <trkpt lat="43.17786" lon="-0.64162">
        <ele>231</ele>
        <time>2022-01-14T22:54:24Z</time>
      </trkpt>
      <trkpt lat="43.17742" lon="-0.64246">
        <ele>230</ele>
        <time>2022-01-14T22:54:42Z</time>
      </trkpt>
      <trkpt lat="43.17718" lon="-0.6427">
        <ele>229</ele>
        <time>2022-01-14T22:54:49Z</time>
      </trkpt>
      <trkpt lat="43.17689" lon="-0.64292">
        <ele>229</ele>
        <time>2022-01-14T22:54:57Z</time>
      </trkpt>
      <trkpt lat="43.17666" lon="-0.64319">
        <ele>229</ele>
        <time>2022-01-14T22:55:04Z</time>
      </trkpt>
      <trkpt lat="43.17544" lon="-0.64444">
        <ele>228</ele>
        <time>2022-01-14T22:55:39Z</time>
      </trkpt>
      <trkpt lat="43.17463" lon="-0.64513">
        <ele>228</ele>
        <time>2022-01-14T22:56:01Z</time>
      </trkpt>
      <trkpt lat="43.17417" lon="-0.64538">
        <ele>230</ele>
        <time>2022-01-14T22:56:13Z</time>
      </trkpt>
      <trkpt lat="43.17338" lon="-0.64575">
        <ele>233</ele>
        <time>2022-01-14T22:56:32Z</time>
      </trkpt>
      <trkpt lat="43.17305" lon="-0.64596">
        <ele>232</ele>
        <time>2022-01-14T22:56:41Z</time>
      </trkpt>
      <trkpt lat="43.17238" lon="-0.64625">
        <ele>231</ele>
        <time>2022-01-14T22:56:57Z</time>
      </trkpt>
      <trkpt lat="43.17221" lon="-0.64636">
        <ele>230</ele>
        <time>2022-01-14T22:57:02Z</time>
      </trkpt>
      <trkpt lat="43.17198" lon="-0.64645">
        <ele>231</ele>
        <time>2022-01-14T22:57:07Z</time>
      </trkpt>
      <trkpt lat="43.17157" lon="-0.64667">
        <ele>233</ele>
        <time>2022-01-14T22:57:18Z</time>
      </trkpt>
      <trkpt lat="43.17095" lon="-0.64691">
        <ele>238</ele>
        <time>2022-01-14T22:57:33Z</time>
      </trkpt>
      <trkpt lat="43.17088" lon="-0.64699">
        <ele>239</ele>
        <time>2022-01-14T22:57:35Z</time>
      </trkpt>
      <trkpt lat="43.17037" lon="-0.64733">
        <ele>240</ele>
        <time>2022-01-14T22:57:48Z</time>
      </trkpt>
      <trkpt lat="43.17013" lon="-0.64752">
        <ele>240</ele>
        <time>2022-01-14T22:57:55Z</time>
      </trkpt>
      <trkpt lat="43.1697" lon="-0.64831">
        <ele>239</ele>
        <time>2022-01-14T22:58:11Z</time>
      </trkpt>
      <trkpt lat="43.16962" lon="-0.64858">
        <ele>237</ele>
        <time>2022-01-14T22:58:16Z</time>
      </trkpt>
      <trkpt lat="43.16951" lon="-0.6488">
        <ele>236</ele>
        <time>2022-01-14T22:58:21Z</time>
      </trkpt>
      <trkpt lat="43.16933" lon="-0.64906">
        <ele>237</ele>
        <time>2022-01-14T22:58:27Z</time>
      </trkpt>
      <trkpt lat="43.16925" lon="-0.64959">
        <ele>232</ele>
        <time>2022-01-14T22:58:36Z</time>
      </trkpt>
      <trkpt lat="43.1691" lon="-0.65002">
        <ele>228</ele>
        <time>2022-01-14T22:58:44Z</time>
      </trkpt>
      <trkpt lat="43.16893" lon="-0.65207">
        <ele>226</ele>
        <time>2022-01-14T22:59:19Z</time>
      </trkpt>
      <trkpt lat="43.16899" lon="-0.65273">
        <ele>223</ele>
        <time>2022-01-14T22:59:31Z</time>
      </trkpt>
      <trkpt lat="43.169" lon="-0.65601">
        <ele>227</ele>
        <time>2022-01-14T23:00:27Z</time>
      </trkpt>
      <trkpt lat="43.16906" lon="-0.65756">
        <ele>223</ele>
        <time>2022-01-14T23:00:53Z</time>
      </trkpt>
      <trkpt lat="43.16902" lon="-0.65832">
        <ele>223</ele>
        <time>2022-01-14T23:01:06Z</time>
      </trkpt>
      <trkpt lat="43.16846" lon="-0.66464">
        <ele>226</ele>
        <time>2022-01-14T23:02:54Z</time>
      </trkpt>
      <trkpt lat="43.16831" lon="-0.66616">
        <ele>226</ele>
        <time>2022-01-14T23:03:21Z</time>
      </trkpt>
      <trkpt lat="43.1682" lon="-0.66692">
        <ele>227</ele>
        <time>2022-01-14T23:03:34Z</time>
      </trkpt>
      <trkpt lat="43.16803" lon="-0.66753">
        <ele>230</ele>
        <time>2022-01-14T23:03:45Z</time>
      </trkpt>
      <trkpt lat="43.16794" lon="-0.66777">
        <ele>231</ele>
        <time>2022-01-14T23:03:50Z</time>
      </trkpt>
      <trkpt lat="43.16771" lon="-0.66833">
        <ele>234</ele>
        <time>2022-01-14T23:04:00Z</time>
      </trkpt>
      <trkpt lat="43.16747" lon="-0.66873">
        <ele>235</ele>
        <time>2022-01-14T23:04:09Z</time>
      </trkpt>
      <trkpt lat="43.16739" lon="-0.66902">
        <ele>235</ele>
        <time>2022-01-14T23:04:15Z</time>
      </trkpt>
      <trkpt lat="43.16716" lon="-0.66949">
        <ele>235</ele>
        <time>2022-01-14T23:04:24Z</time>
      </trkpt>
      <trkpt lat="43.16698" lon="-0.66999">
        <ele>235</ele>
        <time>2022-01-14T23:04:34Z</time>
      </trkpt>
      <trkpt lat="43.16638" lon="-0.67202">
        <ele>241</ele>
        <time>2022-01-14T23:05:11Z</time>
      </trkpt>
      <trkpt lat="43.16469" lon="-0.67748">
        <ele>242</ele>
        <time>2022-01-14T23:06:52Z</time>
      </trkpt>
      <trkpt lat="43.16442" lon="-0.67823">
        <ele>243</ele>
        <time>2022-01-14T23:07:06Z</time>
      </trkpt>
      <trkpt lat="43.16365" lon="-0.67974">
        <ele>248</ele>
        <time>2022-01-14T23:07:38Z</time>
      </trkpt>
      <trkpt lat="43.16344" lon="-0.68041">
        <ele>247</ele>
        <time>2022-01-14T23:07:50Z</time>
      </trkpt>
      <trkpt lat="43.16309" lon="-0.68244">
        <ele>239</ele>
        <time>2022-01-14T23:08:26Z</time>
      </trkpt>
      <trkpt lat="43.16275" lon="-0.6842">
        <ele>237</ele>
        <time>2022-01-14T23:08:57Z</time>
      </trkpt>
      <trkpt lat="43.16269" lon="-0.68442">
        <ele>236</ele>
        <time>2022-01-14T23:09:01Z</time>
      </trkpt>
      <trkpt lat="43.16236" lon="-0.68519">
        <ele>236</ele>
        <time>2022-01-14T23:09:16Z</time>
      </trkpt>
      <trkpt lat="43.16202" lon="-0.68578">
        <ele>236</ele>
        <time>2022-01-14T23:09:29Z</time>
      </trkpt>
      <trkpt lat="43.1616" lon="-0.68628">
        <ele>237</ele>
        <time>2022-01-14T23:09:42Z</time>
      </trkpt>
      <trkpt lat="43.16135" lon="-0.68653">
        <ele>237</ele>
        <time>2022-01-14T23:09:49Z</time>
      </trkpt>
      <trkpt lat="43.161" lon="-0.6867">
        <ele>238</ele>
        <time>2022-01-14T23:09:58Z</time>
      </trkpt>
      <trkpt lat="43.16075" lon="-0.68689">
        <ele>240</ele>
        <time>2022-01-14T23:10:04Z</time>
      </trkpt>
      <trkpt lat="43.16055" lon="-0.68695">
        <ele>241</ele>
        <time>2022-01-14T23:10:09Z</time>
      </trkpt>
      <trkpt lat="43.16013" lon="-0.6872">
        <ele>243</ele>
        <time>2022-01-14T23:10:20Z</time>
      </trkpt>
      <trkpt lat="43.15985" lon="-0.68724">
        <ele>243</ele>
        <time>2022-01-14T23:10:26Z</time>
      </trkpt>
      <trkpt lat="43.15937" lon="-0.68726">
        <ele>242</ele>
        <time>2022-01-14T23:10:37Z</time>
      </trkpt>
      <trkpt lat="43.15894" lon="-0.68733">
        <ele>243</ele>
        <time>2022-01-14T23:10:48Z</time>
      </trkpt>
      <trkpt lat="43.15871" lon="-0.68744">
        <ele>243</ele>
        <time>2022-01-14T23:10:53Z</time>
      </trkpt>
      <trkpt lat="43.15843" lon="-0.68762">
        <ele>244</ele>
        <time>2022-01-14T23:11:01Z</time>
      </trkpt>
      <trkpt lat="43.15755" lon="-0.6881">
        <ele>246</ele>
        <time>2022-01-14T23:11:23Z</time>
      </trkpt>
      <trkpt lat="43.15725" lon="-0.68814">
        <ele>246</ele>
        <time>2022-01-14T23:11:30Z</time>
      </trkpt>
      <trkpt lat="43.15615" lon="-0.68799">
        <ele>246</ele>
        <time>2022-01-14T23:11:55Z</time>
      </trkpt>
      <trkpt lat="43.15567" lon="-0.68785">
        <ele>246</ele>
        <time>2022-01-14T23:12:07Z</time>
      </trkpt>
      <trkpt lat="43.15501" lon="-0.68779">
        <ele>245</ele>
        <time>2022-01-14T23:12:22Z</time>
      </trkpt>
      <trkpt lat="43.15494" lon="-0.68777">
        <ele>245</ele>
        <time>2022-01-14T23:12:24Z</time>
      </trkpt>
      <trkpt lat="43.15473" lon="-0.68764">
        <ele>246</ele>
        <time>2022-01-14T23:12:29Z</time>
      </trkpt>
      <trkpt lat="43.15446" lon="-0.68739">
        <ele>245</ele>
        <time>2022-01-14T23:12:37Z</time>
      </trkpt>
      <trkpt lat="43.15409" lon="-0.6872">
        <ele>245</ele>
        <time>2022-01-14T23:12:46Z</time>
      </trkpt>
      <trkpt lat="43.15368" lon="-0.68728">
        <ele>245</ele>
        <time>2022-01-14T23:12:56Z</time>
      </trkpt>
      <trkpt lat="43.15335" lon="-0.68745">
        <ele>245</ele>
        <time>2022-01-14T23:13:04Z</time>
      </trkpt>
      <trkpt lat="43.15276" lon="-0.6877">
        <ele>245</ele>
        <time>2022-01-14T23:13:19Z</time>
      </trkpt>
      <trkpt lat="43.15221" lon="-0.68804">
        <ele>244</ele>
        <time>2022-01-14T23:13:33Z</time>
      </trkpt>
      <trkpt lat="43.15138" lon="-0.68847">
        <ele>243</ele>
        <time>2022-01-14T23:13:53Z</time>
      </trkpt>
      <trkpt lat="43.14802" lon="-0.69033">
        <ele>248</ele>
        <time>2022-01-14T23:15:18Z</time>
      </trkpt>
      <trkpt lat="43.14734" lon="-0.69073">
        <ele>250</ele>
        <time>2022-01-14T23:15:35Z</time>
      </trkpt>
      <trkpt lat="43.14623" lon="-0.69132">
        <ele>251</ele>
        <time>2022-01-14T23:16:03Z</time>
      </trkpt>
      <trkpt lat="43.14556" lon="-0.69174">
        <ele>252</ele>
        <time>2022-01-14T23:16:20Z</time>
      </trkpt>
      <trkpt lat="43.14537" lon="-0.69202">
        <ele>252</ele>
        <time>2022-01-14T23:16:27Z</time>
      </trkpt>
      <trkpt lat="43.1453" lon="-0.69219">
        <ele>253</ele>
        <time>2022-01-14T23:16:30Z</time>
      </trkpt>
      <trkpt lat="43.14507" lon="-0.6925">
        <ele>254</ele>
        <time>2022-01-14T23:16:38Z</time>
      </trkpt>
      <trkpt lat="43.14486" lon="-0.69255">
        <ele>254</ele>
        <time>2022-01-14T23:16:43Z</time>
      </trkpt>
      <trkpt lat="43.14464" lon="-0.6925">
        <ele>253</ele>
        <time>2022-01-14T23:16:48Z</time>
      </trkpt>
      <trkpt lat="43.14424" lon="-0.69252">
        <ele>252</ele>
        <time>2022-01-14T23:16:57Z</time>
      </trkpt>
      <trkpt lat="43.14396" lon="-0.69266">
        <ele>251</ele>
        <time>2022-01-14T23:17:04Z</time>
      </trkpt>
      <trkpt lat="43.14215" lon="-0.69413">
        <ele>255</ele>
        <time>2022-01-14T23:17:53Z</time>
      </trkpt>
      <trkpt lat="43.14152" lon="-0.69468">
        <ele>254</ele>
        <time>2022-01-14T23:18:11Z</time>
      </trkpt>
      <trkpt lat="43.14057" lon="-0.69536">
        <ele>254</ele>
        <time>2022-01-14T23:18:36Z</time>
      </trkpt>
      <trkpt lat="43.13964" lon="-0.69596">
        <ele>254</ele>
        <time>2022-01-14T23:19:00Z</time>
      </trkpt>
      <trkpt lat="43.13916" lon="-0.6963">
        <ele>255</ele>
        <time>2022-01-14T23:19:12Z</time>
      </trkpt>
      <trkpt lat="43.13849" lon="-0.69667">
        <ele>257</ele>
        <time>2022-01-14T23:19:29Z</time>
      </trkpt>
      <trkpt lat="43.13814" lon="-0.69692">
        <ele>259</ele>
        <time>2022-01-14T23:19:39Z</time>
      </trkpt>
      <trkpt lat="43.13798" lon="-0.69709">
        <ele>260</ele>
        <time>2022-01-14T23:19:43Z</time>
      </trkpt>
      <trkpt lat="43.13787" lon="-0.69721">
        <ele>260</ele>
        <time>2022-01-14T23:19:47Z</time>
      </trkpt>
      <trkpt lat="43.13755" lon="-0.69768">
        <ele>262</ele>
        <time>2022-01-14T23:19:57Z</time>
      </trkpt>
      <trkpt lat="43.13734" lon="-0.69816">
        <ele>263</ele>
        <time>2022-01-14T23:20:07Z</time>
      </trkpt>
      <trkpt lat="43.13701" lon="-0.69915">
        <ele>263</ele>
        <time>2022-01-14T23:20:26Z</time>
      </trkpt>
      <trkpt lat="43.13661" lon="-0.69989">
        <ele>268</ele>
        <time>2022-01-14T23:20:41Z</time>
      </trkpt>
      <trkpt lat="43.13628" lon="-0.70037">
        <ele>267</ele>
        <time>2022-01-14T23:20:52Z</time>
      </trkpt>
      <trkpt lat="43.13498" lon="-0.70172">
        <ele>264</ele>
        <time>2022-01-14T23:21:31Z</time>
      </trkpt>
      <trkpt lat="43.13434" lon="-0.7026">
        <ele>263</ele>
        <time>2022-01-14T23:21:52Z</time>
      </trkpt>
      <trkpt lat="43.134" lon="-0.70325">
        <ele>263</ele>
        <time>2022-01-14T23:22:05Z</time>
      </trkpt>
      <trkpt lat="43.1337" lon="-0.70397">
        <ele>265</ele>
        <time>2022-01-14T23:22:20Z</time>
      </trkpt>
      <trkpt lat="43.13343" lon="-0.70444">
        <ele>265</ele>
        <time>2022-01-14T23:22:30Z</time>
      </trkpt>
      <trkpt lat="43.13311" lon="-0.70495">
        <ele>263</ele>
        <time>2022-01-14T23:22:41Z</time>
      </trkpt>
      <trkpt lat="43.13197" lon="-0.70657">
        <ele>261</ele>
        <time>2022-01-14T23:23:20Z</time>
      </trkpt>
      <trkpt lat="43.13156" lon="-0.70707">
        <ele>264</ele>
        <time>2022-01-14T23:23:32Z</time>
      </trkpt>
      <trkpt lat="43.13107" lon="-0.70749">
        <ele>263</ele>
        <time>2022-01-14T23:23:46Z</time>
      </trkpt>
      <trkpt lat="43.13073" lon="-0.70774">
        <ele>261</ele>
        <time>2022-01-14T23:23:55Z</time>
      </trkpt>
      <trkpt lat="43.12952" lon="-0.70873">
        <ele>262</ele>
        <time>2022-01-14T23:24:28Z</time>
      </trkpt>
      <trkpt lat="43.12903" lon="-0.70916">
        <ele>263</ele>
        <time>2022-01-14T23:24:41Z</time>
      </trkpt>
      <trkpt lat="43.12864" lon="-0.70956">
        <ele>262</ele>
        <time>2022-01-14T23:24:53Z</time>
      </trkpt>
      <trkpt lat="43.12828" lon="-0.71022">
        <ele>261</ele>
        <time>2022-01-14T23:25:07Z</time>
      </trkpt>
      <trkpt lat="43.12811" lon="-0.71064">
        <ele>262</ele>
        <time>2022-01-14T23:25:15Z</time>
      </trkpt>
      <trkpt lat="43.12798" lon="-0.71137">
        <ele>262</ele>
        <time>2022-01-14T23:25:28Z</time>
      </trkpt>
      <trkpt lat="43.12772" lon="-0.71377">
        <ele>261</ele>
        <time>2022-01-14T23:26:09Z</time>
      </trkpt>
      <trkpt lat="43.12722" lon="-0.71755">
        <ele>265</ele>
        <time>2022-01-14T23:27:15Z</time>
      </trkpt>
      <trkpt lat="43.12714" lon="-0.71835">
        <ele>267</ele>
        <time>2022-01-14T23:27:28Z</time>
      </trkpt>
      <trkpt lat="43.12704" lon="-0.71899">
        <ele>268</ele>
        <time>2022-01-14T23:27:40Z</time>
      </trkpt>
      <trkpt lat="43.12689" lon="-0.71962">
        <ele>268</ele>
        <time>2022-01-14T23:27:51Z</time>
      </trkpt>
      <trkpt lat="43.12681" lon="-0.71986">
        <ele>268</ele>
        <time>2022-01-14T23:27:55Z</time>
      </trkpt>
      <trkpt lat="43.12657" lon="-0.72044">
        <ele>268</ele>
        <time>2022-01-14T23:28:07Z</time>
      </trkpt>
      <trkpt lat="43.12622" lon="-0.72103">
        <ele>269</ele>
        <time>2022-01-14T23:28:20Z</time>
      </trkpt>
      <trkpt lat="43.12564" lon="-0.72193">
        <ele>270</ele>
        <time>2022-01-14T23:28:40Z</time>
      </trkpt>
      <trkpt lat="43.12368" lon="-0.72485">
        <ele>273</ele>
        <time>2022-01-14T23:29:48Z</time>
      </trkpt>
      <trkpt lat="43.12341" lon="-0.72529">
        <ele>274</ele>
        <time>2022-01-14T23:29:58Z</time>
      </trkpt>
      <trkpt lat="43.12255" lon="-0.72636">
        <ele>275</ele>
        <time>2022-01-14T23:30:25Z</time>
      </trkpt>
      <trkpt lat="43.12234" lon="-0.72656">
        <ele>276</ele>
        <time>2022-01-14T23:30:31Z</time>
      </trkpt>
      <trkpt lat="43.12212" lon="-0.72668">
        <ele>277</ele>
        <time>2022-01-14T23:30:36Z</time>
      </trkpt>
      <trkpt lat="43.1219" lon="-0.72673">
        <ele>278</ele>
        <time>2022-01-14T23:30:41Z</time>
      </trkpt>
      <trkpt lat="43.1218" lon="-0.72678">
        <ele>278</ele>
        <time>2022-01-14T23:30:44Z</time>
      </trkpt>
      <trkpt lat="43.12155" lon="-0.72694">
        <ele>279</ele>
        <time>2022-01-14T23:30:50Z</time>
      </trkpt>
      <trkpt lat="43.12146" lon="-0.72703">
        <ele>279</ele>
        <time>2022-01-14T23:30:53Z</time>
      </trkpt>
      <trkpt lat="43.12114" lon="-0.72739">
        <ele>280</ele>
        <time>2022-01-14T23:31:03Z</time>
      </trkpt>
      <trkpt lat="43.12078" lon="-0.72798">
        <ele>281</ele>
        <time>2022-01-14T23:31:16Z</time>
      </trkpt>
      <trkpt lat="43.1208" lon="-0.72828">
        <ele>281</ele>
        <time>2022-01-14T23:31:21Z</time>
      </trkpt>
      <trkpt lat="43.12083" lon="-0.72836">
        <ele>281</ele>
        <time>2022-01-14T23:31:22Z</time>
      </trkpt>
      <trkpt lat="43.12103" lon="-0.72861">
        <ele>279</ele>
        <time>2022-01-14T23:31:29Z</time>
      </trkpt>
      <trkpt lat="43.12116" lon="-0.72897">
        <ele>278</ele>
        <time>2022-01-14T23:31:35Z</time>
      </trkpt>
      <trkpt lat="43.1214" lon="-0.73006">
        <ele>281</ele>
        <time>2022-01-14T23:31:55Z</time>
      </trkpt>
      <trkpt lat="43.12142" lon="-0.73042">
        <ele>281</ele>
        <time>2022-01-14T23:32:01Z</time>
      </trkpt>
      <trkpt lat="43.12136" lon="-0.73083">
        <ele>283</ele>
        <time>2022-01-14T23:32:08Z</time>
      </trkpt>
      <trkpt lat="43.12131" lon="-0.73096">
        <ele>284</ele>
        <time>2022-01-14T23:32:11Z</time>
      </trkpt>
      <trkpt lat="43.12086" lon="-0.73181">
        <ele>289</ele>
        <time>2022-01-14T23:32:29Z</time>
      </trkpt>
      <trkpt lat="43.12065" lon="-0.73209">
        <ele>291</ele>
        <time>2022-01-14T23:32:35Z</time>
      </trkpt>
      <trkpt lat="43.12023" lon="-0.73247">
        <ele>297</ele>
        <time>2022-01-14T23:32:47Z</time>
      </trkpt>
      <trkpt lat="43.11986" lon="-0.73271">
        <ele>300</ele>
        <time>2022-01-14T23:32:57Z</time>
      </trkpt>
      <trkpt lat="43.11764" lon="-0.73396">
        <ele>302</ele>
        <time>2022-01-14T23:33:53Z</time>
      </trkpt>
      <trkpt lat="43.11718" lon="-0.73427">
        <ele>303</ele>
        <time>2022-01-14T23:34:05Z</time>
      </trkpt>
      <trkpt lat="43.11453" lon="-0.7368">
        <ele>310</ele>
        <time>2022-01-14T23:35:20Z</time>
      </trkpt>
      <trkpt lat="43.11381" lon="-0.73753">
        <ele>310</ele>
        <time>2022-01-14T23:35:41Z</time>
      </trkpt>
      <trkpt lat="43.11362" lon="-0.73776">
        <ele>310</ele>
        <time>2022-01-14T23:35:47Z</time>
      </trkpt>
      <trkpt lat="43.11347" lon="-0.73808">
        <ele>310</ele>
        <time>2022-01-14T23:35:54Z</time>
      </trkpt>
      <trkpt lat="43.11344" lon="-0.73828">
        <ele>310</ele>
        <time>2022-01-14T23:35:57Z</time>
      </trkpt>
      <trkpt lat="43.11344" lon="-0.73859">
        <ele>310</ele>
        <time>2022-01-14T23:36:02Z</time>
      </trkpt>
      <trkpt lat="43.11356" lon="-0.74028">
        <ele>312</ele>
        <time>2022-01-14T23:36:31Z</time>
      </trkpt>
      <trkpt lat="43.1136" lon="-0.74057">
        <ele>312</ele>
        <time>2022-01-14T23:36:36Z</time>
      </trkpt>
      <trkpt lat="43.11375" lon="-0.74122">
        <ele>310</ele>
        <time>2022-01-14T23:36:48Z</time>
      </trkpt>
      <trkpt lat="43.11377" lon="-0.74152">
        <ele>309</ele>
        <time>2022-01-14T23:36:53Z</time>
      </trkpt>
      <trkpt lat="43.11368" lon="-0.74212">
        <ele>308</ele>
        <time>2022-01-14T23:37:03Z</time>
      </trkpt>
      <trkpt lat="43.11332" lon="-0.74335">
        <ele>310</ele>
        <time>2022-01-14T23:37:26Z</time>
      </trkpt>
      <trkpt lat="43.11288" lon="-0.74456">
        <ele>313</ele>
        <time>2022-01-14T23:37:49Z</time>
      </trkpt>
      <trkpt lat="43.11274" lon="-0.74541">
        <ele>309</ele>
        <time>2022-01-14T23:38:04Z</time>
      </trkpt>
      <trkpt lat="43.1124" lon="-0.7466">
        <ele>305</ele>
        <time>2022-01-14T23:38:26Z</time>
      </trkpt>
      <trkpt lat="43.11237" lon="-0.74714">
        <ele>301</ele>
        <time>2022-01-14T23:38:35Z</time>
      </trkpt>
      <trkpt lat="43.11237" lon="-0.7475">
        <ele>298</ele>
        <time>2022-01-14T23:38:41Z</time>
      </trkpt>
      <trkpt lat="43.11243" lon="-0.74803">
        <ele>294</ele>
        <time>2022-01-14T23:38:50Z</time>
      </trkpt>
      <trkpt lat="43.11271" lon="-0.74933">
        <ele>288</ele>
        <time>2022-01-14T23:39:13Z</time>
      </trkpt>
      <trkpt lat="43.1128" lon="-0.75004">
        <ele>288</ele>
        <time>2022-01-14T23:39:26Z</time>
      </trkpt>
      <trkpt lat="43.11282" lon="-0.75048">
        <ele>289</ele>
        <time>2022-01-14T23:39:33Z</time>
      </trkpt>
      <trkpt lat="43.11279" lon="-0.75217">
        <ele>292</ele>
        <time>2022-01-14T23:40:02Z</time>
      </trkpt>
      <trkpt lat="43.11281" lon="-0.7527">
        <ele>294</ele>
        <time>2022-01-14T23:40:11Z</time>
      </trkpt>
      <trkpt lat="43.11279" lon="-0.75368">
        <ele>301</ele>
        <time>2022-01-14T23:40:28Z</time>
      </trkpt>
      <trkpt lat="43.11281" lon="-0.75505">
        <ele>311</ele>
        <time>2022-01-14T23:40:51Z</time>
      </trkpt>
      <trkpt lat="43.11279" lon="-0.75568">
        <ele>312</ele>
        <time>2022-01-14T23:41:02Z</time>
      </trkpt>
      <trkpt lat="43.11273" lon="-0.75607">
        <ele>314</ele>
        <time>2022-01-14T23:41:09Z</time>
      </trkpt>
      <trkpt lat="43.1124" lon="-0.75768">
        <ele>321</ele>
        <time>2022-01-14T23:41:37Z</time>
      </trkpt>
      <trkpt lat="43.11241" lon="-0.75806">
        <ele>322</ele>
        <time>2022-01-14T23:41:44Z</time>
      </trkpt>
      <trkpt lat="43.11253" lon="-0.75839">
        <ele>323</ele>
        <time>2022-01-14T23:41:50Z</time>
      </trkpt>
      <trkpt lat="43.11275" lon="-0.75867">
        <ele>322</ele>
        <time>2022-01-14T23:41:57Z</time>
      </trkpt>
      <trkpt lat="43.1132" lon="-0.75907">
        <ele>321</ele>
        <time>2022-01-14T23:42:09Z</time>
      </trkpt>
      <trkpt lat="43.11336" lon="-0.75926">
        <ele>320</ele>
        <time>2022-01-14T23:42:14Z</time>
      </trkpt>
      <trkpt lat="43.11341" lon="-0.75967">
        <ele>320</ele>
        <time>2022-01-14T23:42:21Z</time>
      </trkpt>
      <trkpt lat="43.1134" lon="-0.75987">
        <ele>320</ele>
        <time>2022-01-14T23:42:25Z</time>
      </trkpt>
      <trkpt lat="43.11327" lon="-0.76051">
        <ele>322</ele>
        <time>2022-01-14T23:42:36Z</time>
      </trkpt>
      <trkpt lat="43.11327" lon="-0.76108">
        <ele>322</ele>
        <time>2022-01-14T23:42:46Z</time>
      </trkpt>
      <trkpt lat="43.11332" lon="-0.76222">
        <ele>323</ele>
        <time>2022-01-14T23:43:05Z</time>
      </trkpt>
      <trkpt lat="43.11331" lon="-0.76283">
        <ele>323</ele>
        <time>2022-01-14T23:43:16Z</time>
      </trkpt>
      <trkpt lat="43.11321" lon="-0.76343">
        <ele>322</ele>
        <time>2022-01-14T23:43:26Z</time>
      </trkpt>
      <trkpt lat="43.11317" lon="-0.7641">
        <ele>322</ele>
        <time>2022-01-14T23:43:38Z</time>
      </trkpt>
      <trkpt lat="43.11294" lon="-0.76474">
        <ele>322</ele>
        <time>2022-01-14T23:43:50Z</time>
      </trkpt>
      <trkpt lat="43.11279" lon="-0.76533">
        <ele>323</ele>
        <time>2022-01-14T23:44:01Z</time>
      </trkpt>
      <trkpt lat="43.1122" lon="-0.76729">
        <ele>322</ele>
        <time>2022-01-14T23:44:37Z</time>
      </trkpt>
      <trkpt lat="43.11189" lon="-0.76899">
        <ele>322</ele>
        <time>2022-01-14T23:45:07Z</time>
      </trkpt>
      <trkpt lat="43.11161" lon="-0.76976">
        <ele>320</ele>
        <time>2022-01-14T23:45:21Z</time>
      </trkpt>
      <trkpt lat="43.1115" lon="-0.76995">
        <ele>320</ele>
        <time>2022-01-14T23:45:25Z</time>
      </trkpt>
      <trkpt lat="43.11123" lon="-0.77025">
        <ele>319</ele>
        <time>2022-01-14T23:45:34Z</time>
      </trkpt>
      <trkpt lat="43.11098" lon="-0.77039">
        <ele>319</ele>
        <time>2022-01-14T23:45:40Z</time>
      </trkpt>
      <trkpt lat="43.11062" lon="-0.77051">
        <ele>320</ele>
        <time>2022-01-14T23:45:48Z</time>
      </trkpt>
      <trkpt lat="43.11038" lon="-0.77067">
        <ele>320</ele>
        <time>2022-01-14T23:45:55Z</time>
      </trkpt>
      <trkpt lat="43.11028" lon="-0.77085">
        <ele>319</ele>
        <time>2022-01-14T23:45:59Z</time>
      </trkpt>
      <trkpt lat="43.11026" lon="-0.77105">
        <ele>319</ele>
        <time>2022-01-14T23:46:02Z</time>
      </trkpt>
      <trkpt lat="43.11038" lon="-0.77295">
        <ele>317</ele>
        <time>2022-01-14T23:46:35Z</time>
      </trkpt>
      <trkpt lat="43.11045" lon="-0.77499">
        <ele>317</ele>
        <time>2022-01-14T23:47:09Z</time>
      </trkpt>
      <trkpt lat="43.11053" lon="-0.77856">
        <ele>331</ele>
        <time>2022-01-14T23:48:10Z</time>
      </trkpt>
      <trkpt lat="43.11084" lon="-0.7795">
        <ele>331</ele>
        <time>2022-01-14T23:48:28Z</time>
      </trkpt>
      <trkpt lat="43.11131" lon="-0.78068">
        <ele>337</ele>
        <time>2022-01-14T23:48:51Z</time>
      </trkpt>
      <trkpt lat="43.1115" lon="-0.78133">
        <ele>339</ele>
        <time>2022-01-14T23:49:03Z</time>
      </trkpt>
      <trkpt lat="43.11161" lon="-0.78186">
        <ele>339</ele>
        <time>2022-01-14T23:49:12Z</time>
      </trkpt>
      <trkpt lat="43.11163" lon="-0.78248">
        <ele>339</ele>
        <time>2022-01-14T23:49:23Z</time>
      </trkpt>
      <trkpt lat="43.11155" lon="-0.784">
        <ele>325</ele>
        <time>2022-01-14T23:49:49Z</time>
      </trkpt>
      <trkpt lat="43.11137" lon="-0.78445">
        <ele>327</ele>
        <time>2022-01-14T23:49:57Z</time>
      </trkpt>
      <trkpt lat="43.11103" lon="-0.7849">
        <ele>327</ele>
        <time>2022-01-14T23:50:08Z</time>
      </trkpt>
      <trkpt lat="43.11096" lon="-0.78509">
        <ele>328</ele>
        <time>2022-01-14T23:50:12Z</time>
      </trkpt>
      <trkpt lat="43.1109" lon="-0.78552">
        <ele>332</ele>
        <time>2022-01-14T23:50:20Z</time>
      </trkpt>
      <trkpt lat="43.1109" lon="-0.78581">
        <ele>335</ele>
        <time>2022-01-14T23:50:24Z</time>
      </trkpt>
      <trkpt lat="43.11086" lon="-0.78617">
        <ele>337</ele>
        <time>2022-01-14T23:50:31Z</time>
      </trkpt>
      <trkpt lat="43.11075" lon="-0.78658">
        <ele>338</ele>
        <time>2022-01-14T23:50:38Z</time>
      </trkpt>
      <trkpt lat="43.11039" lon="-0.78768">
        <ele>343</ele>
        <time>2022-01-14T23:50:59Z</time>
      </trkpt>
      <trkpt lat="43.11015" lon="-0.78822">
        <ele>344</ele>
        <time>2022-01-14T23:51:09Z</time>
      </trkpt>
      <trkpt lat="43.10974" lon="-0.78879">
        <ele>343</ele>
        <time>2022-01-14T23:51:23Z</time>
      </trkpt>
      <trkpt lat="43.10938" lon="-0.78914">
        <ele>338</ele>
        <time>2022-01-14T23:51:33Z</time>
      </trkpt>
      <trkpt lat="43.10878" lon="-0.78948">
        <ele>339</ele>
        <time>2022-01-14T23:51:49Z</time>
      </trkpt>
      <trkpt lat="43.10821" lon="-0.79001">
        <ele>343</ele>
        <time>2022-01-14T23:52:05Z</time>
      </trkpt>
      <trkpt lat="43.10798" lon="-0.79027">
        <ele>347</ele>
        <time>2022-01-14T23:52:12Z</time>
      </trkpt>
      <trkpt lat="43.1078" lon="-0.79041">
        <ele>347</ele>
        <time>2022-01-14T23:52:16Z</time>
      </trkpt>
      <trkpt lat="43.1076" lon="-0.79072">
        <ele>347</ele>
        <time>2022-01-14T23:52:23Z</time>
      </trkpt>
      <trkpt lat="43.10752" lon="-0.79097">
        <ele>349</ele>
        <time>2022-01-14T23:52:28Z</time>
      </trkpt>
      <trkpt lat="43.10732" lon="-0.79141">
        <ele>356</ele>
        <time>2022-01-14T23:52:37Z</time>
      </trkpt>
      <trkpt lat="43.1072" lon="-0.79153">
        <ele>357</ele>
        <time>2022-01-14T23:52:40Z</time>
      </trkpt>
      <trkpt lat="43.10699" lon="-0.79195">
        <ele>359</ele>
        <time>2022-01-14T23:52:49Z</time>
      </trkpt>
      <trkpt lat="43.10636" lon="-0.79266">
        <ele>357</ele>
        <time>2022-01-14T23:53:08Z</time>
      </trkpt>
      <trkpt lat="43.10593" lon="-0.79319">
        <ele>354</ele>
        <time>2022-01-14T23:53:22Z</time>
      </trkpt>
      <trkpt lat="43.10577" lon="-0.79345">
        <ele>354</ele>
        <time>2022-01-14T23:53:27Z</time>
      </trkpt>
      <trkpt lat="43.10546" lon="-0.79434">
        <ele>357</ele>
        <time>2022-01-14T23:53:44Z</time>
      </trkpt>
      <trkpt lat="43.10469" lon="-0.79612">
        <ele>360</ele>
        <time>2022-01-14T23:54:20Z</time>
      </trkpt>
      <trkpt lat="43.10449" lon="-0.79673">
        <ele>361</ele>
        <time>2022-01-14T23:54:31Z</time>
      </trkpt>
      <trkpt lat="43.10385" lon="-0.79833">
        <ele>364</ele>
        <time>2022-01-14T23:55:02Z</time>
      </trkpt>
      <trkpt lat="43.1036" lon="-0.79904">
        <ele>369</ele>
        <time>2022-01-14T23:55:16Z</time>
      </trkpt>
      <trkpt lat="43.10321" lon="-0.79994">
        <ele>374</ele>
        <time>2022-01-14T23:55:33Z</time>
      </trkpt>
      <trkpt lat="43.10313" lon="-0.80008">
        <ele>374</ele>
        <time>2022-01-14T23:55:36Z</time>
      </trkpt>
      <trkpt lat="43.10293" lon="-0.80072">
        <ele>375</ele>
        <time>2022-01-14T23:55:48Z</time>
      </trkpt>
      <trkpt lat="43.10292" lon="-0.80113">
        <ele>374</ele>
        <time>2022-01-14T23:55:55Z</time>
      </trkpt>
      <trkpt lat="43.10299" lon="-0.80283">
        <ele>359</ele>
        <time>2022-01-14T23:56:24Z</time>
      </trkpt>
      <trkpt lat="43.10297" lon="-0.80302">
        <ele>356</ele>
        <time>2022-01-14T23:56:28Z</time>
      </trkpt>
      <trkpt lat="43.10289" lon="-0.80336">
        <ele>350</ele>
        <time>2022-01-14T23:56:34Z</time>
      </trkpt>
      <trkpt lat="43.10287" lon="-0.80372">
        <ele>347</ele>
        <time>2022-01-14T23:56:40Z</time>
      </trkpt>
      <trkpt lat="43.10298" lon="-0.80409">
        <ele>347</ele>
        <time>2022-01-14T23:56:47Z</time>
      </trkpt>
      <trkpt lat="43.10314" lon="-0.80442">
        <ele>349</ele>
        <time>2022-01-14T23:56:53Z</time>
      </trkpt>
      <trkpt lat="43.1032" lon="-0.8046">
        <ele>349</ele>
        <time>2022-01-14T23:56:57Z</time>
      </trkpt>
      <trkpt lat="43.10323" lon="-0.8048">
        <ele>348</ele>
        <time>2022-01-14T23:57:00Z</time>
      </trkpt>
      <trkpt lat="43.10321" lon="-0.80522">
        <ele>346</ele>
        <time>2022-01-14T23:57:07Z</time>
      </trkpt>
      <trkpt lat="43.10312" lon="-0.80561">
        <ele>343</ele>
        <time>2022-01-14T23:57:14Z</time>
      </trkpt>
      <trkpt lat="43.10281" lon="-0.80636">
        <ele>336</ele>
        <time>2022-01-14T23:57:29Z</time>
      </trkpt>
      <trkpt lat="43.10263" lon="-0.80671">
        <ele>334</ele>
        <time>2022-01-14T23:57:36Z</time>
      </trkpt>
      <trkpt lat="43.1025" lon="-0.80685">
        <ele>333</ele>
        <time>2022-01-14T23:57:40Z</time>
      </trkpt>
      <trkpt lat="43.10197" lon="-0.80731">
        <ele>326</ele>
        <time>2022-01-14T23:57:55Z</time>
      </trkpt>
      <trkpt lat="43.10096" lon="-0.80805">
        <ele>312</ele>
        <time>2022-01-14T23:58:22Z</time>
      </trkpt>
      <trkpt lat="43.10074" lon="-0.80828">
        <ele>310</ele>
        <time>2022-01-14T23:58:28Z</time>
      </trkpt>
      <trkpt lat="43.10065" lon="-0.80842">
        <ele>308</ele>
        <time>2022-01-14T23:58:31Z</time>
      </trkpt>
      <trkpt lat="43.10059" lon="-0.8086">
        <ele>307</ele>
        <time>2022-01-14T23:58:35Z</time>
      </trkpt>
      <trkpt lat="43.10053" lon="-0.80901">
        <ele>305</ele>
        <time>2022-01-14T23:58:42Z</time>
      </trkpt>
      <trkpt lat="43.10058" lon="-0.80943">
        <ele>302</ele>
        <time>2022-01-14T23:58:49Z</time>
      </trkpt>
      <trkpt lat="43.10072" lon="-0.80984">
        <ele>296</ele>
        <time>2022-01-14T23:58:57Z</time>
      </trkpt>
      <trkpt lat="43.10126" lon="-0.81078">
        <ele>285</ele>
        <time>2022-01-14T23:59:17Z</time>
      </trkpt>
      <trkpt lat="43.10141" lon="-0.81119">
        <ele>281</ele>
        <time>2022-01-14T23:59:25Z</time>
      </trkpt>
      <trkpt lat="43.10153" lon="-0.81182">
        <ele>277</ele>
        <time>2022-01-14T23:59:36Z</time>
      </trkpt>
      <trkpt lat="43.10152" lon="-0.81241">
        <ele>277</ele>
        <time>2022-01-14T23:59:46Z</time>
      </trkpt>
      <trkpt lat="43.10143" lon="-0.81304">
        <ele>280</ele>
        <time>2022-01-14T23:59:57Z</time>
      </trkpt>
      <trkpt lat="43.1012" lon="-0.81407">
        <ele>286</ele>
        <time>2022-01-15T00:00:15Z</time>
      </trkpt>
      <trkpt lat="43.10106" lon="-0.81448">
        <ele>289</ele>
        <time>2022-01-15T00:00:23Z</time>
      </trkpt>
      <trkpt lat="43.10081" lon="-0.81489">
        <ele>293</ele>
        <time>2022-01-15T00:00:32Z</time>
      </trkpt>
      <trkpt lat="43.10075" lon="-0.81495">
        <ele>293</ele>
        <time>2022-01-15T00:00:34Z</time>
      </trkpt>
      <trkpt lat="43.10034" lon="-0.8153">
        <ele>289</ele>
        <time>2022-01-15T00:00:45Z</time>
      </trkpt>
      <trkpt lat="43.10012" lon="-0.8154">
        <ele>286</ele>
        <time>2022-01-15T00:00:51Z</time>
      </trkpt>
      <trkpt lat="43.09973" lon="-0.81548">
        <ele>280</ele>
        <time>2022-01-15T00:01:00Z</time>
      </trkpt>
      <trkpt lat="43.09943" lon="-0.81573">
        <ele>272</ele>
        <time>2022-01-15T00:01:08Z</time>
      </trkpt>
      <trkpt lat="43.09907" lon="-0.81634">
        <ele>265</ele>
        <time>2022-01-15T00:01:22Z</time>
      </trkpt>
      <trkpt lat="43.09849" lon="-0.81723">
        <ele>262</ele>
        <time>2022-01-15T00:01:42Z</time>
      </trkpt>
      <trkpt lat="43.09836" lon="-0.81756">
        <ele>263</ele>
        <time>2022-01-15T00:01:48Z</time>
      </trkpt>
      <trkpt lat="43.0982" lon="-0.81822">
        <ele>264</ele>
        <time>2022-01-15T00:02:00Z</time>
      </trkpt>
      <trkpt lat="43.09804" lon="-0.81916">
        <ele>266</ele>
        <time>2022-01-15T00:02:17Z</time>
      </trkpt>
      <trkpt lat="43.09802" lon="-0.81941">
        <ele>267</ele>
        <time>2022-01-15T00:02:21Z</time>
      </trkpt>
      <trkpt lat="43.09809" lon="-0.81974">
        <ele>268</ele>
        <time>2022-01-15T00:02:27Z</time>
      </trkpt>
      <trkpt lat="43.09847" lon="-0.82078">
        <ele>267</ele>
        <time>2022-01-15T00:02:47Z</time>
      </trkpt>
      <trkpt lat="43.09886" lon="-0.82197">
        <ele>265</ele>
        <time>2022-01-15T00:03:09Z</time>
      </trkpt>
      <trkpt lat="43.09986" lon="-0.82463">
        <ele>263</ele>
        <time>2022-01-15T00:04:00Z</time>
      </trkpt>
      <trkpt lat="43.10029" lon="-0.82564">
        <ele>264</ele>
        <time>2022-01-15T00:04:20Z</time>
      </trkpt>
      <trkpt lat="43.10033" lon="-0.82585">
        <ele>265</ele>
        <time>2022-01-15T00:04:23Z</time>
      </trkpt>
      <trkpt lat="43.10035" lon="-0.82631">
        <ele>263</ele>
        <time>2022-01-15T00:04:31Z</time>
      </trkpt>
      <trkpt lat="43.10025" lon="-0.82677">
        <ele>262</ele>
        <time>2022-01-15T00:04:39Z</time>
      </trkpt>
      <trkpt lat="43.09998" lon="-0.82749">
        <ele>259</ele>
        <time>2022-01-15T00:04:53Z</time>
      </trkpt>
      <trkpt lat="43.09992" lon="-0.82778">
        <ele>259</ele>
        <time>2022-01-15T00:04:58Z</time>
      </trkpt>
      <trkpt lat="43.0999" lon="-0.82825">
        <ele>257</ele>
        <time>2022-01-15T00:05:06Z</time>
      </trkpt>
      <trkpt lat="43.10048" lon="-0.83136">
        <ele>252</ele>
        <time>2022-01-15T00:06:01Z</time>
      </trkpt>
      <trkpt lat="43.1006" lon="-0.83215">
        <ele>253</ele>
        <time>2022-01-15T00:06:15Z</time>
      </trkpt>
      <trkpt lat="43.10078" lon="-0.83359">
        <ele>254</ele>
        <time>2022-01-15T00:06:40Z</time>
      </trkpt>
      <trkpt lat="43.10127" lon="-0.83817">
        <ele>249</ele>
        <time>2022-01-15T00:07:59Z</time>
      </trkpt>
      <trkpt lat="43.10133" lon="-0.83893">
        <ele>255</ele>
        <time>2022-01-15T00:08:12Z</time>
      </trkpt>
      <trkpt lat="43.10128" lon="-0.83962">
        <ele>255</ele>
        <time>2022-01-15T00:08:24Z</time>
      </trkpt>
      <trkpt lat="43.10113" lon="-0.84037">
        <ele>251</ele>
        <time>2022-01-15T00:08:37Z</time>
      </trkpt>
      <trkpt lat="43.10109" lon="-0.84093">
        <ele>248</ele>
        <time>2022-01-15T00:08:46Z</time>
      </trkpt>
      <trkpt lat="43.10116" lon="-0.84167">
        <ele>245</ele>
        <time>2022-01-15T00:08:59Z</time>
      </trkpt>
      <trkpt lat="43.10142" lon="-0.84294">
        <ele>244</ele>
        <time>2022-01-15T00:09:22Z</time>
      </trkpt>
      <trkpt lat="43.10143" lon="-0.84373">
        <ele>246</ele>
        <time>2022-01-15T00:09:35Z</time>
      </trkpt>
      <trkpt lat="43.10138" lon="-0.84479">
        <ele>246</ele>
        <time>2022-01-15T00:09:53Z</time>
      </trkpt>
      <trkpt lat="43.10139" lon="-0.84531">
        <ele>244</ele>
        <time>2022-01-15T00:10:02Z</time>
      </trkpt>
      <trkpt lat="43.10145" lon="-0.84609">
        <ele>243</ele>
        <time>2022-01-15T00:10:16Z</time>
      </trkpt>
      <trkpt lat="43.10178" lon="-0.84883">
        <ele>241</ele>
        <time>2022-01-15T00:11:03Z</time>
      </trkpt>
      <trkpt lat="43.1019" lon="-0.84968">
        <ele>243</ele>
        <time>2022-01-15T00:11:18Z</time>
      </trkpt>
      <trkpt lat="43.10206" lon="-0.85043">
        <ele>244</ele>
        <time>2022-01-15T00:11:31Z</time>
      </trkpt>
      <trkpt lat="43.10231" lon="-0.85097">
        <ele>245</ele>
        <time>2022-01-15T00:11:42Z</time>
      </trkpt>
      <trkpt lat="43.10242" lon="-0.85112">
        <ele>246</ele>
        <time>2022-01-15T00:11:45Z</time>
      </trkpt>
      <trkpt lat="43.10338" lon="-0.8521">
        <ele>248</ele>
        <time>2022-01-15T00:12:13Z</time>
      </trkpt>
      <trkpt lat="43.10462" lon="-0.85365">
        <ele>250</ele>
        <time>2022-01-15T00:12:53Z</time>
      </trkpt>
      <trkpt lat="43.10526" lon="-0.85469">
        <ele>248</ele>
        <time>2022-01-15T00:13:16Z</time>
      </trkpt>
      <trkpt lat="43.10572" lon="-0.85552">
        <ele>247</ele>
        <time>2022-01-15T00:13:34Z</time>
      </trkpt>
      <trkpt lat="43.10618" lon="-0.85664">
        <ele>242</ele>
        <time>2022-01-15T00:13:56Z</time>
      </trkpt>
      <trkpt lat="43.10647" lon="-0.85693">
        <ele>242</ele>
        <time>2022-01-15T00:14:04Z</time>
      </trkpt>
      <trkpt lat="43.10712" lon="-0.85716">
        <ele>247</ele>
        <time>2022-01-15T00:14:20Z</time>
      </trkpt>
      <trkpt lat="43.10763" lon="-0.85755">
        <ele>245</ele>
        <time>2022-01-15T00:14:33Z</time>
      </trkpt>
      <trkpt lat="43.10782" lon="-0.85781">
        <ele>245</ele>
        <time>2022-01-15T00:14:40Z</time>
      </trkpt>
      <trkpt lat="43.10816" lon="-0.85841">
        <ele>240</ele>
        <time>2022-01-15T00:14:52Z</time>
      </trkpt>
      <trkpt lat="43.10849" lon="-0.85891">
        <ele>237</ele>
        <time>2022-01-15T00:15:04Z</time>
      </trkpt>
      <trkpt lat="43.10892" lon="-0.85926">
        <ele>234</ele>
        <time>2022-01-15T00:15:16Z</time>
      </trkpt>
      <trkpt lat="43.10923" lon="-0.8596">
        <ele>232</ele>
        <time>2022-01-15T00:15:25Z</time>
      </trkpt>
      <trkpt lat="43.10941" lon="-0.85975">
        <ele>231</ele>
        <time>2022-01-15T00:15:30Z</time>
      </trkpt>
      <trkpt lat="43.11007" lon="-0.86009">
        <ele>229</ele>
        <time>2022-01-15T00:15:46Z</time>
      </trkpt>
      <trkpt lat="43.11026" lon="-0.86016">
        <ele>229</ele>
        <time>2022-01-15T00:15:51Z</time>
      </trkpt>
      <trkpt lat="43.11129" lon="-0.86003">
        <ele>235</ele>
        <time>2022-01-15T00:16:15Z</time>
      </trkpt>
      <trkpt lat="43.11167" lon="-0.86008">
        <ele>237</ele>
        <time>2022-01-15T00:16:24Z</time>
      </trkpt>
      <trkpt lat="43.112" lon="-0.86016">
        <ele>241</ele>
        <time>2022-01-15T00:16:32Z</time>
      </trkpt>
      <trkpt lat="43.11224" lon="-0.86025">
        <ele>243</ele>
        <time>2022-01-15T00:16:38Z</time>
      </trkpt>
      <trkpt lat="43.11241" lon="-0.86035">
        <ele>242</ele>
        <time>2022-01-15T00:16:42Z</time>
      </trkpt>
      <trkpt lat="43.11312" lon="-0.86093">
        <ele>234</ele>
        <time>2022-01-15T00:17:01Z</time>
      </trkpt>
      <trkpt lat="43.11363" lon="-0.86118">
        <ele>236</ele>
        <time>2022-01-15T00:17:14Z</time>
      </trkpt>
      <trkpt lat="43.11455" lon="-0.86168">
        <ele>231</ele>
        <time>2022-01-15T00:17:37Z</time>
      </trkpt>
      <trkpt lat="43.11484" lon="-0.86175">
        <ele>232</ele>
        <time>2022-01-15T00:17:44Z</time>
      </trkpt>
      <trkpt lat="43.1151" lon="-0.86189">
        <ele>232</ele>
        <time>2022-01-15T00:17:50Z</time>
      </trkpt>
      <trkpt lat="43.1155" lon="-0.86228">
        <ele>229</ele>
        <time>2022-01-15T00:18:02Z</time>
      </trkpt>
      <trkpt lat="43.11625" lon="-0.86315">
        <ele>226</ele>
        <time>2022-01-15T00:18:25Z</time>
      </trkpt>
      <trkpt lat="43.11648" lon="-0.86336">
        <ele>225</ele>
        <time>2022-01-15T00:18:31Z</time>
      </trkpt>
      <trkpt lat="43.1172" lon="-0.86319">
        <ele>226</ele>
        <time>2022-01-15T00:18:48Z</time>
      </trkpt>
      <trkpt lat="43.11742" lon="-0.86318">
        <ele>227</ele>
        <time>2022-01-15T00:18:53Z</time>
      </trkpt>
      <trkpt lat="43.11744" lon="-0.8634">
        <ele>225</ele>
        <time>2022-01-15T00:18:57Z</time>
      </trkpt>
      <trkpt lat="43.11722" lon="-0.86376">
        <ele>223</ele>
        <time>2022-01-15T00:19:05Z</time>
      </trkpt>
      <trkpt lat="43.11723" lon="-0.86385">
        <ele>222</ele>
        <time>2022-01-15T00:19:07Z</time>
      </trkpt>
      <trkpt lat="43.11746" lon="-0.8642">
        <ele>222</ele>
        <time>2022-01-15T00:19:15Z</time>
      </trkpt>
      <trkpt lat="43.11783" lon="-0.86459">
        <ele>223</ele>
        <time>2022-01-15T00:19:26Z</time>
      </trkpt>
      <trkpt lat="43.11794" lon="-0.86463">
        <ele>223</ele>
        <time>2022-01-15T00:19:28Z</time>
      </trkpt>
      <trkpt lat="43.11808" lon="-0.86476">
        <ele>223</ele>
        <time>2022-01-15T00:19:32Z</time>
      </trkpt>
      <trkpt lat="43.1183" lon="-0.86487">
        <ele>223</ele>
        <time>2022-01-15T00:19:38Z</time>
      </trkpt>
      <trkpt lat="43.11899" lon="-0.86532">
        <ele>229</ele>
        <time>2022-01-15T00:19:56Z</time>
      </trkpt>
      <trkpt lat="43.11951" lon="-0.86575">
        <ele>227</ele>
        <time>2022-01-15T00:20:10Z</time>
      </trkpt>
      <trkpt lat="43.1197" lon="-0.86602">
        <ele>225</ele>
        <time>2022-01-15T00:20:16Z</time>
      </trkpt>
      <trkpt lat="43.11994" lon="-0.86628">
        <ele>223</ele>
        <time>2022-01-15T00:20:23Z</time>
      </trkpt>
      <trkpt lat="43.12015" lon="-0.86664">
        <ele>218</ele>
        <time>2022-01-15T00:20:31Z</time>
      </trkpt>
      <trkpt lat="43.12031" lon="-0.86681">
        <ele>217</ele>
        <time>2022-01-15T00:20:36Z</time>
      </trkpt>
      <trkpt lat="43.12044" lon="-0.8671">
        <ele>216</ele>
        <time>2022-01-15T00:20:42Z</time>
      </trkpt>
      <trkpt lat="43.12078" lon="-0.86753">
        <ele>217</ele>
        <time>2022-01-15T00:20:53Z</time>
      </trkpt>
      <trkpt lat="43.12099" lon="-0.86785">
        <ele>222</ele>
        <time>2022-01-15T00:21:00Z</time>
      </trkpt>
      <trkpt lat="43.12123" lon="-0.86837">
        <ele>226</ele>
        <time>2022-01-15T00:21:10Z</time>
      </trkpt>
      <trkpt lat="43.12188" lon="-0.86957">
        <ele>226</ele>
        <time>2022-01-15T00:21:36Z</time>
      </trkpt>
      <trkpt lat="43.12202" lon="-0.8699">
        <ele>228</ele>
        <time>2022-01-15T00:21:42Z</time>
      </trkpt>
      <trkpt lat="43.12219" lon="-0.8704">
        <ele>229</ele>
        <time>2022-01-15T00:21:52Z</time>
      </trkpt>
      <trkpt lat="43.12293" lon="-0.8731">
        <ele>231</ele>
        <time>2022-01-15T00:22:41Z</time>
      </trkpt>
      <trkpt lat="43.12338" lon="-0.87465">
        <ele>223</ele>
        <time>2022-01-15T00:23:09Z</time>
      </trkpt>
      <trkpt lat="43.12356" lon="-0.875">
        <ele>221</ele>
        <time>2022-01-15T00:23:17Z</time>
      </trkpt>
      <trkpt lat="43.12379" lon="-0.87524">
        <ele>221</ele>
        <time>2022-01-15T00:23:23Z</time>
      </trkpt>
      <trkpt lat="43.12404" lon="-0.87544">
        <ele>222</ele>
        <time>2022-01-15T00:23:30Z</time>
      </trkpt>
      <trkpt lat="43.12443" lon="-0.87555">
        <ele>222</ele>
        <time>2022-01-15T00:23:39Z</time>
      </trkpt>
      <trkpt lat="43.12536" lon="-0.87571">
        <ele>220</ele>
        <time>2022-01-15T00:24:01Z</time>
      </trkpt>
      <trkpt lat="43.12736" lon="-0.87594">
        <ele>220</ele>
        <time>2022-01-15T00:24:48Z</time>
      </trkpt>
      <trkpt lat="43.12856" lon="-0.876">
        <ele>219</ele>
        <time>2022-01-15T00:25:16Z</time>
      </trkpt>
      <trkpt lat="43.12895" lon="-0.87612">
        <ele>218</ele>
        <time>2022-01-15T00:25:26Z</time>
      </trkpt>
      <trkpt lat="43.1306" lon="-0.87632">
        <ele>218</ele>
        <time>2022-01-15T00:26:04Z</time>
      </trkpt>
      <trkpt lat="43.13096" lon="-0.87653">
        <ele>218</ele>
        <time>2022-01-15T00:26:13Z</time>
      </trkpt>
      <trkpt lat="43.13124" lon="-0.87676">
        <ele>219</ele>
        <time>2022-01-15T00:26:21Z</time>
      </trkpt>
      <trkpt lat="43.13156" lon="-0.87681">
        <ele>219</ele>
        <time>2022-01-15T00:26:29Z</time>
      </trkpt>
      <trkpt lat="43.13243" lon="-0.87669">
        <ele>215</ele>
        <time>2022-01-15T00:26:49Z</time>
      </trkpt>
      <trkpt lat="43.13274" lon="-0.87662">
        <ele>214</ele>
        <time>2022-01-15T00:26:56Z</time>
      </trkpt>
      <trkpt lat="43.13412" lon="-0.87649">
        <ele>212</ele>
        <time>2022-01-15T00:27:29Z</time>
      </trkpt>
      <trkpt lat="43.13435" lon="-0.87633">
        <ele>212</ele>
        <time>2022-01-15T00:27:35Z</time>
      </trkpt>
      <trkpt lat="43.13462" lon="-0.87599">
        <ele>212</ele>
        <time>2022-01-15T00:27:43Z</time>
      </trkpt>
      <trkpt lat="43.13497" lon="-0.8756">
        <ele>212</ele>
        <time>2022-01-15T00:27:54Z</time>
      </trkpt>
      <trkpt lat="43.13511" lon="-0.87548">
        <ele>212</ele>
        <time>2022-01-15T00:27:58Z</time>
      </trkpt>
      <trkpt lat="43.13539" lon="-0.87539">
        <ele>212</ele>
        <time>2022-01-15T00:28:04Z</time>
      </trkpt>
      <trkpt lat="43.13603" lon="-0.87544">
        <ele>211</ele>
        <time>2022-01-15T00:28:19Z</time>
      </trkpt>
      <trkpt lat="43.13645" lon="-0.87551">
        <ele>211</ele>
        <time>2022-01-15T00:28:29Z</time>
      </trkpt>
      <trkpt lat="43.13683" lon="-0.87564">
        <ele>210</ele>
        <time>2022-01-15T00:28:38Z</time>
      </trkpt>
      <trkpt lat="43.13741" lon="-0.87593">
        <ele>209</ele>
        <time>2022-01-15T00:28:53Z</time>
      </trkpt>
      <trkpt lat="43.1389" lon="-0.87675">
        <ele>208</ele>
        <time>2022-01-15T00:29:30Z</time>
      </trkpt>
      <trkpt lat="43.14006" lon="-0.87735">
        <ele>206</ele>
        <time>2022-01-15T00:29:59Z</time>
      </trkpt>
      <trkpt lat="43.1407" lon="-0.87771">
        <ele>206</ele>
        <time>2022-01-15T00:30:15Z</time>
      </trkpt>
      <trkpt lat="43.14094" lon="-0.87787">
        <ele>207</ele>
        <time>2022-01-15T00:30:22Z</time>
      </trkpt>
      <trkpt lat="43.14133" lon="-0.87826">
        <ele>207</ele>
        <time>2022-01-15T00:30:33Z</time>
      </trkpt>
      <trkpt lat="43.14162" lon="-0.87871">
        <ele>207</ele>
        <time>2022-01-15T00:30:43Z</time>
      </trkpt>
      <trkpt lat="43.1432" lon="-0.88219">
        <ele>205</ele>
        <time>2022-01-15T00:31:53Z</time>
      </trkpt>
      <trkpt lat="43.14341" lon="-0.88261">
        <ele>205</ele>
        <time>2022-01-15T00:32:02Z</time>
      </trkpt>
      <trkpt lat="43.14399" lon="-0.88395">
        <ele>204</ele>
        <time>2022-01-15T00:32:28Z</time>
      </trkpt>
      <trkpt lat="43.14496" lon="-0.88608">
        <ele>205</ele>
        <time>2022-01-15T00:33:11Z</time>
      </trkpt>
      <trkpt lat="43.14561" lon="-0.88812">
        <ele>212</ele>
        <time>2022-01-15T00:33:49Z</time>
      </trkpt>
      <trkpt lat="43.14575" lon="-0.88845">
        <ele>212</ele>
        <time>2022-01-15T00:33:55Z</time>
      </trkpt>
      <trkpt lat="43.14589" lon="-0.88887">
        <ele>208</ele>
        <time>2022-01-15T00:34:03Z</time>
      </trkpt>
      <trkpt lat="43.14616" lon="-0.88926">
        <ele>205</ele>
        <time>2022-01-15T00:34:12Z</time>
      </trkpt>
      <trkpt lat="43.14641" lon="-0.8895">
        <ele>204</ele>
        <time>2022-01-15T00:34:20Z</time>
      </trkpt>
      <trkpt lat="43.14652" lon="-0.88956">
        <ele>204</ele>
        <time>2022-01-15T00:34:22Z</time>
      </trkpt>
      <trkpt lat="43.14668" lon="-0.8896">
        <ele>204</ele>
        <time>2022-01-15T00:34:26Z</time>
      </trkpt>
      <trkpt lat="43.14686" lon="-0.88961">
        <ele>203</ele>
        <time>2022-01-15T00:34:30Z</time>
      </trkpt>
      <trkpt lat="43.14725" lon="-0.88951">
        <ele>201</ele>
        <time>2022-01-15T00:34:40Z</time>
      </trkpt>
      <trkpt lat="43.14805" lon="-0.88947">
        <ele>198</ele>
        <time>2022-01-15T00:34:58Z</time>
      </trkpt>
      <trkpt lat="43.14994" lon="-0.89004">
        <ele>196</ele>
        <time>2022-01-15T00:35:43Z</time>
      </trkpt>
      <trkpt lat="43.15068" lon="-0.89022">
        <ele>195</ele>
        <time>2022-01-15T00:36:01Z</time>
      </trkpt>
      <trkpt lat="43.15135" lon="-0.8903">
        <ele>194</ele>
        <time>2022-01-15T00:36:17Z</time>
      </trkpt>
      <trkpt lat="43.15214" lon="-0.89047">
        <ele>195</ele>
        <time>2022-01-15T00:36:35Z</time>
      </trkpt>
      <trkpt lat="43.15228" lon="-0.89052">
        <ele>195</ele>
        <time>2022-01-15T00:36:39Z</time>
      </trkpt>
      <trkpt lat="43.15276" lon="-0.89077">
        <ele>195</ele>
        <time>2022-01-15T00:36:51Z</time>
      </trkpt>
      <trkpt lat="43.15361" lon="-0.89096">
        <ele>195</ele>
        <time>2022-01-15T00:37:11Z</time>
      </trkpt>
      <trkpt lat="43.1539" lon="-0.89097">
        <ele>194</ele>
        <time>2022-01-15T00:37:18Z</time>
      </trkpt>
      <trkpt lat="43.15438" lon="-0.89109">
        <ele>194</ele>
        <time>2022-01-15T00:37:29Z</time>
      </trkpt>
      <trkpt lat="43.15465" lon="-0.89113">
        <ele>194</ele>
        <time>2022-01-15T00:37:35Z</time>
      </trkpt>
      <trkpt lat="43.15616" lon="-0.89146">
        <ele>192</ele>
        <time>2022-01-15T00:38:11Z</time>
      </trkpt>
      <trkpt lat="43.15881" lon="-0.89246">
        <ele>192</ele>
        <time>2022-01-15T00:39:15Z</time>
      </trkpt>
      <trkpt lat="43.15973" lon="-0.89249">
        <ele>193</ele>
        <time>2022-01-15T00:39:37Z</time>
      </trkpt>
      <trkpt lat="43.16008" lon="-0.8923">
        <ele>200</ele>
        <time>2022-01-15T00:39:46Z</time>
      </trkpt>
      <trkpt lat="43.16042" lon="-0.8922">
        <ele>202</ele>
        <time>2022-01-15T00:39:54Z</time>
      </trkpt>
      <trkpt lat="43.16121" lon="-0.89226">
        <ele>199</ele>
        <time>2022-01-15T00:40:12Z</time>
      </trkpt>
      <trkpt lat="43.1616" lon="-0.8924">
        <ele>194</ele>
        <time>2022-01-15T00:40:22Z</time>
      </trkpt>
      <trkpt lat="43.16208" lon="-0.89251">
        <ele>192</ele>
        <time>2022-01-15T00:40:33Z</time>
      </trkpt>
      <trkpt lat="43.16285" lon="-0.89237">
        <ele>192</ele>
        <time>2022-01-15T00:40:51Z</time>
      </trkpt>
      <trkpt lat="43.1637" lon="-0.89235">
        <ele>189</ele>
        <time>2022-01-15T00:41:11Z</time>
      </trkpt>
      <trkpt lat="43.16384" lon="-0.89232">
        <ele>189</ele>
        <time>2022-01-15T00:41:14Z</time>
      </trkpt>
      <trkpt lat="43.16423" lon="-0.8923">
        <ele>189</ele>
        <time>2022-01-15T00:41:23Z</time>
      </trkpt>
      <trkpt lat="43.16437" lon="-0.89232">
        <ele>189</ele>
        <time>2022-01-15T00:41:27Z</time>
      </trkpt>
      <trkpt lat="43.16524" lon="-0.89275">
        <ele>190</ele>
        <time>2022-01-15T00:41:48Z</time>
      </trkpt>
      <trkpt lat="43.16681" lon="-0.89336">
        <ele>203</ele>
        <time>2022-01-15T00:42:26Z</time>
      </trkpt>
      <trkpt lat="43.16732" lon="-0.89377">
        <ele>201</ele>
        <time>2022-01-15T00:42:40Z</time>
      </trkpt>
      <trkpt lat="43.16824" lon="-0.89477">
        <ele>188</ele>
        <time>2022-01-15T00:43:08Z</time>
      </trkpt>
      <trkpt lat="43.16859" lon="-0.89519">
        <ele>182</ele>
        <time>2022-01-15T00:43:18Z</time>
      </trkpt>
      <trkpt lat="43.16917" lon="-0.89574">
        <ele>178</ele>
        <time>2022-01-15T00:43:35Z</time>
      </trkpt>
      <trkpt lat="43.16952" lon="-0.89602">
        <ele>177</ele>
        <time>2022-01-15T00:43:44Z</time>
      </trkpt>
      <trkpt lat="43.16974" lon="-0.89616">
        <ele>177</ele>
        <time>2022-01-15T00:43:50Z</time>
      </trkpt>
      <trkpt lat="43.16998" lon="-0.89624">
        <ele>178</ele>
        <time>2022-01-15T00:43:56Z</time>
      </trkpt>
      <trkpt lat="43.17097" lon="-0.89638">
        <ele>182</ele>
        <time>2022-01-15T00:44:19Z</time>
      </trkpt>
      <trkpt lat="43.17125" lon="-0.89657">
        <ele>187</ele>
        <time>2022-01-15T00:44:26Z</time>
      </trkpt>
      <trkpt lat="43.17142" lon="-0.89679">
        <ele>189</ele>
        <time>2022-01-15T00:44:32Z</time>
      </trkpt>
      <trkpt lat="43.17176" lon="-0.89754">
        <ele>190</ele>
        <time>2022-01-15T00:44:47Z</time>
      </trkpt>
      <trkpt lat="43.17184" lon="-0.89763">
        <ele>190</ele>
        <time>2022-01-15T00:44:49Z</time>
      </trkpt>
      <trkpt lat="43.17198" lon="-0.89771">
        <ele>191</ele>
        <time>2022-01-15T00:44:53Z</time>
      </trkpt>
      <trkpt lat="43.17226" lon="-0.8977">
        <ele>197</ele>
        <time>2022-01-15T00:44:59Z</time>
      </trkpt>
      <trkpt lat="43.17274" lon="-0.89782">
        <ele>202</ele>
        <time>2022-01-15T00:45:11Z</time>
      </trkpt>
      <trkpt lat="43.1734" lon="-0.89844">
        <ele>196</ele>
        <time>2022-01-15T00:45:29Z</time>
      </trkpt>
      <trkpt lat="43.17369" lon="-0.89866">
        <ele>192</ele>
        <time>2022-01-15T00:45:37Z</time>
      </trkpt>
      <trkpt lat="43.17382" lon="-0.89879">
        <ele>189</ele>
        <time>2022-01-15T00:45:41Z</time>
      </trkpt>
      <trkpt lat="43.17434" lon="-0.89918">
        <ele>178</ele>
        <time>2022-01-15T00:45:55Z</time>
      </trkpt>
      <trkpt lat="43.17451" lon="-0.89929">
        <ele>177</ele>
        <time>2022-01-15T00:45:59Z</time>
      </trkpt>
      <trkpt lat="43.17479" lon="-0.89941">
        <ele>176</ele>
        <time>2022-01-15T00:46:06Z</time>
      </trkpt>
      <trkpt lat="43.17567" lon="-0.89969">
        <ele>176</ele>
        <time>2022-01-15T00:46:27Z</time>
      </trkpt>
      <trkpt lat="43.17612" lon="-0.8999">
        <ele>180</ele>
        <time>2022-01-15T00:46:38Z</time>
      </trkpt>
      <trkpt lat="43.17702" lon="-0.90054">
        <ele>189</ele>
        <time>2022-01-15T00:47:02Z</time>
      </trkpt>
      <trkpt lat="43.17771" lon="-0.90118">
        <ele>186</ele>
        <time>2022-01-15T00:47:21Z</time>
      </trkpt>
      <trkpt lat="43.17815" lon="-0.90141">
        <ele>181</ele>
        <time>2022-01-15T00:47:32Z</time>
      </trkpt>
      <trkpt lat="43.17858" lon="-0.9015">
        <ele>178</ele>
        <time>2022-01-15T00:47:42Z</time>
      </trkpt>
      <trkpt lat="43.17902" lon="-0.90142">
        <ele>177</ele>
        <time>2022-01-15T00:47:53Z</time>
      </trkpt>
      <trkpt lat="43.17918" lon="-0.90144">
        <ele>176</ele>
        <time>2022-01-15T00:47:57Z</time>
      </trkpt>
      <trkpt lat="43.17934" lon="-0.90151">
        <ele>178</ele>
        <time>2022-01-15T00:48:00Z</time>
      </trkpt>
      <trkpt lat="43.17954" lon="-0.90167">
        <ele>178</ele>
        <time>2022-01-15T00:48:06Z</time>
      </trkpt>
      <trkpt lat="43.18004" lon="-0.90225">
        <ele>174</ele>
        <time>2022-01-15T00:48:21Z</time>
      </trkpt>
      <trkpt lat="43.18047" lon="-0.90262">
        <ele>169</ele>
        <time>2022-01-15T00:48:33Z</time>
      </trkpt>
      <trkpt lat="43.18064" lon="-0.90272">
        <ele>169</ele>
        <time>2022-01-15T00:48:37Z</time>
      </trkpt>
      <trkpt lat="43.18099" lon="-0.90276">
        <ele>169</ele>
        <time>2022-01-15T00:48:46Z</time>
      </trkpt>
      <trkpt lat="43.18176" lon="-0.90279">
        <ele>168</ele>
        <time>2022-01-15T00:49:04Z</time>
      </trkpt>
      <trkpt lat="43.18219" lon="-0.90285">
        <ele>167</ele>
        <time>2022-01-15T00:49:14Z</time>
      </trkpt>
      <trkpt lat="43.18358" lon="-0.9029">
        <ele>166</ele>
        <time>2022-01-15T00:49:46Z</time>
      </trkpt>
      <trkpt lat="43.18459" lon="-0.90297">
        <ele>167</ele>
        <time>2022-01-15T00:50:10Z</time>
      </trkpt>
      <trkpt lat="43.18578" lon="-0.90309">
        <ele>165</ele>
        <time>2022-01-15T00:50:38Z</time>
      </trkpt>
      <trkpt lat="43.18735" lon="-0.90316">
        <ele>163</ele>
        <time>2022-01-15T00:51:14Z</time>
      </trkpt>
      <trkpt lat="43.18927" lon="-0.90331">
        <ele>164</ele>
        <time>2022-01-15T00:51:59Z</time>
      </trkpt>
      <trkpt lat="43.18969" lon="-0.90331">
        <ele>165</ele>
        <time>2022-01-15T00:52:09Z</time>
      </trkpt>
      <trkpt lat="43.19093" lon="-0.90337">
        <ele>163</ele>
        <time>2022-01-15T00:52:38Z</time>
      </trkpt>
      <trkpt lat="43.19208" lon="-0.90333">
        <ele>160</ele>
        <time>2022-01-15T00:53:05Z</time>
      </trkpt>
      <trkpt lat="43.1938" lon="-0.90322">
        <ele>159</ele>
        <time>2022-01-15T00:53:45Z</time>
      </trkpt>
      <trkpt lat="43.19605" lon="-0.90312">
        <ele>162</ele>
        <time>2022-01-15T00:54:38Z</time>
      </trkpt>
      <trkpt lat="43.19666" lon="-0.90314">
        <ele>159</ele>
        <time>2022-01-15T00:54:52Z</time>
      </trkpt>
      <trkpt lat="43.1982" lon="-0.90304">
        <ele>157</ele>
        <time>2022-01-15T00:55:28Z</time>
      </trkpt>
      <trkpt lat="43.19842" lon="-0.90307">
        <ele>158</ele>
        <time>2022-01-15T00:55:33Z</time>
      </trkpt>
      <trkpt lat="43.1988" lon="-0.90296">
        <ele>160</ele>
        <time>2022-01-15T00:55:42Z</time>
      </trkpt>
      <trkpt lat="43.19971" lon="-0.90246">
        <ele>161</ele>
        <time>2022-01-15T00:56:05Z</time>
      </trkpt>
      <trkpt lat="43.20001" lon="-0.90239">
        <ele>161</ele>
        <time>2022-01-15T00:56:12Z</time>
      </trkpt>
      <trkpt lat="43.20059" lon="-0.90236">
        <ele>160</ele>
        <time>2022-01-15T00:56:26Z</time>
      </trkpt>
      <trkpt lat="43.20102" lon="-0.90227">
        <ele>159</ele>
        <time>2022-01-15T00:56:36Z</time>
      </trkpt>
      <trkpt lat="43.20126" lon="-0.90221">
        <ele>158</ele>
        <time>2022-01-15T00:56:42Z</time>
      </trkpt>
      <trkpt lat="43.2015" lon="-0.90207">
        <ele>157</ele>
        <time>2022-01-15T00:56:48Z</time>
      </trkpt>
      <trkpt lat="43.20186" lon="-0.9017">
        <ele>156</ele>
        <time>2022-01-15T00:56:58Z</time>
      </trkpt>
      <trkpt lat="43.20245" lon="-0.90124">
        <ele>154</ele>
        <time>2022-01-15T00:57:14Z</time>
      </trkpt>
      <trkpt lat="43.2027" lon="-0.90101">
        <ele>154</ele>
        <time>2022-01-15T00:57:21Z</time>
      </trkpt>
      <trkpt lat="43.20385" lon="-0.90014">
        <ele>155</ele>
        <time>2022-01-15T00:57:52Z</time>
      </trkpt>
      <trkpt lat="43.20583" lon="-0.89859">
        <ele>153</ele>
        <time>2022-01-15T00:58:45Z</time>
      </trkpt>
      <trkpt lat="43.20752" lon="-0.89731">
        <ele>151</ele>
        <time>2022-01-15T00:59:30Z</time>
      </trkpt>
      <trkpt lat="43.20802" lon="-0.89697">
        <ele>150</ele>
        <time>2022-01-15T00:59:43Z</time>
      </trkpt>
      <trkpt lat="43.21014" lon="-0.89533">
        <ele>148</ele>
        <time>2022-01-15T01:00:40Z</time>
      </trkpt>
      <trkpt lat="43.21057" lon="-0.89497">
        <ele>148</ele>
        <time>2022-01-15T01:00:52Z</time>
      </trkpt>
      <trkpt lat="43.21086" lon="-0.89477">
        <ele>148</ele>
        <time>2022-01-15T01:00:59Z</time>
      </trkpt>
      <trkpt lat="43.21206" lon="-0.89384">
        <ele>149</ele>
        <time>2022-01-15T01:01:31Z</time>
      </trkpt>
      <trkpt lat="43.2131" lon="-0.89306">
        <ele>146</ele>
        <time>2022-01-15T01:01:59Z</time>
      </trkpt>
      <trkpt lat="43.2137" lon="-0.89265">
        <ele>145</ele>
        <time>2022-01-15T01:02:15Z</time>
      </trkpt>
      <trkpt lat="43.214" lon="-0.89274">
        <ele>145</ele>
        <time>2022-01-15T01:02:22Z</time>
      </trkpt>
      <trkpt lat="43.21415" lon="-0.89305">
        <ele>145</ele>
        <time>2022-01-15T01:02:28Z</time>
      </trkpt>
      <trkpt lat="43.21429" lon="-0.89351">
        <ele>145</ele>
        <time>2022-01-15T01:02:37Z</time>
      </trkpt>
      <trkpt lat="43.21461" lon="-0.89425">
        <ele>143</ele>
        <time>2022-01-15T01:02:51Z</time>
      </trkpt>
      <trkpt lat="43.21472" lon="-0.8944">
        <ele>143</ele>
        <time>2022-01-15T01:02:55Z</time>
      </trkpt>
      <trkpt lat="43.21492" lon="-0.89455">
        <ele>143</ele>
        <time>2022-01-15T01:03:00Z</time>
      </trkpt>
      <trkpt lat="43.21507" lon="-0.8946">
        <ele>143</ele>
        <time>2022-01-15T01:03:04Z</time>
      </trkpt>
      <trkpt lat="43.21528" lon="-0.89461">
        <ele>143</ele>
        <time>2022-01-15T01:03:09Z</time>
      </trkpt>
      <trkpt lat="43.21549" lon="-0.89455">
        <ele>143</ele>
        <time>2022-01-15T01:03:14Z</time>
      </trkpt>
      <trkpt lat="43.21563" lon="-0.89448">
        <ele>143</ele>
        <time>2022-01-15T01:03:17Z</time>
      </trkpt>
      <trkpt lat="43.21634" lon="-0.89379">
        <ele>141</ele>
        <time>2022-01-15T01:03:38Z</time>
      </trkpt>
      <trkpt lat="43.21668" lon="-0.89373">
        <ele>141</ele>
        <time>2022-01-15T01:03:46Z</time>
      </trkpt>
      <trkpt lat="43.21681" lon="-0.89378">
        <ele>142</ele>
        <time>2022-01-15T01:03:49Z</time>
      </trkpt>
      <trkpt lat="43.21704" lon="-0.89392">
        <ele>143</ele>
        <time>2022-01-15T01:03:55Z</time>
      </trkpt>
      <trkpt lat="43.21723" lon="-0.89393">
        <ele>144</ele>
        <time>2022-01-15T01:03:59Z</time>
      </trkpt>
      <trkpt lat="43.21741" lon="-0.89403">
        <ele>145</ele>
        <time>2022-01-15T01:04:04Z</time>
      </trkpt>
      <trkpt lat="43.21745" lon="-0.8942">
        <ele>145</ele>
        <time>2022-01-15T01:04:07Z</time>
      </trkpt>
      <trkpt lat="43.2174" lon="-0.89439">
        <ele>148</ele>
        <time>2022-01-15T01:04:10Z</time>
      </trkpt>
      <trkpt lat="43.21719" lon="-0.89454">
        <ele>149</ele>
        <time>2022-01-15T01:04:16Z</time>
      </trkpt>
      <trkpt lat="43.21695" lon="-0.89457">
        <ele>147</ele>
        <time>2022-01-15T01:04:21Z</time>
      </trkpt>
      <trkpt lat="43.21667" lon="-0.89482">
        <ele>147</ele>
        <time>2022-01-15T01:04:29Z</time>
      </trkpt>
      <trkpt lat="43.21642" lon="-0.89509">
        <ele>149</ele>
        <time>2022-01-15T01:04:36Z</time>
      </trkpt>
      <trkpt lat="43.21536" lon="-0.89611">
        <ele>150</ele>
        <time>2022-01-15T01:05:07Z</time>
      </trkpt>
      <trkpt lat="43.21496" lon="-0.89659">
        <ele>149</ele>
        <time>2022-01-15T01:05:19Z</time>
      </trkpt>
      <trkpt lat="43.2146" lon="-0.89738">
        <ele>152</ele>
        <time>2022-01-15T01:05:35Z</time>
      </trkpt>
      <trkpt lat="43.21337" lon="-0.9005">
        <ele>153</ele>
        <time>2022-01-15T01:06:35Z</time>
      </trkpt>
      <trkpt lat="43.21313" lon="-0.90092">
        <ele>152</ele>
        <time>2022-01-15T01:06:44Z</time>
      </trkpt>
      <trkpt lat="43.21232" lon="-0.9021">
        <ele>156</ele>
        <time>2022-01-15T01:07:12Z</time>
      </trkpt>
      <trkpt lat="43.21192" lon="-0.90249">
        <ele>156</ele>
        <time>2022-01-15T01:07:24Z</time>
      </trkpt>
      <trkpt lat="43.21164" lon="-0.90273">
        <ele>155</ele>
        <time>2022-01-15T01:07:31Z</time>
      </trkpt>
      <trkpt lat="43.21148" lon="-0.90283">
        <ele>155</ele>
        <time>2022-01-15T01:07:35Z</time>
      </trkpt>
      <trkpt lat="43.21071" lon="-0.90359">
        <ele>159</ele>
        <time>2022-01-15T01:07:57Z</time>
      </trkpt>
      <trkpt lat="43.20989" lon="-0.90435">
        <ele>161</ele>
        <time>2022-01-15T01:08:21Z</time>
      </trkpt>
      <trkpt lat="43.2095" lon="-0.90467">
        <ele>159</ele>
        <time>2022-01-15T01:08:31Z</time>
      </trkpt>
      <trkpt lat="43.20893" lon="-0.90527">
        <ele>158</ele>
        <time>2022-01-15T01:08:48Z</time>
      </trkpt>
      <trkpt lat="43.20863" lon="-0.90571">
        <ele>158</ele>
        <time>2022-01-15T01:08:58Z</time>
      </trkpt>
      <trkpt lat="43.2085" lon="-0.90579">
        <ele>157</ele>
        <time>2022-01-15T01:09:02Z</time>
      </trkpt>
      <trkpt lat="43.20761" lon="-0.90595">
        <ele>159</ele>
        <time>2022-01-15T01:09:23Z</time>
      </trkpt>
      <trkpt lat="43.20741" lon="-0.90606">
        <ele>161</ele>
        <time>2022-01-15T01:09:28Z</time>
      </trkpt>
      <trkpt lat="43.20593" lon="-0.9063">
        <ele>156</ele>
        <time>2022-01-15T01:10:02Z</time>
      </trkpt>
      <trkpt lat="43.20586" lon="-0.90634">
        <ele>156</ele>
        <time>2022-01-15T01:10:04Z</time>
      </trkpt>
      <trkpt lat="43.20561" lon="-0.90659">
        <ele>157</ele>
        <time>2022-01-15T01:10:11Z</time>
      </trkpt>
      <trkpt lat="43.20493" lon="-0.90764">
        <ele>160</ele>
        <time>2022-01-15T01:10:35Z</time>
      </trkpt>
      <trkpt lat="43.20415" lon="-0.90871">
        <ele>164</ele>
        <time>2022-01-15T01:11:01Z</time>
      </trkpt>
      <trkpt lat="43.20366" lon="-0.90944">
        <ele>166</ele>
        <time>2022-01-15T01:11:18Z</time>
      </trkpt>
      <trkpt lat="43.20226" lon="-0.91141">
        <ele>164</ele>
        <time>2022-01-15T01:12:05Z</time>
      </trkpt>
      <trkpt lat="43.20194" lon="-0.91195">
        <ele>164</ele>
        <time>2022-01-15T01:12:17Z</time>
      </trkpt>
      <trkpt lat="43.20166" lon="-0.91255">
        <ele>162</ele>
        <time>2022-01-15T01:12:29Z</time>
      </trkpt>
      <trkpt lat="43.20128" lon="-0.91353">
        <ele>165</ele>
        <time>2022-01-15T01:12:48Z</time>
      </trkpt>
      <trkpt lat="43.20089" lon="-0.914">
        <ele>171</ele>
        <time>2022-01-15T01:13:00Z</time>
      </trkpt>
      <trkpt lat="43.20024" lon="-0.9145">
        <ele>173</ele>
        <time>2022-01-15T01:13:17Z</time>
      </trkpt>
      <trkpt lat="43.19959" lon="-0.91507">
        <ele>174</ele>
        <time>2022-01-15T01:13:35Z</time>
      </trkpt>
      <trkpt lat="43.19869" lon="-0.9158">
        <ele>171</ele>
        <time>2022-01-15T01:14:00Z</time>
      </trkpt>
      <trkpt lat="43.19848" lon="-0.916">
        <ele>170</ele>
        <time>2022-01-15T01:14:06Z</time>
      </trkpt>
      <trkpt lat="43.19791" lon="-0.91666">
        <ele>171</ele>
        <time>2022-01-15T01:14:23Z</time>
      </trkpt>
      <trkpt lat="43.19735" lon="-0.91748">
        <ele>170</ele>
        <time>2022-01-15T01:14:42Z</time>
      </trkpt>
      <trkpt lat="43.19709" lon="-0.91778">
        <ele>169</ele>
        <time>2022-01-15T01:14:50Z</time>
      </trkpt>
      <trkpt lat="43.1966" lon="-0.91856">
        <ele>166</ele>
        <time>2022-01-15T01:15:08Z</time>
      </trkpt>
      <trkpt lat="43.19592" lon="-0.91954">
        <ele>164</ele>
        <time>2022-01-15T01:15:31Z</time>
      </trkpt>
      <trkpt lat="43.19555" lon="-0.92012">
        <ele>164</ele>
        <time>2022-01-15T01:15:44Z</time>
      </trkpt>
      <trkpt lat="43.19538" lon="-0.92033">
        <ele>164</ele>
        <time>2022-01-15T01:15:49Z</time>
      </trkpt>
      <trkpt lat="43.19502" lon="-0.92092">
        <ele>163</ele>
        <time>2022-01-15T01:16:02Z</time>
      </trkpt>
      <trkpt lat="43.19423" lon="-0.92183">
        <ele>163</ele>
        <time>2022-01-15T01:16:26Z</time>
      </trkpt>
      <trkpt lat="43.19409" lon="-0.9221">
        <ele>163</ele>
        <time>2022-01-15T01:16:32Z</time>
      </trkpt>
      <trkpt lat="43.19397" lon="-0.92253">
        <ele>163</ele>
        <time>2022-01-15T01:16:40Z</time>
      </trkpt>
      <trkpt lat="43.19393" lon="-0.92304">
        <ele>163</ele>
        <time>2022-01-15T01:16:48Z</time>
      </trkpt>
      <trkpt lat="43.19395" lon="-0.92553">
        <ele>168</ele>
        <time>2022-01-15T01:17:31Z</time>
      </trkpt>
      <trkpt lat="43.19444" lon="-0.92751">
        <ele>170</ele>
        <time>2022-01-15T01:18:06Z</time>
      </trkpt>
      <trkpt lat="43.19441" lon="-0.92945">
        <ele>172</ele>
        <time>2022-01-15T01:18:39Z</time>
      </trkpt>
      <trkpt lat="43.19435" lon="-0.93052">
        <ele>171</ele>
        <time>2022-01-15T01:18:58Z</time>
      </trkpt>
      <trkpt lat="43.1943" lon="-0.93085">
        <ele>170</ele>
        <time>2022-01-15T01:19:03Z</time>
      </trkpt>
      <trkpt lat="43.19424" lon="-0.93107">
        <ele>171</ele>
        <time>2022-01-15T01:19:07Z</time>
      </trkpt>
      <trkpt lat="43.19411" lon="-0.93128">
        <ele>171</ele>
        <time>2022-01-15T01:19:12Z</time>
      </trkpt>
      <trkpt lat="43.19403" lon="-0.93135">
        <ele>172</ele>
        <time>2022-01-15T01:19:14Z</time>
      </trkpt>
      <trkpt lat="43.19379" lon="-0.93144">
        <ele>175</ele>
        <time>2022-01-15T01:19:20Z</time>
      </trkpt>
      <trkpt lat="43.19353" lon="-0.93145">
        <ele>177</ele>
        <time>2022-01-15T01:19:26Z</time>
      </trkpt>
      <trkpt lat="43.19329" lon="-0.93143">
        <ele>178</ele>
        <time>2022-01-15T01:19:32Z</time>
      </trkpt>
      <trkpt lat="43.19311" lon="-0.93151">
        <ele>178</ele>
        <time>2022-01-15T01:19:36Z</time>
      </trkpt>
      <trkpt lat="43.19286" lon="-0.93186">
        <ele>180</ele>
        <time>2022-01-15T01:19:45Z</time>
      </trkpt>
      <trkpt lat="43.19265" lon="-0.93222">
        <ele>180</ele>
        <time>2022-01-15T01:19:53Z</time>
      </trkpt>
      <trkpt lat="43.19254" lon="-0.93257">
        <ele>180</ele>
        <time>2022-01-15T01:19:59Z</time>
      </trkpt>
      <trkpt lat="43.19227" lon="-0.93456">
        <ele>179</ele>
        <time>2022-01-15T01:20:33Z</time>
      </trkpt>
      <trkpt lat="43.1922" lon="-0.93523">
        <ele>179</ele>
        <time>2022-01-15T01:20:45Z</time>
      </trkpt>
      <trkpt lat="43.19201" lon="-0.9365">
        <ele>178</ele>
        <time>2022-01-15T01:21:07Z</time>
      </trkpt>
      <trkpt lat="43.19186" lon="-0.93716">
        <ele>176</ele>
        <time>2022-01-15T01:21:19Z</time>
      </trkpt>
      <trkpt lat="43.19179" lon="-0.93736">
        <ele>175</ele>
        <time>2022-01-15T01:21:23Z</time>
      </trkpt>
      <trkpt lat="43.19129" lon="-0.93836">
        <ele>173</ele>
        <time>2022-01-15T01:21:43Z</time>
      </trkpt>
      <trkpt lat="43.19082" lon="-0.93943">
        <ele>172</ele>
        <time>2022-01-15T01:22:05Z</time>
      </trkpt>
      <trkpt lat="43.19051" lon="-0.94005">
        <ele>173</ele>
        <time>2022-01-15T01:22:17Z</time>
      </trkpt>
      <trkpt lat="43.19" lon="-0.94118">
        <ele>176</ele>
        <time>2022-01-15T01:22:40Z</time>
      </trkpt>
      <trkpt lat="43.18989" lon="-0.94147">
        <ele>177</ele>
        <time>2022-01-15T01:22:46Z</time>
      </trkpt>
      <trkpt lat="43.18982" lon="-0.94175">
        <ele>178</ele>
        <time>2022-01-15T01:22:51Z</time>
      </trkpt>
      <trkpt lat="43.18982" lon="-0.94211">
        <ele>180</ele>
        <time>2022-01-15T01:22:57Z</time>
      </trkpt>
      <trkpt lat="43.18992" lon="-0.94295">
        <ele>184</ele>
        <time>2022-01-15T01:23:11Z</time>
      </trkpt>
      <trkpt lat="43.18998" lon="-0.94322">
        <ele>185</ele>
        <time>2022-01-15T01:23:16Z</time>
      </trkpt>
      <trkpt lat="43.19048" lon="-0.94503">
        <ele>192</ele>
        <time>2022-01-15T01:23:49Z</time>
      </trkpt>
      <trkpt lat="43.19058" lon="-0.94536">
        <ele>193</ele>
        <time>2022-01-15T01:23:55Z</time>
      </trkpt>
      <trkpt lat="43.19069" lon="-0.94562">
        <ele>194</ele>
        <time>2022-01-15T01:24:00Z</time>
      </trkpt>
      <trkpt lat="43.19074" lon="-0.94591">
        <ele>194</ele>
        <time>2022-01-15T01:24:05Z</time>
      </trkpt>
      <trkpt lat="43.19083" lon="-0.94618">
        <ele>192</ele>
        <time>2022-01-15T01:24:10Z</time>
      </trkpt>
      <trkpt lat="43.19122" lon="-0.94718">
        <ele>187</ele>
        <time>2022-01-15T01:24:30Z</time>
      </trkpt>
      <trkpt lat="43.19126" lon="-0.94738">
        <ele>186</ele>
        <time>2022-01-15T01:24:33Z</time>
      </trkpt>
      <trkpt lat="43.19142" lon="-0.94785">
        <ele>186</ele>
        <time>2022-01-15T01:24:42Z</time>
      </trkpt>
      <trkpt lat="43.1917" lon="-0.94857">
        <ele>188</ele>
        <time>2022-01-15T01:24:56Z</time>
      </trkpt>
      <trkpt lat="43.19185" lon="-0.94903">
        <ele>192</ele>
        <time>2022-01-15T01:25:04Z</time>
      </trkpt>
      <trkpt lat="43.192" lon="-0.94935">
        <ele>195</ele>
        <time>2022-01-15T01:25:11Z</time>
      </trkpt>
      <trkpt lat="43.19254" lon="-0.95026">
        <ele>201</ele>
        <time>2022-01-15T01:25:31Z</time>
      </trkpt>
      <trkpt lat="43.19263" lon="-0.95045">
        <ele>202</ele>
        <time>2022-01-15T01:25:35Z</time>
      </trkpt>
      <trkpt lat="43.19268" lon="-0.95063">
        <ele>203</ele>
        <time>2022-01-15T01:25:38Z</time>
      </trkpt>
      <trkpt lat="43.19272" lon="-0.95107">
        <ele>207</ele>
        <time>2022-01-15T01:25:46Z</time>
      </trkpt>
      <trkpt lat="43.1927" lon="-0.95181">
        <ele>212</ele>
        <time>2022-01-15T01:25:58Z</time>
      </trkpt>
      <trkpt lat="43.19273" lon="-0.9522">
        <ele>214</ele>
        <time>2022-01-15T01:26:05Z</time>
      </trkpt>
      <trkpt lat="43.193" lon="-0.95397">
        <ele>213</ele>
        <time>2022-01-15T01:26:36Z</time>
      </trkpt>
      <trkpt lat="43.19316" lon="-0.95519">
        <ele>210</ele>
        <time>2022-01-15T01:26:57Z</time>
      </trkpt>
      <trkpt lat="43.19326" lon="-0.95574">
        <ele>208</ele>
        <time>2022-01-15T01:27:06Z</time>
      </trkpt>
      <trkpt lat="43.19347" lon="-0.95742">
        <ele>196</ele>
        <time>2022-01-15T01:27:35Z</time>
      </trkpt>
      <trkpt lat="43.19359" lon="-0.95799">
        <ele>195</ele>
        <time>2022-01-15T01:27:46Z</time>
      </trkpt>
      <trkpt lat="43.19385" lon="-0.95881">
        <ele>192</ele>
        <time>2022-01-15T01:28:01Z</time>
      </trkpt>
      <trkpt lat="43.19391" lon="-0.95912">
        <ele>190</ele>
        <time>2022-01-15T01:28:06Z</time>
      </trkpt>
      <trkpt lat="43.19439" lon="-0.96273">
        <ele>201</ele>
        <time>2022-01-15T01:29:09Z</time>
      </trkpt>
      <trkpt lat="43.19442" lon="-0.96281">
        <ele>201</ele>
        <time>2022-01-15T01:29:10Z</time>
      </trkpt>
      <trkpt lat="43.19456" lon="-0.96391">
        <ele>208</ele>
        <time>2022-01-15T01:29:29Z</time>
      </trkpt>
      <trkpt lat="43.19473" lon="-0.96488">
        <ele>213</ele>
        <time>2022-01-15T01:29:46Z</time>
      </trkpt>
      <trkpt lat="43.19487" lon="-0.9652">
        <ele>214</ele>
        <time>2022-01-15T01:29:53Z</time>
      </trkpt>
      <trkpt lat="43.19502" lon="-0.96536">
        <ele>215</ele>
        <time>2022-01-15T01:29:57Z</time>
      </trkpt>
      <trkpt lat="43.19538" lon="-0.96564">
        <ele>219</ele>
        <time>2022-01-15T01:30:07Z</time>
      </trkpt>
      <trkpt lat="43.19573" lon="-0.96582">
        <ele>222</ele>
        <time>2022-01-15T01:30:15Z</time>
      </trkpt>
      <trkpt lat="43.19592" lon="-0.96589">
        <ele>224</ele>
        <time>2022-01-15T01:30:20Z</time>
      </trkpt>
      <trkpt lat="43.1963" lon="-0.96593">
        <ele>226</ele>
        <time>2022-01-15T01:30:29Z</time>
      </trkpt>
      <trkpt lat="43.19694" lon="-0.96608">
        <ele>231</ele>
        <time>2022-01-15T01:30:44Z</time>
      </trkpt>
      <trkpt lat="43.19736" lon="-0.96614">
        <ele>235</ele>
        <time>2022-01-15T01:30:54Z</time>
      </trkpt>
      <trkpt lat="43.19771" lon="-0.96615">
        <ele>237</ele>
        <time>2022-01-15T01:31:02Z</time>
      </trkpt>
      <trkpt lat="43.19791" lon="-0.96609">
        <ele>239</ele>
        <time>2022-01-15T01:31:07Z</time>
      </trkpt>
      <trkpt lat="43.19803" lon="-0.9661">
        <ele>240</ele>
        <time>2022-01-15T01:31:10Z</time>
      </trkpt>
      <trkpt lat="43.1985" lon="-0.966">
        <ele>244</ele>
        <time>2022-01-15T01:31:21Z</time>
      </trkpt>
      <trkpt lat="43.19899" lon="-0.96603">
        <ele>248</ele>
        <time>2022-01-15T01:31:32Z</time>
      </trkpt>
      <trkpt lat="43.1998" lon="-0.96613">
        <ele>253</ele>
        <time>2022-01-15T01:31:51Z</time>
      </trkpt>
      <trkpt lat="43.20049" lon="-0.96625">
        <ele>256</ele>
        <time>2022-01-15T01:32:07Z</time>
      </trkpt>
      <trkpt lat="43.20067" lon="-0.96635">
        <ele>258</ele>
        <time>2022-01-15T01:32:12Z</time>
      </trkpt>
      <trkpt lat="43.20086" lon="-0.96655">
        <ele>261</ele>
        <time>2022-01-15T01:32:18Z</time>
      </trkpt>
      <trkpt lat="43.2011" lon="-0.96689">
        <ele>263</ele>
        <time>2022-01-15T01:32:26Z</time>
      </trkpt>
      <trkpt lat="43.20169" lon="-0.96803">
        <ele>271</ele>
        <time>2022-01-15T01:32:49Z</time>
      </trkpt>
      <trkpt lat="43.2021" lon="-0.96958">
        <ele>281</ele>
        <time>2022-01-15T01:33:18Z</time>
      </trkpt>
      <trkpt lat="43.20224" lon="-0.97002">
        <ele>284</ele>
        <time>2022-01-15T01:33:26Z</time>
      </trkpt>
      <trkpt lat="43.20233" lon="-0.9702">
        <ele>285</ele>
        <time>2022-01-15T01:33:29Z</time>
      </trkpt>
      <trkpt lat="43.20295" lon="-0.971">
        <ele>293</ele>
        <time>2022-01-15T01:33:49Z</time>
      </trkpt>
      <trkpt lat="43.20347" lon="-0.97163">
        <ele>299</ele>
        <time>2022-01-15T01:34:05Z</time>
      </trkpt>
      <trkpt lat="43.20383" lon="-0.97202">
        <ele>302</ele>
        <time>2022-01-15T01:34:16Z</time>
      </trkpt>
      <trkpt lat="43.20404" lon="-0.97232">
        <ele>304</ele>
        <time>2022-01-15T01:34:23Z</time>
      </trkpt>
      <trkpt lat="43.20417" lon="-0.97246">
        <ele>306</ele>
        <time>2022-01-15T01:34:27Z</time>
      </trkpt>
      <trkpt lat="43.20444" lon="-0.97267">
        <ele>308</ele>
        <time>2022-01-15T01:34:34Z</time>
      </trkpt>
      <trkpt lat="43.20509" lon="-0.97295">
        <ele>314</ele>
        <time>2022-01-15T01:34:50Z</time>
      </trkpt>
      <trkpt lat="43.20583" lon="-0.97336">
        <ele>322</ele>
        <time>2022-01-15T01:35:09Z</time>
      </trkpt>
      <trkpt lat="43.20651" lon="-0.97386">
        <ele>325</ele>
        <time>2022-01-15T01:35:27Z</time>
      </trkpt>
      <trkpt lat="43.20672" lon="-0.97392">
        <ele>327</ele>
        <time>2022-01-15T01:35:32Z</time>
      </trkpt>
      <trkpt lat="43.20754" lon="-0.97385">
        <ele>336</ele>
        <time>2022-01-15T01:35:51Z</time>
      </trkpt>
      <trkpt lat="43.20782" lon="-0.97387">
        <ele>340</ele>
        <time>2022-01-15T01:35:58Z</time>
      </trkpt>
      <trkpt lat="43.20832" lon="-0.97404">
        <ele>346</ele>
        <time>2022-01-15T01:36:10Z</time>
      </trkpt>
      <trkpt lat="43.20858" lon="-0.97417">
        <ele>351</ele>
        <time>2022-01-15T01:36:16Z</time>
      </trkpt>
      <trkpt lat="43.20881" lon="-0.97433">
        <ele>357</ele>
        <time>2022-01-15T01:36:22Z</time>
      </trkpt>
      <trkpt lat="43.20905" lon="-0.97456">
        <ele>362</ele>
        <time>2022-01-15T01:36:29Z</time>
      </trkpt>
      <trkpt lat="43.20917" lon="-0.97472">
        <ele>364</ele>
        <time>2022-01-15T01:36:33Z</time>
      </trkpt>
      <trkpt lat="43.20921" lon="-0.97485">
        <ele>365</ele>
        <time>2022-01-15T01:36:35Z</time>
      </trkpt>
      <trkpt lat="43.20922" lon="-0.97499">
        <ele>364</ele>
        <time>2022-01-15T01:36:38Z</time>
      </trkpt>
      <trkpt lat="43.20918" lon="-0.97518">
        <ele>366</ele>
        <time>2022-01-15T01:36:41Z</time>
      </trkpt>
      <trkpt lat="43.20901" lon="-0.97539">
        <ele>365</ele>
        <time>2022-01-15T01:36:46Z</time>
      </trkpt>
      <trkpt lat="43.20869" lon="-0.97562">
        <ele>363</ele>
        <time>2022-01-15T01:36:55Z</time>
      </trkpt>
      <trkpt lat="43.2083" lon="-0.97606">
        <ele>362</ele>
        <time>2022-01-15T01:37:07Z</time>
      </trkpt>
      <trkpt lat="43.2082" lon="-0.97631">
        <ele>363</ele>
        <time>2022-01-15T01:37:12Z</time>
      </trkpt>
      <trkpt lat="43.20816" lon="-0.97673">
        <ele>368</ele>
        <time>2022-01-15T01:37:19Z</time>
      </trkpt>
      <trkpt lat="43.2082" lon="-0.97715">
        <ele>370</ele>
        <time>2022-01-15T01:37:26Z</time>
      </trkpt>
      <trkpt lat="43.20834" lon="-0.9777">
        <ele>374</ele>
        <time>2022-01-15T01:37:36Z</time>
      </trkpt>
      <trkpt lat="43.20847" lon="-0.97798">
        <ele>376</ele>
        <time>2022-01-15T01:37:42Z</time>
      </trkpt>
      <trkpt lat="43.20873" lon="-0.97841">
        <ele>381</ele>
        <time>2022-01-15T01:37:51Z</time>
      </trkpt>
      <trkpt lat="43.20904" lon="-0.979">
        <ele>384</ele>
        <time>2022-01-15T01:38:03Z</time>
      </trkpt>
      <trkpt lat="43.2095" lon="-0.98017">
        <ele>394</ele>
        <time>2022-01-15T01:38:26Z</time>
      </trkpt>
      <trkpt lat="43.20957" lon="-0.98046">
        <ele>396</ele>
        <time>2022-01-15T01:38:31Z</time>
      </trkpt>
      <trkpt lat="43.20957" lon="-0.98142">
        <ele>398</ele>
        <time>2022-01-15T01:38:48Z</time>
      </trkpt>
      <trkpt lat="43.20971" lon="-0.98218">
        <ele>406</ele>
        <time>2022-01-15T01:39:01Z</time>
      </trkpt>
      <trkpt lat="43.20973" lon="-0.98242">
        <ele>408</ele>
        <time>2022-01-15T01:39:05Z</time>
      </trkpt>
      <trkpt lat="43.20969" lon="-0.98258">
        <ele>409</ele>
        <time>2022-01-15T01:39:08Z</time>
      </trkpt>
      <trkpt lat="43.20961" lon="-0.98272">
        <ele>410</ele>
        <time>2022-01-15T01:39:11Z</time>
      </trkpt>
      <trkpt lat="43.20925" lon="-0.98304">
        <ele>410</ele>
        <time>2022-01-15T01:39:21Z</time>
      </trkpt>
      <trkpt lat="43.20914" lon="-0.98323">
        <ele>412</ele>
        <time>2022-01-15T01:39:25Z</time>
      </trkpt>
      <trkpt lat="43.20906" lon="-0.98394">
        <ele>419</ele>
        <time>2022-01-15T01:39:37Z</time>
      </trkpt>
      <trkpt lat="43.20897" lon="-0.98423">
        <ele>422</ele>
        <time>2022-01-15T01:39:43Z</time>
      </trkpt>
      <trkpt lat="43.20881" lon="-0.98444">
        <ele>424</ele>
        <time>2022-01-15T01:39:48Z</time>
      </trkpt>
      <trkpt lat="43.20841" lon="-0.9846">
        <ele>423</ele>
        <time>2022-01-15T01:39:58Z</time>
      </trkpt>
      <trkpt lat="43.20817" lon="-0.98479">
        <ele>421</ele>
        <time>2022-01-15T01:40:04Z</time>
      </trkpt>
      <trkpt lat="43.20784" lon="-0.98542">
        <ele>421</ele>
        <time>2022-01-15T01:40:17Z</time>
      </trkpt>
      <trkpt lat="43.20769" lon="-0.98585">
        <ele>421</ele>
        <time>2022-01-15T01:40:25Z</time>
      </trkpt>
      <trkpt lat="43.20763" lon="-0.9865">
        <ele>424</ele>
        <time>2022-01-15T01:40:37Z</time>
      </trkpt>
      <trkpt lat="43.20763" lon="-0.98682">
        <ele>425</ele>
        <time>2022-01-15T01:40:42Z</time>
      </trkpt>
      <trkpt lat="43.2077" lon="-0.98757">
        <ele>428</ele>
        <time>2022-01-15T01:40:55Z</time>
      </trkpt>
      <trkpt lat="43.20789" lon="-0.98881">
        <ele>432</ele>
        <time>2022-01-15T01:41:16Z</time>
      </trkpt>
      <trkpt lat="43.20794" lon="-0.98931">
        <ele>435</ele>
        <time>2022-01-15T01:41:25Z</time>
      </trkpt>
      <trkpt lat="43.20791" lon="-0.98988">
        <ele>436</ele>
        <time>2022-01-15T01:41:35Z</time>
      </trkpt>
      <trkpt lat="43.20775" lon="-0.99038">
        <ele>436</ele>
        <time>2022-01-15T01:41:44Z</time>
      </trkpt>
      <trkpt lat="43.20755" lon="-0.99081">
        <ele>438</ele>
        <time>2022-01-15T01:41:53Z</time>
      </trkpt>
      <trkpt lat="43.20733" lon="-0.99116">
        <ele>437</ele>
        <time>2022-01-15T01:42:01Z</time>
      </trkpt>
      <trkpt lat="43.20707" lon="-0.9917">
        <ele>440</ele>
        <time>2022-01-15T01:42:12Z</time>
      </trkpt>
      <trkpt lat="43.207" lon="-0.99204">
        <ele>443</ele>
        <time>2022-01-15T01:42:18Z</time>
      </trkpt>
      <trkpt lat="43.207" lon="-0.99242">
        <ele>445</ele>
        <time>2022-01-15T01:42:24Z</time>
      </trkpt>
      <trkpt lat="43.20718" lon="-0.99339">
        <ele>447</ele>
        <time>2022-01-15T01:42:41Z</time>
      </trkpt>
      <trkpt lat="43.20715" lon="-0.99374">
        <ele>450</ele>
        <time>2022-01-15T01:42:47Z</time>
      </trkpt>
      <trkpt lat="43.207" lon="-0.99433">
        <ele>454</ele>
        <time>2022-01-15T01:42:58Z</time>
      </trkpt>
      <trkpt lat="43.20679" lon="-0.9946">
        <ele>459</ele>
        <time>2022-01-15T01:43:04Z</time>
      </trkpt>
      <trkpt lat="43.20659" lon="-0.99493">
        <ele>462</ele>
        <time>2022-01-15T01:43:12Z</time>
      </trkpt>
      <trkpt lat="43.20637" lon="-0.99607">
        <ele>462</ele>
        <time>2022-01-15T01:43:32Z</time>
      </trkpt>
      <trkpt lat="43.2062" lon="-0.99653">
        <ele>461</ele>
        <time>2022-01-15T01:43:41Z</time>
      </trkpt>
      <trkpt lat="43.20609" lon="-0.9967">
        <ele>462</ele>
        <time>2022-01-15T01:43:44Z</time>
      </trkpt>
      <trkpt lat="43.20594" lon="-0.9968">
        <ele>465</ele>
        <time>2022-01-15T01:43:48Z</time>
      </trkpt>
      <trkpt lat="43.20513" lon="-0.9971">
        <ele>480</ele>
        <time>2022-01-15T01:44:08Z</time>
      </trkpt>
      <trkpt lat="43.205" lon="-0.99719">
        <ele>481</ele>
        <time>2022-01-15T01:44:11Z</time>
      </trkpt>
      <trkpt lat="43.20496" lon="-0.99736">
        <ele>478</ele>
        <time>2022-01-15T01:44:14Z</time>
      </trkpt>
      <trkpt lat="43.20458" lon="-0.99804">
        <ele>477</ele>
        <time>2022-01-15T01:44:29Z</time>
      </trkpt>
      <trkpt lat="43.2044" lon="-0.99822">
        <ele>480</ele>
        <time>2022-01-15T01:44:34Z</time>
      </trkpt>
      <trkpt lat="43.20382" lon="-0.99851">
        <ele>486</ele>
        <time>2022-01-15T01:44:49Z</time>
      </trkpt>
      <trkpt lat="43.20367" lon="-0.99862">
        <ele>486</ele>
        <time>2022-01-15T01:44:53Z</time>
      </trkpt>
      <trkpt lat="43.20348" lon="-0.99882">
        <ele>487</ele>
        <time>2022-01-15T01:44:58Z</time>
      </trkpt>
      <trkpt lat="43.2033" lon="-0.99909">
        <ele>487</ele>
        <time>2022-01-15T01:45:04Z</time>
      </trkpt>
      <trkpt lat="43.20322" lon="-0.99929">
        <ele>488</ele>
        <time>2022-01-15T01:45:08Z</time>
      </trkpt>
      <trkpt lat="43.2028" lon="-1.00009">
        <ele>491</ele>
        <time>2022-01-15T01:45:25Z</time>
      </trkpt>
      <trkpt lat="43.20261" lon="-1.00035">
        <ele>492</ele>
        <time>2022-01-15T01:45:31Z</time>
      </trkpt>
      <trkpt lat="43.20245" lon="-1.00048">
        <ele>493</ele>
        <time>2022-01-15T01:45:36Z</time>
      </trkpt>
      <trkpt lat="43.20218" lon="-1.00059">
        <ele>493</ele>
        <time>2022-01-15T01:45:42Z</time>
      </trkpt>
      <trkpt lat="43.2019" lon="-1.00062">
        <ele>493</ele>
        <time>2022-01-15T01:45:49Z</time>
      </trkpt>
      <trkpt lat="43.20125" lon="-1.0005">
        <ele>499</ele>
        <time>2022-01-15T01:46:04Z</time>
      </trkpt>
      <trkpt lat="43.20073" lon="-1.00035">
        <ele>505</ele>
        <time>2022-01-15T01:46:17Z</time>
      </trkpt>
      <trkpt lat="43.2003" lon="-1.00042">
        <ele>506</ele>
        <time>2022-01-15T01:46:27Z</time>
      </trkpt>
      <trkpt lat="43.20006" lon="-1.00069">
        <ele>503</ele>
        <time>2022-01-15T01:46:34Z</time>
      </trkpt>
      <trkpt lat="43.19987" lon="-1.0012">
        <ele>503</ele>
        <time>2022-01-15T01:46:44Z</time>
      </trkpt>
      <trkpt lat="43.19989" lon="-1.00178">
        <ele>499</ele>
        <time>2022-01-15T01:46:54Z</time>
      </trkpt>
      <trkpt lat="43.19994" lon="-1.00229">
        <ele>496</ele>
        <time>2022-01-15T01:47:02Z</time>
      </trkpt>
      <trkpt lat="43.1999" lon="-1.00262">
        <ele>495</ele>
        <time>2022-01-15T01:47:08Z</time>
      </trkpt>
      <trkpt lat="43.19959" lon="-1.00334">
        <ele>497</ele>
        <time>2022-01-15T01:47:22Z</time>
      </trkpt>
      <trkpt lat="43.19954" lon="-1.00372">
        <ele>497</ele>
        <time>2022-01-15T01:47:29Z</time>
      </trkpt>
      <trkpt lat="43.19957" lon="-1.00435">
        <ele>495</ele>
        <time>2022-01-15T01:47:40Z</time>
      </trkpt>
      <trkpt lat="43.19964" lon="-1.00477">
        <ele>492</ele>
        <time>2022-01-15T01:47:47Z</time>
      </trkpt>
      <trkpt lat="43.19979" lon="-1.00536">
        <ele>486</ele>
        <time>2022-01-15T01:47:58Z</time>
      </trkpt>
      <trkpt lat="43.19994" lon="-1.00553">
        <ele>481</ele>
        <time>2022-01-15T01:48:02Z</time>
      </trkpt>
      <trkpt lat="43.19996" lon="-1.00552">
        <ele>481</ele>
        <time>2022-01-15T01:48:03Z</time>
      </trkpt>
      <trkpt lat="43.19999" lon="-1.00534">
        <ele>481</ele>
        <time>2022-01-15T01:48:06Z</time>
      </trkpt>
      <trkpt lat="43.20002" lon="-1.00532">
        <ele>480</ele>
        <time>2022-01-15T01:48:06Z</time>
      </trkpt>
      <trkpt lat="43.20001" lon="-1.00541">
        <ele>480</ele>
        <time>2022-01-15T01:48:08Z</time>
      </trkpt>
      <trkpt lat="43.19993" lon="-1.00543">
        <ele>482</ele>
        <time>2022-01-15T01:48:10Z</time>
      </trkpt>
      <trkpt lat="43.19997" lon="-1.00546">
        <ele>481</ele>
        <time>2022-01-15T01:48:11Z</time>
      </trkpt>
      <trkpt lat="43.2" lon="-1.00542">
        <ele>480</ele>
        <time>2022-01-15T01:48:12Z</time>
      </trkpt>
      <trkpt lat="43.20007" lon="-1.00543">
        <ele>478</ele>
        <time>2022-01-15T01:48:14Z</time>
      </trkpt>
      <trkpt lat="43.20005" lon="-1.00547">
        <ele>478</ele>
        <time>2022-01-15T01:48:14Z</time>
      </trkpt>
      <trkpt lat="43.19994" lon="-1.00548">
        <ele>481</ele>
        <time>2022-01-15T01:48:17Z</time>
      </trkpt>
      <trkpt lat="43.19994" lon="-1.00544">
        <ele>481</ele>
        <time>2022-01-15T01:48:18Z</time>
      </trkpt>
      <trkpt lat="43.19999" lon="-1.00541">
        <ele>480</ele>
        <time>2022-01-15T01:48:19Z</time>
      </trkpt>
      <trkpt lat="43.1998" lon="-1.0055">
        <ele>485</ele>
        <time>2022-01-15T01:48:24Z</time>
      </trkpt>
      <trkpt lat="43.20001" lon="-1.00541">
        <ele>480</ele>
        <time>2022-01-15T01:48:29Z</time>
      </trkpt>
      <trkpt lat="43.20003" lon="-1.00543">
        <ele>479</ele>
        <time>2022-01-15T01:48:29Z</time>
      </trkpt>
      <trkpt lat="43.19993" lon="-1.00552">
        <ele>481</ele>
        <time>2022-01-15T01:48:32Z</time>
      </trkpt>
      <trkpt lat="43.19981" lon="-1.00553">
        <ele>484</ele>
        <time>2022-01-15T01:48:35Z</time>
      </trkpt>
      <trkpt lat="43.19975" lon="-1.00564">
        <ele>485</ele>
        <time>2022-01-15T01:48:37Z</time>
      </trkpt>
      <trkpt lat="43.19978" lon="-1.00709">
        <ele>483</ele>
        <time>2022-01-15T01:49:02Z</time>
      </trkpt>
      <trkpt lat="43.19986" lon="-1.00769">
        <ele>480</ele>
        <time>2022-01-15T01:49:12Z</time>
      </trkpt>
      <trkpt lat="43.19998" lon="-1.00822">
        <ele>478</ele>
        <time>2022-01-15T01:49:22Z</time>
      </trkpt>
      <trkpt lat="43.2001" lon="-1.00845">
        <ele>477</ele>
        <time>2022-01-15T01:49:27Z</time>
      </trkpt>
      <trkpt lat="43.20054" lon="-1.00902">
        <ele>474</ele>
        <time>2022-01-15T01:49:41Z</time>
      </trkpt>
      <trkpt lat="43.20064" lon="-1.0092">
        <ele>473</ele>
        <time>2022-01-15T01:49:45Z</time>
      </trkpt>
      <trkpt lat="43.20071" lon="-1.00941">
        <ele>472</ele>
        <time>2022-01-15T01:49:49Z</time>
      </trkpt>
      <trkpt lat="43.20076" lon="-1.00966">
        <ele>472</ele>
        <time>2022-01-15T01:49:53Z</time>
      </trkpt>
      <trkpt lat="43.20078" lon="-1.01029">
        <ele>474</ele>
        <time>2022-01-15T01:50:04Z</time>
      </trkpt>
      <trkpt lat="43.20086" lon="-1.01105">
        <ele>472</ele>
        <time>2022-01-15T01:50:17Z</time>
      </trkpt>
      <trkpt lat="43.20106" lon="-1.0124">
        <ele>463</ele>
        <time>2022-01-15T01:50:40Z</time>
      </trkpt>
      <trkpt lat="43.20112" lon="-1.01302">
        <ele>455</ele>
        <time>2022-01-15T01:50:51Z</time>
      </trkpt>
      <trkpt lat="43.20122" lon="-1.01358">
        <ele>443</ele>
        <time>2022-01-15T01:51:01Z</time>
      </trkpt>
      <trkpt lat="43.20121" lon="-1.01384">
        <ele>440</ele>
        <time>2022-01-15T01:51:05Z</time>
      </trkpt>
      <trkpt lat="43.20118" lon="-1.01397">
        <ele>439</ele>
        <time>2022-01-15T01:51:07Z</time>
      </trkpt>
      <trkpt lat="43.20101" lon="-1.01447">
        <ele>438</ele>
        <time>2022-01-15T01:51:17Z</time>
      </trkpt>
      <trkpt lat="43.20051" lon="-1.01621">
        <ele>428</ele>
        <time>2022-01-15T01:51:49Z</time>
      </trkpt>
      <trkpt lat="43.20042" lon="-1.01657">
        <ele>426</ele>
        <time>2022-01-15T01:51:55Z</time>
      </trkpt>
      <trkpt lat="43.20033" lon="-1.01716">
        <ele>419</ele>
        <time>2022-01-15T01:52:05Z</time>
      </trkpt>
      <trkpt lat="43.20021" lon="-1.01772">
        <ele>414</ele>
        <time>2022-01-15T01:52:15Z</time>
      </trkpt>
      <trkpt lat="43.20014" lon="-1.01792">
        <ele>412</ele>
        <time>2022-01-15T01:52:19Z</time>
      </trkpt>
      <trkpt lat="43.19997" lon="-1.01827">
        <ele>411</ele>
        <time>2022-01-15T01:52:26Z</time>
      </trkpt>
      <trkpt lat="43.19939" lon="-1.0193">
        <ele>405</ele>
        <time>2022-01-15T01:52:48Z</time>
      </trkpt>
      <trkpt lat="43.1986" lon="-1.02017">
        <ele>403</ele>
        <time>2022-01-15T01:53:12Z</time>
      </trkpt>
      <trkpt lat="43.19844" lon="-1.02037">
        <ele>402</ele>
        <time>2022-01-15T01:53:17Z</time>
      </trkpt>
      <trkpt lat="43.19815" lon="-1.02087">
        <ele>396</ele>
        <time>2022-01-15T01:53:28Z</time>
      </trkpt>
      <trkpt lat="43.19752" lon="-1.02161">
        <ele>395</ele>
        <time>2022-01-15T01:53:47Z</time>
      </trkpt>
      <trkpt lat="43.19721" lon="-1.02239">
        <ele>389</ele>
        <time>2022-01-15T01:54:03Z</time>
      </trkpt>
      <trkpt lat="43.19695" lon="-1.02324">
        <ele>389</ele>
        <time>2022-01-15T01:54:18Z</time>
      </trkpt>
      <trkpt lat="43.19684" lon="-1.02351">
        <ele>390</ele>
        <time>2022-01-15T01:54:24Z</time>
      </trkpt>
      <trkpt lat="43.19662" lon="-1.02384">
        <ele>392</ele>
        <time>2022-01-15T01:54:31Z</time>
      </trkpt>
      <trkpt lat="43.19626" lon="-1.02413">
        <ele>392</ele>
        <time>2022-01-15T01:54:41Z</time>
      </trkpt>
      <trkpt lat="43.19588" lon="-1.02434">
        <ele>397</ele>
        <time>2022-01-15T01:54:50Z</time>
      </trkpt>
      <trkpt lat="43.19566" lon="-1.0245">
        <ele>400</ele>
        <time>2022-01-15T01:54:56Z</time>
      </trkpt>
      <trkpt lat="43.19543" lon="-1.02459">
        <ele>401</ele>
        <time>2022-01-15T01:55:02Z</time>
      </trkpt>
      <trkpt lat="43.19475" lon="-1.02466">
        <ele>403</ele>
        <time>2022-01-15T01:55:18Z</time>
      </trkpt>
      <trkpt lat="43.19421" lon="-1.02463">
        <ele>404</ele>
        <time>2022-01-15T01:55:30Z</time>
      </trkpt>
      <trkpt lat="43.19399" lon="-1.02456">
        <ele>403</ele>
        <time>2022-01-15T01:55:36Z</time>
      </trkpt>
      <trkpt lat="43.1939" lon="-1.0245">
        <ele>401</ele>
        <time>2022-01-15T01:55:38Z</time>
      </trkpt>
      <trkpt lat="43.19306" lon="-1.02368">
        <ele>375</ele>
        <time>2022-01-15T01:56:02Z</time>
      </trkpt>
      <trkpt lat="43.19268" lon="-1.02327">
        <ele>366</ele>
        <time>2022-01-15T01:56:13Z</time>
      </trkpt>
      <trkpt lat="43.19239" lon="-1.02306">
        <ele>360</ele>
        <time>2022-01-15T01:56:21Z</time>
      </trkpt>
      <trkpt lat="43.19228" lon="-1.02303">
        <ele>357</ele>
        <time>2022-01-15T01:56:24Z</time>
      </trkpt>
      <trkpt lat="43.19216" lon="-1.02304">
        <ele>356</ele>
        <time>2022-01-15T01:56:26Z</time>
      </trkpt>
      <trkpt lat="43.19193" lon="-1.02318">
        <ele>355</ele>
        <time>2022-01-15T01:56:32Z</time>
      </trkpt>
      <trkpt lat="43.19184" lon="-1.02327">
        <ele>355</ele>
        <time>2022-01-15T01:56:35Z</time>
      </trkpt>
      <trkpt lat="43.19151" lon="-1.02373">
        <ele>353</ele>
        <time>2022-01-15T01:56:46Z</time>
      </trkpt>
      <trkpt lat="43.19115" lon="-1.02445">
        <ele>350</ele>
        <time>2022-01-15T01:57:01Z</time>
      </trkpt>
      <trkpt lat="43.19091" lon="-1.02502">
        <ele>349</ele>
        <time>2022-01-15T01:57:12Z</time>
      </trkpt>
      <trkpt lat="43.19031" lon="-1.02592">
        <ele>341</ele>
        <time>2022-01-15T01:57:33Z</time>
      </trkpt>
      <trkpt lat="43.19009" lon="-1.02635">
        <ele>340</ele>
        <time>2022-01-15T01:57:42Z</time>
      </trkpt>
      <trkpt lat="43.18957" lon="-1.02721">
        <ele>333</ele>
        <time>2022-01-15T01:58:01Z</time>
      </trkpt>
      <trkpt lat="43.1894" lon="-1.02761">
        <ele>331</ele>
        <time>2022-01-15T01:58:09Z</time>
      </trkpt>
      <trkpt lat="43.18929" lon="-1.02806">
        <ele>334</ele>
        <time>2022-01-15T01:58:17Z</time>
      </trkpt>
      <trkpt lat="43.18908" lon="-1.02839">
        <ele>333</ele>
        <time>2022-01-15T01:58:24Z</time>
      </trkpt>
      <trkpt lat="43.18895" lon="-1.02843">
        <ele>330</ele>
        <time>2022-01-15T01:58:27Z</time>
      </trkpt>
      <trkpt lat="43.18873" lon="-1.02855">
        <ele>326</ele>
        <time>2022-01-15T01:58:33Z</time>
      </trkpt>
      <trkpt lat="43.18834" lon="-1.02893">
        <ele>320</ele>
        <time>2022-01-15T01:58:44Z</time>
      </trkpt>
      <trkpt lat="43.18826" lon="-1.02906">
        <ele>318</ele>
        <time>2022-01-15T01:58:47Z</time>
      </trkpt>
      <trkpt lat="43.18801" lon="-1.0296">
        <ele>317</ele>
        <time>2022-01-15T01:58:58Z</time>
      </trkpt>
      <trkpt lat="43.18788" lon="-1.03022">
        <ele>321</ele>
        <time>2022-01-15T01:59:09Z</time>
      </trkpt>
      <trkpt lat="43.18775" lon="-1.03066">
        <ele>322</ele>
        <time>2022-01-15T01:59:17Z</time>
      </trkpt>
      <trkpt lat="43.1876" lon="-1.03091">
        <ele>320</ele>
        <time>2022-01-15T01:59:22Z</time>
      </trkpt>
      <trkpt lat="43.18714" lon="-1.03142">
        <ele>309</ele>
        <time>2022-01-15T01:59:36Z</time>
      </trkpt>
      <trkpt lat="43.18702" lon="-1.03168">
        <ele>308</ele>
        <time>2022-01-15T01:59:41Z</time>
      </trkpt>
      <trkpt lat="43.18688" lon="-1.03212">
        <ele>305</ele>
        <time>2022-01-15T01:59:50Z</time>
      </trkpt>
      <trkpt lat="43.18678" lon="-1.03265">
        <ele>303</ele>
        <time>2022-01-15T01:59:59Z</time>
      </trkpt>
      <trkpt lat="43.18673" lon="-1.03318">
        <ele>300</ele>
        <time>2022-01-15T02:00:08Z</time>
      </trkpt>
      <trkpt lat="43.1867" lon="-1.03437">
        <ele>297</ele>
        <time>2022-01-15T02:00:28Z</time>
      </trkpt>
      <trkpt lat="43.1866" lon="-1.03535">
        <ele>292</ele>
        <time>2022-01-15T02:00:45Z</time>
      </trkpt>
      <trkpt lat="43.18645" lon="-1.03633">
        <ele>288</ele>
        <time>2022-01-15T02:01:02Z</time>
      </trkpt>
      <trkpt lat="43.18633" lon="-1.03682">
        <ele>285</ele>
        <time>2022-01-15T02:01:11Z</time>
      </trkpt>
      <trkpt lat="43.18595" lon="-1.03794">
        <ele>276</ele>
        <time>2022-01-15T02:01:32Z</time>
      </trkpt>
      <trkpt lat="43.18571" lon="-1.03877">
        <ele>272</ele>
        <time>2022-01-15T02:01:47Z</time>
      </trkpt>
      <trkpt lat="43.18557" lon="-1.03945">
        <ele>267</ele>
        <time>2022-01-15T02:01:59Z</time>
      </trkpt>
      <trkpt lat="43.18558" lon="-1.03995">
        <ele>262</ele>
        <time>2022-01-15T02:02:08Z</time>
      </trkpt>
      <trkpt lat="43.18595" lon="-1.04185">
        <ele>248</ele>
        <time>2022-01-15T02:02:41Z</time>
      </trkpt>
      <trkpt lat="43.18605" lon="-1.0422">
        <ele>245</ele>
        <time>2022-01-15T02:02:48Z</time>
      </trkpt>
      <trkpt lat="43.18622" lon="-1.04264">
        <ele>240</ele>
        <time>2022-01-15T02:02:56Z</time>
      </trkpt>
      <trkpt lat="43.18632" lon="-1.04286">
        <ele>238</ele>
        <time>2022-01-15T02:03:01Z</time>
      </trkpt>
      <trkpt lat="43.18646" lon="-1.04304">
        <ele>237</ele>
        <time>2022-01-15T02:03:05Z</time>
      </trkpt>
      <trkpt lat="43.1868" lon="-1.04331">
        <ele>234</ele>
        <time>2022-01-15T02:03:14Z</time>
      </trkpt>
      <trkpt lat="43.187" lon="-1.0434">
        <ele>231</ele>
        <time>2022-01-15T02:03:19Z</time>
      </trkpt>
      <trkpt lat="43.18742" lon="-1.04352">
        <ele>227</ele>
        <time>2022-01-15T02:03:29Z</time>
      </trkpt>
      <trkpt lat="43.18785" lon="-1.04358">
        <ele>224</ele>
        <time>2022-01-15T02:03:39Z</time>
      </trkpt>
      <trkpt lat="43.18818" lon="-1.04356">
        <ele>223</ele>
        <time>2022-01-15T02:03:47Z</time>
      </trkpt>
      <trkpt lat="43.18853" lon="-1.04346">
        <ele>223</ele>
        <time>2022-01-15T02:03:55Z</time>
      </trkpt>
      <trkpt lat="43.18874" lon="-1.04337">
        <ele>222</ele>
        <time>2022-01-15T02:04:00Z</time>
      </trkpt>
      <trkpt lat="43.18907" lon="-1.04334">
        <ele>220</ele>
        <time>2022-01-15T02:04:08Z</time>
      </trkpt>
      <trkpt lat="43.18917" lon="-1.04338">
        <ele>219</ele>
        <time>2022-01-15T02:04:11Z</time>
      </trkpt>
      <trkpt lat="43.18933" lon="-1.04363">
        <ele>221</ele>
        <time>2022-01-15T02:04:16Z</time>
      </trkpt>
      <trkpt lat="43.18942" lon="-1.04391">
        <ele>225</ele>
        <time>2022-01-15T02:04:21Z</time>
      </trkpt>
      <trkpt lat="43.18942" lon="-1.04422">
        <ele>229</ele>
        <time>2022-01-15T02:04:27Z</time>
      </trkpt>
      <trkpt lat="43.18936" lon="-1.04447">
        <ele>234</ele>
        <time>2022-01-15T02:04:31Z</time>
      </trkpt>
      <trkpt lat="43.18919" lon="-1.04465">
        <ele>233</ele>
        <time>2022-01-15T02:04:36Z</time>
      </trkpt>
      <trkpt lat="43.18901" lon="-1.04474">
        <ele>230</ele>
        <time>2022-01-15T02:04:41Z</time>
      </trkpt>
      <trkpt lat="43.1886" lon="-1.04487">
        <ele>221</ele>
        <time>2022-01-15T02:04:51Z</time>
      </trkpt>
      <trkpt lat="43.18845" lon="-1.04495">
        <ele>217</ele>
        <time>2022-01-15T02:04:54Z</time>
      </trkpt>
      <trkpt lat="43.18832" lon="-1.04505">
        <ele>214</ele>
        <time>2022-01-15T02:04:58Z</time>
      </trkpt>
      <trkpt lat="43.18827" lon="-1.04512">
        <ele>215</ele>
        <time>2022-01-15T02:04:59Z</time>
      </trkpt>
      <trkpt lat="43.18813" lon="-1.04548">
        <ele>217</ele>
        <time>2022-01-15T02:05:06Z</time>
      </trkpt>
      <trkpt lat="43.18807" lon="-1.04574">
        <ele>218</ele>
        <time>2022-01-15T02:05:11Z</time>
      </trkpt>
      <trkpt lat="43.18804" lon="-1.04609">
        <ele>219</ele>
        <time>2022-01-15T02:05:17Z</time>
      </trkpt>
      <trkpt lat="43.18805" lon="-1.0465">
        <ele>219</ele>
        <time>2022-01-15T02:05:24Z</time>
      </trkpt>
      <trkpt lat="43.18841" lon="-1.04771">
        <ele>225</ele>
        <time>2022-01-15T02:05:46Z</time>
      </trkpt>
      <trkpt lat="43.1894" lon="-1.05041">
        <ele>214</ele>
        <time>2022-01-15T02:06:38Z</time>
      </trkpt>
      <trkpt lat="43.18961" lon="-1.05093">
        <ele>212</ele>
        <time>2022-01-15T02:06:48Z</time>
      </trkpt>
      <trkpt lat="43.18969" lon="-1.05107">
        <ele>212</ele>
        <time>2022-01-15T02:06:51Z</time>
      </trkpt>
      <trkpt lat="43.19019" lon="-1.05167">
        <ele>208</ele>
        <time>2022-01-15T02:07:06Z</time>
      </trkpt>
      <trkpt lat="43.19054" lon="-1.05191">
        <ele>208</ele>
        <time>2022-01-15T02:07:16Z</time>
      </trkpt>
      <trkpt lat="43.19065" lon="-1.05201">
        <ele>207</ele>
        <time>2022-01-15T02:07:19Z</time>
      </trkpt>
      <trkpt lat="43.19101" lon="-1.05243">
        <ele>205</ele>
        <time>2022-01-15T02:07:30Z</time>
      </trkpt>
      <trkpt lat="43.19141" lon="-1.05314">
        <ele>202</ele>
        <time>2022-01-15T02:07:45Z</time>
      </trkpt>
      <trkpt lat="43.19182" lon="-1.05378">
        <ele>197</ele>
        <time>2022-01-15T02:07:59Z</time>
      </trkpt>
      <trkpt lat="43.19215" lon="-1.05435">
        <ele>192</ele>
        <time>2022-01-15T02:08:12Z</time>
      </trkpt>
      <trkpt lat="43.19229" lon="-1.05453">
        <ele>192</ele>
        <time>2022-01-15T02:08:16Z</time>
      </trkpt>
      <trkpt lat="43.19262" lon="-1.05478">
        <ele>190</ele>
        <time>2022-01-15T02:08:25Z</time>
      </trkpt>
      <trkpt lat="43.1928" lon="-1.05483">
        <ele>189</ele>
        <time>2022-01-15T02:08:29Z</time>
      </trkpt>
      <trkpt lat="43.1931" lon="-1.05484">
        <ele>187</ele>
        <time>2022-01-15T02:08:36Z</time>
      </trkpt>
      <trkpt lat="43.19329" lon="-1.05489">
        <ele>185</ele>
        <time>2022-01-15T02:08:41Z</time>
      </trkpt>
      <trkpt lat="43.19346" lon="-1.05507">
        <ele>182</ele>
        <time>2022-01-15T02:08:46Z</time>
      </trkpt>
      <trkpt lat="43.19375" lon="-1.05554">
        <ele>178</ele>
        <time>2022-01-15T02:08:56Z</time>
      </trkpt>
      <trkpt lat="43.19408" lon="-1.0559">
        <ele>176</ele>
        <time>2022-01-15T02:09:06Z</time>
      </trkpt>
      <trkpt lat="43.1942" lon="-1.05614">
        <ele>176</ele>
        <time>2022-01-15T02:09:11Z</time>
      </trkpt>
      <trkpt lat="43.19439" lon="-1.05667">
        <ele>178</ele>
        <time>2022-01-15T02:09:21Z</time>
      </trkpt>
      <trkpt lat="43.19447" lon="-1.05705">
        <ele>180</ele>
        <time>2022-01-15T02:09:28Z</time>
      </trkpt>
      <trkpt lat="43.19452" lon="-1.05753">
        <ele>180</ele>
        <time>2022-01-15T02:09:36Z</time>
      </trkpt>
      <trkpt lat="43.19461" lon="-1.05799">
        <ele>177</ele>
        <time>2022-01-15T02:09:44Z</time>
      </trkpt>
      <trkpt lat="43.19475" lon="-1.05839">
        <ele>174</ele>
        <time>2022-01-15T02:09:52Z</time>
      </trkpt>
      <trkpt lat="43.1949" lon="-1.05862">
        <ele>173</ele>
        <time>2022-01-15T02:09:57Z</time>
      </trkpt>
      <trkpt lat="43.19514" lon="-1.05887">
        <ele>173</ele>
        <time>2022-01-15T02:10:04Z</time>
      </trkpt>
      <trkpt lat="43.19527" lon="-1.05896">
        <ele>173</ele>
        <time>2022-01-15T02:10:08Z</time>
      </trkpt>
      <trkpt lat="43.19543" lon="-1.059">
        <ele>175</ele>
        <time>2022-01-15T02:10:11Z</time>
      </trkpt>
      <trkpt lat="43.1958" lon="-1.059">
        <ele>179</ele>
        <time>2022-01-15T02:10:20Z</time>
      </trkpt>
      <trkpt lat="43.19609" lon="-1.05909">
        <ele>182</ele>
        <time>2022-01-15T02:10:27Z</time>
      </trkpt>
      <trkpt lat="43.19666" lon="-1.05948">
        <ele>182</ele>
        <time>2022-01-15T02:10:42Z</time>
      </trkpt>
      <trkpt lat="43.19688" lon="-1.05955">
        <ele>184</ele>
        <time>2022-01-15T02:10:47Z</time>
      </trkpt>
      <trkpt lat="43.19716" lon="-1.05973">
        <ele>182</ele>
        <time>2022-01-15T02:10:54Z</time>
      </trkpt>
      <trkpt lat="43.19773" lon="-1.06">
        <ele>178</ele>
        <time>2022-01-15T02:11:08Z</time>
      </trkpt>
      <trkpt lat="43.19806" lon="-1.0602">
        <ele>177</ele>
        <time>2022-01-15T02:11:17Z</time>
      </trkpt>
      <trkpt lat="43.1983" lon="-1.06041">
        <ele>174</ele>
        <time>2022-01-15T02:11:24Z</time>
      </trkpt>
      <trkpt lat="43.19851" lon="-1.06064">
        <ele>169</ele>
        <time>2022-01-15T02:11:30Z</time>
      </trkpt>
      <trkpt lat="43.19961" lon="-1.06195">
        <ele>166</ele>
        <time>2022-01-15T02:12:04Z</time>
      </trkpt>
      <trkpt lat="43.19996" lon="-1.06229">
        <ele>168</ele>
        <time>2022-01-15T02:12:14Z</time>
      </trkpt>
      <trkpt lat="43.20041" lon="-1.06307">
        <ele>170</ele>
        <time>2022-01-15T02:12:31Z</time>
      </trkpt>
      <trkpt lat="43.20114" lon="-1.06406">
        <ele>174</ele>
        <time>2022-01-15T02:12:55Z</time>
      </trkpt>
      <trkpt lat="43.20174" lon="-1.06531">
        <ele>176</ele>
        <time>2022-01-15T02:13:20Z</time>
      </trkpt>
      <trkpt lat="43.20196" lon="-1.06582">
        <ele>173</ele>
        <time>2022-01-15T02:13:30Z</time>
      </trkpt>
      <trkpt lat="43.20199" lon="-1.06598">
        <ele>173</ele>
        <time>2022-01-15T02:13:33Z</time>
      </trkpt>
      <trkpt lat="43.20386" lon="-1.06979">
        <ele>160</ele>
        <time>2022-01-15T02:14:51Z</time>
      </trkpt>
      <trkpt lat="43.20495" lon="-1.07144">
        <ele>160</ele>
        <time>2022-01-15T02:15:29Z</time>
      </trkpt>
      <trkpt lat="43.20696" lon="-1.07516">
        <ele>151</ele>
        <time>2022-01-15T02:16:48Z</time>
      </trkpt>
      <trkpt lat="43.20829" lon="-1.07719">
        <ele>152</ele>
        <time>2022-01-15T02:17:34Z</time>
      </trkpt>
      <trkpt lat="43.20877" lon="-1.07786">
        <ele>154</ele>
        <time>2022-01-15T02:17:50Z</time>
      </trkpt>
      <trkpt lat="43.20946" lon="-1.07898">
        <ele>152</ele>
        <time>2022-01-15T02:18:15Z</time>
      </trkpt>
      <trkpt lat="43.21013" lon="-1.07999">
        <ele>152</ele>
        <time>2022-01-15T02:18:39Z</time>
      </trkpt>
      <trkpt lat="43.21041" lon="-1.08036">
        <ele>152</ele>
        <time>2022-01-15T02:18:48Z</time>
      </trkpt>
      <trkpt lat="43.21065" lon="-1.08074">
        <ele>152</ele>
        <time>2022-01-15T02:18:56Z</time>
      </trkpt>
      <trkpt lat="43.21111" lon="-1.08138">
        <ele>153</ele>
        <time>2022-01-15T02:19:12Z</time>
      </trkpt>
      <trkpt lat="43.21159" lon="-1.08217">
        <ele>157</ele>
        <time>2022-01-15T02:19:29Z</time>
      </trkpt>
      <trkpt lat="43.21237" lon="-1.08324">
        <ele>156</ele>
        <time>2022-01-15T02:19:55Z</time>
      </trkpt>
      <trkpt lat="43.21272" lon="-1.08377">
        <ele>158</ele>
        <time>2022-01-15T02:20:07Z</time>
      </trkpt>
      <trkpt lat="43.21303" lon="-1.08411">
        <ele>159</ele>
        <time>2022-01-15T02:20:16Z</time>
      </trkpt>
      <trkpt lat="43.21312" lon="-1.08417">
        <ele>160</ele>
        <time>2022-01-15T02:20:19Z</time>
      </trkpt>
      <trkpt lat="43.21464" lon="-1.08468">
        <ele>161</ele>
        <time>2022-01-15T02:20:55Z</time>
      </trkpt>
      <trkpt lat="43.21513" lon="-1.08479">
        <ele>161</ele>
        <time>2022-01-15T02:21:07Z</time>
      </trkpt>
      <trkpt lat="43.21535" lon="-1.08488">
        <ele>161</ele>
        <time>2022-01-15T02:21:12Z</time>
      </trkpt>
      <trkpt lat="43.21566" lon="-1.08495">
        <ele>160</ele>
        <time>2022-01-15T02:21:20Z</time>
      </trkpt>
      <trkpt lat="43.21811" lon="-1.08571">
        <ele>152</ele>
        <time>2022-01-15T02:22:18Z</time>
      </trkpt>
      <trkpt lat="43.21908" lon="-1.08597">
        <ele>154</ele>
        <time>2022-01-15T02:22:41Z</time>
      </trkpt>
      <trkpt lat="43.21982" lon="-1.08622">
        <ele>153</ele>
        <time>2022-01-15T02:22:59Z</time>
      </trkpt>
      <trkpt lat="43.2208" lon="-1.08648">
        <ele>147</ele>
        <time>2022-01-15T02:23:22Z</time>
      </trkpt>
      <trkpt lat="43.22254" lon="-1.08701">
        <ele>150</ele>
        <time>2022-01-15T02:24:04Z</time>
      </trkpt>
      <trkpt lat="43.22278" lon="-1.08706">
        <ele>151</ele>
        <time>2022-01-15T02:24:10Z</time>
      </trkpt>
      <trkpt lat="43.22454" lon="-1.08757">
        <ele>157</ele>
        <time>2022-01-15T02:24:52Z</time>
      </trkpt>
      <trkpt lat="43.22578" lon="-1.08785">
        <ele>153</ele>
        <time>2022-01-15T02:25:21Z</time>
      </trkpt>
      <trkpt lat="43.22598" lon="-1.08793">
        <ele>151</ele>
        <time>2022-01-15T02:25:26Z</time>
      </trkpt>
      <trkpt lat="43.22624" lon="-1.08819">
        <ele>148</ele>
        <time>2022-01-15T02:25:33Z</time>
      </trkpt>
      <trkpt lat="43.22729" lon="-1.08946">
        <ele>139</ele>
        <time>2022-01-15T02:26:06Z</time>
      </trkpt>
      <trkpt lat="43.22862" lon="-1.09089">
        <ele>142</ele>
        <time>2022-01-15T02:26:46Z</time>
      </trkpt>
      <trkpt lat="43.22925" lon="-1.09152">
        <ele>146</ele>
        <time>2022-01-15T02:27:04Z</time>
      </trkpt>
      <trkpt lat="43.22938" lon="-1.09173">
        <ele>147</ele>
        <time>2022-01-15T02:27:08Z</time>
      </trkpt>
      <trkpt lat="43.22977" lon="-1.09212">
        <ele>148</ele>
        <time>2022-01-15T02:27:20Z</time>
      </trkpt>
      <trkpt lat="43.22992" lon="-1.09231">
        <ele>149</ele>
        <time>2022-01-15T02:27:24Z</time>
      </trkpt>
      <trkpt lat="43.23017" lon="-1.09255">
        <ele>151</ele>
        <time>2022-01-15T02:27:32Z</time>
      </trkpt>
      <trkpt lat="43.23098" lon="-1.09345">
        <ele>154</ele>
        <time>2022-01-15T02:27:56Z</time>
      </trkpt>
      <trkpt lat="43.23175" lon="-1.09471">
        <ele>157</ele>
        <time>2022-01-15T02:28:24Z</time>
      </trkpt>
      <trkpt lat="43.23191" lon="-1.09504">
        <ele>157</ele>
        <time>2022-01-15T02:28:31Z</time>
      </trkpt>
      <trkpt lat="43.23201" lon="-1.09518">
        <ele>157</ele>
        <time>2022-01-15T02:28:34Z</time>
      </trkpt>
      <trkpt lat="43.23234" lon="-1.09551">
        <ele>159</ele>
        <time>2022-01-15T02:28:44Z</time>
      </trkpt>
      <trkpt lat="43.23296" lon="-1.09607">
        <ele>161</ele>
        <time>2022-01-15T02:29:01Z</time>
      </trkpt>
      <trkpt lat="43.23309" lon="-1.09611">
        <ele>161</ele>
        <time>2022-01-15T02:29:04Z</time>
      </trkpt>
      <trkpt lat="43.23331" lon="-1.09612">
        <ele>162</ele>
        <time>2022-01-15T02:29:09Z</time>
      </trkpt>
      <trkpt lat="43.23338" lon="-1.09618">
        <ele>162</ele>
        <time>2022-01-15T02:29:11Z</time>
      </trkpt>
      <trkpt lat="43.23342" lon="-1.09643">
        <ele>162</ele>
        <time>2022-01-15T02:29:15Z</time>
      </trkpt>
      <trkpt lat="43.23333" lon="-1.09661">
        <ele>160</ele>
        <time>2022-01-15T02:29:19Z</time>
      </trkpt>
      <trkpt lat="43.23304" lon="-1.09681">
        <ele>158</ele>
        <time>2022-01-15T02:29:27Z</time>
      </trkpt>
      <trkpt lat="43.23285" lon="-1.09701">
        <ele>157</ele>
        <time>2022-01-15T02:29:32Z</time>
      </trkpt>
      <trkpt lat="43.23264" lon="-1.09735">
        <ele>155</ele>
        <time>2022-01-15T02:29:40Z</time>
      </trkpt>
      <trkpt lat="43.23238" lon="-1.09783">
        <ele>155</ele>
        <time>2022-01-15T02:29:50Z</time>
      </trkpt>
      <trkpt lat="43.23212" lon="-1.09843">
        <ele>157</ele>
        <time>2022-01-15T02:30:02Z</time>
      </trkpt>
      <trkpt lat="43.23176" lon="-1.09901">
        <ele>160</ele>
        <time>2022-01-15T02:30:15Z</time>
      </trkpt>
      <trkpt lat="43.23066" lon="-1.10114">
        <ele>170</ele>
        <time>2022-01-15T02:30:59Z</time>
      </trkpt>
      <trkpt lat="43.2296" lon="-1.10293">
        <ele>162</ele>
        <time>2022-01-15T02:31:39Z</time>
      </trkpt>
      <trkpt lat="43.22883" lon="-1.10432">
        <ele>154</ele>
        <time>2022-01-15T02:32:08Z</time>
      </trkpt>
      <trkpt lat="43.22665" lon="-1.10843">
        <ele>157</ele>
        <time>2022-01-15T02:33:35Z</time>
      </trkpt>
      <trkpt lat="43.22495" lon="-1.11176">
        <ele>158</ele>
        <time>2022-01-15T02:34:44Z</time>
      </trkpt>
      <trkpt lat="43.22425" lon="-1.1132">
        <ele>163</ele>
        <time>2022-01-15T02:35:13Z</time>
      </trkpt>
      <trkpt lat="43.22183" lon="-1.1178">
        <ele>168</ele>
        <time>2022-01-15T02:36:50Z</time>
      </trkpt>
      <trkpt lat="43.22151" lon="-1.11845">
        <ele>176</ele>
        <time>2022-01-15T02:37:03Z</time>
      </trkpt>
      <trkpt lat="43.22029" lon="-1.1203">
        <ele>178</ele>
        <time>2022-01-15T02:37:46Z</time>
      </trkpt>
      <trkpt lat="43.2192" lon="-1.12168">
        <ele>172</ele>
        <time>2022-01-15T02:38:20Z</time>
      </trkpt>
      <trkpt lat="43.21757" lon="-1.12339">
        <ele>183</ele>
        <time>2022-01-15T02:39:08Z</time>
      </trkpt>
      <trkpt lat="43.21665" lon="-1.1243">
        <ele>192</ele>
        <time>2022-01-15T02:39:35Z</time>
      </trkpt>
      <trkpt lat="43.21559" lon="-1.1254">
        <ele>201</ele>
        <time>2022-01-15T02:40:06Z</time>
      </trkpt>
      <trkpt lat="43.21522" lon="-1.12593">
        <ele>201</ele>
        <time>2022-01-15T02:40:18Z</time>
      </trkpt>
      <trkpt lat="43.21503" lon="-1.12632">
        <ele>202</ele>
        <time>2022-01-15T02:40:26Z</time>
      </trkpt>
      <trkpt lat="43.21458" lon="-1.12754">
        <ele>204</ele>
        <time>2022-01-15T02:40:50Z</time>
      </trkpt>
      <trkpt lat="43.21388" lon="-1.12906">
        <ele>215</ele>
        <time>2022-01-15T02:41:20Z</time>
      </trkpt>
      <trkpt lat="43.2138" lon="-1.12932">
        <ele>217</ele>
        <time>2022-01-15T02:41:25Z</time>
      </trkpt>
      <trkpt lat="43.21369" lon="-1.1299">
        <ele>221</ele>
        <time>2022-01-15T02:41:35Z</time>
      </trkpt>
      <trkpt lat="43.21356" lon="-1.1309">
        <ele>226</ele>
        <time>2022-01-15T02:41:52Z</time>
      </trkpt>
      <trkpt lat="43.21359" lon="-1.13227">
        <ele>237</ele>
        <time>2022-01-15T02:42:16Z</time>
      </trkpt>
      <trkpt lat="43.21365" lon="-1.13273">
        <ele>243</ele>
        <time>2022-01-15T02:42:24Z</time>
      </trkpt>
      <trkpt lat="43.21365" lon="-1.13296">
        <ele>245</ele>
        <time>2022-01-15T02:42:28Z</time>
      </trkpt>
      <trkpt lat="43.2134" lon="-1.13379">
        <ele>244</ele>
        <time>2022-01-15T02:42:43Z</time>
      </trkpt>
      <trkpt lat="43.21315" lon="-1.13433">
        <ele>247</ele>
        <time>2022-01-15T02:42:54Z</time>
      </trkpt>
      <trkpt lat="43.21222" lon="-1.13575">
        <ele>266</ele>
        <time>2022-01-15T02:43:26Z</time>
      </trkpt>
      <trkpt lat="43.21194" lon="-1.13607">
        <ele>271</ele>
        <time>2022-01-15T02:43:35Z</time>
      </trkpt>
      <trkpt lat="43.21136" lon="-1.13652">
        <ele>273</ele>
        <time>2022-01-15T02:43:50Z</time>
      </trkpt>
      <trkpt lat="43.21099" lon="-1.1369">
        <ele>271</ele>
        <time>2022-01-15T02:44:01Z</time>
      </trkpt>
      <trkpt lat="43.21033" lon="-1.13776">
        <ele>267</ele>
        <time>2022-01-15T02:44:22Z</time>
      </trkpt>
      <trkpt lat="43.2096" lon="-1.13879">
        <ele>258</ele>
        <time>2022-01-15T02:44:47Z</time>
      </trkpt>
      <trkpt lat="43.20693" lon="-1.14226">
        <ele>247</ele>
        <time>2022-01-15T02:46:13Z</time>
      </trkpt>
      <trkpt lat="43.20566" lon="-1.14452">
        <ele>241</ele>
        <time>2022-01-15T02:47:01Z</time>
      </trkpt>
      <trkpt lat="43.20516" lon="-1.14528">
        <ele>239</ele>
        <time>2022-01-15T02:47:19Z</time>
      </trkpt>
      <trkpt lat="43.2032" lon="-1.14777">
        <ele>236</ele>
        <time>2022-01-15T02:48:21Z</time>
      </trkpt>
      <trkpt lat="43.20294" lon="-1.14807">
        <ele>235</ele>
        <time>2022-01-15T02:48:29Z</time>
      </trkpt>
      <trkpt lat="43.20253" lon="-1.14846">
        <ele>234</ele>
        <time>2022-01-15T02:48:41Z</time>
      </trkpt>
      <trkpt lat="43.20082" lon="-1.15005">
        <ele>228</ele>
        <time>2022-01-15T02:49:29Z</time>
      </trkpt>
      <trkpt lat="43.20051" lon="-1.15031">
        <ele>227</ele>
        <time>2022-01-15T02:49:37Z</time>
      </trkpt>
      <trkpt lat="43.20014" lon="-1.15053">
        <ele>228</ele>
        <time>2022-01-15T02:49:47Z</time>
      </trkpt>
      <trkpt lat="43.19938" lon="-1.15087">
        <ele>232</ele>
        <time>2022-01-15T02:50:06Z</time>
      </trkpt>
      <trkpt lat="43.19922" lon="-1.15098">
        <ele>233</ele>
        <time>2022-01-15T02:50:10Z</time>
      </trkpt>
      <trkpt lat="43.19889" lon="-1.15128">
        <ele>234</ele>
        <time>2022-01-15T02:50:19Z</time>
      </trkpt>
      <trkpt lat="43.19867" lon="-1.15153">
        <ele>234</ele>
        <time>2022-01-15T02:50:26Z</time>
      </trkpt>
      <trkpt lat="43.1984" lon="-1.152">
        <ele>234</ele>
        <time>2022-01-15T02:50:36Z</time>
      </trkpt>
      <trkpt lat="43.19818" lon="-1.15254">
        <ele>234</ele>
        <time>2022-01-15T02:50:46Z</time>
      </trkpt>
      <trkpt lat="43.19795" lon="-1.15354">
        <ele>231</ele>
        <time>2022-01-15T02:51:04Z</time>
      </trkpt>
      <trkpt lat="43.19769" lon="-1.1555">
        <ele>226</ele>
        <time>2022-01-15T02:51:38Z</time>
      </trkpt>
      <trkpt lat="43.19756" lon="-1.15596">
        <ele>225</ele>
        <time>2022-01-15T02:51:47Z</time>
      </trkpt>
      <trkpt lat="43.1974" lon="-1.15633">
        <ele>224</ele>
        <time>2022-01-15T02:51:54Z</time>
      </trkpt>
      <trkpt lat="43.19494" lon="-1.16143">
        <ele>215</ele>
        <time>2022-01-15T02:53:38Z</time>
      </trkpt>
      <trkpt lat="43.19463" lon="-1.16201">
        <ele>217</ele>
        <time>2022-01-15T02:53:50Z</time>
      </trkpt>
      <trkpt lat="43.19395" lon="-1.16339">
        <ele>221</ele>
        <time>2022-01-15T02:54:19Z</time>
      </trkpt>
      <trkpt lat="43.19354" lon="-1.16407">
        <ele>230</ele>
        <time>2022-01-15T02:54:34Z</time>
      </trkpt>
      <trkpt lat="43.19336" lon="-1.16429">
        <ele>234</ele>
        <time>2022-01-15T02:54:39Z</time>
      </trkpt>
      <trkpt lat="43.19302" lon="-1.16463">
        <ele>235</ele>
        <time>2022-01-15T02:54:49Z</time>
      </trkpt>
      <trkpt lat="43.19266" lon="-1.16489">
        <ele>236</ele>
        <time>2022-01-15T02:54:59Z</time>
      </trkpt>
      <trkpt lat="43.1925" lon="-1.16505">
        <ele>237</ele>
        <time>2022-01-15T02:55:03Z</time>
      </trkpt>
      <trkpt lat="43.19246" lon="-1.16512">
        <ele>238</ele>
        <time>2022-01-15T02:55:05Z</time>
      </trkpt>
      <trkpt lat="43.19244" lon="-1.16526">
        <ele>240</ele>
        <time>2022-01-15T02:55:07Z</time>
      </trkpt>
      <trkpt lat="43.19248" lon="-1.16537">
        <ele>241</ele>
        <time>2022-01-15T02:55:09Z</time>
      </trkpt>
      <trkpt lat="43.19257" lon="-1.16545">
        <ele>242</ele>
        <time>2022-01-15T02:55:12Z</time>
      </trkpt>
      <trkpt lat="43.19269" lon="-1.1655">
        <ele>242</ele>
        <time>2022-01-15T02:55:15Z</time>
      </trkpt>
      <trkpt lat="43.19291" lon="-1.16552">
        <ele>240</ele>
        <time>2022-01-15T02:55:20Z</time>
      </trkpt>
      <trkpt lat="43.19327" lon="-1.16544">
        <ele>235</ele>
        <time>2022-01-15T02:55:28Z</time>
      </trkpt>
      <trkpt lat="43.19346" lon="-1.16543">
        <ele>231</ele>
        <time>2022-01-15T02:55:33Z</time>
      </trkpt>
      <trkpt lat="43.19365" lon="-1.16549">
        <ele>227</ele>
        <time>2022-01-15T02:55:37Z</time>
      </trkpt>
      <trkpt lat="43.19374" lon="-1.16557">
        <ele>226</ele>
        <time>2022-01-15T02:55:40Z</time>
      </trkpt>
      <trkpt lat="43.19389" lon="-1.1658">
        <ele>224</ele>
        <time>2022-01-15T02:55:45Z</time>
      </trkpt>
      <trkpt lat="43.19395" lon="-1.16594">
        <ele>224</ele>
        <time>2022-01-15T02:55:48Z</time>
      </trkpt>
      <trkpt lat="43.19415" lon="-1.16668">
        <ele>227</ele>
        <time>2022-01-15T02:56:01Z</time>
      </trkpt>
      <trkpt lat="43.19441" lon="-1.1674">
        <ele>223</ele>
        <time>2022-01-15T02:56:15Z</time>
      </trkpt>
      <trkpt lat="43.19456" lon="-1.16765">
        <ele>219</ele>
        <time>2022-01-15T02:56:20Z</time>
      </trkpt>
      <trkpt lat="43.19466" lon="-1.16774">
        <ele>216</ele>
        <time>2022-01-15T02:56:23Z</time>
      </trkpt>
      <trkpt lat="43.19488" lon="-1.16785">
        <ele>209</ele>
        <time>2022-01-15T02:56:29Z</time>
      </trkpt>
      <trkpt lat="43.19512" lon="-1.16786">
        <ele>205</ele>
        <time>2022-01-15T02:56:34Z</time>
      </trkpt>
      <trkpt lat="43.19606" lon="-1.16775">
        <ele>206</ele>
        <time>2022-01-15T02:56:56Z</time>
      </trkpt>
      <trkpt lat="43.19672" lon="-1.16763">
        <ele>212</ele>
        <time>2022-01-15T02:57:12Z</time>
      </trkpt>
      <trkpt lat="43.19721" lon="-1.16762">
        <ele>213</ele>
        <time>2022-01-15T02:57:23Z</time>
      </trkpt>
      <trkpt lat="43.19864" lon="-1.16752">
        <ele>215</ele>
        <time>2022-01-15T02:57:57Z</time>
      </trkpt>
      <trkpt lat="43.19908" lon="-1.16746">
        <ele>215</ele>
        <time>2022-01-15T02:58:07Z</time>
      </trkpt>
      <trkpt lat="43.19989" lon="-1.16744">
        <ele>216</ele>
        <time>2022-01-15T02:58:26Z</time>
      </trkpt>
      <trkpt lat="43.20193" lon="-1.16761">
        <ele>221</ele>
        <time>2022-01-15T02:59:14Z</time>
      </trkpt>
      <trkpt lat="43.2024" lon="-1.16767">
        <ele>225</ele>
        <time>2022-01-15T02:59:25Z</time>
      </trkpt>
      <trkpt lat="43.20349" lon="-1.16772">
        <ele>226</ele>
        <time>2022-01-15T02:59:50Z</time>
      </trkpt>
      <trkpt lat="43.20503" lon="-1.16789">
        <ele>220</ele>
        <time>2022-01-15T03:00:26Z</time>
      </trkpt>
      <trkpt lat="43.20536" lon="-1.16803">
        <ele>219</ele>
        <time>2022-01-15T03:00:34Z</time>
      </trkpt>
      <trkpt lat="43.20549" lon="-1.16812">
        <ele>219</ele>
        <time>2022-01-15T03:00:38Z</time>
      </trkpt>
      <trkpt lat="43.20687" lon="-1.16926">
        <ele>218</ele>
        <time>2022-01-15T03:01:15Z</time>
      </trkpt>
      <trkpt lat="43.20815" lon="-1.17028">
        <ele>220</ele>
        <time>2022-01-15T03:01:50Z</time>
      </trkpt>
      <trkpt lat="43.2092" lon="-1.17109">
        <ele>222</ele>
        <time>2022-01-15T03:02:18Z</time>
      </trkpt>
      <trkpt lat="43.20939" lon="-1.17126">
        <ele>222</ele>
        <time>2022-01-15T03:02:23Z</time>
      </trkpt>
      <trkpt lat="43.20981" lon="-1.17156">
        <ele>222</ele>
        <time>2022-01-15T03:02:34Z</time>
      </trkpt>
      <trkpt lat="43.21013" lon="-1.17161">
        <ele>222</ele>
        <time>2022-01-15T03:02:42Z</time>
      </trkpt>
      <trkpt lat="43.21064" lon="-1.17158">
        <ele>223</ele>
        <time>2022-01-15T03:02:54Z</time>
      </trkpt>
      <trkpt lat="43.21167" lon="-1.17157">
        <ele>223</ele>
        <time>2022-01-15T03:03:18Z</time>
      </trkpt>
      <trkpt lat="43.21207" lon="-1.17158">
        <ele>223</ele>
        <time>2022-01-15T03:03:27Z</time>
      </trkpt>
      <trkpt lat="43.21213" lon="-1.1716">
        <ele>223</ele>
        <time>2022-01-15T03:03:29Z</time>
      </trkpt>
      <trkpt lat="43.21243" lon="-1.17177">
        <ele>223</ele>
        <time>2022-01-15T03:03:36Z</time>
      </trkpt>
      <trkpt lat="43.21385" lon="-1.17277">
        <ele>229</ele>
        <time>2022-01-15T03:04:14Z</time>
      </trkpt>
      <trkpt lat="43.21414" lon="-1.17301">
        <ele>229</ele>
        <time>2022-01-15T03:04:22Z</time>
      </trkpt>
      <trkpt lat="43.21502" lon="-1.17357">
        <ele>229</ele>
        <time>2022-01-15T03:04:44Z</time>
      </trkpt>
      <trkpt lat="43.21598" lon="-1.17421">
        <ele>229</ele>
        <time>2022-01-15T03:05:09Z</time>
      </trkpt>
      <trkpt lat="43.21623" lon="-1.1744">
        <ele>231</ele>
        <time>2022-01-15T03:05:16Z</time>
      </trkpt>
      <trkpt lat="43.21686" lon="-1.1748">
        <ele>233</ele>
        <time>2022-01-15T03:05:32Z</time>
      </trkpt>
      <trkpt lat="43.21753" lon="-1.1753">
        <ele>236</ele>
        <time>2022-01-15T03:05:50Z</time>
      </trkpt>
      <trkpt lat="43.21782" lon="-1.17564">
        <ele>238</ele>
        <time>2022-01-15T03:05:59Z</time>
      </trkpt>
      <trkpt lat="43.21792" lon="-1.1759">
        <ele>239</ele>
        <time>2022-01-15T03:06:04Z</time>
      </trkpt>
      <trkpt lat="43.21813" lon="-1.1763">
        <ele>242</ele>
        <time>2022-01-15T03:06:12Z</time>
      </trkpt>
      <trkpt lat="43.21837" lon="-1.17685">
        <ele>246</ele>
        <time>2022-01-15T03:06:23Z</time>
      </trkpt>
      <trkpt lat="43.21855" lon="-1.178">
        <ele>252</ele>
        <time>2022-01-15T03:06:43Z</time>
      </trkpt>
      <trkpt lat="43.21864" lon="-1.17839">
        <ele>253</ele>
        <time>2022-01-15T03:06:50Z</time>
      </trkpt>
      <trkpt lat="43.21879" lon="-1.17877">
        <ele>255</ele>
        <time>2022-01-15T03:06:57Z</time>
      </trkpt>
      <trkpt lat="43.21896" lon="-1.17897">
        <ele>257</ele>
        <time>2022-01-15T03:07:03Z</time>
      </trkpt>
      <trkpt lat="43.21914" lon="-1.17908">
        <ele>260</ele>
        <time>2022-01-15T03:07:07Z</time>
      </trkpt>
      <trkpt lat="43.21942" lon="-1.17931">
        <ele>265</ele>
        <time>2022-01-15T03:07:15Z</time>
      </trkpt>
      <trkpt lat="43.21952" lon="-1.17945">
        <ele>267</ele>
        <time>2022-01-15T03:07:18Z</time>
      </trkpt>
      <trkpt lat="43.21957" lon="-1.17958">
        <ele>269</ele>
        <time>2022-01-15T03:07:21Z</time>
      </trkpt>
      <trkpt lat="43.21961" lon="-1.17976">
        <ele>270</ele>
        <time>2022-01-15T03:07:24Z</time>
      </trkpt>
      <trkpt lat="43.21959" lon="-1.18025">
        <ele>272</ele>
        <time>2022-01-15T03:07:32Z</time>
      </trkpt>
      <trkpt lat="43.21958" lon="-1.18415">
        <ele>273</ele>
        <time>2022-01-15T03:08:39Z</time>
      </trkpt>
      <trkpt lat="43.2196" lon="-1.18448">
        <ele>273</ele>
        <time>2022-01-15T03:08:44Z</time>
      </trkpt>
      <trkpt lat="43.21973" lon="-1.18477">
        <ele>273</ele>
        <time>2022-01-15T03:08:50Z</time>
      </trkpt>
      <trkpt lat="43.21984" lon="-1.18483">
        <ele>272</ele>
        <time>2022-01-15T03:08:53Z</time>
      </trkpt>
      <trkpt lat="43.22" lon="-1.18486">
        <ele>271</ele>
        <time>2022-01-15T03:08:57Z</time>
      </trkpt>
      <trkpt lat="43.22056" lon="-1.18489">
        <ele>269</ele>
        <time>2022-01-15T03:09:10Z</time>
      </trkpt>
      <trkpt lat="43.22202" lon="-1.18503">
        <ele>275</ele>
        <time>2022-01-15T03:09:44Z</time>
      </trkpt>
      <trkpt lat="43.22224" lon="-1.185">
        <ele>278</ele>
        <time>2022-01-15T03:09:49Z</time>
      </trkpt>
      <trkpt lat="43.22238" lon="-1.18493">
        <ele>279</ele>
        <time>2022-01-15T03:09:52Z</time>
      </trkpt>
      <trkpt lat="43.22275" lon="-1.1845">
        <ele>278</ele>
        <time>2022-01-15T03:10:04Z</time>
      </trkpt>
      <trkpt lat="43.22304" lon="-1.18431">
        <ele>279</ele>
        <time>2022-01-15T03:10:11Z</time>
      </trkpt>
      <trkpt lat="43.22337" lon="-1.18428">
        <ele>283</ele>
        <time>2022-01-15T03:10:19Z</time>
      </trkpt>
      <trkpt lat="43.22393" lon="-1.18434">
        <ele>281</ele>
        <time>2022-01-15T03:10:32Z</time>
      </trkpt>
      <trkpt lat="43.22457" lon="-1.18433">
        <ele>278</ele>
        <time>2022-01-15T03:10:47Z</time>
      </trkpt>
      <trkpt lat="43.22482" lon="-1.18447">
        <ele>277</ele>
        <time>2022-01-15T03:10:53Z</time>
      </trkpt>
      <trkpt lat="43.22488" lon="-1.18458">
        <ele>277</ele>
        <time>2022-01-15T03:10:56Z</time>
      </trkpt>
      <trkpt lat="43.22505" lon="-1.18521">
        <ele>274</ele>
        <time>2022-01-15T03:11:07Z</time>
      </trkpt>
      <trkpt lat="43.22517" lon="-1.18545">
        <ele>271</ele>
        <time>2022-01-15T03:11:12Z</time>
      </trkpt>
      <trkpt lat="43.22526" lon="-1.18555">
        <ele>270</ele>
        <time>2022-01-15T03:11:15Z</time>
      </trkpt>
      <trkpt lat="43.22562" lon="-1.18562">
        <ele>266</ele>
        <time>2022-01-15T03:11:23Z</time>
      </trkpt>
      <trkpt lat="43.22575" lon="-1.18567">
        <ele>264</ele>
        <time>2022-01-15T03:11:26Z</time>
      </trkpt>
      <trkpt lat="43.22587" lon="-1.18574">
        <ele>264</ele>
        <time>2022-01-15T03:11:29Z</time>
      </trkpt>
      <trkpt lat="43.22617" lon="-1.18603">
        <ele>262</ele>
        <time>2022-01-15T03:11:38Z</time>
      </trkpt>
      <trkpt lat="43.22645" lon="-1.18659">
        <ele>258</ele>
        <time>2022-01-15T03:11:50Z</time>
      </trkpt>
      <trkpt lat="43.22662" lon="-1.18684">
        <ele>256</ele>
        <time>2022-01-15T03:11:55Z</time>
      </trkpt>
      <trkpt lat="43.22675" lon="-1.18709">
        <ele>253</ele>
        <time>2022-01-15T03:12:01Z</time>
      </trkpt>
      <trkpt lat="43.22687" lon="-1.18765">
        <ele>249</ele>
        <time>2022-01-15T03:12:11Z</time>
      </trkpt>
      <trkpt lat="43.22688" lon="-1.18858">
        <ele>248</ele>
        <time>2022-01-15T03:12:26Z</time>
      </trkpt>
      <trkpt lat="43.22694" lon="-1.18907">
        <ele>248</ele>
        <time>2022-01-15T03:12:35Z</time>
      </trkpt>
      <trkpt lat="43.22697" lon="-1.18959">
        <ele>249</ele>
        <time>2022-01-15T03:12:44Z</time>
      </trkpt>
      <trkpt lat="43.22695" lon="-1.1918">
        <ele>255</ele>
        <time>2022-01-15T03:13:21Z</time>
      </trkpt>
      <trkpt lat="43.22706" lon="-1.19346">
        <ele>249</ele>
        <time>2022-01-15T03:13:50Z</time>
      </trkpt>
      <trkpt lat="43.22718" lon="-1.19393">
        <ele>249</ele>
        <time>2022-01-15T03:13:58Z</time>
      </trkpt>
      <trkpt lat="43.2273" lon="-1.19415">
        <ele>249</ele>
        <time>2022-01-15T03:14:03Z</time>
      </trkpt>
      <trkpt lat="43.22752" lon="-1.19444">
        <ele>249</ele>
        <time>2022-01-15T03:14:10Z</time>
      </trkpt>
      <trkpt lat="43.22795" lon="-1.19482">
        <ele>244</ele>
        <time>2022-01-15T03:14:22Z</time>
      </trkpt>
      <trkpt lat="43.22819" lon="-1.19512">
        <ele>240</ele>
        <time>2022-01-15T03:14:30Z</time>
      </trkpt>
      <trkpt lat="43.22831" lon="-1.19537">
        <ele>238</ele>
        <time>2022-01-15T03:14:35Z</time>
      </trkpt>
      <trkpt lat="43.2284" lon="-1.19565">
        <ele>236</ele>
        <time>2022-01-15T03:14:40Z</time>
      </trkpt>
      <trkpt lat="43.22844" lon="-1.19594">
        <ele>234</ele>
        <time>2022-01-15T03:14:45Z</time>
      </trkpt>
      <trkpt lat="43.22844" lon="-1.19623">
        <ele>232</ele>
        <time>2022-01-15T03:14:50Z</time>
      </trkpt>
      <trkpt lat="43.22828" lon="-1.19746">
        <ele>227</ele>
        <time>2022-01-15T03:15:11Z</time>
      </trkpt>
      <trkpt lat="43.22825" lon="-1.19802">
        <ele>224</ele>
        <time>2022-01-15T03:15:21Z</time>
      </trkpt>
      <trkpt lat="43.22831" lon="-1.19859">
        <ele>221</ele>
        <time>2022-01-15T03:15:30Z</time>
      </trkpt>
      <trkpt lat="43.22845" lon="-1.19916">
        <ele>218</ele>
        <time>2022-01-15T03:15:41Z</time>
      </trkpt>
      <trkpt lat="43.22856" lon="-1.19943">
        <ele>216</ele>
        <time>2022-01-15T03:15:46Z</time>
      </trkpt>
      <trkpt lat="43.22886" lon="-1.19992">
        <ele>211</ele>
        <time>2022-01-15T03:15:57Z</time>
      </trkpt>
      <trkpt lat="43.23063" lon="-1.20236">
        <ele>202</ele>
        <time>2022-01-15T03:16:55Z</time>
      </trkpt>
      <trkpt lat="43.23083" lon="-1.20262">
        <ele>202</ele>
        <time>2022-01-15T03:17:02Z</time>
      </trkpt>
      <trkpt lat="43.23144" lon="-1.2033">
        <ele>205</ele>
        <time>2022-01-15T03:17:20Z</time>
      </trkpt>
      <trkpt lat="43.23174" lon="-1.2037">
        <ele>206</ele>
        <time>2022-01-15T03:17:30Z</time>
      </trkpt>
      <trkpt lat="43.23195" lon="-1.20415">
        <ele>205</ele>
        <time>2022-01-15T03:17:39Z</time>
      </trkpt>
      <trkpt lat="43.23217" lon="-1.20486">
        <ele>205</ele>
        <time>2022-01-15T03:17:52Z</time>
      </trkpt>
      <trkpt lat="43.23296" lon="-1.20698">
        <ele>201</ele>
        <time>2022-01-15T03:18:33Z</time>
      </trkpt>
      <trkpt lat="43.23342" lon="-1.20832">
        <ele>201</ele>
        <time>2022-01-15T03:18:58Z</time>
      </trkpt>
      <trkpt lat="43.2336" lon="-1.20881">
        <ele>201</ele>
        <time>2022-01-15T03:19:07Z</time>
      </trkpt>
      <trkpt lat="43.23371" lon="-1.20901">
        <ele>201</ele>
        <time>2022-01-15T03:19:11Z</time>
      </trkpt>
      <trkpt lat="43.23387" lon="-1.20918">
        <ele>200</ele>
        <time>2022-01-15T03:19:16Z</time>
      </trkpt>
      <trkpt lat="43.234" lon="-1.20927">
        <ele>199</ele>
        <time>2022-01-15T03:19:20Z</time>
      </trkpt>
      <trkpt lat="43.23445" lon="-1.20943">
        <ele>198</ele>
        <time>2022-01-15T03:19:30Z</time>
      </trkpt>
      <trkpt lat="43.23467" lon="-1.20957">
        <ele>197</ele>
        <time>2022-01-15T03:19:36Z</time>
      </trkpt>
      <trkpt lat="43.23485" lon="-1.20978">
        <ele>196</ele>
        <time>2022-01-15T03:19:42Z</time>
      </trkpt>
      <trkpt lat="43.23494" lon="-1.20995">
        <ele>196</ele>
        <time>2022-01-15T03:19:45Z</time>
      </trkpt>
      <trkpt lat="43.23531" lon="-1.21047">
        <ele>196</ele>
        <time>2022-01-15T03:19:58Z</time>
      </trkpt>
      <trkpt lat="43.23559" lon="-1.2107">
        <ele>196</ele>
        <time>2022-01-15T03:20:05Z</time>
      </trkpt>
      <trkpt lat="43.23625" lon="-1.21106">
        <ele>196</ele>
        <time>2022-01-15T03:20:22Z</time>
      </trkpt>
      <trkpt lat="43.23751" lon="-1.21218">
        <ele>191</ele>
        <time>2022-01-15T03:20:57Z</time>
      </trkpt>
      <trkpt lat="43.23781" lon="-1.2124">
        <ele>190</ele>
        <time>2022-01-15T03:21:05Z</time>
      </trkpt>
      <trkpt lat="43.23797" lon="-1.21249">
        <ele>189</ele>
        <time>2022-01-15T03:21:09Z</time>
      </trkpt>
      <trkpt lat="43.23942" lon="-1.2131">
        <ele>193</ele>
        <time>2022-01-15T03:21:44Z</time>
      </trkpt>
      <trkpt lat="43.23966" lon="-1.21318">
        <ele>194</ele>
        <time>2022-01-15T03:21:50Z</time>
      </trkpt>
      <trkpt lat="43.23992" lon="-1.21331">
        <ele>196</ele>
        <time>2022-01-15T03:21:56Z</time>
      </trkpt>
      <trkpt lat="43.24056" lon="-1.21354">
        <ele>198</ele>
        <time>2022-01-15T03:22:12Z</time>
      </trkpt>
      <trkpt lat="43.24107" lon="-1.21379">
        <ele>199</ele>
        <time>2022-01-15T03:22:25Z</time>
      </trkpt>
      <trkpt lat="43.24297" lon="-1.21498">
        <ele>192</ele>
        <time>2022-01-15T03:23:13Z</time>
      </trkpt>
      <trkpt lat="43.24389" lon="-1.21559">
        <ele>195</ele>
        <time>2022-01-15T03:23:37Z</time>
      </trkpt>
      <trkpt lat="43.24614" lon="-1.21699">
        <ele>190</ele>
        <time>2022-01-15T03:24:35Z</time>
      </trkpt>
      <trkpt lat="43.24667" lon="-1.21717">
        <ele>191</ele>
        <time>2022-01-15T03:24:48Z</time>
      </trkpt>
      <trkpt lat="43.24677" lon="-1.21717">
        <ele>192</ele>
        <time>2022-01-15T03:24:50Z</time>
      </trkpt>
      <trkpt lat="43.24833" lon="-1.21696">
        <ele>199</ele>
        <time>2022-01-15T03:25:27Z</time>
      </trkpt>
      <trkpt lat="43.24859" lon="-1.21696">
        <ele>200</ele>
        <time>2022-01-15T03:25:33Z</time>
      </trkpt>
      <trkpt lat="43.24908" lon="-1.21708">
        <ele>203</ele>
        <time>2022-01-15T03:25:44Z</time>
      </trkpt>
      <trkpt lat="43.24994" lon="-1.21737">
        <ele>205</ele>
        <time>2022-01-15T03:26:05Z</time>
      </trkpt>
      <trkpt lat="43.25094" lon="-1.21782">
        <ele>202</ele>
        <time>2022-01-15T03:26:30Z</time>
      </trkpt>
      <trkpt lat="43.25188" lon="-1.21829">
        <ele>199</ele>
        <time>2022-01-15T03:26:53Z</time>
      </trkpt>
      <trkpt lat="43.25295" lon="-1.21904">
        <ele>197</ele>
        <time>2022-01-15T03:27:21Z</time>
      </trkpt>
      <trkpt lat="43.25321" lon="-1.21925">
        <ele>196</ele>
        <time>2022-01-15T03:27:28Z</time>
      </trkpt>
      <trkpt lat="43.25347" lon="-1.21954">
        <ele>195</ele>
        <time>2022-01-15T03:27:36Z</time>
      </trkpt>
      <trkpt lat="43.25422" lon="-1.22048">
        <ele>188</ele>
        <time>2022-01-15T03:28:00Z</time>
      </trkpt>
      <trkpt lat="43.25552" lon="-1.22347">
        <ele>185</ele>
        <time>2022-01-15T03:28:59Z</time>
      </trkpt>
      <trkpt lat="43.25581" lon="-1.224">
        <ele>187</ele>
        <time>2022-01-15T03:29:10Z</time>
      </trkpt>
      <trkpt lat="43.25611" lon="-1.22434">
        <ele>191</ele>
        <time>2022-01-15T03:29:19Z</time>
      </trkpt>
      <trkpt lat="43.25628" lon="-1.22445">
        <ele>193</ele>
        <time>2022-01-15T03:29:23Z</time>
      </trkpt>
      <trkpt lat="43.25661" lon="-1.22459">
        <ele>196</ele>
        <time>2022-01-15T03:29:32Z</time>
      </trkpt>
      <trkpt lat="43.25691" lon="-1.22464">
        <ele>199</ele>
        <time>2022-01-15T03:29:39Z</time>
      </trkpt>
      <trkpt lat="43.25726" lon="-1.22475">
        <ele>201</ele>
        <time>2022-01-15T03:29:47Z</time>
      </trkpt>
      <trkpt lat="43.25744" lon="-1.22474">
        <ele>203</ele>
        <time>2022-01-15T03:29:51Z</time>
      </trkpt>
      <trkpt lat="43.25805" lon="-1.22453">
        <ele>205</ele>
        <time>2022-01-15T03:30:06Z</time>
      </trkpt>
      <trkpt lat="43.2583" lon="-1.22452">
        <ele>207</ele>
        <time>2022-01-15T03:30:12Z</time>
      </trkpt>
      <trkpt lat="43.25845" lon="-1.22455">
        <ele>207</ele>
        <time>2022-01-15T03:30:15Z</time>
      </trkpt>
      <trkpt lat="43.25872" lon="-1.2247">
        <ele>209</ele>
        <time>2022-01-15T03:30:22Z</time>
      </trkpt>
      <trkpt lat="43.25917" lon="-1.22514">
        <ele>213</ele>
        <time>2022-01-15T03:30:35Z</time>
      </trkpt>
      <trkpt lat="43.25931" lon="-1.22524">
        <ele>213</ele>
        <time>2022-01-15T03:30:39Z</time>
      </trkpt>
      <trkpt lat="43.25946" lon="-1.22531">
        <ele>213</ele>
        <time>2022-01-15T03:30:42Z</time>
      </trkpt>
      <trkpt lat="43.26008" lon="-1.22574">
        <ele>215</ele>
        <time>2022-01-15T03:30:59Z</time>
      </trkpt>
      <trkpt lat="43.26031" lon="-1.22586">
        <ele>216</ele>
        <time>2022-01-15T03:31:04Z</time>
      </trkpt>
      <trkpt lat="43.26055" lon="-1.22592">
        <ele>217</ele>
        <time>2022-01-15T03:31:10Z</time>
      </trkpt>
      <trkpt lat="43.26081" lon="-1.22593">
        <ele>218</ele>
        <time>2022-01-15T03:31:16Z</time>
      </trkpt>
      <trkpt lat="43.26127" lon="-1.22583">
        <ele>222</ele>
        <time>2022-01-15T03:31:27Z</time>
      </trkpt>
      <trkpt lat="43.26156" lon="-1.22574">
        <ele>223</ele>
        <time>2022-01-15T03:31:34Z</time>
      </trkpt>
      <trkpt lat="43.26187" lon="-1.22572">
        <ele>222</ele>
        <time>2022-01-15T03:31:41Z</time>
      </trkpt>
      <trkpt lat="43.262" lon="-1.22575">
        <ele>222</ele>
        <time>2022-01-15T03:31:44Z</time>
      </trkpt>
      <trkpt lat="43.26228" lon="-1.22589">
        <ele>221</ele>
        <time>2022-01-15T03:31:51Z</time>
      </trkpt>
      <trkpt lat="43.26246" lon="-1.22613">
        <ele>220</ele>
        <time>2022-01-15T03:31:57Z</time>
      </trkpt>
      <trkpt lat="43.26313" lon="-1.22733">
        <ele>211</ele>
        <time>2022-01-15T03:32:23Z</time>
      </trkpt>
      <trkpt lat="43.26333" lon="-1.22758">
        <ele>210</ele>
        <time>2022-01-15T03:32:29Z</time>
      </trkpt>
      <trkpt lat="43.26341" lon="-1.22764">
        <ele>209</ele>
        <time>2022-01-15T03:32:31Z</time>
      </trkpt>
      <trkpt lat="43.2636" lon="-1.22771">
        <ele>207</ele>
        <time>2022-01-15T03:32:36Z</time>
      </trkpt>
      <trkpt lat="43.26371" lon="-1.22772">
        <ele>206</ele>
        <time>2022-01-15T03:32:38Z</time>
      </trkpt>
      <trkpt lat="43.26433" lon="-1.22771">
        <ele>204</ele>
        <time>2022-01-15T03:32:53Z</time>
      </trkpt>
      <trkpt lat="43.26466" lon="-1.22775">
        <ele>204</ele>
        <time>2022-01-15T03:33:01Z</time>
      </trkpt>
      <trkpt lat="43.2663" lon="-1.22783">
        <ele>201</ele>
        <time>2022-01-15T03:33:39Z</time>
      </trkpt>
      <trkpt lat="43.26647" lon="-1.22787">
        <ele>200</ele>
        <time>2022-01-15T03:33:43Z</time>
      </trkpt>
      <trkpt lat="43.26663" lon="-1.22794">
        <ele>199</ele>
        <time>2022-01-15T03:33:47Z</time>
      </trkpt>
      <trkpt lat="43.26762" lon="-1.22856">
        <ele>194</ele>
        <time>2022-01-15T03:34:12Z</time>
      </trkpt>
      <trkpt lat="43.26802" lon="-1.22878">
        <ele>190</ele>
        <time>2022-01-15T03:34:22Z</time>
      </trkpt>
      <trkpt lat="43.26869" lon="-1.22903">
        <ele>185</ele>
        <time>2022-01-15T03:34:39Z</time>
      </trkpt>
      <trkpt lat="43.26928" lon="-1.22932">
        <ele>182</ele>
        <time>2022-01-15T03:34:53Z</time>
      </trkpt>
      <trkpt lat="43.26976" lon="-1.22946">
        <ele>179</ele>
        <time>2022-01-15T03:35:05Z</time>
      </trkpt>
      <trkpt lat="43.26998" lon="-1.22957">
        <ele>177</ele>
        <time>2022-01-15T03:35:10Z</time>
      </trkpt>
      <trkpt lat="43.27026" lon="-1.2298">
        <ele>177</ele>
        <time>2022-01-15T03:35:18Z</time>
      </trkpt>
      <trkpt lat="43.2705" lon="-1.23011">
        <ele>178</ele>
        <time>2022-01-15T03:35:25Z</time>
      </trkpt>
      <trkpt lat="43.27089" lon="-1.23078">
        <ele>179</ele>
        <time>2022-01-15T03:35:40Z</time>
      </trkpt>
      <trkpt lat="43.27139" lon="-1.23156">
        <ele>182</ele>
        <time>2022-01-15T03:35:58Z</time>
      </trkpt>
      <trkpt lat="43.27173" lon="-1.232">
        <ele>181</ele>
        <time>2022-01-15T03:36:09Z</time>
      </trkpt>
      <trkpt lat="43.27209" lon="-1.23232">
        <ele>181</ele>
        <time>2022-01-15T03:36:19Z</time>
      </trkpt>
      <trkpt lat="43.27245" lon="-1.23259">
        <ele>181</ele>
        <time>2022-01-15T03:36:28Z</time>
      </trkpt>
      <trkpt lat="43.27272" lon="-1.23273">
        <ele>181</ele>
        <time>2022-01-15T03:36:35Z</time>
      </trkpt>
      <trkpt lat="43.27307" lon="-1.23287">
        <ele>180</ele>
        <time>2022-01-15T03:36:43Z</time>
      </trkpt>
      <trkpt lat="43.27387" lon="-1.23356">
        <ele>180</ele>
        <time>2022-01-15T03:37:06Z</time>
      </trkpt>
      <trkpt lat="43.2742" lon="-1.23381">
        <ele>180</ele>
        <time>2022-01-15T03:37:14Z</time>
      </trkpt>
      <trkpt lat="43.27442" lon="-1.23408">
        <ele>182</ele>
        <time>2022-01-15T03:37:21Z</time>
      </trkpt>
      <trkpt lat="43.27463" lon="-1.23454">
        <ele>184</ele>
        <time>2022-01-15T03:37:30Z</time>
      </trkpt>
      <trkpt lat="43.27499" lon="-1.23497">
        <ele>183</ele>
        <time>2022-01-15T03:37:42Z</time>
      </trkpt>
      <trkpt lat="43.27517" lon="-1.23512">
        <ele>184</ele>
        <time>2022-01-15T03:37:46Z</time>
      </trkpt>
      <trkpt lat="43.27601" lon="-1.23566">
        <ele>182</ele>
        <time>2022-01-15T03:38:08Z</time>
      </trkpt>
      <trkpt lat="43.27666" lon="-1.23585">
        <ele>183</ele>
        <time>2022-01-15T03:38:24Z</time>
      </trkpt>
      <trkpt lat="43.27736" lon="-1.2363">
        <ele>180</ele>
        <time>2022-01-15T03:38:42Z</time>
      </trkpt>
      <trkpt lat="43.27798" lon="-1.23661">
        <ele>177</ele>
        <time>2022-01-15T03:38:57Z</time>
      </trkpt>
      <trkpt lat="43.27853" lon="-1.23676">
        <ele>178</ele>
        <time>2022-01-15T03:39:10Z</time>
      </trkpt>
      <trkpt lat="43.27936" lon="-1.23708">
        <ele>179</ele>
        <time>2022-01-15T03:39:30Z</time>
      </trkpt>
      <trkpt lat="43.27978" lon="-1.2372">
        <ele>180</ele>
        <time>2022-01-15T03:39:40Z</time>
      </trkpt>
      <trkpt lat="43.28" lon="-1.23719">
        <ele>181</ele>
        <time>2022-01-15T03:39:46Z</time>
      </trkpt>
      <trkpt lat="43.2803" lon="-1.23711">
        <ele>181</ele>
        <time>2022-01-15T03:39:53Z</time>
      </trkpt>
      <trkpt lat="43.28106" lon="-1.23684">
        <ele>179</ele>
        <time>2022-01-15T03:40:11Z</time>
      </trkpt>
      <trkpt lat="43.28123" lon="-1.23681">
        <ele>179</ele>
        <time>2022-01-15T03:40:15Z</time>
      </trkpt>
      <trkpt lat="43.28146" lon="-1.23681">
        <ele>179</ele>
        <time>2022-01-15T03:40:20Z</time>
      </trkpt>
      <trkpt lat="43.28184" lon="-1.237">
        <ele>179</ele>
        <time>2022-01-15T03:40:30Z</time>
      </trkpt>
      <trkpt lat="43.28247" lon="-1.23739">
        <ele>182</ele>
        <time>2022-01-15T03:40:46Z</time>
      </trkpt>
      <trkpt lat="43.28268" lon="-1.23746">
        <ele>185</ele>
        <time>2022-01-15T03:40:51Z</time>
      </trkpt>
      <trkpt lat="43.28284" lon="-1.23748">
        <ele>187</ele>
        <time>2022-01-15T03:40:55Z</time>
      </trkpt>
      <trkpt lat="43.28332" lon="-1.23737">
        <ele>194</ele>
        <time>2022-01-15T03:41:06Z</time>
      </trkpt>
      <trkpt lat="43.28395" lon="-1.237">
        <ele>191</ele>
        <time>2022-01-15T03:41:22Z</time>
      </trkpt>
      <trkpt lat="43.28407" lon="-1.23697">
        <ele>191</ele>
        <time>2022-01-15T03:41:25Z</time>
      </trkpt>
      <trkpt lat="43.2843" lon="-1.23699">
        <ele>191</ele>
        <time>2022-01-15T03:41:30Z</time>
      </trkpt>
      <trkpt lat="43.28455" lon="-1.23715">
        <ele>191</ele>
        <time>2022-01-15T03:41:37Z</time>
      </trkpt>
      <trkpt lat="43.28512" lon="-1.23768">
        <ele>190</ele>
        <time>2022-01-15T03:41:53Z</time>
      </trkpt>
      <trkpt lat="43.28546" lon="-1.23819">
        <ele>192</ele>
        <time>2022-01-15T03:42:05Z</time>
      </trkpt>
      <trkpt lat="43.2857" lon="-1.2385">
        <ele>191</ele>
        <time>2022-01-15T03:42:12Z</time>
      </trkpt>
      <trkpt lat="43.2861" lon="-1.23899">
        <ele>192</ele>
        <time>2022-01-15T03:42:25Z</time>
      </trkpt>
      <trkpt lat="43.28646" lon="-1.23934">
        <ele>192</ele>
        <time>2022-01-15T03:42:35Z</time>
      </trkpt>
      <trkpt lat="43.28689" lon="-1.2396">
        <ele>193</ele>
        <time>2022-01-15T03:42:46Z</time>
      </trkpt>
      <trkpt lat="43.28755" lon="-1.23994">
        <ele>195</ele>
        <time>2022-01-15T03:43:03Z</time>
      </trkpt>
      <trkpt lat="43.28808" lon="-1.24017">
        <ele>198</ele>
        <time>2022-01-15T03:43:16Z</time>
      </trkpt>
      <trkpt lat="43.2884" lon="-1.24028">
        <ele>198</ele>
        <time>2022-01-15T03:43:23Z</time>
      </trkpt>
      <trkpt lat="43.28939" lon="-1.24054">
        <ele>200</ele>
        <time>2022-01-15T03:43:47Z</time>
      </trkpt>
      <trkpt lat="43.29065" lon="-1.24094">
        <ele>205</ele>
        <time>2022-01-15T03:44:17Z</time>
      </trkpt>
      <trkpt lat="43.29107" lon="-1.24099">
        <ele>208</ele>
        <time>2022-01-15T03:44:27Z</time>
      </trkpt>
      <trkpt lat="43.29122" lon="-1.24097">
        <ele>209</ele>
        <time>2022-01-15T03:44:30Z</time>
      </trkpt>
      <trkpt lat="43.29144" lon="-1.24087">
        <ele>210</ele>
        <time>2022-01-15T03:44:36Z</time>
      </trkpt>
      <trkpt lat="43.2916" lon="-1.24083">
        <ele>211</ele>
        <time>2022-01-15T03:44:40Z</time>
      </trkpt>
      <trkpt lat="43.29174" lon="-1.24082">
        <ele>211</ele>
        <time>2022-01-15T03:44:43Z</time>
      </trkpt>
      <trkpt lat="43.29184" lon="-1.24084">
        <ele>212</ele>
        <time>2022-01-15T03:44:45Z</time>
      </trkpt>
      <trkpt lat="43.29198" lon="-1.24093">
        <ele>213</ele>
        <time>2022-01-15T03:44:49Z</time>
      </trkpt>
      <trkpt lat="43.29234" lon="-1.24136">
        <ele>218</ele>
        <time>2022-01-15T03:45:00Z</time>
      </trkpt>
      <trkpt lat="43.2927" lon="-1.24163">
        <ele>221</ele>
        <time>2022-01-15T03:45:09Z</time>
      </trkpt>
      <trkpt lat="43.29285" lon="-1.24167">
        <ele>222</ele>
        <time>2022-01-15T03:45:13Z</time>
      </trkpt>
      <trkpt lat="43.29311" lon="-1.24166">
        <ele>222</ele>
        <time>2022-01-15T03:45:19Z</time>
      </trkpt>
      <trkpt lat="43.29352" lon="-1.24173">
        <ele>226</ele>
        <time>2022-01-15T03:45:29Z</time>
      </trkpt>
      <trkpt lat="43.29391" lon="-1.24173">
        <ele>229</ele>
        <time>2022-01-15T03:45:38Z</time>
      </trkpt>
      <trkpt lat="43.29407" lon="-1.24176">
        <ele>231</ele>
        <time>2022-01-15T03:45:42Z</time>
      </trkpt>
      <trkpt lat="43.29428" lon="-1.24193">
        <ele>235</ele>
        <time>2022-01-15T03:45:47Z</time>
      </trkpt>
      <trkpt lat="43.29446" lon="-1.24214">
        <ele>237</ele>
        <time>2022-01-15T03:45:53Z</time>
      </trkpt>
      <trkpt lat="43.29462" lon="-1.24239">
        <ele>238</ele>
        <time>2022-01-15T03:45:59Z</time>
      </trkpt>
      <trkpt lat="43.295" lon="-1.24316">
        <ele>242</ele>
        <time>2022-01-15T03:46:14Z</time>
      </trkpt>
      <trkpt lat="43.29517" lon="-1.24345">
        <ele>246</ele>
        <time>2022-01-15T03:46:21Z</time>
      </trkpt>
      <trkpt lat="43.29532" lon="-1.24364">
        <ele>248</ele>
        <time>2022-01-15T03:46:25Z</time>
      </trkpt>
      <trkpt lat="43.29554" lon="-1.24385">
        <ele>248</ele>
        <time>2022-01-15T03:46:32Z</time>
      </trkpt>
      <trkpt lat="43.29585" lon="-1.24427">
        <ele>248</ele>
        <time>2022-01-15T03:46:42Z</time>
      </trkpt>
      <trkpt lat="43.29607" lon="-1.24468">
        <ele>255</ele>
        <time>2022-01-15T03:46:51Z</time>
      </trkpt>
      <trkpt lat="43.29629" lon="-1.24549">
        <ele>264</ele>
        <time>2022-01-15T03:47:05Z</time>
      </trkpt>
      <trkpt lat="43.29637" lon="-1.24567">
        <ele>265</ele>
        <time>2022-01-15T03:47:09Z</time>
      </trkpt>
      <trkpt lat="43.29653" lon="-1.24591">
        <ele>264</ele>
        <time>2022-01-15T03:47:14Z</time>
      </trkpt>
      <trkpt lat="43.2969" lon="-1.24633">
        <ele>268</ele>
        <time>2022-01-15T03:47:26Z</time>
      </trkpt>
      <trkpt lat="43.29704" lon="-1.24656">
        <ele>270</ele>
        <time>2022-01-15T03:47:31Z</time>
      </trkpt>
      <trkpt lat="43.29741" lon="-1.24707">
        <ele>276</ele>
        <time>2022-01-15T03:47:43Z</time>
      </trkpt>
      <trkpt lat="43.29768" lon="-1.24728">
        <ele>278</ele>
        <time>2022-01-15T03:47:50Z</time>
      </trkpt>
      <trkpt lat="43.29842" lon="-1.24744">
        <ele>280</ele>
        <time>2022-01-15T03:48:08Z</time>
      </trkpt>
      <trkpt lat="43.29858" lon="-1.24752">
        <ele>279</ele>
        <time>2022-01-15T03:48:12Z</time>
      </trkpt>
      <trkpt lat="43.29871" lon="-1.24763">
        <ele>280</ele>
        <time>2022-01-15T03:48:15Z</time>
      </trkpt>
      <trkpt lat="43.29884" lon="-1.24778">
        <ele>280</ele>
        <time>2022-01-15T03:48:19Z</time>
      </trkpt>
      <trkpt lat="43.2991" lon="-1.24816">
        <ele>281</ele>
        <time>2022-01-15T03:48:28Z</time>
      </trkpt>
      <trkpt lat="43.29949" lon="-1.24884">
        <ele>281</ele>
        <time>2022-01-15T03:48:43Z</time>
      </trkpt>
      <trkpt lat="43.2996" lon="-1.24899">
        <ele>281</ele>
        <time>2022-01-15T03:48:46Z</time>
      </trkpt>
      <trkpt lat="43.30043" lon="-1.24979">
        <ele>275</ele>
        <time>2022-01-15T03:49:10Z</time>
      </trkpt>
      <trkpt lat="43.30069" lon="-1.24997">
        <ele>271</ele>
        <time>2022-01-15T03:49:17Z</time>
      </trkpt>
      <trkpt lat="43.30088" lon="-1.25004">
        <ele>267</ele>
        <time>2022-01-15T03:49:21Z</time>
      </trkpt>
      <trkpt lat="43.30109" lon="-1.25006">
        <ele>267</ele>
        <time>2022-01-15T03:49:26Z</time>
      </trkpt>
      <trkpt lat="43.30129" lon="-1.25002">
        <ele>265</ele>
        <time>2022-01-15T03:49:31Z</time>
      </trkpt>
      <trkpt lat="43.3015" lon="-1.24993">
        <ele>263</ele>
        <time>2022-01-15T03:49:36Z</time>
      </trkpt>
      <trkpt lat="43.30193" lon="-1.24961">
        <ele>260</ele>
        <time>2022-01-15T03:49:48Z</time>
      </trkpt>
      <trkpt lat="43.30213" lon="-1.24954">
        <ele>258</ele>
        <time>2022-01-15T03:49:52Z</time>
      </trkpt>
      <trkpt lat="43.30234" lon="-1.24955">
        <ele>258</ele>
        <time>2022-01-15T03:49:57Z</time>
      </trkpt>
      <trkpt lat="43.30245" lon="-1.24959">
        <ele>257</ele>
        <time>2022-01-15T03:50:00Z</time>
      </trkpt>
      <trkpt lat="43.30286" lon="-1.24979">
        <ele>252</ele>
        <time>2022-01-15T03:50:10Z</time>
      </trkpt>
      <trkpt lat="43.30294" lon="-1.24985">
        <ele>251</ele>
        <time>2022-01-15T03:50:12Z</time>
      </trkpt>
      <trkpt lat="43.3031" lon="-1.24999">
        <ele>249</ele>
        <time>2022-01-15T03:50:17Z</time>
      </trkpt>
      <trkpt lat="43.30328" lon="-1.25032">
        <ele>247</ele>
        <time>2022-01-15T03:50:24Z</time>
      </trkpt>
      <trkpt lat="43.30341" lon="-1.25072">
        <ele>246</ele>
        <time>2022-01-15T03:50:31Z</time>
      </trkpt>
      <trkpt lat="43.30349" lon="-1.25117">
        <ele>246</ele>
        <time>2022-01-15T03:50:39Z</time>
      </trkpt>
      <trkpt lat="43.30357" lon="-1.25147">
        <ele>246</ele>
        <time>2022-01-15T03:50:44Z</time>
      </trkpt>
      <trkpt lat="43.30372" lon="-1.25174">
        <ele>245</ele>
        <time>2022-01-15T03:50:50Z</time>
      </trkpt>
      <trkpt lat="43.3039" lon="-1.25195">
        <ele>243</ele>
        <time>2022-01-15T03:50:56Z</time>
      </trkpt>
      <trkpt lat="43.30416" lon="-1.25219">
        <ele>241</ele>
        <time>2022-01-15T03:51:03Z</time>
      </trkpt>
      <trkpt lat="43.30497" lon="-1.25286">
        <ele>243</ele>
        <time>2022-01-15T03:51:25Z</time>
      </trkpt>
      <trkpt lat="43.30551" lon="-1.25335">
        <ele>249</ele>
        <time>2022-01-15T03:51:40Z</time>
      </trkpt>
      <trkpt lat="43.30597" lon="-1.25371">
        <ele>252</ele>
        <time>2022-01-15T03:51:53Z</time>
      </trkpt>
      <trkpt lat="43.30643" lon="-1.25419">
        <ele>257</ele>
        <time>2022-01-15T03:52:06Z</time>
      </trkpt>
      <trkpt lat="43.30717" lon="-1.25483">
        <ele>262</ele>
        <time>2022-01-15T03:52:27Z</time>
      </trkpt>
      <trkpt lat="43.3073" lon="-1.25504">
        <ele>264</ele>
        <time>2022-01-15T03:52:31Z</time>
      </trkpt>
      <trkpt lat="43.3076" lon="-1.2554">
        <ele>265</ele>
        <time>2022-01-15T03:52:40Z</time>
      </trkpt>
      <trkpt lat="43.30774" lon="-1.25568">
        <ele>265</ele>
        <time>2022-01-15T03:52:46Z</time>
      </trkpt>
      <trkpt lat="43.30809" lon="-1.25615">
        <ele>263</ele>
        <time>2022-01-15T03:52:58Z</time>
      </trkpt>
      <trkpt lat="43.30833" lon="-1.25652">
        <ele>263</ele>
        <time>2022-01-15T03:53:06Z</time>
      </trkpt>
      <trkpt lat="43.30845" lon="-1.25664">
        <ele>262</ele>
        <time>2022-01-15T03:53:10Z</time>
      </trkpt>
      <trkpt lat="43.30874" lon="-1.25684">
        <ele>262</ele>
        <time>2022-01-15T03:53:17Z</time>
      </trkpt>
      <trkpt lat="43.3089" lon="-1.25691">
        <ele>262</ele>
        <time>2022-01-15T03:53:21Z</time>
      </trkpt>
      <trkpt lat="43.30908" lon="-1.25694">
        <ele>261</ele>
        <time>2022-01-15T03:53:25Z</time>
      </trkpt>
      <trkpt lat="43.30951" lon="-1.25692">
        <ele>258</ele>
        <time>2022-01-15T03:53:35Z</time>
      </trkpt>
      <trkpt lat="43.31026" lon="-1.25727">
        <ele>256</ele>
        <time>2022-01-15T03:53:54Z</time>
      </trkpt>
      <trkpt lat="43.31093" lon="-1.2574">
        <ele>254</ele>
        <time>2022-01-15T03:54:10Z</time>
      </trkpt>
      <trkpt lat="43.31108" lon="-1.25746">
        <ele>254</ele>
        <time>2022-01-15T03:54:13Z</time>
      </trkpt>
      <trkpt lat="43.31165" lon="-1.25781">
        <ele>255</ele>
        <time>2022-01-15T03:54:28Z</time>
      </trkpt>
      <trkpt lat="43.31208" lon="-1.25799">
        <ele>258</ele>
        <time>2022-01-15T03:54:38Z</time>
      </trkpt>
      <trkpt lat="43.31239" lon="-1.25797">
        <ele>258</ele>
        <time>2022-01-15T03:54:46Z</time>
      </trkpt>
      <trkpt lat="43.31254" lon="-1.25792">
        <ele>259</ele>
        <time>2022-01-15T03:54:49Z</time>
      </trkpt>
      <trkpt lat="43.31299" lon="-1.25767">
        <ele>258</ele>
        <time>2022-01-15T03:55:01Z</time>
      </trkpt>
      <trkpt lat="43.3134" lon="-1.25761">
        <ele>258</ele>
        <time>2022-01-15T03:55:10Z</time>
      </trkpt>
      <trkpt lat="43.31377" lon="-1.25762">
        <ele>253</ele>
        <time>2022-01-15T03:55:19Z</time>
      </trkpt>
      <trkpt lat="43.31397" lon="-1.25766">
        <ele>251</ele>
        <time>2022-01-15T03:55:24Z</time>
      </trkpt>
      <trkpt lat="43.31406" lon="-1.25771">
        <ele>250</ele>
        <time>2022-01-15T03:55:26Z</time>
      </trkpt>
      <trkpt lat="43.31425" lon="-1.25788">
        <ele>248</ele>
        <time>2022-01-15T03:55:31Z</time>
      </trkpt>
      <trkpt lat="43.3148" lon="-1.25856">
        <ele>242</ele>
        <time>2022-01-15T03:55:48Z</time>
      </trkpt>
      <trkpt lat="43.31499" lon="-1.25894">
        <ele>241</ele>
        <time>2022-01-15T03:55:56Z</time>
      </trkpt>
      <trkpt lat="43.31517" lon="-1.25975">
        <ele>239</ele>
        <time>2022-01-15T03:56:11Z</time>
      </trkpt>
      <trkpt lat="43.31535" lon="-1.26027">
        <ele>234</ele>
        <time>2022-01-15T03:56:20Z</time>
      </trkpt>
      <trkpt lat="43.31565" lon="-1.26074">
        <ele>224</ele>
        <time>2022-01-15T03:56:31Z</time>
      </trkpt>
      <trkpt lat="43.31623" lon="-1.2618">
        <ele>217</ele>
        <time>2022-01-15T03:56:54Z</time>
      </trkpt>
      <trkpt lat="43.31646" lon="-1.26247">
        <ele>217</ele>
        <time>2022-01-15T03:57:06Z</time>
      </trkpt>
      <trkpt lat="43.31667" lon="-1.26395">
        <ele>222</ele>
        <time>2022-01-15T03:57:32Z</time>
      </trkpt>
      <trkpt lat="43.31684" lon="-1.2644">
        <ele>225</ele>
        <time>2022-01-15T03:57:40Z</time>
      </trkpt>
      <trkpt lat="43.31695" lon="-1.26457">
        <ele>225</ele>
        <time>2022-01-15T03:57:44Z</time>
      </trkpt>
      <trkpt lat="43.31709" lon="-1.26488">
        <ele>226</ele>
        <time>2022-01-15T03:57:50Z</time>
      </trkpt>
      <trkpt lat="43.3173" lon="-1.2655">
        <ele>227</ele>
        <time>2022-01-15T03:58:02Z</time>
      </trkpt>
      <trkpt lat="43.31753" lon="-1.26585">
        <ele>228</ele>
        <time>2022-01-15T03:58:10Z</time>
      </trkpt>
      <trkpt lat="43.31761" lon="-1.26592">
        <ele>228</ele>
        <time>2022-01-15T03:58:12Z</time>
      </trkpt>
      <trkpt lat="43.31861" lon="-1.26653">
        <ele>228</ele>
        <time>2022-01-15T03:58:38Z</time>
      </trkpt>
      <trkpt lat="43.31914" lon="-1.26681">
        <ele>228</ele>
        <time>2022-01-15T03:58:51Z</time>
      </trkpt>
      <trkpt lat="43.32029" lon="-1.26727">
        <ele>226</ele>
        <time>2022-01-15T03:59:19Z</time>
      </trkpt>
      <trkpt lat="43.32085" lon="-1.26737">
        <ele>225</ele>
        <time>2022-01-15T03:59:32Z</time>
      </trkpt>
      <trkpt lat="43.32124" lon="-1.26748">
        <ele>223</ele>
        <time>2022-01-15T03:59:42Z</time>
      </trkpt>
      <trkpt lat="43.3216" lon="-1.26763">
        <ele>220</ele>
        <time>2022-01-15T03:59:50Z</time>
      </trkpt>
      <trkpt lat="43.32317" lon="-1.26853">
        <ele>214</ele>
        <time>2022-01-15T04:00:30Z</time>
      </trkpt>
      <trkpt lat="43.32388" lon="-1.26884">
        <ele>211</ele>
        <time>2022-01-15T04:00:47Z</time>
      </trkpt>
      <trkpt lat="43.32404" lon="-1.26894">
        <ele>210</ele>
        <time>2022-01-15T04:00:52Z</time>
      </trkpt>
      <trkpt lat="43.32442" lon="-1.26926">
        <ele>211</ele>
        <time>2022-01-15T04:01:02Z</time>
      </trkpt>
      <trkpt lat="43.32486" lon="-1.26955">
        <ele>216</ele>
        <time>2022-01-15T04:01:13Z</time>
      </trkpt>
      <trkpt lat="43.32518" lon="-1.2696">
        <ele>217</ele>
        <time>2022-01-15T04:01:21Z</time>
      </trkpt>
      <trkpt lat="43.32573" lon="-1.26949">
        <ele>213</ele>
        <time>2022-01-15T04:01:34Z</time>
      </trkpt>
      <trkpt lat="43.32635" lon="-1.26925">
        <ele>207</ele>
        <time>2022-01-15T04:01:49Z</time>
      </trkpt>
      <trkpt lat="43.32682" lon="-1.26891">
        <ele>200</ele>
        <time>2022-01-15T04:02:01Z</time>
      </trkpt>
      <trkpt lat="43.32707" lon="-1.2688">
        <ele>196</ele>
        <time>2022-01-15T04:02:07Z</time>
      </trkpt>
      <trkpt lat="43.32736" lon="-1.2688">
        <ele>193</ele>
        <time>2022-01-15T04:02:14Z</time>
      </trkpt>
      <trkpt lat="43.32777" lon="-1.26894">
        <ele>188</ele>
        <time>2022-01-15T04:02:24Z</time>
      </trkpt>
      <trkpt lat="43.32817" lon="-1.26917">
        <ele>180</ele>
        <time>2022-01-15T04:02:34Z</time>
      </trkpt>
      <trkpt lat="43.329" lon="-1.27003">
        <ele>165</ele>
        <time>2022-01-15T04:02:58Z</time>
      </trkpt>
      <trkpt lat="43.32929" lon="-1.27025">
        <ele>161</ele>
        <time>2022-01-15T04:03:06Z</time>
      </trkpt>
      <trkpt lat="43.32984" lon="-1.27061">
        <ele>151</ele>
        <time>2022-01-15T04:03:20Z</time>
      </trkpt>
      <trkpt lat="43.33036" lon="-1.27081">
        <ele>149</ele>
        <time>2022-01-15T04:03:33Z</time>
      </trkpt>
      <trkpt lat="43.33089" lon="-1.27117">
        <ele>151</ele>
        <time>2022-01-15T04:03:47Z</time>
      </trkpt>
      <trkpt lat="43.33112" lon="-1.27139">
        <ele>152</ele>
        <time>2022-01-15T04:03:53Z</time>
      </trkpt>
      <trkpt lat="43.33232" lon="-1.27239">
        <ele>160</ele>
        <time>2022-01-15T04:04:26Z</time>
      </trkpt>
      <trkpt lat="43.33254" lon="-1.27263">
        <ele>162</ele>
        <time>2022-01-15T04:04:33Z</time>
      </trkpt>
      <trkpt lat="43.3328" lon="-1.273">
        <ele>165</ele>
        <time>2022-01-15T04:04:41Z</time>
      </trkpt>
      <trkpt lat="43.33314" lon="-1.27337">
        <ele>168</ele>
        <time>2022-01-15T04:04:52Z</time>
      </trkpt>
      <trkpt lat="43.33336" lon="-1.27353">
        <ele>170</ele>
        <time>2022-01-15T04:04:57Z</time>
      </trkpt>
      <trkpt lat="43.33356" lon="-1.27362">
        <ele>171</ele>
        <time>2022-01-15T04:05:02Z</time>
      </trkpt>
      <trkpt lat="43.33403" lon="-1.27372">
        <ele>174</ele>
        <time>2022-01-15T04:05:13Z</time>
      </trkpt>
      <trkpt lat="43.33466" lon="-1.27369">
        <ele>176</ele>
        <time>2022-01-15T04:05:28Z</time>
      </trkpt>
      <trkpt lat="43.33652" lon="-1.27302">
        <ele>175</ele>
        <time>2022-01-15T04:06:13Z</time>
      </trkpt>
      <trkpt lat="43.33708" lon="-1.27279">
        <ele>176</ele>
        <time>2022-01-15T04:06:27Z</time>
      </trkpt>
      <trkpt lat="43.33744" lon="-1.27259">
        <ele>176</ele>
        <time>2022-01-15T04:06:36Z</time>
      </trkpt>
      <trkpt lat="43.33799" lon="-1.27223">
        <ele>171</ele>
        <time>2022-01-15T04:06:50Z</time>
      </trkpt>
      <trkpt lat="43.33834" lon="-1.27206">
        <ele>167</ele>
        <time>2022-01-15T04:06:59Z</time>
      </trkpt>
      <trkpt lat="43.33862" lon="-1.27199">
        <ele>166</ele>
        <time>2022-01-15T04:07:05Z</time>
      </trkpt>
      <trkpt lat="43.33892" lon="-1.27205">
        <ele>163</ele>
        <time>2022-01-15T04:07:12Z</time>
      </trkpt>
      <trkpt lat="43.3391" lon="-1.27214">
        <ele>161</ele>
        <time>2022-01-15T04:07:17Z</time>
      </trkpt>
      <trkpt lat="43.33984" lon="-1.27286">
        <ele>158</ele>
        <time>2022-01-15T04:07:38Z</time>
      </trkpt>
      <trkpt lat="43.33994" lon="-1.27291">
        <ele>158</ele>
        <time>2022-01-15T04:07:41Z</time>
      </trkpt>
      <trkpt lat="43.34024" lon="-1.27297">
        <ele>157</ele>
        <time>2022-01-15T04:07:48Z</time>
      </trkpt>
      <trkpt lat="43.34119" lon="-1.27296">
        <ele>154</ele>
        <time>2022-01-15T04:08:10Z</time>
      </trkpt>
      <trkpt lat="43.34211" lon="-1.273">
        <ele>148</ele>
        <time>2022-01-15T04:08:31Z</time>
      </trkpt>
      <trkpt lat="43.34243" lon="-1.27297">
        <ele>145</ele>
        <time>2022-01-15T04:08:39Z</time>
      </trkpt>
      <trkpt lat="43.34283" lon="-1.27279">
        <ele>142</ele>
        <time>2022-01-15T04:08:49Z</time>
      </trkpt>
      <trkpt lat="43.34396" lon="-1.27212">
        <ele>138</ele>
        <time>2022-01-15T04:09:17Z</time>
      </trkpt>
      <trkpt lat="43.34423" lon="-1.27203">
        <ele>139</ele>
        <time>2022-01-15T04:09:24Z</time>
      </trkpt>
      <trkpt lat="43.34465" lon="-1.27209">
        <ele>141</ele>
        <time>2022-01-15T04:09:34Z</time>
      </trkpt>
      <trkpt lat="43.34558" lon="-1.27239">
        <ele>144</ele>
        <time>2022-01-15T04:09:56Z</time>
      </trkpt>
      <trkpt lat="43.346" lon="-1.27255">
        <ele>146</ele>
        <time>2022-01-15T04:10:06Z</time>
      </trkpt>
      <trkpt lat="43.34687" lon="-1.27278">
        <ele>151</ele>
        <time>2022-01-15T04:10:27Z</time>
      </trkpt>
      <trkpt lat="43.3471" lon="-1.2728">
        <ele>153</ele>
        <time>2022-01-15T04:10:32Z</time>
      </trkpt>
      <trkpt lat="43.34775" lon="-1.27273">
        <ele>156</ele>
        <time>2022-01-15T04:10:47Z</time>
      </trkpt>
      <trkpt lat="43.34789" lon="-1.27275">
        <ele>156</ele>
        <time>2022-01-15T04:10:51Z</time>
      </trkpt>
      <trkpt lat="43.34809" lon="-1.27283">
        <ele>155</ele>
        <time>2022-01-15T04:10:56Z</time>
      </trkpt>
      <trkpt lat="43.34904" lon="-1.27347">
        <ele>146</ele>
        <time>2022-01-15T04:11:20Z</time>
      </trkpt>
      <trkpt lat="43.34923" lon="-1.27355">
        <ele>145</ele>
        <time>2022-01-15T04:11:25Z</time>
      </trkpt>
      <trkpt lat="43.34944" lon="-1.27357">
        <ele>144</ele>
        <time>2022-01-15T04:11:30Z</time>
      </trkpt>
      <trkpt lat="43.34966" lon="-1.27351">
        <ele>143</ele>
        <time>2022-01-15T04:11:35Z</time>
      </trkpt>
      <trkpt lat="43.34986" lon="-1.27337">
        <ele>141</ele>
        <time>2022-01-15T04:11:40Z</time>
      </trkpt>
      <trkpt lat="43.35005" lon="-1.27316">
        <ele>139</ele>
        <time>2022-01-15T04:11:46Z</time>
      </trkpt>
      <trkpt lat="43.35044" lon="-1.27255">
        <ele>135</ele>
        <time>2022-01-15T04:12:00Z</time>
      </trkpt>
      <trkpt lat="43.35071" lon="-1.27218">
        <ele>134</ele>
        <time>2022-01-15T04:12:09Z</time>
      </trkpt>
      <trkpt lat="43.35092" lon="-1.27198">
        <ele>132</ele>
        <time>2022-01-15T04:12:15Z</time>
      </trkpt>
      <trkpt lat="43.3518" lon="-1.27173">
        <ele>127</ele>
        <time>2022-01-15T04:12:36Z</time>
      </trkpt>
      <trkpt lat="43.35206" lon="-1.27164">
        <ele>126</ele>
        <time>2022-01-15T04:12:42Z</time>
      </trkpt>
      <trkpt lat="43.3523" lon="-1.27151">
        <ele>126</ele>
        <time>2022-01-15T04:12:48Z</time>
      </trkpt>
      <trkpt lat="43.35261" lon="-1.27118">
        <ele>124</ele>
        <time>2022-01-15T04:12:57Z</time>
      </trkpt>
      <trkpt lat="43.35298" lon="-1.27049">
        <ele>121</ele>
        <time>2022-01-15T04:13:12Z</time>
      </trkpt>
      <trkpt lat="43.35316" lon="-1.27025">
        <ele>119</ele>
        <time>2022-01-15T04:13:18Z</time>
      </trkpt>
      <trkpt lat="43.35327" lon="-1.27017">
        <ele>117</ele>
        <time>2022-01-15T04:13:20Z</time>
      </trkpt>
      <trkpt lat="43.3535" lon="-1.27006">
        <ele>115</ele>
        <time>2022-01-15T04:13:26Z</time>
      </trkpt>
      <trkpt lat="43.35438" lon="-1.26991">
        <ele>114</ele>
        <time>2022-01-15T04:13:47Z</time>
      </trkpt>
      <trkpt lat="43.35558" lon="-1.26962">
        <ele>108</ele>
        <time>2022-01-15T04:14:15Z</time>
      </trkpt>
      <trkpt lat="43.35738" lon="-1.26943">
        <ele>92</ele>
        <time>2022-01-15T04:14:57Z</time>
      </trkpt>
      <trkpt lat="43.35966" lon="-1.26929">
        <ele>84</ele>
        <time>2022-01-15T04:15:51Z</time>
      </trkpt>
      <trkpt lat="43.36037" lon="-1.26909">
        <ele>83</ele>
        <time>2022-01-15T04:16:08Z</time>
      </trkpt>
      <trkpt lat="43.36057" lon="-1.26901">
        <ele>83</ele>
        <time>2022-01-15T04:16:13Z</time>
      </trkpt>
      <trkpt lat="43.36122" lon="-1.26861">
        <ele>84</ele>
        <time>2022-01-15T04:16:29Z</time>
      </trkpt>
      <trkpt lat="43.36297" lon="-1.26763">
        <ele>80</ele>
        <time>2022-01-15T04:17:13Z</time>
      </trkpt>
      <trkpt lat="43.36336" lon="-1.26745">
        <ele>75</ele>
        <time>2022-01-15T04:17:23Z</time>
      </trkpt>
      <trkpt lat="43.36371" lon="-1.26737">
        <ele>74</ele>
        <time>2022-01-15T04:17:31Z</time>
      </trkpt>
      <trkpt lat="43.36432" lon="-1.26736">
        <ele>69</ele>
        <time>2022-01-15T04:17:45Z</time>
      </trkpt>
      <trkpt lat="43.36471" lon="-1.26744">
        <ele>65</ele>
        <time>2022-01-15T04:17:55Z</time>
      </trkpt>
      <trkpt lat="43.36591" lon="-1.26751">
        <ele>59</ele>
        <time>2022-01-15T04:18:23Z</time>
      </trkpt>
      <trkpt lat="43.36642" lon="-1.26761">
        <ele>57</ele>
        <time>2022-01-15T04:18:35Z</time>
      </trkpt>
      <trkpt lat="43.36691" lon="-1.26785">
        <ele>55</ele>
        <time>2022-01-15T04:18:47Z</time>
      </trkpt>
      <trkpt lat="43.36778" lon="-1.2685">
        <ele>52</ele>
        <time>2022-01-15T04:19:10Z</time>
      </trkpt>
      <trkpt lat="43.36817" lon="-1.26886">
        <ele>51</ele>
        <time>2022-01-15T04:19:21Z</time>
      </trkpt>
      <trkpt lat="43.36871" lon="-1.26964">
        <ele>54</ele>
        <time>2022-01-15T04:19:39Z</time>
      </trkpt>
      <trkpt lat="43.36899" lon="-1.2701">
        <ele>57</ele>
        <time>2022-01-15T04:19:49Z</time>
      </trkpt>
      <trkpt lat="43.36915" lon="-1.27042">
        <ele>59</ele>
        <time>2022-01-15T04:19:56Z</time>
      </trkpt>
      <trkpt lat="43.36928" lon="-1.27062">
        <ele>62</ele>
        <time>2022-01-15T04:20:01Z</time>
      </trkpt>
      <trkpt lat="43.36935" lon="-1.27086">
        <ele>64</ele>
        <time>2022-01-15T04:20:05Z</time>
      </trkpt>
      <trkpt lat="43.36945" lon="-1.27104">
        <ele>66</ele>
        <time>2022-01-15T04:20:09Z</time>
      </trkpt>
      <trkpt lat="43.36957" lon="-1.27149">
        <ele>69</ele>
        <time>2022-01-15T04:20:17Z</time>
      </trkpt>
      <trkpt lat="43.36967" lon="-1.27202">
        <ele>71</ele>
        <time>2022-01-15T04:20:26Z</time>
      </trkpt>
      <trkpt lat="43.3697" lon="-1.27237">
        <ele>72</ele>
        <time>2022-01-15T04:20:32Z</time>
      </trkpt>
      <trkpt lat="43.37001" lon="-1.27357">
        <ele>71</ele>
        <time>2022-01-15T04:20:54Z</time>
      </trkpt>
      <trkpt lat="43.37011" lon="-1.27368">
        <ele>71</ele>
        <time>2022-01-15T04:20:57Z</time>
      </trkpt>
      <trkpt lat="43.3703" lon="-1.27382">
        <ele>73</ele>
        <time>2022-01-15T04:21:02Z</time>
      </trkpt>
      <trkpt lat="43.37085" lon="-1.27413">
        <ele>80</ele>
        <time>2022-01-15T04:21:16Z</time>
      </trkpt>
      <trkpt lat="43.37096" lon="-1.27426">
        <ele>83</ele>
        <time>2022-01-15T04:21:19Z</time>
      </trkpt>
      <trkpt lat="43.37112" lon="-1.27465">
        <ele>86</ele>
        <time>2022-01-15T04:21:27Z</time>
      </trkpt>
      <trkpt lat="43.37118" lon="-1.27523">
        <ele>85</ele>
        <time>2022-01-15T04:21:37Z</time>
      </trkpt>
      <trkpt lat="43.3713" lon="-1.27551">
        <ele>86</ele>
        <time>2022-01-15T04:21:42Z</time>
      </trkpt>
      <trkpt lat="43.37135" lon="-1.27557">
        <ele>86</ele>
        <time>2022-01-15T04:21:44Z</time>
      </trkpt>
      <trkpt lat="43.37159" lon="-1.27579">
        <ele>89</ele>
        <time>2022-01-15T04:21:51Z</time>
      </trkpt>
      <trkpt lat="43.37189" lon="-1.27595">
        <ele>90</ele>
        <time>2022-01-15T04:21:58Z</time>
      </trkpt>
      <trkpt lat="43.37207" lon="-1.27601">
        <ele>90</ele>
        <time>2022-01-15T04:22:02Z</time>
      </trkpt>
      <trkpt lat="43.3726" lon="-1.27592">
        <ele>97</ele>
        <time>2022-01-15T04:22:15Z</time>
      </trkpt>
      <trkpt lat="43.373" lon="-1.276">
        <ele>104</ele>
        <time>2022-01-15T04:22:24Z</time>
      </trkpt>
      <trkpt lat="43.37316" lon="-1.27616">
        <ele>104</ele>
        <time>2022-01-15T04:22:29Z</time>
      </trkpt>
      <trkpt lat="43.37351" lon="-1.27663">
        <ele>104</ele>
        <time>2022-01-15T04:22:40Z</time>
      </trkpt>
      <trkpt lat="43.3737" lon="-1.27681">
        <ele>104</ele>
        <time>2022-01-15T04:22:46Z</time>
      </trkpt>
      <trkpt lat="43.37451" lon="-1.27724">
        <ele>107</ele>
        <time>2022-01-15T04:23:06Z</time>
      </trkpt>
      <trkpt lat="43.37476" lon="-1.27729">
        <ele>109</ele>
        <time>2022-01-15T04:23:12Z</time>
      </trkpt>
      <trkpt lat="43.3749" lon="-1.27735">
        <ele>110</ele>
        <time>2022-01-15T04:23:15Z</time>
      </trkpt>
      <trkpt lat="43.3756" lon="-1.27797">
        <ele>115</ele>
        <time>2022-01-15T04:23:35Z</time>
      </trkpt>
      <trkpt lat="43.37612" lon="-1.27848">
        <ele>121</ele>
        <time>2022-01-15T04:23:50Z</time>
      </trkpt>
      <trkpt lat="43.37628" lon="-1.27859">
        <ele>123</ele>
        <time>2022-01-15T04:23:54Z</time>
      </trkpt>
      <trkpt lat="43.37659" lon="-1.27864">
        <ele>128</ele>
        <time>2022-01-15T04:24:01Z</time>
      </trkpt>
      <trkpt lat="43.37696" lon="-1.27863">
        <ele>126</ele>
        <time>2022-01-15T04:24:10Z</time>
      </trkpt>
      <trkpt lat="43.37702" lon="-1.27865">
        <ele>125</ele>
        <time>2022-01-15T04:24:11Z</time>
      </trkpt>
      <trkpt lat="43.37713" lon="-1.27876">
        <ele>125</ele>
        <time>2022-01-15T04:24:14Z</time>
      </trkpt>
      <trkpt lat="43.3774" lon="-1.27913">
        <ele>124</ele>
        <time>2022-01-15T04:24:23Z</time>
      </trkpt>
      <trkpt lat="43.37752" lon="-1.27938">
        <ele>123</ele>
        <time>2022-01-15T04:24:28Z</time>
      </trkpt>
      <trkpt lat="43.37754" lon="-1.2795">
        <ele>123</ele>
        <time>2022-01-15T04:24:30Z</time>
      </trkpt>
      <trkpt lat="43.37749" lon="-1.28007">
        <ele>126</ele>
        <time>2022-01-15T04:24:40Z</time>
      </trkpt>
      <trkpt lat="43.37731" lon="-1.28064">
        <ele>128</ele>
        <time>2022-01-15T04:24:51Z</time>
      </trkpt>
      <trkpt lat="43.37724" lon="-1.28139">
        <ele>127</ele>
        <time>2022-01-15T04:25:04Z</time>
      </trkpt>
      <trkpt lat="43.37724" lon="-1.28222">
        <ele>120</ele>
        <time>2022-01-15T04:25:18Z</time>
      </trkpt>
      <trkpt lat="43.37714" lon="-1.28275">
        <ele>120</ele>
        <time>2022-01-15T04:25:27Z</time>
      </trkpt>
      <trkpt lat="43.37713" lon="-1.28302">
        <ele>119</ele>
        <time>2022-01-15T04:25:32Z</time>
      </trkpt>
      <trkpt lat="43.37706" lon="-1.28337">
        <ele>119</ele>
        <time>2022-01-15T04:25:38Z</time>
      </trkpt>
      <trkpt lat="43.37697" lon="-1.28361">
        <ele>120</ele>
        <time>2022-01-15T04:25:42Z</time>
      </trkpt>
      <trkpt lat="43.37664" lon="-1.28514">
        <ele>121</ele>
        <time>2022-01-15T04:26:09Z</time>
      </trkpt>
      <trkpt lat="43.37666" lon="-1.28555">
        <ele>121</ele>
        <time>2022-01-15T04:26:16Z</time>
      </trkpt>
      <trkpt lat="43.37675" lon="-1.28584">
        <ele>120</ele>
        <time>2022-01-15T04:26:22Z</time>
      </trkpt>
      <trkpt lat="43.37702" lon="-1.28627">
        <ele>117</ele>
        <time>2022-01-15T04:26:31Z</time>
      </trkpt>
      <trkpt lat="43.37728" lon="-1.2866">
        <ele>115</ele>
        <time>2022-01-15T04:26:40Z</time>
      </trkpt>
      <trkpt lat="43.37748" lon="-1.28679">
        <ele>114</ele>
        <time>2022-01-15T04:26:45Z</time>
      </trkpt>
      <trkpt lat="43.37747" lon="-1.28683">
        <ele>115</ele>
        <time>2022-01-15T04:26:46Z</time>
      </trkpt>
      <trkpt lat="43.37765" lon="-1.28701">
        <ele>114</ele>
        <time>2022-01-15T04:26:51Z</time>
      </trkpt>
      <trkpt lat="43.37792" lon="-1.2874">
        <ele>112</ele>
        <time>2022-01-15T04:27:00Z</time>
      </trkpt>
      <trkpt lat="43.37842" lon="-1.28823">
        <ele>109</ele>
        <time>2022-01-15T04:27:19Z</time>
      </trkpt>
      <trkpt lat="43.37942" lon="-1.29004">
        <ele>102</ele>
        <time>2022-01-15T04:27:57Z</time>
      </trkpt>
      <trkpt lat="43.38009" lon="-1.29101">
        <ele>102</ele>
        <time>2022-01-15T04:28:20Z</time>
      </trkpt>
      <trkpt lat="43.38024" lon="-1.29118">
        <ele>101</ele>
        <time>2022-01-15T04:28:24Z</time>
      </trkpt>
      <trkpt lat="43.3805" lon="-1.29139">
        <ele>98</ele>
        <time>2022-01-15T04:28:32Z</time>
      </trkpt>
      <trkpt lat="43.38111" lon="-1.29174">
        <ele>91</ele>
        <time>2022-01-15T04:28:47Z</time>
      </trkpt>
      <trkpt lat="43.38139" lon="-1.29199">
        <ele>89</ele>
        <time>2022-01-15T04:28:55Z</time>
      </trkpt>
      <trkpt lat="43.38188" lon="-1.29254">
        <ele>84</ele>
        <time>2022-01-15T04:29:10Z</time>
      </trkpt>
      <trkpt lat="43.38257" lon="-1.29344">
        <ele>81</ele>
        <time>2022-01-15T04:29:32Z</time>
      </trkpt>
      <trkpt lat="43.38336" lon="-1.29454">
        <ele>77</ele>
        <time>2022-01-15T04:29:58Z</time>
      </trkpt>
      <trkpt lat="43.38458" lon="-1.29643">
        <ele>76</ele>
        <time>2022-01-15T04:30:41Z</time>
      </trkpt>
      <trkpt lat="43.3848" lon="-1.29671">
        <ele>77</ele>
        <time>2022-01-15T04:30:48Z</time>
      </trkpt>
      <trkpt lat="43.38497" lon="-1.2969">
        <ele>77</ele>
        <time>2022-01-15T04:30:53Z</time>
      </trkpt>
      <trkpt lat="43.38529" lon="-1.29719">
        <ele>76</ele>
        <time>2022-01-15T04:31:02Z</time>
      </trkpt>
      <trkpt lat="43.38588" lon="-1.2976">
        <ele>75</ele>
        <time>2022-01-15T04:31:17Z</time>
      </trkpt>
      <trkpt lat="43.38737" lon="-1.2984">
        <ele>68</ele>
        <time>2022-01-15T04:31:55Z</time>
      </trkpt>
      <trkpt lat="43.38753" lon="-1.2985">
        <ele>68</ele>
        <time>2022-01-15T04:31:59Z</time>
      </trkpt>
      <trkpt lat="43.38774" lon="-1.29869">
        <ele>70</ele>
        <time>2022-01-15T04:32:05Z</time>
      </trkpt>
      <trkpt lat="43.38786" lon="-1.29885">
        <ele>71</ele>
        <time>2022-01-15T04:32:09Z</time>
      </trkpt>
      <trkpt lat="43.38797" lon="-1.29913">
        <ele>72</ele>
        <time>2022-01-15T04:32:14Z</time>
      </trkpt>
      <trkpt lat="43.3881" lon="-1.29981">
        <ele>72</ele>
        <time>2022-01-15T04:32:26Z</time>
      </trkpt>
      <trkpt lat="43.38819" lon="-1.30046">
        <ele>70</ele>
        <time>2022-01-15T04:32:37Z</time>
      </trkpt>
      <trkpt lat="43.38838" lon="-1.30134">
        <ele>69</ele>
        <time>2022-01-15T04:32:53Z</time>
      </trkpt>
      <trkpt lat="43.38858" lon="-1.30189">
        <ele>70</ele>
        <time>2022-01-15T04:33:03Z</time>
      </trkpt>
      <trkpt lat="43.38881" lon="-1.30234">
        <ele>70</ele>
        <time>2022-01-15T04:33:13Z</time>
      </trkpt>
      <trkpt lat="43.38907" lon="-1.30257">
        <ele>70</ele>
        <time>2022-01-15T04:33:20Z</time>
      </trkpt>
      <trkpt lat="43.38939" lon="-1.30266">
        <ele>73</ele>
        <time>2022-01-15T04:33:27Z</time>
      </trkpt>
      <trkpt lat="43.3896" lon="-1.30286">
        <ele>75</ele>
        <time>2022-01-15T04:33:33Z</time>
      </trkpt>
      <trkpt lat="43.39018" lon="-1.30414">
        <ele>67</ele>
        <time>2022-01-15T04:33:59Z</time>
      </trkpt>
      <trkpt lat="43.39038" lon="-1.30453">
        <ele>67</ele>
        <time>2022-01-15T04:34:07Z</time>
      </trkpt>
      <trkpt lat="43.39056" lon="-1.30479">
        <ele>66</ele>
        <time>2022-01-15T04:34:13Z</time>
      </trkpt>
      <trkpt lat="43.39211" lon="-1.30662">
        <ele>62</ele>
        <time>2022-01-15T04:35:01Z</time>
      </trkpt>
      <trkpt lat="43.39256" lon="-1.30709">
        <ele>63</ele>
        <time>2022-01-15T04:35:14Z</time>
      </trkpt>
      <trkpt lat="43.39276" lon="-1.30738">
        <ele>62</ele>
        <time>2022-01-15T04:35:21Z</time>
      </trkpt>
      <trkpt lat="43.39321" lon="-1.30776">
        <ele>63</ele>
        <time>2022-01-15T04:35:33Z</time>
      </trkpt>
      <trkpt lat="43.3941" lon="-1.30843">
        <ele>59</ele>
        <time>2022-01-15T04:35:57Z</time>
      </trkpt>
      <trkpt lat="43.39449" lon="-1.30885">
        <ele>58</ele>
        <time>2022-01-15T04:36:08Z</time>
      </trkpt>
      <trkpt lat="43.39481" lon="-1.30929">
        <ele>55</ele>
        <time>2022-01-15T04:36:19Z</time>
      </trkpt>
      <trkpt lat="43.39534" lon="-1.30992">
        <ele>52</ele>
        <time>2022-01-15T04:36:35Z</time>
      </trkpt>
      <trkpt lat="43.39595" lon="-1.31075">
        <ele>49</ele>
        <time>2022-01-15T04:36:55Z</time>
      </trkpt>
      <trkpt lat="43.39617" lon="-1.31095">
        <ele>49</ele>
        <time>2022-01-15T04:37:01Z</time>
      </trkpt>
      <trkpt lat="43.39658" lon="-1.31151">
        <ele>51</ele>
        <time>2022-01-15T04:37:15Z</time>
      </trkpt>
      <trkpt lat="43.39707" lon="-1.31177">
        <ele>53</ele>
        <time>2022-01-15T04:37:27Z</time>
      </trkpt>
      <trkpt lat="43.3976" lon="-1.3121">
        <ele>55</ele>
        <time>2022-01-15T04:37:41Z</time>
      </trkpt>
      <trkpt lat="43.39804" lon="-1.31248">
        <ele>52</ele>
        <time>2022-01-15T04:37:53Z</time>
      </trkpt>
      <trkpt lat="43.39852" lon="-1.31284">
        <ele>54</ele>
        <time>2022-01-15T04:38:06Z</time>
      </trkpt>
      <trkpt lat="43.39887" lon="-1.31298">
        <ele>55</ele>
        <time>2022-01-15T04:38:14Z</time>
      </trkpt>
      <trkpt lat="43.39923" lon="-1.313">
        <ele>54</ele>
        <time>2022-01-15T04:38:23Z</time>
      </trkpt>
      <trkpt lat="43.39941" lon="-1.31297">
        <ele>54</ele>
        <time>2022-01-15T04:38:27Z</time>
      </trkpt>
      <trkpt lat="43.4005" lon="-1.31258">
        <ele>49</ele>
        <time>2022-01-15T04:38:53Z</time>
      </trkpt>
      <trkpt lat="43.40069" lon="-1.31256">
        <ele>49</ele>
        <time>2022-01-15T04:38:58Z</time>
      </trkpt>
      <trkpt lat="43.40096" lon="-1.31257">
        <ele>49</ele>
        <time>2022-01-15T04:39:04Z</time>
      </trkpt>
      <trkpt lat="43.40132" lon="-1.3127">
        <ele>49</ele>
        <time>2022-01-15T04:39:13Z</time>
      </trkpt>
      <trkpt lat="43.40166" lon="-1.3129">
        <ele>49</ele>
        <time>2022-01-15T04:39:21Z</time>
      </trkpt>
      <trkpt lat="43.40271" lon="-1.31338">
        <ele>40</ele>
        <time>2022-01-15T04:39:47Z</time>
      </trkpt>
      <trkpt lat="43.40357" lon="-1.31381">
        <ele>42</ele>
        <time>2022-01-15T04:40:08Z</time>
      </trkpt>
      <trkpt lat="43.40414" lon="-1.31391">
        <ele>42</ele>
        <time>2022-01-15T04:40:22Z</time>
      </trkpt>
      <trkpt lat="43.4046" lon="-1.31384">
        <ele>44</ele>
        <time>2022-01-15T04:40:33Z</time>
      </trkpt>
      <trkpt lat="43.40495" lon="-1.31369">
        <ele>44</ele>
        <time>2022-01-15T04:40:41Z</time>
      </trkpt>
      <trkpt lat="43.40545" lon="-1.31333">
        <ele>42</ele>
        <time>2022-01-15T04:40:54Z</time>
      </trkpt>
      <trkpt lat="43.4064" lon="-1.31254">
        <ele>40</ele>
        <time>2022-01-15T04:41:20Z</time>
      </trkpt>
      <trkpt lat="43.40812" lon="-1.31059">
        <ele>40</ele>
        <time>2022-01-15T04:42:12Z</time>
      </trkpt>
      <trkpt lat="43.4086" lon="-1.31025">
        <ele>39</ele>
        <time>2022-01-15T04:42:25Z</time>
      </trkpt>
      <trkpt lat="43.40913" lon="-1.31002">
        <ele>38</ele>
        <time>2022-01-15T04:42:38Z</time>
      </trkpt>
      <trkpt lat="43.4101" lon="-1.30993">
        <ele>36</ele>
        <time>2022-01-15T04:43:01Z</time>
      </trkpt>
      <trkpt lat="43.41123" lon="-1.30985">
        <ele>39</ele>
        <time>2022-01-15T04:43:27Z</time>
      </trkpt>
      <trkpt lat="43.41224" lon="-1.30981">
        <ele>38</ele>
        <time>2022-01-15T04:43:51Z</time>
      </trkpt>
      <trkpt lat="43.41284" lon="-1.30992">
        <ele>36</ele>
        <time>2022-01-15T04:44:05Z</time>
      </trkpt>
      <trkpt lat="43.41414" lon="-1.31058">
        <ele>34</ele>
        <time>2022-01-15T04:44:37Z</time>
      </trkpt>
      <trkpt lat="43.41598" lon="-1.31157">
        <ele>36</ele>
        <time>2022-01-15T04:45:23Z</time>
      </trkpt>
      <trkpt lat="43.41699" lon="-1.31215">
        <ele>34</ele>
        <time>2022-01-15T04:45:49Z</time>
      </trkpt>
      <trkpt lat="43.41735" lon="-1.31245">
        <ele>30</ele>
        <time>2022-01-15T04:45:59Z</time>
      </trkpt>
      <trkpt lat="43.41773" lon="-1.31294">
        <ele>29</ele>
        <time>2022-01-15T04:46:11Z</time>
      </trkpt>
      <trkpt lat="43.4181" lon="-1.31354">
        <ele>28</ele>
        <time>2022-01-15T04:46:24Z</time>
      </trkpt>
      <trkpt lat="43.4184" lon="-1.31391">
        <ele>26</ele>
        <time>2022-01-15T04:46:34Z</time>
      </trkpt>
      <trkpt lat="43.41881" lon="-1.3142">
        <ele>26</ele>
        <time>2022-01-15T04:46:44Z</time>
      </trkpt>
      <trkpt lat="43.41926" lon="-1.31437">
        <ele>28</ele>
        <time>2022-01-15T04:46:55Z</time>
      </trkpt>
      <trkpt lat="43.41972" lon="-1.3144">
        <ele>30</ele>
        <time>2022-01-15T04:47:06Z</time>
      </trkpt>
      <trkpt lat="43.42033" lon="-1.31433">
        <ele>29</ele>
        <time>2022-01-15T04:47:20Z</time>
      </trkpt>
      <trkpt lat="43.42144" lon="-1.31425">
        <ele>25</ele>
        <time>2022-01-15T04:47:46Z</time>
      </trkpt>
      <trkpt lat="43.42184" lon="-1.31431">
        <ele>26</ele>
        <time>2022-01-15T04:47:56Z</time>
      </trkpt>
      <trkpt lat="43.42233" lon="-1.31456">
        <ele>28</ele>
        <time>2022-01-15T04:48:08Z</time>
      </trkpt>
      <trkpt lat="43.42271" lon="-1.3149">
        <ele>30</ele>
        <time>2022-01-15T04:48:18Z</time>
      </trkpt>
      <trkpt lat="43.42297" lon="-1.31525">
        <ele>29</ele>
        <time>2022-01-15T04:48:27Z</time>
      </trkpt>
      <trkpt lat="43.4231" lon="-1.31546">
        <ele>27</ele>
        <time>2022-01-15T04:48:32Z</time>
      </trkpt>
      <trkpt lat="43.42357" lon="-1.31643">
        <ele>24</ele>
        <time>2022-01-15T04:48:51Z</time>
      </trkpt>
      <trkpt lat="43.42395" lon="-1.31694">
        <ele>24</ele>
        <time>2022-01-15T04:49:04Z</time>
      </trkpt>
      <trkpt lat="43.42432" lon="-1.31725">
        <ele>25</ele>
        <time>2022-01-15T04:49:14Z</time>
      </trkpt>
      <trkpt lat="43.42477" lon="-1.31749">
        <ele>25</ele>
        <time>2022-01-15T04:49:25Z</time>
      </trkpt>
      <trkpt lat="43.42512" lon="-1.31753">
        <ele>24</ele>
        <time>2022-01-15T04:49:33Z</time>
      </trkpt>
      <trkpt lat="43.42622" lon="-1.31748">
        <ele>23</ele>
        <time>2022-01-15T04:49:59Z</time>
      </trkpt>
      <trkpt lat="43.42924" lon="-1.31756">
        <ele>24</ele>
        <time>2022-01-15T04:51:10Z</time>
      </trkpt>
      <trkpt lat="43.42947" lon="-1.31761">
        <ele>23</ele>
        <time>2022-01-15T04:51:15Z</time>
      </trkpt>
      <trkpt lat="43.42988" lon="-1.3178">
        <ele>22</ele>
        <time>2022-01-15T04:51:25Z</time>
      </trkpt>
      <trkpt lat="43.43036" lon="-1.31823">
        <ele>21</ele>
        <time>2022-01-15T04:51:39Z</time>
      </trkpt>
      <trkpt lat="43.43323" lon="-1.32163">
        <ele>21</ele>
        <time>2022-01-15T04:53:07Z</time>
      </trkpt>
      <trkpt lat="43.43371" lon="-1.32212">
        <ele>20</ele>
        <time>2022-01-15T04:53:21Z</time>
      </trkpt>
      <trkpt lat="43.43396" lon="-1.32227">
        <ele>18</ele>
        <time>2022-01-15T04:53:27Z</time>
      </trkpt>
      <trkpt lat="43.43441" lon="-1.32247">
        <ele>17</ele>
        <time>2022-01-15T04:53:38Z</time>
      </trkpt>
      <trkpt lat="43.43483" lon="-1.32254">
        <ele>17</ele>
        <time>2022-01-15T04:53:48Z</time>
      </trkpt>
      <trkpt lat="43.43508" lon="-1.32252">
        <ele>17</ele>
        <time>2022-01-15T04:53:54Z</time>
      </trkpt>
      <trkpt lat="43.43543" lon="-1.32242">
        <ele>18</ele>
        <time>2022-01-15T04:54:02Z</time>
      </trkpt>
      <trkpt lat="43.43607" lon="-1.32214">
        <ele>19</ele>
        <time>2022-01-15T04:54:18Z</time>
      </trkpt>
      <trkpt lat="43.43648" lon="-1.32199">
        <ele>21</ele>
        <time>2022-01-15T04:54:28Z</time>
      </trkpt>
      <trkpt lat="43.43677" lon="-1.3219">
        <ele>21</ele>
        <time>2022-01-15T04:54:35Z</time>
      </trkpt>
      <trkpt lat="43.43699" lon="-1.32187">
        <ele>21</ele>
        <time>2022-01-15T04:54:40Z</time>
      </trkpt>
      <trkpt lat="43.43751" lon="-1.32191">
        <ele>22</ele>
        <time>2022-01-15T04:54:52Z</time>
      </trkpt>
      <trkpt lat="43.43845" lon="-1.32211">
        <ele>23</ele>
        <time>2022-01-15T04:55:14Z</time>
      </trkpt>
      <trkpt lat="43.43887" lon="-1.32223">
        <ele>20</ele>
        <time>2022-01-15T04:55:25Z</time>
      </trkpt>
      <trkpt lat="43.44056" lon="-1.32242">
        <ele>17</ele>
        <time>2022-01-15T04:56:04Z</time>
      </trkpt>
      <trkpt lat="43.44109" lon="-1.32257">
        <ele>18</ele>
        <time>2022-01-15T04:56:17Z</time>
      </trkpt>
      <trkpt lat="43.44151" lon="-1.3228">
        <ele>22</ele>
        <time>2022-01-15T04:56:27Z</time>
      </trkpt>
      <trkpt lat="43.44189" lon="-1.32311">
        <ele>26</ele>
        <time>2022-01-15T04:56:38Z</time>
      </trkpt>
      <trkpt lat="43.44218" lon="-1.32342">
        <ele>27</ele>
        <time>2022-01-15T04:56:46Z</time>
      </trkpt>
      <trkpt lat="43.44239" lon="-1.32369">
        <ele>27</ele>
        <time>2022-01-15T04:56:53Z</time>
      </trkpt>
      <trkpt lat="43.44258" lon="-1.32401">
        <ele>28</ele>
        <time>2022-01-15T04:57:00Z</time>
      </trkpt>
      <trkpt lat="43.44275" lon="-1.32445">
        <ele>34</ele>
        <time>2022-01-15T04:57:08Z</time>
      </trkpt>
      <trkpt lat="43.44284" lon="-1.32459">
        <ele>36</ele>
        <time>2022-01-15T04:57:12Z</time>
      </trkpt>
      <trkpt lat="43.44307" lon="-1.32509">
        <ele>39</ele>
        <time>2022-01-15T04:57:22Z</time>
      </trkpt>
      <trkpt lat="43.44335" lon="-1.32602">
        <ele>40</ele>
        <time>2022-01-15T04:57:39Z</time>
      </trkpt>
      <trkpt lat="43.44357" lon="-1.32651">
        <ele>44</ele>
        <time>2022-01-15T04:57:48Z</time>
      </trkpt>
      <trkpt lat="43.44391" lon="-1.3271">
        <ele>47</ele>
        <time>2022-01-15T04:58:01Z</time>
      </trkpt>
      <trkpt lat="43.44433" lon="-1.32758">
        <ele>47</ele>
        <time>2022-01-15T04:58:14Z</time>
      </trkpt>
      <trkpt lat="43.44508" lon="-1.32829">
        <ele>51</ele>
        <time>2022-01-15T04:58:35Z</time>
      </trkpt>
      <trkpt lat="43.4453" lon="-1.32863">
        <ele>52</ele>
        <time>2022-01-15T04:58:43Z</time>
      </trkpt>
      <trkpt lat="43.44545" lon="-1.32893">
        <ele>53</ele>
        <time>2022-01-15T04:58:49Z</time>
      </trkpt>
      <trkpt lat="43.44562" lon="-1.32946">
        <ele>55</ele>
        <time>2022-01-15T04:58:59Z</time>
      </trkpt>
      <trkpt lat="43.44573" lon="-1.33042">
        <ele>56</ele>
        <time>2022-01-15T04:59:15Z</time>
      </trkpt>
      <trkpt lat="43.44582" lon="-1.33179">
        <ele>55</ele>
        <time>2022-01-15T04:59:39Z</time>
      </trkpt>
      <trkpt lat="43.44588" lon="-1.33213">
        <ele>56</ele>
        <time>2022-01-15T04:59:45Z</time>
      </trkpt>
      <trkpt lat="43.44604" lon="-1.33258">
        <ele>57</ele>
        <time>2022-01-15T04:59:53Z</time>
      </trkpt>
      <trkpt lat="43.44618" lon="-1.33279">
        <ele>59</ele>
        <time>2022-01-15T04:59:58Z</time>
      </trkpt>
      <trkpt lat="43.44627" lon="-1.33288">
        <ele>59</ele>
        <time>2022-01-15T05:00:01Z</time>
      </trkpt>
      <trkpt lat="43.44685" lon="-1.3333">
        <ele>61</ele>
        <time>2022-01-15T05:00:16Z</time>
      </trkpt>
      <trkpt lat="43.44707" lon="-1.33354">
        <ele>61</ele>
        <time>2022-01-15T05:00:22Z</time>
      </trkpt>
      <trkpt lat="43.44765" lon="-1.3346">
        <ele>63</ele>
        <time>2022-01-15T05:00:45Z</time>
      </trkpt>
      <trkpt lat="43.44785" lon="-1.33483">
        <ele>63</ele>
        <time>2022-01-15T05:00:51Z</time>
      </trkpt>
      <trkpt lat="43.44807" lon="-1.33499">
        <ele>62</ele>
        <time>2022-01-15T05:00:57Z</time>
      </trkpt>
      <trkpt lat="43.44824" lon="-1.33506">
        <ele>61</ele>
        <time>2022-01-15T05:01:01Z</time>
      </trkpt>
      <trkpt lat="43.44841" lon="-1.33507">
        <ele>61</ele>
        <time>2022-01-15T05:01:05Z</time>
      </trkpt>
      <trkpt lat="43.44862" lon="-1.33504">
        <ele>62</ele>
        <time>2022-01-15T05:01:10Z</time>
      </trkpt>
      <trkpt lat="43.44931" lon="-1.33478">
        <ele>63</ele>
        <time>2022-01-15T05:01:27Z</time>
      </trkpt>
      <trkpt lat="43.44982" lon="-1.33465">
        <ele>64</ele>
        <time>2022-01-15T05:01:39Z</time>
      </trkpt>
      <trkpt lat="43.45072" lon="-1.33456">
        <ele>62</ele>
        <time>2022-01-15T05:02:00Z</time>
      </trkpt>
      <trkpt lat="43.45145" lon="-1.33459">
        <ele>60</ele>
        <time>2022-01-15T05:02:17Z</time>
      </trkpt>
      <trkpt lat="43.45242" lon="-1.33474">
        <ele>60</ele>
        <time>2022-01-15T05:02:40Z</time>
      </trkpt>
      <trkpt lat="43.45284" lon="-1.33493">
        <ele>59</ele>
        <time>2022-01-15T05:02:50Z</time>
      </trkpt>
      <trkpt lat="43.45334" lon="-1.33531">
        <ele>60</ele>
        <time>2022-01-15T05:03:03Z</time>
      </trkpt>
      <trkpt lat="43.45383" lon="-1.33549">
        <ele>56</ele>
        <time>2022-01-15T05:03:15Z</time>
      </trkpt>
      <trkpt lat="43.45504" lon="-1.33528">
        <ele>45</ele>
        <time>2022-01-15T05:03:44Z</time>
      </trkpt>
      <trkpt lat="43.45522" lon="-1.3353">
        <ele>43</ele>
        <time>2022-01-15T05:03:48Z</time>
      </trkpt>
      <trkpt lat="43.4554" lon="-1.33543">
        <ele>41</ele>
        <time>2022-01-15T05:03:53Z</time>
      </trkpt>
      <trkpt lat="43.45559" lon="-1.33578">
        <ele>40</ele>
        <time>2022-01-15T05:04:00Z</time>
      </trkpt>
      <trkpt lat="43.45605" lon="-1.33728">
        <ele>37</ele>
        <time>2022-01-15T05:04:28Z</time>
      </trkpt>
      <trkpt lat="43.45623" lon="-1.33892">
        <ele>37</ele>
        <time>2022-01-15T05:04:56Z</time>
      </trkpt>
      <trkpt lat="43.45628" lon="-1.33916">
        <ele>35</ele>
        <time>2022-01-15T05:05:00Z</time>
      </trkpt>
      <trkpt lat="43.45638" lon="-1.33936">
        <ele>35</ele>
        <time>2022-01-15T05:05:04Z</time>
      </trkpt>
      <trkpt lat="43.45654" lon="-1.33947">
        <ele>34</ele>
        <time>2022-01-15T05:05:08Z</time>
      </trkpt>
      <trkpt lat="43.45672" lon="-1.33952">
        <ele>34</ele>
        <time>2022-01-15T05:05:12Z</time>
      </trkpt>
      <trkpt lat="43.45689" lon="-1.3395">
        <ele>34</ele>
        <time>2022-01-15T05:05:16Z</time>
      </trkpt>
      <trkpt lat="43.45718" lon="-1.33937">
        <ele>33</ele>
        <time>2022-01-15T05:05:24Z</time>
      </trkpt>
      <trkpt lat="43.45725" lon="-1.33936">
        <ele>33</ele>
        <time>2022-01-15T05:05:25Z</time>
      </trkpt>
      <trkpt lat="43.45739" lon="-1.33938">
        <ele>34</ele>
        <time>2022-01-15T05:05:29Z</time>
      </trkpt>
      <trkpt lat="43.45761" lon="-1.33948">
        <ele>34</ele>
        <time>2022-01-15T05:05:34Z</time>
      </trkpt>
      <trkpt lat="43.45825" lon="-1.34009">
        <ele>28</ele>
        <time>2022-01-15T05:05:52Z</time>
      </trkpt>
      <trkpt lat="43.45833" lon="-1.34013">
        <ele>26</ele>
        <time>2022-01-15T05:05:54Z</time>
      </trkpt>
      <trkpt lat="43.45869" lon="-1.34017">
        <ele>26</ele>
        <time>2022-01-15T05:06:03Z</time>
      </trkpt>
      <trkpt lat="43.45883" lon="-1.34025">
        <ele>27</ele>
        <time>2022-01-15T05:06:06Z</time>
      </trkpt>
      <trkpt lat="43.45913" lon="-1.34067">
        <ele>28</ele>
        <time>2022-01-15T05:06:16Z</time>
      </trkpt>
      <trkpt lat="43.45922" lon="-1.34095">
        <ele>28</ele>
        <time>2022-01-15T05:06:21Z</time>
      </trkpt>
      <trkpt lat="43.45928" lon="-1.34124">
        <ele>29</ele>
        <time>2022-01-15T05:06:26Z</time>
      </trkpt>
      <trkpt lat="43.45927" lon="-1.34175">
        <ele>29</ele>
        <time>2022-01-15T05:06:35Z</time>
      </trkpt>
      <trkpt lat="43.45923" lon="-1.34196">
        <ele>29</ele>
        <time>2022-01-15T05:06:39Z</time>
      </trkpt>
      <trkpt lat="43.45864" lon="-1.34368">
        <ele>29</ele>
        <time>2022-01-15T05:07:11Z</time>
      </trkpt>
      <trkpt lat="43.45858" lon="-1.34395">
        <ele>30</ele>
        <time>2022-01-15T05:07:16Z</time>
      </trkpt>
      <trkpt lat="43.45854" lon="-1.34432">
        <ele>30</ele>
        <time>2022-01-15T05:07:22Z</time>
      </trkpt>
      <trkpt lat="43.45851" lon="-1.34493">
        <ele>30</ele>
        <time>2022-01-15T05:07:32Z</time>
      </trkpt>
      <trkpt lat="43.45853" lon="-1.34588">
        <ele>25</ele>
        <time>2022-01-15T05:07:49Z</time>
      </trkpt>
      <trkpt lat="43.45858" lon="-1.34644">
        <ele>23</ele>
        <time>2022-01-15T05:07:58Z</time>
      </trkpt>
      <trkpt lat="43.45882" lon="-1.34783">
        <ele>22</ele>
        <time>2022-01-15T05:08:22Z</time>
      </trkpt>
      <trkpt lat="43.45885" lon="-1.34813">
        <ele>22</ele>
        <time>2022-01-15T05:08:27Z</time>
      </trkpt>
      <trkpt lat="43.45885" lon="-1.34879">
        <ele>23</ele>
        <time>2022-01-15T05:08:39Z</time>
      </trkpt>
      <trkpt lat="43.45888" lon="-1.34913">
        <ele>23</ele>
        <time>2022-01-15T05:08:44Z</time>
      </trkpt>
      <trkpt lat="43.45894" lon="-1.34946">
        <ele>22</ele>
        <time>2022-01-15T05:08:50Z</time>
      </trkpt>
      <trkpt lat="43.45922" lon="-1.35039">
        <ele>20</ele>
        <time>2022-01-15T05:09:07Z</time>
      </trkpt>
      <trkpt lat="43.45956" lon="-1.3511">
        <ele>17</ele>
        <time>2022-01-15T05:09:22Z</time>
      </trkpt>
      <trkpt lat="43.4605" lon="-1.35279">
        <ele>16</ele>
        <time>2022-01-15T05:09:58Z</time>
      </trkpt>
      <trkpt lat="43.46068" lon="-1.35342">
        <ele>18</ele>
        <time>2022-01-15T05:10:09Z</time>
      </trkpt>
      <trkpt lat="43.46074" lon="-1.35401">
        <ele>20</ele>
        <time>2022-01-15T05:10:19Z</time>
      </trkpt>
      <trkpt lat="43.46076" lon="-1.35481">
        <ele>20</ele>
        <time>2022-01-15T05:10:33Z</time>
      </trkpt>
      <trkpt lat="43.46087" lon="-1.35537">
        <ele>18</ele>
        <time>2022-01-15T05:10:43Z</time>
      </trkpt>
      <trkpt lat="43.46111" lon="-1.35584">
        <ele>18</ele>
        <time>2022-01-15T05:10:53Z</time>
      </trkpt>
      <trkpt lat="43.46132" lon="-1.3561">
        <ele>19</ele>
        <time>2022-01-15T05:10:59Z</time>
      </trkpt>
      <trkpt lat="43.46158" lon="-1.35635">
        <ele>19</ele>
        <time>2022-01-15T05:11:07Z</time>
      </trkpt>
      <trkpt lat="43.46195" lon="-1.35657">
        <ele>18</ele>
        <time>2022-01-15T05:11:16Z</time>
      </trkpt>
      <trkpt lat="43.46223" lon="-1.35667">
        <ele>16</ele>
        <time>2022-01-15T05:11:23Z</time>
      </trkpt>
      <trkpt lat="43.46261" lon="-1.35671">
        <ele>16</ele>
        <time>2022-01-15T05:11:32Z</time>
      </trkpt>
      <trkpt lat="43.46308" lon="-1.35685">
        <ele>17</ele>
        <time>2022-01-15T05:11:43Z</time>
      </trkpt>
      <trkpt lat="43.46329" lon="-1.35689">
        <ele>18</ele>
        <time>2022-01-15T05:11:48Z</time>
      </trkpt>
      <trkpt lat="43.46362" lon="-1.35703">
        <ele>17</ele>
        <time>2022-01-15T05:11:56Z</time>
      </trkpt>
      <trkpt lat="43.46399" lon="-1.3573">
        <ele>15</ele>
        <time>2022-01-15T05:12:06Z</time>
      </trkpt>
      <trkpt lat="43.46441" lon="-1.35781">
        <ele>14</ele>
        <time>2022-01-15T05:12:19Z</time>
      </trkpt>
      <trkpt lat="43.46463" lon="-1.35832">
        <ele>16</ele>
        <time>2022-01-15T05:12:29Z</time>
      </trkpt>
      <trkpt lat="43.46482" lon="-1.35944">
        <ele>15</ele>
        <time>2022-01-15T05:12:48Z</time>
      </trkpt>
      <trkpt lat="43.46482" lon="-1.35982">
        <ele>14</ele>
        <time>2022-01-15T05:12:55Z</time>
      </trkpt>
      <trkpt lat="43.46471" lon="-1.36061">
        <ele>16</ele>
        <time>2022-01-15T05:13:08Z</time>
      </trkpt>
      <trkpt lat="43.46461" lon="-1.3611">
        <ele>18</ele>
        <time>2022-01-15T05:13:17Z</time>
      </trkpt>
      <trkpt lat="43.46456" lon="-1.36177">
        <ele>19</ele>
        <time>2022-01-15T05:13:28Z</time>
      </trkpt>
      <trkpt lat="43.46456" lon="-1.36254">
        <ele>22</ele>
        <time>2022-01-15T05:13:41Z</time>
      </trkpt>
      <trkpt lat="43.46445" lon="-1.36303">
        <ele>24</ele>
        <time>2022-01-15T05:13:50Z</time>
      </trkpt>
      <trkpt lat="43.46432" lon="-1.36332">
        <ele>24</ele>
        <time>2022-01-15T05:13:56Z</time>
      </trkpt>
      <trkpt lat="43.46407" lon="-1.36378">
        <ele>24</ele>
        <time>2022-01-15T05:14:06Z</time>
      </trkpt>
      <trkpt lat="43.46391" lon="-1.36417">
        <ele>24</ele>
        <time>2022-01-15T05:14:13Z</time>
      </trkpt>
      <trkpt lat="43.46392" lon="-1.36465">
        <ele>25</ele>
        <time>2022-01-15T05:14:21Z</time>
      </trkpt>
      <trkpt lat="43.464" lon="-1.36522">
        <ele>27</ele>
        <time>2022-01-15T05:14:31Z</time>
      </trkpt>
      <trkpt lat="43.46413" lon="-1.36584">
        <ele>27</ele>
        <time>2022-01-15T05:14:42Z</time>
      </trkpt>
      <trkpt lat="43.46433" lon="-1.36757">
        <ele>24</ele>
        <time>2022-01-15T05:15:12Z</time>
      </trkpt>
      <trkpt lat="43.46463" lon="-1.36838">
        <ele>26</ele>
        <time>2022-01-15T05:15:27Z</time>
      </trkpt>
      <trkpt lat="43.46484" lon="-1.36881">
        <ele>25</ele>
        <time>2022-01-15T05:15:36Z</time>
      </trkpt>
      <trkpt lat="43.46526" lon="-1.36928">
        <ele>25</ele>
        <time>2022-01-15T05:15:49Z</time>
      </trkpt>
      <trkpt lat="43.46549" lon="-1.36946">
        <ele>26</ele>
        <time>2022-01-15T05:15:55Z</time>
      </trkpt>
      <trkpt lat="43.46561" lon="-1.36959">
        <ele>26</ele>
        <time>2022-01-15T05:15:58Z</time>
      </trkpt>
      <trkpt lat="43.46593" lon="-1.37041">
        <ele>23</ele>
        <time>2022-01-15T05:16:14Z</time>
      </trkpt>
      <trkpt lat="43.46603" lon="-1.37057">
        <ele>24</ele>
        <time>2022-01-15T05:16:18Z</time>
      </trkpt>
      <trkpt lat="43.46615" lon="-1.37088">
        <ele>25</ele>
        <time>2022-01-15T05:16:24Z</time>
      </trkpt>
      <trkpt lat="43.46638" lon="-1.37121">
        <ele>26</ele>
        <time>2022-01-15T05:16:31Z</time>
      </trkpt>
      <trkpt lat="43.46655" lon="-1.37186">
        <ele>23</ele>
        <time>2022-01-15T05:16:43Z</time>
      </trkpt>
      <trkpt lat="43.46676" lon="-1.37237">
        <ele>21</ele>
        <time>2022-01-15T05:16:53Z</time>
      </trkpt>
      <trkpt lat="43.4671" lon="-1.37293">
        <ele>23</ele>
        <time>2022-01-15T05:17:05Z</time>
      </trkpt>
      <trkpt lat="43.46724" lon="-1.3731">
        <ele>23</ele>
        <time>2022-01-15T05:17:10Z</time>
      </trkpt>
      <trkpt lat="43.46737" lon="-1.37342">
        <ele>23</ele>
        <time>2022-01-15T05:17:16Z</time>
      </trkpt>
      <trkpt lat="43.46744" lon="-1.37368">
        <ele>23</ele>
        <time>2022-01-15T05:17:21Z</time>
      </trkpt>
      <trkpt lat="43.46755" lon="-1.37481">
        <ele>22</ele>
        <time>2022-01-15T05:17:40Z</time>
      </trkpt>
      <trkpt lat="43.46809" lon="-1.37612">
        <ele>27</ele>
        <time>2022-01-15T05:18:06Z</time>
      </trkpt>
      <trkpt lat="43.46839" lon="-1.37648">
        <ele>27</ele>
        <time>2022-01-15T05:18:15Z</time>
      </trkpt>
      <trkpt lat="43.46867" lon="-1.37668">
        <ele>27</ele>
        <time>2022-01-15T05:18:22Z</time>
      </trkpt>
      <trkpt lat="43.46909" lon="-1.37687">
        <ele>26</ele>
        <time>2022-01-15T05:18:33Z</time>
      </trkpt>
      <trkpt lat="43.46928" lon="-1.37713">
        <ele>27</ele>
        <time>2022-01-15T05:18:39Z</time>
      </trkpt>
      <trkpt lat="43.46944" lon="-1.37743">
        <ele>29</ele>
        <time>2022-01-15T05:18:45Z</time>
      </trkpt>
      <trkpt lat="43.46965" lon="-1.37793">
        <ele>30</ele>
        <time>2022-01-15T05:18:55Z</time>
      </trkpt>
      <trkpt lat="43.46968" lon="-1.37846">
        <ele>30</ele>
        <time>2022-01-15T05:19:04Z</time>
      </trkpt>
      <trkpt lat="43.46963" lon="-1.37897">
        <ele>33</ele>
        <time>2022-01-15T05:19:13Z</time>
      </trkpt>
      <trkpt lat="43.46968" lon="-1.37932">
        <ele>34</ele>
        <time>2022-01-15T05:19:19Z</time>
      </trkpt>
      <trkpt lat="43.46977" lon="-1.37964">
        <ele>34</ele>
        <time>2022-01-15T05:19:25Z</time>
      </trkpt>
      <trkpt lat="43.46979" lon="-1.37982">
        <ele>34</ele>
        <time>2022-01-15T05:19:28Z</time>
      </trkpt>
      <trkpt lat="43.46984" lon="-1.38">
        <ele>34</ele>
        <time>2022-01-15T05:19:31Z</time>
      </trkpt>
      <trkpt lat="43.47001" lon="-1.38037">
        <ele>31</ele>
        <time>2022-01-15T05:19:38Z</time>
      </trkpt>
      <trkpt lat="43.47015" lon="-1.38144">
        <ele>27</ele>
        <time>2022-01-15T05:19:57Z</time>
      </trkpt>
      <trkpt lat="43.47031" lon="-1.38185">
        <ele>25</ele>
        <time>2022-01-15T05:20:05Z</time>
      </trkpt>
      <trkpt lat="43.47043" lon="-1.38209">
        <ele>24</ele>
        <time>2022-01-15T05:20:10Z</time>
      </trkpt>
      <trkpt lat="43.47111" lon="-1.3826">
        <ele>19</ele>
        <time>2022-01-15T05:20:28Z</time>
      </trkpt>
      <trkpt lat="43.47135" lon="-1.38294">
        <ele>19</ele>
        <time>2022-01-15T05:20:36Z</time>
      </trkpt>
      <trkpt lat="43.47151" lon="-1.38329">
        <ele>18</ele>
        <time>2022-01-15T05:20:43Z</time>
      </trkpt>
      <trkpt lat="43.47163" lon="-1.38396">
        <ele>18</ele>
        <time>2022-01-15T05:20:54Z</time>
      </trkpt>
      <trkpt lat="43.47175" lon="-1.38502">
        <ele>19</ele>
        <time>2022-01-15T05:21:13Z</time>
      </trkpt>
      <trkpt lat="43.47177" lon="-1.38631">
        <ele>23</ele>
        <time>2022-01-15T05:21:34Z</time>
      </trkpt>
      <trkpt lat="43.47184" lon="-1.38695">
        <ele>25</ele>
        <time>2022-01-15T05:21:45Z</time>
      </trkpt>
      <trkpt lat="43.47205" lon="-1.38798">
        <ele>26</ele>
        <time>2022-01-15T05:22:04Z</time>
      </trkpt>
      <trkpt lat="43.47245" lon="-1.38945">
        <ele>27</ele>
        <time>2022-01-15T05:22:30Z</time>
      </trkpt>
      <trkpt lat="43.47262" lon="-1.39017">
        <ele>30</ele>
        <time>2022-01-15T05:22:43Z</time>
      </trkpt>
      <trkpt lat="43.473" lon="-1.39253">
        <ele>28</ele>
        <time>2022-01-15T05:23:24Z</time>
      </trkpt>
      <trkpt lat="43.47313" lon="-1.39486">
        <ele>27</ele>
        <time>2022-01-15T05:24:04Z</time>
      </trkpt>
      <trkpt lat="43.47321" lon="-1.39539">
        <ele>28</ele>
        <time>2022-01-15T05:24:13Z</time>
      </trkpt>
      <trkpt lat="43.47319" lon="-1.39571">
        <ele>28</ele>
        <time>2022-01-15T05:24:18Z</time>
      </trkpt>
      <trkpt lat="43.47327" lon="-1.39641">
        <ele>28</ele>
        <time>2022-01-15T05:24:30Z</time>
      </trkpt>
      <trkpt lat="43.47344" lon="-1.39717">
        <ele>29</ele>
        <time>2022-01-15T05:24:44Z</time>
      </trkpt>
      <trkpt lat="43.47361" lon="-1.39775">
        <ele>30</ele>
        <time>2022-01-15T05:24:54Z</time>
      </trkpt>
      <trkpt lat="43.47443" lon="-1.39964">
        <ele>36</ele>
        <time>2022-01-15T05:25:32Z</time>
      </trkpt>
      <trkpt lat="43.47455" lon="-1.40016">
        <ele>35</ele>
        <time>2022-01-15T05:25:41Z</time>
      </trkpt>
      <trkpt lat="43.47459" lon="-1.40091">
        <ele>30</ele>
        <time>2022-01-15T05:25:54Z</time>
      </trkpt>
      <trkpt lat="43.47467" lon="-1.40157">
        <ele>29</ele>
        <time>2022-01-15T05:26:05Z</time>
      </trkpt>
      <trkpt lat="43.4751" lon="-1.40311">
        <ele>24</ele>
        <time>2022-01-15T05:26:33Z</time>
      </trkpt>
      <trkpt lat="43.47563" lon="-1.40524">
        <ele>22</ele>
        <time>2022-01-15T05:27:11Z</time>
      </trkpt>
      <trkpt lat="43.47578" lon="-1.4056">
        <ele>20</ele>
        <time>2022-01-15T05:27:18Z</time>
      </trkpt>
      <trkpt lat="43.47659" lon="-1.40702">
        <ele>14</ele>
        <time>2022-01-15T05:27:49Z</time>
      </trkpt>
      <trkpt lat="43.47766" lon="-1.40867">
        <ele>15</ele>
        <time>2022-01-15T05:28:26Z</time>
      </trkpt>
      <trkpt lat="43.47782" lon="-1.40918">
        <ele>13</ele>
        <time>2022-01-15T05:28:36Z</time>
      </trkpt>
      <trkpt lat="43.4781" lon="-1.41025">
        <ele>9</ele>
        <time>2022-01-15T05:28:55Z</time>
      </trkpt>
      <trkpt lat="43.47832" lon="-1.41072">
        <ele>7</ele>
        <time>2022-01-15T05:29:04Z</time>
      </trkpt>
      <trkpt lat="43.47858" lon="-1.41115">
        <ele>7</ele>
        <time>2022-01-15T05:29:14Z</time>
      </trkpt>
      <trkpt lat="43.47885" lon="-1.41145">
        <ele>6</ele>
        <time>2022-01-15T05:29:22Z</time>
      </trkpt>
      <trkpt lat="43.479" lon="-1.41158">
        <ele>6</ele>
        <time>2022-01-15T05:29:26Z</time>
      </trkpt>
      <trkpt lat="43.47915" lon="-1.41168">
        <ele>5</ele>
        <time>2022-01-15T05:29:30Z</time>
      </trkpt>
      <trkpt lat="43.47961" lon="-1.4119">
        <ele>6</ele>
        <time>2022-01-15T05:29:41Z</time>
      </trkpt>
      <trkpt lat="43.48106" lon="-1.41239">
        <ele>3</ele>
        <time>2022-01-15T05:30:16Z</time>
      </trkpt>
      <trkpt lat="43.48314" lon="-1.41319">
        <ele>3</ele>
        <time>2022-01-15T05:31:07Z</time>
      </trkpt>
      <trkpt lat="43.48368" lon="-1.4133">
        <ele>2</ele>
        <time>2022-01-15T05:31:19Z</time>
      </trkpt>
      <trkpt lat="43.48452" lon="-1.41331">
        <ele>1</ele>
        <time>2022-01-15T05:31:39Z</time>
      </trkpt>
      <trkpt lat="43.48515" lon="-1.41345">
        <ele>1</ele>
        <time>2022-01-15T05:31:54Z</time>
      </trkpt>
      <trkpt lat="43.48567" lon="-1.41364">
        <ele>1</ele>
        <time>2022-01-15T05:32:06Z</time>
      </trkpt>
      <trkpt lat="43.48605" lon="-1.41384">
        <ele>1</ele>
        <time>2022-01-15T05:32:16Z</time>
      </trkpt>
      <trkpt lat="43.4864" lon="-1.41408">
        <ele>1</ele>
        <time>2022-01-15T05:32:25Z</time>
      </trkpt>
      <trkpt lat="43.48689" lon="-1.41452">
        <ele>1</ele>
        <time>2022-01-15T05:32:39Z</time>
      </trkpt>
      <trkpt lat="43.48781" lon="-1.4155">
        <ele>4</ele>
        <time>2022-01-15T05:33:06Z</time>
      </trkpt>
      <trkpt lat="43.4886" lon="-1.41652">
        <ele>3</ele>
        <time>2022-01-15T05:33:31Z</time>
      </trkpt>
      <trkpt lat="43.48919" lon="-1.4174">
        <ele>2</ele>
        <time>2022-01-15T05:33:51Z</time>
      </trkpt>
      <trkpt lat="43.48977" lon="-1.41808">
        <ele>1.9</ele>
        <time>2022-01-15T05:34:09Z</time>
      </trkpt>
      <trkpt lat="43.49107" lon="-1.41939">
        <ele>1</ele>
        <time>2022-01-15T05:34:47Z</time>
      </trkpt>
      <trkpt lat="43.49139" lon="-1.41991">
        <ele>2</ele>
        <time>2022-01-15T05:34:58Z</time>
      </trkpt>
      <trkpt lat="43.49162" lon="-1.42043">
        <ele>2</ele>
        <time>2022-01-15T05:35:09Z</time>
      </trkpt>
      <trkpt lat="43.49173" lon="-1.42075">
        <ele>2</ele>
        <time>2022-01-15T05:35:15Z</time>
      </trkpt>
      <trkpt lat="43.49271" lon="-1.42486">
        <ele>5</ele>
        <time>2022-01-15T05:36:28Z</time>
      </trkpt>
      <trkpt lat="43.4928" lon="-1.42553">
        <ele>5</ele>
        <time>2022-01-15T05:36:40Z</time>
      </trkpt>
      <trkpt lat="43.49281" lon="-1.42646">
        <ele>5</ele>
        <time>2022-01-15T05:36:55Z</time>
      </trkpt>
      <trkpt lat="43.49274" lon="-1.4276">
        <ele>2</ele>
        <time>2022-01-15T05:37:15Z</time>
      </trkpt>
      <trkpt lat="43.49258" lon="-1.42826">
        <ele>1</ele>
        <time>2022-01-15T05:37:27Z</time>
      </trkpt>
      <trkpt lat="43.49218" lon="-1.42896">
        <ele>1</ele>
        <time>2022-01-15T05:37:42Z</time>
      </trkpt>
      <trkpt lat="43.49143" lon="-1.43013">
        <ele>1.9</ele>
        <time>2022-01-15T05:38:08Z</time>
      </trkpt>
      <trkpt lat="43.49097" lon="-1.43066">
        <ele>1</ele>
        <time>2022-01-15T05:38:22Z</time>
      </trkpt>
      <trkpt lat="43.49054" lon="-1.43124">
        <ele>1</ele>
        <time>2022-01-15T05:38:36Z</time>
      </trkpt>
      <trkpt lat="43.4896" lon="-1.4323">
        <ele>1</ele>
        <time>2022-01-15T05:39:04Z</time>
      </trkpt>
      <trkpt lat="43.48915" lon="-1.43259">
        <ele>2</ele>
        <time>2022-01-15T05:39:16Z</time>
      </trkpt>
      <trkpt lat="43.48902" lon="-1.43276">
        <ele>2</ele>
        <time>2022-01-15T05:39:20Z</time>
      </trkpt>
      <trkpt lat="43.48894" lon="-1.43299">
        <ele>2</ele>
        <time>2022-01-15T05:39:25Z</time>
      </trkpt>
      <trkpt lat="43.48858" lon="-1.43361">
        <ele>2</ele>
        <time>2022-01-15T05:39:38Z</time>
      </trkpt>
      <trkpt lat="43.48847" lon="-1.434">
        <ele>2</ele>
        <time>2022-01-15T05:39:45Z</time>
      </trkpt>
      <trkpt lat="43.48786" lon="-1.43537">
        <ele>1</ele>
        <time>2022-01-15T05:40:12Z</time>
      </trkpt>
      <trkpt lat="43.48739" lon="-1.43678">
        <ele>1</ele>
        <time>2022-01-15T05:40:39Z</time>
      </trkpt>
      <trkpt lat="43.48712" lon="-1.43734">
        <ele>1</ele>
        <time>2022-01-15T05:40:50Z</time>
      </trkpt>
      <trkpt lat="43.48648" lon="-1.43854">
        <ele>1</ele>
        <time>2022-01-15T05:41:15Z</time>
      </trkpt>
      <trkpt lat="43.48579" lon="-1.44031">
        <ele>2</ele>
        <time>2022-01-15T05:41:49Z</time>
      </trkpt>
      <trkpt lat="43.48521" lon="-1.4415">
        <ele>2</ele>
        <time>2022-01-15T05:42:14Z</time>
      </trkpt>
      <trkpt lat="43.48483" lon="-1.44243">
        <ele>3</ele>
        <time>2022-01-15T05:42:32Z</time>
      </trkpt>
      <trkpt lat="43.48432" lon="-1.4438">
        <ele>1</ele>
        <time>2022-01-15T05:42:58Z</time>
      </trkpt>
      <trkpt lat="43.48426" lon="-1.44411">
        <ele>1</ele>
        <time>2022-01-15T05:43:03Z</time>
      </trkpt>
      <trkpt lat="43.4841" lon="-1.44445">
        <ele>2</ele>
        <time>2022-01-15T05:43:10Z</time>
      </trkpt>
      <trkpt lat="43.4839" lon="-1.44466">
        <ele>3</ele>
        <time>2022-01-15T05:43:16Z</time>
      </trkpt>
      <trkpt lat="43.48369" lon="-1.44502">
        <ele>3</ele>
        <time>2022-01-15T05:43:24Z</time>
      </trkpt>
      <trkpt lat="43.48365" lon="-1.4452">
        <ele>3</ele>
        <time>2022-01-15T05:43:27Z</time>
      </trkpt>
      <trkpt lat="43.48354" lon="-1.44659">
        <ele>4</ele>
        <time>2022-01-15T05:43:51Z</time>
      </trkpt>
      <trkpt lat="43.48364" lon="-1.4469">
        <ele>5</ele>
        <time>2022-01-15T05:43:56Z</time>
      </trkpt>
      <trkpt lat="43.48375" lon="-1.44693">
        <ele>4</ele>
        <time>2022-01-15T05:43:59Z</time>
      </trkpt>
      <trkpt lat="43.48388" lon="-1.44683">
        <ele>4</ele>
        <time>2022-01-15T05:44:03Z</time>
      </trkpt>
      <trkpt lat="43.48407" lon="-1.44683">
        <ele>3</ele>
        <time>2022-01-15T05:44:07Z</time>
      </trkpt>
      <trkpt lat="43.48424" lon="-1.4471">
        <ele>3</ele>
        <time>2022-01-15T05:44:13Z</time>
      </trkpt>
      <trkpt lat="43.48425" lon="-1.44745">
        <ele>4</ele>
        <time>2022-01-15T05:44:19Z</time>
      </trkpt>
      <trkpt lat="43.4843" lon="-1.44776">
        <ele>3</ele>
        <time>2022-01-15T05:44:24Z</time>
      </trkpt>
      <trkpt lat="43.4843" lon="-1.44799">
        <ele>3</ele>
        <time>2022-01-15T05:44:28Z</time>
      </trkpt>
      <trkpt lat="43.48427" lon="-1.44821">
        <ele>3</ele>
        <time>2022-01-15T05:44:32Z</time>
      </trkpt>
      <trkpt lat="43.48429" lon="-1.44837">
        <ele>2</ele>
        <time>2022-01-15T05:44:35Z</time>
      </trkpt>
      <trkpt lat="43.48427" lon="-1.44911">
        <ele>1</ele>
        <time>2022-01-15T05:44:47Z</time>
      </trkpt>
      <trkpt lat="43.48422" lon="-1.44989">
        <ele>2</ele>
        <time>2022-01-15T05:45:01Z</time>
      </trkpt>
      <trkpt lat="43.48414" lon="-1.45064">
        <ele>1</ele>
        <time>2022-01-15T05:45:13Z</time>
      </trkpt>
      <trkpt lat="43.48356" lon="-1.45376">
        <ele>2</ele>
        <time>2022-01-15T05:46:08Z</time>
      </trkpt>
      <trkpt lat="43.48356" lon="-1.45439">
        <ele>2</ele>
        <time>2022-01-15T05:46:19Z</time>
      </trkpt>
      <trkpt lat="43.48364" lon="-1.45521">
        <ele>3</ele>
        <time>2022-01-15T05:46:33Z</time>
      </trkpt>
      <trkpt lat="43.48377" lon="-1.45592">
        <ele>4</ele>
        <time>2022-01-15T05:46:45Z</time>
      </trkpt>
      <trkpt lat="43.48393" lon="-1.4565">
        <ele>8</ele>
        <time>2022-01-15T05:46:56Z</time>
      </trkpt>
      <trkpt lat="43.48433" lon="-1.45718">
        <ele>9</ele>
        <time>2022-01-15T05:47:10Z</time>
      </trkpt>
      <trkpt lat="43.48453" lon="-1.45768">
        <ele>9</ele>
        <time>2022-01-15T05:47:20Z</time>
      </trkpt>
      <trkpt lat="43.48477" lon="-1.45867">
        <ele>7</ele>
        <time>2022-01-15T05:47:38Z</time>
      </trkpt>
      <trkpt lat="43.48532" lon="-1.45961">
        <ele>6</ele>
        <time>2022-01-15T05:47:58Z</time>
      </trkpt>
      <trkpt lat="43.48544" lon="-1.45988">
        <ele>6</ele>
        <time>2022-01-15T05:48:04Z</time>
      </trkpt>
      <trkpt lat="43.4856" lon="-1.46036">
        <ele>7</ele>
        <time>2022-01-15T05:48:13Z</time>
      </trkpt>
      <trkpt lat="43.48592" lon="-1.46091">
        <ele>6</ele>
        <time>2022-01-15T05:48:25Z</time>
      </trkpt>
      <trkpt lat="43.48631" lon="-1.46144">
        <ele>5</ele>
        <time>2022-01-15T05:48:37Z</time>
      </trkpt>
      <trkpt lat="43.48655" lon="-1.46198">
        <ele>5</ele>
        <time>2022-01-15T05:48:48Z</time>
      </trkpt>
      <trkpt lat="43.48693" lon="-1.46263">
        <ele>5</ele>
        <time>2022-01-15T05:49:02Z</time>
      </trkpt>
      <trkpt lat="43.48745" lon="-1.46327">
        <ele>4</ele>
        <time>2022-01-15T05:49:18Z</time>
      </trkpt>
      <trkpt lat="43.48788" lon="-1.46404">
        <ele>4</ele>
        <time>2022-01-15T05:49:35Z</time>
      </trkpt>
      <trkpt lat="43.48859" lon="-1.46551">
        <ele>7</ele>
        <time>2022-01-15T05:50:05Z</time>
      </trkpt>
      <trkpt lat="43.48926" lon="-1.46649">
        <ele>4</ele>
        <time>2022-01-15T05:50:28Z</time>
      </trkpt>
      <trkpt lat="43.48947" lon="-1.46672">
        <ele>4</ele>
        <time>2022-01-15T05:50:34Z</time>
      </trkpt>
      <trkpt lat="43.48966" lon="-1.46699">
        <ele>5</ele>
        <time>2022-01-15T05:50:40Z</time>
      </trkpt>
      <trkpt lat="43.49002" lon="-1.46733">
        <ele>4</ele>
        <time>2022-01-15T05:50:50Z</time>
      </trkpt>
      <trkpt lat="43.49031" lon="-1.46748">
        <ele>3</ele>
        <time>2022-01-15T05:50:58Z</time>
      </trkpt>
      <trkpt lat="43.49045" lon="-1.46766">
        <ele>3</ele>
        <time>2022-01-15T05:51:02Z</time>
      </trkpt>
      <trkpt lat="43.49044" lon="-1.46777">
        <ele>3</ele>
        <time>2022-01-15T05:51:04Z</time>
      </trkpt>
      <trkpt lat="43.49037" lon="-1.46786">
        <ele>3</ele>
        <time>2022-01-15T05:51:06Z</time>
      </trkpt>
      <trkpt lat="43.48967" lon="-1.4682">
        <ele>9</ele>
        <time>2022-01-15T05:51:24Z</time>
      </trkpt>
      <trkpt lat="43.48942" lon="-1.46814">
        <ele>10</ele>
        <time>2022-01-15T05:51:30Z</time>
      </trkpt>
      <trkpt lat="43.48899" lon="-1.46791">
        <ele>14</ele>
        <time>2022-01-15T05:51:40Z</time>
      </trkpt>
      <trkpt lat="43.48828" lon="-1.46762">
        <ele>20</ele>
        <time>2022-01-15T05:51:58Z</time>
      </trkpt>
      <trkpt lat="43.4881" lon="-1.46751">
        <ele>20</ele>
        <time>2022-01-15T05:52:02Z</time>
      </trkpt>
      <trkpt lat="43.488" lon="-1.46749">
        <ele>21</ele>
        <time>2022-01-15T05:52:05Z</time>
      </trkpt>
      <trkpt lat="43.48774" lon="-1.46737">
        <ele>22</ele>
        <time>2022-01-15T05:52:11Z</time>
      </trkpt>
      <trkpt lat="43.48753" lon="-1.46733">
        <ele>24</ele>
        <time>2022-01-15T05:52:16Z</time>
      </trkpt>
      <trkpt lat="43.48747" lon="-1.46735">
        <ele>24</ele>
        <time>2022-01-15T05:52:17Z</time>
      </trkpt>
      <trkpt lat="43.48739" lon="-1.46743">
        <ele>24</ele>
        <time>2022-01-15T05:52:20Z</time>
      </trkpt>
      <trkpt lat="43.48734" lon="-1.46769">
        <ele>23</ele>
        <time>2022-01-15T05:52:24Z</time>
      </trkpt>
      <trkpt lat="43.48731" lon="-1.46869">
        <ele>17</ele>
        <time>2022-01-15T05:52:41Z</time>
      </trkpt>
      <trkpt lat="43.48717" lon="-1.46936">
        <ele>14</ele>
        <time>2022-01-15T05:52:53Z</time>
      </trkpt>
      <trkpt lat="43.48698" lon="-1.46994">
        <ele>11</ele>
        <time>2022-01-15T05:53:04Z</time>
      </trkpt>
      <trkpt lat="43.48664" lon="-1.4707">
        <ele>9</ele>
        <time>2022-01-15T05:53:19Z</time>
      </trkpt>
      <trkpt lat="43.48625" lon="-1.47147">
        <ele>7</ele>
        <time>2022-01-15T05:53:35Z</time>
      </trkpt>
      <trkpt lat="43.48618" lon="-1.47166">
        <ele>7</ele>
        <time>2022-01-15T05:53:38Z</time>
      </trkpt>
      <trkpt lat="43.486" lon="-1.47251">
        <ele>7</ele>
        <time>2022-01-15T05:53:53Z</time>
      </trkpt>
      <trkpt lat="43.48597" lon="-1.47291">
        <ele>5</ele>
        <time>2022-01-15T05:54:00Z</time>
      </trkpt>
      <trkpt lat="43.48605" lon="-1.47333">
        <ele>4</ele>
        <time>2022-01-15T05:54:08Z</time>
      </trkpt>
      <trkpt lat="43.48649" lon="-1.47387">
        <ele>4</ele>
        <time>2022-01-15T05:54:21Z</time>
      </trkpt>
      <trkpt lat="43.48702" lon="-1.4743">
        <ele>3</ele>
        <time>2022-01-15T05:54:36Z</time>
      </trkpt>
      <trkpt lat="43.48736" lon="-1.47439">
        <ele>3</ele>
        <time>2022-01-15T05:54:44Z</time>
      </trkpt>
      <trkpt lat="43.48781" lon="-1.4743">
        <ele>4</ele>
        <time>2022-01-15T05:54:54Z</time>
      </trkpt>
      <trkpt lat="43.48788" lon="-1.47436">
        <ele>4</ele>
        <time>2022-01-15T05:54:56Z</time>
      </trkpt>
      <trkpt lat="43.48793" lon="-1.47454">
        <ele>4</ele>
        <time>2022-01-15T05:55:00Z</time>
      </trkpt>
      <trkpt lat="43.48798" lon="-1.47523">
        <ele>5</ele>
        <time>2022-01-15T05:55:11Z</time>
      </trkpt>
      <trkpt lat="43.48791" lon="-1.47552">
        <ele>5</ele>
        <time>2022-01-15T05:55:17Z</time>
      </trkpt>
      <trkpt lat="43.4878" lon="-1.47558">
        <ele>4</ele>
        <time>2022-01-15T05:55:19Z</time>
      </trkpt>
      <trkpt lat="43.48748" lon="-1.47566">
        <ele>2</ele>
        <time>2022-01-15T05:55:27Z</time>
      </trkpt>
      <trkpt lat="43.48723" lon="-1.47588">
        <ele>3</ele>
        <time>2022-01-15T05:55:34Z</time>
      </trkpt>
      <trkpt lat="43.48717" lon="-1.47598">
        <ele>3</ele>
        <time>2022-01-15T05:55:36Z</time>
      </trkpt>
      <trkpt lat="43.4871" lon="-1.47625">
        <ele>5</ele>
        <time>2022-01-15T05:55:41Z</time>
      </trkpt>
      <trkpt lat="43.48695" lon="-1.4764">
        <ele>8</ele>
        <time>2022-01-15T05:55:45Z</time>
      </trkpt>
      <trkpt lat="43.48671" lon="-1.47646">
        <ele>10</ele>
        <time>2022-01-15T05:55:51Z</time>
      </trkpt>
      <trkpt lat="43.48651" lon="-1.47647">
        <ele>9</ele>
        <time>2022-01-15T05:55:56Z</time>
      </trkpt>
      <trkpt lat="43.48569" lon="-1.47622">
        <ele>3</ele>
        <time>2022-01-15T05:56:15Z</time>
      </trkpt>
      <trkpt lat="43.48539" lon="-1.47626">
        <ele>5</ele>
        <time>2022-01-15T05:56:22Z</time>
      </trkpt>
      <trkpt lat="43.48471" lon="-1.47649">
        <ele>5</ele>
        <time>2022-01-15T05:56:39Z</time>
      </trkpt>
      <trkpt lat="43.48422" lon="-1.47671">
        <ele>3</ele>
        <time>2022-01-15T05:56:51Z</time>
      </trkpt>
      <trkpt lat="43.48389" lon="-1.47676">
        <ele>5</ele>
        <time>2022-01-15T05:56:58Z</time>
      </trkpt>
      <trkpt lat="43.48343" lon="-1.47676">
        <ele>6</ele>
        <time>2022-01-15T05:57:09Z</time>
      </trkpt>
      <trkpt lat="43.483" lon="-1.4769">
        <ele>8</ele>
        <time>2022-01-15T05:57:19Z</time>
      </trkpt>
      <trkpt lat="43.48208" lon="-1.47725">
        <ele>10</ele>
        <time>2022-01-15T05:57:42Z</time>
      </trkpt>
      <trkpt lat="43.482" lon="-1.4773">
        <ele>10</ele>
        <time>2022-01-15T05:57:44Z</time>
      </trkpt>
      <trkpt lat="43.48195" lon="-1.47739">
        <ele>11</ele>
        <time>2022-01-15T05:57:46Z</time>
      </trkpt>
      <trkpt lat="43.48185" lon="-1.47746">
        <ele>11</ele>
        <time>2022-01-15T05:57:48Z</time>
      </trkpt>
      <trkpt lat="43.4818" lon="-1.47739">
        <ele>11</ele>
        <time>2022-01-15T05:57:50Z</time>
      </trkpt>
      <trkpt lat="43.48176" lon="-1.47717">
        <ele>9</ele>
        <time>2022-01-15T05:57:54Z</time>
      </trkpt>
      <trkpt lat="43.48154" lon="-1.47689">
        <ele>10</ele>
        <time>2022-01-15T05:58:01Z</time>
      </trkpt>
      <trkpt lat="43.48135" lon="-1.47658">
        <ele>13</ele>
        <time>2022-01-15T05:58:08Z</time>
      </trkpt>
      <trkpt lat="43.48112" lon="-1.47614">
        <ele>13</ele>
        <time>2022-01-15T05:58:17Z</time>
      </trkpt>
      <trkpt lat="43.48105" lon="-1.47594">
        <ele>12</ele>
        <time>2022-01-15T05:58:21Z</time>
      </trkpt>
      <trkpt lat="43.4809" lon="-1.47572">
        <ele>11</ele>
        <time>2022-01-15T05:58:26Z</time>
      </trkpt>
      <trkpt lat="43.48061" lon="-1.47535">
        <ele>9</ele>
        <time>2022-01-15T05:58:35Z</time>
      </trkpt>
      <trkpt lat="43.48025" lon="-1.47506">
        <ele>7</ele>
        <time>2022-01-15T05:58:45Z</time>
      </trkpt>
      <trkpt lat="43.47982" lon="-1.47477">
        <ele>8</ele>
        <time>2022-01-15T05:58:56Z</time>
      </trkpt>
      <trkpt lat="43.47973" lon="-1.47468">
        <ele>8</ele>
        <time>2022-01-15T05:58:59Z</time>
      </trkpt>
      <trkpt lat="43.47957" lon="-1.47447">
        <ele>7</ele>
        <time>2022-01-15T05:59:04Z</time>
      </trkpt>
      <trkpt lat="43.47944" lon="-1.47421">
        <ele>6</ele>
        <time>2022-01-15T05:59:09Z</time>
      </trkpt>
      <trkpt lat="43.47904" lon="-1.47373">
        <ele>5</ele>
        <time>2022-01-15T05:59:21Z</time>
      </trkpt>
      <trkpt lat="43.47898" lon="-1.47353">
        <ele>4</ele>
        <time>2022-01-15T05:59:25Z</time>
      </trkpt>
      <trkpt lat="43.47902" lon="-1.47328">
        <ele>4</ele>
        <time>2022-01-15T05:59:29Z</time>
      </trkpt>
      <trkpt lat="43.47897" lon="-1.47316">
        <ele>4</ele>
        <time>2022-01-15T05:59:32Z</time>
      </trkpt>
      <trkpt lat="43.47899" lon="-1.47303">
        <ele>4</ele>
        <time>2022-01-15T05:59:34Z</time>
      </trkpt>
      <trkpt lat="43.47914" lon="-1.47294">
        <ele>5</ele>
        <time>2022-01-15T05:59:38Z</time>
      </trkpt>
      <trkpt lat="43.47933" lon="-1.47276">
        <ele>5</ele>
        <time>2022-01-15T05:59:43Z</time>
      </trkpt>
      <trkpt lat="43.47942" lon="-1.47276">
        <ele>5</ele>
        <time>2022-01-15T05:59:45Z</time>
      </trkpt>
      <trkpt lat="43.47945" lon="-1.47265">
        <ele>5</ele>
        <time>2022-01-15T05:59:47Z</time>
      </trkpt>
      <trkpt lat="43.47943" lon="-1.47258">
        <ele>5</ele>
        <time>2022-01-15T05:59:49Z</time>
      </trkpt>
      <trkpt lat="43.47926" lon="-1.47237">
        <ele>5</ele>
        <time>2022-01-15T05:59:54Z</time>
      </trkpt>
      <trkpt lat="43.47915" lon="-1.47233">
        <ele>4</ele>
        <time>2022-01-15T05:59:57Z</time>
      </trkpt>
      <trkpt lat="43.47911" lon="-1.47242">
        <ele>4</ele>
        <time>2022-01-15T05:59:58Z</time>
      </trkpt>
    </trkseg>
  </trk>
</gpx>